<?xml version="1.0" encoding="UTF-8"?>
<gpx version="1.1" creator="https://www.youtrack.es" xsi:schemaLocation="http://www.topografix.com/GPX/1/1 http://www.topografix.com/GPX/1/1/gpx.xsd http://www.garmin.com/xmlschemas/GpxExtensions/v3 http://www.garmin.com/xmlschemas/GpxExtensionsv3.xsd http://www.garmin.com/xmlschemas/TrackPointExtension/v1 http://www.garmin.com/xmlschemas/TrackPointExtensionv1.xsd" xmlns:gpxtpx="http://www.garmin.com/xmlschemas/TrackPointExtension/v1" xmlns:gpxx="http://www.garmin.com/xmlschemas/GpxExtensions/v3" xmlns:xsi="http://www.w3.org/2001/XMLSchema-instance">
  <metadata>
    <link href="https://www.youtrack.es">
      <text>YouTrack.es</text>
    </link>
    <time>2026-05-08T08:23:12Z</time>
  </metadata>
  <trk>
    <src>https://www.youtrack.es</src>
    <link href="https://www.youtrack.es/ruta/1421-interalcasigratal">
      <text>YouTrack.es</text>
    </link>
    <trkseg>
      <trkpt lat="42.304511" lon="-0.427799">
        <ele>983.5</ele>
        <time>2018-07-22T04:33:37.000Z</time>
      </trkpt>
      <trkpt lat="42.30451" lon="-0.427808">
        <ele>983.3</ele>
        <time>2018-07-22T04:33:38.000Z</time>
      </trkpt>
      <trkpt lat="42.304508" lon="-0.427818">
        <ele>983.2</ele>
        <time>2018-07-22T04:33:39.000Z</time>
      </trkpt>
      <trkpt lat="42.304505" lon="-0.42783">
        <ele>983.0</ele>
        <time>2018-07-22T04:33:40.000Z</time>
      </trkpt>
      <trkpt lat="42.304503" lon="-0.427844">
        <ele>982.7</ele>
        <time>2018-07-22T04:33:41.000Z</time>
      </trkpt>
      <trkpt lat="42.304499" lon="-0.427857">
        <ele>982.5</ele>
        <time>2018-07-22T04:33:42.000Z</time>
      </trkpt>
      <trkpt lat="42.304495" lon="-0.427872">
        <ele>982.2</ele>
        <time>2018-07-22T04:33:43.000Z</time>
      </trkpt>
      <trkpt lat="42.304491" lon="-0.427886">
        <ele>982.0</ele>
        <time>2018-07-22T04:33:44.000Z</time>
      </trkpt>
      <trkpt lat="42.304485" lon="-0.427901">
        <ele>981.7</ele>
        <time>2018-07-22T04:33:45.000Z</time>
      </trkpt>
      <trkpt lat="42.304479" lon="-0.427916">
        <ele>981.5</ele>
        <time>2018-07-22T04:33:46.000Z</time>
      </trkpt>
      <trkpt lat="42.304473" lon="-0.427931">
        <ele>981.2</ele>
        <time>2018-07-22T04:33:47.000Z</time>
      </trkpt>
      <trkpt lat="42.304467" lon="-0.427946">
        <ele>980.9</ele>
        <time>2018-07-22T04:33:48.000Z</time>
      </trkpt>
      <trkpt lat="42.304461" lon="-0.427962">
        <ele>980.6</ele>
        <time>2018-07-22T04:33:49.000Z</time>
      </trkpt>
      <trkpt lat="42.304455" lon="-0.427978">
        <ele>980.3</ele>
        <time>2018-07-22T04:33:50.000Z</time>
      </trkpt>
      <trkpt lat="42.304449" lon="-0.427995">
        <ele>980.0</ele>
        <time>2018-07-22T04:33:51.000Z</time>
      </trkpt>
      <trkpt lat="42.304443" lon="-0.428011">
        <ele>979.7</ele>
        <time>2018-07-22T04:33:52.000Z</time>
      </trkpt>
      <trkpt lat="42.304437" lon="-0.428028">
        <ele>979.4</ele>
        <time>2018-07-22T04:33:53.000Z</time>
      </trkpt>
      <trkpt lat="42.304431" lon="-0.428045">
        <ele>979.0</ele>
        <time>2018-07-22T04:33:54.000Z</time>
      </trkpt>
      <trkpt lat="42.304424" lon="-0.428061">
        <ele>978.7</ele>
        <time>2018-07-22T04:33:55.000Z</time>
      </trkpt>
      <trkpt lat="42.304417" lon="-0.428077">
        <ele>978.4</ele>
        <time>2018-07-22T04:33:56.000Z</time>
      </trkpt>
      <trkpt lat="42.30441" lon="-0.428093">
        <ele>978.0</ele>
        <time>2018-07-22T04:33:57.000Z</time>
      </trkpt>
      <trkpt lat="42.304403" lon="-0.428108">
        <ele>977.7</ele>
        <time>2018-07-22T04:33:58.000Z</time>
      </trkpt>
      <trkpt lat="42.304395" lon="-0.428122">
        <ele>977.4</ele>
        <time>2018-07-22T04:33:59.000Z</time>
      </trkpt>
      <trkpt lat="42.304386" lon="-0.428136">
        <ele>977.1</ele>
        <time>2018-07-22T04:34:00.000Z</time>
      </trkpt>
      <trkpt lat="42.304377" lon="-0.428149">
        <ele>976.8</ele>
        <time>2018-07-22T04:34:01.000Z</time>
      </trkpt>
      <trkpt lat="42.304368" lon="-0.428161">
        <ele>976.6</ele>
        <time>2018-07-22T04:34:02.000Z</time>
      </trkpt>
      <trkpt lat="42.304359" lon="-0.428173">
        <ele>976.3</ele>
        <time>2018-07-22T04:34:03.000Z</time>
      </trkpt>
      <trkpt lat="42.304349" lon="-0.428185">
        <ele>976.0</ele>
        <time>2018-07-22T04:34:04.000Z</time>
      </trkpt>
      <trkpt lat="42.304339" lon="-0.428196">
        <ele>975.8</ele>
        <time>2018-07-22T04:34:05.000Z</time>
      </trkpt>
      <trkpt lat="42.30433" lon="-0.428207">
        <ele>975.5</ele>
        <time>2018-07-22T04:34:06.000Z</time>
      </trkpt>
      <trkpt lat="42.30432" lon="-0.428219">
        <ele>975.2</ele>
        <time>2018-07-22T04:34:07.000Z</time>
      </trkpt>
      <trkpt lat="42.304311" lon="-0.42823">
        <ele>974.9</ele>
        <time>2018-07-22T04:34:08.000Z</time>
      </trkpt>
      <trkpt lat="42.304301" lon="-0.428241">
        <ele>974.7</ele>
        <time>2018-07-22T04:34:09.000Z</time>
      </trkpt>
      <trkpt lat="42.304291" lon="-0.428252">
        <ele>974.4</ele>
        <time>2018-07-22T04:34:10.000Z</time>
      </trkpt>
      <trkpt lat="42.30428" lon="-0.428263">
        <ele>974.1</ele>
        <time>2018-07-22T04:34:11.000Z</time>
      </trkpt>
      <trkpt lat="42.304269" lon="-0.428274">
        <ele>973.8</ele>
        <time>2018-07-22T04:34:12.000Z</time>
      </trkpt>
      <trkpt lat="42.304259" lon="-0.428286">
        <ele>973.5</ele>
        <time>2018-07-22T04:34:13.000Z</time>
      </trkpt>
      <trkpt lat="42.304248" lon="-0.428297">
        <ele>973.1</ele>
        <time>2018-07-22T04:34:14.000Z</time>
      </trkpt>
      <trkpt lat="42.304238" lon="-0.428309">
        <ele>972.8</ele>
        <time>2018-07-22T04:34:15.000Z</time>
      </trkpt>
      <trkpt lat="42.304228" lon="-0.428321">
        <ele>972.4</ele>
        <time>2018-07-22T04:34:16.000Z</time>
      </trkpt>
      <trkpt lat="42.304219" lon="-0.428334">
        <ele>972.1</ele>
        <time>2018-07-22T04:34:17.000Z</time>
      </trkpt>
      <trkpt lat="42.304211" lon="-0.428348">
        <ele>971.9</ele>
        <time>2018-07-22T04:34:18.000Z</time>
      </trkpt>
      <trkpt lat="42.304204" lon="-0.428363">
        <ele>971.8</ele>
        <time>2018-07-22T04:34:19.000Z</time>
      </trkpt>
      <trkpt lat="42.304198" lon="-0.428378">
        <ele>971.7</ele>
        <time>2018-07-22T04:34:20.000Z</time>
      </trkpt>
      <trkpt lat="42.304193" lon="-0.428394">
        <ele>971.5</ele>
        <time>2018-07-22T04:34:21.000Z</time>
      </trkpt>
      <trkpt lat="42.304191" lon="-0.428411">
        <ele>971.4</ele>
        <time>2018-07-22T04:34:22.000Z</time>
      </trkpt>
      <trkpt lat="42.304189" lon="-0.428429">
        <ele>971.2</ele>
        <time>2018-07-22T04:34:23.000Z</time>
      </trkpt>
      <trkpt lat="42.304189" lon="-0.428447">
        <ele>971.1</ele>
        <time>2018-07-22T04:34:24.000Z</time>
      </trkpt>
      <trkpt lat="42.304189" lon="-0.428465">
        <ele>971.0</ele>
        <time>2018-07-22T04:34:25.000Z</time>
      </trkpt>
      <trkpt lat="42.304189" lon="-0.428484">
        <ele>970.8</ele>
        <time>2018-07-22T04:34:26.000Z</time>
      </trkpt>
      <trkpt lat="42.304189" lon="-0.428502">
        <ele>970.6</ele>
        <time>2018-07-22T04:34:27.000Z</time>
      </trkpt>
      <trkpt lat="42.304189" lon="-0.428519">
        <ele>970.5</ele>
        <time>2018-07-22T04:34:28.000Z</time>
      </trkpt>
      <trkpt lat="42.304188" lon="-0.428536">
        <ele>970.4</ele>
        <time>2018-07-22T04:34:29.000Z</time>
      </trkpt>
      <trkpt lat="42.304186" lon="-0.428553">
        <ele>970.2</ele>
        <time>2018-07-22T04:34:30.000Z</time>
      </trkpt>
      <trkpt lat="42.304184" lon="-0.42857">
        <ele>970.1</ele>
        <time>2018-07-22T04:34:31.000Z</time>
      </trkpt>
      <trkpt lat="42.304182" lon="-0.428586">
        <ele>969.9</ele>
        <time>2018-07-22T04:34:32.000Z</time>
      </trkpt>
      <trkpt lat="42.30418" lon="-0.428603">
        <ele>969.8</ele>
        <time>2018-07-22T04:34:33.000Z</time>
      </trkpt>
      <trkpt lat="42.304178" lon="-0.42862">
        <ele>969.6</ele>
        <time>2018-07-22T04:34:34.000Z</time>
      </trkpt>
      <trkpt lat="42.304176" lon="-0.428637">
        <ele>969.5</ele>
        <time>2018-07-22T04:34:35.000Z</time>
      </trkpt>
      <trkpt lat="42.304174" lon="-0.428654">
        <ele>969.3</ele>
        <time>2018-07-22T04:34:36.000Z</time>
      </trkpt>
      <trkpt lat="42.304172" lon="-0.428672">
        <ele>969.2</ele>
        <time>2018-07-22T04:34:37.000Z</time>
      </trkpt>
      <trkpt lat="42.30417" lon="-0.428689">
        <ele>969.0</ele>
        <time>2018-07-22T04:34:38.000Z</time>
      </trkpt>
      <trkpt lat="42.304167" lon="-0.428707">
        <ele>968.9</ele>
        <time>2018-07-22T04:34:39.000Z</time>
      </trkpt>
      <trkpt lat="42.304165" lon="-0.428724">
        <ele>968.7</ele>
        <time>2018-07-22T04:34:40.000Z</time>
      </trkpt>
      <trkpt lat="42.304163" lon="-0.428741">
        <ele>968.6</ele>
        <time>2018-07-22T04:34:41.000Z</time>
      </trkpt>
      <trkpt lat="42.304161" lon="-0.428759">
        <ele>968.5</ele>
        <time>2018-07-22T04:34:42.000Z</time>
      </trkpt>
      <trkpt lat="42.304159" lon="-0.428776">
        <ele>968.4</ele>
        <time>2018-07-22T04:34:43.000Z</time>
      </trkpt>
      <trkpt lat="42.304156" lon="-0.428794">
        <ele>968.3</ele>
        <time>2018-07-22T04:34:44.000Z</time>
      </trkpt>
      <trkpt lat="42.304154" lon="-0.428811">
        <ele>968.2</ele>
        <time>2018-07-22T04:34:45.000Z</time>
      </trkpt>
      <trkpt lat="42.304152" lon="-0.428829">
        <ele>968.1</ele>
        <time>2018-07-22T04:34:46.000Z</time>
      </trkpt>
      <trkpt lat="42.30415" lon="-0.428846">
        <ele>968.0</ele>
        <time>2018-07-22T04:34:47.000Z</time>
      </trkpt>
      <trkpt lat="42.304148" lon="-0.428863">
        <ele>967.9</ele>
        <time>2018-07-22T04:34:48.000Z</time>
      </trkpt>
      <trkpt lat="42.304145" lon="-0.42888">
        <ele>967.8</ele>
        <time>2018-07-22T04:34:49.000Z</time>
      </trkpt>
      <trkpt lat="42.304143" lon="-0.428898">
        <ele>967.7</ele>
        <time>2018-07-22T04:34:50.000Z</time>
      </trkpt>
      <trkpt lat="42.304141" lon="-0.428915">
        <ele>967.6</ele>
        <time>2018-07-22T04:34:51.000Z</time>
      </trkpt>
      <trkpt lat="42.304139" lon="-0.428932">
        <ele>967.5</ele>
        <time>2018-07-22T04:34:52.000Z</time>
      </trkpt>
      <trkpt lat="42.304137" lon="-0.428949">
        <ele>967.5</ele>
        <time>2018-07-22T04:34:53.000Z</time>
      </trkpt>
      <trkpt lat="42.304134" lon="-0.428966">
        <ele>967.4</ele>
        <time>2018-07-22T04:34:54.000Z</time>
      </trkpt>
      <trkpt lat="42.304132" lon="-0.428984">
        <ele>967.3</ele>
        <time>2018-07-22T04:34:55.000Z</time>
      </trkpt>
      <trkpt lat="42.30413" lon="-0.429001">
        <ele>967.2</ele>
        <time>2018-07-22T04:34:56.000Z</time>
      </trkpt>
      <trkpt lat="42.304128" lon="-0.429018">
        <ele>967.1</ele>
        <time>2018-07-22T04:34:57.000Z</time>
      </trkpt>
      <trkpt lat="42.304126" lon="-0.429035">
        <ele>967.0</ele>
        <time>2018-07-22T04:34:58.000Z</time>
      </trkpt>
      <trkpt lat="42.304124" lon="-0.429053">
        <ele>966.9</ele>
        <time>2018-07-22T04:34:59.000Z</time>
      </trkpt>
      <trkpt lat="42.304122" lon="-0.42907">
        <ele>966.9</ele>
        <time>2018-07-22T04:35:00.000Z</time>
      </trkpt>
      <trkpt lat="42.30412" lon="-0.429087">
        <ele>966.8</ele>
        <time>2018-07-22T04:35:01.000Z</time>
      </trkpt>
      <trkpt lat="42.304119" lon="-0.429105">
        <ele>966.7</ele>
        <time>2018-07-22T04:35:02.000Z</time>
      </trkpt>
      <trkpt lat="42.304117" lon="-0.429122">
        <ele>966.6</ele>
        <time>2018-07-22T04:35:03.000Z</time>
      </trkpt>
      <trkpt lat="42.304116" lon="-0.42914">
        <ele>966.5</ele>
        <time>2018-07-22T04:35:04.000Z</time>
      </trkpt>
      <trkpt lat="42.304115" lon="-0.429158">
        <ele>966.4</ele>
        <time>2018-07-22T04:35:05.000Z</time>
      </trkpt>
      <trkpt lat="42.304114" lon="-0.429176">
        <ele>966.5</ele>
        <time>2018-07-22T04:35:06.000Z</time>
      </trkpt>
      <trkpt lat="42.304113" lon="-0.429193">
        <ele>966.8</ele>
        <time>2018-07-22T04:35:07.000Z</time>
      </trkpt>
      <trkpt lat="42.304112" lon="-0.429211">
        <ele>967.2</ele>
        <time>2018-07-22T04:35:08.000Z</time>
      </trkpt>
      <trkpt lat="42.304112" lon="-0.429229">
        <ele>967.5</ele>
        <time>2018-07-22T04:35:09.000Z</time>
      </trkpt>
      <trkpt lat="42.304111" lon="-0.429247">
        <ele>967.9</ele>
        <time>2018-07-22T04:35:10.000Z</time>
      </trkpt>
      <trkpt lat="42.304111" lon="-0.429264">
        <ele>968.2</ele>
        <time>2018-07-22T04:35:11.000Z</time>
      </trkpt>
      <trkpt lat="42.304111" lon="-0.429282">
        <ele>968.5</ele>
        <time>2018-07-22T04:35:12.000Z</time>
      </trkpt>
      <trkpt lat="42.304111" lon="-0.429299">
        <ele>968.8</ele>
        <time>2018-07-22T04:35:13.000Z</time>
      </trkpt>
      <trkpt lat="42.304111" lon="-0.429316">
        <ele>969.2</ele>
        <time>2018-07-22T04:35:14.000Z</time>
      </trkpt>
      <trkpt lat="42.304111" lon="-0.429333">
        <ele>969.5</ele>
        <time>2018-07-22T04:35:15.000Z</time>
      </trkpt>
      <trkpt lat="42.304111" lon="-0.42935">
        <ele>969.8</ele>
        <time>2018-07-22T04:35:16.000Z</time>
      </trkpt>
      <trkpt lat="42.304111" lon="-0.429366">
        <ele>970.1</ele>
        <time>2018-07-22T04:35:17.000Z</time>
      </trkpt>
      <trkpt lat="42.304111" lon="-0.429382">
        <ele>970.4</ele>
        <time>2018-07-22T04:35:18.000Z</time>
      </trkpt>
      <trkpt lat="42.304111" lon="-0.429398">
        <ele>970.7</ele>
        <time>2018-07-22T04:35:19.000Z</time>
      </trkpt>
      <trkpt lat="42.304112" lon="-0.429415">
        <ele>971.0</ele>
        <time>2018-07-22T04:35:20.000Z</time>
      </trkpt>
      <trkpt lat="42.304112" lon="-0.429431">
        <ele>971.3</ele>
        <time>2018-07-22T04:35:21.000Z</time>
      </trkpt>
      <trkpt lat="42.304113" lon="-0.429447">
        <ele>971.5</ele>
        <time>2018-07-22T04:35:22.000Z</time>
      </trkpt>
      <trkpt lat="42.304114" lon="-0.429463">
        <ele>971.8</ele>
        <time>2018-07-22T04:35:23.000Z</time>
      </trkpt>
      <trkpt lat="42.304115" lon="-0.429478">
        <ele>972.0</ele>
        <time>2018-07-22T04:35:24.000Z</time>
      </trkpt>
      <trkpt lat="42.304115" lon="-0.429492">
        <ele>972.3</ele>
        <time>2018-07-22T04:35:25.000Z</time>
      </trkpt>
      <trkpt lat="42.304114" lon="-0.429505">
        <ele>972.6</ele>
        <time>2018-07-22T04:35:26.000Z</time>
      </trkpt>
      <trkpt lat="42.304111" lon="-0.429517">
        <ele>972.9</ele>
        <time>2018-07-22T04:35:27.000Z</time>
      </trkpt>
      <trkpt lat="42.304107" lon="-0.429526">
        <ele>973.2</ele>
        <time>2018-07-22T04:35:28.000Z</time>
      </trkpt>
      <trkpt lat="42.304099" lon="-0.429533">
        <ele>973.5</ele>
        <time>2018-07-22T04:35:29.000Z</time>
      </trkpt>
      <trkpt lat="42.304089" lon="-0.429538">
        <ele>973.9</ele>
        <time>2018-07-22T04:35:30.000Z</time>
      </trkpt>
      <trkpt lat="42.304077" lon="-0.429543">
        <ele>974.3</ele>
        <time>2018-07-22T04:35:31.000Z</time>
      </trkpt>
      <trkpt lat="42.304066" lon="-0.429548">
        <ele>974.7</ele>
        <time>2018-07-22T04:35:32.000Z</time>
      </trkpt>
      <trkpt lat="42.304058" lon="-0.429557">
        <ele>975.1</ele>
        <time>2018-07-22T04:35:33.000Z</time>
      </trkpt>
      <trkpt lat="42.304053" lon="-0.429567">
        <ele>975.5</ele>
        <time>2018-07-22T04:35:34.000Z</time>
      </trkpt>
      <trkpt lat="42.304049" lon="-0.429579">
        <ele>975.8</ele>
        <time>2018-07-22T04:35:35.000Z</time>
      </trkpt>
      <trkpt lat="42.304048" lon="-0.42959">
        <ele>976.0</ele>
        <time>2018-07-22T04:35:36.000Z</time>
      </trkpt>
      <trkpt lat="42.304047" lon="-0.429599">
        <ele>976.2</ele>
        <time>2018-07-22T04:35:37.000Z</time>
      </trkpt>
      <trkpt lat="42.304046" lon="-0.429605">
        <ele>976.4</ele>
        <time>2018-07-22T04:35:38.000Z</time>
      </trkpt>
      <trkpt lat="42.304046" lon="-0.429609">
        <ele>976.5</ele>
        <time>2018-07-22T04:35:39.000Z</time>
      </trkpt>
      <trkpt lat="42.304045" lon="-0.429611">
        <ele>976.5</ele>
        <time>2018-07-22T04:35:40.000Z</time>
      </trkpt>
      <trkpt lat="42.304045" lon="-0.429611">
        <ele>976.5</ele>
        <time>2018-07-22T04:35:41.000Z</time>
      </trkpt>
      <trkpt lat="42.304045" lon="-0.429611">
        <ele>976.5</ele>
        <time>2018-07-22T04:35:42.000Z</time>
      </trkpt>
      <trkpt lat="42.304045" lon="-0.42961">
        <ele>976.5</ele>
        <time>2018-07-22T04:35:43.000Z</time>
      </trkpt>
      <trkpt lat="42.304045" lon="-0.42961">
        <ele>976.5</ele>
        <time>2018-07-22T04:35:44.000Z</time>
      </trkpt>
      <trkpt lat="42.304045" lon="-0.429609">
        <ele>976.5</ele>
        <time>2018-07-22T04:35:45.000Z</time>
      </trkpt>
      <trkpt lat="42.304045" lon="-0.429609">
        <ele>976.5</ele>
        <time>2018-07-22T04:35:46.000Z</time>
      </trkpt>
      <trkpt lat="42.304045" lon="-0.42961">
        <ele>976.5</ele>
        <time>2018-07-22T04:35:47.000Z</time>
      </trkpt>
      <trkpt lat="42.304045" lon="-0.42961">
        <ele>976.5</ele>
        <time>2018-07-22T04:35:48.000Z</time>
      </trkpt>
      <trkpt lat="42.304045" lon="-0.42961">
        <ele>976.5</ele>
        <time>2018-07-22T04:35:49.000Z</time>
      </trkpt>
      <trkpt lat="42.304045" lon="-0.42961">
        <ele>976.5</ele>
        <time>2018-07-22T04:35:50.000Z</time>
      </trkpt>
      <trkpt lat="42.304045" lon="-0.42961">
        <ele>976.5</ele>
        <time>2018-07-22T04:35:51.000Z</time>
      </trkpt>
      <trkpt lat="42.304045" lon="-0.42961">
        <ele>976.5</ele>
        <time>2018-07-22T04:35:52.000Z</time>
      </trkpt>
      <trkpt lat="42.304045" lon="-0.42961">
        <ele>976.5</ele>
        <time>2018-07-22T04:35:53.000Z</time>
      </trkpt>
      <trkpt lat="42.304045" lon="-0.42961">
        <ele>976.5</ele>
        <time>2018-07-22T04:35:54.000Z</time>
      </trkpt>
      <trkpt lat="42.304045" lon="-0.42961">
        <ele>976.5</ele>
        <time>2018-07-22T04:35:55.000Z</time>
      </trkpt>
      <trkpt lat="42.304045" lon="-0.42961">
        <ele>976.5</ele>
        <time>2018-07-22T04:35:56.000Z</time>
      </trkpt>
      <trkpt lat="42.304045" lon="-0.42961">
        <ele>976.5</ele>
        <time>2018-07-22T04:35:57.000Z</time>
      </trkpt>
      <trkpt lat="42.304045" lon="-0.42961">
        <ele>976.5</ele>
        <time>2018-07-22T04:35:58.000Z</time>
      </trkpt>
      <trkpt lat="42.304045" lon="-0.42961">
        <ele>976.5</ele>
        <time>2018-07-22T04:35:59.000Z</time>
      </trkpt>
      <trkpt lat="42.304045" lon="-0.42961">
        <ele>976.5</ele>
        <time>2018-07-22T04:36:00.000Z</time>
      </trkpt>
      <trkpt lat="42.304045" lon="-0.42961">
        <ele>976.5</ele>
        <time>2018-07-22T04:36:01.000Z</time>
      </trkpt>
      <trkpt lat="42.304045" lon="-0.42961">
        <ele>976.5</ele>
        <time>2018-07-22T04:36:02.000Z</time>
      </trkpt>
      <trkpt lat="42.304045" lon="-0.42961">
        <ele>976.5</ele>
        <time>2018-07-22T04:36:03.000Z</time>
      </trkpt>
      <trkpt lat="42.304045" lon="-0.42961">
        <ele>976.5</ele>
        <time>2018-07-22T04:36:04.000Z</time>
      </trkpt>
      <trkpt lat="42.304045" lon="-0.42961">
        <ele>976.5</ele>
        <time>2018-07-22T04:36:05.000Z</time>
      </trkpt>
      <trkpt lat="42.304045" lon="-0.42961">
        <ele>976.5</ele>
        <time>2018-07-22T04:36:06.000Z</time>
      </trkpt>
      <trkpt lat="42.304045" lon="-0.42961">
        <ele>976.5</ele>
        <time>2018-07-22T04:36:07.000Z</time>
      </trkpt>
      <trkpt lat="42.304045" lon="-0.42961">
        <ele>976.5</ele>
        <time>2018-07-22T04:36:08.000Z</time>
      </trkpt>
      <trkpt lat="42.304045" lon="-0.42961">
        <ele>976.5</ele>
        <time>2018-07-22T04:36:09.000Z</time>
      </trkpt>
      <trkpt lat="42.304045" lon="-0.42961">
        <ele>976.5</ele>
        <time>2018-07-22T04:36:10.000Z</time>
      </trkpt>
      <trkpt lat="42.304045" lon="-0.42961">
        <ele>976.5</ele>
        <time>2018-07-22T04:36:11.000Z</time>
      </trkpt>
      <trkpt lat="42.304045" lon="-0.42961">
        <ele>976.5</ele>
        <time>2018-07-22T04:36:12.000Z</time>
      </trkpt>
      <trkpt lat="42.304045" lon="-0.42961">
        <ele>976.5</ele>
        <time>2018-07-22T04:36:13.000Z</time>
      </trkpt>
      <trkpt lat="42.304045" lon="-0.42961">
        <ele>976.5</ele>
        <time>2018-07-22T04:36:14.000Z</time>
      </trkpt>
      <trkpt lat="42.304045" lon="-0.42961">
        <ele>976.5</ele>
        <time>2018-07-22T04:36:15.000Z</time>
      </trkpt>
      <trkpt lat="42.304045" lon="-0.42961">
        <ele>976.5</ele>
        <time>2018-07-22T04:36:16.000Z</time>
      </trkpt>
      <trkpt lat="42.304045" lon="-0.42961">
        <ele>976.5</ele>
        <time>2018-07-22T04:36:17.000Z</time>
      </trkpt>
      <trkpt lat="42.304045" lon="-0.42961">
        <ele>976.5</ele>
        <time>2018-07-22T04:36:18.000Z</time>
      </trkpt>
      <trkpt lat="42.304044" lon="-0.42961">
        <ele>976.5</ele>
        <time>2018-07-22T04:36:19.000Z</time>
      </trkpt>
      <trkpt lat="42.304044" lon="-0.429611">
        <ele>976.6</ele>
        <time>2018-07-22T04:36:20.000Z</time>
      </trkpt>
      <trkpt lat="42.304044" lon="-0.429611">
        <ele>976.6</ele>
        <time>2018-07-22T04:36:21.000Z</time>
      </trkpt>
      <trkpt lat="42.304044" lon="-0.429612">
        <ele>976.6</ele>
        <time>2018-07-22T04:36:22.000Z</time>
      </trkpt>
      <trkpt lat="42.304044" lon="-0.429612">
        <ele>976.6</ele>
        <time>2018-07-22T04:36:23.000Z</time>
      </trkpt>
      <trkpt lat="42.304044" lon="-0.429611">
        <ele>976.6</ele>
        <time>2018-07-22T04:36:24.000Z</time>
      </trkpt>
      <trkpt lat="42.304045" lon="-0.429607">
        <ele>976.5</ele>
        <time>2018-07-22T04:36:25.000Z</time>
      </trkpt>
      <trkpt lat="42.304045" lon="-0.429601">
        <ele>976.3</ele>
        <time>2018-07-22T04:36:26.000Z</time>
      </trkpt>
      <trkpt lat="42.304047" lon="-0.429592">
        <ele>976.1</ele>
        <time>2018-07-22T04:36:27.000Z</time>
      </trkpt>
      <trkpt lat="42.304048" lon="-0.42958">
        <ele>975.9</ele>
        <time>2018-07-22T04:36:28.000Z</time>
      </trkpt>
      <trkpt lat="42.304051" lon="-0.429569">
        <ele>975.6</ele>
        <time>2018-07-22T04:36:29.000Z</time>
      </trkpt>
      <trkpt lat="42.304055" lon="-0.429559">
        <ele>975.3</ele>
        <time>2018-07-22T04:36:30.000Z</time>
      </trkpt>
      <trkpt lat="42.304061" lon="-0.429552">
        <ele>975.0</ele>
        <time>2018-07-22T04:36:31.000Z</time>
      </trkpt>
      <trkpt lat="42.304068" lon="-0.42955">
        <ele>974.7</ele>
        <time>2018-07-22T04:36:32.000Z</time>
      </trkpt>
      <trkpt lat="42.304075" lon="-0.429551">
        <ele>974.5</ele>
        <time>2018-07-22T04:36:33.000Z</time>
      </trkpt>
      <trkpt lat="42.30408" lon="-0.429553">
        <ele>974.4</ele>
        <time>2018-07-22T04:36:34.000Z</time>
      </trkpt>
      <trkpt lat="42.304083" lon="-0.429554">
        <ele>974.4</ele>
        <time>2018-07-22T04:36:35.000Z</time>
      </trkpt>
      <trkpt lat="42.304083" lon="-0.429554">
        <ele>974.4</ele>
        <time>2018-07-22T04:36:36.000Z</time>
      </trkpt>
      <trkpt lat="42.304082" lon="-0.429553">
        <ele>974.4</ele>
        <time>2018-07-22T04:36:37.000Z</time>
      </trkpt>
      <trkpt lat="42.304081" lon="-0.429551">
        <ele>974.4</ele>
        <time>2018-07-22T04:36:38.000Z</time>
      </trkpt>
      <trkpt lat="42.304079" lon="-0.42955">
        <ele>974.4</ele>
        <time>2018-07-22T04:36:39.000Z</time>
      </trkpt>
      <trkpt lat="42.304078" lon="-0.429549">
        <ele>974.4</ele>
        <time>2018-07-22T04:36:40.000Z</time>
      </trkpt>
      <trkpt lat="42.304075" lon="-0.42955">
        <ele>974.5</ele>
        <time>2018-07-22T04:36:41.000Z</time>
      </trkpt>
      <trkpt lat="42.304071" lon="-0.429554">
        <ele>974.7</ele>
        <time>2018-07-22T04:36:42.000Z</time>
      </trkpt>
      <trkpt lat="42.304066" lon="-0.42956">
        <ele>975.0</ele>
        <time>2018-07-22T04:36:43.000Z</time>
      </trkpt>
      <trkpt lat="42.304061" lon="-0.429569">
        <ele>975.3</ele>
        <time>2018-07-22T04:36:44.000Z</time>
      </trkpt>
      <trkpt lat="42.304055" lon="-0.42958">
        <ele>975.7</ele>
        <time>2018-07-22T04:36:45.000Z</time>
      </trkpt>
      <trkpt lat="42.304049" lon="-0.42959">
        <ele>976.0</ele>
        <time>2018-07-22T04:36:46.000Z</time>
      </trkpt>
      <trkpt lat="42.304044" lon="-0.4296">
        <ele>976.4</ele>
        <time>2018-07-22T04:36:47.000Z</time>
      </trkpt>
      <trkpt lat="42.304041" lon="-0.429608">
        <ele>976.6</ele>
        <time>2018-07-22T04:36:48.000Z</time>
      </trkpt>
      <trkpt lat="42.30404" lon="-0.429614">
        <ele>976.7</ele>
        <time>2018-07-22T04:36:49.000Z</time>
      </trkpt>
      <trkpt lat="42.304039" lon="-0.429618">
        <ele>976.8</ele>
        <time>2018-07-22T04:36:50.000Z</time>
      </trkpt>
      <trkpt lat="42.30404" lon="-0.429622">
        <ele>976.9</ele>
        <time>2018-07-22T04:36:51.000Z</time>
      </trkpt>
      <trkpt lat="42.304039" lon="-0.429625">
        <ele>977.0</ele>
        <time>2018-07-22T04:36:52.000Z</time>
      </trkpt>
      <trkpt lat="42.304038" lon="-0.42963">
        <ele>977.1</ele>
        <time>2018-07-22T04:36:53.000Z</time>
      </trkpt>
      <trkpt lat="42.304035" lon="-0.429636">
        <ele>977.3</ele>
        <time>2018-07-22T04:36:54.000Z</time>
      </trkpt>
      <trkpt lat="42.304031" lon="-0.429643">
        <ele>977.6</ele>
        <time>2018-07-22T04:36:55.000Z</time>
      </trkpt>
      <trkpt lat="42.304029" lon="-0.429649">
        <ele>977.7</ele>
        <time>2018-07-22T04:36:56.000Z</time>
      </trkpt>
      <trkpt lat="42.304028" lon="-0.429654">
        <ele>977.9</ele>
        <time>2018-07-22T04:36:57.000Z</time>
      </trkpt>
      <trkpt lat="42.304027" lon="-0.42966">
        <ele>978.0</ele>
        <time>2018-07-22T04:36:58.000Z</time>
      </trkpt>
      <trkpt lat="42.304024" lon="-0.429671">
        <ele>978.3</ele>
        <time>2018-07-22T04:36:59.000Z</time>
      </trkpt>
      <trkpt lat="42.304021" lon="-0.429679">
        <ele>978.5</ele>
        <time>2018-07-22T04:37:00.000Z</time>
      </trkpt>
      <trkpt lat="42.304019" lon="-0.429685">
        <ele>978.7</ele>
        <time>2018-07-22T04:37:01.000Z</time>
      </trkpt>
      <trkpt lat="42.304019" lon="-0.429687">
        <ele>978.8</ele>
        <time>2018-07-22T04:37:02.000Z</time>
      </trkpt>
      <trkpt lat="42.304018" lon="-0.429687">
        <ele>978.8</ele>
        <time>2018-07-22T04:37:03.000Z</time>
      </trkpt>
      <trkpt lat="42.304019" lon="-0.429684">
        <ele>978.7</ele>
        <time>2018-07-22T04:37:04.000Z</time>
      </trkpt>
      <trkpt lat="42.304019" lon="-0.429678">
        <ele>978.6</ele>
        <time>2018-07-22T04:37:05.000Z</time>
      </trkpt>
      <trkpt lat="42.30402" lon="-0.429671">
        <ele>978.4</ele>
        <time>2018-07-22T04:37:06.000Z</time>
      </trkpt>
      <trkpt lat="42.304021" lon="-0.429662">
        <ele>978.2</ele>
        <time>2018-07-22T04:37:07.000Z</time>
      </trkpt>
      <trkpt lat="42.304022" lon="-0.429654">
        <ele>978.0</ele>
        <time>2018-07-22T04:37:08.000Z</time>
      </trkpt>
      <trkpt lat="42.304023" lon="-0.429646">
        <ele>977.8</ele>
        <time>2018-07-22T04:37:09.000Z</time>
      </trkpt>
      <trkpt lat="42.304024" lon="-0.429639">
        <ele>977.7</ele>
        <time>2018-07-22T04:37:10.000Z</time>
      </trkpt>
      <trkpt lat="42.304024" lon="-0.429634">
        <ele>977.6</ele>
        <time>2018-07-22T04:37:11.000Z</time>
      </trkpt>
      <trkpt lat="42.304025" lon="-0.429631">
        <ele>977.5</ele>
        <time>2018-07-22T04:37:12.000Z</time>
      </trkpt>
      <trkpt lat="42.304025" lon="-0.429629">
        <ele>977.5</ele>
        <time>2018-07-22T04:37:13.000Z</time>
      </trkpt>
      <trkpt lat="42.304025" lon="-0.429628">
        <ele>977.4</ele>
        <time>2018-07-22T04:37:14.000Z</time>
      </trkpt>
      <trkpt lat="42.304025" lon="-0.429628">
        <ele>977.4</ele>
        <time>2018-07-22T04:37:15.000Z</time>
      </trkpt>
      <trkpt lat="42.304025" lon="-0.429628">
        <ele>977.4</ele>
        <time>2018-07-22T04:37:16.000Z</time>
      </trkpt>
      <trkpt lat="42.304025" lon="-0.429628">
        <ele>977.4</ele>
        <time>2018-07-22T04:37:17.000Z</time>
      </trkpt>
      <trkpt lat="42.304025" lon="-0.429628">
        <ele>977.4</ele>
        <time>2018-07-22T04:37:18.000Z</time>
      </trkpt>
      <trkpt lat="42.304025" lon="-0.429628">
        <ele>977.4</ele>
        <time>2018-07-22T04:37:19.000Z</time>
      </trkpt>
      <trkpt lat="42.304025" lon="-0.429628">
        <ele>977.4</ele>
        <time>2018-07-22T04:37:20.000Z</time>
      </trkpt>
      <trkpt lat="42.304025" lon="-0.429628">
        <ele>977.4</ele>
        <time>2018-07-22T04:37:21.000Z</time>
      </trkpt>
      <trkpt lat="42.304025" lon="-0.429628">
        <ele>977.4</ele>
        <time>2018-07-22T04:37:22.000Z</time>
      </trkpt>
      <trkpt lat="42.304025" lon="-0.429628">
        <ele>977.4</ele>
        <time>2018-07-22T04:37:23.000Z</time>
      </trkpt>
      <trkpt lat="42.304025" lon="-0.429628">
        <ele>977.4</ele>
        <time>2018-07-22T04:37:24.000Z</time>
      </trkpt>
      <trkpt lat="42.304025" lon="-0.429628">
        <ele>977.4</ele>
        <time>2018-07-22T04:37:25.000Z</time>
      </trkpt>
      <trkpt lat="42.304024" lon="-0.429628">
        <ele>977.5</ele>
        <time>2018-07-22T04:37:26.000Z</time>
      </trkpt>
      <trkpt lat="42.304024" lon="-0.429627">
        <ele>977.4</ele>
        <time>2018-07-22T04:37:27.000Z</time>
      </trkpt>
      <trkpt lat="42.304024" lon="-0.429627">
        <ele>977.4</ele>
        <time>2018-07-22T04:37:28.000Z</time>
      </trkpt>
      <trkpt lat="42.304023" lon="-0.429626">
        <ele>977.5</ele>
        <time>2018-07-22T04:37:29.000Z</time>
      </trkpt>
      <trkpt lat="42.304023" lon="-0.429625">
        <ele>977.4</ele>
        <time>2018-07-22T04:37:30.000Z</time>
      </trkpt>
      <trkpt lat="42.304023" lon="-0.429624">
        <ele>977.4</ele>
        <time>2018-07-22T04:37:31.000Z</time>
      </trkpt>
      <trkpt lat="42.304022" lon="-0.429623">
        <ele>977.4</ele>
        <time>2018-07-22T04:37:32.000Z</time>
      </trkpt>
      <trkpt lat="42.304021" lon="-0.429621">
        <ele>977.4</ele>
        <time>2018-07-22T04:37:33.000Z</time>
      </trkpt>
      <trkpt lat="42.304021" lon="-0.429619">
        <ele>977.4</ele>
        <time>2018-07-22T04:37:34.000Z</time>
      </trkpt>
      <trkpt lat="42.30402" lon="-0.429617">
        <ele>977.4</ele>
        <time>2018-07-22T04:37:35.000Z</time>
      </trkpt>
      <trkpt lat="42.304019" lon="-0.429614">
        <ele>977.3</ele>
        <time>2018-07-22T04:37:36.000Z</time>
      </trkpt>
      <trkpt lat="42.304018" lon="-0.429611">
        <ele>977.3</ele>
        <time>2018-07-22T04:37:37.000Z</time>
      </trkpt>
      <trkpt lat="42.304017" lon="-0.429608">
        <ele>977.3</ele>
        <time>2018-07-22T04:37:38.000Z</time>
      </trkpt>
      <trkpt lat="42.304016" lon="-0.429605">
        <ele>977.3</ele>
        <time>2018-07-22T04:37:39.000Z</time>
      </trkpt>
      <trkpt lat="42.304016" lon="-0.429602">
        <ele>977.2</ele>
        <time>2018-07-22T04:37:40.000Z</time>
      </trkpt>
      <trkpt lat="42.304016" lon="-0.429598">
        <ele>977.1</ele>
        <time>2018-07-22T04:37:41.000Z</time>
      </trkpt>
      <trkpt lat="42.304016" lon="-0.429592">
        <ele>977.0</ele>
        <time>2018-07-22T04:37:42.000Z</time>
      </trkpt>
      <trkpt lat="42.304009" lon="-0.429587">
        <ele>977.1</ele>
        <time>2018-07-22T04:37:43.000Z</time>
      </trkpt>
      <trkpt lat="42.304002" lon="-0.429585">
        <ele>977.3</ele>
        <time>2018-07-22T04:37:44.000Z</time>
      </trkpt>
      <trkpt lat="42.303997" lon="-0.429584">
        <ele>977.4</ele>
        <time>2018-07-22T04:37:45.000Z</time>
      </trkpt>
      <trkpt lat="42.303994" lon="-0.429584">
        <ele>977.5</ele>
        <time>2018-07-22T04:37:46.000Z</time>
      </trkpt>
      <trkpt lat="42.303991" lon="-0.429585">
        <ele>977.6</ele>
        <time>2018-07-22T04:37:47.000Z</time>
      </trkpt>
      <trkpt lat="42.303988" lon="-0.429586">
        <ele>977.7</ele>
        <time>2018-07-22T04:37:48.000Z</time>
      </trkpt>
      <trkpt lat="42.303985" lon="-0.429586">
        <ele>977.8</ele>
        <time>2018-07-22T04:37:49.000Z</time>
      </trkpt>
      <trkpt lat="42.303982" lon="-0.429585">
        <ele>977.9</ele>
        <time>2018-07-22T04:37:50.000Z</time>
      </trkpt>
      <trkpt lat="42.303979" lon="-0.429584">
        <ele>977.9</ele>
        <time>2018-07-22T04:37:51.000Z</time>
      </trkpt>
      <trkpt lat="42.303976" lon="-0.429583">
        <ele>978.0</ele>
        <time>2018-07-22T04:37:52.000Z</time>
      </trkpt>
      <trkpt lat="42.303974" lon="-0.429583">
        <ele>978.0</ele>
        <time>2018-07-22T04:37:53.000Z</time>
      </trkpt>
      <trkpt lat="42.303972" lon="-0.429582">
        <ele>978.1</ele>
        <time>2018-07-22T04:37:54.000Z</time>
      </trkpt>
      <trkpt lat="42.303966" lon="-0.429579">
        <ele>978.2</ele>
        <time>2018-07-22T04:37:55.000Z</time>
      </trkpt>
      <trkpt lat="42.303957" lon="-0.429574">
        <ele>978.4</ele>
        <time>2018-07-22T04:37:56.000Z</time>
      </trkpt>
      <trkpt lat="42.303952" lon="-0.42957">
        <ele>978.4</ele>
        <time>2018-07-22T04:37:57.000Z</time>
      </trkpt>
      <trkpt lat="42.303945" lon="-0.429569">
        <ele>978.6</ele>
        <time>2018-07-22T04:37:58.000Z</time>
      </trkpt>
      <trkpt lat="42.30394" lon="-0.429568">
        <ele>978.7</ele>
        <time>2018-07-22T04:37:59.000Z</time>
      </trkpt>
      <trkpt lat="42.303936" lon="-0.429568">
        <ele>978.8</ele>
        <time>2018-07-22T04:38:00.000Z</time>
      </trkpt>
      <trkpt lat="42.303934" lon="-0.429568">
        <ele>978.9</ele>
        <time>2018-07-22T04:38:01.000Z</time>
      </trkpt>
      <trkpt lat="42.303933" lon="-0.429567">
        <ele>978.9</ele>
        <time>2018-07-22T04:38:02.000Z</time>
      </trkpt>
      <trkpt lat="42.303931" lon="-0.429567">
        <ele>979.0</ele>
        <time>2018-07-22T04:38:03.000Z</time>
      </trkpt>
      <trkpt lat="42.303928" lon="-0.429567">
        <ele>979.0</ele>
        <time>2018-07-22T04:38:04.000Z</time>
      </trkpt>
      <trkpt lat="42.303924" lon="-0.429566">
        <ele>979.1</ele>
        <time>2018-07-22T04:38:05.000Z</time>
      </trkpt>
      <trkpt lat="42.303919" lon="-0.429565">
        <ele>979.3</ele>
        <time>2018-07-22T04:38:06.000Z</time>
      </trkpt>
      <trkpt lat="42.303916" lon="-0.429564">
        <ele>979.3</ele>
        <time>2018-07-22T04:38:07.000Z</time>
      </trkpt>
      <trkpt lat="42.303914" lon="-0.429564">
        <ele>979.4</ele>
        <time>2018-07-22T04:38:08.000Z</time>
      </trkpt>
      <trkpt lat="42.30391" lon="-0.429563">
        <ele>979.5</ele>
        <time>2018-07-22T04:38:09.000Z</time>
      </trkpt>
      <trkpt lat="42.303903" lon="-0.429563">
        <ele>979.7</ele>
        <time>2018-07-22T04:38:10.000Z</time>
      </trkpt>
      <trkpt lat="42.3039" lon="-0.429563">
        <ele>979.8</ele>
        <time>2018-07-22T04:38:11.000Z</time>
      </trkpt>
      <trkpt lat="42.303892" lon="-0.429565">
        <ele>980.0</ele>
        <time>2018-07-22T04:38:12.000Z</time>
      </trkpt>
      <trkpt lat="42.303887" lon="-0.429567">
        <ele>980.2</ele>
        <time>2018-07-22T04:38:13.000Z</time>
      </trkpt>
      <trkpt lat="42.303884" lon="-0.429568">
        <ele>980.3</ele>
        <time>2018-07-22T04:38:14.000Z</time>
      </trkpt>
      <trkpt lat="42.303882" lon="-0.429569">
        <ele>980.4</ele>
        <time>2018-07-22T04:38:15.000Z</time>
      </trkpt>
      <trkpt lat="42.30388" lon="-0.42957">
        <ele>980.5</ele>
        <time>2018-07-22T04:38:16.000Z</time>
      </trkpt>
      <trkpt lat="42.303877" lon="-0.429571">
        <ele>980.6</ele>
        <time>2018-07-22T04:38:17.000Z</time>
      </trkpt>
      <trkpt lat="42.303874" lon="-0.429572">
        <ele>980.7</ele>
        <time>2018-07-22T04:38:18.000Z</time>
      </trkpt>
      <trkpt lat="42.303871" lon="-0.429573">
        <ele>980.8</ele>
        <time>2018-07-22T04:38:19.000Z</time>
      </trkpt>
      <trkpt lat="42.303868" lon="-0.429575">
        <ele>980.9</ele>
        <time>2018-07-22T04:38:20.000Z</time>
      </trkpt>
      <trkpt lat="42.303864" lon="-0.429576">
        <ele>981.1</ele>
        <time>2018-07-22T04:38:21.000Z</time>
      </trkpt>
      <trkpt lat="42.303859" lon="-0.429581">
        <ele>981.3</ele>
        <time>2018-07-22T04:38:22.000Z</time>
      </trkpt>
      <trkpt lat="42.303856" lon="-0.429587">
        <ele>981.5</ele>
        <time>2018-07-22T04:38:23.000Z</time>
      </trkpt>
      <trkpt lat="42.303853" lon="-0.429592">
        <ele>981.7</ele>
        <time>2018-07-22T04:38:24.000Z</time>
      </trkpt>
      <trkpt lat="42.303849" lon="-0.429596">
        <ele>981.9</ele>
        <time>2018-07-22T04:38:25.000Z</time>
      </trkpt>
      <trkpt lat="42.303846" lon="-0.4296">
        <ele>982.1</ele>
        <time>2018-07-22T04:38:26.000Z</time>
      </trkpt>
      <trkpt lat="42.303843" lon="-0.429603">
        <ele>982.2</ele>
        <time>2018-07-22T04:38:27.000Z</time>
      </trkpt>
      <trkpt lat="42.30384" lon="-0.429606">
        <ele>982.4</ele>
        <time>2018-07-22T04:38:28.000Z</time>
      </trkpt>
      <trkpt lat="42.303837" lon="-0.429609">
        <ele>982.5</ele>
        <time>2018-07-22T04:38:29.000Z</time>
      </trkpt>
      <trkpt lat="42.303835" lon="-0.429612">
        <ele>982.7</ele>
        <time>2018-07-22T04:38:30.000Z</time>
      </trkpt>
      <trkpt lat="42.303832" lon="-0.429615">
        <ele>982.8</ele>
        <time>2018-07-22T04:38:31.000Z</time>
      </trkpt>
      <trkpt lat="42.30383" lon="-0.429618">
        <ele>982.9</ele>
        <time>2018-07-22T04:38:32.000Z</time>
      </trkpt>
      <trkpt lat="42.303828" lon="-0.429621">
        <ele>983.0</ele>
        <time>2018-07-22T04:38:33.000Z</time>
      </trkpt>
      <trkpt lat="42.303827" lon="-0.429623">
        <ele>983.1</ele>
        <time>2018-07-22T04:38:34.000Z</time>
      </trkpt>
      <trkpt lat="42.303825" lon="-0.429626">
        <ele>983.2</ele>
        <time>2018-07-22T04:38:35.000Z</time>
      </trkpt>
      <trkpt lat="42.303824" lon="-0.429627">
        <ele>983.3</ele>
        <time>2018-07-22T04:38:36.000Z</time>
      </trkpt>
      <trkpt lat="42.303822" lon="-0.429628">
        <ele>983.4</ele>
        <time>2018-07-22T04:38:37.000Z</time>
      </trkpt>
      <trkpt lat="42.303821" lon="-0.429628">
        <ele>983.4</ele>
        <time>2018-07-22T04:38:38.000Z</time>
      </trkpt>
      <trkpt lat="42.30382" lon="-0.42963">
        <ele>983.5</ele>
        <time>2018-07-22T04:38:39.000Z</time>
      </trkpt>
      <trkpt lat="42.303817" lon="-0.429636">
        <ele>983.7</ele>
        <time>2018-07-22T04:38:40.000Z</time>
      </trkpt>
      <trkpt lat="42.303814" lon="-0.429642">
        <ele>983.9</ele>
        <time>2018-07-22T04:38:41.000Z</time>
      </trkpt>
      <trkpt lat="42.303811" lon="-0.429646">
        <ele>984.1</ele>
        <time>2018-07-22T04:38:42.000Z</time>
      </trkpt>
      <trkpt lat="42.303808" lon="-0.42965">
        <ele>984.2</ele>
        <time>2018-07-22T04:38:43.000Z</time>
      </trkpt>
      <trkpt lat="42.303806" lon="-0.429654">
        <ele>984.4</ele>
        <time>2018-07-22T04:38:44.000Z</time>
      </trkpt>
      <trkpt lat="42.303804" lon="-0.429657">
        <ele>984.5</ele>
        <time>2018-07-22T04:38:45.000Z</time>
      </trkpt>
      <trkpt lat="42.303802" lon="-0.429659">
        <ele>984.6</ele>
        <time>2018-07-22T04:38:46.000Z</time>
      </trkpt>
      <trkpt lat="42.303801" lon="-0.429662">
        <ele>984.7</ele>
        <time>2018-07-22T04:38:47.000Z</time>
      </trkpt>
      <trkpt lat="42.303799" lon="-0.429664">
        <ele>984.8</ele>
        <time>2018-07-22T04:38:48.000Z</time>
      </trkpt>
      <trkpt lat="42.303798" lon="-0.429666">
        <ele>984.9</ele>
        <time>2018-07-22T04:38:49.000Z</time>
      </trkpt>
      <trkpt lat="42.303796" lon="-0.429668">
        <ele>985.0</ele>
        <time>2018-07-22T04:38:50.000Z</time>
      </trkpt>
      <trkpt lat="42.303795" lon="-0.429669">
        <ele>985.0</ele>
        <time>2018-07-22T04:38:51.000Z</time>
      </trkpt>
      <trkpt lat="42.303793" lon="-0.429671">
        <ele>985.1</ele>
        <time>2018-07-22T04:38:52.000Z</time>
      </trkpt>
      <trkpt lat="42.303792" lon="-0.429673">
        <ele>985.2</ele>
        <time>2018-07-22T04:38:53.000Z</time>
      </trkpt>
      <trkpt lat="42.303788" lon="-0.429676">
        <ele>985.4</ele>
        <time>2018-07-22T04:38:54.000Z</time>
      </trkpt>
      <trkpt lat="42.303777" lon="-0.429682">
        <ele>985.8</ele>
        <time>2018-07-22T04:38:55.000Z</time>
      </trkpt>
      <trkpt lat="42.303769" lon="-0.429686">
        <ele>986.2</ele>
        <time>2018-07-22T04:38:56.000Z</time>
      </trkpt>
      <trkpt lat="42.303765" lon="-0.429689">
        <ele>986.3</ele>
        <time>2018-07-22T04:38:57.000Z</time>
      </trkpt>
      <trkpt lat="42.303762" lon="-0.429691">
        <ele>986.5</ele>
        <time>2018-07-22T04:38:58.000Z</time>
      </trkpt>
      <trkpt lat="42.303759" lon="-0.429693">
        <ele>986.6</ele>
        <time>2018-07-22T04:38:59.000Z</time>
      </trkpt>
      <trkpt lat="42.303758" lon="-0.429694">
        <ele>986.7</ele>
        <time>2018-07-22T04:39:00.000Z</time>
      </trkpt>
      <trkpt lat="42.303757" lon="-0.429695">
        <ele>986.7</ele>
        <time>2018-07-22T04:39:01.000Z</time>
      </trkpt>
      <trkpt lat="42.303756" lon="-0.429696">
        <ele>986.8</ele>
        <time>2018-07-22T04:39:02.000Z</time>
      </trkpt>
      <trkpt lat="42.303755" lon="-0.429697">
        <ele>986.8</ele>
        <time>2018-07-22T04:39:03.000Z</time>
      </trkpt>
      <trkpt lat="42.303753" lon="-0.429698">
        <ele>986.9</ele>
        <time>2018-07-22T04:39:04.000Z</time>
      </trkpt>
      <trkpt lat="42.30375" lon="-0.4297">
        <ele>987.0</ele>
        <time>2018-07-22T04:39:05.000Z</time>
      </trkpt>
      <trkpt lat="42.303748" lon="-0.429701">
        <ele>987.1</ele>
        <time>2018-07-22T04:39:06.000Z</time>
      </trkpt>
      <trkpt lat="42.303745" lon="-0.429703">
        <ele>987.2</ele>
        <time>2018-07-22T04:39:07.000Z</time>
      </trkpt>
      <trkpt lat="42.303743" lon="-0.429704">
        <ele>987.3</ele>
        <time>2018-07-22T04:39:08.000Z</time>
      </trkpt>
      <trkpt lat="42.303741" lon="-0.429705">
        <ele>987.4</ele>
        <time>2018-07-22T04:39:09.000Z</time>
      </trkpt>
      <trkpt lat="42.303739" lon="-0.429706">
        <ele>987.5</ele>
        <time>2018-07-22T04:39:10.000Z</time>
      </trkpt>
      <trkpt lat="42.303735" lon="-0.429706">
        <ele>987.6</ele>
        <time>2018-07-22T04:39:11.000Z</time>
      </trkpt>
      <trkpt lat="42.303727" lon="-0.429703">
        <ele>987.8</ele>
        <time>2018-07-22T04:39:12.000Z</time>
      </trkpt>
      <trkpt lat="42.30372" lon="-0.429697">
        <ele>987.8</ele>
        <time>2018-07-22T04:39:13.000Z</time>
      </trkpt>
      <trkpt lat="42.303714" lon="-0.429689">
        <ele>987.9</ele>
        <time>2018-07-22T04:39:14.000Z</time>
      </trkpt>
      <trkpt lat="42.30371" lon="-0.429683">
        <ele>987.8</ele>
        <time>2018-07-22T04:39:15.000Z</time>
      </trkpt>
      <trkpt lat="42.303708" lon="-0.429679">
        <ele>987.8</ele>
        <time>2018-07-22T04:39:16.000Z</time>
      </trkpt>
      <trkpt lat="42.303707" lon="-0.429676">
        <ele>987.8</ele>
        <time>2018-07-22T04:39:17.000Z</time>
      </trkpt>
      <trkpt lat="42.303705" lon="-0.429673">
        <ele>987.8</ele>
        <time>2018-07-22T04:39:18.000Z</time>
      </trkpt>
      <trkpt lat="42.303703" lon="-0.429669">
        <ele>987.7</ele>
        <time>2018-07-22T04:39:19.000Z</time>
      </trkpt>
      <trkpt lat="42.303701" lon="-0.429666">
        <ele>987.7</ele>
        <time>2018-07-22T04:39:20.000Z</time>
      </trkpt>
      <trkpt lat="42.3037" lon="-0.429662">
        <ele>987.7</ele>
        <time>2018-07-22T04:39:21.000Z</time>
      </trkpt>
      <trkpt lat="42.303697" lon="-0.429659">
        <ele>987.7</ele>
        <time>2018-07-22T04:39:22.000Z</time>
      </trkpt>
      <trkpt lat="42.303693" lon="-0.429653">
        <ele>987.7</ele>
        <time>2018-07-22T04:39:23.000Z</time>
      </trkpt>
      <trkpt lat="42.303686" lon="-0.429644">
        <ele>987.7</ele>
        <time>2018-07-22T04:39:24.000Z</time>
      </trkpt>
      <trkpt lat="42.303681" lon="-0.429637">
        <ele>987.7</ele>
        <time>2018-07-22T04:39:25.000Z</time>
      </trkpt>
      <trkpt lat="42.30368" lon="-0.429633">
        <ele>987.6</ele>
        <time>2018-07-22T04:39:26.000Z</time>
      </trkpt>
      <trkpt lat="42.303679" lon="-0.429629">
        <ele>987.6</ele>
        <time>2018-07-22T04:39:27.000Z</time>
      </trkpt>
      <trkpt lat="42.303678" lon="-0.429626">
        <ele>987.5</ele>
        <time>2018-07-22T04:39:28.000Z</time>
      </trkpt>
      <trkpt lat="42.303677" lon="-0.429624">
        <ele>987.5</ele>
        <time>2018-07-22T04:39:29.000Z</time>
      </trkpt>
      <trkpt lat="42.303675" lon="-0.429622">
        <ele>987.5</ele>
        <time>2018-07-22T04:39:30.000Z</time>
      </trkpt>
      <trkpt lat="42.303674" lon="-0.429621">
        <ele>987.5</ele>
        <time>2018-07-22T04:39:31.000Z</time>
      </trkpt>
      <trkpt lat="42.303673" lon="-0.42962">
        <ele>987.5</ele>
        <time>2018-07-22T04:39:32.000Z</time>
      </trkpt>
      <trkpt lat="42.303672" lon="-0.429618">
        <ele>987.5</ele>
        <time>2018-07-22T04:39:33.000Z</time>
      </trkpt>
      <trkpt lat="42.303672" lon="-0.429617">
        <ele>987.5</ele>
        <time>2018-07-22T04:39:34.000Z</time>
      </trkpt>
      <trkpt lat="42.303671" lon="-0.429617">
        <ele>987.5</ele>
        <time>2018-07-22T04:39:35.000Z</time>
      </trkpt>
      <trkpt lat="42.303671" lon="-0.429616">
        <ele>987.5</ele>
        <time>2018-07-22T04:39:36.000Z</time>
      </trkpt>
      <trkpt lat="42.30367" lon="-0.429615">
        <ele>987.5</ele>
        <time>2018-07-22T04:39:37.000Z</time>
      </trkpt>
      <trkpt lat="42.30367" lon="-0.429614">
        <ele>987.5</ele>
        <time>2018-07-22T04:39:38.000Z</time>
      </trkpt>
      <trkpt lat="42.303669" lon="-0.429613">
        <ele>987.5</ele>
        <time>2018-07-22T04:39:39.000Z</time>
      </trkpt>
      <trkpt lat="42.303668" lon="-0.429612">
        <ele>987.5</ele>
        <time>2018-07-22T04:39:40.000Z</time>
      </trkpt>
      <trkpt lat="42.303668" lon="-0.429611">
        <ele>987.5</ele>
        <time>2018-07-22T04:39:41.000Z</time>
      </trkpt>
      <trkpt lat="42.303667" lon="-0.42961">
        <ele>987.5</ele>
        <time>2018-07-22T04:39:42.000Z</time>
      </trkpt>
      <trkpt lat="42.303665" lon="-0.429609">
        <ele>987.5</ele>
        <time>2018-07-22T04:39:43.000Z</time>
      </trkpt>
      <trkpt lat="42.303664" lon="-0.429607">
        <ele>987.5</ele>
        <time>2018-07-22T04:39:44.000Z</time>
      </trkpt>
      <trkpt lat="42.303662" lon="-0.429605">
        <ele>987.5</ele>
        <time>2018-07-22T04:39:45.000Z</time>
      </trkpt>
      <trkpt lat="42.303659" lon="-0.429603">
        <ele>987.6</ele>
        <time>2018-07-22T04:39:46.000Z</time>
      </trkpt>
      <trkpt lat="42.303656" lon="-0.429601">
        <ele>987.6</ele>
        <time>2018-07-22T04:39:47.000Z</time>
      </trkpt>
      <trkpt lat="42.303654" lon="-0.429599">
        <ele>987.6</ele>
        <time>2018-07-22T04:39:48.000Z</time>
      </trkpt>
      <trkpt lat="42.303653" lon="-0.429595">
        <ele>987.6</ele>
        <time>2018-07-22T04:39:49.000Z</time>
      </trkpt>
      <trkpt lat="42.303651" lon="-0.429592">
        <ele>987.5</ele>
        <time>2018-07-22T04:39:50.000Z</time>
      </trkpt>
      <trkpt lat="42.303649" lon="-0.42959">
        <ele>987.6</ele>
        <time>2018-07-22T04:39:51.000Z</time>
      </trkpt>
      <trkpt lat="42.303646" lon="-0.429589">
        <ele>987.6</ele>
        <time>2018-07-22T04:39:52.000Z</time>
      </trkpt>
      <trkpt lat="42.303644" lon="-0.429589">
        <ele>987.7</ele>
        <time>2018-07-22T04:39:53.000Z</time>
      </trkpt>
      <trkpt lat="42.303642" lon="-0.429588">
        <ele>987.7</ele>
        <time>2018-07-22T04:39:54.000Z</time>
      </trkpt>
      <trkpt lat="42.303641" lon="-0.429586">
        <ele>987.7</ele>
        <time>2018-07-22T04:39:55.000Z</time>
      </trkpt>
      <trkpt lat="42.30364" lon="-0.429585">
        <ele>987.7</ele>
        <time>2018-07-22T04:39:56.000Z</time>
      </trkpt>
      <trkpt lat="42.303638" lon="-0.429583">
        <ele>987.7</ele>
        <time>2018-07-22T04:39:57.000Z</time>
      </trkpt>
      <trkpt lat="42.303636" lon="-0.429581">
        <ele>987.7</ele>
        <time>2018-07-22T04:39:58.000Z</time>
      </trkpt>
      <trkpt lat="42.303633" lon="-0.429579">
        <ele>987.8</ele>
        <time>2018-07-22T04:39:59.000Z</time>
      </trkpt>
      <trkpt lat="42.303631" lon="-0.429577">
        <ele>987.8</ele>
        <time>2018-07-22T04:40:00.000Z</time>
      </trkpt>
      <trkpt lat="42.303628" lon="-0.429576">
        <ele>987.8</ele>
        <time>2018-07-22T04:40:01.000Z</time>
      </trkpt>
      <trkpt lat="42.303625" lon="-0.429577">
        <ele>988.0</ele>
        <time>2018-07-22T04:40:02.000Z</time>
      </trkpt>
      <trkpt lat="42.30362" lon="-0.429579">
        <ele>988.1</ele>
        <time>2018-07-22T04:40:03.000Z</time>
      </trkpt>
      <trkpt lat="42.30361" lon="-0.429582">
        <ele>988.5</ele>
        <time>2018-07-22T04:40:04.000Z</time>
      </trkpt>
      <trkpt lat="42.303603" lon="-0.429583">
        <ele>988.7</ele>
        <time>2018-07-22T04:40:05.000Z</time>
      </trkpt>
      <trkpt lat="42.303597" lon="-0.429584">
        <ele>988.9</ele>
        <time>2018-07-22T04:40:06.000Z</time>
      </trkpt>
      <trkpt lat="42.303593" lon="-0.429584">
        <ele>989.0</ele>
        <time>2018-07-22T04:40:07.000Z</time>
      </trkpt>
      <trkpt lat="42.30359" lon="-0.429585">
        <ele>989.1</ele>
        <time>2018-07-22T04:40:08.000Z</time>
      </trkpt>
      <trkpt lat="42.303588" lon="-0.429585">
        <ele>989.2</ele>
        <time>2018-07-22T04:40:09.000Z</time>
      </trkpt>
      <trkpt lat="42.303585" lon="-0.429585">
        <ele>989.3</ele>
        <time>2018-07-22T04:40:10.000Z</time>
      </trkpt>
      <trkpt lat="42.303584" lon="-0.429585">
        <ele>989.3</ele>
        <time>2018-07-22T04:40:11.000Z</time>
      </trkpt>
      <trkpt lat="42.303582" lon="-0.429585">
        <ele>989.4</ele>
        <time>2018-07-22T04:40:12.000Z</time>
      </trkpt>
      <trkpt lat="42.30358" lon="-0.429585">
        <ele>989.4</ele>
        <time>2018-07-22T04:40:13.000Z</time>
      </trkpt>
      <trkpt lat="42.303575" lon="-0.429585">
        <ele>989.6</ele>
        <time>2018-07-22T04:40:14.000Z</time>
      </trkpt>
      <trkpt lat="42.303568" lon="-0.42958">
        <ele>989.7</ele>
        <time>2018-07-22T04:40:15.000Z</time>
      </trkpt>
      <trkpt lat="42.303563" lon="-0.429576">
        <ele>989.7</ele>
        <time>2018-07-22T04:40:16.000Z</time>
      </trkpt>
      <trkpt lat="42.303557" lon="-0.429572">
        <ele>989.8</ele>
        <time>2018-07-22T04:40:17.000Z</time>
      </trkpt>
      <trkpt lat="42.303551" lon="-0.429568">
        <ele>989.9</ele>
        <time>2018-07-22T04:40:18.000Z</time>
      </trkpt>
      <trkpt lat="42.303545" lon="-0.429563">
        <ele>989.9</ele>
        <time>2018-07-22T04:40:19.000Z</time>
      </trkpt>
      <trkpt lat="42.303539" lon="-0.429561">
        <ele>990.1</ele>
        <time>2018-07-22T04:40:20.000Z</time>
      </trkpt>
      <trkpt lat="42.303532" lon="-0.429562">
        <ele>990.3</ele>
        <time>2018-07-22T04:40:21.000Z</time>
      </trkpt>
      <trkpt lat="42.303526" lon="-0.429564">
        <ele>990.5</ele>
        <time>2018-07-22T04:40:22.000Z</time>
      </trkpt>
      <trkpt lat="42.30352" lon="-0.429567">
        <ele>990.7</ele>
        <time>2018-07-22T04:40:23.000Z</time>
      </trkpt>
      <trkpt lat="42.303515" lon="-0.429571">
        <ele>991.0</ele>
        <time>2018-07-22T04:40:24.000Z</time>
      </trkpt>
      <trkpt lat="42.303511" lon="-0.429574">
        <ele>991.2</ele>
        <time>2018-07-22T04:40:25.000Z</time>
      </trkpt>
      <trkpt lat="42.303509" lon="-0.429578">
        <ele>991.3</ele>
        <time>2018-07-22T04:40:26.000Z</time>
      </trkpt>
      <trkpt lat="42.303507" lon="-0.429581">
        <ele>991.4</ele>
        <time>2018-07-22T04:40:27.000Z</time>
      </trkpt>
      <trkpt lat="42.303506" lon="-0.429583">
        <ele>991.5</ele>
        <time>2018-07-22T04:40:28.000Z</time>
      </trkpt>
      <trkpt lat="42.303505" lon="-0.429586">
        <ele>991.6</ele>
        <time>2018-07-22T04:40:29.000Z</time>
      </trkpt>
      <trkpt lat="42.303504" lon="-0.429588">
        <ele>991.7</ele>
        <time>2018-07-22T04:40:30.000Z</time>
      </trkpt>
      <trkpt lat="42.303503" lon="-0.42959">
        <ele>991.8</ele>
        <time>2018-07-22T04:40:31.000Z</time>
      </trkpt>
      <trkpt lat="42.303501" lon="-0.429593">
        <ele>991.9</ele>
        <time>2018-07-22T04:40:32.000Z</time>
      </trkpt>
      <trkpt lat="42.3035" lon="-0.429595">
        <ele>992.0</ele>
        <time>2018-07-22T04:40:33.000Z</time>
      </trkpt>
      <trkpt lat="42.303498" lon="-0.429598">
        <ele>992.1</ele>
        <time>2018-07-22T04:40:34.000Z</time>
      </trkpt>
      <trkpt lat="42.303496" lon="-0.429602">
        <ele>992.3</ele>
        <time>2018-07-22T04:40:35.000Z</time>
      </trkpt>
      <trkpt lat="42.30349" lon="-0.429603">
        <ele>992.5</ele>
        <time>2018-07-22T04:40:36.000Z</time>
      </trkpt>
      <trkpt lat="42.303484" lon="-0.429604">
        <ele>992.7</ele>
        <time>2018-07-22T04:40:37.000Z</time>
      </trkpt>
      <trkpt lat="42.303479" lon="-0.429603">
        <ele>992.8</ele>
        <time>2018-07-22T04:40:38.000Z</time>
      </trkpt>
      <trkpt lat="42.303475" lon="-0.429602">
        <ele>992.9</ele>
        <time>2018-07-22T04:40:39.000Z</time>
      </trkpt>
      <trkpt lat="42.303473" lon="-0.429601">
        <ele>992.9</ele>
        <time>2018-07-22T04:40:40.000Z</time>
      </trkpt>
      <trkpt lat="42.30347" lon="-0.4296">
        <ele>993.0</ele>
        <time>2018-07-22T04:40:41.000Z</time>
      </trkpt>
      <trkpt lat="42.303468" lon="-0.429599">
        <ele>993.0</ele>
        <time>2018-07-22T04:40:42.000Z</time>
      </trkpt>
      <trkpt lat="42.303465" lon="-0.429598">
        <ele>993.1</ele>
        <time>2018-07-22T04:40:43.000Z</time>
      </trkpt>
      <trkpt lat="42.303463" lon="-0.429598">
        <ele>993.1</ele>
        <time>2018-07-22T04:40:44.000Z</time>
      </trkpt>
      <trkpt lat="42.30346" lon="-0.429597">
        <ele>993.2</ele>
        <time>2018-07-22T04:40:45.000Z</time>
      </trkpt>
      <trkpt lat="42.303457" lon="-0.429596">
        <ele>993.2</ele>
        <time>2018-07-22T04:40:46.000Z</time>
      </trkpt>
      <trkpt lat="42.303453" lon="-0.429594">
        <ele>993.3</ele>
        <time>2018-07-22T04:40:47.000Z</time>
      </trkpt>
      <trkpt lat="42.303445" lon="-0.429588">
        <ele>993.4</ele>
        <time>2018-07-22T04:40:48.000Z</time>
      </trkpt>
      <trkpt lat="42.303441" lon="-0.42958">
        <ele>993.3</ele>
        <time>2018-07-22T04:40:49.000Z</time>
      </trkpt>
      <trkpt lat="42.303438" lon="-0.429573">
        <ele>993.2</ele>
        <time>2018-07-22T04:40:50.000Z</time>
      </trkpt>
      <trkpt lat="42.303435" lon="-0.429566">
        <ele>993.2</ele>
        <time>2018-07-22T04:40:51.000Z</time>
      </trkpt>
      <trkpt lat="42.303432" lon="-0.429558">
        <ele>993.0</ele>
        <time>2018-07-22T04:40:52.000Z</time>
      </trkpt>
      <trkpt lat="42.303429" lon="-0.42955">
        <ele>992.9</ele>
        <time>2018-07-22T04:40:53.000Z</time>
      </trkpt>
      <trkpt lat="42.303425" lon="-0.429541">
        <ele>992.8</ele>
        <time>2018-07-22T04:40:54.000Z</time>
      </trkpt>
      <trkpt lat="42.303422" lon="-0.429532">
        <ele>992.7</ele>
        <time>2018-07-22T04:40:55.000Z</time>
      </trkpt>
      <trkpt lat="42.303418" lon="-0.429523">
        <ele>992.6</ele>
        <time>2018-07-22T04:40:56.000Z</time>
      </trkpt>
      <trkpt lat="42.303415" lon="-0.429513">
        <ele>992.4</ele>
        <time>2018-07-22T04:40:57.000Z</time>
      </trkpt>
      <trkpt lat="42.303411" lon="-0.429503">
        <ele>992.3</ele>
        <time>2018-07-22T04:40:58.000Z</time>
      </trkpt>
      <trkpt lat="42.303408" lon="-0.429494">
        <ele>992.2</ele>
        <time>2018-07-22T04:40:59.000Z</time>
      </trkpt>
      <trkpt lat="42.303404" lon="-0.429485">
        <ele>992.0</ele>
        <time>2018-07-22T04:41:00.000Z</time>
      </trkpt>
      <trkpt lat="42.3034" lon="-0.429478">
        <ele>992.0</ele>
        <time>2018-07-22T04:41:01.000Z</time>
      </trkpt>
      <trkpt lat="42.303395" lon="-0.429472">
        <ele>992.0</ele>
        <time>2018-07-22T04:41:02.000Z</time>
      </trkpt>
      <trkpt lat="42.303391" lon="-0.429468">
        <ele>992.0</ele>
        <time>2018-07-22T04:41:03.000Z</time>
      </trkpt>
      <trkpt lat="42.303386" lon="-0.429466">
        <ele>992.1</ele>
        <time>2018-07-22T04:41:04.000Z</time>
      </trkpt>
      <trkpt lat="42.303381" lon="-0.429465">
        <ele>992.2</ele>
        <time>2018-07-22T04:41:05.000Z</time>
      </trkpt>
      <trkpt lat="42.303376" lon="-0.429465">
        <ele>992.3</ele>
        <time>2018-07-22T04:41:06.000Z</time>
      </trkpt>
      <trkpt lat="42.303372" lon="-0.429465">
        <ele>992.4</ele>
        <time>2018-07-22T04:41:07.000Z</time>
      </trkpt>
      <trkpt lat="42.303368" lon="-0.429465">
        <ele>992.6</ele>
        <time>2018-07-22T04:41:08.000Z</time>
      </trkpt>
      <trkpt lat="42.303366" lon="-0.429465">
        <ele>992.6</ele>
        <time>2018-07-22T04:41:09.000Z</time>
      </trkpt>
      <trkpt lat="42.303363" lon="-0.429465">
        <ele>992.7</ele>
        <time>2018-07-22T04:41:10.000Z</time>
      </trkpt>
      <trkpt lat="42.303359" lon="-0.429465">
        <ele>992.8</ele>
        <time>2018-07-22T04:41:11.000Z</time>
      </trkpt>
      <trkpt lat="42.303355" lon="-0.429465">
        <ele>992.9</ele>
        <time>2018-07-22T04:41:12.000Z</time>
      </trkpt>
      <trkpt lat="42.303353" lon="-0.429465">
        <ele>993.0</ele>
        <time>2018-07-22T04:41:13.000Z</time>
      </trkpt>
      <trkpt lat="42.303348" lon="-0.429466">
        <ele>993.1</ele>
        <time>2018-07-22T04:41:14.000Z</time>
      </trkpt>
      <trkpt lat="42.303343" lon="-0.429469">
        <ele>993.3</ele>
        <time>2018-07-22T04:41:15.000Z</time>
      </trkpt>
      <trkpt lat="42.303338" lon="-0.429472">
        <ele>993.6</ele>
        <time>2018-07-22T04:41:16.000Z</time>
      </trkpt>
      <trkpt lat="42.303334" lon="-0.429474">
        <ele>993.7</ele>
        <time>2018-07-22T04:41:17.000Z</time>
      </trkpt>
      <trkpt lat="42.303332" lon="-0.429475">
        <ele>993.8</ele>
        <time>2018-07-22T04:41:18.000Z</time>
      </trkpt>
      <trkpt lat="42.303331" lon="-0.429476">
        <ele>993.8</ele>
        <time>2018-07-22T04:41:19.000Z</time>
      </trkpt>
      <trkpt lat="42.303329" lon="-0.429478">
        <ele>993.9</ele>
        <time>2018-07-22T04:41:20.000Z</time>
      </trkpt>
      <trkpt lat="42.303326" lon="-0.429479">
        <ele>993.9</ele>
        <time>2018-07-22T04:41:21.000Z</time>
      </trkpt>
      <trkpt lat="42.303324" lon="-0.42948">
        <ele>993.9</ele>
        <time>2018-07-22T04:41:22.000Z</time>
      </trkpt>
      <trkpt lat="42.303321" lon="-0.429481">
        <ele>994.0</ele>
        <time>2018-07-22T04:41:23.000Z</time>
      </trkpt>
      <trkpt lat="42.303318" lon="-0.429482">
        <ele>994.0</ele>
        <time>2018-07-22T04:41:24.000Z</time>
      </trkpt>
      <trkpt lat="42.303314" lon="-0.429483">
        <ele>994.0</ele>
        <time>2018-07-22T04:41:25.000Z</time>
      </trkpt>
      <trkpt lat="42.303307" lon="-0.429482">
        <ele>994.0</ele>
        <time>2018-07-22T04:41:26.000Z</time>
      </trkpt>
      <trkpt lat="42.303301" lon="-0.429476">
        <ele>993.9</ele>
        <time>2018-07-22T04:41:27.000Z</time>
      </trkpt>
      <trkpt lat="42.303296" lon="-0.429469">
        <ele>993.7</ele>
        <time>2018-07-22T04:41:28.000Z</time>
      </trkpt>
      <trkpt lat="42.303291" lon="-0.429463">
        <ele>993.6</ele>
        <time>2018-07-22T04:41:29.000Z</time>
      </trkpt>
      <trkpt lat="42.303288" lon="-0.429459">
        <ele>993.4</ele>
        <time>2018-07-22T04:41:30.000Z</time>
      </trkpt>
      <trkpt lat="42.303287" lon="-0.429457">
        <ele>993.4</ele>
        <time>2018-07-22T04:41:31.000Z</time>
      </trkpt>
      <trkpt lat="42.303286" lon="-0.429456">
        <ele>993.4</ele>
        <time>2018-07-22T04:41:32.000Z</time>
      </trkpt>
      <trkpt lat="42.303286" lon="-0.429455">
        <ele>993.3</ele>
        <time>2018-07-22T04:41:33.000Z</time>
      </trkpt>
      <trkpt lat="42.303285" lon="-0.429454">
        <ele>993.3</ele>
        <time>2018-07-22T04:41:34.000Z</time>
      </trkpt>
      <trkpt lat="42.303282" lon="-0.429452">
        <ele>993.3</ele>
        <time>2018-07-22T04:41:35.000Z</time>
      </trkpt>
      <trkpt lat="42.303277" lon="-0.429449">
        <ele>993.2</ele>
        <time>2018-07-22T04:41:36.000Z</time>
      </trkpt>
      <trkpt lat="42.30327" lon="-0.429452">
        <ele>993.3</ele>
        <time>2018-07-22T04:41:37.000Z</time>
      </trkpt>
      <trkpt lat="42.303264" lon="-0.429464">
        <ele>993.6</ele>
        <time>2018-07-22T04:41:38.000Z</time>
      </trkpt>
      <trkpt lat="42.30326" lon="-0.429478">
        <ele>994.0</ele>
        <time>2018-07-22T04:41:39.000Z</time>
      </trkpt>
      <trkpt lat="42.303258" lon="-0.429491">
        <ele>994.4</ele>
        <time>2018-07-22T04:41:40.000Z</time>
      </trkpt>
      <trkpt lat="42.303258" lon="-0.429501">
        <ele>994.7</ele>
        <time>2018-07-22T04:41:41.000Z</time>
      </trkpt>
      <trkpt lat="42.303258" lon="-0.429507">
        <ele>994.9</ele>
        <time>2018-07-22T04:41:42.000Z</time>
      </trkpt>
      <trkpt lat="42.303258" lon="-0.429511">
        <ele>995.0</ele>
        <time>2018-07-22T04:41:43.000Z</time>
      </trkpt>
      <trkpt lat="42.303257" lon="-0.429514">
        <ele>995.1</ele>
        <time>2018-07-22T04:41:44.000Z</time>
      </trkpt>
      <trkpt lat="42.303256" lon="-0.429516">
        <ele>995.1</ele>
        <time>2018-07-22T04:41:45.000Z</time>
      </trkpt>
      <trkpt lat="42.303255" lon="-0.42952">
        <ele>995.3</ele>
        <time>2018-07-22T04:41:46.000Z</time>
      </trkpt>
      <trkpt lat="42.303253" lon="-0.429525">
        <ele>995.4</ele>
        <time>2018-07-22T04:41:47.000Z</time>
      </trkpt>
      <trkpt lat="42.303251" lon="-0.429531">
        <ele>995.6</ele>
        <time>2018-07-22T04:41:48.000Z</time>
      </trkpt>
      <trkpt lat="42.303249" lon="-0.429537">
        <ele>995.8</ele>
        <time>2018-07-22T04:41:49.000Z</time>
      </trkpt>
      <trkpt lat="42.303246" lon="-0.429541">
        <ele>995.9</ele>
        <time>2018-07-22T04:41:50.000Z</time>
      </trkpt>
      <trkpt lat="42.303244" lon="-0.429543">
        <ele>996.0</ele>
        <time>2018-07-22T04:41:51.000Z</time>
      </trkpt>
      <trkpt lat="42.303242" lon="-0.429544">
        <ele>996.0</ele>
        <time>2018-07-22T04:41:52.000Z</time>
      </trkpt>
      <trkpt lat="42.303241" lon="-0.429545">
        <ele>996.0</ele>
        <time>2018-07-22T04:41:53.000Z</time>
      </trkpt>
      <trkpt lat="42.30324" lon="-0.429546">
        <ele>996.1</ele>
        <time>2018-07-22T04:41:54.000Z</time>
      </trkpt>
      <trkpt lat="42.30324" lon="-0.429548">
        <ele>996.1</ele>
        <time>2018-07-22T04:41:55.000Z</time>
      </trkpt>
      <trkpt lat="42.303237" lon="-0.429549">
        <ele>996.2</ele>
        <time>2018-07-22T04:41:56.000Z</time>
      </trkpt>
      <trkpt lat="42.303229" lon="-0.42955">
        <ele>996.3</ele>
        <time>2018-07-22T04:41:57.000Z</time>
      </trkpt>
      <trkpt lat="42.303221" lon="-0.429552">
        <ele>996.4</ele>
        <time>2018-07-22T04:41:58.000Z</time>
      </trkpt>
      <trkpt lat="42.303216" lon="-0.429553">
        <ele>996.4</ele>
        <time>2018-07-22T04:41:59.000Z</time>
      </trkpt>
      <trkpt lat="42.303211" lon="-0.429554">
        <ele>996.5</ele>
        <time>2018-07-22T04:42:00.000Z</time>
      </trkpt>
      <trkpt lat="42.303208" lon="-0.429555">
        <ele>996.5</ele>
        <time>2018-07-22T04:42:01.000Z</time>
      </trkpt>
      <trkpt lat="42.303204" lon="-0.429556">
        <ele>996.6</ele>
        <time>2018-07-22T04:42:02.000Z</time>
      </trkpt>
      <trkpt lat="42.303202" lon="-0.429557">
        <ele>996.6</ele>
        <time>2018-07-22T04:42:03.000Z</time>
      </trkpt>
      <trkpt lat="42.3032" lon="-0.429558">
        <ele>996.7</ele>
        <time>2018-07-22T04:42:04.000Z</time>
      </trkpt>
      <trkpt lat="42.303199" lon="-0.429557">
        <ele>996.7</ele>
        <time>2018-07-22T04:42:05.000Z</time>
      </trkpt>
      <trkpt lat="42.303198" lon="-0.429557">
        <ele>996.7</ele>
        <time>2018-07-22T04:42:06.000Z</time>
      </trkpt>
      <trkpt lat="42.303192" lon="-0.429564">
        <ele>996.9</ele>
        <time>2018-07-22T04:42:07.000Z</time>
      </trkpt>
      <trkpt lat="42.303188" lon="-0.42957">
        <ele>997.1</ele>
        <time>2018-07-22T04:42:08.000Z</time>
      </trkpt>
      <trkpt lat="42.303188" lon="-0.429576">
        <ele>997.3</ele>
        <time>2018-07-22T04:42:09.000Z</time>
      </trkpt>
      <trkpt lat="42.30319" lon="-0.429584">
        <ele>997.6</ele>
        <time>2018-07-22T04:42:10.000Z</time>
      </trkpt>
      <trkpt lat="42.30319" lon="-0.429591">
        <ele>997.8</ele>
        <time>2018-07-22T04:42:11.000Z</time>
      </trkpt>
      <trkpt lat="42.303188" lon="-0.429597">
        <ele>998.0</ele>
        <time>2018-07-22T04:42:12.000Z</time>
      </trkpt>
      <trkpt lat="42.303184" lon="-0.429602">
        <ele>998.2</ele>
        <time>2018-07-22T04:42:13.000Z</time>
      </trkpt>
      <trkpt lat="42.30318" lon="-0.429605">
        <ele>998.3</ele>
        <time>2018-07-22T04:42:14.000Z</time>
      </trkpt>
      <trkpt lat="42.303178" lon="-0.429608">
        <ele>998.4</ele>
        <time>2018-07-22T04:42:15.000Z</time>
      </trkpt>
      <trkpt lat="42.303176" lon="-0.42961">
        <ele>998.5</ele>
        <time>2018-07-22T04:42:16.000Z</time>
      </trkpt>
      <trkpt lat="42.303174" lon="-0.429611">
        <ele>998.5</ele>
        <time>2018-07-22T04:42:17.000Z</time>
      </trkpt>
      <trkpt lat="42.303173" lon="-0.429612">
        <ele>998.6</ele>
        <time>2018-07-22T04:42:18.000Z</time>
      </trkpt>
      <trkpt lat="42.303172" lon="-0.429612">
        <ele>998.6</ele>
        <time>2018-07-22T04:42:19.000Z</time>
      </trkpt>
      <trkpt lat="42.303172" lon="-0.429613">
        <ele>998.6</ele>
        <time>2018-07-22T04:42:20.000Z</time>
      </trkpt>
      <trkpt lat="42.303171" lon="-0.429613">
        <ele>998.6</ele>
        <time>2018-07-22T04:42:21.000Z</time>
      </trkpt>
      <trkpt lat="42.303171" lon="-0.429613">
        <ele>998.6</ele>
        <time>2018-07-22T04:42:22.000Z</time>
      </trkpt>
      <trkpt lat="42.303171" lon="-0.429613">
        <ele>998.6</ele>
        <time>2018-07-22T04:42:23.000Z</time>
      </trkpt>
      <trkpt lat="42.303171" lon="-0.429613">
        <ele>998.6</ele>
        <time>2018-07-22T04:42:24.000Z</time>
      </trkpt>
      <trkpt lat="42.303171" lon="-0.429613">
        <ele>998.6</ele>
        <time>2018-07-22T04:42:25.000Z</time>
      </trkpt>
      <trkpt lat="42.303172" lon="-0.429613">
        <ele>998.6</ele>
        <time>2018-07-22T04:42:26.000Z</time>
      </trkpt>
      <trkpt lat="42.303171" lon="-0.429613">
        <ele>998.6</ele>
        <time>2018-07-22T04:42:27.000Z</time>
      </trkpt>
      <trkpt lat="42.303171" lon="-0.429614">
        <ele>998.7</ele>
        <time>2018-07-22T04:42:28.000Z</time>
      </trkpt>
      <trkpt lat="42.303171" lon="-0.429614">
        <ele>998.7</ele>
        <time>2018-07-22T04:42:29.000Z</time>
      </trkpt>
      <trkpt lat="42.30317" lon="-0.429615">
        <ele>998.7</ele>
        <time>2018-07-22T04:42:30.000Z</time>
      </trkpt>
      <trkpt lat="42.303169" lon="-0.429616">
        <ele>998.7</ele>
        <time>2018-07-22T04:42:31.000Z</time>
      </trkpt>
      <trkpt lat="42.303168" lon="-0.429618">
        <ele>998.8</ele>
        <time>2018-07-22T04:42:32.000Z</time>
      </trkpt>
      <trkpt lat="42.303167" lon="-0.429619">
        <ele>998.9</ele>
        <time>2018-07-22T04:42:33.000Z</time>
      </trkpt>
      <trkpt lat="42.303166" lon="-0.429621">
        <ele>998.9</ele>
        <time>2018-07-22T04:42:34.000Z</time>
      </trkpt>
      <trkpt lat="42.303164" lon="-0.429622">
        <ele>999.0</ele>
        <time>2018-07-22T04:42:35.000Z</time>
      </trkpt>
      <trkpt lat="42.303163" lon="-0.429624">
        <ele>999.1</ele>
        <time>2018-07-22T04:42:36.000Z</time>
      </trkpt>
      <trkpt lat="42.303162" lon="-0.429625">
        <ele>999.1</ele>
        <time>2018-07-22T04:42:37.000Z</time>
      </trkpt>
      <trkpt lat="42.303161" lon="-0.429626">
        <ele>999.1</ele>
        <time>2018-07-22T04:42:38.000Z</time>
      </trkpt>
      <trkpt lat="42.30316" lon="-0.429627">
        <ele>999.2</ele>
        <time>2018-07-22T04:42:39.000Z</time>
      </trkpt>
      <trkpt lat="42.303159" lon="-0.429628">
        <ele>999.2</ele>
        <time>2018-07-22T04:42:40.000Z</time>
      </trkpt>
      <trkpt lat="42.303159" lon="-0.429629">
        <ele>999.2</ele>
        <time>2018-07-22T04:42:41.000Z</time>
      </trkpt>
      <trkpt lat="42.303159" lon="-0.429629">
        <ele>999.2</ele>
        <time>2018-07-22T04:42:42.000Z</time>
      </trkpt>
      <trkpt lat="42.303159" lon="-0.429629">
        <ele>999.2</ele>
        <time>2018-07-22T04:42:43.000Z</time>
      </trkpt>
      <trkpt lat="42.303159" lon="-0.429629">
        <ele>999.2</ele>
        <time>2018-07-22T04:42:44.000Z</time>
      </trkpt>
      <trkpt lat="42.303159" lon="-0.42963">
        <ele>999.3</ele>
        <time>2018-07-22T04:42:45.000Z</time>
      </trkpt>
      <trkpt lat="42.303159" lon="-0.42963">
        <ele>999.3</ele>
        <time>2018-07-22T04:42:46.000Z</time>
      </trkpt>
      <trkpt lat="42.303159" lon="-0.429631">
        <ele>999.3</ele>
        <time>2018-07-22T04:42:47.000Z</time>
      </trkpt>
      <trkpt lat="42.303158" lon="-0.429631">
        <ele>999.3</ele>
        <time>2018-07-22T04:42:48.000Z</time>
      </trkpt>
      <trkpt lat="42.303158" lon="-0.429632">
        <ele>999.4</ele>
        <time>2018-07-22T04:42:49.000Z</time>
      </trkpt>
      <trkpt lat="42.303157" lon="-0.429633">
        <ele>999.4</ele>
        <time>2018-07-22T04:42:50.000Z</time>
      </trkpt>
      <trkpt lat="42.303157" lon="-0.429634">
        <ele>999.4</ele>
        <time>2018-07-22T04:42:51.000Z</time>
      </trkpt>
      <trkpt lat="42.303156" lon="-0.429635">
        <ele>999.5</ele>
        <time>2018-07-22T04:42:52.000Z</time>
      </trkpt>
      <trkpt lat="42.303155" lon="-0.429636">
        <ele>999.5</ele>
        <time>2018-07-22T04:42:53.000Z</time>
      </trkpt>
      <trkpt lat="42.303154" lon="-0.429638">
        <ele>999.6</ele>
        <time>2018-07-22T04:42:54.000Z</time>
      </trkpt>
      <trkpt lat="42.303152" lon="-0.42964">
        <ele>999.7</ele>
        <time>2018-07-22T04:42:55.000Z</time>
      </trkpt>
      <trkpt lat="42.303151" lon="-0.429642">
        <ele>999.8</ele>
        <time>2018-07-22T04:42:56.000Z</time>
      </trkpt>
      <trkpt lat="42.303149" lon="-0.429644">
        <ele>999.8</ele>
        <time>2018-07-22T04:42:57.000Z</time>
      </trkpt>
      <trkpt lat="42.303148" lon="-0.429646">
        <ele>999.9</ele>
        <time>2018-07-22T04:42:58.000Z</time>
      </trkpt>
      <trkpt lat="42.303143" lon="-0.429648">
        <ele>1000.0</ele>
        <time>2018-07-22T04:42:59.000Z</time>
      </trkpt>
      <trkpt lat="42.303138" lon="-0.429649">
        <ele>1000.1</ele>
        <time>2018-07-22T04:43:00.000Z</time>
      </trkpt>
      <trkpt lat="42.303136" lon="-0.429651">
        <ele>1000.2</ele>
        <time>2018-07-22T04:43:01.000Z</time>
      </trkpt>
      <trkpt lat="42.303135" lon="-0.429652">
        <ele>1000.2</ele>
        <time>2018-07-22T04:43:02.000Z</time>
      </trkpt>
      <trkpt lat="42.303134" lon="-0.429653">
        <ele>1000.3</ele>
        <time>2018-07-22T04:43:03.000Z</time>
      </trkpt>
      <trkpt lat="42.303133" lon="-0.429654">
        <ele>1000.3</ele>
        <time>2018-07-22T04:43:04.000Z</time>
      </trkpt>
      <trkpt lat="42.303131" lon="-0.429654">
        <ele>1000.4</ele>
        <time>2018-07-22T04:43:05.000Z</time>
      </trkpt>
      <trkpt lat="42.303129" lon="-0.429654">
        <ele>1000.4</ele>
        <time>2018-07-22T04:43:06.000Z</time>
      </trkpt>
      <trkpt lat="42.303127" lon="-0.429654">
        <ele>1000.4</ele>
        <time>2018-07-22T04:43:07.000Z</time>
      </trkpt>
      <trkpt lat="42.303125" lon="-0.429654">
        <ele>1000.4</ele>
        <time>2018-07-22T04:43:08.000Z</time>
      </trkpt>
      <trkpt lat="42.303123" lon="-0.429655">
        <ele>1000.5</ele>
        <time>2018-07-22T04:43:09.000Z</time>
      </trkpt>
      <trkpt lat="42.303121" lon="-0.429655">
        <ele>1000.5</ele>
        <time>2018-07-22T04:43:10.000Z</time>
      </trkpt>
      <trkpt lat="42.303118" lon="-0.429655">
        <ele>1000.5</ele>
        <time>2018-07-22T04:43:11.000Z</time>
      </trkpt>
      <trkpt lat="42.303115" lon="-0.429655">
        <ele>1000.6</ele>
        <time>2018-07-22T04:43:12.000Z</time>
      </trkpt>
      <trkpt lat="42.303111" lon="-0.429657">
        <ele>1000.7</ele>
        <time>2018-07-22T04:43:13.000Z</time>
      </trkpt>
      <trkpt lat="42.303102" lon="-0.429659">
        <ele>1000.8</ele>
        <time>2018-07-22T04:43:14.000Z</time>
      </trkpt>
      <trkpt lat="42.303095" lon="-0.429661">
        <ele>1001.0</ele>
        <time>2018-07-22T04:43:15.000Z</time>
      </trkpt>
      <trkpt lat="42.303089" lon="-0.429665">
        <ele>1001.2</ele>
        <time>2018-07-22T04:43:16.000Z</time>
      </trkpt>
      <trkpt lat="42.303084" lon="-0.42967">
        <ele>1001.4</ele>
        <time>2018-07-22T04:43:17.000Z</time>
      </trkpt>
      <trkpt lat="42.30308" lon="-0.429675">
        <ele>1001.6</ele>
        <time>2018-07-22T04:43:18.000Z</time>
      </trkpt>
      <trkpt lat="42.303076" lon="-0.429679">
        <ele>1001.8</ele>
        <time>2018-07-22T04:43:19.000Z</time>
      </trkpt>
      <trkpt lat="42.303074" lon="-0.429683">
        <ele>1002.0</ele>
        <time>2018-07-22T04:43:20.000Z</time>
      </trkpt>
      <trkpt lat="42.303072" lon="-0.429685">
        <ele>1002.1</ele>
        <time>2018-07-22T04:43:21.000Z</time>
      </trkpt>
      <trkpt lat="42.30307" lon="-0.429687">
        <ele>1002.2</ele>
        <time>2018-07-22T04:43:22.000Z</time>
      </trkpt>
      <trkpt lat="42.303068" lon="-0.42969">
        <ele>1002.3</ele>
        <time>2018-07-22T04:43:23.000Z</time>
      </trkpt>
      <trkpt lat="42.303065" lon="-0.429693">
        <ele>1002.5</ele>
        <time>2018-07-22T04:43:24.000Z</time>
      </trkpt>
      <trkpt lat="42.303062" lon="-0.429697">
        <ele>1002.7</ele>
        <time>2018-07-22T04:43:25.000Z</time>
      </trkpt>
      <trkpt lat="42.30306" lon="-0.4297">
        <ele>1002.8</ele>
        <time>2018-07-22T04:43:26.000Z</time>
      </trkpt>
      <trkpt lat="42.303058" lon="-0.429702">
        <ele>1002.9</ele>
        <time>2018-07-22T04:43:27.000Z</time>
      </trkpt>
      <trkpt lat="42.303052" lon="-0.429713">
        <ele>1003.4</ele>
        <time>2018-07-22T04:43:28.000Z</time>
      </trkpt>
      <trkpt lat="42.303048" lon="-0.429721">
        <ele>1003.7</ele>
        <time>2018-07-22T04:43:29.000Z</time>
      </trkpt>
      <trkpt lat="42.303045" lon="-0.429729">
        <ele>1004.1</ele>
        <time>2018-07-22T04:43:30.000Z</time>
      </trkpt>
      <trkpt lat="42.303041" lon="-0.429735">
        <ele>1004.3</ele>
        <time>2018-07-22T04:43:31.000Z</time>
      </trkpt>
      <trkpt lat="42.303039" lon="-0.42974">
        <ele>1004.6</ele>
        <time>2018-07-22T04:43:32.000Z</time>
      </trkpt>
      <trkpt lat="42.303037" lon="-0.429743">
        <ele>1004.7</ele>
        <time>2018-07-22T04:43:33.000Z</time>
      </trkpt>
      <trkpt lat="42.303036" lon="-0.429746">
        <ele>1004.8</ele>
        <time>2018-07-22T04:43:34.000Z</time>
      </trkpt>
      <trkpt lat="42.303034" lon="-0.429749">
        <ele>1005.0</ele>
        <time>2018-07-22T04:43:35.000Z</time>
      </trkpt>
      <trkpt lat="42.303033" lon="-0.429751">
        <ele>1005.1</ele>
        <time>2018-07-22T04:43:36.000Z</time>
      </trkpt>
      <trkpt lat="42.303032" lon="-0.429754">
        <ele>1005.2</ele>
        <time>2018-07-22T04:43:37.000Z</time>
      </trkpt>
      <trkpt lat="42.30303" lon="-0.429757">
        <ele>1005.3</ele>
        <time>2018-07-22T04:43:38.000Z</time>
      </trkpt>
      <trkpt lat="42.303029" lon="-0.429759">
        <ele>1005.4</ele>
        <time>2018-07-22T04:43:39.000Z</time>
      </trkpt>
      <trkpt lat="42.303028" lon="-0.429761">
        <ele>1005.5</ele>
        <time>2018-07-22T04:43:40.000Z</time>
      </trkpt>
      <trkpt lat="42.303027" lon="-0.429762">
        <ele>1005.6</ele>
        <time>2018-07-22T04:43:41.000Z</time>
      </trkpt>
      <trkpt lat="42.303027" lon="-0.429763">
        <ele>1005.6</ele>
        <time>2018-07-22T04:43:42.000Z</time>
      </trkpt>
      <trkpt lat="42.303026" lon="-0.429764">
        <ele>1005.7</ele>
        <time>2018-07-22T04:43:43.000Z</time>
      </trkpt>
      <trkpt lat="42.303025" lon="-0.429764">
        <ele>1005.7</ele>
        <time>2018-07-22T04:43:44.000Z</time>
      </trkpt>
      <trkpt lat="42.30302" lon="-0.429768">
        <ele>1005.9</ele>
        <time>2018-07-22T04:43:45.000Z</time>
      </trkpt>
      <trkpt lat="42.303011" lon="-0.429778">
        <ele>1006.4</ele>
        <time>2018-07-22T04:43:46.000Z</time>
      </trkpt>
      <trkpt lat="42.303008" lon="-0.429782">
        <ele>1006.6</ele>
        <time>2018-07-22T04:43:47.000Z</time>
      </trkpt>
      <trkpt lat="42.303003" lon="-0.429786">
        <ele>1006.9</ele>
        <time>2018-07-22T04:43:48.000Z</time>
      </trkpt>
      <trkpt lat="42.302998" lon="-0.42979">
        <ele>1007.1</ele>
        <time>2018-07-22T04:43:49.000Z</time>
      </trkpt>
      <trkpt lat="42.302995" lon="-0.429792">
        <ele>1007.2</ele>
        <time>2018-07-22T04:43:50.000Z</time>
      </trkpt>
      <trkpt lat="42.302993" lon="-0.429794">
        <ele>1007.4</ele>
        <time>2018-07-22T04:43:51.000Z</time>
      </trkpt>
      <trkpt lat="42.302991" lon="-0.429795">
        <ele>1007.4</ele>
        <time>2018-07-22T04:43:52.000Z</time>
      </trkpt>
      <trkpt lat="42.302989" lon="-0.429797">
        <ele>1007.5</ele>
        <time>2018-07-22T04:43:53.000Z</time>
      </trkpt>
      <trkpt lat="42.302987" lon="-0.429798">
        <ele>1007.6</ele>
        <time>2018-07-22T04:43:54.000Z</time>
      </trkpt>
      <trkpt lat="42.302985" lon="-0.4298">
        <ele>1007.7</ele>
        <time>2018-07-22T04:43:55.000Z</time>
      </trkpt>
      <trkpt lat="42.302982" lon="-0.429803">
        <ele>1007.9</ele>
        <time>2018-07-22T04:43:56.000Z</time>
      </trkpt>
      <trkpt lat="42.302979" lon="-0.429806">
        <ele>1008.1</ele>
        <time>2018-07-22T04:43:57.000Z</time>
      </trkpt>
      <trkpt lat="42.302974" lon="-0.42981">
        <ele>1008.3</ele>
        <time>2018-07-22T04:43:58.000Z</time>
      </trkpt>
      <trkpt lat="42.302966" lon="-0.429817">
        <ele>1008.7</ele>
        <time>2018-07-22T04:43:59.000Z</time>
      </trkpt>
      <trkpt lat="42.302961" lon="-0.429822">
        <ele>1009.0</ele>
        <time>2018-07-22T04:44:00.000Z</time>
      </trkpt>
      <trkpt lat="42.302957" lon="-0.429825">
        <ele>1009.2</ele>
        <time>2018-07-22T04:44:01.000Z</time>
      </trkpt>
      <trkpt lat="42.302953" lon="-0.429827">
        <ele>1009.4</ele>
        <time>2018-07-22T04:44:02.000Z</time>
      </trkpt>
      <trkpt lat="42.302949" lon="-0.429828">
        <ele>1009.5</ele>
        <time>2018-07-22T04:44:03.000Z</time>
      </trkpt>
      <trkpt lat="42.302946" lon="-0.429829">
        <ele>1009.6</ele>
        <time>2018-07-22T04:44:04.000Z</time>
      </trkpt>
      <trkpt lat="42.302944" lon="-0.42983">
        <ele>1009.7</ele>
        <time>2018-07-22T04:44:05.000Z</time>
      </trkpt>
      <trkpt lat="42.302941" lon="-0.429831">
        <ele>1009.8</ele>
        <time>2018-07-22T04:44:06.000Z</time>
      </trkpt>
      <trkpt lat="42.302939" lon="-0.429832">
        <ele>1009.8</ele>
        <time>2018-07-22T04:44:07.000Z</time>
      </trkpt>
      <trkpt lat="42.302937" lon="-0.429833">
        <ele>1009.9</ele>
        <time>2018-07-22T04:44:08.000Z</time>
      </trkpt>
      <trkpt lat="42.302935" lon="-0.429834">
        <ele>1010.0</ele>
        <time>2018-07-22T04:44:09.000Z</time>
      </trkpt>
      <trkpt lat="42.302931" lon="-0.429835">
        <ele>1010.1</ele>
        <time>2018-07-22T04:44:10.000Z</time>
      </trkpt>
      <trkpt lat="42.302926" lon="-0.429836">
        <ele>1010.2</ele>
        <time>2018-07-22T04:44:11.000Z</time>
      </trkpt>
      <trkpt lat="42.302919" lon="-0.429837">
        <ele>1010.4</ele>
        <time>2018-07-22T04:44:12.000Z</time>
      </trkpt>
      <trkpt lat="42.302911" lon="-0.429838">
        <ele>1010.6</ele>
        <time>2018-07-22T04:44:13.000Z</time>
      </trkpt>
      <trkpt lat="42.302904" lon="-0.429838">
        <ele>1010.7</ele>
        <time>2018-07-22T04:44:14.000Z</time>
      </trkpt>
      <trkpt lat="42.3029" lon="-0.429838">
        <ele>1010.8</ele>
        <time>2018-07-22T04:44:15.000Z</time>
      </trkpt>
      <trkpt lat="42.302898" lon="-0.429838">
        <ele>1010.8</ele>
        <time>2018-07-22T04:44:16.000Z</time>
      </trkpt>
      <trkpt lat="42.302896" lon="-0.429839">
        <ele>1010.9</ele>
        <time>2018-07-22T04:44:17.000Z</time>
      </trkpt>
      <trkpt lat="42.302895" lon="-0.429839">
        <ele>1010.9</ele>
        <time>2018-07-22T04:44:18.000Z</time>
      </trkpt>
      <trkpt lat="42.302893" lon="-0.429839">
        <ele>1011.0</ele>
        <time>2018-07-22T04:44:19.000Z</time>
      </trkpt>
      <trkpt lat="42.302891" lon="-0.429839">
        <ele>1011.0</ele>
        <time>2018-07-22T04:44:20.000Z</time>
      </trkpt>
      <trkpt lat="42.302888" lon="-0.42984">
        <ele>1011.1</ele>
        <time>2018-07-22T04:44:21.000Z</time>
      </trkpt>
      <trkpt lat="42.302885" lon="-0.42984">
        <ele>1011.2</ele>
        <time>2018-07-22T04:44:22.000Z</time>
      </trkpt>
      <trkpt lat="42.302882" lon="-0.42984">
        <ele>1011.2</ele>
        <time>2018-07-22T04:44:23.000Z</time>
      </trkpt>
      <trkpt lat="42.302879" lon="-0.429841">
        <ele>1011.3</ele>
        <time>2018-07-22T04:44:24.000Z</time>
      </trkpt>
      <trkpt lat="42.302876" lon="-0.429841">
        <ele>1011.4</ele>
        <time>2018-07-22T04:44:25.000Z</time>
      </trkpt>
      <trkpt lat="42.302873" lon="-0.429841">
        <ele>1011.4</ele>
        <time>2018-07-22T04:44:26.000Z</time>
      </trkpt>
      <trkpt lat="42.30287" lon="-0.429841">
        <ele>1011.5</ele>
        <time>2018-07-22T04:44:27.000Z</time>
      </trkpt>
      <trkpt lat="42.302867" lon="-0.429841">
        <ele>1011.5</ele>
        <time>2018-07-22T04:44:28.000Z</time>
      </trkpt>
      <trkpt lat="42.302865" lon="-0.429841">
        <ele>1011.6</ele>
        <time>2018-07-22T04:44:29.000Z</time>
      </trkpt>
      <trkpt lat="42.302859" lon="-0.429841">
        <ele>1011.7</ele>
        <time>2018-07-22T04:44:30.000Z</time>
      </trkpt>
      <trkpt lat="42.302855" lon="-0.429841">
        <ele>1011.8</ele>
        <time>2018-07-22T04:44:31.000Z</time>
      </trkpt>
      <trkpt lat="42.302849" lon="-0.429842">
        <ele>1011.9</ele>
        <time>2018-07-22T04:44:32.000Z</time>
      </trkpt>
      <trkpt lat="42.302843" lon="-0.429843">
        <ele>1012.1</ele>
        <time>2018-07-22T04:44:33.000Z</time>
      </trkpt>
      <trkpt lat="42.302838" lon="-0.429844">
        <ele>1012.2</ele>
        <time>2018-07-22T04:44:34.000Z</time>
      </trkpt>
      <trkpt lat="42.302834" lon="-0.429845">
        <ele>1012.3</ele>
        <time>2018-07-22T04:44:35.000Z</time>
      </trkpt>
      <trkpt lat="42.302831" lon="-0.429846">
        <ele>1012.4</ele>
        <time>2018-07-22T04:44:36.000Z</time>
      </trkpt>
      <trkpt lat="42.302829" lon="-0.429847">
        <ele>1012.5</ele>
        <time>2018-07-22T04:44:37.000Z</time>
      </trkpt>
      <trkpt lat="42.302826" lon="-0.429848">
        <ele>1012.6</ele>
        <time>2018-07-22T04:44:38.000Z</time>
      </trkpt>
      <trkpt lat="42.302823" lon="-0.429849">
        <ele>1012.7</ele>
        <time>2018-07-22T04:44:39.000Z</time>
      </trkpt>
      <trkpt lat="42.302819" lon="-0.429851">
        <ele>1012.9</ele>
        <time>2018-07-22T04:44:40.000Z</time>
      </trkpt>
      <trkpt lat="42.302813" lon="-0.429855">
        <ele>1013.2</ele>
        <time>2018-07-22T04:44:41.000Z</time>
      </trkpt>
      <trkpt lat="42.302805" lon="-0.429861">
        <ele>1013.6</ele>
        <time>2018-07-22T04:44:42.000Z</time>
      </trkpt>
      <trkpt lat="42.302799" lon="-0.429865">
        <ele>1013.9</ele>
        <time>2018-07-22T04:44:43.000Z</time>
      </trkpt>
      <trkpt lat="42.302794" lon="-0.429866">
        <ele>1014.1</ele>
        <time>2018-07-22T04:44:44.000Z</time>
      </trkpt>
      <trkpt lat="42.302791" lon="-0.429867">
        <ele>1014.2</ele>
        <time>2018-07-22T04:44:45.000Z</time>
      </trkpt>
      <trkpt lat="42.302788" lon="-0.429868">
        <ele>1014.3</ele>
        <time>2018-07-22T04:44:46.000Z</time>
      </trkpt>
      <trkpt lat="42.302786" lon="-0.429868">
        <ele>1014.3</ele>
        <time>2018-07-22T04:44:47.000Z</time>
      </trkpt>
      <trkpt lat="42.302784" lon="-0.429869">
        <ele>1014.4</ele>
        <time>2018-07-22T04:44:48.000Z</time>
      </trkpt>
      <trkpt lat="42.302782" lon="-0.42987">
        <ele>1014.5</ele>
        <time>2018-07-22T04:44:49.000Z</time>
      </trkpt>
      <trkpt lat="42.302779" lon="-0.429871">
        <ele>1014.6</ele>
        <time>2018-07-22T04:44:50.000Z</time>
      </trkpt>
      <trkpt lat="42.302776" lon="-0.429872">
        <ele>1014.7</ele>
        <time>2018-07-22T04:44:51.000Z</time>
      </trkpt>
      <trkpt lat="42.302774" lon="-0.429873">
        <ele>1014.8</ele>
        <time>2018-07-22T04:44:52.000Z</time>
      </trkpt>
      <trkpt lat="42.302765" lon="-0.429875">
        <ele>1015.1</ele>
        <time>2018-07-22T04:44:53.000Z</time>
      </trkpt>
      <trkpt lat="42.302758" lon="-0.429876">
        <ele>1015.3</ele>
        <time>2018-07-22T04:44:54.000Z</time>
      </trkpt>
      <trkpt lat="42.302752" lon="-0.429876">
        <ele>1015.4</ele>
        <time>2018-07-22T04:44:55.000Z</time>
      </trkpt>
      <trkpt lat="42.302747" lon="-0.429875">
        <ele>1015.5</ele>
        <time>2018-07-22T04:44:56.000Z</time>
      </trkpt>
      <trkpt lat="42.302743" lon="-0.429875">
        <ele>1015.5</ele>
        <time>2018-07-22T04:44:57.000Z</time>
      </trkpt>
      <trkpt lat="42.302741" lon="-0.429875">
        <ele>1015.6</ele>
        <time>2018-07-22T04:44:58.000Z</time>
      </trkpt>
      <trkpt lat="42.302738" lon="-0.429874">
        <ele>1015.6</ele>
        <time>2018-07-22T04:44:59.000Z</time>
      </trkpt>
      <trkpt lat="42.302736" lon="-0.429874">
        <ele>1015.6</ele>
        <time>2018-07-22T04:45:00.000Z</time>
      </trkpt>
      <trkpt lat="42.302734" lon="-0.429874">
        <ele>1015.7</ele>
        <time>2018-07-22T04:45:01.000Z</time>
      </trkpt>
      <trkpt lat="42.302732" lon="-0.429874">
        <ele>1015.7</ele>
        <time>2018-07-22T04:45:02.000Z</time>
      </trkpt>
      <trkpt lat="42.30273" lon="-0.429874">
        <ele>1015.7</ele>
        <time>2018-07-22T04:45:03.000Z</time>
      </trkpt>
      <trkpt lat="42.302728" lon="-0.429874">
        <ele>1015.8</ele>
        <time>2018-07-22T04:45:04.000Z</time>
      </trkpt>
      <trkpt lat="42.302726" lon="-0.429874">
        <ele>1015.8</ele>
        <time>2018-07-22T04:45:05.000Z</time>
      </trkpt>
      <trkpt lat="42.302723" lon="-0.429874">
        <ele>1015.9</ele>
        <time>2018-07-22T04:45:06.000Z</time>
      </trkpt>
      <trkpt lat="42.302721" lon="-0.429874">
        <ele>1015.9</ele>
        <time>2018-07-22T04:45:07.000Z</time>
      </trkpt>
      <trkpt lat="42.302719" lon="-0.429874">
        <ele>1016.0</ele>
        <time>2018-07-22T04:45:08.000Z</time>
      </trkpt>
      <trkpt lat="42.302717" lon="-0.429874">
        <ele>1016.0</ele>
        <time>2018-07-22T04:45:09.000Z</time>
      </trkpt>
      <trkpt lat="42.302715" lon="-0.429873">
        <ele>1016.0</ele>
        <time>2018-07-22T04:45:10.000Z</time>
      </trkpt>
      <trkpt lat="42.302713" lon="-0.429873">
        <ele>1016.0</ele>
        <time>2018-07-22T04:45:11.000Z</time>
      </trkpt>
      <trkpt lat="42.302711" lon="-0.429873">
        <ele>1016.1</ele>
        <time>2018-07-22T04:45:12.000Z</time>
      </trkpt>
      <trkpt lat="42.30271" lon="-0.429873">
        <ele>1016.1</ele>
        <time>2018-07-22T04:45:13.000Z</time>
      </trkpt>
      <trkpt lat="42.30271" lon="-0.429873">
        <ele>1016.1</ele>
        <time>2018-07-22T04:45:14.000Z</time>
      </trkpt>
      <trkpt lat="42.302709" lon="-0.429873">
        <ele>1016.1</ele>
        <time>2018-07-22T04:45:15.000Z</time>
      </trkpt>
      <trkpt lat="42.302701" lon="-0.429871">
        <ele>1016.2</ele>
        <time>2018-07-22T04:45:16.000Z</time>
      </trkpt>
      <trkpt lat="42.302692" lon="-0.429869">
        <ele>1016.2</ele>
        <time>2018-07-22T04:45:17.000Z</time>
      </trkpt>
      <trkpt lat="42.302686" lon="-0.429868">
        <ele>1016.3</ele>
        <time>2018-07-22T04:45:18.000Z</time>
      </trkpt>
      <trkpt lat="42.30268" lon="-0.429868">
        <ele>1016.4</ele>
        <time>2018-07-22T04:45:19.000Z</time>
      </trkpt>
      <trkpt lat="42.302674" lon="-0.42987">
        <ele>1016.6</ele>
        <time>2018-07-22T04:45:20.000Z</time>
      </trkpt>
      <trkpt lat="42.30267" lon="-0.429872">
        <ele>1016.8</ele>
        <time>2018-07-22T04:45:21.000Z</time>
      </trkpt>
      <trkpt lat="42.302668" lon="-0.429873">
        <ele>1016.9</ele>
        <time>2018-07-22T04:45:22.000Z</time>
      </trkpt>
      <trkpt lat="42.302666" lon="-0.429874">
        <ele>1017.0</ele>
        <time>2018-07-22T04:45:23.000Z</time>
      </trkpt>
      <trkpt lat="42.302663" lon="-0.429875">
        <ele>1017.1</ele>
        <time>2018-07-22T04:45:24.000Z</time>
      </trkpt>
      <trkpt lat="42.302661" lon="-0.429876">
        <ele>1017.2</ele>
        <time>2018-07-22T04:45:25.000Z</time>
      </trkpt>
      <trkpt lat="42.302659" lon="-0.429877">
        <ele>1017.3</ele>
        <time>2018-07-22T04:45:26.000Z</time>
      </trkpt>
      <trkpt lat="42.302657" lon="-0.429877">
        <ele>1017.4</ele>
        <time>2018-07-22T04:45:27.000Z</time>
      </trkpt>
      <trkpt lat="42.302654" lon="-0.429878">
        <ele>1017.5</ele>
        <time>2018-07-22T04:45:28.000Z</time>
      </trkpt>
      <trkpt lat="42.302651" lon="-0.429879">
        <ele>1017.6</ele>
        <time>2018-07-22T04:45:29.000Z</time>
      </trkpt>
      <trkpt lat="42.302645" lon="-0.42988">
        <ele>1017.8</ele>
        <time>2018-07-22T04:45:30.000Z</time>
      </trkpt>
      <trkpt lat="42.302635" lon="-0.42988">
        <ele>1018.0</ele>
        <time>2018-07-22T04:45:31.000Z</time>
      </trkpt>
      <trkpt lat="42.302626" lon="-0.429881">
        <ele>1018.2</ele>
        <time>2018-07-22T04:45:32.000Z</time>
      </trkpt>
      <trkpt lat="42.302624" lon="-0.429882">
        <ele>1018.3</ele>
        <time>2018-07-22T04:45:33.000Z</time>
      </trkpt>
      <trkpt lat="42.302624" lon="-0.429882">
        <ele>1018.3</ele>
        <time>2018-07-22T04:45:34.000Z</time>
      </trkpt>
      <trkpt lat="42.302622" lon="-0.429882">
        <ele>1018.3</ele>
        <time>2018-07-22T04:45:35.000Z</time>
      </trkpt>
      <trkpt lat="42.30262" lon="-0.429882">
        <ele>1018.4</ele>
        <time>2018-07-22T04:45:36.000Z</time>
      </trkpt>
      <trkpt lat="42.302618" lon="-0.429883">
        <ele>1018.5</ele>
        <time>2018-07-22T04:45:37.000Z</time>
      </trkpt>
      <trkpt lat="42.302616" lon="-0.429883">
        <ele>1018.5</ele>
        <time>2018-07-22T04:45:38.000Z</time>
      </trkpt>
      <trkpt lat="42.302613" lon="-0.429884">
        <ele>1018.6</ele>
        <time>2018-07-22T04:45:39.000Z</time>
      </trkpt>
      <trkpt lat="42.30261" lon="-0.429885">
        <ele>1018.7</ele>
        <time>2018-07-22T04:45:40.000Z</time>
      </trkpt>
      <trkpt lat="42.302607" lon="-0.429885">
        <ele>1018.8</ele>
        <time>2018-07-22T04:45:41.000Z</time>
      </trkpt>
      <trkpt lat="42.302604" lon="-0.429886">
        <ele>1018.9</ele>
        <time>2018-07-22T04:45:42.000Z</time>
      </trkpt>
      <trkpt lat="42.302602" lon="-0.429887">
        <ele>1019.0</ele>
        <time>2018-07-22T04:45:43.000Z</time>
      </trkpt>
      <trkpt lat="42.302599" lon="-0.429887">
        <ele>1019.1</ele>
        <time>2018-07-22T04:45:44.000Z</time>
      </trkpt>
      <trkpt lat="42.302597" lon="-0.429888">
        <ele>1019.2</ele>
        <time>2018-07-22T04:45:45.000Z</time>
      </trkpt>
      <trkpt lat="42.302591" lon="-0.429889">
        <ele>1019.3</ele>
        <time>2018-07-22T04:45:46.000Z</time>
      </trkpt>
      <trkpt lat="42.302583" lon="-0.429891">
        <ele>1019.6</ele>
        <time>2018-07-22T04:45:47.000Z</time>
      </trkpt>
      <trkpt lat="42.302577" lon="-0.429893">
        <ele>1019.9</ele>
        <time>2018-07-22T04:45:48.000Z</time>
      </trkpt>
      <trkpt lat="42.302574" lon="-0.429895">
        <ele>1020.0</ele>
        <time>2018-07-22T04:45:49.000Z</time>
      </trkpt>
      <trkpt lat="42.302571" lon="-0.429896">
        <ele>1020.2</ele>
        <time>2018-07-22T04:45:50.000Z</time>
      </trkpt>
      <trkpt lat="42.302569" lon="-0.429897">
        <ele>1020.3</ele>
        <time>2018-07-22T04:45:51.000Z</time>
      </trkpt>
      <trkpt lat="42.302567" lon="-0.429898">
        <ele>1020.4</ele>
        <time>2018-07-22T04:45:52.000Z</time>
      </trkpt>
      <trkpt lat="42.302565" lon="-0.429899">
        <ele>1020.5</ele>
        <time>2018-07-22T04:45:53.000Z</time>
      </trkpt>
      <trkpt lat="42.302563" lon="-0.4299">
        <ele>1020.6</ele>
        <time>2018-07-22T04:45:54.000Z</time>
      </trkpt>
      <trkpt lat="42.302562" lon="-0.429901">
        <ele>1020.6</ele>
        <time>2018-07-22T04:45:55.000Z</time>
      </trkpt>
      <trkpt lat="42.302561" lon="-0.429901">
        <ele>1020.7</ele>
        <time>2018-07-22T04:45:56.000Z</time>
      </trkpt>
      <trkpt lat="42.30256" lon="-0.429902">
        <ele>1020.7</ele>
        <time>2018-07-22T04:45:57.000Z</time>
      </trkpt>
      <trkpt lat="42.30256" lon="-0.429902">
        <ele>1020.7</ele>
        <time>2018-07-22T04:45:58.000Z</time>
      </trkpt>
      <trkpt lat="42.302559" lon="-0.429902">
        <ele>1020.8</ele>
        <time>2018-07-22T04:45:59.000Z</time>
      </trkpt>
      <trkpt lat="42.302557" lon="-0.429903">
        <ele>1020.9</ele>
        <time>2018-07-22T04:46:00.000Z</time>
      </trkpt>
      <trkpt lat="42.302554" lon="-0.429908">
        <ele>1021.2</ele>
        <time>2018-07-22T04:46:01.000Z</time>
      </trkpt>
      <trkpt lat="42.302551" lon="-0.429917">
        <ele>1021.8</ele>
        <time>2018-07-22T04:46:02.000Z</time>
      </trkpt>
      <trkpt lat="42.302554" lon="-0.429924">
        <ele>1022.2</ele>
        <time>2018-07-22T04:46:03.000Z</time>
      </trkpt>
      <trkpt lat="42.302557" lon="-0.429931">
        <ele>1022.5</ele>
        <time>2018-07-22T04:46:04.000Z</time>
      </trkpt>
      <trkpt lat="42.302559" lon="-0.429937">
        <ele>1022.8</ele>
        <time>2018-07-22T04:46:05.000Z</time>
      </trkpt>
      <trkpt lat="42.302559" lon="-0.429942">
        <ele>1023.1</ele>
        <time>2018-07-22T04:46:06.000Z</time>
      </trkpt>
      <trkpt lat="42.30256" lon="-0.429946">
        <ele>1023.3</ele>
        <time>2018-07-22T04:46:07.000Z</time>
      </trkpt>
      <trkpt lat="42.30256" lon="-0.429949">
        <ele>1023.5</ele>
        <time>2018-07-22T04:46:08.000Z</time>
      </trkpt>
      <trkpt lat="42.30256" lon="-0.429951">
        <ele>1023.6</ele>
        <time>2018-07-22T04:46:09.000Z</time>
      </trkpt>
      <trkpt lat="42.302559" lon="-0.429954">
        <ele>1023.8</ele>
        <time>2018-07-22T04:46:10.000Z</time>
      </trkpt>
      <trkpt lat="42.302555" lon="-0.429959">
        <ele>1024.2</ele>
        <time>2018-07-22T04:46:11.000Z</time>
      </trkpt>
      <trkpt lat="42.302549" lon="-0.429967">
        <ele>1024.8</ele>
        <time>2018-07-22T04:46:12.000Z</time>
      </trkpt>
      <trkpt lat="42.302543" lon="-0.429975">
        <ele>1025.4</ele>
        <time>2018-07-22T04:46:13.000Z</time>
      </trkpt>
      <trkpt lat="42.302538" lon="-0.429982">
        <ele>1026.0</ele>
        <time>2018-07-22T04:46:14.000Z</time>
      </trkpt>
      <trkpt lat="42.302532" lon="-0.429988">
        <ele>1026.5</ele>
        <time>2018-07-22T04:46:15.000Z</time>
      </trkpt>
      <trkpt lat="42.302526" lon="-0.429992">
        <ele>1026.9</ele>
        <time>2018-07-22T04:46:16.000Z</time>
      </trkpt>
      <trkpt lat="42.30252" lon="-0.429996">
        <ele>1027.3</ele>
        <time>2018-07-22T04:46:17.000Z</time>
      </trkpt>
      <trkpt lat="42.302515" lon="-0.429999">
        <ele>1027.6</ele>
        <time>2018-07-22T04:46:18.000Z</time>
      </trkpt>
      <trkpt lat="42.302511" lon="-0.430001">
        <ele>1027.7</ele>
        <time>2018-07-22T04:46:19.000Z</time>
      </trkpt>
      <trkpt lat="42.302508" lon="-0.430002">
        <ele>1027.8</ele>
        <time>2018-07-22T04:46:20.000Z</time>
      </trkpt>
      <trkpt lat="42.302506" lon="-0.430003">
        <ele>1027.9</ele>
        <time>2018-07-22T04:46:21.000Z</time>
      </trkpt>
      <trkpt lat="42.302504" lon="-0.430004">
        <ele>1028.0</ele>
        <time>2018-07-22T04:46:22.000Z</time>
      </trkpt>
      <trkpt lat="42.302501" lon="-0.430005">
        <ele>1028.1</ele>
        <time>2018-07-22T04:46:23.000Z</time>
      </trkpt>
      <trkpt lat="42.302498" lon="-0.430007">
        <ele>1028.1</ele>
        <time>2018-07-22T04:46:24.000Z</time>
      </trkpt>
      <trkpt lat="42.302493" lon="-0.43001">
        <ele>1028.2</ele>
        <time>2018-07-22T04:46:25.000Z</time>
      </trkpt>
      <trkpt lat="42.302486" lon="-0.430013">
        <ele>1028.2</ele>
        <time>2018-07-22T04:46:26.000Z</time>
      </trkpt>
      <trkpt lat="42.302482" lon="-0.430015">
        <ele>1028.2</ele>
        <time>2018-07-22T04:46:27.000Z</time>
      </trkpt>
      <trkpt lat="42.302475" lon="-0.430019">
        <ele>1028.3</ele>
        <time>2018-07-22T04:46:28.000Z</time>
      </trkpt>
      <trkpt lat="42.30247" lon="-0.430021">
        <ele>1028.3</ele>
        <time>2018-07-22T04:46:29.000Z</time>
      </trkpt>
      <trkpt lat="42.302466" lon="-0.430023">
        <ele>1028.3</ele>
        <time>2018-07-22T04:46:30.000Z</time>
      </trkpt>
      <trkpt lat="42.302463" lon="-0.430024">
        <ele>1028.3</ele>
        <time>2018-07-22T04:46:31.000Z</time>
      </trkpt>
      <trkpt lat="42.302462" lon="-0.430024">
        <ele>1028.3</ele>
        <time>2018-07-22T04:46:32.000Z</time>
      </trkpt>
      <trkpt lat="42.302462" lon="-0.430025">
        <ele>1028.4</ele>
        <time>2018-07-22T04:46:33.000Z</time>
      </trkpt>
      <trkpt lat="42.302462" lon="-0.430025">
        <ele>1028.4</ele>
        <time>2018-07-22T04:46:34.000Z</time>
      </trkpt>
      <trkpt lat="42.302461" lon="-0.430025">
        <ele>1028.4</ele>
        <time>2018-07-22T04:46:35.000Z</time>
      </trkpt>
      <trkpt lat="42.302461" lon="-0.430025">
        <ele>1028.4</ele>
        <time>2018-07-22T04:46:36.000Z</time>
      </trkpt>
      <trkpt lat="42.302461" lon="-0.430025">
        <ele>1028.4</ele>
        <time>2018-07-22T04:46:37.000Z</time>
      </trkpt>
      <trkpt lat="42.302461" lon="-0.430025">
        <ele>1028.4</ele>
        <time>2018-07-22T04:46:38.000Z</time>
      </trkpt>
      <trkpt lat="42.302461" lon="-0.430025">
        <ele>1028.4</ele>
        <time>2018-07-22T04:46:39.000Z</time>
      </trkpt>
      <trkpt lat="42.302461" lon="-0.430025">
        <ele>1028.4</ele>
        <time>2018-07-22T04:46:40.000Z</time>
      </trkpt>
      <trkpt lat="42.302461" lon="-0.430025">
        <ele>1028.4</ele>
        <time>2018-07-22T04:46:41.000Z</time>
      </trkpt>
      <trkpt lat="42.302461" lon="-0.430025">
        <ele>1028.4</ele>
        <time>2018-07-22T04:46:42.000Z</time>
      </trkpt>
      <trkpt lat="42.302461" lon="-0.430025">
        <ele>1028.4</ele>
        <time>2018-07-22T04:46:43.000Z</time>
      </trkpt>
      <trkpt lat="42.302461" lon="-0.430025">
        <ele>1028.4</ele>
        <time>2018-07-22T04:46:44.000Z</time>
      </trkpt>
      <trkpt lat="42.302461" lon="-0.430025">
        <ele>1028.4</ele>
        <time>2018-07-22T04:46:45.000Z</time>
      </trkpt>
      <trkpt lat="42.302461" lon="-0.430025">
        <ele>1028.4</ele>
        <time>2018-07-22T04:46:46.000Z</time>
      </trkpt>
      <trkpt lat="42.302461" lon="-0.430025">
        <ele>1028.4</ele>
        <time>2018-07-22T04:46:47.000Z</time>
      </trkpt>
      <trkpt lat="42.302461" lon="-0.430025">
        <ele>1028.4</ele>
        <time>2018-07-22T04:46:48.000Z</time>
      </trkpt>
      <trkpt lat="42.302461" lon="-0.430025">
        <ele>1028.4</ele>
        <time>2018-07-22T04:46:49.000Z</time>
      </trkpt>
      <trkpt lat="42.302461" lon="-0.430025">
        <ele>1028.4</ele>
        <time>2018-07-22T04:46:50.000Z</time>
      </trkpt>
      <trkpt lat="42.302461" lon="-0.430025">
        <ele>1028.4</ele>
        <time>2018-07-22T04:46:51.000Z</time>
      </trkpt>
      <trkpt lat="42.30246" lon="-0.430026">
        <ele>1028.4</ele>
        <time>2018-07-22T04:46:52.000Z</time>
      </trkpt>
      <trkpt lat="42.302459" lon="-0.430027">
        <ele>1028.4</ele>
        <time>2018-07-22T04:46:53.000Z</time>
      </trkpt>
      <trkpt lat="42.302457" lon="-0.430028">
        <ele>1028.4</ele>
        <time>2018-07-22T04:46:54.000Z</time>
      </trkpt>
      <trkpt lat="42.302455" lon="-0.43003">
        <ele>1028.4</ele>
        <time>2018-07-22T04:46:55.000Z</time>
      </trkpt>
      <trkpt lat="42.302452" lon="-0.430032">
        <ele>1028.5</ele>
        <time>2018-07-22T04:46:56.000Z</time>
      </trkpt>
      <trkpt lat="42.302448" lon="-0.430034">
        <ele>1028.5</ele>
        <time>2018-07-22T04:46:57.000Z</time>
      </trkpt>
      <trkpt lat="42.302445" lon="-0.430036">
        <ele>1028.5</ele>
        <time>2018-07-22T04:46:58.000Z</time>
      </trkpt>
      <trkpt lat="42.302443" lon="-0.430038">
        <ele>1028.6</ele>
        <time>2018-07-22T04:46:59.000Z</time>
      </trkpt>
      <trkpt lat="42.302439" lon="-0.430043">
        <ele>1028.7</ele>
        <time>2018-07-22T04:47:00.000Z</time>
      </trkpt>
      <trkpt lat="42.302432" lon="-0.430054">
        <ele>1028.9</ele>
        <time>2018-07-22T04:47:01.000Z</time>
      </trkpt>
      <trkpt lat="42.302428" lon="-0.430062">
        <ele>1029.1</ele>
        <time>2018-07-22T04:47:02.000Z</time>
      </trkpt>
      <trkpt lat="42.302424" lon="-0.430071">
        <ele>1029.3</ele>
        <time>2018-07-22T04:47:03.000Z</time>
      </trkpt>
      <trkpt lat="42.30242" lon="-0.430079">
        <ele>1029.5</ele>
        <time>2018-07-22T04:47:04.000Z</time>
      </trkpt>
      <trkpt lat="42.302417" lon="-0.430084">
        <ele>1029.6</ele>
        <time>2018-07-22T04:47:05.000Z</time>
      </trkpt>
      <trkpt lat="42.302415" lon="-0.430089">
        <ele>1029.8</ele>
        <time>2018-07-22T04:47:06.000Z</time>
      </trkpt>
      <trkpt lat="42.302413" lon="-0.430092">
        <ele>1029.8</ele>
        <time>2018-07-22T04:47:07.000Z</time>
      </trkpt>
      <trkpt lat="42.302412" lon="-0.430094">
        <ele>1029.9</ele>
        <time>2018-07-22T04:47:08.000Z</time>
      </trkpt>
      <trkpt lat="42.30241" lon="-0.430097">
        <ele>1030.0</ele>
        <time>2018-07-22T04:47:09.000Z</time>
      </trkpt>
      <trkpt lat="42.302408" lon="-0.4301">
        <ele>1030.0</ele>
        <time>2018-07-22T04:47:10.000Z</time>
      </trkpt>
      <trkpt lat="42.302406" lon="-0.430104">
        <ele>1030.1</ele>
        <time>2018-07-22T04:47:11.000Z</time>
      </trkpt>
      <trkpt lat="42.302404" lon="-0.430109">
        <ele>1030.3</ele>
        <time>2018-07-22T04:47:12.000Z</time>
      </trkpt>
      <trkpt lat="42.302402" lon="-0.430115">
        <ele>1030.4</ele>
        <time>2018-07-22T04:47:13.000Z</time>
      </trkpt>
      <trkpt lat="42.302395" lon="-0.43013">
        <ele>1030.8</ele>
        <time>2018-07-22T04:47:14.000Z</time>
      </trkpt>
      <trkpt lat="42.302393" lon="-0.430141">
        <ele>1031.1</ele>
        <time>2018-07-22T04:47:15.000Z</time>
      </trkpt>
      <trkpt lat="42.302392" lon="-0.43015">
        <ele>1031.3</ele>
        <time>2018-07-22T04:47:16.000Z</time>
      </trkpt>
      <trkpt lat="42.302388" lon="-0.430162">
        <ele>1031.7</ele>
        <time>2018-07-22T04:47:17.000Z</time>
      </trkpt>
      <trkpt lat="42.302385" lon="-0.430172">
        <ele>1031.9</ele>
        <time>2018-07-22T04:47:18.000Z</time>
      </trkpt>
      <trkpt lat="42.302382" lon="-0.430178">
        <ele>1032.1</ele>
        <time>2018-07-22T04:47:19.000Z</time>
      </trkpt>
      <trkpt lat="42.302381" lon="-0.430182">
        <ele>1032.2</ele>
        <time>2018-07-22T04:47:20.000Z</time>
      </trkpt>
      <trkpt lat="42.302379" lon="-0.430184">
        <ele>1032.3</ele>
        <time>2018-07-22T04:47:21.000Z</time>
      </trkpt>
      <trkpt lat="42.302379" lon="-0.430185">
        <ele>1032.3</ele>
        <time>2018-07-22T04:47:22.000Z</time>
      </trkpt>
      <trkpt lat="42.302378" lon="-0.430187">
        <ele>1032.4</ele>
        <time>2018-07-22T04:47:23.000Z</time>
      </trkpt>
      <trkpt lat="42.302377" lon="-0.430189">
        <ele>1032.4</ele>
        <time>2018-07-22T04:47:24.000Z</time>
      </trkpt>
      <trkpt lat="42.302375" lon="-0.430192">
        <ele>1032.5</ele>
        <time>2018-07-22T04:47:25.000Z</time>
      </trkpt>
      <trkpt lat="42.302373" lon="-0.430197">
        <ele>1032.6</ele>
        <time>2018-07-22T04:47:26.000Z</time>
      </trkpt>
      <trkpt lat="42.302372" lon="-0.4302">
        <ele>1032.7</ele>
        <time>2018-07-22T04:47:27.000Z</time>
      </trkpt>
      <trkpt lat="42.30237" lon="-0.430203">
        <ele>1032.8</ele>
        <time>2018-07-22T04:47:28.000Z</time>
      </trkpt>
      <trkpt lat="42.302366" lon="-0.430217">
        <ele>1033.2</ele>
        <time>2018-07-22T04:47:29.000Z</time>
      </trkpt>
      <trkpt lat="42.302364" lon="-0.430226">
        <ele>1033.5</ele>
        <time>2018-07-22T04:47:30.000Z</time>
      </trkpt>
      <trkpt lat="42.302363" lon="-0.430234">
        <ele>1033.7</ele>
        <time>2018-07-22T04:47:31.000Z</time>
      </trkpt>
      <trkpt lat="42.302362" lon="-0.430239">
        <ele>1033.9</ele>
        <time>2018-07-22T04:47:32.000Z</time>
      </trkpt>
      <trkpt lat="42.302361" lon="-0.430243">
        <ele>1034.0</ele>
        <time>2018-07-22T04:47:33.000Z</time>
      </trkpt>
      <trkpt lat="42.302359" lon="-0.430247">
        <ele>1034.1</ele>
        <time>2018-07-22T04:47:34.000Z</time>
      </trkpt>
      <trkpt lat="42.302357" lon="-0.430252">
        <ele>1034.2</ele>
        <time>2018-07-22T04:47:35.000Z</time>
      </trkpt>
      <trkpt lat="42.302354" lon="-0.430257">
        <ele>1034.4</ele>
        <time>2018-07-22T04:47:36.000Z</time>
      </trkpt>
      <trkpt lat="42.302351" lon="-0.430261">
        <ele>1034.5</ele>
        <time>2018-07-22T04:47:37.000Z</time>
      </trkpt>
      <trkpt lat="42.302349" lon="-0.430265">
        <ele>1034.7</ele>
        <time>2018-07-22T04:47:38.000Z</time>
      </trkpt>
      <trkpt lat="42.302348" lon="-0.430269">
        <ele>1034.8</ele>
        <time>2018-07-22T04:47:39.000Z</time>
      </trkpt>
      <trkpt lat="42.302346" lon="-0.430273">
        <ele>1034.9</ele>
        <time>2018-07-22T04:47:40.000Z</time>
      </trkpt>
      <trkpt lat="42.302338" lon="-0.430281">
        <ele>1035.2</ele>
        <time>2018-07-22T04:47:41.000Z</time>
      </trkpt>
      <trkpt lat="42.302331" lon="-0.430286">
        <ele>1035.4</ele>
        <time>2018-07-22T04:47:42.000Z</time>
      </trkpt>
      <trkpt lat="42.302325" lon="-0.43029">
        <ele>1035.6</ele>
        <time>2018-07-22T04:47:43.000Z</time>
      </trkpt>
      <trkpt lat="42.30232" lon="-0.430293">
        <ele>1035.7</ele>
        <time>2018-07-22T04:47:44.000Z</time>
      </trkpt>
      <trkpt lat="42.302316" lon="-0.430295">
        <ele>1035.8</ele>
        <time>2018-07-22T04:47:45.000Z</time>
      </trkpt>
      <trkpt lat="42.302314" lon="-0.430297">
        <ele>1035.8</ele>
        <time>2018-07-22T04:47:46.000Z</time>
      </trkpt>
      <trkpt lat="42.302311" lon="-0.430298">
        <ele>1035.9</ele>
        <time>2018-07-22T04:47:47.000Z</time>
      </trkpt>
      <trkpt lat="42.302308" lon="-0.4303">
        <ele>1036.0</ele>
        <time>2018-07-22T04:47:48.000Z</time>
      </trkpt>
      <trkpt lat="42.302306" lon="-0.430302">
        <ele>1036.1</ele>
        <time>2018-07-22T04:47:49.000Z</time>
      </trkpt>
      <trkpt lat="42.302303" lon="-0.430303">
        <ele>1036.1</ele>
        <time>2018-07-22T04:47:50.000Z</time>
      </trkpt>
      <trkpt lat="42.302301" lon="-0.430305">
        <ele>1036.2</ele>
        <time>2018-07-22T04:47:51.000Z</time>
      </trkpt>
      <trkpt lat="42.302297" lon="-0.430309">
        <ele>1036.3</ele>
        <time>2018-07-22T04:47:52.000Z</time>
      </trkpt>
      <trkpt lat="42.302288" lon="-0.430316">
        <ele>1036.6</ele>
        <time>2018-07-22T04:47:53.000Z</time>
      </trkpt>
      <trkpt lat="42.302283" lon="-0.43032">
        <ele>1036.8</ele>
        <time>2018-07-22T04:47:54.000Z</time>
      </trkpt>
      <trkpt lat="42.302278" lon="-0.430328">
        <ele>1037.1</ele>
        <time>2018-07-22T04:47:55.000Z</time>
      </trkpt>
      <trkpt lat="42.302273" lon="-0.430336">
        <ele>1037.4</ele>
        <time>2018-07-22T04:47:56.000Z</time>
      </trkpt>
      <trkpt lat="42.30227" lon="-0.430343">
        <ele>1037.7</ele>
        <time>2018-07-22T04:47:57.000Z</time>
      </trkpt>
      <trkpt lat="42.302267" lon="-0.430348">
        <ele>1037.9</ele>
        <time>2018-07-22T04:47:58.000Z</time>
      </trkpt>
      <trkpt lat="42.302264" lon="-0.430353">
        <ele>1038.0</ele>
        <time>2018-07-22T04:47:59.000Z</time>
      </trkpt>
      <trkpt lat="42.302263" lon="-0.430356">
        <ele>1038.2</ele>
        <time>2018-07-22T04:48:00.000Z</time>
      </trkpt>
      <trkpt lat="42.302261" lon="-0.430359">
        <ele>1038.3</ele>
        <time>2018-07-22T04:48:01.000Z</time>
      </trkpt>
      <trkpt lat="42.30226" lon="-0.430361">
        <ele>1038.3</ele>
        <time>2018-07-22T04:48:02.000Z</time>
      </trkpt>
      <trkpt lat="42.302259" lon="-0.430363">
        <ele>1038.4</ele>
        <time>2018-07-22T04:48:03.000Z</time>
      </trkpt>
      <trkpt lat="42.302259" lon="-0.430364">
        <ele>1038.5</ele>
        <time>2018-07-22T04:48:04.000Z</time>
      </trkpt>
      <trkpt lat="42.302258" lon="-0.430365">
        <ele>1038.5</ele>
        <time>2018-07-22T04:48:05.000Z</time>
      </trkpt>
      <trkpt lat="42.302257" lon="-0.430366">
        <ele>1038.5</ele>
        <time>2018-07-22T04:48:06.000Z</time>
      </trkpt>
      <trkpt lat="42.302256" lon="-0.430367">
        <ele>1038.6</ele>
        <time>2018-07-22T04:48:07.000Z</time>
      </trkpt>
      <trkpt lat="42.302256" lon="-0.430368">
        <ele>1038.6</ele>
        <time>2018-07-22T04:48:08.000Z</time>
      </trkpt>
      <trkpt lat="42.302255" lon="-0.430369">
        <ele>1038.7</ele>
        <time>2018-07-22T04:48:09.000Z</time>
      </trkpt>
      <trkpt lat="42.302255" lon="-0.43037">
        <ele>1038.7</ele>
        <time>2018-07-22T04:48:10.000Z</time>
      </trkpt>
      <trkpt lat="42.302254" lon="-0.430369">
        <ele>1038.7</ele>
        <time>2018-07-22T04:48:11.000Z</time>
      </trkpt>
      <trkpt lat="42.302254" lon="-0.430369">
        <ele>1038.7</ele>
        <time>2018-07-22T04:48:12.000Z</time>
      </trkpt>
      <trkpt lat="42.302254" lon="-0.430369">
        <ele>1038.7</ele>
        <time>2018-07-22T04:48:13.000Z</time>
      </trkpt>
      <trkpt lat="42.302253" lon="-0.43037">
        <ele>1038.7</ele>
        <time>2018-07-22T04:48:14.000Z</time>
      </trkpt>
      <trkpt lat="42.302251" lon="-0.430374">
        <ele>1038.9</ele>
        <time>2018-07-22T04:48:15.000Z</time>
      </trkpt>
      <trkpt lat="42.302247" lon="-0.43038">
        <ele>1039.1</ele>
        <time>2018-07-22T04:48:16.000Z</time>
      </trkpt>
      <trkpt lat="42.302241" lon="-0.430389">
        <ele>1039.5</ele>
        <time>2018-07-22T04:48:17.000Z</time>
      </trkpt>
      <trkpt lat="42.302239" lon="-0.4304">
        <ele>1039.9</ele>
        <time>2018-07-22T04:48:18.000Z</time>
      </trkpt>
      <trkpt lat="42.302235" lon="-0.430407">
        <ele>1040.2</ele>
        <time>2018-07-22T04:48:19.000Z</time>
      </trkpt>
      <trkpt lat="42.302232" lon="-0.430414">
        <ele>1040.4</ele>
        <time>2018-07-22T04:48:20.000Z</time>
      </trkpt>
      <trkpt lat="42.302229" lon="-0.430421">
        <ele>1040.7</ele>
        <time>2018-07-22T04:48:21.000Z</time>
      </trkpt>
      <trkpt lat="42.302227" lon="-0.43043">
        <ele>1041.1</ele>
        <time>2018-07-22T04:48:22.000Z</time>
      </trkpt>
      <trkpt lat="42.302225" lon="-0.430439">
        <ele>1041.4</ele>
        <time>2018-07-22T04:48:23.000Z</time>
      </trkpt>
      <trkpt lat="42.302222" lon="-0.430448">
        <ele>1041.7</ele>
        <time>2018-07-22T04:48:24.000Z</time>
      </trkpt>
      <trkpt lat="42.30222" lon="-0.430457">
        <ele>1042.1</ele>
        <time>2018-07-22T04:48:25.000Z</time>
      </trkpt>
      <trkpt lat="42.302218" lon="-0.430465">
        <ele>1042.4</ele>
        <time>2018-07-22T04:48:26.000Z</time>
      </trkpt>
      <trkpt lat="42.302214" lon="-0.430471">
        <ele>1042.7</ele>
        <time>2018-07-22T04:48:27.000Z</time>
      </trkpt>
      <trkpt lat="42.302211" lon="-0.430475">
        <ele>1042.9</ele>
        <time>2018-07-22T04:48:28.000Z</time>
      </trkpt>
      <trkpt lat="42.302207" lon="-0.430477">
        <ele>1043.0</ele>
        <time>2018-07-22T04:48:29.000Z</time>
      </trkpt>
      <trkpt lat="42.302205" lon="-0.430479">
        <ele>1043.1</ele>
        <time>2018-07-22T04:48:30.000Z</time>
      </trkpt>
      <trkpt lat="42.302203" lon="-0.430481">
        <ele>1043.2</ele>
        <time>2018-07-22T04:48:31.000Z</time>
      </trkpt>
      <trkpt lat="42.302197" lon="-0.430486">
        <ele>1043.5</ele>
        <time>2018-07-22T04:48:32.000Z</time>
      </trkpt>
      <trkpt lat="42.302192" lon="-0.430488">
        <ele>1043.6</ele>
        <time>2018-07-22T04:48:33.000Z</time>
      </trkpt>
      <trkpt lat="42.302188" lon="-0.430489">
        <ele>1043.7</ele>
        <time>2018-07-22T04:48:34.000Z</time>
      </trkpt>
      <trkpt lat="42.302185" lon="-0.43049">
        <ele>1043.8</ele>
        <time>2018-07-22T04:48:35.000Z</time>
      </trkpt>
      <trkpt lat="42.302182" lon="-0.430491">
        <ele>1043.9</ele>
        <time>2018-07-22T04:48:36.000Z</time>
      </trkpt>
      <trkpt lat="42.30218" lon="-0.430492">
        <ele>1044.0</ele>
        <time>2018-07-22T04:48:37.000Z</time>
      </trkpt>
      <trkpt lat="42.302179" lon="-0.430493">
        <ele>1044.0</ele>
        <time>2018-07-22T04:48:38.000Z</time>
      </trkpt>
      <trkpt lat="42.302177" lon="-0.430495">
        <ele>1044.1</ele>
        <time>2018-07-22T04:48:39.000Z</time>
      </trkpt>
      <trkpt lat="42.302175" lon="-0.430496">
        <ele>1044.2</ele>
        <time>2018-07-22T04:48:40.000Z</time>
      </trkpt>
      <trkpt lat="42.302173" lon="-0.430498">
        <ele>1044.3</ele>
        <time>2018-07-22T04:48:41.000Z</time>
      </trkpt>
      <trkpt lat="42.302171" lon="-0.4305">
        <ele>1044.4</ele>
        <time>2018-07-22T04:48:42.000Z</time>
      </trkpt>
      <trkpt lat="42.302169" lon="-0.430502">
        <ele>1044.5</ele>
        <time>2018-07-22T04:48:43.000Z</time>
      </trkpt>
      <trkpt lat="42.302167" lon="-0.430503">
        <ele>1044.6</ele>
        <time>2018-07-22T04:48:44.000Z</time>
      </trkpt>
      <trkpt lat="42.302164" lon="-0.430505">
        <ele>1044.7</ele>
        <time>2018-07-22T04:48:45.000Z</time>
      </trkpt>
      <trkpt lat="42.302158" lon="-0.430507">
        <ele>1044.9</ele>
        <time>2018-07-22T04:48:46.000Z</time>
      </trkpt>
      <trkpt lat="42.302152" lon="-0.430508">
        <ele>1045.0</ele>
        <time>2018-07-22T04:48:47.000Z</time>
      </trkpt>
      <trkpt lat="42.302146" lon="-0.43051">
        <ele>1045.2</ele>
        <time>2018-07-22T04:48:48.000Z</time>
      </trkpt>
      <trkpt lat="42.302141" lon="-0.430511">
        <ele>1045.3</ele>
        <time>2018-07-22T04:48:49.000Z</time>
      </trkpt>
      <trkpt lat="42.302137" lon="-0.430512">
        <ele>1045.4</ele>
        <time>2018-07-22T04:48:50.000Z</time>
      </trkpt>
      <trkpt lat="42.302133" lon="-0.430512">
        <ele>1045.5</ele>
        <time>2018-07-22T04:48:51.000Z</time>
      </trkpt>
      <trkpt lat="42.30213" lon="-0.430513">
        <ele>1045.6</ele>
        <time>2018-07-22T04:48:52.000Z</time>
      </trkpt>
      <trkpt lat="42.302127" lon="-0.430514">
        <ele>1045.7</ele>
        <time>2018-07-22T04:48:53.000Z</time>
      </trkpt>
      <trkpt lat="42.302124" lon="-0.430516">
        <ele>1045.8</ele>
        <time>2018-07-22T04:48:54.000Z</time>
      </trkpt>
      <trkpt lat="42.30212" lon="-0.430518">
        <ele>1046.0</ele>
        <time>2018-07-22T04:48:55.000Z</time>
      </trkpt>
      <trkpt lat="42.302114" lon="-0.430522">
        <ele>1046.2</ele>
        <time>2018-07-22T04:48:56.000Z</time>
      </trkpt>
      <trkpt lat="42.302108" lon="-0.430528">
        <ele>1046.6</ele>
        <time>2018-07-22T04:48:57.000Z</time>
      </trkpt>
      <trkpt lat="42.302103" lon="-0.43053">
        <ele>1046.8</ele>
        <time>2018-07-22T04:48:58.000Z</time>
      </trkpt>
      <trkpt lat="42.302098" lon="-0.430534">
        <ele>1047.0</ele>
        <time>2018-07-22T04:48:59.000Z</time>
      </trkpt>
      <trkpt lat="42.302093" lon="-0.430538">
        <ele>1047.3</ele>
        <time>2018-07-22T04:49:00.000Z</time>
      </trkpt>
      <trkpt lat="42.30209" lon="-0.430541">
        <ele>1047.4</ele>
        <time>2018-07-22T04:49:01.000Z</time>
      </trkpt>
      <trkpt lat="42.302088" lon="-0.430543">
        <ele>1047.6</ele>
        <time>2018-07-22T04:49:02.000Z</time>
      </trkpt>
      <trkpt lat="42.302086" lon="-0.430545">
        <ele>1047.7</ele>
        <time>2018-07-22T04:49:03.000Z</time>
      </trkpt>
      <trkpt lat="42.302083" lon="-0.430548">
        <ele>1047.9</ele>
        <time>2018-07-22T04:49:04.000Z</time>
      </trkpt>
      <trkpt lat="42.30208" lon="-0.430551">
        <ele>1048.0</ele>
        <time>2018-07-22T04:49:05.000Z</time>
      </trkpt>
      <trkpt lat="42.302077" lon="-0.430554">
        <ele>1048.2</ele>
        <time>2018-07-22T04:49:06.000Z</time>
      </trkpt>
      <trkpt lat="42.302074" lon="-0.430558">
        <ele>1048.5</ele>
        <time>2018-07-22T04:49:07.000Z</time>
      </trkpt>
      <trkpt lat="42.302068" lon="-0.430566">
        <ele>1048.9</ele>
        <time>2018-07-22T04:49:08.000Z</time>
      </trkpt>
      <trkpt lat="42.30206" lon="-0.430577">
        <ele>1049.5</ele>
        <time>2018-07-22T04:49:09.000Z</time>
      </trkpt>
      <trkpt lat="42.302056" lon="-0.43058">
        <ele>1049.7</ele>
        <time>2018-07-22T04:49:10.000Z</time>
      </trkpt>
      <trkpt lat="42.30205" lon="-0.430583">
        <ele>1050.0</ele>
        <time>2018-07-22T04:49:11.000Z</time>
      </trkpt>
      <trkpt lat="42.302045" lon="-0.430586">
        <ele>1050.2</ele>
        <time>2018-07-22T04:49:12.000Z</time>
      </trkpt>
      <trkpt lat="42.302041" lon="-0.430588">
        <ele>1050.4</ele>
        <time>2018-07-22T04:49:13.000Z</time>
      </trkpt>
      <trkpt lat="42.302039" lon="-0.43059">
        <ele>1050.5</ele>
        <time>2018-07-22T04:49:14.000Z</time>
      </trkpt>
      <trkpt lat="42.302036" lon="-0.430592">
        <ele>1050.7</ele>
        <time>2018-07-22T04:49:15.000Z</time>
      </trkpt>
      <trkpt lat="42.302034" lon="-0.430593">
        <ele>1050.7</ele>
        <time>2018-07-22T04:49:16.000Z</time>
      </trkpt>
      <trkpt lat="42.302032" lon="-0.430595">
        <ele>1050.9</ele>
        <time>2018-07-22T04:49:17.000Z</time>
      </trkpt>
      <trkpt lat="42.30203" lon="-0.430596">
        <ele>1051.0</ele>
        <time>2018-07-22T04:49:18.000Z</time>
      </trkpt>
      <trkpt lat="42.302028" lon="-0.430597">
        <ele>1051.0</ele>
        <time>2018-07-22T04:49:19.000Z</time>
      </trkpt>
      <trkpt lat="42.302026" lon="-0.430599">
        <ele>1051.2</ele>
        <time>2018-07-22T04:49:20.000Z</time>
      </trkpt>
      <trkpt lat="42.302019" lon="-0.430604">
        <ele>1051.5</ele>
        <time>2018-07-22T04:49:21.000Z</time>
      </trkpt>
      <trkpt lat="42.302017" lon="-0.430612">
        <ele>1051.9</ele>
        <time>2018-07-22T04:49:22.000Z</time>
      </trkpt>
      <trkpt lat="42.302017" lon="-0.430618">
        <ele>1052.2</ele>
        <time>2018-07-22T04:49:23.000Z</time>
      </trkpt>
      <trkpt lat="42.302016" lon="-0.430622">
        <ele>1052.4</ele>
        <time>2018-07-22T04:49:24.000Z</time>
      </trkpt>
      <trkpt lat="42.302016" lon="-0.430625">
        <ele>1052.5</ele>
        <time>2018-07-22T04:49:25.000Z</time>
      </trkpt>
      <trkpt lat="42.302016" lon="-0.430626">
        <ele>1052.6</ele>
        <time>2018-07-22T04:49:26.000Z</time>
      </trkpt>
      <trkpt lat="42.302016" lon="-0.430628">
        <ele>1052.7</ele>
        <time>2018-07-22T04:49:27.000Z</time>
      </trkpt>
      <trkpt lat="42.302015" lon="-0.43063">
        <ele>1052.8</ele>
        <time>2018-07-22T04:49:28.000Z</time>
      </trkpt>
      <trkpt lat="42.302012" lon="-0.430633">
        <ele>1053.0</ele>
        <time>2018-07-22T04:49:29.000Z</time>
      </trkpt>
      <trkpt lat="42.302006" lon="-0.430639">
        <ele>1053.4</ele>
        <time>2018-07-22T04:49:30.000Z</time>
      </trkpt>
      <trkpt lat="42.301999" lon="-0.430642">
        <ele>1053.7</ele>
        <time>2018-07-22T04:49:31.000Z</time>
      </trkpt>
      <trkpt lat="42.301992" lon="-0.430644">
        <ele>1053.9</ele>
        <time>2018-07-22T04:49:32.000Z</time>
      </trkpt>
      <trkpt lat="42.301986" lon="-0.430647">
        <ele>1054.2</ele>
        <time>2018-07-22T04:49:33.000Z</time>
      </trkpt>
      <trkpt lat="42.301981" lon="-0.430651">
        <ele>1054.5</ele>
        <time>2018-07-22T04:49:34.000Z</time>
      </trkpt>
      <trkpt lat="42.301976" lon="-0.430657">
        <ele>1054.9</ele>
        <time>2018-07-22T04:49:35.000Z</time>
      </trkpt>
      <trkpt lat="42.301972" lon="-0.430663">
        <ele>1055.3</ele>
        <time>2018-07-22T04:49:36.000Z</time>
      </trkpt>
      <trkpt lat="42.301968" lon="-0.430669">
        <ele>1055.7</ele>
        <time>2018-07-22T04:49:37.000Z</time>
      </trkpt>
      <trkpt lat="42.301965" lon="-0.430674">
        <ele>1056.0</ele>
        <time>2018-07-22T04:49:38.000Z</time>
      </trkpt>
      <trkpt lat="42.301963" lon="-0.430678">
        <ele>1056.2</ele>
        <time>2018-07-22T04:49:39.000Z</time>
      </trkpt>
      <trkpt lat="42.301961" lon="-0.43068">
        <ele>1056.3</ele>
        <time>2018-07-22T04:49:40.000Z</time>
      </trkpt>
      <trkpt lat="42.30196" lon="-0.430682">
        <ele>1056.5</ele>
        <time>2018-07-22T04:49:41.000Z</time>
      </trkpt>
      <trkpt lat="42.301958" lon="-0.430684">
        <ele>1056.6</ele>
        <time>2018-07-22T04:49:42.000Z</time>
      </trkpt>
      <trkpt lat="42.301957" lon="-0.430684">
        <ele>1056.6</ele>
        <time>2018-07-22T04:49:43.000Z</time>
      </trkpt>
      <trkpt lat="42.301957" lon="-0.430685">
        <ele>1056.7</ele>
        <time>2018-07-22T04:49:44.000Z</time>
      </trkpt>
      <trkpt lat="42.301956" lon="-0.430686">
        <ele>1056.7</ele>
        <time>2018-07-22T04:49:45.000Z</time>
      </trkpt>
      <trkpt lat="42.301955" lon="-0.430686">
        <ele>1056.8</ele>
        <time>2018-07-22T04:49:46.000Z</time>
      </trkpt>
      <trkpt lat="42.301955" lon="-0.430687">
        <ele>1056.8</ele>
        <time>2018-07-22T04:49:47.000Z</time>
      </trkpt>
      <trkpt lat="42.301954" lon="-0.430687">
        <ele>1056.8</ele>
        <time>2018-07-22T04:49:48.000Z</time>
      </trkpt>
      <trkpt lat="42.301954" lon="-0.430687">
        <ele>1056.8</ele>
        <time>2018-07-22T04:49:49.000Z</time>
      </trkpt>
      <trkpt lat="42.301954" lon="-0.430687">
        <ele>1056.8</ele>
        <time>2018-07-22T04:49:50.000Z</time>
      </trkpt>
      <trkpt lat="42.301954" lon="-0.430688">
        <ele>1056.9</ele>
        <time>2018-07-22T04:49:51.000Z</time>
      </trkpt>
      <trkpt lat="42.301953" lon="-0.430688">
        <ele>1056.9</ele>
        <time>2018-07-22T04:49:52.000Z</time>
      </trkpt>
      <trkpt lat="42.301953" lon="-0.430688">
        <ele>1056.9</ele>
        <time>2018-07-22T04:49:53.000Z</time>
      </trkpt>
      <trkpt lat="42.301953" lon="-0.430688">
        <ele>1056.9</ele>
        <time>2018-07-22T04:49:54.000Z</time>
      </trkpt>
      <trkpt lat="42.301953" lon="-0.430688">
        <ele>1056.9</ele>
        <time>2018-07-22T04:49:55.000Z</time>
      </trkpt>
      <trkpt lat="42.301953" lon="-0.430688">
        <ele>1056.9</ele>
        <time>2018-07-22T04:49:56.000Z</time>
      </trkpt>
      <trkpt lat="42.301953" lon="-0.430688">
        <ele>1056.9</ele>
        <time>2018-07-22T04:49:57.000Z</time>
      </trkpt>
      <trkpt lat="42.301953" lon="-0.430688">
        <ele>1056.9</ele>
        <time>2018-07-22T04:49:58.000Z</time>
      </trkpt>
      <trkpt lat="42.301953" lon="-0.430688">
        <ele>1056.9</ele>
        <time>2018-07-22T04:49:59.000Z</time>
      </trkpt>
      <trkpt lat="42.301953" lon="-0.430688">
        <ele>1056.9</ele>
        <time>2018-07-22T04:50:00.000Z</time>
      </trkpt>
      <trkpt lat="42.301953" lon="-0.430688">
        <ele>1056.9</ele>
        <time>2018-07-22T04:50:01.000Z</time>
      </trkpt>
      <trkpt lat="42.301953" lon="-0.430688">
        <ele>1056.9</ele>
        <time>2018-07-22T04:50:02.000Z</time>
      </trkpt>
      <trkpt lat="42.301953" lon="-0.430688">
        <ele>1056.9</ele>
        <time>2018-07-22T04:50:03.000Z</time>
      </trkpt>
      <trkpt lat="42.301953" lon="-0.430688">
        <ele>1056.9</ele>
        <time>2018-07-22T04:50:04.000Z</time>
      </trkpt>
      <trkpt lat="42.301953" lon="-0.430688">
        <ele>1056.9</ele>
        <time>2018-07-22T04:50:05.000Z</time>
      </trkpt>
      <trkpt lat="42.301953" lon="-0.430688">
        <ele>1056.9</ele>
        <time>2018-07-22T04:50:06.000Z</time>
      </trkpt>
      <trkpt lat="42.301953" lon="-0.430688">
        <ele>1056.9</ele>
        <time>2018-07-22T04:50:07.000Z</time>
      </trkpt>
      <trkpt lat="42.301953" lon="-0.430688">
        <ele>1056.9</ele>
        <time>2018-07-22T04:50:08.000Z</time>
      </trkpt>
      <trkpt lat="42.301953" lon="-0.430688">
        <ele>1056.9</ele>
        <time>2018-07-22T04:50:09.000Z</time>
      </trkpt>
      <trkpt lat="42.301953" lon="-0.430688">
        <ele>1056.9</ele>
        <time>2018-07-22T04:50:10.000Z</time>
      </trkpt>
      <trkpt lat="42.301953" lon="-0.430688">
        <ele>1056.9</ele>
        <time>2018-07-22T04:50:11.000Z</time>
      </trkpt>
      <trkpt lat="42.301953" lon="-0.430688">
        <ele>1056.9</ele>
        <time>2018-07-22T04:50:12.000Z</time>
      </trkpt>
      <trkpt lat="42.301953" lon="-0.430688">
        <ele>1056.9</ele>
        <time>2018-07-22T04:50:13.000Z</time>
      </trkpt>
      <trkpt lat="42.301953" lon="-0.430688">
        <ele>1056.9</ele>
        <time>2018-07-22T04:50:14.000Z</time>
      </trkpt>
      <trkpt lat="42.301953" lon="-0.430688">
        <ele>1056.9</ele>
        <time>2018-07-22T04:50:15.000Z</time>
      </trkpt>
      <trkpt lat="42.301953" lon="-0.430688">
        <ele>1056.9</ele>
        <time>2018-07-22T04:50:16.000Z</time>
      </trkpt>
      <trkpt lat="42.301953" lon="-0.430688">
        <ele>1056.9</ele>
        <time>2018-07-22T04:50:17.000Z</time>
      </trkpt>
      <trkpt lat="42.301953" lon="-0.430688">
        <ele>1056.9</ele>
        <time>2018-07-22T04:50:18.000Z</time>
      </trkpt>
      <trkpt lat="42.301953" lon="-0.430688">
        <ele>1056.9</ele>
        <time>2018-07-22T04:50:19.000Z</time>
      </trkpt>
      <trkpt lat="42.301953" lon="-0.430688">
        <ele>1056.9</ele>
        <time>2018-07-22T04:50:20.000Z</time>
      </trkpt>
      <trkpt lat="42.301953" lon="-0.430688">
        <ele>1056.9</ele>
        <time>2018-07-22T04:50:21.000Z</time>
      </trkpt>
      <trkpt lat="42.301953" lon="-0.430688">
        <ele>1056.9</ele>
        <time>2018-07-22T04:50:22.000Z</time>
      </trkpt>
      <trkpt lat="42.301953" lon="-0.430688">
        <ele>1056.9</ele>
        <time>2018-07-22T04:50:23.000Z</time>
      </trkpt>
      <trkpt lat="42.301953" lon="-0.430688">
        <ele>1056.9</ele>
        <time>2018-07-22T04:50:24.000Z</time>
      </trkpt>
      <trkpt lat="42.301953" lon="-0.430688">
        <ele>1056.9</ele>
        <time>2018-07-22T04:50:25.000Z</time>
      </trkpt>
      <trkpt lat="42.301953" lon="-0.430688">
        <ele>1056.9</ele>
        <time>2018-07-22T04:50:26.000Z</time>
      </trkpt>
      <trkpt lat="42.301953" lon="-0.430688">
        <ele>1056.9</ele>
        <time>2018-07-22T04:50:27.000Z</time>
      </trkpt>
      <trkpt lat="42.301953" lon="-0.430688">
        <ele>1056.9</ele>
        <time>2018-07-22T04:50:28.000Z</time>
      </trkpt>
      <trkpt lat="42.301953" lon="-0.430688">
        <ele>1056.9</ele>
        <time>2018-07-22T04:50:29.000Z</time>
      </trkpt>
      <trkpt lat="42.301953" lon="-0.430688">
        <ele>1056.9</ele>
        <time>2018-07-22T04:50:30.000Z</time>
      </trkpt>
      <trkpt lat="42.301953" lon="-0.430688">
        <ele>1056.9</ele>
        <time>2018-07-22T04:50:31.000Z</time>
      </trkpt>
      <trkpt lat="42.301953" lon="-0.430688">
        <ele>1056.9</ele>
        <time>2018-07-22T04:50:32.000Z</time>
      </trkpt>
      <trkpt lat="42.301953" lon="-0.430688">
        <ele>1056.9</ele>
        <time>2018-07-22T04:50:33.000Z</time>
      </trkpt>
      <trkpt lat="42.301953" lon="-0.430688">
        <ele>1056.9</ele>
        <time>2018-07-22T04:50:34.000Z</time>
      </trkpt>
      <trkpt lat="42.301953" lon="-0.430688">
        <ele>1056.9</ele>
        <time>2018-07-22T04:50:35.000Z</time>
      </trkpt>
      <trkpt lat="42.301953" lon="-0.430688">
        <ele>1056.9</ele>
        <time>2018-07-22T04:50:36.000Z</time>
      </trkpt>
      <trkpt lat="42.301953" lon="-0.430688">
        <ele>1056.9</ele>
        <time>2018-07-22T04:50:37.000Z</time>
      </trkpt>
      <trkpt lat="42.301953" lon="-0.430688">
        <ele>1056.9</ele>
        <time>2018-07-22T04:50:38.000Z</time>
      </trkpt>
      <trkpt lat="42.301953" lon="-0.430688">
        <ele>1056.9</ele>
        <time>2018-07-22T04:50:39.000Z</time>
      </trkpt>
      <trkpt lat="42.301953" lon="-0.430688">
        <ele>1056.9</ele>
        <time>2018-07-22T04:50:40.000Z</time>
      </trkpt>
      <trkpt lat="42.301953" lon="-0.430688">
        <ele>1056.9</ele>
        <time>2018-07-22T04:50:41.000Z</time>
      </trkpt>
      <trkpt lat="42.301953" lon="-0.430688">
        <ele>1056.9</ele>
        <time>2018-07-22T04:50:42.000Z</time>
      </trkpt>
      <trkpt lat="42.301953" lon="-0.430688">
        <ele>1056.9</ele>
        <time>2018-07-22T04:50:43.000Z</time>
      </trkpt>
      <trkpt lat="42.301953" lon="-0.430688">
        <ele>1056.9</ele>
        <time>2018-07-22T04:50:44.000Z</time>
      </trkpt>
      <trkpt lat="42.301953" lon="-0.430688">
        <ele>1056.9</ele>
        <time>2018-07-22T04:50:45.000Z</time>
      </trkpt>
      <trkpt lat="42.301953" lon="-0.430688">
        <ele>1056.9</ele>
        <time>2018-07-22T04:50:46.000Z</time>
      </trkpt>
      <trkpt lat="42.301953" lon="-0.430688">
        <ele>1056.9</ele>
        <time>2018-07-22T04:50:47.000Z</time>
      </trkpt>
      <trkpt lat="42.301953" lon="-0.430688">
        <ele>1056.9</ele>
        <time>2018-07-22T04:50:48.000Z</time>
      </trkpt>
      <trkpt lat="42.301953" lon="-0.430688">
        <ele>1056.9</ele>
        <time>2018-07-22T04:50:49.000Z</time>
      </trkpt>
      <trkpt lat="42.301953" lon="-0.430688">
        <ele>1056.9</ele>
        <time>2018-07-22T04:50:50.000Z</time>
      </trkpt>
      <trkpt lat="42.301953" lon="-0.430688">
        <ele>1056.9</ele>
        <time>2018-07-22T04:50:51.000Z</time>
      </trkpt>
      <trkpt lat="42.301953" lon="-0.430688">
        <ele>1056.9</ele>
        <time>2018-07-22T04:50:52.000Z</time>
      </trkpt>
      <trkpt lat="42.301953" lon="-0.430688">
        <ele>1056.9</ele>
        <time>2018-07-22T04:50:53.000Z</time>
      </trkpt>
      <trkpt lat="42.301953" lon="-0.430688">
        <ele>1056.9</ele>
        <time>2018-07-22T04:50:54.000Z</time>
      </trkpt>
      <trkpt lat="42.301953" lon="-0.430688">
        <ele>1056.9</ele>
        <time>2018-07-22T04:50:55.000Z</time>
      </trkpt>
      <trkpt lat="42.301953" lon="-0.430688">
        <ele>1056.9</ele>
        <time>2018-07-22T04:50:56.000Z</time>
      </trkpt>
      <trkpt lat="42.301953" lon="-0.430688">
        <ele>1056.9</ele>
        <time>2018-07-22T04:50:57.000Z</time>
      </trkpt>
      <trkpt lat="42.301953" lon="-0.430688">
        <ele>1056.9</ele>
        <time>2018-07-22T04:50:58.000Z</time>
      </trkpt>
      <trkpt lat="42.301953" lon="-0.430688">
        <ele>1056.9</ele>
        <time>2018-07-22T04:50:59.000Z</time>
      </trkpt>
      <trkpt lat="42.301953" lon="-0.430688">
        <ele>1056.9</ele>
        <time>2018-07-22T04:51:00.000Z</time>
      </trkpt>
      <trkpt lat="42.301953" lon="-0.430688">
        <ele>1056.9</ele>
        <time>2018-07-22T04:51:01.000Z</time>
      </trkpt>
      <trkpt lat="42.301953" lon="-0.430688">
        <ele>1056.9</ele>
        <time>2018-07-22T04:51:02.000Z</time>
      </trkpt>
      <trkpt lat="42.301953" lon="-0.430688">
        <ele>1056.9</ele>
        <time>2018-07-22T04:51:03.000Z</time>
      </trkpt>
      <trkpt lat="42.301953" lon="-0.430688">
        <ele>1056.9</ele>
        <time>2018-07-22T04:51:04.000Z</time>
      </trkpt>
      <trkpt lat="42.301953" lon="-0.430688">
        <ele>1056.9</ele>
        <time>2018-07-22T04:51:05.000Z</time>
      </trkpt>
      <trkpt lat="42.301953" lon="-0.430688">
        <ele>1056.9</ele>
        <time>2018-07-22T04:51:06.000Z</time>
      </trkpt>
      <trkpt lat="42.301953" lon="-0.430688">
        <ele>1056.9</ele>
        <time>2018-07-22T04:51:07.000Z</time>
      </trkpt>
      <trkpt lat="42.301953" lon="-0.430688">
        <ele>1056.9</ele>
        <time>2018-07-22T04:51:08.000Z</time>
      </trkpt>
      <trkpt lat="42.301953" lon="-0.430688">
        <ele>1056.9</ele>
        <time>2018-07-22T04:51:09.000Z</time>
      </trkpt>
      <trkpt lat="42.301953" lon="-0.430688">
        <ele>1056.9</ele>
        <time>2018-07-22T04:51:10.000Z</time>
      </trkpt>
      <trkpt lat="42.301953" lon="-0.430688">
        <ele>1056.9</ele>
        <time>2018-07-22T04:51:11.000Z</time>
      </trkpt>
      <trkpt lat="42.301953" lon="-0.430688">
        <ele>1056.9</ele>
        <time>2018-07-22T04:51:12.000Z</time>
      </trkpt>
      <trkpt lat="42.301953" lon="-0.430688">
        <ele>1056.9</ele>
        <time>2018-07-22T04:51:13.000Z</time>
      </trkpt>
      <trkpt lat="42.301953" lon="-0.430688">
        <ele>1056.9</ele>
        <time>2018-07-22T04:51:14.000Z</time>
      </trkpt>
      <trkpt lat="42.301953" lon="-0.430688">
        <ele>1056.9</ele>
        <time>2018-07-22T04:51:15.000Z</time>
      </trkpt>
      <trkpt lat="42.301952" lon="-0.430688">
        <ele>1056.9</ele>
        <time>2018-07-22T04:51:16.000Z</time>
      </trkpt>
      <trkpt lat="42.301952" lon="-0.430688">
        <ele>1056.9</ele>
        <time>2018-07-22T04:51:17.000Z</time>
      </trkpt>
      <trkpt lat="42.301952" lon="-0.430688">
        <ele>1056.9</ele>
        <time>2018-07-22T04:51:18.000Z</time>
      </trkpt>
      <trkpt lat="42.301952" lon="-0.430688">
        <ele>1056.9</ele>
        <time>2018-07-22T04:51:19.000Z</time>
      </trkpt>
      <trkpt lat="42.301952" lon="-0.430688">
        <ele>1056.9</ele>
        <time>2018-07-22T04:51:20.000Z</time>
      </trkpt>
      <trkpt lat="42.301952" lon="-0.430688">
        <ele>1056.9</ele>
        <time>2018-07-22T04:51:21.000Z</time>
      </trkpt>
      <trkpt lat="42.301952" lon="-0.430688">
        <ele>1056.9</ele>
        <time>2018-07-22T04:51:22.000Z</time>
      </trkpt>
      <trkpt lat="42.301952" lon="-0.430688">
        <ele>1056.9</ele>
        <time>2018-07-22T04:51:23.000Z</time>
      </trkpt>
      <trkpt lat="42.301952" lon="-0.430688">
        <ele>1056.9</ele>
        <time>2018-07-22T04:51:24.000Z</time>
      </trkpt>
      <trkpt lat="42.301952" lon="-0.430688">
        <ele>1056.9</ele>
        <time>2018-07-22T04:51:25.000Z</time>
      </trkpt>
      <trkpt lat="42.301952" lon="-0.430688">
        <ele>1056.9</ele>
        <time>2018-07-22T04:51:26.000Z</time>
      </trkpt>
      <trkpt lat="42.301952" lon="-0.430688">
        <ele>1056.9</ele>
        <time>2018-07-22T04:51:27.000Z</time>
      </trkpt>
      <trkpt lat="42.301952" lon="-0.430688">
        <ele>1056.9</ele>
        <time>2018-07-22T04:51:28.000Z</time>
      </trkpt>
      <trkpt lat="42.301952" lon="-0.430688">
        <ele>1056.9</ele>
        <time>2018-07-22T04:51:29.000Z</time>
      </trkpt>
      <trkpt lat="42.301952" lon="-0.430688">
        <ele>1056.9</ele>
        <time>2018-07-22T04:51:30.000Z</time>
      </trkpt>
      <trkpt lat="42.301952" lon="-0.430688">
        <ele>1056.9</ele>
        <time>2018-07-22T04:51:31.000Z</time>
      </trkpt>
      <trkpt lat="42.301952" lon="-0.430688">
        <ele>1056.9</ele>
        <time>2018-07-22T04:51:32.000Z</time>
      </trkpt>
      <trkpt lat="42.301952" lon="-0.430688">
        <ele>1056.9</ele>
        <time>2018-07-22T04:51:33.000Z</time>
      </trkpt>
      <trkpt lat="42.301952" lon="-0.430688">
        <ele>1056.9</ele>
        <time>2018-07-22T04:51:34.000Z</time>
      </trkpt>
      <trkpt lat="42.301952" lon="-0.430688">
        <ele>1056.9</ele>
        <time>2018-07-22T04:51:35.000Z</time>
      </trkpt>
      <trkpt lat="42.301952" lon="-0.430688">
        <ele>1056.9</ele>
        <time>2018-07-22T04:51:36.000Z</time>
      </trkpt>
      <trkpt lat="42.301952" lon="-0.430688">
        <ele>1056.9</ele>
        <time>2018-07-22T04:51:37.000Z</time>
      </trkpt>
      <trkpt lat="42.301952" lon="-0.430688">
        <ele>1056.9</ele>
        <time>2018-07-22T04:51:38.000Z</time>
      </trkpt>
      <trkpt lat="42.301952" lon="-0.430688">
        <ele>1056.9</ele>
        <time>2018-07-22T04:51:39.000Z</time>
      </trkpt>
      <trkpt lat="42.301952" lon="-0.430688">
        <ele>1056.9</ele>
        <time>2018-07-22T04:51:40.000Z</time>
      </trkpt>
      <trkpt lat="42.301952" lon="-0.430688">
        <ele>1056.9</ele>
        <time>2018-07-22T04:51:41.000Z</time>
      </trkpt>
      <trkpt lat="42.301952" lon="-0.430688">
        <ele>1056.9</ele>
        <time>2018-07-22T04:51:42.000Z</time>
      </trkpt>
      <trkpt lat="42.301952" lon="-0.430688">
        <ele>1056.9</ele>
        <time>2018-07-22T04:51:43.000Z</time>
      </trkpt>
      <trkpt lat="42.301952" lon="-0.430688">
        <ele>1056.9</ele>
        <time>2018-07-22T04:51:44.000Z</time>
      </trkpt>
      <trkpt lat="42.301952" lon="-0.430688">
        <ele>1056.9</ele>
        <time>2018-07-22T04:51:45.000Z</time>
      </trkpt>
      <trkpt lat="42.301951" lon="-0.430688">
        <ele>1057.0</ele>
        <time>2018-07-22T04:51:46.000Z</time>
      </trkpt>
      <trkpt lat="42.301951" lon="-0.430689">
        <ele>1057.0</ele>
        <time>2018-07-22T04:51:47.000Z</time>
      </trkpt>
      <trkpt lat="42.301949" lon="-0.43069">
        <ele>1057.1</ele>
        <time>2018-07-22T04:51:48.000Z</time>
      </trkpt>
      <trkpt lat="42.301948" lon="-0.430691">
        <ele>1057.2</ele>
        <time>2018-07-22T04:51:49.000Z</time>
      </trkpt>
      <trkpt lat="42.301946" lon="-0.430693">
        <ele>1057.3</ele>
        <time>2018-07-22T04:51:50.000Z</time>
      </trkpt>
      <trkpt lat="42.301944" lon="-0.430695">
        <ele>1057.5</ele>
        <time>2018-07-22T04:51:51.000Z</time>
      </trkpt>
      <trkpt lat="42.301942" lon="-0.430697">
        <ele>1057.6</ele>
        <time>2018-07-22T04:51:52.000Z</time>
      </trkpt>
      <trkpt lat="42.301941" lon="-0.430699">
        <ele>1057.7</ele>
        <time>2018-07-22T04:51:53.000Z</time>
      </trkpt>
      <trkpt lat="42.301937" lon="-0.430702">
        <ele>1058.0</ele>
        <time>2018-07-22T04:51:54.000Z</time>
      </trkpt>
      <trkpt lat="42.301927" lon="-0.430704">
        <ele>1058.4</ele>
        <time>2018-07-22T04:51:55.000Z</time>
      </trkpt>
      <trkpt lat="42.30192" lon="-0.430708">
        <ele>1058.7</ele>
        <time>2018-07-22T04:51:56.000Z</time>
      </trkpt>
      <trkpt lat="42.301919" lon="-0.430708">
        <ele>1058.8</ele>
        <time>2018-07-22T04:51:57.000Z</time>
      </trkpt>
      <trkpt lat="42.301912" lon="-0.430713">
        <ele>1059.2</ele>
        <time>2018-07-22T04:51:58.000Z</time>
      </trkpt>
      <trkpt lat="42.301905" lon="-0.430717">
        <ele>1059.6</ele>
        <time>2018-07-22T04:51:59.000Z</time>
      </trkpt>
      <trkpt lat="42.301901" lon="-0.430721">
        <ele>1059.9</ele>
        <time>2018-07-22T04:52:00.000Z</time>
      </trkpt>
      <trkpt lat="42.301897" lon="-0.430723">
        <ele>1060.1</ele>
        <time>2018-07-22T04:52:01.000Z</time>
      </trkpt>
      <trkpt lat="42.301894" lon="-0.430725">
        <ele>1060.3</ele>
        <time>2018-07-22T04:52:02.000Z</time>
      </trkpt>
      <trkpt lat="42.301892" lon="-0.430727">
        <ele>1060.4</ele>
        <time>2018-07-22T04:52:03.000Z</time>
      </trkpt>
      <trkpt lat="42.30189" lon="-0.430729">
        <ele>1060.6</ele>
        <time>2018-07-22T04:52:04.000Z</time>
      </trkpt>
      <trkpt lat="42.301888" lon="-0.43073">
        <ele>1060.7</ele>
        <time>2018-07-22T04:52:05.000Z</time>
      </trkpt>
      <trkpt lat="42.301887" lon="-0.430731">
        <ele>1060.8</ele>
        <time>2018-07-22T04:52:06.000Z</time>
      </trkpt>
      <trkpt lat="42.301884" lon="-0.430733">
        <ele>1060.9</ele>
        <time>2018-07-22T04:52:07.000Z</time>
      </trkpt>
      <trkpt lat="42.30188" lon="-0.430736">
        <ele>1061.2</ele>
        <time>2018-07-22T04:52:08.000Z</time>
      </trkpt>
      <trkpt lat="42.301871" lon="-0.43074">
        <ele>1061.7</ele>
        <time>2018-07-22T04:52:09.000Z</time>
      </trkpt>
      <trkpt lat="42.301864" lon="-0.430742">
        <ele>1062.0</ele>
        <time>2018-07-22T04:52:10.000Z</time>
      </trkpt>
      <trkpt lat="42.301858" lon="-0.430742">
        <ele>1062.1</ele>
        <time>2018-07-22T04:52:11.000Z</time>
      </trkpt>
      <trkpt lat="42.301853" lon="-0.430742">
        <ele>1062.3</ele>
        <time>2018-07-22T04:52:12.000Z</time>
      </trkpt>
      <trkpt lat="42.30185" lon="-0.430742">
        <ele>1062.4</ele>
        <time>2018-07-22T04:52:13.000Z</time>
      </trkpt>
      <trkpt lat="42.301847" lon="-0.430742">
        <ele>1062.4</ele>
        <time>2018-07-22T04:52:14.000Z</time>
      </trkpt>
      <trkpt lat="42.301844" lon="-0.430742">
        <ele>1062.5</ele>
        <time>2018-07-22T04:52:15.000Z</time>
      </trkpt>
      <trkpt lat="42.301843" lon="-0.430742">
        <ele>1062.5</ele>
        <time>2018-07-22T04:52:16.000Z</time>
      </trkpt>
      <trkpt lat="42.301841" lon="-0.430742">
        <ele>1062.6</ele>
        <time>2018-07-22T04:52:17.000Z</time>
      </trkpt>
      <trkpt lat="42.30184" lon="-0.430743">
        <ele>1062.7</ele>
        <time>2018-07-22T04:52:18.000Z</time>
      </trkpt>
      <trkpt lat="42.301839" lon="-0.430743">
        <ele>1062.7</ele>
        <time>2018-07-22T04:52:19.000Z</time>
      </trkpt>
      <trkpt lat="42.301839" lon="-0.430743">
        <ele>1062.7</ele>
        <time>2018-07-22T04:52:20.000Z</time>
      </trkpt>
      <trkpt lat="42.301839" lon="-0.430743">
        <ele>1062.7</ele>
        <time>2018-07-22T04:52:21.000Z</time>
      </trkpt>
      <trkpt lat="42.301839" lon="-0.430743">
        <ele>1062.7</ele>
        <time>2018-07-22T04:52:22.000Z</time>
      </trkpt>
      <trkpt lat="42.301839" lon="-0.430743">
        <ele>1062.7</ele>
        <time>2018-07-22T04:52:23.000Z</time>
      </trkpt>
      <trkpt lat="42.301839" lon="-0.430743">
        <ele>1062.7</ele>
        <time>2018-07-22T04:52:24.000Z</time>
      </trkpt>
      <trkpt lat="42.301839" lon="-0.430743">
        <ele>1062.7</ele>
        <time>2018-07-22T04:52:25.000Z</time>
      </trkpt>
      <trkpt lat="42.301838" lon="-0.430743">
        <ele>1062.7</ele>
        <time>2018-07-22T04:52:26.000Z</time>
      </trkpt>
      <trkpt lat="42.301838" lon="-0.430743">
        <ele>1062.7</ele>
        <time>2018-07-22T04:52:27.000Z</time>
      </trkpt>
      <trkpt lat="42.301837" lon="-0.430743">
        <ele>1062.8</ele>
        <time>2018-07-22T04:52:28.000Z</time>
      </trkpt>
      <trkpt lat="42.301836" lon="-0.430744">
        <ele>1062.9</ele>
        <time>2018-07-22T04:52:29.000Z</time>
      </trkpt>
      <trkpt lat="42.301834" lon="-0.430745">
        <ele>1063.0</ele>
        <time>2018-07-22T04:52:30.000Z</time>
      </trkpt>
      <trkpt lat="42.301831" lon="-0.430746">
        <ele>1063.1</ele>
        <time>2018-07-22T04:52:31.000Z</time>
      </trkpt>
      <trkpt lat="42.301828" lon="-0.430747">
        <ele>1063.2</ele>
        <time>2018-07-22T04:52:32.000Z</time>
      </trkpt>
      <trkpt lat="42.301823" lon="-0.430751">
        <ele>1063.6</ele>
        <time>2018-07-22T04:52:33.000Z</time>
      </trkpt>
      <trkpt lat="42.301818" lon="-0.430758">
        <ele>1064.1</ele>
        <time>2018-07-22T04:52:34.000Z</time>
      </trkpt>
      <trkpt lat="42.301812" lon="-0.43077">
        <ele>1064.9</ele>
        <time>2018-07-22T04:52:35.000Z</time>
      </trkpt>
      <trkpt lat="42.301807" lon="-0.430782">
        <ele>1065.7</ele>
        <time>2018-07-22T04:52:36.000Z</time>
      </trkpt>
      <trkpt lat="42.301803" lon="-0.430791">
        <ele>1066.3</ele>
        <time>2018-07-22T04:52:37.000Z</time>
      </trkpt>
      <trkpt lat="42.3018" lon="-0.430798">
        <ele>1066.8</ele>
        <time>2018-07-22T04:52:38.000Z</time>
      </trkpt>
      <trkpt lat="42.301798" lon="-0.430803">
        <ele>1067.1</ele>
        <time>2018-07-22T04:52:39.000Z</time>
      </trkpt>
      <trkpt lat="42.301797" lon="-0.430807">
        <ele>1067.4</ele>
        <time>2018-07-22T04:52:40.000Z</time>
      </trkpt>
      <trkpt lat="42.301796" lon="-0.43081">
        <ele>1067.5</ele>
        <time>2018-07-22T04:52:41.000Z</time>
      </trkpt>
      <trkpt lat="42.301795" lon="-0.430813">
        <ele>1067.7</ele>
        <time>2018-07-22T04:52:42.000Z</time>
      </trkpt>
      <trkpt lat="42.301793" lon="-0.430817">
        <ele>1068.0</ele>
        <time>2018-07-22T04:52:43.000Z</time>
      </trkpt>
      <trkpt lat="42.30179" lon="-0.430822">
        <ele>1068.4</ele>
        <time>2018-07-22T04:52:44.000Z</time>
      </trkpt>
      <trkpt lat="42.301788" lon="-0.430826">
        <ele>1068.7</ele>
        <time>2018-07-22T04:52:45.000Z</time>
      </trkpt>
      <trkpt lat="42.301783" lon="-0.430831">
        <ele>1069.1</ele>
        <time>2018-07-22T04:52:46.000Z</time>
      </trkpt>
      <trkpt lat="42.301778" lon="-0.430838">
        <ele>1069.4</ele>
        <time>2018-07-22T04:52:47.000Z</time>
      </trkpt>
      <trkpt lat="42.301773" lon="-0.430845">
        <ele>1069.7</ele>
        <time>2018-07-22T04:52:48.000Z</time>
      </trkpt>
      <trkpt lat="42.301769" lon="-0.43085">
        <ele>1069.9</ele>
        <time>2018-07-22T04:52:49.000Z</time>
      </trkpt>
      <trkpt lat="42.301766" lon="-0.430853">
        <ele>1070.0</ele>
        <time>2018-07-22T04:52:50.000Z</time>
      </trkpt>
      <trkpt lat="42.301763" lon="-0.430856">
        <ele>1070.1</ele>
        <time>2018-07-22T04:52:51.000Z</time>
      </trkpt>
      <trkpt lat="42.301761" lon="-0.430858">
        <ele>1070.2</ele>
        <time>2018-07-22T04:52:52.000Z</time>
      </trkpt>
      <trkpt lat="42.30176" lon="-0.43086">
        <ele>1070.2</ele>
        <time>2018-07-22T04:52:53.000Z</time>
      </trkpt>
      <trkpt lat="42.301759" lon="-0.430861">
        <ele>1070.3</ele>
        <time>2018-07-22T04:52:54.000Z</time>
      </trkpt>
      <trkpt lat="42.301758" lon="-0.430862">
        <ele>1070.3</ele>
        <time>2018-07-22T04:52:55.000Z</time>
      </trkpt>
      <trkpt lat="42.301757" lon="-0.430863">
        <ele>1070.4</ele>
        <time>2018-07-22T04:52:56.000Z</time>
      </trkpt>
      <trkpt lat="42.301755" lon="-0.430865">
        <ele>1070.5</ele>
        <time>2018-07-22T04:52:57.000Z</time>
      </trkpt>
      <trkpt lat="42.301753" lon="-0.430867">
        <ele>1070.6</ele>
        <time>2018-07-22T04:52:58.000Z</time>
      </trkpt>
      <trkpt lat="42.301747" lon="-0.430871">
        <ele>1070.8</ele>
        <time>2018-07-22T04:52:59.000Z</time>
      </trkpt>
      <trkpt lat="42.301738" lon="-0.430876">
        <ele>1071.1</ele>
        <time>2018-07-22T04:53:00.000Z</time>
      </trkpt>
      <trkpt lat="42.301732" lon="-0.43088">
        <ele>1071.4</ele>
        <time>2018-07-22T04:53:01.000Z</time>
      </trkpt>
      <trkpt lat="42.301728" lon="-0.430883">
        <ele>1071.6</ele>
        <time>2018-07-22T04:53:02.000Z</time>
      </trkpt>
      <trkpt lat="42.301725" lon="-0.430886">
        <ele>1071.7</ele>
        <time>2018-07-22T04:53:03.000Z</time>
      </trkpt>
      <trkpt lat="42.301723" lon="-0.430888">
        <ele>1071.8</ele>
        <time>2018-07-22T04:53:04.000Z</time>
      </trkpt>
      <trkpt lat="42.30172" lon="-0.43089">
        <ele>1071.9</ele>
        <time>2018-07-22T04:53:05.000Z</time>
      </trkpt>
      <trkpt lat="42.301718" lon="-0.430891">
        <ele>1072.0</ele>
        <time>2018-07-22T04:53:06.000Z</time>
      </trkpt>
      <trkpt lat="42.301716" lon="-0.430893">
        <ele>1072.1</ele>
        <time>2018-07-22T04:53:07.000Z</time>
      </trkpt>
      <trkpt lat="42.301714" lon="-0.430894">
        <ele>1072.1</ele>
        <time>2018-07-22T04:53:08.000Z</time>
      </trkpt>
      <trkpt lat="42.301712" lon="-0.430895">
        <ele>1072.2</ele>
        <time>2018-07-22T04:53:09.000Z</time>
      </trkpt>
      <trkpt lat="42.30171" lon="-0.430897">
        <ele>1072.3</ele>
        <time>2018-07-22T04:53:10.000Z</time>
      </trkpt>
      <trkpt lat="42.301709" lon="-0.430898">
        <ele>1072.4</ele>
        <time>2018-07-22T04:53:11.000Z</time>
      </trkpt>
      <trkpt lat="42.301708" lon="-0.430899">
        <ele>1072.4</ele>
        <time>2018-07-22T04:53:12.000Z</time>
      </trkpt>
      <trkpt lat="42.301707" lon="-0.430899">
        <ele>1072.4</ele>
        <time>2018-07-22T04:53:13.000Z</time>
      </trkpt>
      <trkpt lat="42.301706" lon="-0.430901">
        <ele>1072.5</ele>
        <time>2018-07-22T04:53:14.000Z</time>
      </trkpt>
      <trkpt lat="42.301701" lon="-0.430905">
        <ele>1072.7</ele>
        <time>2018-07-22T04:53:15.000Z</time>
      </trkpt>
      <trkpt lat="42.301694" lon="-0.430909">
        <ele>1073.0</ele>
        <time>2018-07-22T04:53:16.000Z</time>
      </trkpt>
      <trkpt lat="42.301687" lon="-0.43091">
        <ele>1073.2</ele>
        <time>2018-07-22T04:53:17.000Z</time>
      </trkpt>
      <trkpt lat="42.301681" lon="-0.430911">
        <ele>1073.4</ele>
        <time>2018-07-22T04:53:18.000Z</time>
      </trkpt>
      <trkpt lat="42.301678" lon="-0.430913">
        <ele>1073.6</ele>
        <time>2018-07-22T04:53:19.000Z</time>
      </trkpt>
      <trkpt lat="42.301678" lon="-0.430913">
        <ele>1073.6</ele>
        <time>2018-07-22T04:53:20.000Z</time>
      </trkpt>
      <trkpt lat="42.301678" lon="-0.430913">
        <ele>1073.6</ele>
        <time>2018-07-22T04:53:21.000Z</time>
      </trkpt>
      <trkpt lat="42.301678" lon="-0.430913">
        <ele>1073.6</ele>
        <time>2018-07-22T04:53:22.000Z</time>
      </trkpt>
      <trkpt lat="42.301678" lon="-0.430914">
        <ele>1073.6</ele>
        <time>2018-07-22T04:53:23.000Z</time>
      </trkpt>
      <trkpt lat="42.301677" lon="-0.430914">
        <ele>1073.6</ele>
        <time>2018-07-22T04:53:24.000Z</time>
      </trkpt>
      <trkpt lat="42.301677" lon="-0.430914">
        <ele>1073.6</ele>
        <time>2018-07-22T04:53:25.000Z</time>
      </trkpt>
      <trkpt lat="42.301676" lon="-0.430915">
        <ele>1073.7</ele>
        <time>2018-07-22T04:53:26.000Z</time>
      </trkpt>
      <trkpt lat="42.301675" lon="-0.430915">
        <ele>1073.7</ele>
        <time>2018-07-22T04:53:27.000Z</time>
      </trkpt>
      <trkpt lat="42.301674" lon="-0.430916">
        <ele>1073.7</ele>
        <time>2018-07-22T04:53:28.000Z</time>
      </trkpt>
      <trkpt lat="42.301673" lon="-0.430917">
        <ele>1073.8</ele>
        <time>2018-07-22T04:53:29.000Z</time>
      </trkpt>
      <trkpt lat="42.301671" lon="-0.430917">
        <ele>1073.9</ele>
        <time>2018-07-22T04:53:30.000Z</time>
      </trkpt>
      <trkpt lat="42.301668" lon="-0.430918">
        <ele>1074.0</ele>
        <time>2018-07-22T04:53:31.000Z</time>
      </trkpt>
      <trkpt lat="42.301666" lon="-0.430918">
        <ele>1074.0</ele>
        <time>2018-07-22T04:53:32.000Z</time>
      </trkpt>
      <trkpt lat="42.301663" lon="-0.430919">
        <ele>1074.1</ele>
        <time>2018-07-22T04:53:33.000Z</time>
      </trkpt>
      <trkpt lat="42.30166" lon="-0.430921">
        <ele>1074.2</ele>
        <time>2018-07-22T04:53:34.000Z</time>
      </trkpt>
      <trkpt lat="42.301658" lon="-0.430924">
        <ele>1074.2</ele>
        <time>2018-07-22T04:53:35.000Z</time>
      </trkpt>
      <trkpt lat="42.301655" lon="-0.430925">
        <ele>1074.3</ele>
        <time>2018-07-22T04:53:36.000Z</time>
      </trkpt>
      <trkpt lat="42.301652" lon="-0.43093">
        <ele>1074.4</ele>
        <time>2018-07-22T04:53:37.000Z</time>
      </trkpt>
      <trkpt lat="42.301648" lon="-0.430933">
        <ele>1074.5</ele>
        <time>2018-07-22T04:53:38.000Z</time>
      </trkpt>
      <trkpt lat="42.301644" lon="-0.430936">
        <ele>1074.7</ele>
        <time>2018-07-22T04:53:39.000Z</time>
      </trkpt>
      <trkpt lat="42.30164" lon="-0.430939">
        <ele>1074.8</ele>
        <time>2018-07-22T04:53:40.000Z</time>
      </trkpt>
      <trkpt lat="42.301638" lon="-0.430941">
        <ele>1074.8</ele>
        <time>2018-07-22T04:53:41.000Z</time>
      </trkpt>
      <trkpt lat="42.301637" lon="-0.430943">
        <ele>1074.9</ele>
        <time>2018-07-22T04:53:42.000Z</time>
      </trkpt>
      <trkpt lat="42.301635" lon="-0.430945">
        <ele>1074.9</ele>
        <time>2018-07-22T04:53:43.000Z</time>
      </trkpt>
      <trkpt lat="42.301633" lon="-0.430947">
        <ele>1075.0</ele>
        <time>2018-07-22T04:53:44.000Z</time>
      </trkpt>
      <trkpt lat="42.30163" lon="-0.430949">
        <ele>1075.1</ele>
        <time>2018-07-22T04:53:45.000Z</time>
      </trkpt>
      <trkpt lat="42.301628" lon="-0.430952">
        <ele>1075.2</ele>
        <time>2018-07-22T04:53:46.000Z</time>
      </trkpt>
      <trkpt lat="42.301626" lon="-0.430954">
        <ele>1075.2</ele>
        <time>2018-07-22T04:53:47.000Z</time>
      </trkpt>
      <trkpt lat="42.301624" lon="-0.430955">
        <ele>1075.3</ele>
        <time>2018-07-22T04:53:48.000Z</time>
      </trkpt>
      <trkpt lat="42.301623" lon="-0.430956">
        <ele>1075.3</ele>
        <time>2018-07-22T04:53:49.000Z</time>
      </trkpt>
      <trkpt lat="42.301623" lon="-0.430957">
        <ele>1075.3</ele>
        <time>2018-07-22T04:53:50.000Z</time>
      </trkpt>
      <trkpt lat="42.301622" lon="-0.430958">
        <ele>1075.4</ele>
        <time>2018-07-22T04:53:51.000Z</time>
      </trkpt>
      <trkpt lat="42.301622" lon="-0.430958">
        <ele>1075.4</ele>
        <time>2018-07-22T04:53:52.000Z</time>
      </trkpt>
      <trkpt lat="42.301621" lon="-0.430958">
        <ele>1075.4</ele>
        <time>2018-07-22T04:53:53.000Z</time>
      </trkpt>
      <trkpt lat="42.301621" lon="-0.430959">
        <ele>1075.4</ele>
        <time>2018-07-22T04:53:54.000Z</time>
      </trkpt>
      <trkpt lat="42.301621" lon="-0.430959">
        <ele>1075.4</ele>
        <time>2018-07-22T04:53:55.000Z</time>
      </trkpt>
      <trkpt lat="42.301621" lon="-0.430959">
        <ele>1075.4</ele>
        <time>2018-07-22T04:53:56.000Z</time>
      </trkpt>
      <trkpt lat="42.30162" lon="-0.430959">
        <ele>1075.4</ele>
        <time>2018-07-22T04:53:57.000Z</time>
      </trkpt>
      <trkpt lat="42.30162" lon="-0.43096">
        <ele>1075.4</ele>
        <time>2018-07-22T04:53:58.000Z</time>
      </trkpt>
      <trkpt lat="42.30162" lon="-0.43096">
        <ele>1075.4</ele>
        <time>2018-07-22T04:53:59.000Z</time>
      </trkpt>
      <trkpt lat="42.30162" lon="-0.43096">
        <ele>1075.4</ele>
        <time>2018-07-22T04:54:00.000Z</time>
      </trkpt>
      <trkpt lat="42.30162" lon="-0.43096">
        <ele>1075.4</ele>
        <time>2018-07-22T04:54:01.000Z</time>
      </trkpt>
      <trkpt lat="42.30162" lon="-0.43096">
        <ele>1075.4</ele>
        <time>2018-07-22T04:54:02.000Z</time>
      </trkpt>
      <trkpt lat="42.30162" lon="-0.43096">
        <ele>1075.4</ele>
        <time>2018-07-22T04:54:03.000Z</time>
      </trkpt>
      <trkpt lat="42.30162" lon="-0.43096">
        <ele>1075.4</ele>
        <time>2018-07-22T04:54:04.000Z</time>
      </trkpt>
      <trkpt lat="42.30162" lon="-0.43096">
        <ele>1075.4</ele>
        <time>2018-07-22T04:54:05.000Z</time>
      </trkpt>
      <trkpt lat="42.30162" lon="-0.43096">
        <ele>1075.4</ele>
        <time>2018-07-22T04:54:06.000Z</time>
      </trkpt>
      <trkpt lat="42.30162" lon="-0.43096">
        <ele>1075.4</ele>
        <time>2018-07-22T04:54:07.000Z</time>
      </trkpt>
      <trkpt lat="42.30162" lon="-0.43096">
        <ele>1075.4</ele>
        <time>2018-07-22T04:54:08.000Z</time>
      </trkpt>
      <trkpt lat="42.30162" lon="-0.43096">
        <ele>1075.4</ele>
        <time>2018-07-22T04:54:09.000Z</time>
      </trkpt>
      <trkpt lat="42.30162" lon="-0.43096">
        <ele>1075.4</ele>
        <time>2018-07-22T04:54:10.000Z</time>
      </trkpt>
      <trkpt lat="42.30162" lon="-0.43096">
        <ele>1075.4</ele>
        <time>2018-07-22T04:54:11.000Z</time>
      </trkpt>
      <trkpt lat="42.30162" lon="-0.43096">
        <ele>1075.4</ele>
        <time>2018-07-22T04:54:12.000Z</time>
      </trkpt>
      <trkpt lat="42.30162" lon="-0.43096">
        <ele>1075.4</ele>
        <time>2018-07-22T04:54:13.000Z</time>
      </trkpt>
      <trkpt lat="42.30162" lon="-0.43096">
        <ele>1075.4</ele>
        <time>2018-07-22T04:54:14.000Z</time>
      </trkpt>
      <trkpt lat="42.30162" lon="-0.43096">
        <ele>1075.4</ele>
        <time>2018-07-22T04:54:15.000Z</time>
      </trkpt>
      <trkpt lat="42.30162" lon="-0.43096">
        <ele>1075.4</ele>
        <time>2018-07-22T04:54:16.000Z</time>
      </trkpt>
      <trkpt lat="42.30162" lon="-0.43096">
        <ele>1075.4</ele>
        <time>2018-07-22T04:54:17.000Z</time>
      </trkpt>
      <trkpt lat="42.30162" lon="-0.43096">
        <ele>1075.4</ele>
        <time>2018-07-22T04:54:18.000Z</time>
      </trkpt>
      <trkpt lat="42.30162" lon="-0.43096">
        <ele>1075.4</ele>
        <time>2018-07-22T04:54:19.000Z</time>
      </trkpt>
      <trkpt lat="42.30162" lon="-0.43096">
        <ele>1075.4</ele>
        <time>2018-07-22T04:54:20.000Z</time>
      </trkpt>
      <trkpt lat="42.30162" lon="-0.43096">
        <ele>1075.4</ele>
        <time>2018-07-22T04:54:21.000Z</time>
      </trkpt>
      <trkpt lat="42.30162" lon="-0.43096">
        <ele>1075.4</ele>
        <time>2018-07-22T04:54:22.000Z</time>
      </trkpt>
      <trkpt lat="42.301619" lon="-0.430961">
        <ele>1075.5</ele>
        <time>2018-07-22T04:54:23.000Z</time>
      </trkpt>
      <trkpt lat="42.301619" lon="-0.430961">
        <ele>1075.5</ele>
        <time>2018-07-22T04:54:24.000Z</time>
      </trkpt>
      <trkpt lat="42.301619" lon="-0.430961">
        <ele>1075.5</ele>
        <time>2018-07-22T04:54:25.000Z</time>
      </trkpt>
      <trkpt lat="42.301619" lon="-0.430961">
        <ele>1075.5</ele>
        <time>2018-07-22T04:54:26.000Z</time>
      </trkpt>
      <trkpt lat="42.301617" lon="-0.430961">
        <ele>1075.5</ele>
        <time>2018-07-22T04:54:27.000Z</time>
      </trkpt>
      <trkpt lat="42.301612" lon="-0.430961">
        <ele>1075.6</ele>
        <time>2018-07-22T04:54:28.000Z</time>
      </trkpt>
      <trkpt lat="42.3016" lon="-0.430964">
        <ele>1075.9</ele>
        <time>2018-07-22T04:54:29.000Z</time>
      </trkpt>
      <trkpt lat="42.301587" lon="-0.430969">
        <ele>1076.2</ele>
        <time>2018-07-22T04:54:30.000Z</time>
      </trkpt>
      <trkpt lat="42.301579" lon="-0.430973">
        <ele>1076.4</ele>
        <time>2018-07-22T04:54:31.000Z</time>
      </trkpt>
      <trkpt lat="42.301573" lon="-0.430976">
        <ele>1076.6</ele>
        <time>2018-07-22T04:54:32.000Z</time>
      </trkpt>
      <trkpt lat="42.30157" lon="-0.430979">
        <ele>1076.7</ele>
        <time>2018-07-22T04:54:33.000Z</time>
      </trkpt>
      <trkpt lat="42.301567" lon="-0.430981">
        <ele>1076.8</ele>
        <time>2018-07-22T04:54:34.000Z</time>
      </trkpt>
      <trkpt lat="42.301565" lon="-0.430983">
        <ele>1076.8</ele>
        <time>2018-07-22T04:54:35.000Z</time>
      </trkpt>
      <trkpt lat="42.301563" lon="-0.430985">
        <ele>1076.9</ele>
        <time>2018-07-22T04:54:36.000Z</time>
      </trkpt>
      <trkpt lat="42.30156" lon="-0.430987">
        <ele>1077.0</ele>
        <time>2018-07-22T04:54:37.000Z</time>
      </trkpt>
      <trkpt lat="42.301558" lon="-0.430988">
        <ele>1077.1</ele>
        <time>2018-07-22T04:54:38.000Z</time>
      </trkpt>
      <trkpt lat="42.301556" lon="-0.43099">
        <ele>1077.1</ele>
        <time>2018-07-22T04:54:39.000Z</time>
      </trkpt>
      <trkpt lat="42.301554" lon="-0.430991">
        <ele>1077.2</ele>
        <time>2018-07-22T04:54:40.000Z</time>
      </trkpt>
      <trkpt lat="42.301551" lon="-0.430993">
        <ele>1077.3</ele>
        <time>2018-07-22T04:54:41.000Z</time>
      </trkpt>
      <trkpt lat="42.301545" lon="-0.430996">
        <ele>1077.4</ele>
        <time>2018-07-22T04:54:42.000Z</time>
      </trkpt>
      <trkpt lat="42.301538" lon="-0.430999">
        <ele>1077.6</ele>
        <time>2018-07-22T04:54:43.000Z</time>
      </trkpt>
      <trkpt lat="42.301532" lon="-0.431001">
        <ele>1077.8</ele>
        <time>2018-07-22T04:54:44.000Z</time>
      </trkpt>
      <trkpt lat="42.301526" lon="-0.431001">
        <ele>1077.9</ele>
        <time>2018-07-22T04:54:45.000Z</time>
      </trkpt>
      <trkpt lat="42.301523" lon="-0.431002">
        <ele>1078.0</ele>
        <time>2018-07-22T04:54:46.000Z</time>
      </trkpt>
      <trkpt lat="42.301521" lon="-0.431002">
        <ele>1078.0</ele>
        <time>2018-07-22T04:54:47.000Z</time>
      </trkpt>
      <trkpt lat="42.301519" lon="-0.431002">
        <ele>1078.1</ele>
        <time>2018-07-22T04:54:48.000Z</time>
      </trkpt>
      <trkpt lat="42.301518" lon="-0.431003">
        <ele>1078.1</ele>
        <time>2018-07-22T04:54:49.000Z</time>
      </trkpt>
      <trkpt lat="42.301517" lon="-0.431003">
        <ele>1078.1</ele>
        <time>2018-07-22T04:54:50.000Z</time>
      </trkpt>
      <trkpt lat="42.301515" lon="-0.431004">
        <ele>1078.2</ele>
        <time>2018-07-22T04:54:51.000Z</time>
      </trkpt>
      <trkpt lat="42.301514" lon="-0.431004">
        <ele>1078.2</ele>
        <time>2018-07-22T04:54:52.000Z</time>
      </trkpt>
      <trkpt lat="42.301512" lon="-0.431005">
        <ele>1078.3</ele>
        <time>2018-07-22T04:54:53.000Z</time>
      </trkpt>
      <trkpt lat="42.301511" lon="-0.431005">
        <ele>1078.3</ele>
        <time>2018-07-22T04:54:54.000Z</time>
      </trkpt>
      <trkpt lat="42.301509" lon="-0.431006">
        <ele>1078.4</ele>
        <time>2018-07-22T04:54:55.000Z</time>
      </trkpt>
      <trkpt lat="42.301507" lon="-0.431006">
        <ele>1078.4</ele>
        <time>2018-07-22T04:54:56.000Z</time>
      </trkpt>
      <trkpt lat="42.301505" lon="-0.431007">
        <ele>1078.5</ele>
        <time>2018-07-22T04:54:57.000Z</time>
      </trkpt>
      <trkpt lat="42.301503" lon="-0.431007">
        <ele>1078.5</ele>
        <time>2018-07-22T04:54:58.000Z</time>
      </trkpt>
      <trkpt lat="42.301501" lon="-0.431007">
        <ele>1078.5</ele>
        <time>2018-07-22T04:54:59.000Z</time>
      </trkpt>
      <trkpt lat="42.3015" lon="-0.431008">
        <ele>1078.6</ele>
        <time>2018-07-22T04:55:00.000Z</time>
      </trkpt>
      <trkpt lat="42.301498" lon="-0.431008">
        <ele>1078.6</ele>
        <time>2018-07-22T04:55:01.000Z</time>
      </trkpt>
      <trkpt lat="42.301496" lon="-0.43101">
        <ele>1078.7</ele>
        <time>2018-07-22T04:55:02.000Z</time>
      </trkpt>
      <trkpt lat="42.301487" lon="-0.43102">
        <ele>1079.1</ele>
        <time>2018-07-22T04:55:03.000Z</time>
      </trkpt>
      <trkpt lat="42.301478" lon="-0.431028">
        <ele>1079.4</ele>
        <time>2018-07-22T04:55:04.000Z</time>
      </trkpt>
      <trkpt lat="42.301473" lon="-0.431033">
        <ele>1079.6</ele>
        <time>2018-07-22T04:55:05.000Z</time>
      </trkpt>
      <trkpt lat="42.301469" lon="-0.431036">
        <ele>1079.7</ele>
        <time>2018-07-22T04:55:06.000Z</time>
      </trkpt>
      <trkpt lat="42.301468" lon="-0.431038">
        <ele>1079.8</ele>
        <time>2018-07-22T04:55:07.000Z</time>
      </trkpt>
      <trkpt lat="42.301467" lon="-0.431038">
        <ele>1079.8</ele>
        <time>2018-07-22T04:55:08.000Z</time>
      </trkpt>
      <trkpt lat="42.301467" lon="-0.431038">
        <ele>1079.8</ele>
        <time>2018-07-22T04:55:09.000Z</time>
      </trkpt>
      <trkpt lat="42.301467" lon="-0.431038">
        <ele>1079.8</ele>
        <time>2018-07-22T04:55:10.000Z</time>
      </trkpt>
      <trkpt lat="42.301467" lon="-0.431039">
        <ele>1079.8</ele>
        <time>2018-07-22T04:55:11.000Z</time>
      </trkpt>
      <trkpt lat="42.301466" lon="-0.431039">
        <ele>1079.8</ele>
        <time>2018-07-22T04:55:12.000Z</time>
      </trkpt>
      <trkpt lat="42.301466" lon="-0.43104">
        <ele>1079.9</ele>
        <time>2018-07-22T04:55:13.000Z</time>
      </trkpt>
      <trkpt lat="42.301466" lon="-0.43104">
        <ele>1079.9</ele>
        <time>2018-07-22T04:55:14.000Z</time>
      </trkpt>
      <trkpt lat="42.301466" lon="-0.431041">
        <ele>1079.9</ele>
        <time>2018-07-22T04:55:15.000Z</time>
      </trkpt>
      <trkpt lat="42.301465" lon="-0.431041">
        <ele>1079.9</ele>
        <time>2018-07-22T04:55:16.000Z</time>
      </trkpt>
      <trkpt lat="42.301464" lon="-0.431042">
        <ele>1079.9</ele>
        <time>2018-07-22T04:55:17.000Z</time>
      </trkpt>
      <trkpt lat="42.301463" lon="-0.431044">
        <ele>1080.0</ele>
        <time>2018-07-22T04:55:18.000Z</time>
      </trkpt>
      <trkpt lat="42.301461" lon="-0.431046">
        <ele>1080.1</ele>
        <time>2018-07-22T04:55:19.000Z</time>
      </trkpt>
      <trkpt lat="42.301458" lon="-0.431049">
        <ele>1080.2</ele>
        <time>2018-07-22T04:55:20.000Z</time>
      </trkpt>
      <trkpt lat="42.301455" lon="-0.431054">
        <ele>1080.4</ele>
        <time>2018-07-22T04:55:21.000Z</time>
      </trkpt>
      <trkpt lat="42.301452" lon="-0.431061">
        <ele>1080.6</ele>
        <time>2018-07-22T04:55:22.000Z</time>
      </trkpt>
      <trkpt lat="42.301451" lon="-0.43107">
        <ele>1080.7</ele>
        <time>2018-07-22T04:55:23.000Z</time>
      </trkpt>
      <trkpt lat="42.301447" lon="-0.431082">
        <ele>1081.1</ele>
        <time>2018-07-22T04:55:24.000Z</time>
      </trkpt>
      <trkpt lat="42.301444" lon="-0.431095">
        <ele>1081.4</ele>
        <time>2018-07-22T04:55:25.000Z</time>
      </trkpt>
      <trkpt lat="42.301442" lon="-0.431104">
        <ele>1081.6</ele>
        <time>2018-07-22T04:55:26.000Z</time>
      </trkpt>
      <trkpt lat="42.30144" lon="-0.431108">
        <ele>1081.7</ele>
        <time>2018-07-22T04:55:27.000Z</time>
      </trkpt>
      <trkpt lat="42.301439" lon="-0.43111">
        <ele>1081.8</ele>
        <time>2018-07-22T04:55:28.000Z</time>
      </trkpt>
      <trkpt lat="42.301437" lon="-0.431112">
        <ele>1081.9</ele>
        <time>2018-07-22T04:55:29.000Z</time>
      </trkpt>
      <trkpt lat="42.301435" lon="-0.431115">
        <ele>1082.0</ele>
        <time>2018-07-22T04:55:30.000Z</time>
      </trkpt>
      <trkpt lat="42.301433" lon="-0.431117">
        <ele>1082.1</ele>
        <time>2018-07-22T04:55:31.000Z</time>
      </trkpt>
      <trkpt lat="42.301432" lon="-0.43112">
        <ele>1082.1</ele>
        <time>2018-07-22T04:55:32.000Z</time>
      </trkpt>
      <trkpt lat="42.30143" lon="-0.431123">
        <ele>1082.2</ele>
        <time>2018-07-22T04:55:33.000Z</time>
      </trkpt>
      <trkpt lat="42.301428" lon="-0.431128">
        <ele>1082.4</ele>
        <time>2018-07-22T04:55:34.000Z</time>
      </trkpt>
      <trkpt lat="42.301426" lon="-0.431137">
        <ele>1082.6</ele>
        <time>2018-07-22T04:55:35.000Z</time>
      </trkpt>
      <trkpt lat="42.301421" lon="-0.43115">
        <ele>1083.0</ele>
        <time>2018-07-22T04:55:36.000Z</time>
      </trkpt>
      <trkpt lat="42.301417" lon="-0.431159">
        <ele>1083.3</ele>
        <time>2018-07-22T04:55:37.000Z</time>
      </trkpt>
      <trkpt lat="42.301414" lon="-0.431166">
        <ele>1083.5</ele>
        <time>2018-07-22T04:55:38.000Z</time>
      </trkpt>
      <trkpt lat="42.301412" lon="-0.431171">
        <ele>1083.6</ele>
        <time>2018-07-22T04:55:39.000Z</time>
      </trkpt>
      <trkpt lat="42.301411" lon="-0.431173">
        <ele>1083.7</ele>
        <time>2018-07-22T04:55:40.000Z</time>
      </trkpt>
      <trkpt lat="42.301411" lon="-0.431174">
        <ele>1083.7</ele>
        <time>2018-07-22T04:55:41.000Z</time>
      </trkpt>
      <trkpt lat="42.301411" lon="-0.431174">
        <ele>1083.7</ele>
        <time>2018-07-22T04:55:42.000Z</time>
      </trkpt>
      <trkpt lat="42.301411" lon="-0.431174">
        <ele>1083.7</ele>
        <time>2018-07-22T04:55:43.000Z</time>
      </trkpt>
      <trkpt lat="42.301411" lon="-0.431174">
        <ele>1083.7</ele>
        <time>2018-07-22T04:55:44.000Z</time>
      </trkpt>
      <trkpt lat="42.301411" lon="-0.431174">
        <ele>1083.7</ele>
        <time>2018-07-22T04:55:45.000Z</time>
      </trkpt>
      <trkpt lat="42.30141" lon="-0.431174">
        <ele>1083.7</ele>
        <time>2018-07-22T04:55:46.000Z</time>
      </trkpt>
      <trkpt lat="42.30141" lon="-0.431174">
        <ele>1083.7</ele>
        <time>2018-07-22T04:55:47.000Z</time>
      </trkpt>
      <trkpt lat="42.30141" lon="-0.431174">
        <ele>1083.7</ele>
        <time>2018-07-22T04:55:48.000Z</time>
      </trkpt>
      <trkpt lat="42.30141" lon="-0.431174">
        <ele>1083.7</ele>
        <time>2018-07-22T04:55:49.000Z</time>
      </trkpt>
      <trkpt lat="42.30141" lon="-0.431174">
        <ele>1083.7</ele>
        <time>2018-07-22T04:55:50.000Z</time>
      </trkpt>
      <trkpt lat="42.30141" lon="-0.431174">
        <ele>1083.7</ele>
        <time>2018-07-22T04:55:51.000Z</time>
      </trkpt>
      <trkpt lat="42.30141" lon="-0.431174">
        <ele>1083.7</ele>
        <time>2018-07-22T04:55:52.000Z</time>
      </trkpt>
      <trkpt lat="42.30141" lon="-0.431174">
        <ele>1083.7</ele>
        <time>2018-07-22T04:55:53.000Z</time>
      </trkpt>
      <trkpt lat="42.30141" lon="-0.431174">
        <ele>1083.7</ele>
        <time>2018-07-22T04:55:54.000Z</time>
      </trkpt>
      <trkpt lat="42.30141" lon="-0.431174">
        <ele>1083.7</ele>
        <time>2018-07-22T04:55:55.000Z</time>
      </trkpt>
      <trkpt lat="42.30141" lon="-0.431174">
        <ele>1083.7</ele>
        <time>2018-07-22T04:55:56.000Z</time>
      </trkpt>
      <trkpt lat="42.301409" lon="-0.431174">
        <ele>1083.8</ele>
        <time>2018-07-22T04:55:57.000Z</time>
      </trkpt>
      <trkpt lat="42.301409" lon="-0.431175">
        <ele>1083.8</ele>
        <time>2018-07-22T04:55:58.000Z</time>
      </trkpt>
      <trkpt lat="42.301407" lon="-0.431175">
        <ele>1083.8</ele>
        <time>2018-07-22T04:55:59.000Z</time>
      </trkpt>
      <trkpt lat="42.301406" lon="-0.431175">
        <ele>1083.9</ele>
        <time>2018-07-22T04:56:00.000Z</time>
      </trkpt>
      <trkpt lat="42.301404" lon="-0.431175">
        <ele>1083.9</ele>
        <time>2018-07-22T04:56:01.000Z</time>
      </trkpt>
      <trkpt lat="42.301401" lon="-0.431176">
        <ele>1084.0</ele>
        <time>2018-07-22T04:56:02.000Z</time>
      </trkpt>
      <trkpt lat="42.301398" lon="-0.431176">
        <ele>1084.1</ele>
        <time>2018-07-22T04:56:03.000Z</time>
      </trkpt>
      <trkpt lat="42.301395" lon="-0.431177">
        <ele>1084.2</ele>
        <time>2018-07-22T04:56:04.000Z</time>
      </trkpt>
      <trkpt lat="42.301392" lon="-0.431178">
        <ele>1084.3</ele>
        <time>2018-07-22T04:56:05.000Z</time>
      </trkpt>
      <trkpt lat="42.30139" lon="-0.43118">
        <ele>1084.4</ele>
        <time>2018-07-22T04:56:06.000Z</time>
      </trkpt>
      <trkpt lat="42.301389" lon="-0.431183">
        <ele>1084.5</ele>
        <time>2018-07-22T04:56:07.000Z</time>
      </trkpt>
      <trkpt lat="42.301387" lon="-0.431185">
        <ele>1084.6</ele>
        <time>2018-07-22T04:56:08.000Z</time>
      </trkpt>
      <trkpt lat="42.301385" lon="-0.431187">
        <ele>1084.7</ele>
        <time>2018-07-22T04:56:09.000Z</time>
      </trkpt>
      <trkpt lat="42.301382" lon="-0.431191">
        <ele>1084.8</ele>
        <time>2018-07-22T04:56:10.000Z</time>
      </trkpt>
      <trkpt lat="42.301379" lon="-0.431194">
        <ele>1085.0</ele>
        <time>2018-07-22T04:56:11.000Z</time>
      </trkpt>
      <trkpt lat="42.301375" lon="-0.431197">
        <ele>1085.1</ele>
        <time>2018-07-22T04:56:12.000Z</time>
      </trkpt>
      <trkpt lat="42.301371" lon="-0.431199">
        <ele>1085.3</ele>
        <time>2018-07-22T04:56:13.000Z</time>
      </trkpt>
      <trkpt lat="42.301369" lon="-0.431201">
        <ele>1085.4</ele>
        <time>2018-07-22T04:56:14.000Z</time>
      </trkpt>
      <trkpt lat="42.301366" lon="-0.431202">
        <ele>1085.5</ele>
        <time>2018-07-22T04:56:15.000Z</time>
      </trkpt>
      <trkpt lat="42.301365" lon="-0.431204">
        <ele>1085.5</ele>
        <time>2018-07-22T04:56:16.000Z</time>
      </trkpt>
      <trkpt lat="42.301363" lon="-0.431205">
        <ele>1085.6</ele>
        <time>2018-07-22T04:56:17.000Z</time>
      </trkpt>
      <trkpt lat="42.301361" lon="-0.431206">
        <ele>1085.7</ele>
        <time>2018-07-22T04:56:18.000Z</time>
      </trkpt>
      <trkpt lat="42.301359" lon="-0.431207">
        <ele>1085.8</ele>
        <time>2018-07-22T04:56:19.000Z</time>
      </trkpt>
      <trkpt lat="42.301357" lon="-0.431208">
        <ele>1085.8</ele>
        <time>2018-07-22T04:56:20.000Z</time>
      </trkpt>
      <trkpt lat="42.301354" lon="-0.43121">
        <ele>1086.0</ele>
        <time>2018-07-22T04:56:21.000Z</time>
      </trkpt>
      <trkpt lat="42.30135" lon="-0.431211">
        <ele>1086.1</ele>
        <time>2018-07-22T04:56:22.000Z</time>
      </trkpt>
      <trkpt lat="42.301346" lon="-0.431213">
        <ele>1086.2</ele>
        <time>2018-07-22T04:56:23.000Z</time>
      </trkpt>
      <trkpt lat="42.30134" lon="-0.431215">
        <ele>1086.4</ele>
        <time>2018-07-22T04:56:24.000Z</time>
      </trkpt>
      <trkpt lat="42.301334" lon="-0.43122">
        <ele>1086.7</ele>
        <time>2018-07-22T04:56:25.000Z</time>
      </trkpt>
      <trkpt lat="42.30133" lon="-0.431229">
        <ele>1087.0</ele>
        <time>2018-07-22T04:56:26.000Z</time>
      </trkpt>
      <trkpt lat="42.301327" lon="-0.431238">
        <ele>1087.3</ele>
        <time>2018-07-22T04:56:27.000Z</time>
      </trkpt>
      <trkpt lat="42.301323" lon="-0.431246">
        <ele>1087.6</ele>
        <time>2018-07-22T04:56:28.000Z</time>
      </trkpt>
      <trkpt lat="42.301319" lon="-0.431254">
        <ele>1087.9</ele>
        <time>2018-07-22T04:56:29.000Z</time>
      </trkpt>
      <trkpt lat="42.301315" lon="-0.431261">
        <ele>1088.2</ele>
        <time>2018-07-22T04:56:30.000Z</time>
      </trkpt>
      <trkpt lat="42.30131" lon="-0.431265">
        <ele>1088.4</ele>
        <time>2018-07-22T04:56:31.000Z</time>
      </trkpt>
      <trkpt lat="42.301305" lon="-0.431268">
        <ele>1088.6</ele>
        <time>2018-07-22T04:56:32.000Z</time>
      </trkpt>
      <trkpt lat="42.301301" lon="-0.43127">
        <ele>1088.8</ele>
        <time>2018-07-22T04:56:33.000Z</time>
      </trkpt>
      <trkpt lat="42.301296" lon="-0.431271">
        <ele>1088.9</ele>
        <time>2018-07-22T04:56:34.000Z</time>
      </trkpt>
      <trkpt lat="42.301293" lon="-0.431272">
        <ele>1089.0</ele>
        <time>2018-07-22T04:56:35.000Z</time>
      </trkpt>
      <trkpt lat="42.30129" lon="-0.431273">
        <ele>1089.2</ele>
        <time>2018-07-22T04:56:36.000Z</time>
      </trkpt>
      <trkpt lat="42.301287" lon="-0.431275">
        <ele>1089.3</ele>
        <time>2018-07-22T04:56:37.000Z</time>
      </trkpt>
      <trkpt lat="42.301283" lon="-0.431276">
        <ele>1089.4</ele>
        <time>2018-07-22T04:56:38.000Z</time>
      </trkpt>
      <trkpt lat="42.301277" lon="-0.431277">
        <ele>1089.6</ele>
        <time>2018-07-22T04:56:39.000Z</time>
      </trkpt>
      <trkpt lat="42.30127" lon="-0.431279">
        <ele>1089.9</ele>
        <time>2018-07-22T04:56:40.000Z</time>
      </trkpt>
      <trkpt lat="42.301265" lon="-0.43128">
        <ele>1090.1</ele>
        <time>2018-07-22T04:56:41.000Z</time>
      </trkpt>
      <trkpt lat="42.301261" lon="-0.43128">
        <ele>1090.2</ele>
        <time>2018-07-22T04:56:42.000Z</time>
      </trkpt>
      <trkpt lat="42.301258" lon="-0.43128">
        <ele>1090.3</ele>
        <time>2018-07-22T04:56:43.000Z</time>
      </trkpt>
      <trkpt lat="42.301256" lon="-0.431279">
        <ele>1090.3</ele>
        <time>2018-07-22T04:56:44.000Z</time>
      </trkpt>
      <trkpt lat="42.301254" lon="-0.431279">
        <ele>1090.3</ele>
        <time>2018-07-22T04:56:45.000Z</time>
      </trkpt>
      <trkpt lat="42.301252" lon="-0.431279">
        <ele>1090.4</ele>
        <time>2018-07-22T04:56:46.000Z</time>
      </trkpt>
      <trkpt lat="42.301249" lon="-0.43128">
        <ele>1090.5</ele>
        <time>2018-07-22T04:56:47.000Z</time>
      </trkpt>
      <trkpt lat="42.301246" lon="-0.431282">
        <ele>1090.7</ele>
        <time>2018-07-22T04:56:48.000Z</time>
      </trkpt>
      <trkpt lat="42.301241" lon="-0.431285">
        <ele>1090.9</ele>
        <time>2018-07-22T04:56:49.000Z</time>
      </trkpt>
      <trkpt lat="42.301236" lon="-0.431293">
        <ele>1091.2</ele>
        <time>2018-07-22T04:56:50.000Z</time>
      </trkpt>
      <trkpt lat="42.301232" lon="-0.431304">
        <ele>1091.6</ele>
        <time>2018-07-22T04:56:51.000Z</time>
      </trkpt>
      <trkpt lat="42.301229" lon="-0.431314">
        <ele>1092.0</ele>
        <time>2018-07-22T04:56:52.000Z</time>
      </trkpt>
      <trkpt lat="42.301226" lon="-0.431321">
        <ele>1092.2</ele>
        <time>2018-07-22T04:56:53.000Z</time>
      </trkpt>
      <trkpt lat="42.301223" lon="-0.431328">
        <ele>1092.5</ele>
        <time>2018-07-22T04:56:54.000Z</time>
      </trkpt>
      <trkpt lat="42.301218" lon="-0.431336">
        <ele>1092.9</ele>
        <time>2018-07-22T04:56:55.000Z</time>
      </trkpt>
      <trkpt lat="42.301213" lon="-0.431344">
        <ele>1093.2</ele>
        <time>2018-07-22T04:56:56.000Z</time>
      </trkpt>
      <trkpt lat="42.301209" lon="-0.431351">
        <ele>1093.5</ele>
        <time>2018-07-22T04:56:57.000Z</time>
      </trkpt>
      <trkpt lat="42.301204" lon="-0.431358">
        <ele>1093.9</ele>
        <time>2018-07-22T04:56:58.000Z</time>
      </trkpt>
      <trkpt lat="42.301201" lon="-0.431363">
        <ele>1094.1</ele>
        <time>2018-07-22T04:56:59.000Z</time>
      </trkpt>
      <trkpt lat="42.301197" lon="-0.431368">
        <ele>1094.3</ele>
        <time>2018-07-22T04:57:00.000Z</time>
      </trkpt>
      <trkpt lat="42.301194" lon="-0.431371">
        <ele>1094.5</ele>
        <time>2018-07-22T04:57:01.000Z</time>
      </trkpt>
      <trkpt lat="42.301192" lon="-0.431374">
        <ele>1094.7</ele>
        <time>2018-07-22T04:57:02.000Z</time>
      </trkpt>
      <trkpt lat="42.30119" lon="-0.431377">
        <ele>1094.8</ele>
        <time>2018-07-22T04:57:03.000Z</time>
      </trkpt>
      <trkpt lat="42.301188" lon="-0.43138">
        <ele>1094.9</ele>
        <time>2018-07-22T04:57:04.000Z</time>
      </trkpt>
      <trkpt lat="42.301187" lon="-0.431384">
        <ele>1095.1</ele>
        <time>2018-07-22T04:57:05.000Z</time>
      </trkpt>
      <trkpt lat="42.301183" lon="-0.43139">
        <ele>1095.4</ele>
        <time>2018-07-22T04:57:06.000Z</time>
      </trkpt>
      <trkpt lat="42.301176" lon="-0.431395">
        <ele>1095.7</ele>
        <time>2018-07-22T04:57:07.000Z</time>
      </trkpt>
      <trkpt lat="42.30117" lon="-0.431395">
        <ele>1095.9</ele>
        <time>2018-07-22T04:57:08.000Z</time>
      </trkpt>
      <trkpt lat="42.301165" lon="-0.431394">
        <ele>1096.1</ele>
        <time>2018-07-22T04:57:09.000Z</time>
      </trkpt>
      <trkpt lat="42.30116" lon="-0.431395">
        <ele>1096.2</ele>
        <time>2018-07-22T04:57:10.000Z</time>
      </trkpt>
      <trkpt lat="42.301156" lon="-0.431396">
        <ele>1096.4</ele>
        <time>2018-07-22T04:57:11.000Z</time>
      </trkpt>
      <trkpt lat="42.301154" lon="-0.431396">
        <ele>1096.5</ele>
        <time>2018-07-22T04:57:12.000Z</time>
      </trkpt>
      <trkpt lat="42.301152" lon="-0.431397">
        <ele>1096.6</ele>
        <time>2018-07-22T04:57:13.000Z</time>
      </trkpt>
      <trkpt lat="42.301149" lon="-0.431398">
        <ele>1096.7</ele>
        <time>2018-07-22T04:57:14.000Z</time>
      </trkpt>
      <trkpt lat="42.301146" lon="-0.431401">
        <ele>1096.9</ele>
        <time>2018-07-22T04:57:15.000Z</time>
      </trkpt>
      <trkpt lat="42.301144" lon="-0.431405">
        <ele>1097.0</ele>
        <time>2018-07-22T04:57:16.000Z</time>
      </trkpt>
      <trkpt lat="42.301141" lon="-0.431409">
        <ele>1097.3</ele>
        <time>2018-07-22T04:57:17.000Z</time>
      </trkpt>
      <trkpt lat="42.301138" lon="-0.431415">
        <ele>1097.5</ele>
        <time>2018-07-22T04:57:18.000Z</time>
      </trkpt>
      <trkpt lat="42.301133" lon="-0.431423">
        <ele>1097.9</ele>
        <time>2018-07-22T04:57:19.000Z</time>
      </trkpt>
      <trkpt lat="42.30113" lon="-0.431428">
        <ele>1098.2</ele>
        <time>2018-07-22T04:57:20.000Z</time>
      </trkpt>
      <trkpt lat="42.301128" lon="-0.431431">
        <ele>1098.3</ele>
        <time>2018-07-22T04:57:21.000Z</time>
      </trkpt>
      <trkpt lat="42.301127" lon="-0.431433">
        <ele>1098.4</ele>
        <time>2018-07-22T04:57:22.000Z</time>
      </trkpt>
      <trkpt lat="42.301127" lon="-0.431434">
        <ele>1098.4</ele>
        <time>2018-07-22T04:57:23.000Z</time>
      </trkpt>
      <trkpt lat="42.301127" lon="-0.431435">
        <ele>1098.5</ele>
        <time>2018-07-22T04:57:24.000Z</time>
      </trkpt>
      <trkpt lat="42.301127" lon="-0.431436">
        <ele>1098.5</ele>
        <time>2018-07-22T04:57:25.000Z</time>
      </trkpt>
      <trkpt lat="42.301126" lon="-0.431437">
        <ele>1098.5</ele>
        <time>2018-07-22T04:57:26.000Z</time>
      </trkpt>
      <trkpt lat="42.301125" lon="-0.431437">
        <ele>1098.6</ele>
        <time>2018-07-22T04:57:27.000Z</time>
      </trkpt>
      <trkpt lat="42.301125" lon="-0.431438">
        <ele>1098.6</ele>
        <time>2018-07-22T04:57:28.000Z</time>
      </trkpt>
      <trkpt lat="42.301124" lon="-0.431439">
        <ele>1098.7</ele>
        <time>2018-07-22T04:57:29.000Z</time>
      </trkpt>
      <trkpt lat="42.301124" lon="-0.431439">
        <ele>1098.7</ele>
        <time>2018-07-22T04:57:30.000Z</time>
      </trkpt>
      <trkpt lat="42.301123" lon="-0.43144">
        <ele>1098.7</ele>
        <time>2018-07-22T04:57:31.000Z</time>
      </trkpt>
      <trkpt lat="42.301123" lon="-0.43144">
        <ele>1098.7</ele>
        <time>2018-07-22T04:57:32.000Z</time>
      </trkpt>
      <trkpt lat="42.301123" lon="-0.431441">
        <ele>1098.8</ele>
        <time>2018-07-22T04:57:33.000Z</time>
      </trkpt>
      <trkpt lat="42.301123" lon="-0.431441">
        <ele>1098.8</ele>
        <time>2018-07-22T04:57:34.000Z</time>
      </trkpt>
      <trkpt lat="42.301123" lon="-0.431441">
        <ele>1098.8</ele>
        <time>2018-07-22T04:57:35.000Z</time>
      </trkpt>
      <trkpt lat="42.301123" lon="-0.431441">
        <ele>1098.8</ele>
        <time>2018-07-22T04:57:36.000Z</time>
      </trkpt>
      <trkpt lat="42.301123" lon="-0.431441">
        <ele>1098.8</ele>
        <time>2018-07-22T04:57:37.000Z</time>
      </trkpt>
      <trkpt lat="42.301123" lon="-0.431441">
        <ele>1098.8</ele>
        <time>2018-07-22T04:57:38.000Z</time>
      </trkpt>
      <trkpt lat="42.301123" lon="-0.431441">
        <ele>1098.8</ele>
        <time>2018-07-22T04:57:39.000Z</time>
      </trkpt>
      <trkpt lat="42.301123" lon="-0.431441">
        <ele>1098.8</ele>
        <time>2018-07-22T04:57:40.000Z</time>
      </trkpt>
      <trkpt lat="42.301123" lon="-0.431441">
        <ele>1098.8</ele>
        <time>2018-07-22T04:57:41.000Z</time>
      </trkpt>
      <trkpt lat="42.301123" lon="-0.431441">
        <ele>1098.8</ele>
        <time>2018-07-22T04:57:42.000Z</time>
      </trkpt>
      <trkpt lat="42.301123" lon="-0.431441">
        <ele>1098.8</ele>
        <time>2018-07-22T04:57:43.000Z</time>
      </trkpt>
      <trkpt lat="42.301123" lon="-0.431441">
        <ele>1098.8</ele>
        <time>2018-07-22T04:57:44.000Z</time>
      </trkpt>
      <trkpt lat="42.301123" lon="-0.431441">
        <ele>1098.8</ele>
        <time>2018-07-22T04:57:45.000Z</time>
      </trkpt>
      <trkpt lat="42.301123" lon="-0.431441">
        <ele>1098.8</ele>
        <time>2018-07-22T04:57:46.000Z</time>
      </trkpt>
      <trkpt lat="42.301123" lon="-0.431442">
        <ele>1098.8</ele>
        <time>2018-07-22T04:57:47.000Z</time>
      </trkpt>
      <trkpt lat="42.301122" lon="-0.431442">
        <ele>1098.8</ele>
        <time>2018-07-22T04:57:48.000Z</time>
      </trkpt>
      <trkpt lat="42.301121" lon="-0.431442">
        <ele>1098.9</ele>
        <time>2018-07-22T04:57:49.000Z</time>
      </trkpt>
      <trkpt lat="42.301118" lon="-0.431443">
        <ele>1099.0</ele>
        <time>2018-07-22T04:57:50.000Z</time>
      </trkpt>
      <trkpt lat="42.301115" lon="-0.431444">
        <ele>1099.1</ele>
        <time>2018-07-22T04:57:51.000Z</time>
      </trkpt>
      <trkpt lat="42.301112" lon="-0.431445">
        <ele>1099.3</ele>
        <time>2018-07-22T04:57:52.000Z</time>
      </trkpt>
      <trkpt lat="42.30111" lon="-0.431446">
        <ele>1099.3</ele>
        <time>2018-07-22T04:57:53.000Z</time>
      </trkpt>
      <trkpt lat="42.301109" lon="-0.431446">
        <ele>1099.4</ele>
        <time>2018-07-22T04:57:54.000Z</time>
      </trkpt>
      <trkpt lat="42.301108" lon="-0.431446">
        <ele>1099.4</ele>
        <time>2018-07-22T04:57:55.000Z</time>
      </trkpt>
      <trkpt lat="42.301107" lon="-0.431447">
        <ele>1099.5</ele>
        <time>2018-07-22T04:57:56.000Z</time>
      </trkpt>
      <trkpt lat="42.301107" lon="-0.431447">
        <ele>1099.5</ele>
        <time>2018-07-22T04:57:57.000Z</time>
      </trkpt>
      <trkpt lat="42.301107" lon="-0.431447">
        <ele>1099.5</ele>
        <time>2018-07-22T04:57:58.000Z</time>
      </trkpt>
      <trkpt lat="42.301107" lon="-0.431447">
        <ele>1099.5</ele>
        <time>2018-07-22T04:57:59.000Z</time>
      </trkpt>
      <trkpt lat="42.301107" lon="-0.431447">
        <ele>1099.5</ele>
        <time>2018-07-22T04:58:00.000Z</time>
      </trkpt>
      <trkpt lat="42.301107" lon="-0.431447">
        <ele>1099.5</ele>
        <time>2018-07-22T04:58:01.000Z</time>
      </trkpt>
      <trkpt lat="42.301107" lon="-0.431447">
        <ele>1099.5</ele>
        <time>2018-07-22T04:58:02.000Z</time>
      </trkpt>
      <trkpt lat="42.301107" lon="-0.431447">
        <ele>1099.5</ele>
        <time>2018-07-22T04:58:03.000Z</time>
      </trkpt>
      <trkpt lat="42.301107" lon="-0.431447">
        <ele>1099.5</ele>
        <time>2018-07-22T04:58:04.000Z</time>
      </trkpt>
      <trkpt lat="42.301106" lon="-0.431447">
        <ele>1099.5</ele>
        <time>2018-07-22T04:58:05.000Z</time>
      </trkpt>
      <trkpt lat="42.301106" lon="-0.431447">
        <ele>1099.5</ele>
        <time>2018-07-22T04:58:06.000Z</time>
      </trkpt>
      <trkpt lat="42.301105" lon="-0.431448">
        <ele>1099.6</ele>
        <time>2018-07-22T04:58:07.000Z</time>
      </trkpt>
      <trkpt lat="42.301105" lon="-0.431448">
        <ele>1099.6</ele>
        <time>2018-07-22T04:58:08.000Z</time>
      </trkpt>
      <trkpt lat="42.301104" lon="-0.431448">
        <ele>1099.6</ele>
        <time>2018-07-22T04:58:09.000Z</time>
      </trkpt>
      <trkpt lat="42.301102" lon="-0.431449">
        <ele>1099.7</ele>
        <time>2018-07-22T04:58:10.000Z</time>
      </trkpt>
      <trkpt lat="42.3011" lon="-0.431449">
        <ele>1099.8</ele>
        <time>2018-07-22T04:58:11.000Z</time>
      </trkpt>
      <trkpt lat="42.301098" lon="-0.43145">
        <ele>1099.9</ele>
        <time>2018-07-22T04:58:12.000Z</time>
      </trkpt>
      <trkpt lat="42.301095" lon="-0.431451">
        <ele>1100.0</ele>
        <time>2018-07-22T04:58:13.000Z</time>
      </trkpt>
      <trkpt lat="42.301092" lon="-0.431452">
        <ele>1100.1</ele>
        <time>2018-07-22T04:58:14.000Z</time>
      </trkpt>
      <trkpt lat="42.30109" lon="-0.431453">
        <ele>1100.2</ele>
        <time>2018-07-22T04:58:15.000Z</time>
      </trkpt>
      <trkpt lat="42.301086" lon="-0.431453">
        <ele>1100.4</ele>
        <time>2018-07-22T04:58:16.000Z</time>
      </trkpt>
      <trkpt lat="42.301079" lon="-0.43145">
        <ele>1100.5</ele>
        <time>2018-07-22T04:58:17.000Z</time>
      </trkpt>
      <trkpt lat="42.301072" lon="-0.431446">
        <ele>1100.6</ele>
        <time>2018-07-22T04:58:18.000Z</time>
      </trkpt>
      <trkpt lat="42.301065" lon="-0.431443">
        <ele>1100.8</ele>
        <time>2018-07-22T04:58:19.000Z</time>
      </trkpt>
      <trkpt lat="42.301059" lon="-0.43144">
        <ele>1100.9</ele>
        <time>2018-07-22T04:58:20.000Z</time>
      </trkpt>
      <trkpt lat="42.301055" lon="-0.431439">
        <ele>1101.0</ele>
        <time>2018-07-22T04:58:21.000Z</time>
      </trkpt>
      <trkpt lat="42.301051" lon="-0.431438">
        <ele>1101.1</ele>
        <time>2018-07-22T04:58:22.000Z</time>
      </trkpt>
      <trkpt lat="42.301048" lon="-0.431438">
        <ele>1101.2</ele>
        <time>2018-07-22T04:58:23.000Z</time>
      </trkpt>
      <trkpt lat="42.301046" lon="-0.431437">
        <ele>1101.3</ele>
        <time>2018-07-22T04:58:24.000Z</time>
      </trkpt>
      <trkpt lat="42.301043" lon="-0.431437">
        <ele>1101.4</ele>
        <time>2018-07-22T04:58:25.000Z</time>
      </trkpt>
      <trkpt lat="42.301041" lon="-0.431436">
        <ele>1101.4</ele>
        <time>2018-07-22T04:58:26.000Z</time>
      </trkpt>
      <trkpt lat="42.301039" lon="-0.431435">
        <ele>1101.4</ele>
        <time>2018-07-22T04:58:27.000Z</time>
      </trkpt>
      <trkpt lat="42.301038" lon="-0.431435">
        <ele>1101.5</ele>
        <time>2018-07-22T04:58:28.000Z</time>
      </trkpt>
      <trkpt lat="42.301036" lon="-0.431435">
        <ele>1101.5</ele>
        <time>2018-07-22T04:58:29.000Z</time>
      </trkpt>
      <trkpt lat="42.301034" lon="-0.431434">
        <ele>1101.6</ele>
        <time>2018-07-22T04:58:30.000Z</time>
      </trkpt>
      <trkpt lat="42.301032" lon="-0.431433">
        <ele>1101.6</ele>
        <time>2018-07-22T04:58:31.000Z</time>
      </trkpt>
      <trkpt lat="42.301023" lon="-0.431435">
        <ele>1102.0</ele>
        <time>2018-07-22T04:58:32.000Z</time>
      </trkpt>
      <trkpt lat="42.301015" lon="-0.431438">
        <ele>1102.3</ele>
        <time>2018-07-22T04:58:33.000Z</time>
      </trkpt>
      <trkpt lat="42.30101" lon="-0.431441">
        <ele>1102.6</ele>
        <time>2018-07-22T04:58:34.000Z</time>
      </trkpt>
      <trkpt lat="42.301007" lon="-0.431444">
        <ele>1102.8</ele>
        <time>2018-07-22T04:58:35.000Z</time>
      </trkpt>
      <trkpt lat="42.301004" lon="-0.431446">
        <ele>1103.0</ele>
        <time>2018-07-22T04:58:36.000Z</time>
      </trkpt>
      <trkpt lat="42.301002" lon="-0.431448">
        <ele>1103.1</ele>
        <time>2018-07-22T04:58:37.000Z</time>
      </trkpt>
      <trkpt lat="42.300999" lon="-0.431449">
        <ele>1103.2</ele>
        <time>2018-07-22T04:58:38.000Z</time>
      </trkpt>
      <trkpt lat="42.300997" lon="-0.431451">
        <ele>1103.4</ele>
        <time>2018-07-22T04:58:39.000Z</time>
      </trkpt>
      <trkpt lat="42.300995" lon="-0.431452">
        <ele>1103.5</ele>
        <time>2018-07-22T04:58:40.000Z</time>
      </trkpt>
      <trkpt lat="42.300993" lon="-0.431453">
        <ele>1103.6</ele>
        <time>2018-07-22T04:58:41.000Z</time>
      </trkpt>
      <trkpt lat="42.300992" lon="-0.431454">
        <ele>1103.6</ele>
        <time>2018-07-22T04:58:42.000Z</time>
      </trkpt>
      <trkpt lat="42.30099" lon="-0.431455">
        <ele>1103.7</ele>
        <time>2018-07-22T04:58:43.000Z</time>
      </trkpt>
      <trkpt lat="42.300988" lon="-0.431455">
        <ele>1103.8</ele>
        <time>2018-07-22T04:58:44.000Z</time>
      </trkpt>
      <trkpt lat="42.300986" lon="-0.431456">
        <ele>1103.9</ele>
        <time>2018-07-22T04:58:45.000Z</time>
      </trkpt>
      <trkpt lat="42.300984" lon="-0.431457">
        <ele>1104.0</ele>
        <time>2018-07-22T04:58:46.000Z</time>
      </trkpt>
      <trkpt lat="42.300982" lon="-0.431459">
        <ele>1104.1</ele>
        <time>2018-07-22T04:58:47.000Z</time>
      </trkpt>
      <trkpt lat="42.300976" lon="-0.431458">
        <ele>1104.3</ele>
        <time>2018-07-22T04:58:48.000Z</time>
      </trkpt>
      <trkpt lat="42.300971" lon="-0.431457">
        <ele>1104.5</ele>
        <time>2018-07-22T04:58:49.000Z</time>
      </trkpt>
      <trkpt lat="42.300967" lon="-0.431455">
        <ele>1104.5</ele>
        <time>2018-07-22T04:58:50.000Z</time>
      </trkpt>
      <trkpt lat="42.300962" lon="-0.431454">
        <ele>1104.7</ele>
        <time>2018-07-22T04:58:51.000Z</time>
      </trkpt>
      <trkpt lat="42.300958" lon="-0.431453">
        <ele>1104.8</ele>
        <time>2018-07-22T04:58:52.000Z</time>
      </trkpt>
      <trkpt lat="42.300955" lon="-0.431453">
        <ele>1104.9</ele>
        <time>2018-07-22T04:58:53.000Z</time>
      </trkpt>
      <trkpt lat="42.300953" lon="-0.431453">
        <ele>1104.9</ele>
        <time>2018-07-22T04:58:54.000Z</time>
      </trkpt>
      <trkpt lat="42.300951" lon="-0.431452">
        <ele>1105.0</ele>
        <time>2018-07-22T04:58:55.000Z</time>
      </trkpt>
      <trkpt lat="42.300949" lon="-0.431452">
        <ele>1105.0</ele>
        <time>2018-07-22T04:58:56.000Z</time>
      </trkpt>
      <trkpt lat="42.300947" lon="-0.431452">
        <ele>1105.1</ele>
        <time>2018-07-22T04:58:57.000Z</time>
      </trkpt>
      <trkpt lat="42.300945" lon="-0.431451">
        <ele>1105.1</ele>
        <time>2018-07-22T04:58:58.000Z</time>
      </trkpt>
      <trkpt lat="42.300943" lon="-0.431451">
        <ele>1105.2</ele>
        <time>2018-07-22T04:58:59.000Z</time>
      </trkpt>
      <trkpt lat="42.30094" lon="-0.431451">
        <ele>1105.3</ele>
        <time>2018-07-22T04:59:00.000Z</time>
      </trkpt>
      <trkpt lat="42.300938" lon="-0.431452">
        <ele>1105.4</ele>
        <time>2018-07-22T04:59:01.000Z</time>
      </trkpt>
      <trkpt lat="42.300936" lon="-0.431453">
        <ele>1105.5</ele>
        <time>2018-07-22T04:59:02.000Z</time>
      </trkpt>
      <trkpt lat="42.300934" lon="-0.431454">
        <ele>1105.6</ele>
        <time>2018-07-22T04:59:03.000Z</time>
      </trkpt>
      <trkpt lat="42.300932" lon="-0.431456">
        <ele>1105.8</ele>
        <time>2018-07-22T04:59:04.000Z</time>
      </trkpt>
      <trkpt lat="42.300931" lon="-0.431456">
        <ele>1105.8</ele>
        <time>2018-07-22T04:59:05.000Z</time>
      </trkpt>
      <trkpt lat="42.30093" lon="-0.431456">
        <ele>1105.8</ele>
        <time>2018-07-22T04:59:06.000Z</time>
      </trkpt>
      <trkpt lat="42.300928" lon="-0.431457">
        <ele>1105.9</ele>
        <time>2018-07-22T04:59:07.000Z</time>
      </trkpt>
      <trkpt lat="42.300924" lon="-0.431456">
        <ele>1106.0</ele>
        <time>2018-07-22T04:59:08.000Z</time>
      </trkpt>
      <trkpt lat="42.300919" lon="-0.431457">
        <ele>1106.2</ele>
        <time>2018-07-22T04:59:09.000Z</time>
      </trkpt>
      <trkpt lat="42.300913" lon="-0.431461">
        <ele>1106.6</ele>
        <time>2018-07-22T04:59:10.000Z</time>
      </trkpt>
      <trkpt lat="42.300909" lon="-0.431464">
        <ele>1106.8</ele>
        <time>2018-07-22T04:59:11.000Z</time>
      </trkpt>
      <trkpt lat="42.300906" lon="-0.431466">
        <ele>1107.0</ele>
        <time>2018-07-22T04:59:12.000Z</time>
      </trkpt>
      <trkpt lat="42.300904" lon="-0.431468">
        <ele>1107.2</ele>
        <time>2018-07-22T04:59:13.000Z</time>
      </trkpt>
      <trkpt lat="42.300902" lon="-0.431469">
        <ele>1107.3</ele>
        <time>2018-07-22T04:59:14.000Z</time>
      </trkpt>
      <trkpt lat="42.300899" lon="-0.431471">
        <ele>1107.4</ele>
        <time>2018-07-22T04:59:15.000Z</time>
      </trkpt>
      <trkpt lat="42.300897" lon="-0.431473">
        <ele>1107.6</ele>
        <time>2018-07-22T04:59:16.000Z</time>
      </trkpt>
      <trkpt lat="42.300894" lon="-0.431475">
        <ele>1107.7</ele>
        <time>2018-07-22T04:59:17.000Z</time>
      </trkpt>
      <trkpt lat="42.300892" lon="-0.431477">
        <ele>1107.9</ele>
        <time>2018-07-22T04:59:18.000Z</time>
      </trkpt>
      <trkpt lat="42.30089" lon="-0.431478">
        <ele>1108.0</ele>
        <time>2018-07-22T04:59:19.000Z</time>
      </trkpt>
      <trkpt lat="42.300888" lon="-0.431479">
        <ele>1108.1</ele>
        <time>2018-07-22T04:59:20.000Z</time>
      </trkpt>
      <trkpt lat="42.300887" lon="-0.43148">
        <ele>1108.2</ele>
        <time>2018-07-22T04:59:21.000Z</time>
      </trkpt>
      <trkpt lat="42.300886" lon="-0.431481">
        <ele>1108.2</ele>
        <time>2018-07-22T04:59:22.000Z</time>
      </trkpt>
      <trkpt lat="42.300886" lon="-0.431482">
        <ele>1108.3</ele>
        <time>2018-07-22T04:59:23.000Z</time>
      </trkpt>
      <trkpt lat="42.300885" lon="-0.431482">
        <ele>1108.3</ele>
        <time>2018-07-22T04:59:24.000Z</time>
      </trkpt>
      <trkpt lat="42.300885" lon="-0.431482">
        <ele>1108.3</ele>
        <time>2018-07-22T04:59:25.000Z</time>
      </trkpt>
      <trkpt lat="42.300884" lon="-0.431482">
        <ele>1108.3</ele>
        <time>2018-07-22T04:59:26.000Z</time>
      </trkpt>
      <trkpt lat="42.300884" lon="-0.431483">
        <ele>1108.4</ele>
        <time>2018-07-22T04:59:27.000Z</time>
      </trkpt>
      <trkpt lat="42.300884" lon="-0.431483">
        <ele>1108.4</ele>
        <time>2018-07-22T04:59:28.000Z</time>
      </trkpt>
      <trkpt lat="42.300884" lon="-0.431483">
        <ele>1108.4</ele>
        <time>2018-07-22T04:59:29.000Z</time>
      </trkpt>
      <trkpt lat="42.300884" lon="-0.431483">
        <ele>1108.4</ele>
        <time>2018-07-22T04:59:30.000Z</time>
      </trkpt>
      <trkpt lat="42.300884" lon="-0.431483">
        <ele>1108.4</ele>
        <time>2018-07-22T04:59:31.000Z</time>
      </trkpt>
      <trkpt lat="42.300884" lon="-0.431483">
        <ele>1108.4</ele>
        <time>2018-07-22T04:59:32.000Z</time>
      </trkpt>
      <trkpt lat="42.300884" lon="-0.431483">
        <ele>1108.4</ele>
        <time>2018-07-22T04:59:33.000Z</time>
      </trkpt>
      <trkpt lat="42.300884" lon="-0.431483">
        <ele>1108.4</ele>
        <time>2018-07-22T04:59:34.000Z</time>
      </trkpt>
      <trkpt lat="42.300883" lon="-0.431484">
        <ele>1108.5</ele>
        <time>2018-07-22T04:59:35.000Z</time>
      </trkpt>
      <trkpt lat="42.300883" lon="-0.431484">
        <ele>1108.5</ele>
        <time>2018-07-22T04:59:36.000Z</time>
      </trkpt>
      <trkpt lat="42.300882" lon="-0.431485">
        <ele>1108.5</ele>
        <time>2018-07-22T04:59:37.000Z</time>
      </trkpt>
      <trkpt lat="42.300881" lon="-0.431486">
        <ele>1108.6</ele>
        <time>2018-07-22T04:59:38.000Z</time>
      </trkpt>
      <trkpt lat="42.300879" lon="-0.431487">
        <ele>1108.7</ele>
        <time>2018-07-22T04:59:39.000Z</time>
      </trkpt>
      <trkpt lat="42.300877" lon="-0.431489">
        <ele>1108.8</ele>
        <time>2018-07-22T04:59:40.000Z</time>
      </trkpt>
      <trkpt lat="42.30087" lon="-0.431495">
        <ele>1109.3</ele>
        <time>2018-07-22T04:59:41.000Z</time>
      </trkpt>
      <trkpt lat="42.300858" lon="-0.431504">
        <ele>1110.1</ele>
        <time>2018-07-22T04:59:42.000Z</time>
      </trkpt>
      <trkpt lat="42.300852" lon="-0.431506">
        <ele>1110.4</ele>
        <time>2018-07-22T04:59:43.000Z</time>
      </trkpt>
      <trkpt lat="42.300848" lon="-0.431506">
        <ele>1110.5</ele>
        <time>2018-07-22T04:59:44.000Z</time>
      </trkpt>
      <trkpt lat="42.300844" lon="-0.431508">
        <ele>1110.7</ele>
        <time>2018-07-22T04:59:45.000Z</time>
      </trkpt>
      <trkpt lat="42.30084" lon="-0.431509">
        <ele>1110.9</ele>
        <time>2018-07-22T04:59:46.000Z</time>
      </trkpt>
      <trkpt lat="42.300837" lon="-0.43151">
        <ele>1111.0</ele>
        <time>2018-07-22T04:59:47.000Z</time>
      </trkpt>
      <trkpt lat="42.300834" lon="-0.431511">
        <ele>1111.2</ele>
        <time>2018-07-22T04:59:48.000Z</time>
      </trkpt>
      <trkpt lat="42.300832" lon="-0.431511">
        <ele>1111.3</ele>
        <time>2018-07-22T04:59:49.000Z</time>
      </trkpt>
      <trkpt lat="42.300829" lon="-0.431512">
        <ele>1111.4</ele>
        <time>2018-07-22T04:59:50.000Z</time>
      </trkpt>
      <trkpt lat="42.300825" lon="-0.431513">
        <ele>1111.6</ele>
        <time>2018-07-22T04:59:51.000Z</time>
      </trkpt>
      <trkpt lat="42.300822" lon="-0.431515">
        <ele>1111.8</ele>
        <time>2018-07-22T04:59:52.000Z</time>
      </trkpt>
      <trkpt lat="42.300818" lon="-0.431517">
        <ele>1112.0</ele>
        <time>2018-07-22T04:59:53.000Z</time>
      </trkpt>
      <trkpt lat="42.300809" lon="-0.431524">
        <ele>1112.6</ele>
        <time>2018-07-22T04:59:54.000Z</time>
      </trkpt>
      <trkpt lat="42.300802" lon="-0.431526">
        <ele>1112.9</ele>
        <time>2018-07-22T04:59:55.000Z</time>
      </trkpt>
      <trkpt lat="42.300796" lon="-0.431526">
        <ele>1113.1</ele>
        <time>2018-07-22T04:59:56.000Z</time>
      </trkpt>
      <trkpt lat="42.300792" lon="-0.431525">
        <ele>1113.3</ele>
        <time>2018-07-22T04:59:57.000Z</time>
      </trkpt>
      <trkpt lat="42.300788" lon="-0.431525">
        <ele>1113.4</ele>
        <time>2018-07-22T04:59:58.000Z</time>
      </trkpt>
      <trkpt lat="42.300786" lon="-0.431524">
        <ele>1113.4</ele>
        <time>2018-07-22T04:59:59.000Z</time>
      </trkpt>
      <trkpt lat="42.300783" lon="-0.431524">
        <ele>1113.5</ele>
        <time>2018-07-22T05:00:00.000Z</time>
      </trkpt>
      <trkpt lat="42.300782" lon="-0.431524">
        <ele>1113.6</ele>
        <time>2018-07-22T05:00:01.000Z</time>
      </trkpt>
      <trkpt lat="42.30078" lon="-0.431524">
        <ele>1113.7</ele>
        <time>2018-07-22T05:00:02.000Z</time>
      </trkpt>
      <trkpt lat="42.300777" lon="-0.431523">
        <ele>1113.7</ele>
        <time>2018-07-22T05:00:03.000Z</time>
      </trkpt>
      <trkpt lat="42.300775" lon="-0.431523">
        <ele>1113.8</ele>
        <time>2018-07-22T05:00:04.000Z</time>
      </trkpt>
      <trkpt lat="42.300773" lon="-0.431523">
        <ele>1113.9</ele>
        <time>2018-07-22T05:00:05.000Z</time>
      </trkpt>
      <trkpt lat="42.300771" lon="-0.431523">
        <ele>1113.9</ele>
        <time>2018-07-22T05:00:06.000Z</time>
      </trkpt>
      <trkpt lat="42.30077" lon="-0.431522">
        <ele>1113.9</ele>
        <time>2018-07-22T05:00:07.000Z</time>
      </trkpt>
      <trkpt lat="42.300768" lon="-0.431522">
        <ele>1114.0</ele>
        <time>2018-07-22T05:00:08.000Z</time>
      </trkpt>
      <trkpt lat="42.300767" lon="-0.431522">
        <ele>1114.1</ele>
        <time>2018-07-22T05:00:09.000Z</time>
      </trkpt>
      <trkpt lat="42.300766" lon="-0.431522">
        <ele>1114.1</ele>
        <time>2018-07-22T05:00:10.000Z</time>
      </trkpt>
      <trkpt lat="42.300765" lon="-0.431522">
        <ele>1114.1</ele>
        <time>2018-07-22T05:00:11.000Z</time>
      </trkpt>
      <trkpt lat="42.300765" lon="-0.431522">
        <ele>1114.1</ele>
        <time>2018-07-22T05:00:12.000Z</time>
      </trkpt>
      <trkpt lat="42.300764" lon="-0.431523">
        <ele>1114.2</ele>
        <time>2018-07-22T05:00:13.000Z</time>
      </trkpt>
      <trkpt lat="42.300764" lon="-0.431523">
        <ele>1114.2</ele>
        <time>2018-07-22T05:00:14.000Z</time>
      </trkpt>
      <trkpt lat="42.300762" lon="-0.431523">
        <ele>1114.3</ele>
        <time>2018-07-22T05:00:15.000Z</time>
      </trkpt>
      <trkpt lat="42.300757" lon="-0.431523">
        <ele>1114.5</ele>
        <time>2018-07-22T05:00:16.000Z</time>
      </trkpt>
      <trkpt lat="42.300751" lon="-0.431523">
        <ele>1114.7</ele>
        <time>2018-07-22T05:00:17.000Z</time>
      </trkpt>
      <trkpt lat="42.300742" lon="-0.431527">
        <ele>1115.2</ele>
        <time>2018-07-22T05:00:18.000Z</time>
      </trkpt>
      <trkpt lat="42.300736" lon="-0.431531">
        <ele>1115.5</ele>
        <time>2018-07-22T05:00:19.000Z</time>
      </trkpt>
      <trkpt lat="42.300731" lon="-0.431534">
        <ele>1115.8</ele>
        <time>2018-07-22T05:00:20.000Z</time>
      </trkpt>
      <trkpt lat="42.300728" lon="-0.431537">
        <ele>1116.1</ele>
        <time>2018-07-22T05:00:21.000Z</time>
      </trkpt>
      <trkpt lat="42.300726" lon="-0.431539">
        <ele>1116.2</ele>
        <time>2018-07-22T05:00:22.000Z</time>
      </trkpt>
      <trkpt lat="42.300724" lon="-0.43154">
        <ele>1116.3</ele>
        <time>2018-07-22T05:00:23.000Z</time>
      </trkpt>
      <trkpt lat="42.300723" lon="-0.431542">
        <ele>1116.4</ele>
        <time>2018-07-22T05:00:24.000Z</time>
      </trkpt>
      <trkpt lat="42.300719" lon="-0.431543">
        <ele>1116.6</ele>
        <time>2018-07-22T05:00:25.000Z</time>
      </trkpt>
      <trkpt lat="42.300712" lon="-0.431543">
        <ele>1116.9</ele>
        <time>2018-07-22T05:00:26.000Z</time>
      </trkpt>
      <trkpt lat="42.300704" lon="-0.431543">
        <ele>1117.2</ele>
        <time>2018-07-22T05:00:27.000Z</time>
      </trkpt>
      <trkpt lat="42.300695" lon="-0.431544">
        <ele>1117.5</ele>
        <time>2018-07-22T05:00:28.000Z</time>
      </trkpt>
      <trkpt lat="42.300688" lon="-0.431545">
        <ele>1117.8</ele>
        <time>2018-07-22T05:00:29.000Z</time>
      </trkpt>
      <trkpt lat="42.300683" lon="-0.431547">
        <ele>1118.1</ele>
        <time>2018-07-22T05:00:30.000Z</time>
      </trkpt>
      <trkpt lat="42.300679" lon="-0.431549">
        <ele>1118.3</ele>
        <time>2018-07-22T05:00:31.000Z</time>
      </trkpt>
      <trkpt lat="42.300677" lon="-0.431552">
        <ele>1118.5</ele>
        <time>2018-07-22T05:00:32.000Z</time>
      </trkpt>
      <trkpt lat="42.300675" lon="-0.431554">
        <ele>1118.6</ele>
        <time>2018-07-22T05:00:33.000Z</time>
      </trkpt>
      <trkpt lat="42.300674" lon="-0.431556">
        <ele>1118.8</ele>
        <time>2018-07-22T05:00:34.000Z</time>
      </trkpt>
      <trkpt lat="42.300672" lon="-0.431558">
        <ele>1118.9</ele>
        <time>2018-07-22T05:00:35.000Z</time>
      </trkpt>
      <trkpt lat="42.30067" lon="-0.431559">
        <ele>1119.0</ele>
        <time>2018-07-22T05:00:36.000Z</time>
      </trkpt>
      <trkpt lat="42.300668" lon="-0.431561">
        <ele>1119.2</ele>
        <time>2018-07-22T05:00:37.000Z</time>
      </trkpt>
      <trkpt lat="42.300667" lon="-0.431563">
        <ele>1119.3</ele>
        <time>2018-07-22T05:00:38.000Z</time>
      </trkpt>
      <trkpt lat="42.300664" lon="-0.431566">
        <ele>1119.5</ele>
        <time>2018-07-22T05:00:39.000Z</time>
      </trkpt>
      <trkpt lat="42.300662" lon="-0.431569">
        <ele>1119.7</ele>
        <time>2018-07-22T05:00:40.000Z</time>
      </trkpt>
      <trkpt lat="42.30066" lon="-0.431571">
        <ele>1119.8</ele>
        <time>2018-07-22T05:00:41.000Z</time>
      </trkpt>
      <trkpt lat="42.300659" lon="-0.431572">
        <ele>1119.9</ele>
        <time>2018-07-22T05:00:42.000Z</time>
      </trkpt>
      <trkpt lat="42.300658" lon="-0.431573">
        <ele>1120.0</ele>
        <time>2018-07-22T05:00:43.000Z</time>
      </trkpt>
      <trkpt lat="42.300651" lon="-0.431572">
        <ele>1120.2</ele>
        <time>2018-07-22T05:00:44.000Z</time>
      </trkpt>
      <trkpt lat="42.300643" lon="-0.431564">
        <ele>1120.2</ele>
        <time>2018-07-22T05:00:45.000Z</time>
      </trkpt>
      <trkpt lat="42.300635" lon="-0.431557">
        <ele>1120.2</ele>
        <time>2018-07-22T05:00:46.000Z</time>
      </trkpt>
      <trkpt lat="42.300628" lon="-0.431552">
        <ele>1120.3</ele>
        <time>2018-07-22T05:00:47.000Z</time>
      </trkpt>
      <trkpt lat="42.300621" lon="-0.431548">
        <ele>1120.4</ele>
        <time>2018-07-22T05:00:48.000Z</time>
      </trkpt>
      <trkpt lat="42.300615" lon="-0.431546">
        <ele>1120.6</ele>
        <time>2018-07-22T05:00:49.000Z</time>
      </trkpt>
      <trkpt lat="42.30061" lon="-0.431544">
        <ele>1120.7</ele>
        <time>2018-07-22T05:00:50.000Z</time>
      </trkpt>
      <trkpt lat="42.300606" lon="-0.431543">
        <ele>1120.8</ele>
        <time>2018-07-22T05:00:51.000Z</time>
      </trkpt>
      <trkpt lat="42.300602" lon="-0.431543">
        <ele>1120.9</ele>
        <time>2018-07-22T05:00:52.000Z</time>
      </trkpt>
      <trkpt lat="42.300599" lon="-0.431543">
        <ele>1121.0</ele>
        <time>2018-07-22T05:00:53.000Z</time>
      </trkpt>
      <trkpt lat="42.300596" lon="-0.431543">
        <ele>1121.1</ele>
        <time>2018-07-22T05:00:54.000Z</time>
      </trkpt>
      <trkpt lat="42.300593" lon="-0.431543">
        <ele>1121.3</ele>
        <time>2018-07-22T05:00:55.000Z</time>
      </trkpt>
      <trkpt lat="42.300591" lon="-0.431543">
        <ele>1121.3</ele>
        <time>2018-07-22T05:00:56.000Z</time>
      </trkpt>
      <trkpt lat="42.300589" lon="-0.431543">
        <ele>1121.4</ele>
        <time>2018-07-22T05:00:57.000Z</time>
      </trkpt>
      <trkpt lat="42.300586" lon="-0.431544">
        <ele>1121.6</ele>
        <time>2018-07-22T05:00:58.000Z</time>
      </trkpt>
      <trkpt lat="42.300584" lon="-0.431544">
        <ele>1121.6</ele>
        <time>2018-07-22T05:00:59.000Z</time>
      </trkpt>
      <trkpt lat="42.300581" lon="-0.431544">
        <ele>1121.7</ele>
        <time>2018-07-22T05:01:00.000Z</time>
      </trkpt>
      <trkpt lat="42.300576" lon="-0.431546">
        <ele>1122.0</ele>
        <time>2018-07-22T05:01:01.000Z</time>
      </trkpt>
      <trkpt lat="42.300571" lon="-0.431552">
        <ele>1122.4</ele>
        <time>2018-07-22T05:01:02.000Z</time>
      </trkpt>
      <trkpt lat="42.300567" lon="-0.431559">
        <ele>1122.8</ele>
        <time>2018-07-22T05:01:03.000Z</time>
      </trkpt>
      <trkpt lat="42.300565" lon="-0.431564">
        <ele>1123.1</ele>
        <time>2018-07-22T05:01:04.000Z</time>
      </trkpt>
      <trkpt lat="42.300561" lon="-0.431573">
        <ele>1123.6</ele>
        <time>2018-07-22T05:01:05.000Z</time>
      </trkpt>
      <trkpt lat="42.300556" lon="-0.431582">
        <ele>1124.1</ele>
        <time>2018-07-22T05:01:06.000Z</time>
      </trkpt>
      <trkpt lat="42.300553" lon="-0.431589">
        <ele>1124.5</ele>
        <time>2018-07-22T05:01:07.000Z</time>
      </trkpt>
      <trkpt lat="42.30055" lon="-0.431594">
        <ele>1124.8</ele>
        <time>2018-07-22T05:01:08.000Z</time>
      </trkpt>
      <trkpt lat="42.300549" lon="-0.431597">
        <ele>1124.9</ele>
        <time>2018-07-22T05:01:09.000Z</time>
      </trkpt>
      <trkpt lat="42.300547" lon="-0.431599">
        <ele>1125.1</ele>
        <time>2018-07-22T05:01:10.000Z</time>
      </trkpt>
      <trkpt lat="42.300546" lon="-0.4316">
        <ele>1125.2</ele>
        <time>2018-07-22T05:01:11.000Z</time>
      </trkpt>
      <trkpt lat="42.300545" lon="-0.431602">
        <ele>1125.3</ele>
        <time>2018-07-22T05:01:12.000Z</time>
      </trkpt>
      <trkpt lat="42.300544" lon="-0.431605">
        <ele>1125.4</ele>
        <time>2018-07-22T05:01:13.000Z</time>
      </trkpt>
      <trkpt lat="42.300542" lon="-0.431608">
        <ele>1125.6</ele>
        <time>2018-07-22T05:01:14.000Z</time>
      </trkpt>
      <trkpt lat="42.300542" lon="-0.431611">
        <ele>1125.7</ele>
        <time>2018-07-22T05:01:15.000Z</time>
      </trkpt>
      <trkpt lat="42.300541" lon="-0.431614">
        <ele>1125.9</ele>
        <time>2018-07-22T05:01:16.000Z</time>
      </trkpt>
      <trkpt lat="42.300534" lon="-0.43162">
        <ele>1126.4</ele>
        <time>2018-07-22T05:01:17.000Z</time>
      </trkpt>
      <trkpt lat="42.300526" lon="-0.431626">
        <ele>1126.9</ele>
        <time>2018-07-22T05:01:18.000Z</time>
      </trkpt>
      <trkpt lat="42.300518" lon="-0.43163">
        <ele>1127.3</ele>
        <time>2018-07-22T05:01:19.000Z</time>
      </trkpt>
      <trkpt lat="42.300512" lon="-0.431634">
        <ele>1127.7</ele>
        <time>2018-07-22T05:01:20.000Z</time>
      </trkpt>
      <trkpt lat="42.300508" lon="-0.431639">
        <ele>1128.0</ele>
        <time>2018-07-22T05:01:21.000Z</time>
      </trkpt>
      <trkpt lat="42.300505" lon="-0.431644">
        <ele>1128.3</ele>
        <time>2018-07-22T05:01:22.000Z</time>
      </trkpt>
      <trkpt lat="42.300502" lon="-0.431648">
        <ele>1128.6</ele>
        <time>2018-07-22T05:01:23.000Z</time>
      </trkpt>
      <trkpt lat="42.3005" lon="-0.431651">
        <ele>1128.8</ele>
        <time>2018-07-22T05:01:24.000Z</time>
      </trkpt>
      <trkpt lat="42.300499" lon="-0.431654">
        <ele>1129.0</ele>
        <time>2018-07-22T05:01:25.000Z</time>
      </trkpt>
      <trkpt lat="42.300497" lon="-0.431655">
        <ele>1129.1</ele>
        <time>2018-07-22T05:01:26.000Z</time>
      </trkpt>
      <trkpt lat="42.300495" lon="-0.431657">
        <ele>1129.2</ele>
        <time>2018-07-22T05:01:27.000Z</time>
      </trkpt>
      <trkpt lat="42.300492" lon="-0.431658">
        <ele>1129.4</ele>
        <time>2018-07-22T05:01:28.000Z</time>
      </trkpt>
      <trkpt lat="42.300489" lon="-0.431661">
        <ele>1129.6</ele>
        <time>2018-07-22T05:01:29.000Z</time>
      </trkpt>
      <trkpt lat="42.300486" lon="-0.431663">
        <ele>1129.8</ele>
        <time>2018-07-22T05:01:30.000Z</time>
      </trkpt>
      <trkpt lat="42.300483" lon="-0.431666">
        <ele>1130.0</ele>
        <time>2018-07-22T05:01:31.000Z</time>
      </trkpt>
      <trkpt lat="42.300481" lon="-0.431668">
        <ele>1130.1</ele>
        <time>2018-07-22T05:01:32.000Z</time>
      </trkpt>
      <trkpt lat="42.300479" lon="-0.43167">
        <ele>1130.2</ele>
        <time>2018-07-22T05:01:33.000Z</time>
      </trkpt>
      <trkpt lat="42.300474" lon="-0.431672">
        <ele>1130.4</ele>
        <time>2018-07-22T05:01:34.000Z</time>
      </trkpt>
      <trkpt lat="42.300468" lon="-0.431675">
        <ele>1130.6</ele>
        <time>2018-07-22T05:01:35.000Z</time>
      </trkpt>
      <trkpt lat="42.300463" lon="-0.431679">
        <ele>1130.8</ele>
        <time>2018-07-22T05:01:36.000Z</time>
      </trkpt>
      <trkpt lat="42.300457" lon="-0.431682">
        <ele>1131.0</ele>
        <time>2018-07-22T05:01:37.000Z</time>
      </trkpt>
      <trkpt lat="42.300452" lon="-0.431685">
        <ele>1131.2</ele>
        <time>2018-07-22T05:01:38.000Z</time>
      </trkpt>
      <trkpt lat="42.300448" lon="-0.431687">
        <ele>1131.3</ele>
        <time>2018-07-22T05:01:39.000Z</time>
      </trkpt>
      <trkpt lat="42.300444" lon="-0.431689">
        <ele>1131.5</ele>
        <time>2018-07-22T05:01:40.000Z</time>
      </trkpt>
      <trkpt lat="42.300441" lon="-0.431691">
        <ele>1131.6</ele>
        <time>2018-07-22T05:01:41.000Z</time>
      </trkpt>
      <trkpt lat="42.300439" lon="-0.431693">
        <ele>1131.6</ele>
        <time>2018-07-22T05:01:42.000Z</time>
      </trkpt>
      <trkpt lat="42.300436" lon="-0.431695">
        <ele>1131.7</ele>
        <time>2018-07-22T05:01:43.000Z</time>
      </trkpt>
      <trkpt lat="42.300433" lon="-0.431696">
        <ele>1131.9</ele>
        <time>2018-07-22T05:01:44.000Z</time>
      </trkpt>
      <trkpt lat="42.300429" lon="-0.431697">
        <ele>1132.0</ele>
        <time>2018-07-22T05:01:45.000Z</time>
      </trkpt>
      <trkpt lat="42.300423" lon="-0.431699">
        <ele>1132.2</ele>
        <time>2018-07-22T05:01:46.000Z</time>
      </trkpt>
      <trkpt lat="42.300414" lon="-0.431701">
        <ele>1132.6</ele>
        <time>2018-07-22T05:01:47.000Z</time>
      </trkpt>
      <trkpt lat="42.300408" lon="-0.431703">
        <ele>1132.8</ele>
        <time>2018-07-22T05:01:48.000Z</time>
      </trkpt>
      <trkpt lat="42.300405" lon="-0.431703">
        <ele>1132.9</ele>
        <time>2018-07-22T05:01:49.000Z</time>
      </trkpt>
      <trkpt lat="42.300404" lon="-0.431703">
        <ele>1132.9</ele>
        <time>2018-07-22T05:01:50.000Z</time>
      </trkpt>
      <trkpt lat="42.300403" lon="-0.431703">
        <ele>1133.0</ele>
        <time>2018-07-22T05:01:51.000Z</time>
      </trkpt>
      <trkpt lat="42.300402" lon="-0.431703">
        <ele>1133.0</ele>
        <time>2018-07-22T05:01:52.000Z</time>
      </trkpt>
      <trkpt lat="42.300401" lon="-0.431703">
        <ele>1133.0</ele>
        <time>2018-07-22T05:01:53.000Z</time>
      </trkpt>
      <trkpt lat="42.300401" lon="-0.431703">
        <ele>1133.0</ele>
        <time>2018-07-22T05:01:54.000Z</time>
      </trkpt>
      <trkpt lat="42.3004" lon="-0.431703">
        <ele>1133.1</ele>
        <time>2018-07-22T05:01:55.000Z</time>
      </trkpt>
      <trkpt lat="42.3004" lon="-0.431703">
        <ele>1133.1</ele>
        <time>2018-07-22T05:01:56.000Z</time>
      </trkpt>
      <trkpt lat="42.3004" lon="-0.431703">
        <ele>1133.1</ele>
        <time>2018-07-22T05:01:57.000Z</time>
      </trkpt>
      <trkpt lat="42.3004" lon="-0.431703">
        <ele>1133.1</ele>
        <time>2018-07-22T05:01:58.000Z</time>
      </trkpt>
      <trkpt lat="42.3004" lon="-0.431703">
        <ele>1133.1</ele>
        <time>2018-07-22T05:01:59.000Z</time>
      </trkpt>
      <trkpt lat="42.300399" lon="-0.431703">
        <ele>1133.1</ele>
        <time>2018-07-22T05:02:00.000Z</time>
      </trkpt>
      <trkpt lat="42.300399" lon="-0.431703">
        <ele>1133.1</ele>
        <time>2018-07-22T05:02:01.000Z</time>
      </trkpt>
      <trkpt lat="42.300399" lon="-0.431703">
        <ele>1133.1</ele>
        <time>2018-07-22T05:02:02.000Z</time>
      </trkpt>
      <trkpt lat="42.3004" lon="-0.431703">
        <ele>1133.1</ele>
        <time>2018-07-22T05:02:03.000Z</time>
      </trkpt>
      <trkpt lat="42.3004" lon="-0.431703">
        <ele>1133.1</ele>
        <time>2018-07-22T05:02:04.000Z</time>
      </trkpt>
      <trkpt lat="42.300399" lon="-0.431703">
        <ele>1133.1</ele>
        <time>2018-07-22T05:02:05.000Z</time>
      </trkpt>
      <trkpt lat="42.300399" lon="-0.431703">
        <ele>1133.1</ele>
        <time>2018-07-22T05:02:06.000Z</time>
      </trkpt>
      <trkpt lat="42.300399" lon="-0.431703">
        <ele>1133.1</ele>
        <time>2018-07-22T05:02:07.000Z</time>
      </trkpt>
      <trkpt lat="42.300399" lon="-0.431703">
        <ele>1133.1</ele>
        <time>2018-07-22T05:02:08.000Z</time>
      </trkpt>
      <trkpt lat="42.300399" lon="-0.431703">
        <ele>1133.1</ele>
        <time>2018-07-22T05:02:09.000Z</time>
      </trkpt>
      <trkpt lat="42.300398" lon="-0.431703">
        <ele>1133.2</ele>
        <time>2018-07-22T05:02:10.000Z</time>
      </trkpt>
      <trkpt lat="42.300398" lon="-0.431703">
        <ele>1133.2</ele>
        <time>2018-07-22T05:02:11.000Z</time>
      </trkpt>
      <trkpt lat="42.300397" lon="-0.431703">
        <ele>1133.2</ele>
        <time>2018-07-22T05:02:12.000Z</time>
      </trkpt>
      <trkpt lat="42.300396" lon="-0.431704">
        <ele>1133.2</ele>
        <time>2018-07-22T05:02:13.000Z</time>
      </trkpt>
      <trkpt lat="42.300393" lon="-0.431704">
        <ele>1133.3</ele>
        <time>2018-07-22T05:02:14.000Z</time>
      </trkpt>
      <trkpt lat="42.300388" lon="-0.431704">
        <ele>1133.5</ele>
        <time>2018-07-22T05:02:15.000Z</time>
      </trkpt>
      <trkpt lat="42.300382" lon="-0.431705">
        <ele>1133.8</ele>
        <time>2018-07-22T05:02:16.000Z</time>
      </trkpt>
      <trkpt lat="42.300376" lon="-0.431707">
        <ele>1134.0</ele>
        <time>2018-07-22T05:02:17.000Z</time>
      </trkpt>
      <trkpt lat="42.300371" lon="-0.431711">
        <ele>1134.2</ele>
        <time>2018-07-22T05:02:18.000Z</time>
      </trkpt>
      <trkpt lat="42.300366" lon="-0.431716">
        <ele>1134.3</ele>
        <time>2018-07-22T05:02:19.000Z</time>
      </trkpt>
      <trkpt lat="42.300362" lon="-0.431722">
        <ele>1134.5</ele>
        <time>2018-07-22T05:02:20.000Z</time>
      </trkpt>
      <trkpt lat="42.300357" lon="-0.431727">
        <ele>1134.7</ele>
        <time>2018-07-22T05:02:21.000Z</time>
      </trkpt>
      <trkpt lat="42.300353" lon="-0.431731">
        <ele>1134.8</ele>
        <time>2018-07-22T05:02:22.000Z</time>
      </trkpt>
      <trkpt lat="42.30035" lon="-0.431734">
        <ele>1134.9</ele>
        <time>2018-07-22T05:02:23.000Z</time>
      </trkpt>
      <trkpt lat="42.300347" lon="-0.431737">
        <ele>1135.0</ele>
        <time>2018-07-22T05:02:24.000Z</time>
      </trkpt>
      <trkpt lat="42.300345" lon="-0.431739">
        <ele>1135.1</ele>
        <time>2018-07-22T05:02:25.000Z</time>
      </trkpt>
      <trkpt lat="42.300343" lon="-0.43174">
        <ele>1135.2</ele>
        <time>2018-07-22T05:02:26.000Z</time>
      </trkpt>
      <trkpt lat="42.300341" lon="-0.431741">
        <ele>1135.3</ele>
        <time>2018-07-22T05:02:27.000Z</time>
      </trkpt>
      <trkpt lat="42.30034" lon="-0.431741">
        <ele>1135.3</ele>
        <time>2018-07-22T05:02:28.000Z</time>
      </trkpt>
      <trkpt lat="42.300338" lon="-0.431742">
        <ele>1135.4</ele>
        <time>2018-07-22T05:02:29.000Z</time>
      </trkpt>
      <trkpt lat="42.300336" lon="-0.431743">
        <ele>1135.5</ele>
        <time>2018-07-22T05:02:30.000Z</time>
      </trkpt>
      <trkpt lat="42.300333" lon="-0.431744">
        <ele>1135.6</ele>
        <time>2018-07-22T05:02:31.000Z</time>
      </trkpt>
      <trkpt lat="42.30033" lon="-0.431745">
        <ele>1135.7</ele>
        <time>2018-07-22T05:02:32.000Z</time>
      </trkpt>
      <trkpt lat="42.300326" lon="-0.431747">
        <ele>1135.8</ele>
        <time>2018-07-22T05:02:33.000Z</time>
      </trkpt>
      <trkpt lat="42.300324" lon="-0.431748">
        <ele>1135.9</ele>
        <time>2018-07-22T05:02:34.000Z</time>
      </trkpt>
      <trkpt lat="42.300316" lon="-0.43175">
        <ele>1136.2</ele>
        <time>2018-07-22T05:02:35.000Z</time>
      </trkpt>
      <trkpt lat="42.300307" lon="-0.431749">
        <ele>1136.6</ele>
        <time>2018-07-22T05:02:36.000Z</time>
      </trkpt>
      <trkpt lat="42.3003" lon="-0.431746">
        <ele>1136.8</ele>
        <time>2018-07-22T05:02:37.000Z</time>
      </trkpt>
      <trkpt lat="42.300294" lon="-0.431741">
        <ele>1137.1</ele>
        <time>2018-07-22T05:02:38.000Z</time>
      </trkpt>
      <trkpt lat="42.300288" lon="-0.431736">
        <ele>1137.3</ele>
        <time>2018-07-22T05:02:39.000Z</time>
      </trkpt>
      <trkpt lat="42.300284" lon="-0.431731">
        <ele>1137.4</ele>
        <time>2018-07-22T05:02:40.000Z</time>
      </trkpt>
      <trkpt lat="42.30028" lon="-0.431726">
        <ele>1137.6</ele>
        <time>2018-07-22T05:02:41.000Z</time>
      </trkpt>
      <trkpt lat="42.300275" lon="-0.431722">
        <ele>1137.8</ele>
        <time>2018-07-22T05:02:42.000Z</time>
      </trkpt>
      <trkpt lat="42.300271" lon="-0.431719">
        <ele>1137.9</ele>
        <time>2018-07-22T05:02:43.000Z</time>
      </trkpt>
      <trkpt lat="42.300267" lon="-0.431717">
        <ele>1138.1</ele>
        <time>2018-07-22T05:02:44.000Z</time>
      </trkpt>
      <trkpt lat="42.300264" lon="-0.431715">
        <ele>1138.2</ele>
        <time>2018-07-22T05:02:45.000Z</time>
      </trkpt>
      <trkpt lat="42.300261" lon="-0.431713">
        <ele>1138.3</ele>
        <time>2018-07-22T05:02:46.000Z</time>
      </trkpt>
      <trkpt lat="42.300258" lon="-0.43171">
        <ele>1138.4</ele>
        <time>2018-07-22T05:02:47.000Z</time>
      </trkpt>
      <trkpt lat="42.300255" lon="-0.431708">
        <ele>1138.5</ele>
        <time>2018-07-22T05:02:48.000Z</time>
      </trkpt>
      <trkpt lat="42.300252" lon="-0.431706">
        <ele>1138.6</ele>
        <time>2018-07-22T05:02:49.000Z</time>
      </trkpt>
      <trkpt lat="42.300242" lon="-0.431701">
        <ele>1139.0</ele>
        <time>2018-07-22T05:02:50.000Z</time>
      </trkpt>
      <trkpt lat="42.300234" lon="-0.431695">
        <ele>1139.3</ele>
        <time>2018-07-22T05:02:51.000Z</time>
      </trkpt>
      <trkpt lat="42.30023" lon="-0.431691">
        <ele>1139.5</ele>
        <time>2018-07-22T05:02:52.000Z</time>
      </trkpt>
      <trkpt lat="42.300228" lon="-0.43169">
        <ele>1139.5</ele>
        <time>2018-07-22T05:02:53.000Z</time>
      </trkpt>
      <trkpt lat="42.300226" lon="-0.431689">
        <ele>1139.6</ele>
        <time>2018-07-22T05:02:54.000Z</time>
      </trkpt>
      <trkpt lat="42.300223" lon="-0.431689">
        <ele>1139.7</ele>
        <time>2018-07-22T05:02:55.000Z</time>
      </trkpt>
      <trkpt lat="42.300217" lon="-0.431688">
        <ele>1139.9</ele>
        <time>2018-07-22T05:02:56.000Z</time>
      </trkpt>
      <trkpt lat="42.30021" lon="-0.431687">
        <ele>1140.2</ele>
        <time>2018-07-22T05:02:57.000Z</time>
      </trkpt>
      <trkpt lat="42.300203" lon="-0.431686">
        <ele>1140.5</ele>
        <time>2018-07-22T05:02:58.000Z</time>
      </trkpt>
      <trkpt lat="42.300194" lon="-0.431685">
        <ele>1140.8</ele>
        <time>2018-07-22T05:02:59.000Z</time>
      </trkpt>
      <trkpt lat="42.300186" lon="-0.431685">
        <ele>1141.1</ele>
        <time>2018-07-22T05:03:00.000Z</time>
      </trkpt>
      <trkpt lat="42.300178" lon="-0.431685">
        <ele>1141.4</ele>
        <time>2018-07-22T05:03:01.000Z</time>
      </trkpt>
      <trkpt lat="42.30017" lon="-0.431685">
        <ele>1141.7</ele>
        <time>2018-07-22T05:03:02.000Z</time>
      </trkpt>
      <trkpt lat="42.300163" lon="-0.431686">
        <ele>1142.0</ele>
        <time>2018-07-22T05:03:03.000Z</time>
      </trkpt>
      <trkpt lat="42.300156" lon="-0.431687">
        <ele>1142.2</ele>
        <time>2018-07-22T05:03:04.000Z</time>
      </trkpt>
      <trkpt lat="42.300149" lon="-0.431687">
        <ele>1142.5</ele>
        <time>2018-07-22T05:03:05.000Z</time>
      </trkpt>
      <trkpt lat="42.300143" lon="-0.431688">
        <ele>1142.7</ele>
        <time>2018-07-22T05:03:06.000Z</time>
      </trkpt>
      <trkpt lat="42.300137" lon="-0.431689">
        <ele>1142.9</ele>
        <time>2018-07-22T05:03:07.000Z</time>
      </trkpt>
      <trkpt lat="42.300131" lon="-0.431689">
        <ele>1143.2</ele>
        <time>2018-07-22T05:03:08.000Z</time>
      </trkpt>
      <trkpt lat="42.300126" lon="-0.431689">
        <ele>1143.3</ele>
        <time>2018-07-22T05:03:09.000Z</time>
      </trkpt>
      <trkpt lat="42.300122" lon="-0.431689">
        <ele>1143.5</ele>
        <time>2018-07-22T05:03:10.000Z</time>
      </trkpt>
      <trkpt lat="42.300118" lon="-0.43169">
        <ele>1143.6</ele>
        <time>2018-07-22T05:03:11.000Z</time>
      </trkpt>
      <trkpt lat="42.300116" lon="-0.431689">
        <ele>1143.7</ele>
        <time>2018-07-22T05:03:12.000Z</time>
      </trkpt>
      <trkpt lat="42.300114" lon="-0.431689">
        <ele>1143.8</ele>
        <time>2018-07-22T05:03:13.000Z</time>
      </trkpt>
      <trkpt lat="42.300111" lon="-0.43169">
        <ele>1143.9</ele>
        <time>2018-07-22T05:03:14.000Z</time>
      </trkpt>
      <trkpt lat="42.300107" lon="-0.43169">
        <ele>1144.1</ele>
        <time>2018-07-22T05:03:15.000Z</time>
      </trkpt>
      <trkpt lat="42.300104" lon="-0.43169">
        <ele>1144.2</ele>
        <time>2018-07-22T05:03:16.000Z</time>
      </trkpt>
      <trkpt lat="42.300097" lon="-0.431693">
        <ele>1144.4</ele>
        <time>2018-07-22T05:03:17.000Z</time>
      </trkpt>
      <trkpt lat="42.300092" lon="-0.431695">
        <ele>1144.6</ele>
        <time>2018-07-22T05:03:18.000Z</time>
      </trkpt>
      <trkpt lat="42.300085" lon="-0.4317">
        <ele>1144.9</ele>
        <time>2018-07-22T05:03:19.000Z</time>
      </trkpt>
      <trkpt lat="42.300081" lon="-0.431703">
        <ele>1145.0</ele>
        <time>2018-07-22T05:03:20.000Z</time>
      </trkpt>
      <trkpt lat="42.300079" lon="-0.431704">
        <ele>1145.1</ele>
        <time>2018-07-22T05:03:21.000Z</time>
      </trkpt>
      <trkpt lat="42.300077" lon="-0.431705">
        <ele>1145.2</ele>
        <time>2018-07-22T05:03:22.000Z</time>
      </trkpt>
      <trkpt lat="42.300075" lon="-0.431707">
        <ele>1145.3</ele>
        <time>2018-07-22T05:03:23.000Z</time>
      </trkpt>
      <trkpt lat="42.300072" lon="-0.431709">
        <ele>1145.4</ele>
        <time>2018-07-22T05:03:24.000Z</time>
      </trkpt>
      <trkpt lat="42.300068" lon="-0.431711">
        <ele>1145.6</ele>
        <time>2018-07-22T05:03:25.000Z</time>
      </trkpt>
      <trkpt lat="42.30006" lon="-0.431713">
        <ele>1145.9</ele>
        <time>2018-07-22T05:03:26.000Z</time>
      </trkpt>
      <trkpt lat="42.300054" lon="-0.431715">
        <ele>1146.1</ele>
        <time>2018-07-22T05:03:27.000Z</time>
      </trkpt>
      <trkpt lat="42.300048" lon="-0.431716">
        <ele>1146.3</ele>
        <time>2018-07-22T05:03:28.000Z</time>
      </trkpt>
      <trkpt lat="42.300042" lon="-0.431715">
        <ele>1146.5</ele>
        <time>2018-07-22T05:03:29.000Z</time>
      </trkpt>
      <trkpt lat="42.300038" lon="-0.431714">
        <ele>1146.7</ele>
        <time>2018-07-22T05:03:30.000Z</time>
      </trkpt>
      <trkpt lat="42.300036" lon="-0.431714">
        <ele>1146.8</ele>
        <time>2018-07-22T05:03:31.000Z</time>
      </trkpt>
      <trkpt lat="42.300032" lon="-0.431714">
        <ele>1146.9</ele>
        <time>2018-07-22T05:03:32.000Z</time>
      </trkpt>
      <trkpt lat="42.300024" lon="-0.431712">
        <ele>1147.2</ele>
        <time>2018-07-22T05:03:33.000Z</time>
      </trkpt>
      <trkpt lat="42.300017" lon="-0.43171">
        <ele>1147.5</ele>
        <time>2018-07-22T05:03:34.000Z</time>
      </trkpt>
      <trkpt lat="42.300011" lon="-0.431708">
        <ele>1147.7</ele>
        <time>2018-07-22T05:03:35.000Z</time>
      </trkpt>
      <trkpt lat="42.300006" lon="-0.431706">
        <ele>1147.9</ele>
        <time>2018-07-22T05:03:36.000Z</time>
      </trkpt>
      <trkpt lat="42.300003" lon="-0.431704">
        <ele>1148.0</ele>
        <time>2018-07-22T05:03:37.000Z</time>
      </trkpt>
      <trkpt lat="42.3" lon="-0.431703">
        <ele>1148.1</ele>
        <time>2018-07-22T05:03:38.000Z</time>
      </trkpt>
      <trkpt lat="42.299999" lon="-0.431702">
        <ele>1148.1</ele>
        <time>2018-07-22T05:03:39.000Z</time>
      </trkpt>
      <trkpt lat="42.299997" lon="-0.431702">
        <ele>1148.2</ele>
        <time>2018-07-22T05:03:40.000Z</time>
      </trkpt>
      <trkpt lat="42.299997" lon="-0.431702">
        <ele>1148.2</ele>
        <time>2018-07-22T05:03:41.000Z</time>
      </trkpt>
      <trkpt lat="42.299996" lon="-0.431701">
        <ele>1148.3</ele>
        <time>2018-07-22T05:03:42.000Z</time>
      </trkpt>
      <trkpt lat="42.299995" lon="-0.431701">
        <ele>1148.3</ele>
        <time>2018-07-22T05:03:43.000Z</time>
      </trkpt>
      <trkpt lat="42.299995" lon="-0.431701">
        <ele>1148.3</ele>
        <time>2018-07-22T05:03:44.000Z</time>
      </trkpt>
      <trkpt lat="42.299994" lon="-0.431701">
        <ele>1148.4</ele>
        <time>2018-07-22T05:03:45.000Z</time>
      </trkpt>
      <trkpt lat="42.299992" lon="-0.431701">
        <ele>1148.5</ele>
        <time>2018-07-22T05:03:46.000Z</time>
      </trkpt>
      <trkpt lat="42.299983" lon="-0.431699">
        <ele>1148.9</ele>
        <time>2018-07-22T05:03:47.000Z</time>
      </trkpt>
      <trkpt lat="42.299979" lon="-0.431697">
        <ele>1149.1</ele>
        <time>2018-07-22T05:03:48.000Z</time>
      </trkpt>
      <trkpt lat="42.299978" lon="-0.431697">
        <ele>1149.2</ele>
        <time>2018-07-22T05:03:49.000Z</time>
      </trkpt>
      <trkpt lat="42.299978" lon="-0.431697">
        <ele>1149.2</ele>
        <time>2018-07-22T05:03:50.000Z</time>
      </trkpt>
      <trkpt lat="42.299977" lon="-0.431697">
        <ele>1149.2</ele>
        <time>2018-07-22T05:03:51.000Z</time>
      </trkpt>
      <trkpt lat="42.299977" lon="-0.431697">
        <ele>1149.2</ele>
        <time>2018-07-22T05:03:52.000Z</time>
      </trkpt>
      <trkpt lat="42.299976" lon="-0.431697">
        <ele>1149.3</ele>
        <time>2018-07-22T05:03:53.000Z</time>
      </trkpt>
      <trkpt lat="42.299975" lon="-0.431696">
        <ele>1149.3</ele>
        <time>2018-07-22T05:03:54.000Z</time>
      </trkpt>
      <trkpt lat="42.299974" lon="-0.431695">
        <ele>1149.3</ele>
        <time>2018-07-22T05:03:55.000Z</time>
      </trkpt>
      <trkpt lat="42.299972" lon="-0.431694">
        <ele>1149.4</ele>
        <time>2018-07-22T05:03:56.000Z</time>
      </trkpt>
      <trkpt lat="42.299969" lon="-0.431696">
        <ele>1149.6</ele>
        <time>2018-07-22T05:03:57.000Z</time>
      </trkpt>
      <trkpt lat="42.299965" lon="-0.431702">
        <ele>1149.8</ele>
        <time>2018-07-22T05:03:58.000Z</time>
      </trkpt>
      <trkpt lat="42.299961" lon="-0.431709">
        <ele>1150.0</ele>
        <time>2018-07-22T05:03:59.000Z</time>
      </trkpt>
      <trkpt lat="42.299957" lon="-0.431716">
        <ele>1150.2</ele>
        <time>2018-07-22T05:04:00.000Z</time>
      </trkpt>
      <trkpt lat="42.299954" lon="-0.431723">
        <ele>1150.4</ele>
        <time>2018-07-22T05:04:01.000Z</time>
      </trkpt>
      <trkpt lat="42.299951" lon="-0.431729">
        <ele>1150.6</ele>
        <time>2018-07-22T05:04:02.000Z</time>
      </trkpt>
      <trkpt lat="42.299948" lon="-0.431734">
        <ele>1150.7</ele>
        <time>2018-07-22T05:04:03.000Z</time>
      </trkpt>
      <trkpt lat="42.299946" lon="-0.431738">
        <ele>1150.8</ele>
        <time>2018-07-22T05:04:04.000Z</time>
      </trkpt>
      <trkpt lat="42.299943" lon="-0.431741">
        <ele>1151.0</ele>
        <time>2018-07-22T05:04:05.000Z</time>
      </trkpt>
      <trkpt lat="42.299941" lon="-0.431743">
        <ele>1151.1</ele>
        <time>2018-07-22T05:04:06.000Z</time>
      </trkpt>
      <trkpt lat="42.299939" lon="-0.431745">
        <ele>1151.2</ele>
        <time>2018-07-22T05:04:07.000Z</time>
      </trkpt>
      <trkpt lat="42.299937" lon="-0.431745">
        <ele>1151.3</ele>
        <time>2018-07-22T05:04:08.000Z</time>
      </trkpt>
      <trkpt lat="42.299935" lon="-0.431745">
        <ele>1151.4</ele>
        <time>2018-07-22T05:04:09.000Z</time>
      </trkpt>
      <trkpt lat="42.299934" lon="-0.431745">
        <ele>1151.4</ele>
        <time>2018-07-22T05:04:10.000Z</time>
      </trkpt>
      <trkpt lat="42.299933" lon="-0.431745">
        <ele>1151.5</ele>
        <time>2018-07-22T05:04:11.000Z</time>
      </trkpt>
      <trkpt lat="42.299933" lon="-0.431745">
        <ele>1151.5</ele>
        <time>2018-07-22T05:04:12.000Z</time>
      </trkpt>
      <trkpt lat="42.299931" lon="-0.431746">
        <ele>1151.6</ele>
        <time>2018-07-22T05:04:13.000Z</time>
      </trkpt>
      <trkpt lat="42.299929" lon="-0.431748">
        <ele>1151.7</ele>
        <time>2018-07-22T05:04:14.000Z</time>
      </trkpt>
      <trkpt lat="42.299925" lon="-0.43175">
        <ele>1151.9</ele>
        <time>2018-07-22T05:04:15.000Z</time>
      </trkpt>
      <trkpt lat="42.299922" lon="-0.431752">
        <ele>1152.0</ele>
        <time>2018-07-22T05:04:16.000Z</time>
      </trkpt>
      <trkpt lat="42.299915" lon="-0.431755">
        <ele>1152.4</ele>
        <time>2018-07-22T05:04:17.000Z</time>
      </trkpt>
      <trkpt lat="42.299911" lon="-0.431759">
        <ele>1152.6</ele>
        <time>2018-07-22T05:04:18.000Z</time>
      </trkpt>
      <trkpt lat="42.299905" lon="-0.431762">
        <ele>1152.9</ele>
        <time>2018-07-22T05:04:19.000Z</time>
      </trkpt>
      <trkpt lat="42.2999" lon="-0.431764">
        <ele>1153.1</ele>
        <time>2018-07-22T05:04:20.000Z</time>
      </trkpt>
      <trkpt lat="42.299897" lon="-0.431766">
        <ele>1153.3</ele>
        <time>2018-07-22T05:04:21.000Z</time>
      </trkpt>
      <trkpt lat="42.299896" lon="-0.431768">
        <ele>1153.3</ele>
        <time>2018-07-22T05:04:22.000Z</time>
      </trkpt>
      <trkpt lat="42.299894" lon="-0.431769">
        <ele>1153.4</ele>
        <time>2018-07-22T05:04:23.000Z</time>
      </trkpt>
      <trkpt lat="42.299893" lon="-0.43177">
        <ele>1153.5</ele>
        <time>2018-07-22T05:04:24.000Z</time>
      </trkpt>
      <trkpt lat="42.29989" lon="-0.431772">
        <ele>1153.6</ele>
        <time>2018-07-22T05:04:25.000Z</time>
      </trkpt>
      <trkpt lat="42.299888" lon="-0.431773">
        <ele>1153.7</ele>
        <time>2018-07-22T05:04:26.000Z</time>
      </trkpt>
      <trkpt lat="42.299885" lon="-0.431775">
        <ele>1153.9</ele>
        <time>2018-07-22T05:04:27.000Z</time>
      </trkpt>
      <trkpt lat="42.299883" lon="-0.431777">
        <ele>1154.0</ele>
        <time>2018-07-22T05:04:28.000Z</time>
      </trkpt>
      <trkpt lat="42.29988" lon="-0.431778">
        <ele>1154.1</ele>
        <time>2018-07-22T05:04:29.000Z</time>
      </trkpt>
      <trkpt lat="42.299877" lon="-0.431779">
        <ele>1154.3</ele>
        <time>2018-07-22T05:04:30.000Z</time>
      </trkpt>
      <trkpt lat="42.299874" lon="-0.431779">
        <ele>1154.4</ele>
        <time>2018-07-22T05:04:31.000Z</time>
      </trkpt>
      <trkpt lat="42.299867" lon="-0.43178">
        <ele>1154.8</ele>
        <time>2018-07-22T05:04:32.000Z</time>
      </trkpt>
      <trkpt lat="42.299861" lon="-0.431781">
        <ele>1155.1</ele>
        <time>2018-07-22T05:04:33.000Z</time>
      </trkpt>
      <trkpt lat="42.299857" lon="-0.431784">
        <ele>1155.3</ele>
        <time>2018-07-22T05:04:34.000Z</time>
      </trkpt>
      <trkpt lat="42.299852" lon="-0.431786">
        <ele>1155.5</ele>
        <time>2018-07-22T05:04:35.000Z</time>
      </trkpt>
      <trkpt lat="42.299849" lon="-0.431787">
        <ele>1155.7</ele>
        <time>2018-07-22T05:04:36.000Z</time>
      </trkpt>
      <trkpt lat="42.299848" lon="-0.431787">
        <ele>1155.7</ele>
        <time>2018-07-22T05:04:37.000Z</time>
      </trkpt>
      <trkpt lat="42.299847" lon="-0.431787">
        <ele>1155.8</ele>
        <time>2018-07-22T05:04:38.000Z</time>
      </trkpt>
      <trkpt lat="42.299846" lon="-0.431787">
        <ele>1155.8</ele>
        <time>2018-07-22T05:04:39.000Z</time>
      </trkpt>
      <trkpt lat="42.299845" lon="-0.431787">
        <ele>1155.9</ele>
        <time>2018-07-22T05:04:40.000Z</time>
      </trkpt>
      <trkpt lat="42.299843" lon="-0.431787">
        <ele>1156.0</ele>
        <time>2018-07-22T05:04:41.000Z</time>
      </trkpt>
      <trkpt lat="42.299841" lon="-0.431787">
        <ele>1156.1</ele>
        <time>2018-07-22T05:04:42.000Z</time>
      </trkpt>
      <trkpt lat="42.299839" lon="-0.431788">
        <ele>1156.2</ele>
        <time>2018-07-22T05:04:43.000Z</time>
      </trkpt>
      <trkpt lat="42.299837" lon="-0.431788">
        <ele>1156.3</ele>
        <time>2018-07-22T05:04:44.000Z</time>
      </trkpt>
      <trkpt lat="42.299835" lon="-0.431788">
        <ele>1156.4</ele>
        <time>2018-07-22T05:04:45.000Z</time>
      </trkpt>
      <trkpt lat="42.299833" lon="-0.431789">
        <ele>1156.5</ele>
        <time>2018-07-22T05:04:46.000Z</time>
      </trkpt>
      <trkpt lat="42.299832" lon="-0.431789">
        <ele>1156.5</ele>
        <time>2018-07-22T05:04:47.000Z</time>
      </trkpt>
      <trkpt lat="42.299831" lon="-0.431789">
        <ele>1156.5</ele>
        <time>2018-07-22T05:04:48.000Z</time>
      </trkpt>
      <trkpt lat="42.29983" lon="-0.431789">
        <ele>1156.6</ele>
        <time>2018-07-22T05:04:49.000Z</time>
      </trkpt>
      <trkpt lat="42.299829" lon="-0.431788">
        <ele>1156.6</ele>
        <time>2018-07-22T05:04:50.000Z</time>
      </trkpt>
      <trkpt lat="42.299828" lon="-0.431788">
        <ele>1156.7</ele>
        <time>2018-07-22T05:04:51.000Z</time>
      </trkpt>
      <trkpt lat="42.299824" lon="-0.431787">
        <ele>1156.9</ele>
        <time>2018-07-22T05:04:52.000Z</time>
      </trkpt>
      <trkpt lat="42.299818" lon="-0.431786">
        <ele>1157.2</ele>
        <time>2018-07-22T05:04:53.000Z</time>
      </trkpt>
      <trkpt lat="42.299815" lon="-0.431787">
        <ele>1157.3</ele>
        <time>2018-07-22T05:04:54.000Z</time>
      </trkpt>
      <trkpt lat="42.299813" lon="-0.431788">
        <ele>1157.4</ele>
        <time>2018-07-22T05:04:55.000Z</time>
      </trkpt>
      <trkpt lat="42.29981" lon="-0.431789">
        <ele>1157.6</ele>
        <time>2018-07-22T05:04:56.000Z</time>
      </trkpt>
      <trkpt lat="42.299806" lon="-0.431789">
        <ele>1157.8</ele>
        <time>2018-07-22T05:04:57.000Z</time>
      </trkpt>
      <trkpt lat="42.299803" lon="-0.431789">
        <ele>1157.9</ele>
        <time>2018-07-22T05:04:58.000Z</time>
      </trkpt>
      <trkpt lat="42.299801" lon="-0.431789">
        <ele>1158.0</ele>
        <time>2018-07-22T05:04:59.000Z</time>
      </trkpt>
      <trkpt lat="42.2998" lon="-0.431789">
        <ele>1158.1</ele>
        <time>2018-07-22T05:05:00.000Z</time>
      </trkpt>
      <trkpt lat="42.299799" lon="-0.431788">
        <ele>1158.1</ele>
        <time>2018-07-22T05:05:01.000Z</time>
      </trkpt>
      <trkpt lat="42.299799" lon="-0.431788">
        <ele>1158.1</ele>
        <time>2018-07-22T05:05:02.000Z</time>
      </trkpt>
      <trkpt lat="42.299799" lon="-0.431788">
        <ele>1158.1</ele>
        <time>2018-07-22T05:05:03.000Z</time>
      </trkpt>
      <trkpt lat="42.299799" lon="-0.431787">
        <ele>1158.1</ele>
        <time>2018-07-22T05:05:04.000Z</time>
      </trkpt>
      <trkpt lat="42.299799" lon="-0.431787">
        <ele>1158.1</ele>
        <time>2018-07-22T05:05:05.000Z</time>
      </trkpt>
      <trkpt lat="42.299797" lon="-0.431786">
        <ele>1158.2</ele>
        <time>2018-07-22T05:05:06.000Z</time>
      </trkpt>
      <trkpt lat="42.299795" lon="-0.431785">
        <ele>1158.3</ele>
        <time>2018-07-22T05:05:07.000Z</time>
      </trkpt>
      <trkpt lat="42.299793" lon="-0.431784">
        <ele>1158.4</ele>
        <time>2018-07-22T05:05:08.000Z</time>
      </trkpt>
      <trkpt lat="42.29979" lon="-0.431783">
        <ele>1158.5</ele>
        <time>2018-07-22T05:05:09.000Z</time>
      </trkpt>
      <trkpt lat="42.299788" lon="-0.431782">
        <ele>1158.6</ele>
        <time>2018-07-22T05:05:10.000Z</time>
      </trkpt>
      <trkpt lat="42.299785" lon="-0.431781">
        <ele>1158.8</ele>
        <time>2018-07-22T05:05:11.000Z</time>
      </trkpt>
      <trkpt lat="42.299784" lon="-0.431779">
        <ele>1158.8</ele>
        <time>2018-07-22T05:05:12.000Z</time>
      </trkpt>
      <trkpt lat="42.299782" lon="-0.431778">
        <ele>1158.9</ele>
        <time>2018-07-22T05:05:13.000Z</time>
      </trkpt>
      <trkpt lat="42.299781" lon="-0.431777">
        <ele>1159.0</ele>
        <time>2018-07-22T05:05:14.000Z</time>
      </trkpt>
      <trkpt lat="42.299778" lon="-0.431776">
        <ele>1159.1</ele>
        <time>2018-07-22T05:05:15.000Z</time>
      </trkpt>
      <trkpt lat="42.299776" lon="-0.431776">
        <ele>1159.2</ele>
        <time>2018-07-22T05:05:16.000Z</time>
      </trkpt>
      <trkpt lat="42.299773" lon="-0.431776">
        <ele>1159.4</ele>
        <time>2018-07-22T05:05:17.000Z</time>
      </trkpt>
      <trkpt lat="42.299769" lon="-0.431776">
        <ele>1159.6</ele>
        <time>2018-07-22T05:05:18.000Z</time>
      </trkpt>
      <trkpt lat="42.299763" lon="-0.431776">
        <ele>1159.8</ele>
        <time>2018-07-22T05:05:19.000Z</time>
      </trkpt>
      <trkpt lat="42.29976" lon="-0.431776">
        <ele>1160.0</ele>
        <time>2018-07-22T05:05:20.000Z</time>
      </trkpt>
      <trkpt lat="42.299758" lon="-0.431775">
        <ele>1160.1</ele>
        <time>2018-07-22T05:05:21.000Z</time>
      </trkpt>
      <trkpt lat="42.299755" lon="-0.431775">
        <ele>1160.2</ele>
        <time>2018-07-22T05:05:22.000Z</time>
      </trkpt>
      <trkpt lat="42.299753" lon="-0.431774">
        <ele>1160.3</ele>
        <time>2018-07-22T05:05:23.000Z</time>
      </trkpt>
      <trkpt lat="42.29975" lon="-0.431774">
        <ele>1160.5</ele>
        <time>2018-07-22T05:05:24.000Z</time>
      </trkpt>
      <trkpt lat="42.299748" lon="-0.431774">
        <ele>1160.6</ele>
        <time>2018-07-22T05:05:25.000Z</time>
      </trkpt>
      <trkpt lat="42.299746" lon="-0.431774">
        <ele>1160.7</ele>
        <time>2018-07-22T05:05:26.000Z</time>
      </trkpt>
      <trkpt lat="42.299744" lon="-0.431774">
        <ele>1160.8</ele>
        <time>2018-07-22T05:05:27.000Z</time>
      </trkpt>
      <trkpt lat="42.299743" lon="-0.431773">
        <ele>1160.8</ele>
        <time>2018-07-22T05:05:28.000Z</time>
      </trkpt>
      <trkpt lat="42.299742" lon="-0.431773">
        <ele>1160.9</ele>
        <time>2018-07-22T05:05:29.000Z</time>
      </trkpt>
      <trkpt lat="42.299742" lon="-0.431773">
        <ele>1160.9</ele>
        <time>2018-07-22T05:05:30.000Z</time>
      </trkpt>
      <trkpt lat="42.299741" lon="-0.431773">
        <ele>1160.9</ele>
        <time>2018-07-22T05:05:31.000Z</time>
      </trkpt>
      <trkpt lat="42.299741" lon="-0.431773">
        <ele>1160.9</ele>
        <time>2018-07-22T05:05:32.000Z</time>
      </trkpt>
      <trkpt lat="42.299741" lon="-0.431773">
        <ele>1160.9</ele>
        <time>2018-07-22T05:05:33.000Z</time>
      </trkpt>
      <trkpt lat="42.299741" lon="-0.431773">
        <ele>1160.9</ele>
        <time>2018-07-22T05:05:34.000Z</time>
      </trkpt>
      <trkpt lat="42.299741" lon="-0.431773">
        <ele>1160.9</ele>
        <time>2018-07-22T05:05:35.000Z</time>
      </trkpt>
      <trkpt lat="42.299741" lon="-0.431773">
        <ele>1160.9</ele>
        <time>2018-07-22T05:05:36.000Z</time>
      </trkpt>
      <trkpt lat="42.29974" lon="-0.431773">
        <ele>1161.0</ele>
        <time>2018-07-22T05:05:37.000Z</time>
      </trkpt>
      <trkpt lat="42.29974" lon="-0.431773">
        <ele>1161.0</ele>
        <time>2018-07-22T05:05:38.000Z</time>
      </trkpt>
      <trkpt lat="42.299739" lon="-0.431773">
        <ele>1161.0</ele>
        <time>2018-07-22T05:05:39.000Z</time>
      </trkpt>
      <trkpt lat="42.299737" lon="-0.431773">
        <ele>1161.1</ele>
        <time>2018-07-22T05:05:40.000Z</time>
      </trkpt>
      <trkpt lat="42.299736" lon="-0.431773">
        <ele>1161.2</ele>
        <time>2018-07-22T05:05:41.000Z</time>
      </trkpt>
      <trkpt lat="42.299734" lon="-0.431773">
        <ele>1161.3</ele>
        <time>2018-07-22T05:05:42.000Z</time>
      </trkpt>
      <trkpt lat="42.299732" lon="-0.431773">
        <ele>1161.4</ele>
        <time>2018-07-22T05:05:43.000Z</time>
      </trkpt>
      <trkpt lat="42.299731" lon="-0.431773">
        <ele>1161.4</ele>
        <time>2018-07-22T05:05:44.000Z</time>
      </trkpt>
      <trkpt lat="42.299729" lon="-0.431773">
        <ele>1161.5</ele>
        <time>2018-07-22T05:05:45.000Z</time>
      </trkpt>
      <trkpt lat="42.299727" lon="-0.431774">
        <ele>1161.6</ele>
        <time>2018-07-22T05:05:46.000Z</time>
      </trkpt>
      <trkpt lat="42.299726" lon="-0.431774">
        <ele>1161.7</ele>
        <time>2018-07-22T05:05:47.000Z</time>
      </trkpt>
      <trkpt lat="42.299724" lon="-0.431774">
        <ele>1161.8</ele>
        <time>2018-07-22T05:05:48.000Z</time>
      </trkpt>
      <trkpt lat="42.299723" lon="-0.431774">
        <ele>1161.8</ele>
        <time>2018-07-22T05:05:49.000Z</time>
      </trkpt>
      <trkpt lat="42.299723" lon="-0.431774">
        <ele>1161.8</ele>
        <time>2018-07-22T05:05:50.000Z</time>
      </trkpt>
      <trkpt lat="42.299716" lon="-0.431775">
        <ele>1162.1</ele>
        <time>2018-07-22T05:05:51.000Z</time>
      </trkpt>
      <trkpt lat="42.299711" lon="-0.431776">
        <ele>1162.4</ele>
        <time>2018-07-22T05:05:52.000Z</time>
      </trkpt>
      <trkpt lat="42.299707" lon="-0.431776">
        <ele>1162.6</ele>
        <time>2018-07-22T05:05:53.000Z</time>
      </trkpt>
      <trkpt lat="42.299704" lon="-0.431776">
        <ele>1162.7</ele>
        <time>2018-07-22T05:05:54.000Z</time>
      </trkpt>
      <trkpt lat="42.299701" lon="-0.431776">
        <ele>1162.9</ele>
        <time>2018-07-22T05:05:55.000Z</time>
      </trkpt>
      <trkpt lat="42.299698" lon="-0.431776">
        <ele>1163.0</ele>
        <time>2018-07-22T05:05:56.000Z</time>
      </trkpt>
      <trkpt lat="42.299696" lon="-0.431776">
        <ele>1163.1</ele>
        <time>2018-07-22T05:05:57.000Z</time>
      </trkpt>
      <trkpt lat="42.299695" lon="-0.431776">
        <ele>1163.2</ele>
        <time>2018-07-22T05:05:58.000Z</time>
      </trkpt>
      <trkpt lat="42.299693" lon="-0.431776">
        <ele>1163.3</ele>
        <time>2018-07-22T05:05:59.000Z</time>
      </trkpt>
      <trkpt lat="42.299691" lon="-0.431776">
        <ele>1163.4</ele>
        <time>2018-07-22T05:06:00.000Z</time>
      </trkpt>
      <trkpt lat="42.299689" lon="-0.431776">
        <ele>1163.5</ele>
        <time>2018-07-22T05:06:01.000Z</time>
      </trkpt>
      <trkpt lat="42.299686" lon="-0.431776">
        <ele>1163.6</ele>
        <time>2018-07-22T05:06:02.000Z</time>
      </trkpt>
      <trkpt lat="42.299684" lon="-0.431776">
        <ele>1163.7</ele>
        <time>2018-07-22T05:06:03.000Z</time>
      </trkpt>
      <trkpt lat="42.29968" lon="-0.431775">
        <ele>1163.9</ele>
        <time>2018-07-22T05:06:04.000Z</time>
      </trkpt>
      <trkpt lat="42.299674" lon="-0.431775">
        <ele>1164.2</ele>
        <time>2018-07-22T05:06:05.000Z</time>
      </trkpt>
      <trkpt lat="42.299669" lon="-0.431774">
        <ele>1164.4</ele>
        <time>2018-07-22T05:06:06.000Z</time>
      </trkpt>
      <trkpt lat="42.299665" lon="-0.431773">
        <ele>1164.6</ele>
        <time>2018-07-22T05:06:07.000Z</time>
      </trkpt>
      <trkpt lat="42.29966" lon="-0.431772">
        <ele>1164.9</ele>
        <time>2018-07-22T05:06:08.000Z</time>
      </trkpt>
      <trkpt lat="42.299658" lon="-0.43177">
        <ele>1165.0</ele>
        <time>2018-07-22T05:06:09.000Z</time>
      </trkpt>
      <trkpt lat="42.299656" lon="-0.43177">
        <ele>1165.1</ele>
        <time>2018-07-22T05:06:10.000Z</time>
      </trkpt>
      <trkpt lat="42.299655" lon="-0.431769">
        <ele>1165.1</ele>
        <time>2018-07-22T05:06:11.000Z</time>
      </trkpt>
      <trkpt lat="42.299654" lon="-0.431769">
        <ele>1165.2</ele>
        <time>2018-07-22T05:06:12.000Z</time>
      </trkpt>
      <trkpt lat="42.299652" lon="-0.431769">
        <ele>1165.3</ele>
        <time>2018-07-22T05:06:13.000Z</time>
      </trkpt>
      <trkpt lat="42.299651" lon="-0.431768">
        <ele>1165.3</ele>
        <time>2018-07-22T05:06:14.000Z</time>
      </trkpt>
      <trkpt lat="42.29965" lon="-0.431768">
        <ele>1165.4</ele>
        <time>2018-07-22T05:06:15.000Z</time>
      </trkpt>
      <trkpt lat="42.299649" lon="-0.431768">
        <ele>1165.4</ele>
        <time>2018-07-22T05:06:16.000Z</time>
      </trkpt>
      <trkpt lat="42.299648" lon="-0.431767">
        <ele>1165.5</ele>
        <time>2018-07-22T05:06:17.000Z</time>
      </trkpt>
      <trkpt lat="42.299647" lon="-0.431767">
        <ele>1165.5</ele>
        <time>2018-07-22T05:06:18.000Z</time>
      </trkpt>
      <trkpt lat="42.299646" lon="-0.431767">
        <ele>1165.6</ele>
        <time>2018-07-22T05:06:19.000Z</time>
      </trkpt>
      <trkpt lat="42.299645" lon="-0.431766">
        <ele>1165.6</ele>
        <time>2018-07-22T05:06:20.000Z</time>
      </trkpt>
      <trkpt lat="42.299644" lon="-0.431766">
        <ele>1165.7</ele>
        <time>2018-07-22T05:06:21.000Z</time>
      </trkpt>
      <trkpt lat="42.299643" lon="-0.431766">
        <ele>1165.7</ele>
        <time>2018-07-22T05:06:22.000Z</time>
      </trkpt>
      <trkpt lat="42.299642" lon="-0.431766">
        <ele>1165.7</ele>
        <time>2018-07-22T05:06:23.000Z</time>
      </trkpt>
      <trkpt lat="42.299642" lon="-0.431766">
        <ele>1165.7</ele>
        <time>2018-07-22T05:06:24.000Z</time>
      </trkpt>
      <trkpt lat="42.299641" lon="-0.431765">
        <ele>1165.8</ele>
        <time>2018-07-22T05:06:25.000Z</time>
      </trkpt>
      <trkpt lat="42.29964" lon="-0.431765">
        <ele>1165.8</ele>
        <time>2018-07-22T05:06:26.000Z</time>
      </trkpt>
      <trkpt lat="42.29964" lon="-0.431765">
        <ele>1165.8</ele>
        <time>2018-07-22T05:06:27.000Z</time>
      </trkpt>
      <trkpt lat="42.299639" lon="-0.431765">
        <ele>1165.9</ele>
        <time>2018-07-22T05:06:28.000Z</time>
      </trkpt>
      <trkpt lat="42.299639" lon="-0.431765">
        <ele>1165.9</ele>
        <time>2018-07-22T05:06:29.000Z</time>
      </trkpt>
      <trkpt lat="42.299638" lon="-0.431765">
        <ele>1165.9</ele>
        <time>2018-07-22T05:06:30.000Z</time>
      </trkpt>
      <trkpt lat="42.299638" lon="-0.431765">
        <ele>1165.9</ele>
        <time>2018-07-22T05:06:31.000Z</time>
      </trkpt>
      <trkpt lat="42.299638" lon="-0.431765">
        <ele>1165.9</ele>
        <time>2018-07-22T05:06:32.000Z</time>
      </trkpt>
      <trkpt lat="42.299638" lon="-0.431765">
        <ele>1165.9</ele>
        <time>2018-07-22T05:06:33.000Z</time>
      </trkpt>
      <trkpt lat="42.299637" lon="-0.431765">
        <ele>1166.0</ele>
        <time>2018-07-22T05:06:34.000Z</time>
      </trkpt>
      <trkpt lat="42.299637" lon="-0.431765">
        <ele>1166.0</ele>
        <time>2018-07-22T05:06:35.000Z</time>
      </trkpt>
      <trkpt lat="42.299637" lon="-0.431765">
        <ele>1166.0</ele>
        <time>2018-07-22T05:06:36.000Z</time>
      </trkpt>
      <trkpt lat="42.299637" lon="-0.431765">
        <ele>1166.0</ele>
        <time>2018-07-22T05:06:37.000Z</time>
      </trkpt>
      <trkpt lat="42.299637" lon="-0.431765">
        <ele>1166.0</ele>
        <time>2018-07-22T05:06:38.000Z</time>
      </trkpt>
      <trkpt lat="42.299638" lon="-0.431765">
        <ele>1165.9</ele>
        <time>2018-07-22T05:06:39.000Z</time>
      </trkpt>
      <trkpt lat="42.299638" lon="-0.431765">
        <ele>1165.9</ele>
        <time>2018-07-22T05:06:40.000Z</time>
      </trkpt>
      <trkpt lat="42.299638" lon="-0.431765">
        <ele>1165.9</ele>
        <time>2018-07-22T05:06:41.000Z</time>
      </trkpt>
      <trkpt lat="42.299638" lon="-0.431765">
        <ele>1165.9</ele>
        <time>2018-07-22T05:06:42.000Z</time>
      </trkpt>
      <trkpt lat="42.299638" lon="-0.431765">
        <ele>1165.9</ele>
        <time>2018-07-22T05:06:43.000Z</time>
      </trkpt>
      <trkpt lat="42.299638" lon="-0.431765">
        <ele>1165.9</ele>
        <time>2018-07-22T05:06:44.000Z</time>
      </trkpt>
      <trkpt lat="42.299638" lon="-0.431765">
        <ele>1165.9</ele>
        <time>2018-07-22T05:06:45.000Z</time>
      </trkpt>
      <trkpt lat="42.299638" lon="-0.431765">
        <ele>1165.9</ele>
        <time>2018-07-22T05:06:46.000Z</time>
      </trkpt>
      <trkpt lat="42.299637" lon="-0.431765">
        <ele>1166.0</ele>
        <time>2018-07-22T05:06:47.000Z</time>
      </trkpt>
      <trkpt lat="42.299637" lon="-0.431765">
        <ele>1166.0</ele>
        <time>2018-07-22T05:06:48.000Z</time>
      </trkpt>
      <trkpt lat="42.299637" lon="-0.431764">
        <ele>1166.0</ele>
        <time>2018-07-22T05:06:49.000Z</time>
      </trkpt>
      <trkpt lat="42.299637" lon="-0.431764">
        <ele>1166.0</ele>
        <time>2018-07-22T05:06:50.000Z</time>
      </trkpt>
      <trkpt lat="42.299636" lon="-0.431764">
        <ele>1166.0</ele>
        <time>2018-07-22T05:06:51.000Z</time>
      </trkpt>
      <trkpt lat="42.299636" lon="-0.431764">
        <ele>1166.0</ele>
        <time>2018-07-22T05:06:52.000Z</time>
      </trkpt>
      <trkpt lat="42.299635" lon="-0.431763">
        <ele>1166.1</ele>
        <time>2018-07-22T05:06:53.000Z</time>
      </trkpt>
      <trkpt lat="42.299634" lon="-0.431763">
        <ele>1166.1</ele>
        <time>2018-07-22T05:06:54.000Z</time>
      </trkpt>
      <trkpt lat="42.299633" lon="-0.431763">
        <ele>1166.2</ele>
        <time>2018-07-22T05:06:55.000Z</time>
      </trkpt>
      <trkpt lat="42.299632" lon="-0.431762">
        <ele>1166.2</ele>
        <time>2018-07-22T05:06:56.000Z</time>
      </trkpt>
      <trkpt lat="42.299631" lon="-0.431762">
        <ele>1166.3</ele>
        <time>2018-07-22T05:06:57.000Z</time>
      </trkpt>
      <trkpt lat="42.29963" lon="-0.431762">
        <ele>1166.3</ele>
        <time>2018-07-22T05:06:58.000Z</time>
      </trkpt>
      <trkpt lat="42.29963" lon="-0.431761">
        <ele>1166.3</ele>
        <time>2018-07-22T05:06:59.000Z</time>
      </trkpt>
      <trkpt lat="42.299629" lon="-0.431761">
        <ele>1166.4</ele>
        <time>2018-07-22T05:07:00.000Z</time>
      </trkpt>
      <trkpt lat="42.299627" lon="-0.431761">
        <ele>1166.5</ele>
        <time>2018-07-22T05:07:01.000Z</time>
      </trkpt>
      <trkpt lat="42.299625" lon="-0.43176">
        <ele>1166.6</ele>
        <time>2018-07-22T05:07:02.000Z</time>
      </trkpt>
      <trkpt lat="42.299621" lon="-0.431759">
        <ele>1166.8</ele>
        <time>2018-07-22T05:07:03.000Z</time>
      </trkpt>
      <trkpt lat="42.29962" lon="-0.431758">
        <ele>1166.8</ele>
        <time>2018-07-22T05:07:04.000Z</time>
      </trkpt>
      <trkpt lat="42.299614" lon="-0.431756">
        <ele>1167.1</ele>
        <time>2018-07-22T05:07:05.000Z</time>
      </trkpt>
      <trkpt lat="42.299605" lon="-0.431753">
        <ele>1167.5</ele>
        <time>2018-07-22T05:07:06.000Z</time>
      </trkpt>
      <trkpt lat="42.299601" lon="-0.431752">
        <ele>1167.7</ele>
        <time>2018-07-22T05:07:07.000Z</time>
      </trkpt>
      <trkpt lat="42.299598" lon="-0.431751">
        <ele>1167.9</ele>
        <time>2018-07-22T05:07:08.000Z</time>
      </trkpt>
      <trkpt lat="42.299597" lon="-0.431751">
        <ele>1167.9</ele>
        <time>2018-07-22T05:07:09.000Z</time>
      </trkpt>
      <trkpt lat="42.299597" lon="-0.43175">
        <ele>1167.9</ele>
        <time>2018-07-22T05:07:10.000Z</time>
      </trkpt>
      <trkpt lat="42.299596" lon="-0.43175">
        <ele>1168.0</ele>
        <time>2018-07-22T05:07:11.000Z</time>
      </trkpt>
      <trkpt lat="42.299596" lon="-0.43175">
        <ele>1168.0</ele>
        <time>2018-07-22T05:07:12.000Z</time>
      </trkpt>
      <trkpt lat="42.299595" lon="-0.43175">
        <ele>1168.0</ele>
        <time>2018-07-22T05:07:13.000Z</time>
      </trkpt>
      <trkpt lat="42.299595" lon="-0.43175">
        <ele>1168.0</ele>
        <time>2018-07-22T05:07:14.000Z</time>
      </trkpt>
      <trkpt lat="42.299594" lon="-0.43175">
        <ele>1168.1</ele>
        <time>2018-07-22T05:07:15.000Z</time>
      </trkpt>
      <trkpt lat="42.299594" lon="-0.431749">
        <ele>1168.1</ele>
        <time>2018-07-22T05:07:16.000Z</time>
      </trkpt>
      <trkpt lat="42.299594" lon="-0.431749">
        <ele>1168.1</ele>
        <time>2018-07-22T05:07:17.000Z</time>
      </trkpt>
      <trkpt lat="42.299593" lon="-0.431749">
        <ele>1168.1</ele>
        <time>2018-07-22T05:07:18.000Z</time>
      </trkpt>
      <trkpt lat="42.299593" lon="-0.431749">
        <ele>1168.1</ele>
        <time>2018-07-22T05:07:19.000Z</time>
      </trkpt>
      <trkpt lat="42.299593" lon="-0.431749">
        <ele>1168.1</ele>
        <time>2018-07-22T05:07:20.000Z</time>
      </trkpt>
      <trkpt lat="42.299593" lon="-0.431749">
        <ele>1168.1</ele>
        <time>2018-07-22T05:07:21.000Z</time>
      </trkpt>
      <trkpt lat="42.299593" lon="-0.431749">
        <ele>1168.1</ele>
        <time>2018-07-22T05:07:22.000Z</time>
      </trkpt>
      <trkpt lat="42.299593" lon="-0.431749">
        <ele>1168.1</ele>
        <time>2018-07-22T05:07:23.000Z</time>
      </trkpt>
      <trkpt lat="42.299593" lon="-0.431749">
        <ele>1168.1</ele>
        <time>2018-07-22T05:07:24.000Z</time>
      </trkpt>
      <trkpt lat="42.299592" lon="-0.431749">
        <ele>1168.2</ele>
        <time>2018-07-22T05:07:25.000Z</time>
      </trkpt>
      <trkpt lat="42.299592" lon="-0.431749">
        <ele>1168.2</ele>
        <time>2018-07-22T05:07:26.000Z</time>
      </trkpt>
      <trkpt lat="42.299592" lon="-0.431749">
        <ele>1168.2</ele>
        <time>2018-07-22T05:07:27.000Z</time>
      </trkpt>
      <trkpt lat="42.299592" lon="-0.431749">
        <ele>1168.2</ele>
        <time>2018-07-22T05:07:28.000Z</time>
      </trkpt>
      <trkpt lat="42.299592" lon="-0.431748">
        <ele>1168.2</ele>
        <time>2018-07-22T05:07:29.000Z</time>
      </trkpt>
      <trkpt lat="42.299592" lon="-0.431748">
        <ele>1168.2</ele>
        <time>2018-07-22T05:07:30.000Z</time>
      </trkpt>
      <trkpt lat="42.299592" lon="-0.431748">
        <ele>1168.2</ele>
        <time>2018-07-22T05:07:31.000Z</time>
      </trkpt>
      <trkpt lat="42.299592" lon="-0.431748">
        <ele>1168.2</ele>
        <time>2018-07-22T05:07:32.000Z</time>
      </trkpt>
      <trkpt lat="42.299592" lon="-0.431748">
        <ele>1168.2</ele>
        <time>2018-07-22T05:07:33.000Z</time>
      </trkpt>
      <trkpt lat="42.299592" lon="-0.431748">
        <ele>1168.2</ele>
        <time>2018-07-22T05:07:34.000Z</time>
      </trkpt>
      <trkpt lat="42.299592" lon="-0.431748">
        <ele>1168.2</ele>
        <time>2018-07-22T05:07:35.000Z</time>
      </trkpt>
      <trkpt lat="42.299592" lon="-0.431748">
        <ele>1168.2</ele>
        <time>2018-07-22T05:07:36.000Z</time>
      </trkpt>
      <trkpt lat="42.299592" lon="-0.431748">
        <ele>1168.2</ele>
        <time>2018-07-22T05:07:37.000Z</time>
      </trkpt>
      <trkpt lat="42.299592" lon="-0.431748">
        <ele>1168.2</ele>
        <time>2018-07-22T05:07:38.000Z</time>
      </trkpt>
      <trkpt lat="42.299592" lon="-0.431748">
        <ele>1168.2</ele>
        <time>2018-07-22T05:07:39.000Z</time>
      </trkpt>
      <trkpt lat="42.299592" lon="-0.431748">
        <ele>1168.2</ele>
        <time>2018-07-22T05:07:40.000Z</time>
      </trkpt>
      <trkpt lat="42.299592" lon="-0.431748">
        <ele>1168.2</ele>
        <time>2018-07-22T05:07:41.000Z</time>
      </trkpt>
      <trkpt lat="42.299592" lon="-0.431748">
        <ele>1168.2</ele>
        <time>2018-07-22T05:07:42.000Z</time>
      </trkpt>
      <trkpt lat="42.299592" lon="-0.431748">
        <ele>1168.2</ele>
        <time>2018-07-22T05:07:43.000Z</time>
      </trkpt>
      <trkpt lat="42.299592" lon="-0.431748">
        <ele>1168.2</ele>
        <time>2018-07-22T05:07:44.000Z</time>
      </trkpt>
      <trkpt lat="42.299592" lon="-0.431748">
        <ele>1168.2</ele>
        <time>2018-07-22T05:07:45.000Z</time>
      </trkpt>
      <trkpt lat="42.299592" lon="-0.431748">
        <ele>1168.2</ele>
        <time>2018-07-22T05:07:46.000Z</time>
      </trkpt>
      <trkpt lat="42.299592" lon="-0.431748">
        <ele>1168.2</ele>
        <time>2018-07-22T05:07:47.000Z</time>
      </trkpt>
      <trkpt lat="42.299592" lon="-0.431748">
        <ele>1168.2</ele>
        <time>2018-07-22T05:07:48.000Z</time>
      </trkpt>
      <trkpt lat="42.299592" lon="-0.431748">
        <ele>1168.2</ele>
        <time>2018-07-22T05:07:49.000Z</time>
      </trkpt>
      <trkpt lat="42.299592" lon="-0.431748">
        <ele>1168.2</ele>
        <time>2018-07-22T05:07:50.000Z</time>
      </trkpt>
      <trkpt lat="42.299592" lon="-0.431748">
        <ele>1168.2</ele>
        <time>2018-07-22T05:07:51.000Z</time>
      </trkpt>
      <trkpt lat="42.299592" lon="-0.431748">
        <ele>1168.2</ele>
        <time>2018-07-22T05:07:52.000Z</time>
      </trkpt>
      <trkpt lat="42.299592" lon="-0.431748">
        <ele>1168.2</ele>
        <time>2018-07-22T05:07:53.000Z</time>
      </trkpt>
      <trkpt lat="42.299592" lon="-0.431748">
        <ele>1168.2</ele>
        <time>2018-07-22T05:07:54.000Z</time>
      </trkpt>
      <trkpt lat="42.299592" lon="-0.431748">
        <ele>1168.2</ele>
        <time>2018-07-22T05:07:55.000Z</time>
      </trkpt>
      <trkpt lat="42.299592" lon="-0.431748">
        <ele>1168.2</ele>
        <time>2018-07-22T05:07:56.000Z</time>
      </trkpt>
      <trkpt lat="42.299592" lon="-0.431748">
        <ele>1168.2</ele>
        <time>2018-07-22T05:07:57.000Z</time>
      </trkpt>
      <trkpt lat="42.299592" lon="-0.431748">
        <ele>1168.2</ele>
        <time>2018-07-22T05:07:58.000Z</time>
      </trkpt>
      <trkpt lat="42.299592" lon="-0.431748">
        <ele>1168.2</ele>
        <time>2018-07-22T05:07:59.000Z</time>
      </trkpt>
      <trkpt lat="42.299592" lon="-0.431748">
        <ele>1168.2</ele>
        <time>2018-07-22T05:08:00.000Z</time>
      </trkpt>
      <trkpt lat="42.299592" lon="-0.431748">
        <ele>1168.2</ele>
        <time>2018-07-22T05:08:01.000Z</time>
      </trkpt>
      <trkpt lat="42.299592" lon="-0.431748">
        <ele>1168.2</ele>
        <time>2018-07-22T05:08:02.000Z</time>
      </trkpt>
      <trkpt lat="42.299592" lon="-0.431748">
        <ele>1168.2</ele>
        <time>2018-07-22T05:08:03.000Z</time>
      </trkpt>
      <trkpt lat="42.299592" lon="-0.431748">
        <ele>1168.2</ele>
        <time>2018-07-22T05:08:04.000Z</time>
      </trkpt>
      <trkpt lat="42.299592" lon="-0.431748">
        <ele>1168.2</ele>
        <time>2018-07-22T05:08:05.000Z</time>
      </trkpt>
      <trkpt lat="42.299592" lon="-0.431748">
        <ele>1168.2</ele>
        <time>2018-07-22T05:08:06.000Z</time>
      </trkpt>
      <trkpt lat="42.299592" lon="-0.431748">
        <ele>1168.2</ele>
        <time>2018-07-22T05:08:07.000Z</time>
      </trkpt>
      <trkpt lat="42.299592" lon="-0.431748">
        <ele>1168.2</ele>
        <time>2018-07-22T05:08:08.000Z</time>
      </trkpt>
      <trkpt lat="42.299592" lon="-0.431748">
        <ele>1168.2</ele>
        <time>2018-07-22T05:08:09.000Z</time>
      </trkpt>
      <trkpt lat="42.299592" lon="-0.431748">
        <ele>1168.2</ele>
        <time>2018-07-22T05:08:10.000Z</time>
      </trkpt>
      <trkpt lat="42.299592" lon="-0.431748">
        <ele>1168.2</ele>
        <time>2018-07-22T05:08:11.000Z</time>
      </trkpt>
      <trkpt lat="42.299592" lon="-0.431748">
        <ele>1168.2</ele>
        <time>2018-07-22T05:08:12.000Z</time>
      </trkpt>
      <trkpt lat="42.299592" lon="-0.431748">
        <ele>1168.2</ele>
        <time>2018-07-22T05:08:13.000Z</time>
      </trkpt>
      <trkpt lat="42.299592" lon="-0.431748">
        <ele>1168.2</ele>
        <time>2018-07-22T05:08:14.000Z</time>
      </trkpt>
      <trkpt lat="42.299591" lon="-0.431748">
        <ele>1168.2</ele>
        <time>2018-07-22T05:08:15.000Z</time>
      </trkpt>
      <trkpt lat="42.299591" lon="-0.431748">
        <ele>1168.2</ele>
        <time>2018-07-22T05:08:16.000Z</time>
      </trkpt>
      <trkpt lat="42.299591" lon="-0.431748">
        <ele>1168.2</ele>
        <time>2018-07-22T05:08:17.000Z</time>
      </trkpt>
      <trkpt lat="42.299591" lon="-0.431748">
        <ele>1168.2</ele>
        <time>2018-07-22T05:08:18.000Z</time>
      </trkpt>
      <trkpt lat="42.299591" lon="-0.431748">
        <ele>1168.2</ele>
        <time>2018-07-22T05:08:19.000Z</time>
      </trkpt>
      <trkpt lat="42.299591" lon="-0.431748">
        <ele>1168.2</ele>
        <time>2018-07-22T05:08:20.000Z</time>
      </trkpt>
      <trkpt lat="42.29959" lon="-0.431747">
        <ele>1168.3</ele>
        <time>2018-07-22T05:08:21.000Z</time>
      </trkpt>
      <trkpt lat="42.299587" lon="-0.431747">
        <ele>1168.4</ele>
        <time>2018-07-22T05:08:22.000Z</time>
      </trkpt>
      <trkpt lat="42.299581" lon="-0.431745">
        <ele>1168.7</ele>
        <time>2018-07-22T05:08:23.000Z</time>
      </trkpt>
      <trkpt lat="42.299574" lon="-0.431744">
        <ele>1169.0</ele>
        <time>2018-07-22T05:08:24.000Z</time>
      </trkpt>
      <trkpt lat="42.299569" lon="-0.431743">
        <ele>1169.3</ele>
        <time>2018-07-22T05:08:25.000Z</time>
      </trkpt>
      <trkpt lat="42.299565" lon="-0.431743">
        <ele>1169.5</ele>
        <time>2018-07-22T05:08:26.000Z</time>
      </trkpt>
      <trkpt lat="42.299563" lon="-0.431744">
        <ele>1169.6</ele>
        <time>2018-07-22T05:08:27.000Z</time>
      </trkpt>
      <trkpt lat="42.299561" lon="-0.431746">
        <ele>1169.7</ele>
        <time>2018-07-22T05:08:28.000Z</time>
      </trkpt>
      <trkpt lat="42.299559" lon="-0.431747">
        <ele>1169.8</ele>
        <time>2018-07-22T05:08:29.000Z</time>
      </trkpt>
      <trkpt lat="42.299556" lon="-0.431747">
        <ele>1169.9</ele>
        <time>2018-07-22T05:08:30.000Z</time>
      </trkpt>
      <trkpt lat="42.299553" lon="-0.431748">
        <ele>1170.1</ele>
        <time>2018-07-22T05:08:31.000Z</time>
      </trkpt>
      <trkpt lat="42.299551" lon="-0.431749">
        <ele>1170.2</ele>
        <time>2018-07-22T05:08:32.000Z</time>
      </trkpt>
      <trkpt lat="42.299548" lon="-0.43175">
        <ele>1170.3</ele>
        <time>2018-07-22T05:08:33.000Z</time>
      </trkpt>
      <trkpt lat="42.299546" lon="-0.431751">
        <ele>1170.4</ele>
        <time>2018-07-22T05:08:34.000Z</time>
      </trkpt>
      <trkpt lat="42.299544" lon="-0.431752">
        <ele>1170.5</ele>
        <time>2018-07-22T05:08:35.000Z</time>
      </trkpt>
      <trkpt lat="42.299542" lon="-0.431752">
        <ele>1170.6</ele>
        <time>2018-07-22T05:08:36.000Z</time>
      </trkpt>
      <trkpt lat="42.299539" lon="-0.431753">
        <ele>1170.8</ele>
        <time>2018-07-22T05:08:37.000Z</time>
      </trkpt>
      <trkpt lat="42.299539" lon="-0.431753">
        <ele>1170.8</ele>
        <time>2018-07-22T05:08:38.000Z</time>
      </trkpt>
      <trkpt lat="42.299536" lon="-0.431754">
        <ele>1170.9</ele>
        <time>2018-07-22T05:08:39.000Z</time>
      </trkpt>
      <trkpt lat="42.299532" lon="-0.431755">
        <ele>1171.1</ele>
        <time>2018-07-22T05:08:40.000Z</time>
      </trkpt>
      <trkpt lat="42.299529" lon="-0.431756">
        <ele>1171.3</ele>
        <time>2018-07-22T05:08:41.000Z</time>
      </trkpt>
      <trkpt lat="42.299526" lon="-0.431757">
        <ele>1171.4</ele>
        <time>2018-07-22T05:08:42.000Z</time>
      </trkpt>
      <trkpt lat="42.299523" lon="-0.431758">
        <ele>1171.6</ele>
        <time>2018-07-22T05:08:43.000Z</time>
      </trkpt>
      <trkpt lat="42.29952" lon="-0.431759">
        <ele>1171.7</ele>
        <time>2018-07-22T05:08:44.000Z</time>
      </trkpt>
      <trkpt lat="42.299518" lon="-0.43176">
        <ele>1171.8</ele>
        <time>2018-07-22T05:08:45.000Z</time>
      </trkpt>
      <trkpt lat="42.299515" lon="-0.431761">
        <ele>1172.0</ele>
        <time>2018-07-22T05:08:46.000Z</time>
      </trkpt>
      <trkpt lat="42.299512" lon="-0.431762">
        <ele>1172.1</ele>
        <time>2018-07-22T05:08:47.000Z</time>
      </trkpt>
      <trkpt lat="42.299509" lon="-0.431764">
        <ele>1172.3</ele>
        <time>2018-07-22T05:08:48.000Z</time>
      </trkpt>
      <trkpt lat="42.299507" lon="-0.431765">
        <ele>1172.4</ele>
        <time>2018-07-22T05:08:49.000Z</time>
      </trkpt>
      <trkpt lat="42.299504" lon="-0.431766">
        <ele>1172.5</ele>
        <time>2018-07-22T05:08:50.000Z</time>
      </trkpt>
      <trkpt lat="42.299502" lon="-0.431767">
        <ele>1172.6</ele>
        <time>2018-07-22T05:08:51.000Z</time>
      </trkpt>
      <trkpt lat="42.2995" lon="-0.431769">
        <ele>1172.7</ele>
        <time>2018-07-22T05:08:52.000Z</time>
      </trkpt>
      <trkpt lat="42.299495" lon="-0.431772">
        <ele>1172.9</ele>
        <time>2018-07-22T05:08:53.000Z</time>
      </trkpt>
      <trkpt lat="42.299491" lon="-0.431774">
        <ele>1173.1</ele>
        <time>2018-07-22T05:08:54.000Z</time>
      </trkpt>
      <trkpt lat="42.299486" lon="-0.431776">
        <ele>1173.4</ele>
        <time>2018-07-22T05:08:55.000Z</time>
      </trkpt>
      <trkpt lat="42.299482" lon="-0.431778">
        <ele>1173.6</ele>
        <time>2018-07-22T05:08:56.000Z</time>
      </trkpt>
      <trkpt lat="42.299479" lon="-0.431779">
        <ele>1173.7</ele>
        <time>2018-07-22T05:08:57.000Z</time>
      </trkpt>
      <trkpt lat="42.299476" lon="-0.43178">
        <ele>1173.9</ele>
        <time>2018-07-22T05:08:58.000Z</time>
      </trkpt>
      <trkpt lat="42.299475" lon="-0.43178">
        <ele>1173.9</ele>
        <time>2018-07-22T05:08:59.000Z</time>
      </trkpt>
      <trkpt lat="42.299473" lon="-0.431781">
        <ele>1174.0</ele>
        <time>2018-07-22T05:09:00.000Z</time>
      </trkpt>
      <trkpt lat="42.299472" lon="-0.431781">
        <ele>1174.1</ele>
        <time>2018-07-22T05:09:01.000Z</time>
      </trkpt>
      <trkpt lat="42.29947" lon="-0.431782">
        <ele>1174.2</ele>
        <time>2018-07-22T05:09:02.000Z</time>
      </trkpt>
      <trkpt lat="42.299468" lon="-0.431782">
        <ele>1174.3</ele>
        <time>2018-07-22T05:09:03.000Z</time>
      </trkpt>
      <trkpt lat="42.299465" lon="-0.431783">
        <ele>1174.4</ele>
        <time>2018-07-22T05:09:04.000Z</time>
      </trkpt>
      <trkpt lat="42.299462" lon="-0.431784">
        <ele>1174.6</ele>
        <time>2018-07-22T05:09:05.000Z</time>
      </trkpt>
      <trkpt lat="42.29946" lon="-0.431785">
        <ele>1174.7</ele>
        <time>2018-07-22T05:09:06.000Z</time>
      </trkpt>
      <trkpt lat="42.299459" lon="-0.431785">
        <ele>1174.7</ele>
        <time>2018-07-22T05:09:07.000Z</time>
      </trkpt>
      <trkpt lat="42.299455" lon="-0.431786">
        <ele>1174.9</ele>
        <time>2018-07-22T05:09:08.000Z</time>
      </trkpt>
      <trkpt lat="42.299448" lon="-0.431787">
        <ele>1175.3</ele>
        <time>2018-07-22T05:09:09.000Z</time>
      </trkpt>
      <trkpt lat="42.299442" lon="-0.431789">
        <ele>1175.6</ele>
        <time>2018-07-22T05:09:10.000Z</time>
      </trkpt>
      <trkpt lat="42.299437" lon="-0.43179">
        <ele>1175.8</ele>
        <time>2018-07-22T05:09:11.000Z</time>
      </trkpt>
      <trkpt lat="42.299434" lon="-0.43179">
        <ele>1175.9</ele>
        <time>2018-07-22T05:09:12.000Z</time>
      </trkpt>
      <trkpt lat="42.299432" lon="-0.43179">
        <ele>1176.0</ele>
        <time>2018-07-22T05:09:13.000Z</time>
      </trkpt>
      <trkpt lat="42.29943" lon="-0.431791">
        <ele>1176.1</ele>
        <time>2018-07-22T05:09:14.000Z</time>
      </trkpt>
      <trkpt lat="42.299428" lon="-0.431791">
        <ele>1176.2</ele>
        <time>2018-07-22T05:09:15.000Z</time>
      </trkpt>
      <trkpt lat="42.299426" lon="-0.431792">
        <ele>1176.3</ele>
        <time>2018-07-22T05:09:16.000Z</time>
      </trkpt>
      <trkpt lat="42.299423" lon="-0.431793">
        <ele>1176.5</ele>
        <time>2018-07-22T05:09:17.000Z</time>
      </trkpt>
      <trkpt lat="42.299421" lon="-0.431794">
        <ele>1176.6</ele>
        <time>2018-07-22T05:09:18.000Z</time>
      </trkpt>
      <trkpt lat="42.299419" lon="-0.431795">
        <ele>1176.7</ele>
        <time>2018-07-22T05:09:19.000Z</time>
      </trkpt>
      <trkpt lat="42.299417" lon="-0.431796">
        <ele>1176.8</ele>
        <time>2018-07-22T05:09:20.000Z</time>
      </trkpt>
      <trkpt lat="42.299414" lon="-0.431797">
        <ele>1176.9</ele>
        <time>2018-07-22T05:09:21.000Z</time>
      </trkpt>
      <trkpt lat="42.299413" lon="-0.431798">
        <ele>1177.0</ele>
        <time>2018-07-22T05:09:22.000Z</time>
      </trkpt>
      <trkpt lat="42.299411" lon="-0.431799">
        <ele>1177.1</ele>
        <time>2018-07-22T05:09:23.000Z</time>
      </trkpt>
      <trkpt lat="42.299409" lon="-0.431799">
        <ele>1177.2</ele>
        <time>2018-07-22T05:09:24.000Z</time>
      </trkpt>
      <trkpt lat="42.299408" lon="-0.4318">
        <ele>1177.2</ele>
        <time>2018-07-22T05:09:25.000Z</time>
      </trkpt>
      <trkpt lat="42.299407" lon="-0.4318">
        <ele>1177.3</ele>
        <time>2018-07-22T05:09:26.000Z</time>
      </trkpt>
      <trkpt lat="42.299405" lon="-0.431801">
        <ele>1177.4</ele>
        <time>2018-07-22T05:09:27.000Z</time>
      </trkpt>
      <trkpt lat="42.299402" lon="-0.431804">
        <ele>1177.5</ele>
        <time>2018-07-22T05:09:28.000Z</time>
      </trkpt>
      <trkpt lat="42.299395" lon="-0.431808">
        <ele>1177.9</ele>
        <time>2018-07-22T05:09:29.000Z</time>
      </trkpt>
      <trkpt lat="42.29939" lon="-0.431809">
        <ele>1178.1</ele>
        <time>2018-07-22T05:09:30.000Z</time>
      </trkpt>
      <trkpt lat="42.299389" lon="-0.43181">
        <ele>1178.2</ele>
        <time>2018-07-22T05:09:31.000Z</time>
      </trkpt>
      <trkpt lat="42.299388" lon="-0.431811">
        <ele>1178.2</ele>
        <time>2018-07-22T05:09:32.000Z</time>
      </trkpt>
      <trkpt lat="42.299386" lon="-0.431813">
        <ele>1178.3</ele>
        <time>2018-07-22T05:09:33.000Z</time>
      </trkpt>
      <trkpt lat="42.299383" lon="-0.431814">
        <ele>1178.4</ele>
        <time>2018-07-22T05:09:34.000Z</time>
      </trkpt>
      <trkpt lat="42.299381" lon="-0.431815">
        <ele>1178.5</ele>
        <time>2018-07-22T05:09:35.000Z</time>
      </trkpt>
      <trkpt lat="42.299378" lon="-0.431817">
        <ele>1178.7</ele>
        <time>2018-07-22T05:09:36.000Z</time>
      </trkpt>
      <trkpt lat="42.299376" lon="-0.431817">
        <ele>1178.8</ele>
        <time>2018-07-22T05:09:37.000Z</time>
      </trkpt>
      <trkpt lat="42.299374" lon="-0.431818">
        <ele>1178.9</ele>
        <time>2018-07-22T05:09:38.000Z</time>
      </trkpt>
      <trkpt lat="42.299373" lon="-0.431819">
        <ele>1178.9</ele>
        <time>2018-07-22T05:09:39.000Z</time>
      </trkpt>
      <trkpt lat="42.299371" lon="-0.431821">
        <ele>1179.0</ele>
        <time>2018-07-22T05:09:40.000Z</time>
      </trkpt>
      <trkpt lat="42.299368" lon="-0.431823">
        <ele>1179.2</ele>
        <time>2018-07-22T05:09:41.000Z</time>
      </trkpt>
      <trkpt lat="42.299365" lon="-0.431826">
        <ele>1179.3</ele>
        <time>2018-07-22T05:09:42.000Z</time>
      </trkpt>
      <trkpt lat="42.29936" lon="-0.431834">
        <ele>1179.6</ele>
        <time>2018-07-22T05:09:43.000Z</time>
      </trkpt>
      <trkpt lat="42.299354" lon="-0.431839">
        <ele>1179.9</ele>
        <time>2018-07-22T05:09:44.000Z</time>
      </trkpt>
      <trkpt lat="42.299349" lon="-0.431842">
        <ele>1180.1</ele>
        <time>2018-07-22T05:09:45.000Z</time>
      </trkpt>
      <trkpt lat="42.299345" lon="-0.431844">
        <ele>1180.3</ele>
        <time>2018-07-22T05:09:46.000Z</time>
      </trkpt>
      <trkpt lat="42.299341" lon="-0.431845">
        <ele>1180.5</ele>
        <time>2018-07-22T05:09:47.000Z</time>
      </trkpt>
      <trkpt lat="42.299338" lon="-0.431845">
        <ele>1180.7</ele>
        <time>2018-07-22T05:09:48.000Z</time>
      </trkpt>
      <trkpt lat="42.299336" lon="-0.431846">
        <ele>1180.8</ele>
        <time>2018-07-22T05:09:49.000Z</time>
      </trkpt>
      <trkpt lat="42.299334" lon="-0.431846">
        <ele>1180.9</ele>
        <time>2018-07-22T05:09:50.000Z</time>
      </trkpt>
      <trkpt lat="42.299332" lon="-0.431846">
        <ele>1181.0</ele>
        <time>2018-07-22T05:09:51.000Z</time>
      </trkpt>
      <trkpt lat="42.299331" lon="-0.431847">
        <ele>1181.0</ele>
        <time>2018-07-22T05:09:52.000Z</time>
      </trkpt>
      <trkpt lat="42.299329" lon="-0.431848">
        <ele>1181.1</ele>
        <time>2018-07-22T05:09:53.000Z</time>
      </trkpt>
      <trkpt lat="42.299328" lon="-0.431849">
        <ele>1181.1</ele>
        <time>2018-07-22T05:09:54.000Z</time>
      </trkpt>
      <trkpt lat="42.299326" lon="-0.43185">
        <ele>1181.2</ele>
        <time>2018-07-22T05:09:55.000Z</time>
      </trkpt>
      <trkpt lat="42.299324" lon="-0.431851">
        <ele>1181.3</ele>
        <time>2018-07-22T05:09:56.000Z</time>
      </trkpt>
      <trkpt lat="42.299322" lon="-0.431852">
        <ele>1181.4</ele>
        <time>2018-07-22T05:09:57.000Z</time>
      </trkpt>
      <trkpt lat="42.299319" lon="-0.431852">
        <ele>1181.6</ele>
        <time>2018-07-22T05:09:58.000Z</time>
      </trkpt>
      <trkpt lat="42.299315" lon="-0.431859">
        <ele>1181.8</ele>
        <time>2018-07-22T05:09:59.000Z</time>
      </trkpt>
      <trkpt lat="42.299307" lon="-0.431868">
        <ele>1182.2</ele>
        <time>2018-07-22T05:10:00.000Z</time>
      </trkpt>
      <trkpt lat="42.299299" lon="-0.431872">
        <ele>1182.6</ele>
        <time>2018-07-22T05:10:01.000Z</time>
      </trkpt>
      <trkpt lat="42.299295" lon="-0.431873">
        <ele>1182.8</ele>
        <time>2018-07-22T05:10:02.000Z</time>
      </trkpt>
      <trkpt lat="42.299294" lon="-0.431873">
        <ele>1182.8</ele>
        <time>2018-07-22T05:10:03.000Z</time>
      </trkpt>
      <trkpt lat="42.299294" lon="-0.431874">
        <ele>1182.8</ele>
        <time>2018-07-22T05:10:04.000Z</time>
      </trkpt>
      <trkpt lat="42.299293" lon="-0.431874">
        <ele>1182.9</ele>
        <time>2018-07-22T05:10:05.000Z</time>
      </trkpt>
      <trkpt lat="42.299292" lon="-0.431875">
        <ele>1182.9</ele>
        <time>2018-07-22T05:10:06.000Z</time>
      </trkpt>
      <trkpt lat="42.29929" lon="-0.431876">
        <ele>1183.0</ele>
        <time>2018-07-22T05:10:07.000Z</time>
      </trkpt>
      <trkpt lat="42.299289" lon="-0.431876">
        <ele>1183.1</ele>
        <time>2018-07-22T05:10:08.000Z</time>
      </trkpt>
      <trkpt lat="42.299287" lon="-0.431877">
        <ele>1183.2</ele>
        <time>2018-07-22T05:10:09.000Z</time>
      </trkpt>
      <trkpt lat="42.299284" lon="-0.431878">
        <ele>1183.3</ele>
        <time>2018-07-22T05:10:10.000Z</time>
      </trkpt>
      <trkpt lat="42.299282" lon="-0.431879">
        <ele>1183.4</ele>
        <time>2018-07-22T05:10:11.000Z</time>
      </trkpt>
      <trkpt lat="42.29928" lon="-0.431879">
        <ele>1183.5</ele>
        <time>2018-07-22T05:10:12.000Z</time>
      </trkpt>
      <trkpt lat="42.299277" lon="-0.43188">
        <ele>1183.6</ele>
        <time>2018-07-22T05:10:13.000Z</time>
      </trkpt>
      <trkpt lat="42.299275" lon="-0.431881">
        <ele>1183.7</ele>
        <time>2018-07-22T05:10:14.000Z</time>
      </trkpt>
      <trkpt lat="42.299274" lon="-0.431883">
        <ele>1183.8</ele>
        <time>2018-07-22T05:10:15.000Z</time>
      </trkpt>
      <trkpt lat="42.299273" lon="-0.431884">
        <ele>1183.8</ele>
        <time>2018-07-22T05:10:16.000Z</time>
      </trkpt>
      <trkpt lat="42.299271" lon="-0.431885">
        <ele>1183.9</ele>
        <time>2018-07-22T05:10:17.000Z</time>
      </trkpt>
      <trkpt lat="42.29927" lon="-0.431887">
        <ele>1184.0</ele>
        <time>2018-07-22T05:10:18.000Z</time>
      </trkpt>
      <trkpt lat="42.299269" lon="-0.431888">
        <ele>1184.0</ele>
        <time>2018-07-22T05:10:19.000Z</time>
      </trkpt>
      <trkpt lat="42.299267" lon="-0.431891">
        <ele>1184.1</ele>
        <time>2018-07-22T05:10:20.000Z</time>
      </trkpt>
      <trkpt lat="42.29926" lon="-0.431899">
        <ele>1184.5</ele>
        <time>2018-07-22T05:10:21.000Z</time>
      </trkpt>
      <trkpt lat="42.299255" lon="-0.431903">
        <ele>1184.7</ele>
        <time>2018-07-22T05:10:22.000Z</time>
      </trkpt>
      <trkpt lat="42.299251" lon="-0.431905">
        <ele>1184.9</ele>
        <time>2018-07-22T05:10:23.000Z</time>
      </trkpt>
      <trkpt lat="42.299248" lon="-0.431906">
        <ele>1185.1</ele>
        <time>2018-07-22T05:10:24.000Z</time>
      </trkpt>
      <trkpt lat="42.299246" lon="-0.431906">
        <ele>1185.2</ele>
        <time>2018-07-22T05:10:25.000Z</time>
      </trkpt>
      <trkpt lat="42.299243" lon="-0.431907">
        <ele>1185.3</ele>
        <time>2018-07-22T05:10:26.000Z</time>
      </trkpt>
      <trkpt lat="42.29924" lon="-0.431908">
        <ele>1185.4</ele>
        <time>2018-07-22T05:10:27.000Z</time>
      </trkpt>
      <trkpt lat="42.299238" lon="-0.43191">
        <ele>1185.5</ele>
        <time>2018-07-22T05:10:28.000Z</time>
      </trkpt>
      <trkpt lat="42.299236" lon="-0.431911">
        <ele>1185.6</ele>
        <time>2018-07-22T05:10:29.000Z</time>
      </trkpt>
      <trkpt lat="42.299234" lon="-0.431912">
        <ele>1185.7</ele>
        <time>2018-07-22T05:10:30.000Z</time>
      </trkpt>
      <trkpt lat="42.299233" lon="-0.431912">
        <ele>1185.8</ele>
        <time>2018-07-22T05:10:31.000Z</time>
      </trkpt>
      <trkpt lat="42.299233" lon="-0.431912">
        <ele>1185.8</ele>
        <time>2018-07-22T05:10:32.000Z</time>
      </trkpt>
      <trkpt lat="42.299231" lon="-0.431913">
        <ele>1185.9</ele>
        <time>2018-07-22T05:10:33.000Z</time>
      </trkpt>
      <trkpt lat="42.299229" lon="-0.431913">
        <ele>1186.0</ele>
        <time>2018-07-22T05:10:34.000Z</time>
      </trkpt>
      <trkpt lat="42.299227" lon="-0.431914">
        <ele>1186.1</ele>
        <time>2018-07-22T05:10:35.000Z</time>
      </trkpt>
      <trkpt lat="42.299225" lon="-0.431914">
        <ele>1186.2</ele>
        <time>2018-07-22T05:10:36.000Z</time>
      </trkpt>
      <trkpt lat="42.299224" lon="-0.431914">
        <ele>1186.2</ele>
        <time>2018-07-22T05:10:37.000Z</time>
      </trkpt>
      <trkpt lat="42.299223" lon="-0.431915">
        <ele>1186.3</ele>
        <time>2018-07-22T05:10:38.000Z</time>
      </trkpt>
      <trkpt lat="42.29922" lon="-0.431915">
        <ele>1186.4</ele>
        <time>2018-07-22T05:10:39.000Z</time>
      </trkpt>
      <trkpt lat="42.299218" lon="-0.431915">
        <ele>1186.5</ele>
        <time>2018-07-22T05:10:40.000Z</time>
      </trkpt>
      <trkpt lat="42.299214" lon="-0.431916">
        <ele>1186.7</ele>
        <time>2018-07-22T05:10:41.000Z</time>
      </trkpt>
      <trkpt lat="42.29921" lon="-0.431917">
        <ele>1186.9</ele>
        <time>2018-07-22T05:10:42.000Z</time>
      </trkpt>
      <trkpt lat="42.299206" lon="-0.431918">
        <ele>1187.1</ele>
        <time>2018-07-22T05:10:43.000Z</time>
      </trkpt>
      <trkpt lat="42.299204" lon="-0.431918">
        <ele>1187.2</ele>
        <time>2018-07-22T05:10:44.000Z</time>
      </trkpt>
      <trkpt lat="42.299202" lon="-0.431918">
        <ele>1187.3</ele>
        <time>2018-07-22T05:10:45.000Z</time>
      </trkpt>
      <trkpt lat="42.299201" lon="-0.431918">
        <ele>1187.3</ele>
        <time>2018-07-22T05:10:46.000Z</time>
      </trkpt>
      <trkpt lat="42.299201" lon="-0.431919">
        <ele>1187.3</ele>
        <time>2018-07-22T05:10:47.000Z</time>
      </trkpt>
      <trkpt lat="42.2992" lon="-0.431919">
        <ele>1187.4</ele>
        <time>2018-07-22T05:10:48.000Z</time>
      </trkpt>
      <trkpt lat="42.2992" lon="-0.431919">
        <ele>1187.4</ele>
        <time>2018-07-22T05:10:49.000Z</time>
      </trkpt>
      <trkpt lat="42.299199" lon="-0.431919">
        <ele>1187.4</ele>
        <time>2018-07-22T05:10:50.000Z</time>
      </trkpt>
      <trkpt lat="42.299198" lon="-0.431919">
        <ele>1187.5</ele>
        <time>2018-07-22T05:10:51.000Z</time>
      </trkpt>
      <trkpt lat="42.299197" lon="-0.431919">
        <ele>1187.5</ele>
        <time>2018-07-22T05:10:52.000Z</time>
      </trkpt>
      <trkpt lat="42.299195" lon="-0.431919">
        <ele>1187.6</ele>
        <time>2018-07-22T05:10:53.000Z</time>
      </trkpt>
      <trkpt lat="42.299193" lon="-0.43192">
        <ele>1187.7</ele>
        <time>2018-07-22T05:10:54.000Z</time>
      </trkpt>
      <trkpt lat="42.299191" lon="-0.43192">
        <ele>1187.8</ele>
        <time>2018-07-22T05:10:55.000Z</time>
      </trkpt>
      <trkpt lat="42.299189" lon="-0.43192">
        <ele>1187.9</ele>
        <time>2018-07-22T05:10:56.000Z</time>
      </trkpt>
      <trkpt lat="42.299186" lon="-0.431918">
        <ele>1188.1</ele>
        <time>2018-07-22T05:10:57.000Z</time>
      </trkpt>
      <trkpt lat="42.29918" lon="-0.431914">
        <ele>1188.4</ele>
        <time>2018-07-22T05:10:58.000Z</time>
      </trkpt>
      <trkpt lat="42.299174" lon="-0.431909">
        <ele>1188.6</ele>
        <time>2018-07-22T05:10:59.000Z</time>
      </trkpt>
      <trkpt lat="42.299168" lon="-0.431905">
        <ele>1188.9</ele>
        <time>2018-07-22T05:11:00.000Z</time>
      </trkpt>
      <trkpt lat="42.299164" lon="-0.431903">
        <ele>1189.1</ele>
        <time>2018-07-22T05:11:01.000Z</time>
      </trkpt>
      <trkpt lat="42.299161" lon="-0.431901">
        <ele>1189.2</ele>
        <time>2018-07-22T05:11:02.000Z</time>
      </trkpt>
      <trkpt lat="42.299158" lon="-0.4319">
        <ele>1189.2</ele>
        <time>2018-07-22T05:11:03.000Z</time>
      </trkpt>
      <trkpt lat="42.299156" lon="-0.431899">
        <ele>1189.3</ele>
        <time>2018-07-22T05:11:04.000Z</time>
      </trkpt>
      <trkpt lat="42.299155" lon="-0.431898">
        <ele>1189.3</ele>
        <time>2018-07-22T05:11:05.000Z</time>
      </trkpt>
      <trkpt lat="42.299153" lon="-0.431897">
        <ele>1189.4</ele>
        <time>2018-07-22T05:11:06.000Z</time>
      </trkpt>
      <trkpt lat="42.299151" lon="-0.431896">
        <ele>1189.4</ele>
        <time>2018-07-22T05:11:07.000Z</time>
      </trkpt>
      <trkpt lat="42.299149" lon="-0.431895">
        <ele>1189.5</ele>
        <time>2018-07-22T05:11:08.000Z</time>
      </trkpt>
      <trkpt lat="42.299148" lon="-0.431895">
        <ele>1189.5</ele>
        <time>2018-07-22T05:11:09.000Z</time>
      </trkpt>
      <trkpt lat="42.299146" lon="-0.431894">
        <ele>1189.6</ele>
        <time>2018-07-22T05:11:10.000Z</time>
      </trkpt>
      <trkpt lat="42.299144" lon="-0.431893">
        <ele>1189.6</ele>
        <time>2018-07-22T05:11:11.000Z</time>
      </trkpt>
      <trkpt lat="42.299142" lon="-0.431893">
        <ele>1189.7</ele>
        <time>2018-07-22T05:11:12.000Z</time>
      </trkpt>
      <trkpt lat="42.29914" lon="-0.431892">
        <ele>1189.7</ele>
        <time>2018-07-22T05:11:13.000Z</time>
      </trkpt>
      <trkpt lat="42.299139" lon="-0.431892">
        <ele>1189.8</ele>
        <time>2018-07-22T05:11:14.000Z</time>
      </trkpt>
      <trkpt lat="42.299137" lon="-0.431892">
        <ele>1189.8</ele>
        <time>2018-07-22T05:11:15.000Z</time>
      </trkpt>
      <trkpt lat="42.299137" lon="-0.431892">
        <ele>1189.8</ele>
        <time>2018-07-22T05:11:16.000Z</time>
      </trkpt>
      <trkpt lat="42.299137" lon="-0.431892">
        <ele>1189.8</ele>
        <time>2018-07-22T05:11:17.000Z</time>
      </trkpt>
      <trkpt lat="42.299132" lon="-0.431891">
        <ele>1190.0</ele>
        <time>2018-07-22T05:11:18.000Z</time>
      </trkpt>
      <trkpt lat="42.299124" lon="-0.43189">
        <ele>1190.2</ele>
        <time>2018-07-22T05:11:19.000Z</time>
      </trkpt>
      <trkpt lat="42.299119" lon="-0.431889">
        <ele>1190.3</ele>
        <time>2018-07-22T05:11:20.000Z</time>
      </trkpt>
      <trkpt lat="42.299117" lon="-0.431889">
        <ele>1190.4</ele>
        <time>2018-07-22T05:11:21.000Z</time>
      </trkpt>
      <trkpt lat="42.299117" lon="-0.431889">
        <ele>1190.4</ele>
        <time>2018-07-22T05:11:22.000Z</time>
      </trkpt>
      <trkpt lat="42.299116" lon="-0.431889">
        <ele>1190.4</ele>
        <time>2018-07-22T05:11:23.000Z</time>
      </trkpt>
      <trkpt lat="42.299114" lon="-0.431888">
        <ele>1190.5</ele>
        <time>2018-07-22T05:11:24.000Z</time>
      </trkpt>
      <trkpt lat="42.299112" lon="-0.431887">
        <ele>1190.5</ele>
        <time>2018-07-22T05:11:25.000Z</time>
      </trkpt>
      <trkpt lat="42.29911" lon="-0.431886">
        <ele>1190.6</ele>
        <time>2018-07-22T05:11:26.000Z</time>
      </trkpt>
      <trkpt lat="42.299108" lon="-0.431885">
        <ele>1190.6</ele>
        <time>2018-07-22T05:11:27.000Z</time>
      </trkpt>
      <trkpt lat="42.299106" lon="-0.431884">
        <ele>1190.7</ele>
        <time>2018-07-22T05:11:28.000Z</time>
      </trkpt>
      <trkpt lat="42.299105" lon="-0.431883">
        <ele>1190.7</ele>
        <time>2018-07-22T05:11:29.000Z</time>
      </trkpt>
      <trkpt lat="42.299103" lon="-0.431883">
        <ele>1190.7</ele>
        <time>2018-07-22T05:11:30.000Z</time>
      </trkpt>
      <trkpt lat="42.299102" lon="-0.431882">
        <ele>1190.8</ele>
        <time>2018-07-22T05:11:31.000Z</time>
      </trkpt>
      <trkpt lat="42.299099" lon="-0.431879">
        <ele>1190.9</ele>
        <time>2018-07-22T05:11:32.000Z</time>
      </trkpt>
      <trkpt lat="42.299094" lon="-0.431872">
        <ele>1191.0</ele>
        <time>2018-07-22T05:11:33.000Z</time>
      </trkpt>
      <trkpt lat="42.299089" lon="-0.431864">
        <ele>1191.1</ele>
        <time>2018-07-22T05:11:34.000Z</time>
      </trkpt>
      <trkpt lat="42.299084" lon="-0.431858">
        <ele>1191.2</ele>
        <time>2018-07-22T05:11:35.000Z</time>
      </trkpt>
      <trkpt lat="42.299079" lon="-0.431852">
        <ele>1191.3</ele>
        <time>2018-07-22T05:11:36.000Z</time>
      </trkpt>
      <trkpt lat="42.299075" lon="-0.431847">
        <ele>1191.4</ele>
        <time>2018-07-22T05:11:37.000Z</time>
      </trkpt>
      <trkpt lat="42.299072" lon="-0.431843">
        <ele>1191.5</ele>
        <time>2018-07-22T05:11:38.000Z</time>
      </trkpt>
      <trkpt lat="42.299069" lon="-0.43184">
        <ele>1191.6</ele>
        <time>2018-07-22T05:11:39.000Z</time>
      </trkpt>
      <trkpt lat="42.299066" lon="-0.431838">
        <ele>1191.7</ele>
        <time>2018-07-22T05:11:40.000Z</time>
      </trkpt>
      <trkpt lat="42.299063" lon="-0.431835">
        <ele>1191.7</ele>
        <time>2018-07-22T05:11:41.000Z</time>
      </trkpt>
      <trkpt lat="42.299061" lon="-0.431833">
        <ele>1191.8</ele>
        <time>2018-07-22T05:11:42.000Z</time>
      </trkpt>
      <trkpt lat="42.299059" lon="-0.431832">
        <ele>1191.8</ele>
        <time>2018-07-22T05:11:43.000Z</time>
      </trkpt>
      <trkpt lat="42.299057" lon="-0.43183">
        <ele>1191.9</ele>
        <time>2018-07-22T05:11:44.000Z</time>
      </trkpt>
      <trkpt lat="42.299055" lon="-0.431828">
        <ele>1191.9</ele>
        <time>2018-07-22T05:11:45.000Z</time>
      </trkpt>
      <trkpt lat="42.299052" lon="-0.431826">
        <ele>1192.0</ele>
        <time>2018-07-22T05:11:46.000Z</time>
      </trkpt>
      <trkpt lat="42.29905" lon="-0.431824">
        <ele>1192.1</ele>
        <time>2018-07-22T05:11:47.000Z</time>
      </trkpt>
      <trkpt lat="42.299048" lon="-0.431822">
        <ele>1192.1</ele>
        <time>2018-07-22T05:11:48.000Z</time>
      </trkpt>
      <trkpt lat="42.299041" lon="-0.431816">
        <ele>1192.3</ele>
        <time>2018-07-22T05:11:49.000Z</time>
      </trkpt>
      <trkpt lat="42.299036" lon="-0.431813">
        <ele>1192.4</ele>
        <time>2018-07-22T05:11:50.000Z</time>
      </trkpt>
      <trkpt lat="42.299031" lon="-0.43181">
        <ele>1192.5</ele>
        <time>2018-07-22T05:11:51.000Z</time>
      </trkpt>
      <trkpt lat="42.299026" lon="-0.431807">
        <ele>1192.6</ele>
        <time>2018-07-22T05:11:52.000Z</time>
      </trkpt>
      <trkpt lat="42.299023" lon="-0.431805">
        <ele>1192.7</ele>
        <time>2018-07-22T05:11:53.000Z</time>
      </trkpt>
      <trkpt lat="42.29902" lon="-0.431803">
        <ele>1192.8</ele>
        <time>2018-07-22T05:11:54.000Z</time>
      </trkpt>
      <trkpt lat="42.299017" lon="-0.431802">
        <ele>1192.8</ele>
        <time>2018-07-22T05:11:55.000Z</time>
      </trkpt>
      <trkpt lat="42.299015" lon="-0.4318">
        <ele>1192.9</ele>
        <time>2018-07-22T05:11:56.000Z</time>
      </trkpt>
      <trkpt lat="42.299013" lon="-0.431799">
        <ele>1192.9</ele>
        <time>2018-07-22T05:11:57.000Z</time>
      </trkpt>
      <trkpt lat="42.29901" lon="-0.431797">
        <ele>1193.0</ele>
        <time>2018-07-22T05:11:58.000Z</time>
      </trkpt>
      <trkpt lat="42.299007" lon="-0.431796">
        <ele>1193.1</ele>
        <time>2018-07-22T05:11:59.000Z</time>
      </trkpt>
      <trkpt lat="42.299005" lon="-0.431795">
        <ele>1193.1</ele>
        <time>2018-07-22T05:12:00.000Z</time>
      </trkpt>
      <trkpt lat="42.299003" lon="-0.431794">
        <ele>1193.2</ele>
        <time>2018-07-22T05:12:01.000Z</time>
      </trkpt>
      <trkpt lat="42.298999" lon="-0.431792">
        <ele>1193.3</ele>
        <time>2018-07-22T05:12:02.000Z</time>
      </trkpt>
      <trkpt lat="42.298993" lon="-0.431789">
        <ele>1193.4</ele>
        <time>2018-07-22T05:12:03.000Z</time>
      </trkpt>
      <trkpt lat="42.298987" lon="-0.431787">
        <ele>1193.6</ele>
        <time>2018-07-22T05:12:04.000Z</time>
      </trkpt>
      <trkpt lat="42.298983" lon="-0.431785">
        <ele>1193.7</ele>
        <time>2018-07-22T05:12:05.000Z</time>
      </trkpt>
      <trkpt lat="42.298979" lon="-0.431783">
        <ele>1193.8</ele>
        <time>2018-07-22T05:12:06.000Z</time>
      </trkpt>
      <trkpt lat="42.298976" lon="-0.431782">
        <ele>1193.8</ele>
        <time>2018-07-22T05:12:07.000Z</time>
      </trkpt>
      <trkpt lat="42.298974" lon="-0.431781">
        <ele>1193.9</ele>
        <time>2018-07-22T05:12:08.000Z</time>
      </trkpt>
      <trkpt lat="42.298971" lon="-0.43178">
        <ele>1193.9</ele>
        <time>2018-07-22T05:12:09.000Z</time>
      </trkpt>
      <trkpt lat="42.29897" lon="-0.431779">
        <ele>1194.0</ele>
        <time>2018-07-22T05:12:10.000Z</time>
      </trkpt>
      <trkpt lat="42.298968" lon="-0.431779">
        <ele>1194.0</ele>
        <time>2018-07-22T05:12:11.000Z</time>
      </trkpt>
      <trkpt lat="42.298967" lon="-0.431778">
        <ele>1194.0</ele>
        <time>2018-07-22T05:12:12.000Z</time>
      </trkpt>
      <trkpt lat="42.298966" lon="-0.431778">
        <ele>1194.1</ele>
        <time>2018-07-22T05:12:13.000Z</time>
      </trkpt>
      <trkpt lat="42.298965" lon="-0.431777">
        <ele>1194.1</ele>
        <time>2018-07-22T05:12:14.000Z</time>
      </trkpt>
      <trkpt lat="42.298964" lon="-0.431777">
        <ele>1194.1</ele>
        <time>2018-07-22T05:12:15.000Z</time>
      </trkpt>
      <trkpt lat="42.298963" lon="-0.431777">
        <ele>1194.1</ele>
        <time>2018-07-22T05:12:16.000Z</time>
      </trkpt>
      <trkpt lat="42.298963" lon="-0.431777">
        <ele>1194.1</ele>
        <time>2018-07-22T05:12:17.000Z</time>
      </trkpt>
      <trkpt lat="42.298963" lon="-0.431777">
        <ele>1194.1</ele>
        <time>2018-07-22T05:12:18.000Z</time>
      </trkpt>
      <trkpt lat="42.298963" lon="-0.431777">
        <ele>1194.1</ele>
        <time>2018-07-22T05:12:19.000Z</time>
      </trkpt>
      <trkpt lat="42.298962" lon="-0.431777">
        <ele>1194.2</ele>
        <time>2018-07-22T05:12:20.000Z</time>
      </trkpt>
      <trkpt lat="42.298962" lon="-0.431777">
        <ele>1194.2</ele>
        <time>2018-07-22T05:12:21.000Z</time>
      </trkpt>
      <trkpt lat="42.298962" lon="-0.431777">
        <ele>1194.2</ele>
        <time>2018-07-22T05:12:22.000Z</time>
      </trkpt>
      <trkpt lat="42.298962" lon="-0.431777">
        <ele>1194.2</ele>
        <time>2018-07-22T05:12:23.000Z</time>
      </trkpt>
      <trkpt lat="42.298962" lon="-0.431777">
        <ele>1194.2</ele>
        <time>2018-07-22T05:12:24.000Z</time>
      </trkpt>
      <trkpt lat="42.298962" lon="-0.431777">
        <ele>1194.2</ele>
        <time>2018-07-22T05:12:25.000Z</time>
      </trkpt>
      <trkpt lat="42.298962" lon="-0.431777">
        <ele>1194.2</ele>
        <time>2018-07-22T05:12:26.000Z</time>
      </trkpt>
      <trkpt lat="42.298962" lon="-0.431777">
        <ele>1194.2</ele>
        <time>2018-07-22T05:12:27.000Z</time>
      </trkpt>
      <trkpt lat="42.298962" lon="-0.431777">
        <ele>1194.2</ele>
        <time>2018-07-22T05:12:28.000Z</time>
      </trkpt>
      <trkpt lat="42.298962" lon="-0.431777">
        <ele>1194.2</ele>
        <time>2018-07-22T05:12:29.000Z</time>
      </trkpt>
      <trkpt lat="42.298962" lon="-0.431777">
        <ele>1194.2</ele>
        <time>2018-07-22T05:12:30.000Z</time>
      </trkpt>
      <trkpt lat="42.298962" lon="-0.431777">
        <ele>1194.2</ele>
        <time>2018-07-22T05:12:31.000Z</time>
      </trkpt>
      <trkpt lat="42.298962" lon="-0.431777">
        <ele>1194.2</ele>
        <time>2018-07-22T05:12:32.000Z</time>
      </trkpt>
      <trkpt lat="42.298962" lon="-0.431777">
        <ele>1194.2</ele>
        <time>2018-07-22T05:12:33.000Z</time>
      </trkpt>
      <trkpt lat="42.298962" lon="-0.431777">
        <ele>1194.2</ele>
        <time>2018-07-22T05:12:34.000Z</time>
      </trkpt>
      <trkpt lat="42.298962" lon="-0.431777">
        <ele>1194.2</ele>
        <time>2018-07-22T05:12:35.000Z</time>
      </trkpt>
      <trkpt lat="42.298962" lon="-0.431777">
        <ele>1194.2</ele>
        <time>2018-07-22T05:12:36.000Z</time>
      </trkpt>
      <trkpt lat="42.298962" lon="-0.431777">
        <ele>1194.2</ele>
        <time>2018-07-22T05:12:37.000Z</time>
      </trkpt>
      <trkpt lat="42.298962" lon="-0.431777">
        <ele>1194.2</ele>
        <time>2018-07-22T05:12:38.000Z</time>
      </trkpt>
      <trkpt lat="42.298962" lon="-0.431777">
        <ele>1194.2</ele>
        <time>2018-07-22T05:12:39.000Z</time>
      </trkpt>
      <trkpt lat="42.298961" lon="-0.431777">
        <ele>1194.2</ele>
        <time>2018-07-22T05:12:40.000Z</time>
      </trkpt>
      <trkpt lat="42.298961" lon="-0.431777">
        <ele>1194.2</ele>
        <time>2018-07-22T05:12:41.000Z</time>
      </trkpt>
      <trkpt lat="42.298961" lon="-0.431777">
        <ele>1194.2</ele>
        <time>2018-07-22T05:12:42.000Z</time>
      </trkpt>
      <trkpt lat="42.298961" lon="-0.431777">
        <ele>1194.2</ele>
        <time>2018-07-22T05:12:43.000Z</time>
      </trkpt>
      <trkpt lat="42.298961" lon="-0.431777">
        <ele>1194.2</ele>
        <time>2018-07-22T05:12:44.000Z</time>
      </trkpt>
      <trkpt lat="42.298961" lon="-0.431777">
        <ele>1194.2</ele>
        <time>2018-07-22T05:12:45.000Z</time>
      </trkpt>
      <trkpt lat="42.29896" lon="-0.431776">
        <ele>1194.2</ele>
        <time>2018-07-22T05:12:46.000Z</time>
      </trkpt>
      <trkpt lat="42.29896" lon="-0.431776">
        <ele>1194.2</ele>
        <time>2018-07-22T05:12:47.000Z</time>
      </trkpt>
      <trkpt lat="42.29896" lon="-0.431776">
        <ele>1194.2</ele>
        <time>2018-07-22T05:12:48.000Z</time>
      </trkpt>
      <trkpt lat="42.29896" lon="-0.431776">
        <ele>1194.2</ele>
        <time>2018-07-22T05:12:49.000Z</time>
      </trkpt>
      <trkpt lat="42.298959" lon="-0.431776">
        <ele>1194.2</ele>
        <time>2018-07-22T05:12:50.000Z</time>
      </trkpt>
      <trkpt lat="42.298959" lon="-0.431776">
        <ele>1194.2</ele>
        <time>2018-07-22T05:12:51.000Z</time>
      </trkpt>
      <trkpt lat="42.298958" lon="-0.431775">
        <ele>1194.2</ele>
        <time>2018-07-22T05:12:52.000Z</time>
      </trkpt>
      <trkpt lat="42.298958" lon="-0.431775">
        <ele>1194.2</ele>
        <time>2018-07-22T05:12:53.000Z</time>
      </trkpt>
      <trkpt lat="42.298957" lon="-0.431774">
        <ele>1194.3</ele>
        <time>2018-07-22T05:12:54.000Z</time>
      </trkpt>
      <trkpt lat="42.298956" lon="-0.431774">
        <ele>1194.3</ele>
        <time>2018-07-22T05:12:55.000Z</time>
      </trkpt>
      <trkpt lat="42.298955" lon="-0.431773">
        <ele>1194.3</ele>
        <time>2018-07-22T05:12:56.000Z</time>
      </trkpt>
      <trkpt lat="42.298954" lon="-0.431772">
        <ele>1194.3</ele>
        <time>2018-07-22T05:12:57.000Z</time>
      </trkpt>
      <trkpt lat="42.298953" lon="-0.431771">
        <ele>1194.4</ele>
        <time>2018-07-22T05:12:58.000Z</time>
      </trkpt>
      <trkpt lat="42.298953" lon="-0.431772">
        <ele>1194.4</ele>
        <time>2018-07-22T05:12:59.000Z</time>
      </trkpt>
      <trkpt lat="42.298951" lon="-0.43177">
        <ele>1194.4</ele>
        <time>2018-07-22T05:13:00.000Z</time>
      </trkpt>
      <trkpt lat="42.298948" lon="-0.431761">
        <ele>1194.4</ele>
        <time>2018-07-22T05:13:01.000Z</time>
      </trkpt>
      <trkpt lat="42.298947" lon="-0.431759">
        <ele>1194.4</ele>
        <time>2018-07-22T05:13:02.000Z</time>
      </trkpt>
      <trkpt lat="42.298947" lon="-0.431759">
        <ele>1194.4</ele>
        <time>2018-07-22T05:13:03.000Z</time>
      </trkpt>
      <trkpt lat="42.298947" lon="-0.431759">
        <ele>1194.4</ele>
        <time>2018-07-22T05:13:04.000Z</time>
      </trkpt>
      <trkpt lat="42.298947" lon="-0.431759">
        <ele>1194.4</ele>
        <time>2018-07-22T05:13:05.000Z</time>
      </trkpt>
      <trkpt lat="42.298946" lon="-0.431759">
        <ele>1194.5</ele>
        <time>2018-07-22T05:13:06.000Z</time>
      </trkpt>
      <trkpt lat="42.298946" lon="-0.431759">
        <ele>1194.5</ele>
        <time>2018-07-22T05:13:07.000Z</time>
      </trkpt>
      <trkpt lat="42.298946" lon="-0.431758">
        <ele>1194.5</ele>
        <time>2018-07-22T05:13:08.000Z</time>
      </trkpt>
      <trkpt lat="42.298946" lon="-0.431758">
        <ele>1194.5</ele>
        <time>2018-07-22T05:13:09.000Z</time>
      </trkpt>
      <trkpt lat="42.298946" lon="-0.431758">
        <ele>1194.5</ele>
        <time>2018-07-22T05:13:10.000Z</time>
      </trkpt>
      <trkpt lat="42.298946" lon="-0.431758">
        <ele>1194.5</ele>
        <time>2018-07-22T05:13:11.000Z</time>
      </trkpt>
      <trkpt lat="42.298946" lon="-0.431758">
        <ele>1194.5</ele>
        <time>2018-07-22T05:13:12.000Z</time>
      </trkpt>
      <trkpt lat="42.298946" lon="-0.431758">
        <ele>1194.5</ele>
        <time>2018-07-22T05:13:13.000Z</time>
      </trkpt>
      <trkpt lat="42.298945" lon="-0.431758">
        <ele>1194.5</ele>
        <time>2018-07-22T05:13:14.000Z</time>
      </trkpt>
      <trkpt lat="42.298945" lon="-0.431758">
        <ele>1194.5</ele>
        <time>2018-07-22T05:13:15.000Z</time>
      </trkpt>
      <trkpt lat="42.298945" lon="-0.431757">
        <ele>1194.5</ele>
        <time>2018-07-22T05:13:16.000Z</time>
      </trkpt>
      <trkpt lat="42.298945" lon="-0.431757">
        <ele>1194.5</ele>
        <time>2018-07-22T05:13:17.000Z</time>
      </trkpt>
      <trkpt lat="42.298945" lon="-0.431757">
        <ele>1194.5</ele>
        <time>2018-07-22T05:13:18.000Z</time>
      </trkpt>
      <trkpt lat="42.298945" lon="-0.431757">
        <ele>1194.5</ele>
        <time>2018-07-22T05:13:19.000Z</time>
      </trkpt>
      <trkpt lat="42.298945" lon="-0.431757">
        <ele>1194.5</ele>
        <time>2018-07-22T05:13:20.000Z</time>
      </trkpt>
      <trkpt lat="42.298945" lon="-0.431757">
        <ele>1194.5</ele>
        <time>2018-07-22T05:13:21.000Z</time>
      </trkpt>
      <trkpt lat="42.298945" lon="-0.431757">
        <ele>1194.5</ele>
        <time>2018-07-22T05:13:22.000Z</time>
      </trkpt>
      <trkpt lat="42.298944" lon="-0.431756">
        <ele>1194.5</ele>
        <time>2018-07-22T05:13:23.000Z</time>
      </trkpt>
      <trkpt lat="42.298944" lon="-0.431756">
        <ele>1194.5</ele>
        <time>2018-07-22T05:13:24.000Z</time>
      </trkpt>
      <trkpt lat="42.298944" lon="-0.431756">
        <ele>1194.5</ele>
        <time>2018-07-22T05:13:25.000Z</time>
      </trkpt>
      <trkpt lat="42.298944" lon="-0.431756">
        <ele>1194.5</ele>
        <time>2018-07-22T05:13:26.000Z</time>
      </trkpt>
      <trkpt lat="42.298944" lon="-0.431756">
        <ele>1194.5</ele>
        <time>2018-07-22T05:13:27.000Z</time>
      </trkpt>
      <trkpt lat="42.298944" lon="-0.431756">
        <ele>1194.5</ele>
        <time>2018-07-22T05:13:28.000Z</time>
      </trkpt>
      <trkpt lat="42.298943" lon="-0.431755">
        <ele>1194.5</ele>
        <time>2018-07-22T05:13:29.000Z</time>
      </trkpt>
      <trkpt lat="42.298943" lon="-0.431755">
        <ele>1194.5</ele>
        <time>2018-07-22T05:13:30.000Z</time>
      </trkpt>
      <trkpt lat="42.298943" lon="-0.431755">
        <ele>1194.5</ele>
        <time>2018-07-22T05:13:31.000Z</time>
      </trkpt>
      <trkpt lat="42.298943" lon="-0.431755">
        <ele>1194.5</ele>
        <time>2018-07-22T05:13:32.000Z</time>
      </trkpt>
      <trkpt lat="42.298943" lon="-0.431755">
        <ele>1194.5</ele>
        <time>2018-07-22T05:13:33.000Z</time>
      </trkpt>
      <trkpt lat="42.298943" lon="-0.431755">
        <ele>1194.5</ele>
        <time>2018-07-22T05:13:34.000Z</time>
      </trkpt>
      <trkpt lat="42.298944" lon="-0.431755">
        <ele>1194.5</ele>
        <time>2018-07-22T05:13:35.000Z</time>
      </trkpt>
      <trkpt lat="42.298944" lon="-0.431755">
        <ele>1194.5</ele>
        <time>2018-07-22T05:13:36.000Z</time>
      </trkpt>
      <trkpt lat="42.298944" lon="-0.431754">
        <ele>1194.5</ele>
        <time>2018-07-22T05:13:37.000Z</time>
      </trkpt>
      <trkpt lat="42.298943" lon="-0.431754">
        <ele>1194.5</ele>
        <time>2018-07-22T05:13:38.000Z</time>
      </trkpt>
      <trkpt lat="42.298942" lon="-0.431752">
        <ele>1194.5</ele>
        <time>2018-07-22T05:13:39.000Z</time>
      </trkpt>
      <trkpt lat="42.298941" lon="-0.43175">
        <ele>1194.6</ele>
        <time>2018-07-22T05:13:40.000Z</time>
      </trkpt>
      <trkpt lat="42.298939" lon="-0.431747">
        <ele>1194.6</ele>
        <time>2018-07-22T05:13:41.000Z</time>
      </trkpt>
      <trkpt lat="42.298936" lon="-0.431743">
        <ele>1194.6</ele>
        <time>2018-07-22T05:13:42.000Z</time>
      </trkpt>
      <trkpt lat="42.298933" lon="-0.431739">
        <ele>1194.7</ele>
        <time>2018-07-22T05:13:43.000Z</time>
      </trkpt>
      <trkpt lat="42.29893" lon="-0.431734">
        <ele>1194.7</ele>
        <time>2018-07-22T05:13:44.000Z</time>
      </trkpt>
      <trkpt lat="42.298927" lon="-0.43173">
        <ele>1194.8</ele>
        <time>2018-07-22T05:13:45.000Z</time>
      </trkpt>
      <trkpt lat="42.298924" lon="-0.431727">
        <ele>1194.8</ele>
        <time>2018-07-22T05:13:46.000Z</time>
      </trkpt>
      <trkpt lat="42.298921" lon="-0.431724">
        <ele>1194.9</ele>
        <time>2018-07-22T05:13:47.000Z</time>
      </trkpt>
      <trkpt lat="42.298919" lon="-0.431722">
        <ele>1194.9</ele>
        <time>2018-07-22T05:13:48.000Z</time>
      </trkpt>
      <trkpt lat="42.298917" lon="-0.43172">
        <ele>1195.0</ele>
        <time>2018-07-22T05:13:49.000Z</time>
      </trkpt>
      <trkpt lat="42.298911" lon="-0.431714">
        <ele>1195.1</ele>
        <time>2018-07-22T05:13:50.000Z</time>
      </trkpt>
      <trkpt lat="42.298903" lon="-0.431711">
        <ele>1195.3</ele>
        <time>2018-07-22T05:13:51.000Z</time>
      </trkpt>
      <trkpt lat="42.298897" lon="-0.431709">
        <ele>1195.4</ele>
        <time>2018-07-22T05:13:52.000Z</time>
      </trkpt>
      <trkpt lat="42.298894" lon="-0.431708">
        <ele>1195.5</ele>
        <time>2018-07-22T05:13:53.000Z</time>
      </trkpt>
      <trkpt lat="42.298891" lon="-0.431708">
        <ele>1195.5</ele>
        <time>2018-07-22T05:13:54.000Z</time>
      </trkpt>
      <trkpt lat="42.298889" lon="-0.431707">
        <ele>1195.6</ele>
        <time>2018-07-22T05:13:55.000Z</time>
      </trkpt>
      <trkpt lat="42.298886" lon="-0.431706">
        <ele>1195.6</ele>
        <time>2018-07-22T05:13:56.000Z</time>
      </trkpt>
      <trkpt lat="42.298881" lon="-0.431703">
        <ele>1195.7</ele>
        <time>2018-07-22T05:13:57.000Z</time>
      </trkpt>
      <trkpt lat="42.298876" lon="-0.4317">
        <ele>1195.8</ele>
        <time>2018-07-22T05:13:58.000Z</time>
      </trkpt>
      <trkpt lat="42.298872" lon="-0.431697">
        <ele>1195.9</ele>
        <time>2018-07-22T05:13:59.000Z</time>
      </trkpt>
      <trkpt lat="42.298871" lon="-0.431696">
        <ele>1195.9</ele>
        <time>2018-07-22T05:14:00.000Z</time>
      </trkpt>
      <trkpt lat="42.29887" lon="-0.431695">
        <ele>1195.9</ele>
        <time>2018-07-22T05:14:01.000Z</time>
      </trkpt>
      <trkpt lat="42.298869" lon="-0.431694">
        <ele>1196.0</ele>
        <time>2018-07-22T05:14:02.000Z</time>
      </trkpt>
      <trkpt lat="42.298868" lon="-0.431693">
        <ele>1196.0</ele>
        <time>2018-07-22T05:14:03.000Z</time>
      </trkpt>
      <trkpt lat="42.298866" lon="-0.431692">
        <ele>1196.0</ele>
        <time>2018-07-22T05:14:04.000Z</time>
      </trkpt>
      <trkpt lat="42.298865" lon="-0.431691">
        <ele>1196.0</ele>
        <time>2018-07-22T05:14:05.000Z</time>
      </trkpt>
      <trkpt lat="42.298864" lon="-0.43169">
        <ele>1196.1</ele>
        <time>2018-07-22T05:14:06.000Z</time>
      </trkpt>
      <trkpt lat="42.298863" lon="-0.43169">
        <ele>1196.1</ele>
        <time>2018-07-22T05:14:07.000Z</time>
      </trkpt>
      <trkpt lat="42.298862" lon="-0.431689">
        <ele>1196.1</ele>
        <time>2018-07-22T05:14:08.000Z</time>
      </trkpt>
      <trkpt lat="42.298861" lon="-0.431689">
        <ele>1196.1</ele>
        <time>2018-07-22T05:14:09.000Z</time>
      </trkpt>
      <trkpt lat="42.29886" lon="-0.431689">
        <ele>1196.1</ele>
        <time>2018-07-22T05:14:10.000Z</time>
      </trkpt>
      <trkpt lat="42.29886" lon="-0.431689">
        <ele>1196.1</ele>
        <time>2018-07-22T05:14:11.000Z</time>
      </trkpt>
      <trkpt lat="42.298859" lon="-0.431689">
        <ele>1196.2</ele>
        <time>2018-07-22T05:14:12.000Z</time>
      </trkpt>
      <trkpt lat="42.298859" lon="-0.431689">
        <ele>1196.2</ele>
        <time>2018-07-22T05:14:13.000Z</time>
      </trkpt>
      <trkpt lat="42.298858" lon="-0.431689">
        <ele>1196.2</ele>
        <time>2018-07-22T05:14:14.000Z</time>
      </trkpt>
      <trkpt lat="42.298857" lon="-0.431689">
        <ele>1196.2</ele>
        <time>2018-07-22T05:14:15.000Z</time>
      </trkpt>
      <trkpt lat="42.298857" lon="-0.431689">
        <ele>1196.2</ele>
        <time>2018-07-22T05:14:16.000Z</time>
      </trkpt>
      <trkpt lat="42.298856" lon="-0.431689">
        <ele>1196.2</ele>
        <time>2018-07-22T05:14:17.000Z</time>
      </trkpt>
      <trkpt lat="42.298855" lon="-0.431689">
        <ele>1196.3</ele>
        <time>2018-07-22T05:14:18.000Z</time>
      </trkpt>
      <trkpt lat="42.298854" lon="-0.431688">
        <ele>1196.3</ele>
        <time>2018-07-22T05:14:19.000Z</time>
      </trkpt>
      <trkpt lat="42.298853" lon="-0.431688">
        <ele>1196.3</ele>
        <time>2018-07-22T05:14:20.000Z</time>
      </trkpt>
      <trkpt lat="42.298851" lon="-0.431688">
        <ele>1196.3</ele>
        <time>2018-07-22T05:14:21.000Z</time>
      </trkpt>
      <trkpt lat="42.29885" lon="-0.431689">
        <ele>1196.4</ele>
        <time>2018-07-22T05:14:22.000Z</time>
      </trkpt>
      <trkpt lat="42.298848" lon="-0.431691">
        <ele>1196.4</ele>
        <time>2018-07-22T05:14:23.000Z</time>
      </trkpt>
      <trkpt lat="42.298846" lon="-0.431693">
        <ele>1196.5</ele>
        <time>2018-07-22T05:14:24.000Z</time>
      </trkpt>
      <trkpt lat="42.298842" lon="-0.431694">
        <ele>1196.6</ele>
        <time>2018-07-22T05:14:25.000Z</time>
      </trkpt>
      <trkpt lat="42.298839" lon="-0.431694">
        <ele>1196.7</ele>
        <time>2018-07-22T05:14:26.000Z</time>
      </trkpt>
      <trkpt lat="42.298836" lon="-0.431694">
        <ele>1196.7</ele>
        <time>2018-07-22T05:14:27.000Z</time>
      </trkpt>
      <trkpt lat="42.298832" lon="-0.431692">
        <ele>1196.8</ele>
        <time>2018-07-22T05:14:28.000Z</time>
      </trkpt>
      <trkpt lat="42.298829" lon="-0.431691">
        <ele>1196.9</ele>
        <time>2018-07-22T05:14:29.000Z</time>
      </trkpt>
      <trkpt lat="42.298826" lon="-0.43169">
        <ele>1196.9</ele>
        <time>2018-07-22T05:14:30.000Z</time>
      </trkpt>
      <trkpt lat="42.298822" lon="-0.431688">
        <ele>1197.0</ele>
        <time>2018-07-22T05:14:31.000Z</time>
      </trkpt>
      <trkpt lat="42.298816" lon="-0.431685">
        <ele>1197.1</ele>
        <time>2018-07-22T05:14:32.000Z</time>
      </trkpt>
      <trkpt lat="42.298809" lon="-0.431682">
        <ele>1197.3</ele>
        <time>2018-07-22T05:14:33.000Z</time>
      </trkpt>
      <trkpt lat="42.298803" lon="-0.43168">
        <ele>1197.4</ele>
        <time>2018-07-22T05:14:34.000Z</time>
      </trkpt>
      <trkpt lat="42.298797" lon="-0.431678">
        <ele>1197.5</ele>
        <time>2018-07-22T05:14:35.000Z</time>
      </trkpt>
      <trkpt lat="42.298791" lon="-0.431677">
        <ele>1197.6</ele>
        <time>2018-07-22T05:14:36.000Z</time>
      </trkpt>
      <trkpt lat="42.298785" lon="-0.431677">
        <ele>1197.8</ele>
        <time>2018-07-22T05:14:37.000Z</time>
      </trkpt>
      <trkpt lat="42.298779" lon="-0.431677">
        <ele>1197.9</ele>
        <time>2018-07-22T05:14:38.000Z</time>
      </trkpt>
      <trkpt lat="42.298774" lon="-0.431677">
        <ele>1198.0</ele>
        <time>2018-07-22T05:14:39.000Z</time>
      </trkpt>
      <trkpt lat="42.298769" lon="-0.431678">
        <ele>1198.2</ele>
        <time>2018-07-22T05:14:40.000Z</time>
      </trkpt>
      <trkpt lat="42.298765" lon="-0.431678">
        <ele>1198.3</ele>
        <time>2018-07-22T05:14:41.000Z</time>
      </trkpt>
      <trkpt lat="42.298762" lon="-0.431679">
        <ele>1198.3</ele>
        <time>2018-07-22T05:14:42.000Z</time>
      </trkpt>
      <trkpt lat="42.298758" lon="-0.431679">
        <ele>1198.4</ele>
        <time>2018-07-22T05:14:43.000Z</time>
      </trkpt>
      <trkpt lat="42.298755" lon="-0.43168">
        <ele>1198.5</ele>
        <time>2018-07-22T05:14:44.000Z</time>
      </trkpt>
      <trkpt lat="42.298753" lon="-0.43168">
        <ele>1198.6</ele>
        <time>2018-07-22T05:14:45.000Z</time>
      </trkpt>
      <trkpt lat="42.29875" lon="-0.431681">
        <ele>1198.6</ele>
        <time>2018-07-22T05:14:46.000Z</time>
      </trkpt>
      <trkpt lat="42.298747" lon="-0.431681">
        <ele>1198.7</ele>
        <time>2018-07-22T05:14:47.000Z</time>
      </trkpt>
      <trkpt lat="42.298745" lon="-0.431681">
        <ele>1198.7</ele>
        <time>2018-07-22T05:14:48.000Z</time>
      </trkpt>
      <trkpt lat="42.298742" lon="-0.431681">
        <ele>1198.8</ele>
        <time>2018-07-22T05:14:49.000Z</time>
      </trkpt>
      <trkpt lat="42.298741" lon="-0.431682">
        <ele>1198.8</ele>
        <time>2018-07-22T05:14:50.000Z</time>
      </trkpt>
      <trkpt lat="42.298739" lon="-0.431683">
        <ele>1198.9</ele>
        <time>2018-07-22T05:14:51.000Z</time>
      </trkpt>
      <trkpt lat="42.298734" lon="-0.431686">
        <ele>1199.0</ele>
        <time>2018-07-22T05:14:52.000Z</time>
      </trkpt>
      <trkpt lat="42.298729" lon="-0.431689">
        <ele>1199.2</ele>
        <time>2018-07-22T05:14:53.000Z</time>
      </trkpt>
      <trkpt lat="42.298724" lon="-0.431693">
        <ele>1199.3</ele>
        <time>2018-07-22T05:14:54.000Z</time>
      </trkpt>
      <trkpt lat="42.298719" lon="-0.431696">
        <ele>1199.5</ele>
        <time>2018-07-22T05:14:55.000Z</time>
      </trkpt>
      <trkpt lat="42.298715" lon="-0.431698">
        <ele>1199.6</ele>
        <time>2018-07-22T05:14:56.000Z</time>
      </trkpt>
      <trkpt lat="42.298711" lon="-0.4317">
        <ele>1199.7</ele>
        <time>2018-07-22T05:14:57.000Z</time>
      </trkpt>
      <trkpt lat="42.298707" lon="-0.431702">
        <ele>1199.8</ele>
        <time>2018-07-22T05:14:58.000Z</time>
      </trkpt>
      <trkpt lat="42.298705" lon="-0.431703">
        <ele>1199.9</ele>
        <time>2018-07-22T05:14:59.000Z</time>
      </trkpt>
      <trkpt lat="42.298702" lon="-0.431705">
        <ele>1200.0</ele>
        <time>2018-07-22T05:15:00.000Z</time>
      </trkpt>
      <trkpt lat="42.298695" lon="-0.431714">
        <ele>1200.2</ele>
        <time>2018-07-22T05:15:01.000Z</time>
      </trkpt>
      <trkpt lat="42.298688" lon="-0.431723">
        <ele>1200.5</ele>
        <time>2018-07-22T05:15:02.000Z</time>
      </trkpt>
      <trkpt lat="42.298684" lon="-0.431728">
        <ele>1200.6</ele>
        <time>2018-07-22T05:15:03.000Z</time>
      </trkpt>
      <trkpt lat="42.298681" lon="-0.431732">
        <ele>1200.8</ele>
        <time>2018-07-22T05:15:04.000Z</time>
      </trkpt>
      <trkpt lat="42.29868" lon="-0.431734">
        <ele>1200.8</ele>
        <time>2018-07-22T05:15:05.000Z</time>
      </trkpt>
      <trkpt lat="42.298679" lon="-0.431735">
        <ele>1200.8</ele>
        <time>2018-07-22T05:15:06.000Z</time>
      </trkpt>
      <trkpt lat="42.298679" lon="-0.431736">
        <ele>1200.8</ele>
        <time>2018-07-22T05:15:07.000Z</time>
      </trkpt>
      <trkpt lat="42.298678" lon="-0.431737">
        <ele>1200.9</ele>
        <time>2018-07-22T05:15:08.000Z</time>
      </trkpt>
      <trkpt lat="42.298678" lon="-0.431737">
        <ele>1200.9</ele>
        <time>2018-07-22T05:15:09.000Z</time>
      </trkpt>
      <trkpt lat="42.298678" lon="-0.431738">
        <ele>1200.9</ele>
        <time>2018-07-22T05:15:10.000Z</time>
      </trkpt>
      <trkpt lat="42.298677" lon="-0.431738">
        <ele>1200.9</ele>
        <time>2018-07-22T05:15:11.000Z</time>
      </trkpt>
      <trkpt lat="42.298677" lon="-0.431739">
        <ele>1200.9</ele>
        <time>2018-07-22T05:15:12.000Z</time>
      </trkpt>
      <trkpt lat="42.298677" lon="-0.431739">
        <ele>1200.9</ele>
        <time>2018-07-22T05:15:13.000Z</time>
      </trkpt>
      <trkpt lat="42.298676" lon="-0.43174">
        <ele>1201.0</ele>
        <time>2018-07-22T05:15:14.000Z</time>
      </trkpt>
      <trkpt lat="42.298676" lon="-0.43174">
        <ele>1201.0</ele>
        <time>2018-07-22T05:15:15.000Z</time>
      </trkpt>
      <trkpt lat="42.298676" lon="-0.431741">
        <ele>1201.0</ele>
        <time>2018-07-22T05:15:16.000Z</time>
      </trkpt>
      <trkpt lat="42.298676" lon="-0.431741">
        <ele>1201.0</ele>
        <time>2018-07-22T05:15:17.000Z</time>
      </trkpt>
      <trkpt lat="42.298675" lon="-0.431741">
        <ele>1201.0</ele>
        <time>2018-07-22T05:15:18.000Z</time>
      </trkpt>
      <trkpt lat="42.298675" lon="-0.431741">
        <ele>1201.0</ele>
        <time>2018-07-22T05:15:19.000Z</time>
      </trkpt>
      <trkpt lat="42.298675" lon="-0.431742">
        <ele>1201.0</ele>
        <time>2018-07-22T05:15:20.000Z</time>
      </trkpt>
      <trkpt lat="42.298675" lon="-0.431742">
        <ele>1201.0</ele>
        <time>2018-07-22T05:15:21.000Z</time>
      </trkpt>
      <trkpt lat="42.298675" lon="-0.431742">
        <ele>1201.0</ele>
        <time>2018-07-22T05:15:22.000Z</time>
      </trkpt>
      <trkpt lat="42.298675" lon="-0.431742">
        <ele>1201.0</ele>
        <time>2018-07-22T05:15:23.000Z</time>
      </trkpt>
      <trkpt lat="42.298675" lon="-0.431742">
        <ele>1201.0</ele>
        <time>2018-07-22T05:15:24.000Z</time>
      </trkpt>
      <trkpt lat="42.298674" lon="-0.431743">
        <ele>1201.0</ele>
        <time>2018-07-22T05:15:25.000Z</time>
      </trkpt>
      <trkpt lat="42.298674" lon="-0.431743">
        <ele>1201.0</ele>
        <time>2018-07-22T05:15:26.000Z</time>
      </trkpt>
      <trkpt lat="42.298674" lon="-0.431743">
        <ele>1201.0</ele>
        <time>2018-07-22T05:15:27.000Z</time>
      </trkpt>
      <trkpt lat="42.298674" lon="-0.431743">
        <ele>1201.0</ele>
        <time>2018-07-22T05:15:28.000Z</time>
      </trkpt>
      <trkpt lat="42.298674" lon="-0.431743">
        <ele>1201.0</ele>
        <time>2018-07-22T05:15:29.000Z</time>
      </trkpt>
      <trkpt lat="42.298674" lon="-0.431743">
        <ele>1201.0</ele>
        <time>2018-07-22T05:15:30.000Z</time>
      </trkpt>
      <trkpt lat="42.298674" lon="-0.431743">
        <ele>1201.0</ele>
        <time>2018-07-22T05:15:31.000Z</time>
      </trkpt>
      <trkpt lat="42.298674" lon="-0.431743">
        <ele>1201.0</ele>
        <time>2018-07-22T05:15:32.000Z</time>
      </trkpt>
      <trkpt lat="42.298674" lon="-0.431743">
        <ele>1201.0</ele>
        <time>2018-07-22T05:15:33.000Z</time>
      </trkpt>
      <trkpt lat="42.298674" lon="-0.431743">
        <ele>1201.0</ele>
        <time>2018-07-22T05:15:34.000Z</time>
      </trkpt>
      <trkpt lat="42.298674" lon="-0.431743">
        <ele>1201.0</ele>
        <time>2018-07-22T05:15:35.000Z</time>
      </trkpt>
      <trkpt lat="42.298674" lon="-0.431743">
        <ele>1201.0</ele>
        <time>2018-07-22T05:15:36.000Z</time>
      </trkpt>
      <trkpt lat="42.298674" lon="-0.431743">
        <ele>1201.0</ele>
        <time>2018-07-22T05:15:37.000Z</time>
      </trkpt>
      <trkpt lat="42.298674" lon="-0.431743">
        <ele>1201.0</ele>
        <time>2018-07-22T05:15:38.000Z</time>
      </trkpt>
      <trkpt lat="42.298674" lon="-0.431743">
        <ele>1201.0</ele>
        <time>2018-07-22T05:15:39.000Z</time>
      </trkpt>
      <trkpt lat="42.298674" lon="-0.431743">
        <ele>1201.0</ele>
        <time>2018-07-22T05:15:40.000Z</time>
      </trkpt>
      <trkpt lat="42.298674" lon="-0.431743">
        <ele>1201.0</ele>
        <time>2018-07-22T05:15:41.000Z</time>
      </trkpt>
      <trkpt lat="42.298674" lon="-0.431743">
        <ele>1201.0</ele>
        <time>2018-07-22T05:15:42.000Z</time>
      </trkpt>
      <trkpt lat="42.298674" lon="-0.431743">
        <ele>1201.0</ele>
        <time>2018-07-22T05:15:43.000Z</time>
      </trkpt>
      <trkpt lat="42.298674" lon="-0.431743">
        <ele>1201.0</ele>
        <time>2018-07-22T05:15:44.000Z</time>
      </trkpt>
      <trkpt lat="42.298674" lon="-0.431743">
        <ele>1201.0</ele>
        <time>2018-07-22T05:15:45.000Z</time>
      </trkpt>
      <trkpt lat="42.298674" lon="-0.431743">
        <ele>1201.0</ele>
        <time>2018-07-22T05:15:46.000Z</time>
      </trkpt>
      <trkpt lat="42.298674" lon="-0.431743">
        <ele>1201.0</ele>
        <time>2018-07-22T05:15:47.000Z</time>
      </trkpt>
      <trkpt lat="42.298674" lon="-0.431743">
        <ele>1201.0</ele>
        <time>2018-07-22T05:15:48.000Z</time>
      </trkpt>
      <trkpt lat="42.298674" lon="-0.431743">
        <ele>1201.0</ele>
        <time>2018-07-22T05:15:49.000Z</time>
      </trkpt>
      <trkpt lat="42.298675" lon="-0.431743">
        <ele>1201.0</ele>
        <time>2018-07-22T05:15:50.000Z</time>
      </trkpt>
      <trkpt lat="42.298674" lon="-0.431746">
        <ele>1201.1</ele>
        <time>2018-07-22T05:15:51.000Z</time>
      </trkpt>
      <trkpt lat="42.298671" lon="-0.431756">
        <ele>1201.3</ele>
        <time>2018-07-22T05:15:52.000Z</time>
      </trkpt>
      <trkpt lat="42.298672" lon="-0.431759">
        <ele>1201.3</ele>
        <time>2018-07-22T05:15:53.000Z</time>
      </trkpt>
      <trkpt lat="42.298673" lon="-0.431759">
        <ele>1201.2</ele>
        <time>2018-07-22T05:15:54.000Z</time>
      </trkpt>
      <trkpt lat="42.298673" lon="-0.431759">
        <ele>1201.2</ele>
        <time>2018-07-22T05:15:55.000Z</time>
      </trkpt>
      <trkpt lat="42.298673" lon="-0.431759">
        <ele>1201.2</ele>
        <time>2018-07-22T05:15:56.000Z</time>
      </trkpt>
      <trkpt lat="42.298673" lon="-0.431759">
        <ele>1201.2</ele>
        <time>2018-07-22T05:15:57.000Z</time>
      </trkpt>
      <trkpt lat="42.298673" lon="-0.431759">
        <ele>1201.2</ele>
        <time>2018-07-22T05:15:58.000Z</time>
      </trkpt>
      <trkpt lat="42.298673" lon="-0.431759">
        <ele>1201.2</ele>
        <time>2018-07-22T05:15:59.000Z</time>
      </trkpt>
      <trkpt lat="42.298673" lon="-0.431759">
        <ele>1201.2</ele>
        <time>2018-07-22T05:16:00.000Z</time>
      </trkpt>
      <trkpt lat="42.298673" lon="-0.43176">
        <ele>1201.3</ele>
        <time>2018-07-22T05:16:01.000Z</time>
      </trkpt>
      <trkpt lat="42.298673" lon="-0.43176">
        <ele>1201.3</ele>
        <time>2018-07-22T05:16:02.000Z</time>
      </trkpt>
      <trkpt lat="42.298673" lon="-0.43176">
        <ele>1201.3</ele>
        <time>2018-07-22T05:16:03.000Z</time>
      </trkpt>
      <trkpt lat="42.298673" lon="-0.43176">
        <ele>1201.3</ele>
        <time>2018-07-22T05:16:04.000Z</time>
      </trkpt>
      <trkpt lat="42.298673" lon="-0.43176">
        <ele>1201.3</ele>
        <time>2018-07-22T05:16:05.000Z</time>
      </trkpt>
      <trkpt lat="42.298673" lon="-0.43176">
        <ele>1201.3</ele>
        <time>2018-07-22T05:16:06.000Z</time>
      </trkpt>
      <trkpt lat="42.298673" lon="-0.43176">
        <ele>1201.3</ele>
        <time>2018-07-22T05:16:07.000Z</time>
      </trkpt>
      <trkpt lat="42.298673" lon="-0.43176">
        <ele>1201.3</ele>
        <time>2018-07-22T05:16:08.000Z</time>
      </trkpt>
      <trkpt lat="42.298673" lon="-0.43176">
        <ele>1201.3</ele>
        <time>2018-07-22T05:16:09.000Z</time>
      </trkpt>
      <trkpt lat="42.298673" lon="-0.43176">
        <ele>1201.3</ele>
        <time>2018-07-22T05:16:10.000Z</time>
      </trkpt>
      <trkpt lat="42.298673" lon="-0.43176">
        <ele>1201.3</ele>
        <time>2018-07-22T05:16:11.000Z</time>
      </trkpt>
      <trkpt lat="42.298673" lon="-0.43176">
        <ele>1201.3</ele>
        <time>2018-07-22T05:16:12.000Z</time>
      </trkpt>
      <trkpt lat="42.298673" lon="-0.43176">
        <ele>1201.3</ele>
        <time>2018-07-22T05:16:13.000Z</time>
      </trkpt>
      <trkpt lat="42.298673" lon="-0.43176">
        <ele>1201.3</ele>
        <time>2018-07-22T05:16:14.000Z</time>
      </trkpt>
      <trkpt lat="42.298673" lon="-0.43176">
        <ele>1201.3</ele>
        <time>2018-07-22T05:16:15.000Z</time>
      </trkpt>
      <trkpt lat="42.298673" lon="-0.43176">
        <ele>1201.3</ele>
        <time>2018-07-22T05:16:16.000Z</time>
      </trkpt>
      <trkpt lat="42.298673" lon="-0.43176">
        <ele>1201.3</ele>
        <time>2018-07-22T05:16:17.000Z</time>
      </trkpt>
      <trkpt lat="42.298673" lon="-0.43176">
        <ele>1201.3</ele>
        <time>2018-07-22T05:16:18.000Z</time>
      </trkpt>
      <trkpt lat="42.298673" lon="-0.43176">
        <ele>1201.3</ele>
        <time>2018-07-22T05:16:19.000Z</time>
      </trkpt>
      <trkpt lat="42.298673" lon="-0.43176">
        <ele>1201.3</ele>
        <time>2018-07-22T05:16:20.000Z</time>
      </trkpt>
      <trkpt lat="42.298673" lon="-0.43176">
        <ele>1201.3</ele>
        <time>2018-07-22T05:16:21.000Z</time>
      </trkpt>
      <trkpt lat="42.298673" lon="-0.43176">
        <ele>1201.3</ele>
        <time>2018-07-22T05:16:22.000Z</time>
      </trkpt>
      <trkpt lat="42.298673" lon="-0.43176">
        <ele>1201.3</ele>
        <time>2018-07-22T05:16:23.000Z</time>
      </trkpt>
      <trkpt lat="42.298673" lon="-0.43176">
        <ele>1201.3</ele>
        <time>2018-07-22T05:16:24.000Z</time>
      </trkpt>
      <trkpt lat="42.298673" lon="-0.43176">
        <ele>1201.3</ele>
        <time>2018-07-22T05:16:25.000Z</time>
      </trkpt>
      <trkpt lat="42.298673" lon="-0.43176">
        <ele>1201.3</ele>
        <time>2018-07-22T05:16:26.000Z</time>
      </trkpt>
      <trkpt lat="42.298673" lon="-0.43176">
        <ele>1201.3</ele>
        <time>2018-07-22T05:16:27.000Z</time>
      </trkpt>
      <trkpt lat="42.298673" lon="-0.43176">
        <ele>1201.3</ele>
        <time>2018-07-22T05:16:28.000Z</time>
      </trkpt>
      <trkpt lat="42.298673" lon="-0.43176">
        <ele>1201.3</ele>
        <time>2018-07-22T05:16:29.000Z</time>
      </trkpt>
      <trkpt lat="42.298673" lon="-0.43176">
        <ele>1201.3</ele>
        <time>2018-07-22T05:16:30.000Z</time>
      </trkpt>
      <trkpt lat="42.298673" lon="-0.43176">
        <ele>1201.3</ele>
        <time>2018-07-22T05:16:31.000Z</time>
      </trkpt>
      <trkpt lat="42.298673" lon="-0.43176">
        <ele>1201.3</ele>
        <time>2018-07-22T05:16:32.000Z</time>
      </trkpt>
      <trkpt lat="42.298673" lon="-0.43176">
        <ele>1201.3</ele>
        <time>2018-07-22T05:16:33.000Z</time>
      </trkpt>
      <trkpt lat="42.298673" lon="-0.43176">
        <ele>1201.3</ele>
        <time>2018-07-22T05:16:34.000Z</time>
      </trkpt>
      <trkpt lat="42.298673" lon="-0.43176">
        <ele>1201.3</ele>
        <time>2018-07-22T05:16:35.000Z</time>
      </trkpt>
      <trkpt lat="42.298673" lon="-0.43176">
        <ele>1201.3</ele>
        <time>2018-07-22T05:16:36.000Z</time>
      </trkpt>
      <trkpt lat="42.298673" lon="-0.43176">
        <ele>1201.3</ele>
        <time>2018-07-22T05:16:37.000Z</time>
      </trkpt>
      <trkpt lat="42.298673" lon="-0.43176">
        <ele>1201.3</ele>
        <time>2018-07-22T05:16:38.000Z</time>
      </trkpt>
      <trkpt lat="42.298673" lon="-0.43176">
        <ele>1201.3</ele>
        <time>2018-07-22T05:16:39.000Z</time>
      </trkpt>
      <trkpt lat="42.298673" lon="-0.43176">
        <ele>1201.3</ele>
        <time>2018-07-22T05:16:40.000Z</time>
      </trkpt>
      <trkpt lat="42.298673" lon="-0.43176">
        <ele>1201.3</ele>
        <time>2018-07-22T05:16:41.000Z</time>
      </trkpt>
      <trkpt lat="42.298673" lon="-0.43176">
        <ele>1201.3</ele>
        <time>2018-07-22T05:16:42.000Z</time>
      </trkpt>
      <trkpt lat="42.298673" lon="-0.43176">
        <ele>1201.3</ele>
        <time>2018-07-22T05:16:43.000Z</time>
      </trkpt>
      <trkpt lat="42.298673" lon="-0.43176">
        <ele>1201.3</ele>
        <time>2018-07-22T05:16:44.000Z</time>
      </trkpt>
      <trkpt lat="42.298673" lon="-0.43176">
        <ele>1201.3</ele>
        <time>2018-07-22T05:16:45.000Z</time>
      </trkpt>
      <trkpt lat="42.298673" lon="-0.43176">
        <ele>1201.3</ele>
        <time>2018-07-22T05:16:46.000Z</time>
      </trkpt>
      <trkpt lat="42.298673" lon="-0.43176">
        <ele>1201.3</ele>
        <time>2018-07-22T05:16:47.000Z</time>
      </trkpt>
      <trkpt lat="42.298673" lon="-0.43176">
        <ele>1201.3</ele>
        <time>2018-07-22T05:16:48.000Z</time>
      </trkpt>
      <trkpt lat="42.298673" lon="-0.43176">
        <ele>1201.3</ele>
        <time>2018-07-22T05:16:49.000Z</time>
      </trkpt>
      <trkpt lat="42.298673" lon="-0.43176">
        <ele>1201.3</ele>
        <time>2018-07-22T05:16:50.000Z</time>
      </trkpt>
      <trkpt lat="42.298673" lon="-0.43176">
        <ele>1201.3</ele>
        <time>2018-07-22T05:16:51.000Z</time>
      </trkpt>
      <trkpt lat="42.298673" lon="-0.43176">
        <ele>1201.3</ele>
        <time>2018-07-22T05:16:52.000Z</time>
      </trkpt>
      <trkpt lat="42.298673" lon="-0.43176">
        <ele>1201.3</ele>
        <time>2018-07-22T05:16:53.000Z</time>
      </trkpt>
      <trkpt lat="42.298673" lon="-0.43176">
        <ele>1201.3</ele>
        <time>2018-07-22T05:16:54.000Z</time>
      </trkpt>
      <trkpt lat="42.298673" lon="-0.43176">
        <ele>1201.3</ele>
        <time>2018-07-22T05:16:55.000Z</time>
      </trkpt>
      <trkpt lat="42.298673" lon="-0.43176">
        <ele>1201.3</ele>
        <time>2018-07-22T05:16:56.000Z</time>
      </trkpt>
      <trkpt lat="42.298673" lon="-0.43176">
        <ele>1201.3</ele>
        <time>2018-07-22T05:16:57.000Z</time>
      </trkpt>
      <trkpt lat="42.298673" lon="-0.43176">
        <ele>1201.3</ele>
        <time>2018-07-22T05:16:58.000Z</time>
      </trkpt>
      <trkpt lat="42.298673" lon="-0.43176">
        <ele>1201.3</ele>
        <time>2018-07-22T05:16:59.000Z</time>
      </trkpt>
      <trkpt lat="42.298673" lon="-0.43176">
        <ele>1201.3</ele>
        <time>2018-07-22T05:17:00.000Z</time>
      </trkpt>
      <trkpt lat="42.298673" lon="-0.43176">
        <ele>1201.3</ele>
        <time>2018-07-22T05:17:01.000Z</time>
      </trkpt>
      <trkpt lat="42.298673" lon="-0.43176">
        <ele>1201.3</ele>
        <time>2018-07-22T05:17:02.000Z</time>
      </trkpt>
      <trkpt lat="42.298673" lon="-0.43176">
        <ele>1201.3</ele>
        <time>2018-07-22T05:17:03.000Z</time>
      </trkpt>
      <trkpt lat="42.298673" lon="-0.43176">
        <ele>1201.3</ele>
        <time>2018-07-22T05:17:04.000Z</time>
      </trkpt>
      <trkpt lat="42.298673" lon="-0.43176">
        <ele>1201.3</ele>
        <time>2018-07-22T05:17:05.000Z</time>
      </trkpt>
      <trkpt lat="42.298673" lon="-0.43176">
        <ele>1201.3</ele>
        <time>2018-07-22T05:17:06.000Z</time>
      </trkpt>
      <trkpt lat="42.298673" lon="-0.43176">
        <ele>1201.3</ele>
        <time>2018-07-22T05:17:07.000Z</time>
      </trkpt>
      <trkpt lat="42.298673" lon="-0.43176">
        <ele>1201.3</ele>
        <time>2018-07-22T05:17:08.000Z</time>
      </trkpt>
      <trkpt lat="42.298673" lon="-0.43176">
        <ele>1201.3</ele>
        <time>2018-07-22T05:17:09.000Z</time>
      </trkpt>
      <trkpt lat="42.298673" lon="-0.43176">
        <ele>1201.3</ele>
        <time>2018-07-22T05:17:10.000Z</time>
      </trkpt>
      <trkpt lat="42.298673" lon="-0.43176">
        <ele>1201.3</ele>
        <time>2018-07-22T05:17:11.000Z</time>
      </trkpt>
      <trkpt lat="42.298673" lon="-0.43176">
        <ele>1201.3</ele>
        <time>2018-07-22T05:17:12.000Z</time>
      </trkpt>
      <trkpt lat="42.298673" lon="-0.43176">
        <ele>1201.3</ele>
        <time>2018-07-22T05:17:13.000Z</time>
      </trkpt>
      <trkpt lat="42.298673" lon="-0.43176">
        <ele>1201.3</ele>
        <time>2018-07-22T05:17:14.000Z</time>
      </trkpt>
      <trkpt lat="42.298673" lon="-0.43176">
        <ele>1201.3</ele>
        <time>2018-07-22T05:17:15.000Z</time>
      </trkpt>
      <trkpt lat="42.298673" lon="-0.43176">
        <ele>1201.3</ele>
        <time>2018-07-22T05:17:16.000Z</time>
      </trkpt>
      <trkpt lat="42.298673" lon="-0.43176">
        <ele>1201.3</ele>
        <time>2018-07-22T05:17:17.000Z</time>
      </trkpt>
      <trkpt lat="42.298673" lon="-0.43176">
        <ele>1201.3</ele>
        <time>2018-07-22T05:17:18.000Z</time>
      </trkpt>
      <trkpt lat="42.298673" lon="-0.43176">
        <ele>1201.3</ele>
        <time>2018-07-22T05:17:19.000Z</time>
      </trkpt>
      <trkpt lat="42.298673" lon="-0.43176">
        <ele>1201.3</ele>
        <time>2018-07-22T05:17:20.000Z</time>
      </trkpt>
      <trkpt lat="42.298673" lon="-0.43176">
        <ele>1201.3</ele>
        <time>2018-07-22T05:17:21.000Z</time>
      </trkpt>
      <trkpt lat="42.298673" lon="-0.43176">
        <ele>1201.3</ele>
        <time>2018-07-22T05:17:22.000Z</time>
      </trkpt>
      <trkpt lat="42.298673" lon="-0.43176">
        <ele>1201.3</ele>
        <time>2018-07-22T05:17:23.000Z</time>
      </trkpt>
      <trkpt lat="42.298673" lon="-0.43176">
        <ele>1201.3</ele>
        <time>2018-07-22T05:17:24.000Z</time>
      </trkpt>
      <trkpt lat="42.298673" lon="-0.43176">
        <ele>1201.3</ele>
        <time>2018-07-22T05:17:25.000Z</time>
      </trkpt>
      <trkpt lat="42.298673" lon="-0.43176">
        <ele>1201.3</ele>
        <time>2018-07-22T05:17:26.000Z</time>
      </trkpt>
      <trkpt lat="42.298673" lon="-0.43176">
        <ele>1201.3</ele>
        <time>2018-07-22T05:17:27.000Z</time>
      </trkpt>
      <trkpt lat="42.298673" lon="-0.43176">
        <ele>1201.3</ele>
        <time>2018-07-22T05:17:28.000Z</time>
      </trkpt>
      <trkpt lat="42.298673" lon="-0.43176">
        <ele>1201.3</ele>
        <time>2018-07-22T05:17:29.000Z</time>
      </trkpt>
      <trkpt lat="42.298673" lon="-0.43176">
        <ele>1201.3</ele>
        <time>2018-07-22T05:17:30.000Z</time>
      </trkpt>
      <trkpt lat="42.298673" lon="-0.43176">
        <ele>1201.3</ele>
        <time>2018-07-22T05:17:31.000Z</time>
      </trkpt>
      <trkpt lat="42.298673" lon="-0.43176">
        <ele>1201.3</ele>
        <time>2018-07-22T05:17:32.000Z</time>
      </trkpt>
      <trkpt lat="42.298673" lon="-0.43176">
        <ele>1201.3</ele>
        <time>2018-07-22T05:17:33.000Z</time>
      </trkpt>
      <trkpt lat="42.298673" lon="-0.43176">
        <ele>1201.3</ele>
        <time>2018-07-22T05:17:34.000Z</time>
      </trkpt>
      <trkpt lat="42.298673" lon="-0.43176">
        <ele>1201.3</ele>
        <time>2018-07-22T05:17:35.000Z</time>
      </trkpt>
      <trkpt lat="42.298673" lon="-0.43176">
        <ele>1201.3</ele>
        <time>2018-07-22T05:17:36.000Z</time>
      </trkpt>
      <trkpt lat="42.298673" lon="-0.43176">
        <ele>1201.3</ele>
        <time>2018-07-22T05:17:37.000Z</time>
      </trkpt>
      <trkpt lat="42.298673" lon="-0.43176">
        <ele>1201.3</ele>
        <time>2018-07-22T05:17:38.000Z</time>
      </trkpt>
      <trkpt lat="42.298673" lon="-0.43176">
        <ele>1201.3</ele>
        <time>2018-07-22T05:17:39.000Z</time>
      </trkpt>
      <trkpt lat="42.298673" lon="-0.43176">
        <ele>1201.3</ele>
        <time>2018-07-22T05:17:40.000Z</time>
      </trkpt>
      <trkpt lat="42.298673" lon="-0.43176">
        <ele>1201.3</ele>
        <time>2018-07-22T05:17:41.000Z</time>
      </trkpt>
      <trkpt lat="42.298673" lon="-0.43176">
        <ele>1201.3</ele>
        <time>2018-07-22T05:17:42.000Z</time>
      </trkpt>
      <trkpt lat="42.298673" lon="-0.43176">
        <ele>1201.3</ele>
        <time>2018-07-22T05:17:43.000Z</time>
      </trkpt>
      <trkpt lat="42.298673" lon="-0.43176">
        <ele>1201.3</ele>
        <time>2018-07-22T05:17:44.000Z</time>
      </trkpt>
      <trkpt lat="42.298673" lon="-0.43176">
        <ele>1201.3</ele>
        <time>2018-07-22T05:17:45.000Z</time>
      </trkpt>
      <trkpt lat="42.298673" lon="-0.43176">
        <ele>1201.3</ele>
        <time>2018-07-22T05:17:46.000Z</time>
      </trkpt>
      <trkpt lat="42.298673" lon="-0.43176">
        <ele>1201.3</ele>
        <time>2018-07-22T05:17:47.000Z</time>
      </trkpt>
      <trkpt lat="42.298673" lon="-0.43176">
        <ele>1201.3</ele>
        <time>2018-07-22T05:17:48.000Z</time>
      </trkpt>
      <trkpt lat="42.298673" lon="-0.43176">
        <ele>1201.3</ele>
        <time>2018-07-22T05:17:49.000Z</time>
      </trkpt>
      <trkpt lat="42.298673" lon="-0.43176">
        <ele>1201.3</ele>
        <time>2018-07-22T05:17:50.000Z</time>
      </trkpt>
      <trkpt lat="42.298673" lon="-0.43176">
        <ele>1201.3</ele>
        <time>2018-07-22T05:17:51.000Z</time>
      </trkpt>
      <trkpt lat="42.298673" lon="-0.43176">
        <ele>1201.3</ele>
        <time>2018-07-22T05:17:52.000Z</time>
      </trkpt>
      <trkpt lat="42.298673" lon="-0.43176">
        <ele>1201.3</ele>
        <time>2018-07-22T05:17:53.000Z</time>
      </trkpt>
      <trkpt lat="42.298673" lon="-0.43176">
        <ele>1201.3</ele>
        <time>2018-07-22T05:17:54.000Z</time>
      </trkpt>
      <trkpt lat="42.298673" lon="-0.43176">
        <ele>1201.3</ele>
        <time>2018-07-22T05:17:55.000Z</time>
      </trkpt>
      <trkpt lat="42.298673" lon="-0.43176">
        <ele>1201.3</ele>
        <time>2018-07-22T05:17:56.000Z</time>
      </trkpt>
      <trkpt lat="42.298673" lon="-0.43176">
        <ele>1201.3</ele>
        <time>2018-07-22T05:17:57.000Z</time>
      </trkpt>
      <trkpt lat="42.298673" lon="-0.43176">
        <ele>1201.3</ele>
        <time>2018-07-22T05:17:58.000Z</time>
      </trkpt>
      <trkpt lat="42.298673" lon="-0.43176">
        <ele>1201.3</ele>
        <time>2018-07-22T05:17:59.000Z</time>
      </trkpt>
      <trkpt lat="42.298673" lon="-0.43176">
        <ele>1201.3</ele>
        <time>2018-07-22T05:18:00.000Z</time>
      </trkpt>
      <trkpt lat="42.298673" lon="-0.43176">
        <ele>1201.3</ele>
        <time>2018-07-22T05:18:01.000Z</time>
      </trkpt>
      <trkpt lat="42.298673" lon="-0.43176">
        <ele>1201.3</ele>
        <time>2018-07-22T05:18:02.000Z</time>
      </trkpt>
      <trkpt lat="42.298673" lon="-0.43176">
        <ele>1201.3</ele>
        <time>2018-07-22T05:18:03.000Z</time>
      </trkpt>
      <trkpt lat="42.298673" lon="-0.43176">
        <ele>1201.3</ele>
        <time>2018-07-22T05:18:04.000Z</time>
      </trkpt>
      <trkpt lat="42.298673" lon="-0.43176">
        <ele>1201.3</ele>
        <time>2018-07-22T05:18:05.000Z</time>
      </trkpt>
      <trkpt lat="42.298673" lon="-0.43176">
        <ele>1201.3</ele>
        <time>2018-07-22T05:18:06.000Z</time>
      </trkpt>
      <trkpt lat="42.298673" lon="-0.43176">
        <ele>1201.3</ele>
        <time>2018-07-22T05:18:07.000Z</time>
      </trkpt>
      <trkpt lat="42.298673" lon="-0.43176">
        <ele>1201.3</ele>
        <time>2018-07-22T05:18:08.000Z</time>
      </trkpt>
      <trkpt lat="42.298673" lon="-0.43176">
        <ele>1201.3</ele>
        <time>2018-07-22T05:18:09.000Z</time>
      </trkpt>
      <trkpt lat="42.298673" lon="-0.43176">
        <ele>1201.3</ele>
        <time>2018-07-22T05:18:10.000Z</time>
      </trkpt>
      <trkpt lat="42.298673" lon="-0.43176">
        <ele>1201.3</ele>
        <time>2018-07-22T05:18:11.000Z</time>
      </trkpt>
      <trkpt lat="42.298673" lon="-0.43176">
        <ele>1201.3</ele>
        <time>2018-07-22T05:18:12.000Z</time>
      </trkpt>
      <trkpt lat="42.298673" lon="-0.43176">
        <ele>1201.3</ele>
        <time>2018-07-22T05:18:13.000Z</time>
      </trkpt>
      <trkpt lat="42.298673" lon="-0.431761">
        <ele>1201.3</ele>
        <time>2018-07-22T05:18:14.000Z</time>
      </trkpt>
      <trkpt lat="42.298673" lon="-0.431761">
        <ele>1201.3</ele>
        <time>2018-07-22T05:18:15.000Z</time>
      </trkpt>
      <trkpt lat="42.298673" lon="-0.431761">
        <ele>1201.3</ele>
        <time>2018-07-22T05:18:16.000Z</time>
      </trkpt>
      <trkpt lat="42.298673" lon="-0.431761">
        <ele>1201.3</ele>
        <time>2018-07-22T05:18:17.000Z</time>
      </trkpt>
      <trkpt lat="42.298673" lon="-0.431762">
        <ele>1201.3</ele>
        <time>2018-07-22T05:18:18.000Z</time>
      </trkpt>
      <trkpt lat="42.298673" lon="-0.431763">
        <ele>1201.3</ele>
        <time>2018-07-22T05:18:19.000Z</time>
      </trkpt>
      <trkpt lat="42.298673" lon="-0.431766">
        <ele>1201.3</ele>
        <time>2018-07-22T05:18:20.000Z</time>
      </trkpt>
      <trkpt lat="42.298673" lon="-0.43177">
        <ele>1201.4</ele>
        <time>2018-07-22T05:18:21.000Z</time>
      </trkpt>
      <trkpt lat="42.298672" lon="-0.431776">
        <ele>1201.4</ele>
        <time>2018-07-22T05:18:22.000Z</time>
      </trkpt>
      <trkpt lat="42.298672" lon="-0.431781">
        <ele>1201.5</ele>
        <time>2018-07-22T05:18:23.000Z</time>
      </trkpt>
      <trkpt lat="42.298671" lon="-0.431784">
        <ele>1201.6</ele>
        <time>2018-07-22T05:18:24.000Z</time>
      </trkpt>
      <trkpt lat="42.298671" lon="-0.431788">
        <ele>1201.6</ele>
        <time>2018-07-22T05:18:25.000Z</time>
      </trkpt>
      <trkpt lat="42.298671" lon="-0.431799">
        <ele>1201.7</ele>
        <time>2018-07-22T05:18:26.000Z</time>
      </trkpt>
      <trkpt lat="42.298671" lon="-0.431807">
        <ele>1201.8</ele>
        <time>2018-07-22T05:18:27.000Z</time>
      </trkpt>
      <trkpt lat="42.298671" lon="-0.431815">
        <ele>1201.9</ele>
        <time>2018-07-22T05:18:28.000Z</time>
      </trkpt>
      <trkpt lat="42.298672" lon="-0.431826">
        <ele>1202.0</ele>
        <time>2018-07-22T05:18:29.000Z</time>
      </trkpt>
      <trkpt lat="42.298672" lon="-0.431835">
        <ele>1202.1</ele>
        <time>2018-07-22T05:18:30.000Z</time>
      </trkpt>
      <trkpt lat="42.29867" lon="-0.431841">
        <ele>1202.2</ele>
        <time>2018-07-22T05:18:31.000Z</time>
      </trkpt>
      <trkpt lat="42.298669" lon="-0.431847">
        <ele>1202.3</ele>
        <time>2018-07-22T05:18:32.000Z</time>
      </trkpt>
      <trkpt lat="42.298668" lon="-0.431851">
        <ele>1202.4</ele>
        <time>2018-07-22T05:18:33.000Z</time>
      </trkpt>
      <trkpt lat="42.298665" lon="-0.431855">
        <ele>1202.5</ele>
        <time>2018-07-22T05:18:34.000Z</time>
      </trkpt>
      <trkpt lat="42.298659" lon="-0.43186">
        <ele>1202.7</ele>
        <time>2018-07-22T05:18:35.000Z</time>
      </trkpt>
      <trkpt lat="42.298652" lon="-0.431864">
        <ele>1202.9</ele>
        <time>2018-07-22T05:18:36.000Z</time>
      </trkpt>
      <trkpt lat="42.298646" lon="-0.431867">
        <ele>1203.1</ele>
        <time>2018-07-22T05:18:37.000Z</time>
      </trkpt>
      <trkpt lat="42.298641" lon="-0.431868">
        <ele>1203.3</ele>
        <time>2018-07-22T05:18:38.000Z</time>
      </trkpt>
      <trkpt lat="42.298638" lon="-0.431868">
        <ele>1203.4</ele>
        <time>2018-07-22T05:18:39.000Z</time>
      </trkpt>
      <trkpt lat="42.298635" lon="-0.431868">
        <ele>1203.4</ele>
        <time>2018-07-22T05:18:40.000Z</time>
      </trkpt>
      <trkpt lat="42.298633" lon="-0.431868">
        <ele>1203.5</ele>
        <time>2018-07-22T05:18:41.000Z</time>
      </trkpt>
      <trkpt lat="42.298631" lon="-0.431868">
        <ele>1203.5</ele>
        <time>2018-07-22T05:18:42.000Z</time>
      </trkpt>
      <trkpt lat="42.298629" lon="-0.431869">
        <ele>1203.6</ele>
        <time>2018-07-22T05:18:43.000Z</time>
      </trkpt>
      <trkpt lat="42.298626" lon="-0.431869">
        <ele>1203.7</ele>
        <time>2018-07-22T05:18:44.000Z</time>
      </trkpt>
      <trkpt lat="42.298624" lon="-0.431869">
        <ele>1203.7</ele>
        <time>2018-07-22T05:18:45.000Z</time>
      </trkpt>
      <trkpt lat="42.298621" lon="-0.431869">
        <ele>1203.8</ele>
        <time>2018-07-22T05:18:46.000Z</time>
      </trkpt>
      <trkpt lat="42.298618" lon="-0.43187">
        <ele>1203.9</ele>
        <time>2018-07-22T05:18:47.000Z</time>
      </trkpt>
      <trkpt lat="42.298613" lon="-0.431872">
        <ele>1204.1</ele>
        <time>2018-07-22T05:18:48.000Z</time>
      </trkpt>
      <trkpt lat="42.298606" lon="-0.431877">
        <ele>1204.3</ele>
        <time>2018-07-22T05:18:49.000Z</time>
      </trkpt>
      <trkpt lat="42.2986" lon="-0.431881">
        <ele>1204.5</ele>
        <time>2018-07-22T05:18:50.000Z</time>
      </trkpt>
      <trkpt lat="42.298596" lon="-0.431884">
        <ele>1204.7</ele>
        <time>2018-07-22T05:18:51.000Z</time>
      </trkpt>
      <trkpt lat="42.298591" lon="-0.431888">
        <ele>1204.9</ele>
        <time>2018-07-22T05:18:52.000Z</time>
      </trkpt>
      <trkpt lat="42.298586" lon="-0.431893">
        <ele>1205.1</ele>
        <time>2018-07-22T05:18:53.000Z</time>
      </trkpt>
      <trkpt lat="42.298581" lon="-0.431897">
        <ele>1205.3</ele>
        <time>2018-07-22T05:18:54.000Z</time>
      </trkpt>
      <trkpt lat="42.298577" lon="-0.431901">
        <ele>1205.4</ele>
        <time>2018-07-22T05:18:55.000Z</time>
      </trkpt>
      <trkpt lat="42.298574" lon="-0.431905">
        <ele>1205.6</ele>
        <time>2018-07-22T05:18:56.000Z</time>
      </trkpt>
      <trkpt lat="42.298571" lon="-0.431908">
        <ele>1205.7</ele>
        <time>2018-07-22T05:18:57.000Z</time>
      </trkpt>
      <trkpt lat="42.298569" lon="-0.431911">
        <ele>1205.8</ele>
        <time>2018-07-22T05:18:58.000Z</time>
      </trkpt>
      <trkpt lat="42.298567" lon="-0.431914">
        <ele>1205.9</ele>
        <time>2018-07-22T05:18:59.000Z</time>
      </trkpt>
      <trkpt lat="42.298564" lon="-0.431916">
        <ele>1206.0</ele>
        <time>2018-07-22T05:19:00.000Z</time>
      </trkpt>
      <trkpt lat="42.298562" lon="-0.431919">
        <ele>1206.1</ele>
        <time>2018-07-22T05:19:01.000Z</time>
      </trkpt>
      <trkpt lat="42.29856" lon="-0.431921">
        <ele>1206.2</ele>
        <time>2018-07-22T05:19:02.000Z</time>
      </trkpt>
      <trkpt lat="42.298559" lon="-0.431922">
        <ele>1206.2</ele>
        <time>2018-07-22T05:19:03.000Z</time>
      </trkpt>
      <trkpt lat="42.298558" lon="-0.431923">
        <ele>1206.2</ele>
        <time>2018-07-22T05:19:04.000Z</time>
      </trkpt>
      <trkpt lat="42.298555" lon="-0.431927">
        <ele>1206.4</ele>
        <time>2018-07-22T05:19:05.000Z</time>
      </trkpt>
      <trkpt lat="42.298549" lon="-0.431937">
        <ele>1206.7</ele>
        <time>2018-07-22T05:19:06.000Z</time>
      </trkpt>
      <trkpt lat="42.298545" lon="-0.431944">
        <ele>1206.9</ele>
        <time>2018-07-22T05:19:07.000Z</time>
      </trkpt>
      <trkpt lat="42.298542" lon="-0.431949">
        <ele>1207.1</ele>
        <time>2018-07-22T05:19:08.000Z</time>
      </trkpt>
      <trkpt lat="42.29854" lon="-0.431953">
        <ele>1207.2</ele>
        <time>2018-07-22T05:19:09.000Z</time>
      </trkpt>
      <trkpt lat="42.298538" lon="-0.431957">
        <ele>1207.3</ele>
        <time>2018-07-22T05:19:10.000Z</time>
      </trkpt>
      <trkpt lat="42.298536" lon="-0.43196">
        <ele>1207.4</ele>
        <time>2018-07-22T05:19:11.000Z</time>
      </trkpt>
      <trkpt lat="42.298534" lon="-0.431964">
        <ele>1207.5</ele>
        <time>2018-07-22T05:19:12.000Z</time>
      </trkpt>
      <trkpt lat="42.298532" lon="-0.431967">
        <ele>1207.6</ele>
        <time>2018-07-22T05:19:13.000Z</time>
      </trkpt>
      <trkpt lat="42.29853" lon="-0.43197">
        <ele>1207.7</ele>
        <time>2018-07-22T05:19:14.000Z</time>
      </trkpt>
      <trkpt lat="42.298528" lon="-0.431974">
        <ele>1207.8</ele>
        <time>2018-07-22T05:19:15.000Z</time>
      </trkpt>
      <trkpt lat="42.298524" lon="-0.43198">
        <ele>1208.0</ele>
        <time>2018-07-22T05:19:16.000Z</time>
      </trkpt>
      <trkpt lat="42.298519" lon="-0.431989">
        <ele>1208.3</ele>
        <time>2018-07-22T05:19:17.000Z</time>
      </trkpt>
      <trkpt lat="42.298514" lon="-0.431997">
        <ele>1208.5</ele>
        <time>2018-07-22T05:19:18.000Z</time>
      </trkpt>
      <trkpt lat="42.298511" lon="-0.432003">
        <ele>1208.7</ele>
        <time>2018-07-22T05:19:19.000Z</time>
      </trkpt>
      <trkpt lat="42.298509" lon="-0.432008">
        <ele>1208.8</ele>
        <time>2018-07-22T05:19:20.000Z</time>
      </trkpt>
      <trkpt lat="42.298507" lon="-0.432013">
        <ele>1209.0</ele>
        <time>2018-07-22T05:19:21.000Z</time>
      </trkpt>
      <trkpt lat="42.298505" lon="-0.432016">
        <ele>1209.1</ele>
        <time>2018-07-22T05:19:22.000Z</time>
      </trkpt>
      <trkpt lat="42.298504" lon="-0.432019">
        <ele>1209.2</ele>
        <time>2018-07-22T05:19:23.000Z</time>
      </trkpt>
      <trkpt lat="42.298503" lon="-0.432022">
        <ele>1209.2</ele>
        <time>2018-07-22T05:19:24.000Z</time>
      </trkpt>
      <trkpt lat="42.298502" lon="-0.432024">
        <ele>1209.3</ele>
        <time>2018-07-22T05:19:25.000Z</time>
      </trkpt>
      <trkpt lat="42.298501" lon="-0.432027">
        <ele>1209.4</ele>
        <time>2018-07-22T05:19:26.000Z</time>
      </trkpt>
      <trkpt lat="42.298499" lon="-0.432031">
        <ele>1209.5</ele>
        <time>2018-07-22T05:19:27.000Z</time>
      </trkpt>
      <trkpt lat="42.298498" lon="-0.432035">
        <ele>1209.6</ele>
        <time>2018-07-22T05:19:28.000Z</time>
      </trkpt>
      <trkpt lat="42.298496" lon="-0.432038">
        <ele>1209.7</ele>
        <time>2018-07-22T05:19:29.000Z</time>
      </trkpt>
      <trkpt lat="42.298495" lon="-0.43204">
        <ele>1209.7</ele>
        <time>2018-07-22T05:19:30.000Z</time>
      </trkpt>
      <trkpt lat="42.298492" lon="-0.432044">
        <ele>1209.9</ele>
        <time>2018-07-22T05:19:31.000Z</time>
      </trkpt>
      <trkpt lat="42.298487" lon="-0.43205">
        <ele>1210.1</ele>
        <time>2018-07-22T05:19:32.000Z</time>
      </trkpt>
      <trkpt lat="42.29848" lon="-0.432058">
        <ele>1210.5</ele>
        <time>2018-07-22T05:19:33.000Z</time>
      </trkpt>
      <trkpt lat="42.298478" lon="-0.432062">
        <ele>1210.6</ele>
        <time>2018-07-22T05:19:34.000Z</time>
      </trkpt>
      <trkpt lat="42.298476" lon="-0.432064">
        <ele>1210.7</ele>
        <time>2018-07-22T05:19:35.000Z</time>
      </trkpt>
      <trkpt lat="42.298473" lon="-0.432066">
        <ele>1210.8</ele>
        <time>2018-07-22T05:19:36.000Z</time>
      </trkpt>
      <trkpt lat="42.298471" lon="-0.432069">
        <ele>1210.9</ele>
        <time>2018-07-22T05:19:37.000Z</time>
      </trkpt>
      <trkpt lat="42.298469" lon="-0.432073">
        <ele>1211.0</ele>
        <time>2018-07-22T05:19:38.000Z</time>
      </trkpt>
      <trkpt lat="42.298462" lon="-0.432077">
        <ele>1211.3</ele>
        <time>2018-07-22T05:19:39.000Z</time>
      </trkpt>
      <trkpt lat="42.298456" lon="-0.432083">
        <ele>1211.6</ele>
        <time>2018-07-22T05:19:40.000Z</time>
      </trkpt>
      <trkpt lat="42.298453" lon="-0.432091">
        <ele>1211.8</ele>
        <time>2018-07-22T05:19:41.000Z</time>
      </trkpt>
      <trkpt lat="42.298449" lon="-0.432099">
        <ele>1212.1</ele>
        <time>2018-07-22T05:19:42.000Z</time>
      </trkpt>
      <trkpt lat="42.298446" lon="-0.432105">
        <ele>1212.3</ele>
        <time>2018-07-22T05:19:43.000Z</time>
      </trkpt>
      <trkpt lat="42.298443" lon="-0.432109">
        <ele>1212.4</ele>
        <time>2018-07-22T05:19:44.000Z</time>
      </trkpt>
      <trkpt lat="42.298442" lon="-0.432113">
        <ele>1212.5</ele>
        <time>2018-07-22T05:19:45.000Z</time>
      </trkpt>
      <trkpt lat="42.298441" lon="-0.432116">
        <ele>1212.6</ele>
        <time>2018-07-22T05:19:46.000Z</time>
      </trkpt>
      <trkpt lat="42.298432" lon="-0.43212">
        <ele>1212.9</ele>
        <time>2018-07-22T05:19:47.000Z</time>
      </trkpt>
      <trkpt lat="42.298423" lon="-0.432124">
        <ele>1213.3</ele>
        <time>2018-07-22T05:19:48.000Z</time>
      </trkpt>
      <trkpt lat="42.298416" lon="-0.432128">
        <ele>1213.6</ele>
        <time>2018-07-22T05:19:49.000Z</time>
      </trkpt>
      <trkpt lat="42.298411" lon="-0.432132">
        <ele>1213.8</ele>
        <time>2018-07-22T05:19:50.000Z</time>
      </trkpt>
      <trkpt lat="42.298408" lon="-0.432136">
        <ele>1214.0</ele>
        <time>2018-07-22T05:19:51.000Z</time>
      </trkpt>
      <trkpt lat="42.298405" lon="-0.432139">
        <ele>1214.1</ele>
        <time>2018-07-22T05:19:52.000Z</time>
      </trkpt>
      <trkpt lat="42.298403" lon="-0.432142">
        <ele>1214.3</ele>
        <time>2018-07-22T05:19:53.000Z</time>
      </trkpt>
      <trkpt lat="42.298401" lon="-0.432144">
        <ele>1214.4</ele>
        <time>2018-07-22T05:19:54.000Z</time>
      </trkpt>
      <trkpt lat="42.2984" lon="-0.432147">
        <ele>1214.4</ele>
        <time>2018-07-22T05:19:55.000Z</time>
      </trkpt>
      <trkpt lat="42.298399" lon="-0.432148">
        <ele>1214.5</ele>
        <time>2018-07-22T05:19:56.000Z</time>
      </trkpt>
      <trkpt lat="42.298398" lon="-0.43215">
        <ele>1214.6</ele>
        <time>2018-07-22T05:19:57.000Z</time>
      </trkpt>
      <trkpt lat="42.298397" lon="-0.432151">
        <ele>1214.6</ele>
        <time>2018-07-22T05:19:58.000Z</time>
      </trkpt>
      <trkpt lat="42.298396" lon="-0.432153">
        <ele>1214.7</ele>
        <time>2018-07-22T05:19:59.000Z</time>
      </trkpt>
      <trkpt lat="42.298393" lon="-0.432155">
        <ele>1214.8</ele>
        <time>2018-07-22T05:20:00.000Z</time>
      </trkpt>
      <trkpt lat="42.298388" lon="-0.432159">
        <ele>1215.0</ele>
        <time>2018-07-22T05:20:01.000Z</time>
      </trkpt>
      <trkpt lat="42.298386" lon="-0.432161">
        <ele>1215.1</ele>
        <time>2018-07-22T05:20:02.000Z</time>
      </trkpt>
      <trkpt lat="42.298379" lon="-0.432168">
        <ele>1215.5</ele>
        <time>2018-07-22T05:20:03.000Z</time>
      </trkpt>
      <trkpt lat="42.298374" lon="-0.432175">
        <ele>1215.8</ele>
        <time>2018-07-22T05:20:04.000Z</time>
      </trkpt>
      <trkpt lat="42.298371" lon="-0.43218">
        <ele>1216.0</ele>
        <time>2018-07-22T05:20:05.000Z</time>
      </trkpt>
      <trkpt lat="42.298368" lon="-0.432184">
        <ele>1216.1</ele>
        <time>2018-07-22T05:20:06.000Z</time>
      </trkpt>
      <trkpt lat="42.298366" lon="-0.432188">
        <ele>1216.3</ele>
        <time>2018-07-22T05:20:07.000Z</time>
      </trkpt>
      <trkpt lat="42.298364" lon="-0.432191">
        <ele>1216.4</ele>
        <time>2018-07-22T05:20:08.000Z</time>
      </trkpt>
      <trkpt lat="42.298363" lon="-0.432193">
        <ele>1216.5</ele>
        <time>2018-07-22T05:20:09.000Z</time>
      </trkpt>
      <trkpt lat="42.298361" lon="-0.432196">
        <ele>1216.6</ele>
        <time>2018-07-22T05:20:10.000Z</time>
      </trkpt>
      <trkpt lat="42.298359" lon="-0.432198">
        <ele>1216.7</ele>
        <time>2018-07-22T05:20:11.000Z</time>
      </trkpt>
      <trkpt lat="42.298357" lon="-0.432201">
        <ele>1216.8</ele>
        <time>2018-07-22T05:20:12.000Z</time>
      </trkpt>
      <trkpt lat="42.298351" lon="-0.432204">
        <ele>1217.1</ele>
        <time>2018-07-22T05:20:13.000Z</time>
      </trkpt>
      <trkpt lat="42.298339" lon="-0.43221">
        <ele>1217.6</ele>
        <time>2018-07-22T05:20:14.000Z</time>
      </trkpt>
      <trkpt lat="42.298328" lon="-0.432216">
        <ele>1217.9</ele>
        <time>2018-07-22T05:20:15.000Z</time>
      </trkpt>
      <trkpt lat="42.298321" lon="-0.432223">
        <ele>1218.1</ele>
        <time>2018-07-22T05:20:16.000Z</time>
      </trkpt>
      <trkpt lat="42.298318" lon="-0.432231">
        <ele>1218.2</ele>
        <time>2018-07-22T05:20:17.000Z</time>
      </trkpt>
      <trkpt lat="42.298316" lon="-0.432238">
        <ele>1218.4</ele>
        <time>2018-07-22T05:20:18.000Z</time>
      </trkpt>
      <trkpt lat="42.298315" lon="-0.432242">
        <ele>1218.5</ele>
        <time>2018-07-22T05:20:19.000Z</time>
      </trkpt>
      <trkpt lat="42.298314" lon="-0.432245">
        <ele>1218.5</ele>
        <time>2018-07-22T05:20:20.000Z</time>
      </trkpt>
      <trkpt lat="42.298313" lon="-0.432248">
        <ele>1218.6</ele>
        <time>2018-07-22T05:20:21.000Z</time>
      </trkpt>
      <trkpt lat="42.298312" lon="-0.432251">
        <ele>1218.7</ele>
        <time>2018-07-22T05:20:22.000Z</time>
      </trkpt>
      <trkpt lat="42.298311" lon="-0.432255">
        <ele>1218.7</ele>
        <time>2018-07-22T05:20:23.000Z</time>
      </trkpt>
      <trkpt lat="42.29831" lon="-0.432258">
        <ele>1218.8</ele>
        <time>2018-07-22T05:20:24.000Z</time>
      </trkpt>
      <trkpt lat="42.298308" lon="-0.432261">
        <ele>1218.9</ele>
        <time>2018-07-22T05:20:25.000Z</time>
      </trkpt>
      <trkpt lat="42.298307" lon="-0.432264">
        <ele>1218.9</ele>
        <time>2018-07-22T05:20:26.000Z</time>
      </trkpt>
      <trkpt lat="42.298303" lon="-0.432267">
        <ele>1219.0</ele>
        <time>2018-07-22T05:20:27.000Z</time>
      </trkpt>
      <trkpt lat="42.298298" lon="-0.432275">
        <ele>1219.2</ele>
        <time>2018-07-22T05:20:28.000Z</time>
      </trkpt>
      <trkpt lat="42.298295" lon="-0.432276">
        <ele>1219.2</ele>
        <time>2018-07-22T05:20:29.000Z</time>
      </trkpt>
      <trkpt lat="42.298294" lon="-0.432277">
        <ele>1219.3</ele>
        <time>2018-07-22T05:20:30.000Z</time>
      </trkpt>
      <trkpt lat="42.298292" lon="-0.432279">
        <ele>1219.3</ele>
        <time>2018-07-22T05:20:31.000Z</time>
      </trkpt>
      <trkpt lat="42.298291" lon="-0.432283">
        <ele>1219.4</ele>
        <time>2018-07-22T05:20:32.000Z</time>
      </trkpt>
      <trkpt lat="42.29829" lon="-0.432287">
        <ele>1219.5</ele>
        <time>2018-07-22T05:20:33.000Z</time>
      </trkpt>
      <trkpt lat="42.298289" lon="-0.43229">
        <ele>1219.6</ele>
        <time>2018-07-22T05:20:34.000Z</time>
      </trkpt>
      <trkpt lat="42.298288" lon="-0.432293">
        <ele>1219.6</ele>
        <time>2018-07-22T05:20:35.000Z</time>
      </trkpt>
      <trkpt lat="42.298287" lon="-0.432296">
        <ele>1219.7</ele>
        <time>2018-07-22T05:20:36.000Z</time>
      </trkpt>
      <trkpt lat="42.298286" lon="-0.432298">
        <ele>1219.7</ele>
        <time>2018-07-22T05:20:37.000Z</time>
      </trkpt>
      <trkpt lat="42.298286" lon="-0.4323">
        <ele>1219.8</ele>
        <time>2018-07-22T05:20:38.000Z</time>
      </trkpt>
      <trkpt lat="42.298284" lon="-0.432302">
        <ele>1219.8</ele>
        <time>2018-07-22T05:20:39.000Z</time>
      </trkpt>
      <trkpt lat="42.29828" lon="-0.432305">
        <ele>1219.9</ele>
        <time>2018-07-22T05:20:40.000Z</time>
      </trkpt>
      <trkpt lat="42.298275" lon="-0.43231">
        <ele>1220.1</ele>
        <time>2018-07-22T05:20:41.000Z</time>
      </trkpt>
      <trkpt lat="42.298265" lon="-0.432319">
        <ele>1220.3</ele>
        <time>2018-07-22T05:20:42.000Z</time>
      </trkpt>
      <trkpt lat="42.298258" lon="-0.432325">
        <ele>1220.5</ele>
        <time>2018-07-22T05:20:43.000Z</time>
      </trkpt>
      <trkpt lat="42.298252" lon="-0.43233">
        <ele>1220.7</ele>
        <time>2018-07-22T05:20:44.000Z</time>
      </trkpt>
      <trkpt lat="42.29825" lon="-0.432335">
        <ele>1220.8</ele>
        <time>2018-07-22T05:20:45.000Z</time>
      </trkpt>
      <trkpt lat="42.298248" lon="-0.432338">
        <ele>1220.9</ele>
        <time>2018-07-22T05:20:46.000Z</time>
      </trkpt>
      <trkpt lat="42.298247" lon="-0.432339">
        <ele>1220.9</ele>
        <time>2018-07-22T05:20:47.000Z</time>
      </trkpt>
      <trkpt lat="42.298245" lon="-0.43234">
        <ele>1220.9</ele>
        <time>2018-07-22T05:20:48.000Z</time>
      </trkpt>
      <trkpt lat="42.298244" lon="-0.432342">
        <ele>1221.0</ele>
        <time>2018-07-22T05:20:49.000Z</time>
      </trkpt>
      <trkpt lat="42.298243" lon="-0.432345">
        <ele>1221.1</ele>
        <time>2018-07-22T05:20:50.000Z</time>
      </trkpt>
      <trkpt lat="42.298241" lon="-0.432348">
        <ele>1221.1</ele>
        <time>2018-07-22T05:20:51.000Z</time>
      </trkpt>
      <trkpt lat="42.298238" lon="-0.43235">
        <ele>1221.2</ele>
        <time>2018-07-22T05:20:52.000Z</time>
      </trkpt>
      <trkpt lat="42.298236" lon="-0.432354">
        <ele>1221.3</ele>
        <time>2018-07-22T05:20:53.000Z</time>
      </trkpt>
      <trkpt lat="42.298231" lon="-0.432357">
        <ele>1221.4</ele>
        <time>2018-07-22T05:20:54.000Z</time>
      </trkpt>
      <trkpt lat="42.298219" lon="-0.432362">
        <ele>1221.7</ele>
        <time>2018-07-22T05:20:55.000Z</time>
      </trkpt>
      <trkpt lat="42.298211" lon="-0.432367">
        <ele>1221.9</ele>
        <time>2018-07-22T05:20:56.000Z</time>
      </trkpt>
      <trkpt lat="42.298206" lon="-0.432371">
        <ele>1222.0</ele>
        <time>2018-07-22T05:20:57.000Z</time>
      </trkpt>
      <trkpt lat="42.298204" lon="-0.432374">
        <ele>1222.1</ele>
        <time>2018-07-22T05:20:58.000Z</time>
      </trkpt>
      <trkpt lat="42.298202" lon="-0.432377">
        <ele>1222.2</ele>
        <time>2018-07-22T05:20:59.000Z</time>
      </trkpt>
      <trkpt lat="42.2982" lon="-0.432379">
        <ele>1222.2</ele>
        <time>2018-07-22T05:21:00.000Z</time>
      </trkpt>
      <trkpt lat="42.298198" lon="-0.432382">
        <ele>1222.3</ele>
        <time>2018-07-22T05:21:01.000Z</time>
      </trkpt>
      <trkpt lat="42.298195" lon="-0.432385">
        <ele>1222.4</ele>
        <time>2018-07-22T05:21:02.000Z</time>
      </trkpt>
      <trkpt lat="42.298193" lon="-0.432387">
        <ele>1222.5</ele>
        <time>2018-07-22T05:21:03.000Z</time>
      </trkpt>
      <trkpt lat="42.298192" lon="-0.432389">
        <ele>1222.5</ele>
        <time>2018-07-22T05:21:04.000Z</time>
      </trkpt>
      <trkpt lat="42.29819" lon="-0.432391">
        <ele>1222.6</ele>
        <time>2018-07-22T05:21:05.000Z</time>
      </trkpt>
      <trkpt lat="42.298188" lon="-0.432393">
        <ele>1222.7</ele>
        <time>2018-07-22T05:21:06.000Z</time>
      </trkpt>
      <trkpt lat="42.298185" lon="-0.432396">
        <ele>1222.8</ele>
        <time>2018-07-22T05:21:07.000Z</time>
      </trkpt>
      <trkpt lat="42.298181" lon="-0.4324">
        <ele>1222.9</ele>
        <time>2018-07-22T05:21:08.000Z</time>
      </trkpt>
      <trkpt lat="42.298175" lon="-0.432407">
        <ele>1223.1</ele>
        <time>2018-07-22T05:21:09.000Z</time>
      </trkpt>
      <trkpt lat="42.298164" lon="-0.432415">
        <ele>1223.5</ele>
        <time>2018-07-22T05:21:10.000Z</time>
      </trkpt>
      <trkpt lat="42.298158" lon="-0.43242">
        <ele>1223.6</ele>
        <time>2018-07-22T05:21:11.000Z</time>
      </trkpt>
      <trkpt lat="42.298152" lon="-0.432425">
        <ele>1223.8</ele>
        <time>2018-07-22T05:21:12.000Z</time>
      </trkpt>
      <trkpt lat="42.298148" lon="-0.432429">
        <ele>1224.0</ele>
        <time>2018-07-22T05:21:13.000Z</time>
      </trkpt>
      <trkpt lat="42.298146" lon="-0.432431">
        <ele>1224.0</ele>
        <time>2018-07-22T05:21:14.000Z</time>
      </trkpt>
      <trkpt lat="42.298144" lon="-0.432433">
        <ele>1224.1</ele>
        <time>2018-07-22T05:21:15.000Z</time>
      </trkpt>
      <trkpt lat="42.298142" lon="-0.432435">
        <ele>1224.2</ele>
        <time>2018-07-22T05:21:16.000Z</time>
      </trkpt>
      <trkpt lat="42.29814" lon="-0.432437">
        <ele>1224.3</ele>
        <time>2018-07-22T05:21:17.000Z</time>
      </trkpt>
      <trkpt lat="42.298138" lon="-0.432439">
        <ele>1224.3</ele>
        <time>2018-07-22T05:21:18.000Z</time>
      </trkpt>
      <trkpt lat="42.298135" lon="-0.432441">
        <ele>1224.4</ele>
        <time>2018-07-22T05:21:19.000Z</time>
      </trkpt>
      <trkpt lat="42.298132" lon="-0.432443">
        <ele>1224.5</ele>
        <time>2018-07-22T05:21:20.000Z</time>
      </trkpt>
      <trkpt lat="42.29813" lon="-0.432445">
        <ele>1224.6</ele>
        <time>2018-07-22T05:21:21.000Z</time>
      </trkpt>
      <trkpt lat="42.298127" lon="-0.432448">
        <ele>1224.7</ele>
        <time>2018-07-22T05:21:22.000Z</time>
      </trkpt>
      <trkpt lat="42.298121" lon="-0.432455">
        <ele>1224.9</ele>
        <time>2018-07-22T05:21:23.000Z</time>
      </trkpt>
      <trkpt lat="42.298119" lon="-0.432463">
        <ele>1225.2</ele>
        <time>2018-07-22T05:21:24.000Z</time>
      </trkpt>
      <trkpt lat="42.298117" lon="-0.432471">
        <ele>1225.4</ele>
        <time>2018-07-22T05:21:25.000Z</time>
      </trkpt>
      <trkpt lat="42.298114" lon="-0.432478">
        <ele>1225.6</ele>
        <time>2018-07-22T05:21:26.000Z</time>
      </trkpt>
      <trkpt lat="42.298112" lon="-0.432483">
        <ele>1225.8</ele>
        <time>2018-07-22T05:21:27.000Z</time>
      </trkpt>
      <trkpt lat="42.29811" lon="-0.432486">
        <ele>1225.9</ele>
        <time>2018-07-22T05:21:28.000Z</time>
      </trkpt>
      <trkpt lat="42.298108" lon="-0.432489">
        <ele>1226.0</ele>
        <time>2018-07-22T05:21:29.000Z</time>
      </trkpt>
      <trkpt lat="42.298106" lon="-0.43249">
        <ele>1226.0</ele>
        <time>2018-07-22T05:21:30.000Z</time>
      </trkpt>
      <trkpt lat="42.298105" lon="-0.432491">
        <ele>1226.1</ele>
        <time>2018-07-22T05:21:31.000Z</time>
      </trkpt>
      <trkpt lat="42.298105" lon="-0.432492">
        <ele>1226.1</ele>
        <time>2018-07-22T05:21:32.000Z</time>
      </trkpt>
      <trkpt lat="42.298104" lon="-0.432493">
        <ele>1226.1</ele>
        <time>2018-07-22T05:21:33.000Z</time>
      </trkpt>
      <trkpt lat="42.298104" lon="-0.432493">
        <ele>1226.1</ele>
        <time>2018-07-22T05:21:34.000Z</time>
      </trkpt>
      <trkpt lat="42.298103" lon="-0.432493">
        <ele>1226.1</ele>
        <time>2018-07-22T05:21:35.000Z</time>
      </trkpt>
      <trkpt lat="42.298103" lon="-0.432494">
        <ele>1226.2</ele>
        <time>2018-07-22T05:21:36.000Z</time>
      </trkpt>
      <trkpt lat="42.298102" lon="-0.432494">
        <ele>1226.2</ele>
        <time>2018-07-22T05:21:37.000Z</time>
      </trkpt>
      <trkpt lat="42.298101" lon="-0.432495">
        <ele>1226.2</ele>
        <time>2018-07-22T05:21:38.000Z</time>
      </trkpt>
      <trkpt lat="42.298101" lon="-0.432496">
        <ele>1226.2</ele>
        <time>2018-07-22T05:21:39.000Z</time>
      </trkpt>
      <trkpt lat="42.2981" lon="-0.432497">
        <ele>1226.3</ele>
        <time>2018-07-22T05:21:40.000Z</time>
      </trkpt>
      <trkpt lat="42.2981" lon="-0.432499">
        <ele>1226.3</ele>
        <time>2018-07-22T05:21:41.000Z</time>
      </trkpt>
      <trkpt lat="42.298098" lon="-0.432503">
        <ele>1226.5</ele>
        <time>2018-07-22T05:21:42.000Z</time>
      </trkpt>
      <trkpt lat="42.298092" lon="-0.432512">
        <ele>1226.7</ele>
        <time>2018-07-22T05:21:43.000Z</time>
      </trkpt>
      <trkpt lat="42.298087" lon="-0.432519">
        <ele>1227.0</ele>
        <time>2018-07-22T05:21:44.000Z</time>
      </trkpt>
      <trkpt lat="42.298081" lon="-0.432524">
        <ele>1227.2</ele>
        <time>2018-07-22T05:21:45.000Z</time>
      </trkpt>
      <trkpt lat="42.298073" lon="-0.432528">
        <ele>1227.4</ele>
        <time>2018-07-22T05:21:46.000Z</time>
      </trkpt>
      <trkpt lat="42.298066" lon="-0.432532">
        <ele>1227.6</ele>
        <time>2018-07-22T05:21:47.000Z</time>
      </trkpt>
      <trkpt lat="42.298059" lon="-0.432537">
        <ele>1227.8</ele>
        <time>2018-07-22T05:21:48.000Z</time>
      </trkpt>
      <trkpt lat="42.298053" lon="-0.432543">
        <ele>1228.0</ele>
        <time>2018-07-22T05:21:49.000Z</time>
      </trkpt>
      <trkpt lat="42.298048" lon="-0.432549">
        <ele>1228.3</ele>
        <time>2018-07-22T05:21:50.000Z</time>
      </trkpt>
      <trkpt lat="42.298043" lon="-0.432556">
        <ele>1228.5</ele>
        <time>2018-07-22T05:21:51.000Z</time>
      </trkpt>
      <trkpt lat="42.298038" lon="-0.432563">
        <ele>1228.7</ele>
        <time>2018-07-22T05:21:52.000Z</time>
      </trkpt>
      <trkpt lat="42.298034" lon="-0.432571">
        <ele>1229.0</ele>
        <time>2018-07-22T05:21:53.000Z</time>
      </trkpt>
      <trkpt lat="42.298029" lon="-0.432579">
        <ele>1229.3</ele>
        <time>2018-07-22T05:21:54.000Z</time>
      </trkpt>
      <trkpt lat="42.298025" lon="-0.432586">
        <ele>1229.5</ele>
        <time>2018-07-22T05:21:55.000Z</time>
      </trkpt>
      <trkpt lat="42.298021" lon="-0.432594">
        <ele>1229.8</ele>
        <time>2018-07-22T05:21:56.000Z</time>
      </trkpt>
      <trkpt lat="42.298018" lon="-0.432601">
        <ele>1230.0</ele>
        <time>2018-07-22T05:21:57.000Z</time>
      </trkpt>
      <trkpt lat="42.298015" lon="-0.432608">
        <ele>1230.2</ele>
        <time>2018-07-22T05:21:58.000Z</time>
      </trkpt>
      <trkpt lat="42.298013" lon="-0.432614">
        <ele>1230.4</ele>
        <time>2018-07-22T05:21:59.000Z</time>
      </trkpt>
      <trkpt lat="42.298012" lon="-0.43262">
        <ele>1230.5</ele>
        <time>2018-07-22T05:22:00.000Z</time>
      </trkpt>
      <trkpt lat="42.298011" lon="-0.432625">
        <ele>1230.7</ele>
        <time>2018-07-22T05:22:01.000Z</time>
      </trkpt>
      <trkpt lat="42.29801" lon="-0.43263">
        <ele>1230.8</ele>
        <time>2018-07-22T05:22:02.000Z</time>
      </trkpt>
      <trkpt lat="42.298009" lon="-0.432634">
        <ele>1230.9</ele>
        <time>2018-07-22T05:22:03.000Z</time>
      </trkpt>
      <trkpt lat="42.298008" lon="-0.432637">
        <ele>1231.0</ele>
        <time>2018-07-22T05:22:04.000Z</time>
      </trkpt>
      <trkpt lat="42.298008" lon="-0.43264">
        <ele>1231.1</ele>
        <time>2018-07-22T05:22:05.000Z</time>
      </trkpt>
      <trkpt lat="42.298007" lon="-0.432643">
        <ele>1231.2</ele>
        <time>2018-07-22T05:22:06.000Z</time>
      </trkpt>
      <trkpt lat="42.298001" lon="-0.432649">
        <ele>1231.4</ele>
        <time>2018-07-22T05:22:07.000Z</time>
      </trkpt>
      <trkpt lat="42.297995" lon="-0.432651">
        <ele>1231.6</ele>
        <time>2018-07-22T05:22:08.000Z</time>
      </trkpt>
      <trkpt lat="42.29799" lon="-0.432652">
        <ele>1231.7</ele>
        <time>2018-07-22T05:22:09.000Z</time>
      </trkpt>
      <trkpt lat="42.297984" lon="-0.432655">
        <ele>1231.9</ele>
        <time>2018-07-22T05:22:10.000Z</time>
      </trkpt>
      <trkpt lat="42.297979" lon="-0.432659">
        <ele>1232.1</ele>
        <time>2018-07-22T05:22:11.000Z</time>
      </trkpt>
      <trkpt lat="42.297974" lon="-0.432663">
        <ele>1232.3</ele>
        <time>2018-07-22T05:22:12.000Z</time>
      </trkpt>
      <trkpt lat="42.297971" lon="-0.432667">
        <ele>1232.4</ele>
        <time>2018-07-22T05:22:13.000Z</time>
      </trkpt>
      <trkpt lat="42.297968" lon="-0.432669">
        <ele>1232.5</ele>
        <time>2018-07-22T05:22:14.000Z</time>
      </trkpt>
      <trkpt lat="42.297968" lon="-0.43267">
        <ele>1232.5</ele>
        <time>2018-07-22T05:22:15.000Z</time>
      </trkpt>
      <trkpt lat="42.297967" lon="-0.432671">
        <ele>1232.6</ele>
        <time>2018-07-22T05:22:16.000Z</time>
      </trkpt>
      <trkpt lat="42.297963" lon="-0.432673">
        <ele>1232.7</ele>
        <time>2018-07-22T05:22:17.000Z</time>
      </trkpt>
      <trkpt lat="42.297956" lon="-0.432675">
        <ele>1232.9</ele>
        <time>2018-07-22T05:22:18.000Z</time>
      </trkpt>
      <trkpt lat="42.297948" lon="-0.432674">
        <ele>1233.0</ele>
        <time>2018-07-22T05:22:19.000Z</time>
      </trkpt>
      <trkpt lat="42.297947" lon="-0.432674">
        <ele>1233.0</ele>
        <time>2018-07-22T05:22:20.000Z</time>
      </trkpt>
      <trkpt lat="42.297947" lon="-0.432674">
        <ele>1233.0</ele>
        <time>2018-07-22T05:22:21.000Z</time>
      </trkpt>
      <trkpt lat="42.297947" lon="-0.432674">
        <ele>1233.0</ele>
        <time>2018-07-22T05:22:22.000Z</time>
      </trkpt>
      <trkpt lat="42.297947" lon="-0.432675">
        <ele>1233.1</ele>
        <time>2018-07-22T05:22:23.000Z</time>
      </trkpt>
      <trkpt lat="42.297947" lon="-0.432675">
        <ele>1233.1</ele>
        <time>2018-07-22T05:22:24.000Z</time>
      </trkpt>
      <trkpt lat="42.297946" lon="-0.432675">
        <ele>1233.1</ele>
        <time>2018-07-22T05:22:25.000Z</time>
      </trkpt>
      <trkpt lat="42.297945" lon="-0.432676">
        <ele>1233.1</ele>
        <time>2018-07-22T05:22:26.000Z</time>
      </trkpt>
      <trkpt lat="42.297944" lon="-0.432677">
        <ele>1233.2</ele>
        <time>2018-07-22T05:22:27.000Z</time>
      </trkpt>
      <trkpt lat="42.297942" lon="-0.432678">
        <ele>1233.2</ele>
        <time>2018-07-22T05:22:28.000Z</time>
      </trkpt>
      <trkpt lat="42.297941" lon="-0.43268">
        <ele>1233.3</ele>
        <time>2018-07-22T05:22:29.000Z</time>
      </trkpt>
      <trkpt lat="42.29794" lon="-0.432681">
        <ele>1233.3</ele>
        <time>2018-07-22T05:22:30.000Z</time>
      </trkpt>
      <trkpt lat="42.297939" lon="-0.432682">
        <ele>1233.4</ele>
        <time>2018-07-22T05:22:31.000Z</time>
      </trkpt>
      <trkpt lat="42.297938" lon="-0.432683">
        <ele>1233.4</ele>
        <time>2018-07-22T05:22:32.000Z</time>
      </trkpt>
      <trkpt lat="42.297937" lon="-0.432685">
        <ele>1233.5</ele>
        <time>2018-07-22T05:22:33.000Z</time>
      </trkpt>
      <trkpt lat="42.297935" lon="-0.432689">
        <ele>1233.6</ele>
        <time>2018-07-22T05:22:34.000Z</time>
      </trkpt>
      <trkpt lat="42.297934" lon="-0.432694">
        <ele>1233.8</ele>
        <time>2018-07-22T05:22:35.000Z</time>
      </trkpt>
      <trkpt lat="42.297934" lon="-0.432699">
        <ele>1233.9</ele>
        <time>2018-07-22T05:22:36.000Z</time>
      </trkpt>
      <trkpt lat="42.29793" lon="-0.432709">
        <ele>1234.3</ele>
        <time>2018-07-22T05:22:37.000Z</time>
      </trkpt>
      <trkpt lat="42.297927" lon="-0.432714">
        <ele>1234.4</ele>
        <time>2018-07-22T05:22:38.000Z</time>
      </trkpt>
      <trkpt lat="42.297924" lon="-0.432723">
        <ele>1234.7</ele>
        <time>2018-07-22T05:22:39.000Z</time>
      </trkpt>
      <trkpt lat="42.297922" lon="-0.432729">
        <ele>1234.9</ele>
        <time>2018-07-22T05:22:40.000Z</time>
      </trkpt>
      <trkpt lat="42.297921" lon="-0.432733">
        <ele>1235.1</ele>
        <time>2018-07-22T05:22:41.000Z</time>
      </trkpt>
      <trkpt lat="42.29792" lon="-0.432737">
        <ele>1235.2</ele>
        <time>2018-07-22T05:22:42.000Z</time>
      </trkpt>
      <trkpt lat="42.297919" lon="-0.432741">
        <ele>1235.3</ele>
        <time>2018-07-22T05:22:43.000Z</time>
      </trkpt>
      <trkpt lat="42.297918" lon="-0.432745">
        <ele>1235.4</ele>
        <time>2018-07-22T05:22:44.000Z</time>
      </trkpt>
      <trkpt lat="42.297917" lon="-0.432749">
        <ele>1235.6</ele>
        <time>2018-07-22T05:22:45.000Z</time>
      </trkpt>
      <trkpt lat="42.297916" lon="-0.432752">
        <ele>1235.7</ele>
        <time>2018-07-22T05:22:46.000Z</time>
      </trkpt>
      <trkpt lat="42.297915" lon="-0.432754">
        <ele>1235.7</ele>
        <time>2018-07-22T05:22:47.000Z</time>
      </trkpt>
      <trkpt lat="42.297914" lon="-0.432759">
        <ele>1235.9</ele>
        <time>2018-07-22T05:22:48.000Z</time>
      </trkpt>
      <trkpt lat="42.297911" lon="-0.432765">
        <ele>1236.1</ele>
        <time>2018-07-22T05:22:49.000Z</time>
      </trkpt>
      <trkpt lat="42.297908" lon="-0.432772">
        <ele>1236.4</ele>
        <time>2018-07-22T05:22:50.000Z</time>
      </trkpt>
      <trkpt lat="42.297906" lon="-0.432777">
        <ele>1236.5</ele>
        <time>2018-07-22T05:22:51.000Z</time>
      </trkpt>
      <trkpt lat="42.297904" lon="-0.432786">
        <ele>1236.8</ele>
        <time>2018-07-22T05:22:52.000Z</time>
      </trkpt>
      <trkpt lat="42.297903" lon="-0.432793">
        <ele>1237.0</ele>
        <time>2018-07-22T05:22:53.000Z</time>
      </trkpt>
      <trkpt lat="42.297902" lon="-0.432797">
        <ele>1237.2</ele>
        <time>2018-07-22T05:22:54.000Z</time>
      </trkpt>
      <trkpt lat="42.297901" lon="-0.4328">
        <ele>1237.3</ele>
        <time>2018-07-22T05:22:55.000Z</time>
      </trkpt>
      <trkpt lat="42.297901" lon="-0.432803">
        <ele>1237.3</ele>
        <time>2018-07-22T05:22:56.000Z</time>
      </trkpt>
      <trkpt lat="42.2979" lon="-0.432806">
        <ele>1237.4</ele>
        <time>2018-07-22T05:22:57.000Z</time>
      </trkpt>
      <trkpt lat="42.297899" lon="-0.43281">
        <ele>1237.6</ele>
        <time>2018-07-22T05:22:58.000Z</time>
      </trkpt>
      <trkpt lat="42.297899" lon="-0.432813">
        <ele>1237.6</ele>
        <time>2018-07-22T05:22:59.000Z</time>
      </trkpt>
      <trkpt lat="42.297898" lon="-0.432817">
        <ele>1237.8</ele>
        <time>2018-07-22T05:23:00.000Z</time>
      </trkpt>
      <trkpt lat="42.297896" lon="-0.432821">
        <ele>1237.9</ele>
        <time>2018-07-22T05:23:01.000Z</time>
      </trkpt>
      <trkpt lat="42.297895" lon="-0.432824">
        <ele>1238.0</ele>
        <time>2018-07-22T05:23:02.000Z</time>
      </trkpt>
      <trkpt lat="42.297893" lon="-0.432828">
        <ele>1238.2</ele>
        <time>2018-07-22T05:23:03.000Z</time>
      </trkpt>
      <trkpt lat="42.297891" lon="-0.432831">
        <ele>1238.3</ele>
        <time>2018-07-22T05:23:04.000Z</time>
      </trkpt>
      <trkpt lat="42.29789" lon="-0.432833">
        <ele>1238.4</ele>
        <time>2018-07-22T05:23:05.000Z</time>
      </trkpt>
      <trkpt lat="42.29789" lon="-0.432835">
        <ele>1238.4</ele>
        <time>2018-07-22T05:23:06.000Z</time>
      </trkpt>
      <trkpt lat="42.29788" lon="-0.432847">
        <ele>1239.0</ele>
        <time>2018-07-22T05:23:07.000Z</time>
      </trkpt>
      <trkpt lat="42.297875" lon="-0.432854">
        <ele>1239.3</ele>
        <time>2018-07-22T05:23:08.000Z</time>
      </trkpt>
      <trkpt lat="42.297872" lon="-0.432858">
        <ele>1239.5</ele>
        <time>2018-07-22T05:23:09.000Z</time>
      </trkpt>
      <trkpt lat="42.29787" lon="-0.432861">
        <ele>1239.6</ele>
        <time>2018-07-22T05:23:10.000Z</time>
      </trkpt>
      <trkpt lat="42.297868" lon="-0.432863">
        <ele>1239.7</ele>
        <time>2018-07-22T05:23:11.000Z</time>
      </trkpt>
      <trkpt lat="42.297867" lon="-0.432864">
        <ele>1239.7</ele>
        <time>2018-07-22T05:23:12.000Z</time>
      </trkpt>
      <trkpt lat="42.297864" lon="-0.432866">
        <ele>1239.9</ele>
        <time>2018-07-22T05:23:13.000Z</time>
      </trkpt>
      <trkpt lat="42.297855" lon="-0.43287">
        <ele>1240.2</ele>
        <time>2018-07-22T05:23:14.000Z</time>
      </trkpt>
      <trkpt lat="42.297847" lon="-0.432872">
        <ele>1240.4</ele>
        <time>2018-07-22T05:23:15.000Z</time>
      </trkpt>
      <trkpt lat="42.297841" lon="-0.432872">
        <ele>1240.6</ele>
        <time>2018-07-22T05:23:16.000Z</time>
      </trkpt>
      <trkpt lat="42.297836" lon="-0.432872">
        <ele>1240.7</ele>
        <time>2018-07-22T05:23:17.000Z</time>
      </trkpt>
      <trkpt lat="42.297832" lon="-0.432871">
        <ele>1240.7</ele>
        <time>2018-07-22T05:23:18.000Z</time>
      </trkpt>
      <trkpt lat="42.297829" lon="-0.43287">
        <ele>1240.8</ele>
        <time>2018-07-22T05:23:19.000Z</time>
      </trkpt>
      <trkpt lat="42.297826" lon="-0.43287">
        <ele>1240.8</ele>
        <time>2018-07-22T05:23:20.000Z</time>
      </trkpt>
      <trkpt lat="42.297823" lon="-0.43287">
        <ele>1240.9</ele>
        <time>2018-07-22T05:23:21.000Z</time>
      </trkpt>
      <trkpt lat="42.29782" lon="-0.43287">
        <ele>1241.0</ele>
        <time>2018-07-22T05:23:22.000Z</time>
      </trkpt>
      <trkpt lat="42.297817" lon="-0.432871">
        <ele>1241.1</ele>
        <time>2018-07-22T05:23:23.000Z</time>
      </trkpt>
      <trkpt lat="42.297814" lon="-0.432871">
        <ele>1241.2</ele>
        <time>2018-07-22T05:23:24.000Z</time>
      </trkpt>
      <trkpt lat="42.297811" lon="-0.432871">
        <ele>1241.2</ele>
        <time>2018-07-22T05:23:25.000Z</time>
      </trkpt>
      <trkpt lat="42.297807" lon="-0.432873">
        <ele>1241.4</ele>
        <time>2018-07-22T05:23:26.000Z</time>
      </trkpt>
      <trkpt lat="42.297798" lon="-0.432882">
        <ele>1241.8</ele>
        <time>2018-07-22T05:23:27.000Z</time>
      </trkpt>
      <trkpt lat="42.297793" lon="-0.432893">
        <ele>1242.3</ele>
        <time>2018-07-22T05:23:28.000Z</time>
      </trkpt>
      <trkpt lat="42.297791" lon="-0.4329">
        <ele>1242.5</ele>
        <time>2018-07-22T05:23:29.000Z</time>
      </trkpt>
      <trkpt lat="42.29779" lon="-0.432905">
        <ele>1242.7</ele>
        <time>2018-07-22T05:23:30.000Z</time>
      </trkpt>
      <trkpt lat="42.297789" lon="-0.432909">
        <ele>1242.8</ele>
        <time>2018-07-22T05:23:31.000Z</time>
      </trkpt>
      <trkpt lat="42.297788" lon="-0.432914">
        <ele>1243.0</ele>
        <time>2018-07-22T05:23:32.000Z</time>
      </trkpt>
      <trkpt lat="42.297788" lon="-0.432918">
        <ele>1243.1</ele>
        <time>2018-07-22T05:23:33.000Z</time>
      </trkpt>
      <trkpt lat="42.297788" lon="-0.432922">
        <ele>1243.2</ele>
        <time>2018-07-22T05:23:34.000Z</time>
      </trkpt>
      <trkpt lat="42.297787" lon="-0.432925">
        <ele>1243.4</ele>
        <time>2018-07-22T05:23:35.000Z</time>
      </trkpt>
      <trkpt lat="42.297787" lon="-0.432927">
        <ele>1243.4</ele>
        <time>2018-07-22T05:23:36.000Z</time>
      </trkpt>
      <trkpt lat="42.297786" lon="-0.432928">
        <ele>1243.5</ele>
        <time>2018-07-22T05:23:37.000Z</time>
      </trkpt>
      <trkpt lat="42.297786" lon="-0.432928">
        <ele>1243.5</ele>
        <time>2018-07-22T05:23:38.000Z</time>
      </trkpt>
      <trkpt lat="42.297785" lon="-0.432928">
        <ele>1243.5</ele>
        <time>2018-07-22T05:23:39.000Z</time>
      </trkpt>
      <trkpt lat="42.297785" lon="-0.432929">
        <ele>1243.5</ele>
        <time>2018-07-22T05:23:40.000Z</time>
      </trkpt>
      <trkpt lat="42.297784" lon="-0.432931">
        <ele>1243.6</ele>
        <time>2018-07-22T05:23:41.000Z</time>
      </trkpt>
      <trkpt lat="42.297783" lon="-0.432936">
        <ele>1243.8</ele>
        <time>2018-07-22T05:23:42.000Z</time>
      </trkpt>
      <trkpt lat="42.29778" lon="-0.432945">
        <ele>1244.1</ele>
        <time>2018-07-22T05:23:43.000Z</time>
      </trkpt>
      <trkpt lat="42.297778" lon="-0.43295">
        <ele>1244.3</ele>
        <time>2018-07-22T05:23:44.000Z</time>
      </trkpt>
      <trkpt lat="42.297775" lon="-0.432956">
        <ele>1244.6</ele>
        <time>2018-07-22T05:23:45.000Z</time>
      </trkpt>
      <trkpt lat="42.297773" lon="-0.432961">
        <ele>1244.8</ele>
        <time>2018-07-22T05:23:46.000Z</time>
      </trkpt>
      <trkpt lat="42.297771" lon="-0.432966">
        <ele>1245.0</ele>
        <time>2018-07-22T05:23:47.000Z</time>
      </trkpt>
      <trkpt lat="42.29777" lon="-0.43297">
        <ele>1245.1</ele>
        <time>2018-07-22T05:23:48.000Z</time>
      </trkpt>
      <trkpt lat="42.297769" lon="-0.432971">
        <ele>1245.2</ele>
        <time>2018-07-22T05:23:49.000Z</time>
      </trkpt>
      <trkpt lat="42.297768" lon="-0.432972">
        <ele>1245.2</ele>
        <time>2018-07-22T05:23:50.000Z</time>
      </trkpt>
      <trkpt lat="42.297768" lon="-0.432973">
        <ele>1245.2</ele>
        <time>2018-07-22T05:23:51.000Z</time>
      </trkpt>
      <trkpt lat="42.297767" lon="-0.432973">
        <ele>1245.3</ele>
        <time>2018-07-22T05:23:52.000Z</time>
      </trkpt>
      <trkpt lat="42.297767" lon="-0.432974">
        <ele>1245.3</ele>
        <time>2018-07-22T05:23:53.000Z</time>
      </trkpt>
      <trkpt lat="42.297766" lon="-0.432975">
        <ele>1245.4</ele>
        <time>2018-07-22T05:23:54.000Z</time>
      </trkpt>
      <trkpt lat="42.297765" lon="-0.432976">
        <ele>1245.4</ele>
        <time>2018-07-22T05:23:55.000Z</time>
      </trkpt>
      <trkpt lat="42.297763" lon="-0.432978">
        <ele>1245.5</ele>
        <time>2018-07-22T05:23:56.000Z</time>
      </trkpt>
      <trkpt lat="42.297762" lon="-0.432981">
        <ele>1245.6</ele>
        <time>2018-07-22T05:23:57.000Z</time>
      </trkpt>
      <trkpt lat="42.29776" lon="-0.432983">
        <ele>1245.8</ele>
        <time>2018-07-22T05:23:58.000Z</time>
      </trkpt>
      <trkpt lat="42.297758" lon="-0.432986">
        <ele>1245.9</ele>
        <time>2018-07-22T05:23:59.000Z</time>
      </trkpt>
      <trkpt lat="42.297756" lon="-0.432989">
        <ele>1246.0</ele>
        <time>2018-07-22T05:24:00.000Z</time>
      </trkpt>
      <trkpt lat="42.297746" lon="-0.432987">
        <ele>1246.2</ele>
        <time>2018-07-22T05:24:01.000Z</time>
      </trkpt>
      <trkpt lat="42.297738" lon="-0.432985">
        <ele>1246.4</ele>
        <time>2018-07-22T05:24:02.000Z</time>
      </trkpt>
      <trkpt lat="42.297729" lon="-0.432986">
        <ele>1246.6</ele>
        <time>2018-07-22T05:24:03.000Z</time>
      </trkpt>
      <trkpt lat="42.297723" lon="-0.432988">
        <ele>1246.8</ele>
        <time>2018-07-22T05:24:04.000Z</time>
      </trkpt>
      <trkpt lat="42.297718" lon="-0.43299">
        <ele>1247.0</ele>
        <time>2018-07-22T05:24:05.000Z</time>
      </trkpt>
      <trkpt lat="42.297715" lon="-0.432992">
        <ele>1247.2</ele>
        <time>2018-07-22T05:24:06.000Z</time>
      </trkpt>
      <trkpt lat="42.297712" lon="-0.432993">
        <ele>1247.3</ele>
        <time>2018-07-22T05:24:07.000Z</time>
      </trkpt>
      <trkpt lat="42.297711" lon="-0.432995">
        <ele>1247.4</ele>
        <time>2018-07-22T05:24:08.000Z</time>
      </trkpt>
      <trkpt lat="42.297709" lon="-0.432996">
        <ele>1247.5</ele>
        <time>2018-07-22T05:24:09.000Z</time>
      </trkpt>
      <trkpt lat="42.297707" lon="-0.432997">
        <ele>1247.5</ele>
        <time>2018-07-22T05:24:10.000Z</time>
      </trkpt>
      <trkpt lat="42.297706" lon="-0.432998">
        <ele>1247.6</ele>
        <time>2018-07-22T05:24:11.000Z</time>
      </trkpt>
      <trkpt lat="42.297704" lon="-0.432999">
        <ele>1247.7</ele>
        <time>2018-07-22T05:24:12.000Z</time>
      </trkpt>
      <trkpt lat="42.297703" lon="-0.433">
        <ele>1247.7</ele>
        <time>2018-07-22T05:24:13.000Z</time>
      </trkpt>
      <trkpt lat="42.297701" lon="-0.433001">
        <ele>1247.8</ele>
        <time>2018-07-22T05:24:14.000Z</time>
      </trkpt>
      <trkpt lat="42.2977" lon="-0.433002">
        <ele>1247.9</ele>
        <time>2018-07-22T05:24:15.000Z</time>
      </trkpt>
      <trkpt lat="42.297699" lon="-0.433004">
        <ele>1248.0</ele>
        <time>2018-07-22T05:24:16.000Z</time>
      </trkpt>
      <trkpt lat="42.297697" lon="-0.433005">
        <ele>1248.1</ele>
        <time>2018-07-22T05:24:17.000Z</time>
      </trkpt>
      <trkpt lat="42.297696" lon="-0.433006">
        <ele>1248.1</ele>
        <time>2018-07-22T05:24:18.000Z</time>
      </trkpt>
      <trkpt lat="42.297695" lon="-0.433006">
        <ele>1248.1</ele>
        <time>2018-07-22T05:24:19.000Z</time>
      </trkpt>
      <trkpt lat="42.297695" lon="-0.433007">
        <ele>1248.2</ele>
        <time>2018-07-22T05:24:20.000Z</time>
      </trkpt>
      <trkpt lat="42.297694" lon="-0.433008">
        <ele>1248.2</ele>
        <time>2018-07-22T05:24:21.000Z</time>
      </trkpt>
      <trkpt lat="42.29769" lon="-0.43301">
        <ele>1248.4</ele>
        <time>2018-07-22T05:24:22.000Z</time>
      </trkpt>
      <trkpt lat="42.297685" lon="-0.433013">
        <ele>1248.6</ele>
        <time>2018-07-22T05:24:23.000Z</time>
      </trkpt>
      <trkpt lat="42.297682" lon="-0.433014">
        <ele>1248.7</ele>
        <time>2018-07-22T05:24:24.000Z</time>
      </trkpt>
      <trkpt lat="42.297678" lon="-0.433016">
        <ele>1248.9</ele>
        <time>2018-07-22T05:24:25.000Z</time>
      </trkpt>
      <trkpt lat="42.297673" lon="-0.433018">
        <ele>1249.1</ele>
        <time>2018-07-22T05:24:26.000Z</time>
      </trkpt>
      <trkpt lat="42.297669" lon="-0.433019">
        <ele>1249.2</ele>
        <time>2018-07-22T05:24:27.000Z</time>
      </trkpt>
      <trkpt lat="42.297666" lon="-0.433021">
        <ele>1249.4</ele>
        <time>2018-07-22T05:24:28.000Z</time>
      </trkpt>
      <trkpt lat="42.297663" lon="-0.433021">
        <ele>1249.5</ele>
        <time>2018-07-22T05:24:29.000Z</time>
      </trkpt>
      <trkpt lat="42.297662" lon="-0.433022">
        <ele>1249.5</ele>
        <time>2018-07-22T05:24:30.000Z</time>
      </trkpt>
      <trkpt lat="42.297661" lon="-0.433023">
        <ele>1249.6</ele>
        <time>2018-07-22T05:24:31.000Z</time>
      </trkpt>
      <trkpt lat="42.29766" lon="-0.433023">
        <ele>1249.6</ele>
        <time>2018-07-22T05:24:32.000Z</time>
      </trkpt>
      <trkpt lat="42.297659" lon="-0.433024">
        <ele>1249.7</ele>
        <time>2018-07-22T05:24:33.000Z</time>
      </trkpt>
      <trkpt lat="42.297657" lon="-0.433024">
        <ele>1249.7</ele>
        <time>2018-07-22T05:24:34.000Z</time>
      </trkpt>
      <trkpt lat="42.297656" lon="-0.433025">
        <ele>1249.8</ele>
        <time>2018-07-22T05:24:35.000Z</time>
      </trkpt>
      <trkpt lat="42.297654" lon="-0.433026">
        <ele>1249.9</ele>
        <time>2018-07-22T05:24:36.000Z</time>
      </trkpt>
      <trkpt lat="42.297652" lon="-0.433027">
        <ele>1249.9</ele>
        <time>2018-07-22T05:24:37.000Z</time>
      </trkpt>
      <trkpt lat="42.29765" lon="-0.433028">
        <ele>1250.0</ele>
        <time>2018-07-22T05:24:38.000Z</time>
      </trkpt>
      <trkpt lat="42.297647" lon="-0.433029">
        <ele>1250.1</ele>
        <time>2018-07-22T05:24:39.000Z</time>
      </trkpt>
      <trkpt lat="42.297645" lon="-0.433031">
        <ele>1250.3</ele>
        <time>2018-07-22T05:24:40.000Z</time>
      </trkpt>
      <trkpt lat="42.297643" lon="-0.433032">
        <ele>1250.3</ele>
        <time>2018-07-22T05:24:41.000Z</time>
      </trkpt>
      <trkpt lat="42.297641" lon="-0.433033">
        <ele>1250.4</ele>
        <time>2018-07-22T05:24:42.000Z</time>
      </trkpt>
      <trkpt lat="42.297639" lon="-0.433034">
        <ele>1250.5</ele>
        <time>2018-07-22T05:24:43.000Z</time>
      </trkpt>
      <trkpt lat="42.297638" lon="-0.433035">
        <ele>1250.6</ele>
        <time>2018-07-22T05:24:44.000Z</time>
      </trkpt>
      <trkpt lat="42.297637" lon="-0.433035">
        <ele>1250.6</ele>
        <time>2018-07-22T05:24:45.000Z</time>
      </trkpt>
      <trkpt lat="42.297634" lon="-0.433038">
        <ele>1250.8</ele>
        <time>2018-07-22T05:24:46.000Z</time>
      </trkpt>
      <trkpt lat="42.297631" lon="-0.433042">
        <ele>1251.0</ele>
        <time>2018-07-22T05:24:47.000Z</time>
      </trkpt>
      <trkpt lat="42.297627" lon="-0.433046">
        <ele>1251.2</ele>
        <time>2018-07-22T05:24:48.000Z</time>
      </trkpt>
      <trkpt lat="42.297625" lon="-0.433054">
        <ele>1251.5</ele>
        <time>2018-07-22T05:24:49.000Z</time>
      </trkpt>
      <trkpt lat="42.297626" lon="-0.433064">
        <ele>1251.9</ele>
        <time>2018-07-22T05:24:50.000Z</time>
      </trkpt>
      <trkpt lat="42.297627" lon="-0.433075">
        <ele>1252.2</ele>
        <time>2018-07-22T05:24:51.000Z</time>
      </trkpt>
      <trkpt lat="42.297629" lon="-0.433083">
        <ele>1252.4</ele>
        <time>2018-07-22T05:24:52.000Z</time>
      </trkpt>
      <trkpt lat="42.29763" lon="-0.433088">
        <ele>1252.5</ele>
        <time>2018-07-22T05:24:53.000Z</time>
      </trkpt>
      <trkpt lat="42.297631" lon="-0.433091">
        <ele>1252.6</ele>
        <time>2018-07-22T05:24:54.000Z</time>
      </trkpt>
      <trkpt lat="42.297631" lon="-0.433093">
        <ele>1252.7</ele>
        <time>2018-07-22T05:24:55.000Z</time>
      </trkpt>
      <trkpt lat="42.297632" lon="-0.433093">
        <ele>1252.6</ele>
        <time>2018-07-22T05:24:56.000Z</time>
      </trkpt>
      <trkpt lat="42.297633" lon="-0.433094">
        <ele>1252.6</ele>
        <time>2018-07-22T05:24:57.000Z</time>
      </trkpt>
      <trkpt lat="42.297633" lon="-0.433094">
        <ele>1252.6</ele>
        <time>2018-07-22T05:24:58.000Z</time>
      </trkpt>
      <trkpt lat="42.297633" lon="-0.433095">
        <ele>1252.7</ele>
        <time>2018-07-22T05:24:59.000Z</time>
      </trkpt>
      <trkpt lat="42.297634" lon="-0.433095">
        <ele>1252.7</ele>
        <time>2018-07-22T05:25:00.000Z</time>
      </trkpt>
      <trkpt lat="42.297634" lon="-0.433096">
        <ele>1252.7</ele>
        <time>2018-07-22T05:25:01.000Z</time>
      </trkpt>
      <trkpt lat="42.297634" lon="-0.433096">
        <ele>1252.7</ele>
        <time>2018-07-22T05:25:02.000Z</time>
      </trkpt>
      <trkpt lat="42.297634" lon="-0.433096">
        <ele>1252.7</ele>
        <time>2018-07-22T05:25:03.000Z</time>
      </trkpt>
      <trkpt lat="42.297635" lon="-0.433097">
        <ele>1252.7</ele>
        <time>2018-07-22T05:25:04.000Z</time>
      </trkpt>
      <trkpt lat="42.297635" lon="-0.433097">
        <ele>1252.7</ele>
        <time>2018-07-22T05:25:05.000Z</time>
      </trkpt>
      <trkpt lat="42.297635" lon="-0.433097">
        <ele>1252.7</ele>
        <time>2018-07-22T05:25:06.000Z</time>
      </trkpt>
      <trkpt lat="42.297635" lon="-0.433097">
        <ele>1252.7</ele>
        <time>2018-07-22T05:25:07.000Z</time>
      </trkpt>
      <trkpt lat="42.297635" lon="-0.433098">
        <ele>1252.7</ele>
        <time>2018-07-22T05:25:08.000Z</time>
      </trkpt>
      <trkpt lat="42.297635" lon="-0.433098">
        <ele>1252.7</ele>
        <time>2018-07-22T05:25:09.000Z</time>
      </trkpt>
      <trkpt lat="42.297635" lon="-0.433098">
        <ele>1252.7</ele>
        <time>2018-07-22T05:25:10.000Z</time>
      </trkpt>
      <trkpt lat="42.297635" lon="-0.433098">
        <ele>1252.7</ele>
        <time>2018-07-22T05:25:11.000Z</time>
      </trkpt>
      <trkpt lat="42.297635" lon="-0.433098">
        <ele>1252.7</ele>
        <time>2018-07-22T05:25:12.000Z</time>
      </trkpt>
      <trkpt lat="42.297635" lon="-0.433098">
        <ele>1252.7</ele>
        <time>2018-07-22T05:25:13.000Z</time>
      </trkpt>
      <trkpt lat="42.297635" lon="-0.433098">
        <ele>1252.7</ele>
        <time>2018-07-22T05:25:14.000Z</time>
      </trkpt>
      <trkpt lat="42.297635" lon="-0.433099">
        <ele>1252.8</ele>
        <time>2018-07-22T05:25:15.000Z</time>
      </trkpt>
      <trkpt lat="42.297635" lon="-0.433099">
        <ele>1252.8</ele>
        <time>2018-07-22T05:25:16.000Z</time>
      </trkpt>
      <trkpt lat="42.297635" lon="-0.433099">
        <ele>1252.8</ele>
        <time>2018-07-22T05:25:17.000Z</time>
      </trkpt>
      <trkpt lat="42.297635" lon="-0.433099">
        <ele>1252.8</ele>
        <time>2018-07-22T05:25:18.000Z</time>
      </trkpt>
      <trkpt lat="42.297635" lon="-0.433099">
        <ele>1252.8</ele>
        <time>2018-07-22T05:25:19.000Z</time>
      </trkpt>
      <trkpt lat="42.297635" lon="-0.433099">
        <ele>1252.8</ele>
        <time>2018-07-22T05:25:20.000Z</time>
      </trkpt>
      <trkpt lat="42.297635" lon="-0.433099">
        <ele>1252.8</ele>
        <time>2018-07-22T05:25:21.000Z</time>
      </trkpt>
      <trkpt lat="42.297635" lon="-0.4331">
        <ele>1252.8</ele>
        <time>2018-07-22T05:25:22.000Z</time>
      </trkpt>
      <trkpt lat="42.297635" lon="-0.4331">
        <ele>1252.8</ele>
        <time>2018-07-22T05:25:23.000Z</time>
      </trkpt>
      <trkpt lat="42.297635" lon="-0.4331">
        <ele>1252.8</ele>
        <time>2018-07-22T05:25:24.000Z</time>
      </trkpt>
      <trkpt lat="42.297635" lon="-0.4331">
        <ele>1252.8</ele>
        <time>2018-07-22T05:25:25.000Z</time>
      </trkpt>
      <trkpt lat="42.297636" lon="-0.4331">
        <ele>1252.8</ele>
        <time>2018-07-22T05:25:26.000Z</time>
      </trkpt>
      <trkpt lat="42.297636" lon="-0.433101">
        <ele>1252.8</ele>
        <time>2018-07-22T05:25:27.000Z</time>
      </trkpt>
      <trkpt lat="42.297636" lon="-0.433101">
        <ele>1252.8</ele>
        <time>2018-07-22T05:25:28.000Z</time>
      </trkpt>
      <trkpt lat="42.297636" lon="-0.433101">
        <ele>1252.8</ele>
        <time>2018-07-22T05:25:29.000Z</time>
      </trkpt>
      <trkpt lat="42.297636" lon="-0.433101">
        <ele>1252.8</ele>
        <time>2018-07-22T05:25:30.000Z</time>
      </trkpt>
      <trkpt lat="42.297636" lon="-0.433101">
        <ele>1252.8</ele>
        <time>2018-07-22T05:25:31.000Z</time>
      </trkpt>
      <trkpt lat="42.297636" lon="-0.433101">
        <ele>1252.8</ele>
        <time>2018-07-22T05:25:32.000Z</time>
      </trkpt>
      <trkpt lat="42.297636" lon="-0.433102">
        <ele>1252.8</ele>
        <time>2018-07-22T05:25:33.000Z</time>
      </trkpt>
      <trkpt lat="42.297636" lon="-0.433102">
        <ele>1252.8</ele>
        <time>2018-07-22T05:25:34.000Z</time>
      </trkpt>
      <trkpt lat="42.297636" lon="-0.433102">
        <ele>1252.8</ele>
        <time>2018-07-22T05:25:35.000Z</time>
      </trkpt>
      <trkpt lat="42.297637" lon="-0.433102">
        <ele>1252.8</ele>
        <time>2018-07-22T05:25:36.000Z</time>
      </trkpt>
      <trkpt lat="42.297637" lon="-0.433102">
        <ele>1252.8</ele>
        <time>2018-07-22T05:25:37.000Z</time>
      </trkpt>
      <trkpt lat="42.297637" lon="-0.433102">
        <ele>1252.8</ele>
        <time>2018-07-22T05:25:38.000Z</time>
      </trkpt>
      <trkpt lat="42.297637" lon="-0.433102">
        <ele>1252.8</ele>
        <time>2018-07-22T05:25:39.000Z</time>
      </trkpt>
      <trkpt lat="42.297636" lon="-0.433102">
        <ele>1252.8</ele>
        <time>2018-07-22T05:25:40.000Z</time>
      </trkpt>
      <trkpt lat="42.297636" lon="-0.433102">
        <ele>1252.8</ele>
        <time>2018-07-22T05:25:41.000Z</time>
      </trkpt>
      <trkpt lat="42.297636" lon="-0.433102">
        <ele>1252.8</ele>
        <time>2018-07-22T05:25:42.000Z</time>
      </trkpt>
      <trkpt lat="42.297636" lon="-0.433102">
        <ele>1252.8</ele>
        <time>2018-07-22T05:25:43.000Z</time>
      </trkpt>
      <trkpt lat="42.297636" lon="-0.433102">
        <ele>1252.8</ele>
        <time>2018-07-22T05:25:44.000Z</time>
      </trkpt>
      <trkpt lat="42.297636" lon="-0.433102">
        <ele>1252.8</ele>
        <time>2018-07-22T05:25:45.000Z</time>
      </trkpt>
      <trkpt lat="42.297636" lon="-0.433102">
        <ele>1252.8</ele>
        <time>2018-07-22T05:25:46.000Z</time>
      </trkpt>
      <trkpt lat="42.297635" lon="-0.433102">
        <ele>1252.9</ele>
        <time>2018-07-22T05:25:47.000Z</time>
      </trkpt>
      <trkpt lat="42.297635" lon="-0.433102">
        <ele>1252.9</ele>
        <time>2018-07-22T05:25:48.000Z</time>
      </trkpt>
      <trkpt lat="42.297635" lon="-0.433102">
        <ele>1252.9</ele>
        <time>2018-07-22T05:25:49.000Z</time>
      </trkpt>
      <trkpt lat="42.297635" lon="-0.433102">
        <ele>1252.9</ele>
        <time>2018-07-22T05:25:50.000Z</time>
      </trkpt>
      <trkpt lat="42.297635" lon="-0.433102">
        <ele>1252.9</ele>
        <time>2018-07-22T05:25:51.000Z</time>
      </trkpt>
      <trkpt lat="42.297634" lon="-0.433103">
        <ele>1252.9</ele>
        <time>2018-07-22T05:25:52.000Z</time>
      </trkpt>
      <trkpt lat="42.297633" lon="-0.433104">
        <ele>1253.0</ele>
        <time>2018-07-22T05:25:53.000Z</time>
      </trkpt>
      <trkpt lat="42.297632" lon="-0.433104">
        <ele>1253.0</ele>
        <time>2018-07-22T05:25:54.000Z</time>
      </trkpt>
      <trkpt lat="42.29763" lon="-0.433105">
        <ele>1253.1</ele>
        <time>2018-07-22T05:25:55.000Z</time>
      </trkpt>
      <trkpt lat="42.297619" lon="-0.433106">
        <ele>1253.4</ele>
        <time>2018-07-22T05:25:56.000Z</time>
      </trkpt>
      <trkpt lat="42.297614" lon="-0.433107">
        <ele>1253.6</ele>
        <time>2018-07-22T05:25:57.000Z</time>
      </trkpt>
      <trkpt lat="42.297611" lon="-0.43311">
        <ele>1253.8</ele>
        <time>2018-07-22T05:25:58.000Z</time>
      </trkpt>
      <trkpt lat="42.297608" lon="-0.433109">
        <ele>1253.9</ele>
        <time>2018-07-22T05:25:59.000Z</time>
      </trkpt>
      <trkpt lat="42.297602" lon="-0.433112">
        <ele>1254.1</ele>
        <time>2018-07-22T05:26:00.000Z</time>
      </trkpt>
      <trkpt lat="42.297594" lon="-0.433117">
        <ele>1254.5</ele>
        <time>2018-07-22T05:26:01.000Z</time>
      </trkpt>
      <trkpt lat="42.297588" lon="-0.433121">
        <ele>1254.8</ele>
        <time>2018-07-22T05:26:02.000Z</time>
      </trkpt>
      <trkpt lat="42.297584" lon="-0.433124">
        <ele>1255.0</ele>
        <time>2018-07-22T05:26:03.000Z</time>
      </trkpt>
      <trkpt lat="42.297581" lon="-0.433126">
        <ele>1255.2</ele>
        <time>2018-07-22T05:26:04.000Z</time>
      </trkpt>
      <trkpt lat="42.297579" lon="-0.433128">
        <ele>1255.3</ele>
        <time>2018-07-22T05:26:05.000Z</time>
      </trkpt>
      <trkpt lat="42.297578" lon="-0.433129">
        <ele>1255.4</ele>
        <time>2018-07-22T05:26:06.000Z</time>
      </trkpt>
      <trkpt lat="42.297577" lon="-0.43313">
        <ele>1255.5</ele>
        <time>2018-07-22T05:26:07.000Z</time>
      </trkpt>
      <trkpt lat="42.297576" lon="-0.433131">
        <ele>1255.5</ele>
        <time>2018-07-22T05:26:08.000Z</time>
      </trkpt>
      <trkpt lat="42.297575" lon="-0.433132">
        <ele>1255.6</ele>
        <time>2018-07-22T05:26:09.000Z</time>
      </trkpt>
      <trkpt lat="42.297573" lon="-0.433133">
        <ele>1255.7</ele>
        <time>2018-07-22T05:26:10.000Z</time>
      </trkpt>
      <trkpt lat="42.297572" lon="-0.433133">
        <ele>1255.7</ele>
        <time>2018-07-22T05:26:11.000Z</time>
      </trkpt>
      <trkpt lat="42.297571" lon="-0.433134">
        <ele>1255.8</ele>
        <time>2018-07-22T05:26:12.000Z</time>
      </trkpt>
      <trkpt lat="42.297571" lon="-0.433134">
        <ele>1255.8</ele>
        <time>2018-07-22T05:26:13.000Z</time>
      </trkpt>
      <trkpt lat="42.29757" lon="-0.433135">
        <ele>1255.8</ele>
        <time>2018-07-22T05:26:14.000Z</time>
      </trkpt>
      <trkpt lat="42.297569" lon="-0.433135">
        <ele>1255.9</ele>
        <time>2018-07-22T05:26:15.000Z</time>
      </trkpt>
      <trkpt lat="42.297569" lon="-0.433136">
        <ele>1255.9</ele>
        <time>2018-07-22T05:26:16.000Z</time>
      </trkpt>
      <trkpt lat="42.297568" lon="-0.433136">
        <ele>1255.9</ele>
        <time>2018-07-22T05:26:17.000Z</time>
      </trkpt>
      <trkpt lat="42.297568" lon="-0.433137">
        <ele>1256.0</ele>
        <time>2018-07-22T05:26:18.000Z</time>
      </trkpt>
      <trkpt lat="42.297567" lon="-0.433138">
        <ele>1256.0</ele>
        <time>2018-07-22T05:26:19.000Z</time>
      </trkpt>
      <trkpt lat="42.297566" lon="-0.433139">
        <ele>1256.1</ele>
        <time>2018-07-22T05:26:20.000Z</time>
      </trkpt>
      <trkpt lat="42.297565" lon="-0.43314">
        <ele>1256.1</ele>
        <time>2018-07-22T05:26:21.000Z</time>
      </trkpt>
      <trkpt lat="42.297564" lon="-0.433141">
        <ele>1256.2</ele>
        <time>2018-07-22T05:26:22.000Z</time>
      </trkpt>
      <trkpt lat="42.297562" lon="-0.433143">
        <ele>1256.3</ele>
        <time>2018-07-22T05:26:23.000Z</time>
      </trkpt>
      <trkpt lat="42.297561" lon="-0.433144">
        <ele>1256.4</ele>
        <time>2018-07-22T05:26:24.000Z</time>
      </trkpt>
      <trkpt lat="42.29756" lon="-0.433145">
        <ele>1256.5</ele>
        <time>2018-07-22T05:26:25.000Z</time>
      </trkpt>
      <trkpt lat="42.29756" lon="-0.433147">
        <ele>1256.5</ele>
        <time>2018-07-22T05:26:26.000Z</time>
      </trkpt>
      <trkpt lat="42.297556" lon="-0.433152">
        <ele>1256.8</ele>
        <time>2018-07-22T05:26:27.000Z</time>
      </trkpt>
      <trkpt lat="42.297552" lon="-0.433156">
        <ele>1257.1</ele>
        <time>2018-07-22T05:26:28.000Z</time>
      </trkpt>
      <trkpt lat="42.297549" lon="-0.433161">
        <ele>1257.3</ele>
        <time>2018-07-22T05:26:29.000Z</time>
      </trkpt>
      <trkpt lat="42.297547" lon="-0.433164">
        <ele>1257.5</ele>
        <time>2018-07-22T05:26:30.000Z</time>
      </trkpt>
      <trkpt lat="42.297545" lon="-0.433166">
        <ele>1257.6</ele>
        <time>2018-07-22T05:26:31.000Z</time>
      </trkpt>
      <trkpt lat="42.297544" lon="-0.433168">
        <ele>1257.7</ele>
        <time>2018-07-22T05:26:32.000Z</time>
      </trkpt>
      <trkpt lat="42.297543" lon="-0.43317">
        <ele>1257.8</ele>
        <time>2018-07-22T05:26:33.000Z</time>
      </trkpt>
      <trkpt lat="42.297543" lon="-0.433171">
        <ele>1257.9</ele>
        <time>2018-07-22T05:26:34.000Z</time>
      </trkpt>
      <trkpt lat="42.297542" lon="-0.433172">
        <ele>1257.9</ele>
        <time>2018-07-22T05:26:35.000Z</time>
      </trkpt>
      <trkpt lat="42.297542" lon="-0.433173">
        <ele>1258.0</ele>
        <time>2018-07-22T05:26:36.000Z</time>
      </trkpt>
      <trkpt lat="42.297541" lon="-0.433174">
        <ele>1258.0</ele>
        <time>2018-07-22T05:26:37.000Z</time>
      </trkpt>
      <trkpt lat="42.297541" lon="-0.433175">
        <ele>1258.1</ele>
        <time>2018-07-22T05:26:38.000Z</time>
      </trkpt>
      <trkpt lat="42.29754" lon="-0.433175">
        <ele>1258.1</ele>
        <time>2018-07-22T05:26:39.000Z</time>
      </trkpt>
      <trkpt lat="42.29754" lon="-0.433176">
        <ele>1258.1</ele>
        <time>2018-07-22T05:26:40.000Z</time>
      </trkpt>
      <trkpt lat="42.29754" lon="-0.433176">
        <ele>1258.1</ele>
        <time>2018-07-22T05:26:41.000Z</time>
      </trkpt>
      <trkpt lat="42.29754" lon="-0.433177">
        <ele>1258.2</ele>
        <time>2018-07-22T05:26:42.000Z</time>
      </trkpt>
      <trkpt lat="42.297539" lon="-0.433177">
        <ele>1258.2</ele>
        <time>2018-07-22T05:26:43.000Z</time>
      </trkpt>
      <trkpt lat="42.297539" lon="-0.433177">
        <ele>1258.2</ele>
        <time>2018-07-22T05:26:44.000Z</time>
      </trkpt>
      <trkpt lat="42.297539" lon="-0.433177">
        <ele>1258.2</ele>
        <time>2018-07-22T05:26:45.000Z</time>
      </trkpt>
      <trkpt lat="42.297539" lon="-0.433177">
        <ele>1258.2</ele>
        <time>2018-07-22T05:26:46.000Z</time>
      </trkpt>
      <trkpt lat="42.297539" lon="-0.433178">
        <ele>1258.2</ele>
        <time>2018-07-22T05:26:47.000Z</time>
      </trkpt>
      <trkpt lat="42.297539" lon="-0.433178">
        <ele>1258.2</ele>
        <time>2018-07-22T05:26:48.000Z</time>
      </trkpt>
      <trkpt lat="42.297539" lon="-0.433178">
        <ele>1258.2</ele>
        <time>2018-07-22T05:26:49.000Z</time>
      </trkpt>
      <trkpt lat="42.297539" lon="-0.433178">
        <ele>1258.2</ele>
        <time>2018-07-22T05:26:50.000Z</time>
      </trkpt>
      <trkpt lat="42.297539" lon="-0.433178">
        <ele>1258.2</ele>
        <time>2018-07-22T05:26:51.000Z</time>
      </trkpt>
      <trkpt lat="42.297539" lon="-0.433178">
        <ele>1258.2</ele>
        <time>2018-07-22T05:26:52.000Z</time>
      </trkpt>
      <trkpt lat="42.29754" lon="-0.433178">
        <ele>1258.2</ele>
        <time>2018-07-22T05:26:53.000Z</time>
      </trkpt>
      <trkpt lat="42.29754" lon="-0.433178">
        <ele>1258.2</ele>
        <time>2018-07-22T05:26:54.000Z</time>
      </trkpt>
      <trkpt lat="42.29754" lon="-0.433178">
        <ele>1258.2</ele>
        <time>2018-07-22T05:26:55.000Z</time>
      </trkpt>
      <trkpt lat="42.29754" lon="-0.433177">
        <ele>1258.2</ele>
        <time>2018-07-22T05:26:56.000Z</time>
      </trkpt>
      <trkpt lat="42.29754" lon="-0.433177">
        <ele>1258.2</ele>
        <time>2018-07-22T05:26:57.000Z</time>
      </trkpt>
      <trkpt lat="42.29754" lon="-0.433177">
        <ele>1258.2</ele>
        <time>2018-07-22T05:26:58.000Z</time>
      </trkpt>
      <trkpt lat="42.29754" lon="-0.433177">
        <ele>1258.2</ele>
        <time>2018-07-22T05:26:59.000Z</time>
      </trkpt>
      <trkpt lat="42.29754" lon="-0.433177">
        <ele>1258.2</ele>
        <time>2018-07-22T05:27:00.000Z</time>
      </trkpt>
      <trkpt lat="42.29754" lon="-0.433177">
        <ele>1258.2</ele>
        <time>2018-07-22T05:27:01.000Z</time>
      </trkpt>
      <trkpt lat="42.29754" lon="-0.433177">
        <ele>1258.2</ele>
        <time>2018-07-22T05:27:02.000Z</time>
      </trkpt>
      <trkpt lat="42.29754" lon="-0.433177">
        <ele>1258.2</ele>
        <time>2018-07-22T05:27:03.000Z</time>
      </trkpt>
      <trkpt lat="42.29754" lon="-0.433177">
        <ele>1258.2</ele>
        <time>2018-07-22T05:27:04.000Z</time>
      </trkpt>
      <trkpt lat="42.29754" lon="-0.433178">
        <ele>1258.2</ele>
        <time>2018-07-22T05:27:05.000Z</time>
      </trkpt>
      <trkpt lat="42.29754" lon="-0.433178">
        <ele>1258.2</ele>
        <time>2018-07-22T05:27:06.000Z</time>
      </trkpt>
      <trkpt lat="42.29754" lon="-0.433178">
        <ele>1258.2</ele>
        <time>2018-07-22T05:27:07.000Z</time>
      </trkpt>
      <trkpt lat="42.29754" lon="-0.433178">
        <ele>1258.2</ele>
        <time>2018-07-22T05:27:08.000Z</time>
      </trkpt>
      <trkpt lat="42.29754" lon="-0.433179">
        <ele>1258.2</ele>
        <time>2018-07-22T05:27:09.000Z</time>
      </trkpt>
      <trkpt lat="42.29754" lon="-0.433179">
        <ele>1258.2</ele>
        <time>2018-07-22T05:27:10.000Z</time>
      </trkpt>
      <trkpt lat="42.29754" lon="-0.433179">
        <ele>1258.2</ele>
        <time>2018-07-22T05:27:11.000Z</time>
      </trkpt>
      <trkpt lat="42.29754" lon="-0.43318">
        <ele>1258.3</ele>
        <time>2018-07-22T05:27:12.000Z</time>
      </trkpt>
      <trkpt lat="42.29754" lon="-0.43318">
        <ele>1258.3</ele>
        <time>2018-07-22T05:27:13.000Z</time>
      </trkpt>
      <trkpt lat="42.29754" lon="-0.433181">
        <ele>1258.3</ele>
        <time>2018-07-22T05:27:14.000Z</time>
      </trkpt>
      <trkpt lat="42.29754" lon="-0.433181">
        <ele>1258.3</ele>
        <time>2018-07-22T05:27:15.000Z</time>
      </trkpt>
      <trkpt lat="42.29754" lon="-0.433182">
        <ele>1258.3</ele>
        <time>2018-07-22T05:27:16.000Z</time>
      </trkpt>
      <trkpt lat="42.29754" lon="-0.433182">
        <ele>1258.3</ele>
        <time>2018-07-22T05:27:17.000Z</time>
      </trkpt>
      <trkpt lat="42.29754" lon="-0.433183">
        <ele>1258.4</ele>
        <time>2018-07-22T05:27:18.000Z</time>
      </trkpt>
      <trkpt lat="42.29754" lon="-0.433183">
        <ele>1258.4</ele>
        <time>2018-07-22T05:27:19.000Z</time>
      </trkpt>
      <trkpt lat="42.29754" lon="-0.433184">
        <ele>1258.4</ele>
        <time>2018-07-22T05:27:20.000Z</time>
      </trkpt>
      <trkpt lat="42.297541" lon="-0.433185">
        <ele>1258.4</ele>
        <time>2018-07-22T05:27:21.000Z</time>
      </trkpt>
      <trkpt lat="42.297542" lon="-0.433186">
        <ele>1258.4</ele>
        <time>2018-07-22T05:27:22.000Z</time>
      </trkpt>
      <trkpt lat="42.297543" lon="-0.433187">
        <ele>1258.4</ele>
        <time>2018-07-22T05:27:23.000Z</time>
      </trkpt>
      <trkpt lat="42.297544" lon="-0.433189">
        <ele>1258.5</ele>
        <time>2018-07-22T05:27:24.000Z</time>
      </trkpt>
      <trkpt lat="42.297546" lon="-0.433191">
        <ele>1258.5</ele>
        <time>2018-07-22T05:27:25.000Z</time>
      </trkpt>
      <trkpt lat="42.297548" lon="-0.433193">
        <ele>1258.5</ele>
        <time>2018-07-22T05:27:26.000Z</time>
      </trkpt>
      <trkpt lat="42.297551" lon="-0.433196">
        <ele>1258.5</ele>
        <time>2018-07-22T05:27:27.000Z</time>
      </trkpt>
      <trkpt lat="42.297555" lon="-0.433199">
        <ele>1258.5</ele>
        <time>2018-07-22T05:27:28.000Z</time>
      </trkpt>
      <trkpt lat="42.29756" lon="-0.433202">
        <ele>1258.4</ele>
        <time>2018-07-22T05:27:29.000Z</time>
      </trkpt>
      <trkpt lat="42.297567" lon="-0.433207">
        <ele>1258.4</ele>
        <time>2018-07-22T05:27:30.000Z</time>
      </trkpt>
      <trkpt lat="42.29757" lon="-0.433213">
        <ele>1258.5</ele>
        <time>2018-07-22T05:27:31.000Z</time>
      </trkpt>
      <trkpt lat="42.297572" lon="-0.433218">
        <ele>1258.6</ele>
        <time>2018-07-22T05:27:32.000Z</time>
      </trkpt>
      <trkpt lat="42.297573" lon="-0.433221">
        <ele>1258.7</ele>
        <time>2018-07-22T05:27:33.000Z</time>
      </trkpt>
      <trkpt lat="42.297574" lon="-0.433223">
        <ele>1258.7</ele>
        <time>2018-07-22T05:27:34.000Z</time>
      </trkpt>
      <trkpt lat="42.297574" lon="-0.433224">
        <ele>1258.8</ele>
        <time>2018-07-22T05:27:35.000Z</time>
      </trkpt>
      <trkpt lat="42.297575" lon="-0.433225">
        <ele>1258.8</ele>
        <time>2018-07-22T05:27:36.000Z</time>
      </trkpt>
      <trkpt lat="42.297575" lon="-0.433226">
        <ele>1258.8</ele>
        <time>2018-07-22T05:27:37.000Z</time>
      </trkpt>
      <trkpt lat="42.297575" lon="-0.433227">
        <ele>1258.8</ele>
        <time>2018-07-22T05:27:38.000Z</time>
      </trkpt>
      <trkpt lat="42.297575" lon="-0.433229">
        <ele>1258.9</ele>
        <time>2018-07-22T05:27:39.000Z</time>
      </trkpt>
      <trkpt lat="42.297575" lon="-0.43323">
        <ele>1258.9</ele>
        <time>2018-07-22T05:27:40.000Z</time>
      </trkpt>
      <trkpt lat="42.297575" lon="-0.433233">
        <ele>1259.0</ele>
        <time>2018-07-22T05:27:41.000Z</time>
      </trkpt>
      <trkpt lat="42.297575" lon="-0.433235">
        <ele>1259.1</ele>
        <time>2018-07-22T05:27:42.000Z</time>
      </trkpt>
      <trkpt lat="42.297575" lon="-0.433238">
        <ele>1259.2</ele>
        <time>2018-07-22T05:27:43.000Z</time>
      </trkpt>
      <trkpt lat="42.297575" lon="-0.433241">
        <ele>1259.3</ele>
        <time>2018-07-22T05:27:44.000Z</time>
      </trkpt>
      <trkpt lat="42.297575" lon="-0.433244">
        <ele>1259.4</ele>
        <time>2018-07-22T05:27:45.000Z</time>
      </trkpt>
      <trkpt lat="42.297575" lon="-0.433248">
        <ele>1259.6</ele>
        <time>2018-07-22T05:27:46.000Z</time>
      </trkpt>
      <trkpt lat="42.297576" lon="-0.433251">
        <ele>1259.6</ele>
        <time>2018-07-22T05:27:47.000Z</time>
      </trkpt>
      <trkpt lat="42.297576" lon="-0.433254">
        <ele>1259.7</ele>
        <time>2018-07-22T05:27:48.000Z</time>
      </trkpt>
      <trkpt lat="42.297576" lon="-0.433257">
        <ele>1259.8</ele>
        <time>2018-07-22T05:27:49.000Z</time>
      </trkpt>
      <trkpt lat="42.297577" lon="-0.433261">
        <ele>1259.9</ele>
        <time>2018-07-22T05:27:50.000Z</time>
      </trkpt>
      <trkpt lat="42.297577" lon="-0.433264">
        <ele>1260.0</ele>
        <time>2018-07-22T05:27:51.000Z</time>
      </trkpt>
      <trkpt lat="42.297574" lon="-0.43327">
        <ele>1260.3</ele>
        <time>2018-07-22T05:27:52.000Z</time>
      </trkpt>
      <trkpt lat="42.297572" lon="-0.433278">
        <ele>1260.7</ele>
        <time>2018-07-22T05:27:53.000Z</time>
      </trkpt>
      <trkpt lat="42.29757" lon="-0.433285">
        <ele>1261.0</ele>
        <time>2018-07-22T05:27:54.000Z</time>
      </trkpt>
      <trkpt lat="42.297569" lon="-0.43329">
        <ele>1261.2</ele>
        <time>2018-07-22T05:27:55.000Z</time>
      </trkpt>
      <trkpt lat="42.297569" lon="-0.433293">
        <ele>1261.3</ele>
        <time>2018-07-22T05:27:56.000Z</time>
      </trkpt>
      <trkpt lat="42.297568" lon="-0.433294">
        <ele>1261.4</ele>
        <time>2018-07-22T05:27:57.000Z</time>
      </trkpt>
      <trkpt lat="42.297569" lon="-0.433295">
        <ele>1261.4</ele>
        <time>2018-07-22T05:27:58.000Z</time>
      </trkpt>
      <trkpt lat="42.297569" lon="-0.433296">
        <ele>1261.4</ele>
        <time>2018-07-22T05:27:59.000Z</time>
      </trkpt>
      <trkpt lat="42.297569" lon="-0.433296">
        <ele>1261.4</ele>
        <time>2018-07-22T05:28:00.000Z</time>
      </trkpt>
      <trkpt lat="42.297568" lon="-0.433297">
        <ele>1261.5</ele>
        <time>2018-07-22T05:28:01.000Z</time>
      </trkpt>
      <trkpt lat="42.297568" lon="-0.433298">
        <ele>1261.5</ele>
        <time>2018-07-22T05:28:02.000Z</time>
      </trkpt>
      <trkpt lat="42.297568" lon="-0.433299">
        <ele>1261.5</ele>
        <time>2018-07-22T05:28:03.000Z</time>
      </trkpt>
      <trkpt lat="42.297568" lon="-0.4333">
        <ele>1261.6</ele>
        <time>2018-07-22T05:28:04.000Z</time>
      </trkpt>
      <trkpt lat="42.297567" lon="-0.433303">
        <ele>1261.7</ele>
        <time>2018-07-22T05:28:05.000Z</time>
      </trkpt>
      <trkpt lat="42.297567" lon="-0.433305">
        <ele>1261.8</ele>
        <time>2018-07-22T05:28:06.000Z</time>
      </trkpt>
      <trkpt lat="42.297566" lon="-0.433308">
        <ele>1261.9</ele>
        <time>2018-07-22T05:28:07.000Z</time>
      </trkpt>
      <trkpt lat="42.297565" lon="-0.433311">
        <ele>1262.0</ele>
        <time>2018-07-22T05:28:08.000Z</time>
      </trkpt>
      <trkpt lat="42.297562" lon="-0.43332">
        <ele>1262.5</ele>
        <time>2018-07-22T05:28:09.000Z</time>
      </trkpt>
      <trkpt lat="42.29756" lon="-0.433326">
        <ele>1262.7</ele>
        <time>2018-07-22T05:28:10.000Z</time>
      </trkpt>
      <trkpt lat="42.297558" lon="-0.433331">
        <ele>1263.0</ele>
        <time>2018-07-22T05:28:11.000Z</time>
      </trkpt>
      <trkpt lat="42.297555" lon="-0.433337">
        <ele>1263.2</ele>
        <time>2018-07-22T05:28:12.000Z</time>
      </trkpt>
      <trkpt lat="42.297553" lon="-0.433342">
        <ele>1263.4</ele>
        <time>2018-07-22T05:28:13.000Z</time>
      </trkpt>
      <trkpt lat="42.297551" lon="-0.433346">
        <ele>1263.5</ele>
        <time>2018-07-22T05:28:14.000Z</time>
      </trkpt>
      <trkpt lat="42.297549" lon="-0.433349">
        <ele>1263.7</ele>
        <time>2018-07-22T05:28:15.000Z</time>
      </trkpt>
      <trkpt lat="42.297548" lon="-0.433351">
        <ele>1263.8</ele>
        <time>2018-07-22T05:28:16.000Z</time>
      </trkpt>
      <trkpt lat="42.297546" lon="-0.433353">
        <ele>1263.9</ele>
        <time>2018-07-22T05:28:17.000Z</time>
      </trkpt>
      <trkpt lat="42.297545" lon="-0.433355">
        <ele>1263.9</ele>
        <time>2018-07-22T05:28:18.000Z</time>
      </trkpt>
      <trkpt lat="42.297544" lon="-0.433356">
        <ele>1264.0</ele>
        <time>2018-07-22T05:28:19.000Z</time>
      </trkpt>
      <trkpt lat="42.297543" lon="-0.433358">
        <ele>1264.1</ele>
        <time>2018-07-22T05:28:20.000Z</time>
      </trkpt>
      <trkpt lat="42.297543" lon="-0.433359">
        <ele>1264.1</ele>
        <time>2018-07-22T05:28:21.000Z</time>
      </trkpt>
      <trkpt lat="42.297541" lon="-0.433361">
        <ele>1264.2</ele>
        <time>2018-07-22T05:28:22.000Z</time>
      </trkpt>
      <trkpt lat="42.29754" lon="-0.433362">
        <ele>1264.3</ele>
        <time>2018-07-22T05:28:23.000Z</time>
      </trkpt>
      <trkpt lat="42.297539" lon="-0.433365">
        <ele>1264.4</ele>
        <time>2018-07-22T05:28:24.000Z</time>
      </trkpt>
      <trkpt lat="42.297537" lon="-0.433367">
        <ele>1264.5</ele>
        <time>2018-07-22T05:28:25.000Z</time>
      </trkpt>
      <trkpt lat="42.297536" lon="-0.433369">
        <ele>1264.5</ele>
        <time>2018-07-22T05:28:26.000Z</time>
      </trkpt>
      <trkpt lat="42.297534" lon="-0.433371">
        <ele>1264.7</ele>
        <time>2018-07-22T05:28:27.000Z</time>
      </trkpt>
      <trkpt lat="42.297533" lon="-0.433373">
        <ele>1264.7</ele>
        <time>2018-07-22T05:28:28.000Z</time>
      </trkpt>
      <trkpt lat="42.297532" lon="-0.433374">
        <ele>1264.8</ele>
        <time>2018-07-22T05:28:29.000Z</time>
      </trkpt>
      <trkpt lat="42.297531" lon="-0.433376">
        <ele>1264.9</ele>
        <time>2018-07-22T05:28:30.000Z</time>
      </trkpt>
      <trkpt lat="42.297528" lon="-0.433378">
        <ele>1265.0</ele>
        <time>2018-07-22T05:28:31.000Z</time>
      </trkpt>
      <trkpt lat="42.297525" lon="-0.433386">
        <ele>1265.3</ele>
        <time>2018-07-22T05:28:32.000Z</time>
      </trkpt>
      <trkpt lat="42.297519" lon="-0.433396">
        <ele>1265.7</ele>
        <time>2018-07-22T05:28:33.000Z</time>
      </trkpt>
      <trkpt lat="42.297514" lon="-0.433403">
        <ele>1266.0</ele>
        <time>2018-07-22T05:28:34.000Z</time>
      </trkpt>
      <trkpt lat="42.29751" lon="-0.433408">
        <ele>1266.3</ele>
        <time>2018-07-22T05:28:35.000Z</time>
      </trkpt>
      <trkpt lat="42.297507" lon="-0.433412">
        <ele>1266.5</ele>
        <time>2018-07-22T05:28:36.000Z</time>
      </trkpt>
      <trkpt lat="42.297505" lon="-0.433414">
        <ele>1266.6</ele>
        <time>2018-07-22T05:28:37.000Z</time>
      </trkpt>
      <trkpt lat="42.297503" lon="-0.433417">
        <ele>1266.7</ele>
        <time>2018-07-22T05:28:38.000Z</time>
      </trkpt>
      <trkpt lat="42.297501" lon="-0.433419">
        <ele>1266.8</ele>
        <time>2018-07-22T05:28:39.000Z</time>
      </trkpt>
      <trkpt lat="42.297499" lon="-0.433422">
        <ele>1266.9</ele>
        <time>2018-07-22T05:28:40.000Z</time>
      </trkpt>
      <trkpt lat="42.297497" lon="-0.433425">
        <ele>1267.0</ele>
        <time>2018-07-22T05:28:41.000Z</time>
      </trkpt>
      <trkpt lat="42.297495" lon="-0.433428">
        <ele>1267.1</ele>
        <time>2018-07-22T05:28:42.000Z</time>
      </trkpt>
      <trkpt lat="42.297493" lon="-0.43343">
        <ele>1267.2</ele>
        <time>2018-07-22T05:28:43.000Z</time>
      </trkpt>
      <trkpt lat="42.297492" lon="-0.433431">
        <ele>1267.2</ele>
        <time>2018-07-22T05:28:44.000Z</time>
      </trkpt>
      <trkpt lat="42.297491" lon="-0.433433">
        <ele>1267.3</ele>
        <time>2018-07-22T05:28:45.000Z</time>
      </trkpt>
      <trkpt lat="42.297486" lon="-0.43344">
        <ele>1267.5</ele>
        <time>2018-07-22T05:28:46.000Z</time>
      </trkpt>
      <trkpt lat="42.297478" lon="-0.433446">
        <ele>1267.7</ele>
        <time>2018-07-22T05:28:47.000Z</time>
      </trkpt>
      <trkpt lat="42.297472" lon="-0.43345">
        <ele>1267.9</ele>
        <time>2018-07-22T05:28:48.000Z</time>
      </trkpt>
      <trkpt lat="42.297467" lon="-0.433451">
        <ele>1268.0</ele>
        <time>2018-07-22T05:28:49.000Z</time>
      </trkpt>
      <trkpt lat="42.297463" lon="-0.433451">
        <ele>1268.0</ele>
        <time>2018-07-22T05:28:50.000Z</time>
      </trkpt>
      <trkpt lat="42.29746" lon="-0.433451">
        <ele>1268.1</ele>
        <time>2018-07-22T05:28:51.000Z</time>
      </trkpt>
      <trkpt lat="42.297457" lon="-0.433451">
        <ele>1268.1</ele>
        <time>2018-07-22T05:28:52.000Z</time>
      </trkpt>
      <trkpt lat="42.297455" lon="-0.433452">
        <ele>1268.1</ele>
        <time>2018-07-22T05:28:53.000Z</time>
      </trkpt>
      <trkpt lat="42.297453" lon="-0.433452">
        <ele>1268.2</ele>
        <time>2018-07-22T05:28:54.000Z</time>
      </trkpt>
      <trkpt lat="42.297451" lon="-0.433453">
        <ele>1268.2</ele>
        <time>2018-07-22T05:28:55.000Z</time>
      </trkpt>
      <trkpt lat="42.297449" lon="-0.433454">
        <ele>1268.3</ele>
        <time>2018-07-22T05:28:56.000Z</time>
      </trkpt>
      <trkpt lat="42.297446" lon="-0.433454">
        <ele>1268.3</ele>
        <time>2018-07-22T05:28:57.000Z</time>
      </trkpt>
      <trkpt lat="42.297444" lon="-0.433455">
        <ele>1268.4</ele>
        <time>2018-07-22T05:28:58.000Z</time>
      </trkpt>
      <trkpt lat="42.297441" lon="-0.433456">
        <ele>1268.4</ele>
        <time>2018-07-22T05:28:59.000Z</time>
      </trkpt>
      <trkpt lat="42.297433" lon="-0.43346">
        <ele>1268.6</ele>
        <time>2018-07-22T05:29:00.000Z</time>
      </trkpt>
      <trkpt lat="42.297425" lon="-0.433467">
        <ele>1268.9</ele>
        <time>2018-07-22T05:29:01.000Z</time>
      </trkpt>
      <trkpt lat="42.29742" lon="-0.433474">
        <ele>1269.1</ele>
        <time>2018-07-22T05:29:02.000Z</time>
      </trkpt>
      <trkpt lat="42.297416" lon="-0.433479">
        <ele>1269.3</ele>
        <time>2018-07-22T05:29:03.000Z</time>
      </trkpt>
      <trkpt lat="42.297414" lon="-0.433482">
        <ele>1269.4</ele>
        <time>2018-07-22T05:29:04.000Z</time>
      </trkpt>
      <trkpt lat="42.297413" lon="-0.433485">
        <ele>1269.5</ele>
        <time>2018-07-22T05:29:05.000Z</time>
      </trkpt>
      <trkpt lat="42.297412" lon="-0.433487">
        <ele>1269.6</ele>
        <time>2018-07-22T05:29:06.000Z</time>
      </trkpt>
      <trkpt lat="42.29741" lon="-0.433488">
        <ele>1269.6</ele>
        <time>2018-07-22T05:29:07.000Z</time>
      </trkpt>
      <trkpt lat="42.297407" lon="-0.433491">
        <ele>1269.7</ele>
        <time>2018-07-22T05:29:08.000Z</time>
      </trkpt>
      <trkpt lat="42.297404" lon="-0.433498">
        <ele>1269.9</ele>
        <time>2018-07-22T05:29:09.000Z</time>
      </trkpt>
      <trkpt lat="42.297402" lon="-0.433507">
        <ele>1270.2</ele>
        <time>2018-07-22T05:29:10.000Z</time>
      </trkpt>
      <trkpt lat="42.297401" lon="-0.433515">
        <ele>1270.4</ele>
        <time>2018-07-22T05:29:11.000Z</time>
      </trkpt>
      <trkpt lat="42.2974" lon="-0.433522">
        <ele>1270.6</ele>
        <time>2018-07-22T05:29:12.000Z</time>
      </trkpt>
      <trkpt lat="42.297399" lon="-0.433529">
        <ele>1270.8</ele>
        <time>2018-07-22T05:29:13.000Z</time>
      </trkpt>
      <trkpt lat="42.297397" lon="-0.433536">
        <ele>1271.0</ele>
        <time>2018-07-22T05:29:14.000Z</time>
      </trkpt>
      <trkpt lat="42.297396" lon="-0.433542">
        <ele>1271.1</ele>
        <time>2018-07-22T05:29:15.000Z</time>
      </trkpt>
      <trkpt lat="42.297394" lon="-0.433548">
        <ele>1271.3</ele>
        <time>2018-07-22T05:29:16.000Z</time>
      </trkpt>
      <trkpt lat="42.297392" lon="-0.433553">
        <ele>1271.5</ele>
        <time>2018-07-22T05:29:17.000Z</time>
      </trkpt>
      <trkpt lat="42.297391" lon="-0.433557">
        <ele>1271.6</ele>
        <time>2018-07-22T05:29:18.000Z</time>
      </trkpt>
      <trkpt lat="42.29739" lon="-0.433561">
        <ele>1271.7</ele>
        <time>2018-07-22T05:29:19.000Z</time>
      </trkpt>
      <trkpt lat="42.297389" lon="-0.433564">
        <ele>1271.8</ele>
        <time>2018-07-22T05:29:20.000Z</time>
      </trkpt>
      <trkpt lat="42.297388" lon="-0.433566">
        <ele>1271.9</ele>
        <time>2018-07-22T05:29:21.000Z</time>
      </trkpt>
      <trkpt lat="42.297387" lon="-0.433569">
        <ele>1271.9</ele>
        <time>2018-07-22T05:29:22.000Z</time>
      </trkpt>
      <trkpt lat="42.297386" lon="-0.433571">
        <ele>1272.0</ele>
        <time>2018-07-22T05:29:23.000Z</time>
      </trkpt>
      <trkpt lat="42.297386" lon="-0.433573">
        <ele>1272.1</ele>
        <time>2018-07-22T05:29:24.000Z</time>
      </trkpt>
      <trkpt lat="42.297385" lon="-0.433575">
        <ele>1272.1</ele>
        <time>2018-07-22T05:29:25.000Z</time>
      </trkpt>
      <trkpt lat="42.297384" lon="-0.433577">
        <ele>1272.2</ele>
        <time>2018-07-22T05:29:26.000Z</time>
      </trkpt>
      <trkpt lat="42.297383" lon="-0.43358">
        <ele>1272.3</ele>
        <time>2018-07-22T05:29:27.000Z</time>
      </trkpt>
      <trkpt lat="42.297382" lon="-0.433583">
        <ele>1272.4</ele>
        <time>2018-07-22T05:29:28.000Z</time>
      </trkpt>
      <trkpt lat="42.297382" lon="-0.433585">
        <ele>1272.4</ele>
        <time>2018-07-22T05:29:29.000Z</time>
      </trkpt>
      <trkpt lat="42.297381" lon="-0.433587">
        <ele>1272.5</ele>
        <time>2018-07-22T05:29:30.000Z</time>
      </trkpt>
      <trkpt lat="42.297379" lon="-0.433592">
        <ele>1272.7</ele>
        <time>2018-07-22T05:29:31.000Z</time>
      </trkpt>
      <trkpt lat="42.297378" lon="-0.433598">
        <ele>1272.8</ele>
        <time>2018-07-22T05:29:32.000Z</time>
      </trkpt>
      <trkpt lat="42.297376" lon="-0.433602">
        <ele>1273.0</ele>
        <time>2018-07-22T05:29:33.000Z</time>
      </trkpt>
      <trkpt lat="42.297375" lon="-0.433606">
        <ele>1273.1</ele>
        <time>2018-07-22T05:29:34.000Z</time>
      </trkpt>
      <trkpt lat="42.297374" lon="-0.43361">
        <ele>1273.2</ele>
        <time>2018-07-22T05:29:35.000Z</time>
      </trkpt>
      <trkpt lat="42.297373" lon="-0.433612">
        <ele>1273.3</ele>
        <time>2018-07-22T05:29:36.000Z</time>
      </trkpt>
      <trkpt lat="42.297371" lon="-0.433615">
        <ele>1273.4</ele>
        <time>2018-07-22T05:29:37.000Z</time>
      </trkpt>
      <trkpt lat="42.29737" lon="-0.433617">
        <ele>1273.4</ele>
        <time>2018-07-22T05:29:38.000Z</time>
      </trkpt>
      <trkpt lat="42.297369" lon="-0.433619">
        <ele>1273.5</ele>
        <time>2018-07-22T05:29:39.000Z</time>
      </trkpt>
      <trkpt lat="42.297368" lon="-0.433621">
        <ele>1273.6</ele>
        <time>2018-07-22T05:29:40.000Z</time>
      </trkpt>
      <trkpt lat="42.297367" lon="-0.433624">
        <ele>1273.7</ele>
        <time>2018-07-22T05:29:41.000Z</time>
      </trkpt>
      <trkpt lat="42.297365" lon="-0.433627">
        <ele>1273.8</ele>
        <time>2018-07-22T05:29:42.000Z</time>
      </trkpt>
      <trkpt lat="42.297363" lon="-0.43363">
        <ele>1273.9</ele>
        <time>2018-07-22T05:29:43.000Z</time>
      </trkpt>
      <trkpt lat="42.29736" lon="-0.433633">
        <ele>1274.0</ele>
        <time>2018-07-22T05:29:44.000Z</time>
      </trkpt>
      <trkpt lat="42.297356" lon="-0.433637">
        <ele>1274.2</ele>
        <time>2018-07-22T05:29:45.000Z</time>
      </trkpt>
      <trkpt lat="42.297351" lon="-0.43364">
        <ele>1274.4</ele>
        <time>2018-07-22T05:29:46.000Z</time>
      </trkpt>
      <trkpt lat="42.297344" lon="-0.433645">
        <ele>1274.6</ele>
        <time>2018-07-22T05:29:47.000Z</time>
      </trkpt>
      <trkpt lat="42.297338" lon="-0.433649">
        <ele>1274.8</ele>
        <time>2018-07-22T05:29:48.000Z</time>
      </trkpt>
      <trkpt lat="42.297332" lon="-0.43365">
        <ele>1275.0</ele>
        <time>2018-07-22T05:29:49.000Z</time>
      </trkpt>
      <trkpt lat="42.297327" lon="-0.433648">
        <ele>1275.0</ele>
        <time>2018-07-22T05:29:50.000Z</time>
      </trkpt>
      <trkpt lat="42.297322" lon="-0.433647">
        <ele>1275.1</ele>
        <time>2018-07-22T05:29:51.000Z</time>
      </trkpt>
      <trkpt lat="42.297319" lon="-0.433645">
        <ele>1275.1</ele>
        <time>2018-07-22T05:29:52.000Z</time>
      </trkpt>
      <trkpt lat="42.297316" lon="-0.433644">
        <ele>1275.1</ele>
        <time>2018-07-22T05:29:53.000Z</time>
      </trkpt>
      <trkpt lat="42.297313" lon="-0.433643">
        <ele>1275.2</ele>
        <time>2018-07-22T05:29:54.000Z</time>
      </trkpt>
      <trkpt lat="42.297309" lon="-0.433642">
        <ele>1275.2</ele>
        <time>2018-07-22T05:29:55.000Z</time>
      </trkpt>
      <trkpt lat="42.297306" lon="-0.433641">
        <ele>1275.2</ele>
        <time>2018-07-22T05:29:56.000Z</time>
      </trkpt>
      <trkpt lat="42.297303" lon="-0.433641">
        <ele>1275.3</ele>
        <time>2018-07-22T05:29:57.000Z</time>
      </trkpt>
      <trkpt lat="42.297299" lon="-0.433641">
        <ele>1275.4</ele>
        <time>2018-07-22T05:29:58.000Z</time>
      </trkpt>
      <trkpt lat="42.29729" lon="-0.433645">
        <ele>1275.6</ele>
        <time>2018-07-22T05:29:59.000Z</time>
      </trkpt>
      <trkpt lat="42.297284" lon="-0.43365">
        <ele>1275.9</ele>
        <time>2018-07-22T05:30:00.000Z</time>
      </trkpt>
      <trkpt lat="42.297279" lon="-0.433655">
        <ele>1276.1</ele>
        <time>2018-07-22T05:30:01.000Z</time>
      </trkpt>
      <trkpt lat="42.297275" lon="-0.433659">
        <ele>1276.3</ele>
        <time>2018-07-22T05:30:02.000Z</time>
      </trkpt>
      <trkpt lat="42.297272" lon="-0.433663">
        <ele>1276.5</ele>
        <time>2018-07-22T05:30:03.000Z</time>
      </trkpt>
      <trkpt lat="42.297271" lon="-0.433666">
        <ele>1276.6</ele>
        <time>2018-07-22T05:30:04.000Z</time>
      </trkpt>
      <trkpt lat="42.297269" lon="-0.433668">
        <ele>1276.7</ele>
        <time>2018-07-22T05:30:05.000Z</time>
      </trkpt>
      <trkpt lat="42.297268" lon="-0.43367">
        <ele>1276.7</ele>
        <time>2018-07-22T05:30:06.000Z</time>
      </trkpt>
      <trkpt lat="42.297266" lon="-0.433673">
        <ele>1276.9</ele>
        <time>2018-07-22T05:30:07.000Z</time>
      </trkpt>
      <trkpt lat="42.297265" lon="-0.433675">
        <ele>1276.9</ele>
        <time>2018-07-22T05:30:08.000Z</time>
      </trkpt>
      <trkpt lat="42.297263" lon="-0.433677">
        <ele>1277.0</ele>
        <time>2018-07-22T05:30:09.000Z</time>
      </trkpt>
      <trkpt lat="42.297262" lon="-0.433679">
        <ele>1277.1</ele>
        <time>2018-07-22T05:30:10.000Z</time>
      </trkpt>
      <trkpt lat="42.297261" lon="-0.433681">
        <ele>1277.2</ele>
        <time>2018-07-22T05:30:11.000Z</time>
      </trkpt>
      <trkpt lat="42.297259" lon="-0.433683">
        <ele>1277.3</ele>
        <time>2018-07-22T05:30:12.000Z</time>
      </trkpt>
      <trkpt lat="42.297258" lon="-0.433685">
        <ele>1277.4</ele>
        <time>2018-07-22T05:30:13.000Z</time>
      </trkpt>
      <trkpt lat="42.297256" lon="-0.433687">
        <ele>1277.5</ele>
        <time>2018-07-22T05:30:14.000Z</time>
      </trkpt>
      <trkpt lat="42.297254" lon="-0.43369">
        <ele>1277.6</ele>
        <time>2018-07-22T05:30:15.000Z</time>
      </trkpt>
      <trkpt lat="42.297249" lon="-0.433697">
        <ele>1277.9</ele>
        <time>2018-07-22T05:30:16.000Z</time>
      </trkpt>
      <trkpt lat="42.297246" lon="-0.433702">
        <ele>1278.1</ele>
        <time>2018-07-22T05:30:17.000Z</time>
      </trkpt>
      <trkpt lat="42.297244" lon="-0.433705">
        <ele>1278.2</ele>
        <time>2018-07-22T05:30:18.000Z</time>
      </trkpt>
      <trkpt lat="42.297241" lon="-0.433708">
        <ele>1278.4</ele>
        <time>2018-07-22T05:30:19.000Z</time>
      </trkpt>
      <trkpt lat="42.297239" lon="-0.433712">
        <ele>1278.5</ele>
        <time>2018-07-22T05:30:20.000Z</time>
      </trkpt>
      <trkpt lat="42.297237" lon="-0.433714">
        <ele>1278.6</ele>
        <time>2018-07-22T05:30:21.000Z</time>
      </trkpt>
      <trkpt lat="42.297235" lon="-0.433717">
        <ele>1278.8</ele>
        <time>2018-07-22T05:30:22.000Z</time>
      </trkpt>
      <trkpt lat="42.297234" lon="-0.433719">
        <ele>1278.8</ele>
        <time>2018-07-22T05:30:23.000Z</time>
      </trkpt>
      <trkpt lat="42.297233" lon="-0.433721">
        <ele>1278.9</ele>
        <time>2018-07-22T05:30:24.000Z</time>
      </trkpt>
      <trkpt lat="42.297232" lon="-0.433722">
        <ele>1279.0</ele>
        <time>2018-07-22T05:30:25.000Z</time>
      </trkpt>
      <trkpt lat="42.297231" lon="-0.433723">
        <ele>1279.0</ele>
        <time>2018-07-22T05:30:26.000Z</time>
      </trkpt>
      <trkpt lat="42.29723" lon="-0.433724">
        <ele>1279.1</ele>
        <time>2018-07-22T05:30:27.000Z</time>
      </trkpt>
      <trkpt lat="42.29723" lon="-0.433724">
        <ele>1279.1</ele>
        <time>2018-07-22T05:30:28.000Z</time>
      </trkpt>
      <trkpt lat="42.297229" lon="-0.433725">
        <ele>1279.1</ele>
        <time>2018-07-22T05:30:29.000Z</time>
      </trkpt>
      <trkpt lat="42.297229" lon="-0.433725">
        <ele>1279.1</ele>
        <time>2018-07-22T05:30:30.000Z</time>
      </trkpt>
      <trkpt lat="42.297229" lon="-0.433725">
        <ele>1279.1</ele>
        <time>2018-07-22T05:30:31.000Z</time>
      </trkpt>
      <trkpt lat="42.297229" lon="-0.433725">
        <ele>1279.1</ele>
        <time>2018-07-22T05:30:32.000Z</time>
      </trkpt>
      <trkpt lat="42.297229" lon="-0.433725">
        <ele>1279.1</ele>
        <time>2018-07-22T05:30:33.000Z</time>
      </trkpt>
      <trkpt lat="42.297228" lon="-0.433725">
        <ele>1279.1</ele>
        <time>2018-07-22T05:30:34.000Z</time>
      </trkpt>
      <trkpt lat="42.297228" lon="-0.433726">
        <ele>1279.2</ele>
        <time>2018-07-22T05:30:35.000Z</time>
      </trkpt>
      <trkpt lat="42.297228" lon="-0.433726">
        <ele>1279.2</ele>
        <time>2018-07-22T05:30:36.000Z</time>
      </trkpt>
      <trkpt lat="42.297227" lon="-0.433727">
        <ele>1279.2</ele>
        <time>2018-07-22T05:30:37.000Z</time>
      </trkpt>
      <trkpt lat="42.297227" lon="-0.433727">
        <ele>1279.2</ele>
        <time>2018-07-22T05:30:38.000Z</time>
      </trkpt>
      <trkpt lat="42.297226" lon="-0.433728">
        <ele>1279.3</ele>
        <time>2018-07-22T05:30:39.000Z</time>
      </trkpt>
      <trkpt lat="42.297225" lon="-0.43373">
        <ele>1279.3</ele>
        <time>2018-07-22T05:30:40.000Z</time>
      </trkpt>
      <trkpt lat="42.297223" lon="-0.433732">
        <ele>1279.5</ele>
        <time>2018-07-22T05:30:41.000Z</time>
      </trkpt>
      <trkpt lat="42.297221" lon="-0.433734">
        <ele>1279.6</ele>
        <time>2018-07-22T05:30:42.000Z</time>
      </trkpt>
      <trkpt lat="42.297219" lon="-0.433737">
        <ele>1279.7</ele>
        <time>2018-07-22T05:30:43.000Z</time>
      </trkpt>
      <trkpt lat="42.297216" lon="-0.43374">
        <ele>1279.8</ele>
        <time>2018-07-22T05:30:44.000Z</time>
      </trkpt>
      <trkpt lat="42.297211" lon="-0.433745">
        <ele>1280.1</ele>
        <time>2018-07-22T05:30:45.000Z</time>
      </trkpt>
      <trkpt lat="42.297207" lon="-0.433752">
        <ele>1280.4</ele>
        <time>2018-07-22T05:30:46.000Z</time>
      </trkpt>
      <trkpt lat="42.297205" lon="-0.433757">
        <ele>1280.6</ele>
        <time>2018-07-22T05:30:47.000Z</time>
      </trkpt>
      <trkpt lat="42.297203" lon="-0.433761">
        <ele>1280.7</ele>
        <time>2018-07-22T05:30:48.000Z</time>
      </trkpt>
      <trkpt lat="42.297202" lon="-0.433763">
        <ele>1280.8</ele>
        <time>2018-07-22T05:30:49.000Z</time>
      </trkpt>
      <trkpt lat="42.297201" lon="-0.433765">
        <ele>1280.9</ele>
        <time>2018-07-22T05:30:50.000Z</time>
      </trkpt>
      <trkpt lat="42.297199" lon="-0.433768">
        <ele>1281.0</ele>
        <time>2018-07-22T05:30:51.000Z</time>
      </trkpt>
      <trkpt lat="42.297198" lon="-0.43377">
        <ele>1281.1</ele>
        <time>2018-07-22T05:30:52.000Z</time>
      </trkpt>
      <trkpt lat="42.297196" lon="-0.433772">
        <ele>1281.2</ele>
        <time>2018-07-22T05:30:53.000Z</time>
      </trkpt>
      <trkpt lat="42.297195" lon="-0.433775">
        <ele>1281.3</ele>
        <time>2018-07-22T05:30:54.000Z</time>
      </trkpt>
      <trkpt lat="42.297193" lon="-0.433778">
        <ele>1281.5</ele>
        <time>2018-07-22T05:30:55.000Z</time>
      </trkpt>
      <trkpt lat="42.297192" lon="-0.433781">
        <ele>1281.6</ele>
        <time>2018-07-22T05:30:56.000Z</time>
      </trkpt>
      <trkpt lat="42.29719" lon="-0.433783">
        <ele>1281.7</ele>
        <time>2018-07-22T05:30:57.000Z</time>
      </trkpt>
      <trkpt lat="42.297186" lon="-0.433785">
        <ele>1281.9</ele>
        <time>2018-07-22T05:30:58.000Z</time>
      </trkpt>
      <trkpt lat="42.29718" lon="-0.433788">
        <ele>1282.1</ele>
        <time>2018-07-22T05:30:59.000Z</time>
      </trkpt>
      <trkpt lat="42.297168" lon="-0.433793">
        <ele>1282.5</ele>
        <time>2018-07-22T05:31:00.000Z</time>
      </trkpt>
      <trkpt lat="42.297159" lon="-0.433795">
        <ele>1282.8</ele>
        <time>2018-07-22T05:31:01.000Z</time>
      </trkpt>
      <trkpt lat="42.297153" lon="-0.433796">
        <ele>1282.9</ele>
        <time>2018-07-22T05:31:02.000Z</time>
      </trkpt>
      <trkpt lat="42.297148" lon="-0.433796">
        <ele>1283.1</ele>
        <time>2018-07-22T05:31:03.000Z</time>
      </trkpt>
      <trkpt lat="42.297144" lon="-0.433796">
        <ele>1283.2</ele>
        <time>2018-07-22T05:31:04.000Z</time>
      </trkpt>
      <trkpt lat="42.297142" lon="-0.433795">
        <ele>1283.2</ele>
        <time>2018-07-22T05:31:05.000Z</time>
      </trkpt>
      <trkpt lat="42.29714" lon="-0.433795">
        <ele>1283.2</ele>
        <time>2018-07-22T05:31:06.000Z</time>
      </trkpt>
      <trkpt lat="42.297137" lon="-0.433795">
        <ele>1283.3</ele>
        <time>2018-07-22T05:31:07.000Z</time>
      </trkpt>
      <trkpt lat="42.297135" lon="-0.433795">
        <ele>1283.3</ele>
        <time>2018-07-22T05:31:08.000Z</time>
      </trkpt>
      <trkpt lat="42.297131" lon="-0.433795">
        <ele>1283.4</ele>
        <time>2018-07-22T05:31:09.000Z</time>
      </trkpt>
      <trkpt lat="42.297124" lon="-0.433794">
        <ele>1283.5</ele>
        <time>2018-07-22T05:31:10.000Z</time>
      </trkpt>
      <trkpt lat="42.297116" lon="-0.433793">
        <ele>1283.7</ele>
        <time>2018-07-22T05:31:11.000Z</time>
      </trkpt>
      <trkpt lat="42.29711" lon="-0.433793">
        <ele>1283.8</ele>
        <time>2018-07-22T05:31:12.000Z</time>
      </trkpt>
      <trkpt lat="42.297105" lon="-0.433793">
        <ele>1283.9</ele>
        <time>2018-07-22T05:31:13.000Z</time>
      </trkpt>
      <trkpt lat="42.2971" lon="-0.433793">
        <ele>1284.1</ele>
        <time>2018-07-22T05:31:14.000Z</time>
      </trkpt>
      <trkpt lat="42.297095" lon="-0.433793">
        <ele>1284.2</ele>
        <time>2018-07-22T05:31:15.000Z</time>
      </trkpt>
      <trkpt lat="42.29709" lon="-0.433793">
        <ele>1284.3</ele>
        <time>2018-07-22T05:31:16.000Z</time>
      </trkpt>
      <trkpt lat="42.297086" lon="-0.433792">
        <ele>1284.4</ele>
        <time>2018-07-22T05:31:17.000Z</time>
      </trkpt>
      <trkpt lat="42.297081" lon="-0.433792">
        <ele>1284.5</ele>
        <time>2018-07-22T05:31:18.000Z</time>
      </trkpt>
      <trkpt lat="42.297075" lon="-0.433792">
        <ele>1284.6</ele>
        <time>2018-07-22T05:31:19.000Z</time>
      </trkpt>
      <trkpt lat="42.297067" lon="-0.433791">
        <ele>1284.7</ele>
        <time>2018-07-22T05:31:20.000Z</time>
      </trkpt>
      <trkpt lat="42.29706" lon="-0.433791">
        <ele>1284.9</ele>
        <time>2018-07-22T05:31:21.000Z</time>
      </trkpt>
      <trkpt lat="42.297056" lon="-0.433791">
        <ele>1285.0</ele>
        <time>2018-07-22T05:31:22.000Z</time>
      </trkpt>
      <trkpt lat="42.297054" lon="-0.433791">
        <ele>1285.0</ele>
        <time>2018-07-22T05:31:23.000Z</time>
      </trkpt>
      <trkpt lat="42.297053" lon="-0.433791">
        <ele>1285.1</ele>
        <time>2018-07-22T05:31:24.000Z</time>
      </trkpt>
      <trkpt lat="42.297053" lon="-0.433791">
        <ele>1285.1</ele>
        <time>2018-07-22T05:31:25.000Z</time>
      </trkpt>
      <trkpt lat="42.297054" lon="-0.43379">
        <ele>1285.0</ele>
        <time>2018-07-22T05:31:26.000Z</time>
      </trkpt>
      <trkpt lat="42.297054" lon="-0.43379">
        <ele>1285.0</ele>
        <time>2018-07-22T05:31:27.000Z</time>
      </trkpt>
      <trkpt lat="42.297053" lon="-0.43379">
        <ele>1285.0</ele>
        <time>2018-07-22T05:31:28.000Z</time>
      </trkpt>
      <trkpt lat="42.297053" lon="-0.43379">
        <ele>1285.0</ele>
        <time>2018-07-22T05:31:29.000Z</time>
      </trkpt>
      <trkpt lat="42.297052" lon="-0.433791">
        <ele>1285.1</ele>
        <time>2018-07-22T05:31:30.000Z</time>
      </trkpt>
      <trkpt lat="42.297052" lon="-0.433791">
        <ele>1285.1</ele>
        <time>2018-07-22T05:31:31.000Z</time>
      </trkpt>
      <trkpt lat="42.297052" lon="-0.43379">
        <ele>1285.1</ele>
        <time>2018-07-22T05:31:32.000Z</time>
      </trkpt>
      <trkpt lat="42.297052" lon="-0.43379">
        <ele>1285.1</ele>
        <time>2018-07-22T05:31:33.000Z</time>
      </trkpt>
      <trkpt lat="42.297048" lon="-0.433791">
        <ele>1285.2</ele>
        <time>2018-07-22T05:31:34.000Z</time>
      </trkpt>
      <trkpt lat="42.297041" lon="-0.433792">
        <ele>1285.4</ele>
        <time>2018-07-22T05:31:35.000Z</time>
      </trkpt>
      <trkpt lat="42.297035" lon="-0.433794">
        <ele>1285.6</ele>
        <time>2018-07-22T05:31:36.000Z</time>
      </trkpt>
      <trkpt lat="42.297031" lon="-0.433798">
        <ele>1285.8</ele>
        <time>2018-07-22T05:31:37.000Z</time>
      </trkpt>
      <trkpt lat="42.297028" lon="-0.433801">
        <ele>1286.0</ele>
        <time>2018-07-22T05:31:38.000Z</time>
      </trkpt>
      <trkpt lat="42.297025" lon="-0.433804">
        <ele>1286.2</ele>
        <time>2018-07-22T05:31:39.000Z</time>
      </trkpt>
      <trkpt lat="42.297023" lon="-0.433807">
        <ele>1286.3</ele>
        <time>2018-07-22T05:31:40.000Z</time>
      </trkpt>
      <trkpt lat="42.297022" lon="-0.433809">
        <ele>1286.4</ele>
        <time>2018-07-22T05:31:41.000Z</time>
      </trkpt>
      <trkpt lat="42.29702" lon="-0.433811">
        <ele>1286.5</ele>
        <time>2018-07-22T05:31:42.000Z</time>
      </trkpt>
      <trkpt lat="42.297019" lon="-0.433813">
        <ele>1286.6</ele>
        <time>2018-07-22T05:31:43.000Z</time>
      </trkpt>
      <trkpt lat="42.297018" lon="-0.433814">
        <ele>1286.7</ele>
        <time>2018-07-22T05:31:44.000Z</time>
      </trkpt>
      <trkpt lat="42.297016" lon="-0.433816">
        <ele>1286.8</ele>
        <time>2018-07-22T05:31:45.000Z</time>
      </trkpt>
      <trkpt lat="42.297015" lon="-0.433818">
        <ele>1286.9</ele>
        <time>2018-07-22T05:31:46.000Z</time>
      </trkpt>
      <trkpt lat="42.297013" lon="-0.43382">
        <ele>1287.0</ele>
        <time>2018-07-22T05:31:47.000Z</time>
      </trkpt>
      <trkpt lat="42.29701" lon="-0.433825">
        <ele>1287.3</ele>
        <time>2018-07-22T05:31:48.000Z</time>
      </trkpt>
      <trkpt lat="42.297006" lon="-0.43383">
        <ele>1287.5</ele>
        <time>2018-07-22T05:31:49.000Z</time>
      </trkpt>
      <trkpt lat="42.297004" lon="-0.433834">
        <ele>1287.7</ele>
        <time>2018-07-22T05:31:50.000Z</time>
      </trkpt>
      <trkpt lat="42.297002" lon="-0.43384">
        <ele>1288.0</ele>
        <time>2018-07-22T05:31:51.000Z</time>
      </trkpt>
      <trkpt lat="42.297001" lon="-0.433845">
        <ele>1288.2</ele>
        <time>2018-07-22T05:31:52.000Z</time>
      </trkpt>
      <trkpt lat="42.297" lon="-0.433848">
        <ele>1288.3</ele>
        <time>2018-07-22T05:31:53.000Z</time>
      </trkpt>
      <trkpt lat="42.296999" lon="-0.433852">
        <ele>1288.5</ele>
        <time>2018-07-22T05:31:54.000Z</time>
      </trkpt>
      <trkpt lat="42.296999" lon="-0.433854">
        <ele>1288.6</ele>
        <time>2018-07-22T05:31:55.000Z</time>
      </trkpt>
      <trkpt lat="42.296998" lon="-0.433856">
        <ele>1288.7</ele>
        <time>2018-07-22T05:31:56.000Z</time>
      </trkpt>
      <trkpt lat="42.296997" lon="-0.433859">
        <ele>1288.8</ele>
        <time>2018-07-22T05:31:57.000Z</time>
      </trkpt>
      <trkpt lat="42.296996" lon="-0.433861">
        <ele>1288.9</ele>
        <time>2018-07-22T05:31:58.000Z</time>
      </trkpt>
      <trkpt lat="42.296995" lon="-0.433863">
        <ele>1289.0</ele>
        <time>2018-07-22T05:31:59.000Z</time>
      </trkpt>
      <trkpt lat="42.296994" lon="-0.433866">
        <ele>1289.1</ele>
        <time>2018-07-22T05:32:00.000Z</time>
      </trkpt>
      <trkpt lat="42.296994" lon="-0.433868">
        <ele>1289.2</ele>
        <time>2018-07-22T05:32:01.000Z</time>
      </trkpt>
      <trkpt lat="42.296993" lon="-0.43387">
        <ele>1289.3</ele>
        <time>2018-07-22T05:32:02.000Z</time>
      </trkpt>
      <trkpt lat="42.296991" lon="-0.433873">
        <ele>1289.5</ele>
        <time>2018-07-22T05:32:03.000Z</time>
      </trkpt>
      <trkpt lat="42.296985" lon="-0.433884">
        <ele>1290.0</ele>
        <time>2018-07-22T05:32:04.000Z</time>
      </trkpt>
      <trkpt lat="42.296983" lon="-0.433889">
        <ele>1290.2</ele>
        <time>2018-07-22T05:32:05.000Z</time>
      </trkpt>
      <trkpt lat="42.296982" lon="-0.433891">
        <ele>1290.3</ele>
        <time>2018-07-22T05:32:06.000Z</time>
      </trkpt>
      <trkpt lat="42.296981" lon="-0.433893">
        <ele>1290.4</ele>
        <time>2018-07-22T05:32:07.000Z</time>
      </trkpt>
      <trkpt lat="42.29698" lon="-0.433895">
        <ele>1290.5</ele>
        <time>2018-07-22T05:32:08.000Z</time>
      </trkpt>
      <trkpt lat="42.296978" lon="-0.433897">
        <ele>1290.7</ele>
        <time>2018-07-22T05:32:09.000Z</time>
      </trkpt>
      <trkpt lat="42.296977" lon="-0.4339">
        <ele>1290.8</ele>
        <time>2018-07-22T05:32:10.000Z</time>
      </trkpt>
      <trkpt lat="42.296976" lon="-0.433902">
        <ele>1290.9</ele>
        <time>2018-07-22T05:32:11.000Z</time>
      </trkpt>
      <trkpt lat="42.296975" lon="-0.433904">
        <ele>1291.0</ele>
        <time>2018-07-22T05:32:12.000Z</time>
      </trkpt>
      <trkpt lat="42.296974" lon="-0.433906">
        <ele>1291.1</ele>
        <time>2018-07-22T05:32:13.000Z</time>
      </trkpt>
      <trkpt lat="42.296973" lon="-0.433908">
        <ele>1291.2</ele>
        <time>2018-07-22T05:32:14.000Z</time>
      </trkpt>
      <trkpt lat="42.296972" lon="-0.43391">
        <ele>1291.3</ele>
        <time>2018-07-22T05:32:15.000Z</time>
      </trkpt>
      <trkpt lat="42.296971" lon="-0.433913">
        <ele>1291.4</ele>
        <time>2018-07-22T05:32:16.000Z</time>
      </trkpt>
      <trkpt lat="42.29697" lon="-0.433915">
        <ele>1291.5</ele>
        <time>2018-07-22T05:32:17.000Z</time>
      </trkpt>
      <trkpt lat="42.296968" lon="-0.433918">
        <ele>1291.7</ele>
        <time>2018-07-22T05:32:18.000Z</time>
      </trkpt>
      <trkpt lat="42.296967" lon="-0.433921">
        <ele>1291.8</ele>
        <time>2018-07-22T05:32:19.000Z</time>
      </trkpt>
      <trkpt lat="42.296965" lon="-0.433925">
        <ele>1292.0</ele>
        <time>2018-07-22T05:32:20.000Z</time>
      </trkpt>
      <trkpt lat="42.296963" lon="-0.433928">
        <ele>1292.2</ele>
        <time>2018-07-22T05:32:21.000Z</time>
      </trkpt>
      <trkpt lat="42.296961" lon="-0.433932">
        <ele>1292.4</ele>
        <time>2018-07-22T05:32:22.000Z</time>
      </trkpt>
      <trkpt lat="42.296958" lon="-0.433937">
        <ele>1292.7</ele>
        <time>2018-07-22T05:32:23.000Z</time>
      </trkpt>
      <trkpt lat="42.296952" lon="-0.433946">
        <ele>1293.2</ele>
        <time>2018-07-22T05:32:24.000Z</time>
      </trkpt>
      <trkpt lat="42.296949" lon="-0.43395">
        <ele>1293.4</ele>
        <time>2018-07-22T05:32:25.000Z</time>
      </trkpt>
      <trkpt lat="42.296945" lon="-0.433953">
        <ele>1293.6</ele>
        <time>2018-07-22T05:32:26.000Z</time>
      </trkpt>
      <trkpt lat="42.296939" lon="-0.433954">
        <ele>1293.8</ele>
        <time>2018-07-22T05:32:27.000Z</time>
      </trkpt>
      <trkpt lat="42.296934" lon="-0.433956">
        <ele>1294.0</ele>
        <time>2018-07-22T05:32:28.000Z</time>
      </trkpt>
      <trkpt lat="42.296932" lon="-0.433956">
        <ele>1294.1</ele>
        <time>2018-07-22T05:32:29.000Z</time>
      </trkpt>
      <trkpt lat="42.29693" lon="-0.433957">
        <ele>1294.2</ele>
        <time>2018-07-22T05:32:30.000Z</time>
      </trkpt>
      <trkpt lat="42.296927" lon="-0.433958">
        <ele>1294.3</ele>
        <time>2018-07-22T05:32:31.000Z</time>
      </trkpt>
      <trkpt lat="42.296924" lon="-0.433959">
        <ele>1294.4</ele>
        <time>2018-07-22T05:32:32.000Z</time>
      </trkpt>
      <trkpt lat="42.296922" lon="-0.43396">
        <ele>1294.5</ele>
        <time>2018-07-22T05:32:33.000Z</time>
      </trkpt>
      <trkpt lat="42.296918" lon="-0.433962">
        <ele>1294.7</ele>
        <time>2018-07-22T05:32:34.000Z</time>
      </trkpt>
      <trkpt lat="42.296913" lon="-0.433966">
        <ele>1295.0</ele>
        <time>2018-07-22T05:32:35.000Z</time>
      </trkpt>
      <trkpt lat="42.296907" lon="-0.43397">
        <ele>1295.3</ele>
        <time>2018-07-22T05:32:36.000Z</time>
      </trkpt>
      <trkpt lat="42.296903" lon="-0.433973">
        <ele>1295.5</ele>
        <time>2018-07-22T05:32:37.000Z</time>
      </trkpt>
      <trkpt lat="42.296897" lon="-0.433975">
        <ele>1295.8</ele>
        <time>2018-07-22T05:32:38.000Z</time>
      </trkpt>
      <trkpt lat="42.296892" lon="-0.433978">
        <ele>1296.0</ele>
        <time>2018-07-22T05:32:39.000Z</time>
      </trkpt>
      <trkpt lat="42.296887" lon="-0.43398">
        <ele>1296.3</ele>
        <time>2018-07-22T05:32:40.000Z</time>
      </trkpt>
      <trkpt lat="42.296883" lon="-0.433982">
        <ele>1296.5</ele>
        <time>2018-07-22T05:32:41.000Z</time>
      </trkpt>
      <trkpt lat="42.296879" lon="-0.433984">
        <ele>1296.7</ele>
        <time>2018-07-22T05:32:42.000Z</time>
      </trkpt>
      <trkpt lat="42.296876" lon="-0.433986">
        <ele>1296.8</ele>
        <time>2018-07-22T05:32:43.000Z</time>
      </trkpt>
      <trkpt lat="42.296873" lon="-0.433988">
        <ele>1297.0</ele>
        <time>2018-07-22T05:32:44.000Z</time>
      </trkpt>
      <trkpt lat="42.29687" lon="-0.43399">
        <ele>1297.1</ele>
        <time>2018-07-22T05:32:45.000Z</time>
      </trkpt>
      <trkpt lat="42.296868" lon="-0.433991">
        <ele>1297.2</ele>
        <time>2018-07-22T05:32:46.000Z</time>
      </trkpt>
      <trkpt lat="42.296865" lon="-0.433994">
        <ele>1297.4</ele>
        <time>2018-07-22T05:32:47.000Z</time>
      </trkpt>
      <trkpt lat="42.296862" lon="-0.433996">
        <ele>1297.6</ele>
        <time>2018-07-22T05:32:48.000Z</time>
      </trkpt>
      <trkpt lat="42.296859" lon="-0.433999">
        <ele>1297.8</ele>
        <time>2018-07-22T05:32:49.000Z</time>
      </trkpt>
      <trkpt lat="42.296857" lon="-0.434001">
        <ele>1298.0</ele>
        <time>2018-07-22T05:32:50.000Z</time>
      </trkpt>
      <trkpt lat="42.296854" lon="-0.434004">
        <ele>1298.2</ele>
        <time>2018-07-22T05:32:51.000Z</time>
      </trkpt>
      <trkpt lat="42.29685" lon="-0.434009">
        <ele>1298.5</ele>
        <time>2018-07-22T05:32:52.000Z</time>
      </trkpt>
      <trkpt lat="42.296847" lon="-0.434012">
        <ele>1298.7</ele>
        <time>2018-07-22T05:32:53.000Z</time>
      </trkpt>
      <trkpt lat="42.296845" lon="-0.434014">
        <ele>1298.8</ele>
        <time>2018-07-22T05:32:54.000Z</time>
      </trkpt>
      <trkpt lat="42.296843" lon="-0.434016">
        <ele>1299.0</ele>
        <time>2018-07-22T05:32:55.000Z</time>
      </trkpt>
      <trkpt lat="42.296841" lon="-0.434018">
        <ele>1299.1</ele>
        <time>2018-07-22T05:32:56.000Z</time>
      </trkpt>
      <trkpt lat="42.296839" lon="-0.43402">
        <ele>1299.2</ele>
        <time>2018-07-22T05:32:57.000Z</time>
      </trkpt>
      <trkpt lat="42.296837" lon="-0.434022">
        <ele>1299.4</ele>
        <time>2018-07-22T05:32:58.000Z</time>
      </trkpt>
      <trkpt lat="42.296835" lon="-0.434023">
        <ele>1299.5</ele>
        <time>2018-07-22T05:32:59.000Z</time>
      </trkpt>
      <trkpt lat="42.296834" lon="-0.434025">
        <ele>1299.6</ele>
        <time>2018-07-22T05:33:00.000Z</time>
      </trkpt>
      <trkpt lat="42.296832" lon="-0.434026">
        <ele>1299.7</ele>
        <time>2018-07-22T05:33:01.000Z</time>
      </trkpt>
      <trkpt lat="42.296831" lon="-0.434028">
        <ele>1299.8</ele>
        <time>2018-07-22T05:33:02.000Z</time>
      </trkpt>
      <trkpt lat="42.29683" lon="-0.434029">
        <ele>1299.9</ele>
        <time>2018-07-22T05:33:03.000Z</time>
      </trkpt>
      <trkpt lat="42.29683" lon="-0.43403">
        <ele>1299.9</ele>
        <time>2018-07-22T05:33:04.000Z</time>
      </trkpt>
      <trkpt lat="42.296829" lon="-0.434031">
        <ele>1300.0</ele>
        <time>2018-07-22T05:33:05.000Z</time>
      </trkpt>
      <trkpt lat="42.296828" lon="-0.434032">
        <ele>1300.1</ele>
        <time>2018-07-22T05:33:06.000Z</time>
      </trkpt>
      <trkpt lat="42.296827" lon="-0.434034">
        <ele>1300.2</ele>
        <time>2018-07-22T05:33:07.000Z</time>
      </trkpt>
      <trkpt lat="42.296825" lon="-0.434035">
        <ele>1300.3</ele>
        <time>2018-07-22T05:33:08.000Z</time>
      </trkpt>
      <trkpt lat="42.296824" lon="-0.434037">
        <ele>1300.4</ele>
        <time>2018-07-22T05:33:09.000Z</time>
      </trkpt>
      <trkpt lat="42.296822" lon="-0.434039">
        <ele>1300.5</ele>
        <time>2018-07-22T05:33:10.000Z</time>
      </trkpt>
      <trkpt lat="42.296821" lon="-0.434041">
        <ele>1300.6</ele>
        <time>2018-07-22T05:33:11.000Z</time>
      </trkpt>
      <trkpt lat="42.296819" lon="-0.434044">
        <ele>1300.8</ele>
        <time>2018-07-22T05:33:12.000Z</time>
      </trkpt>
      <trkpt lat="42.296816" lon="-0.434048">
        <ele>1301.1</ele>
        <time>2018-07-22T05:33:13.000Z</time>
      </trkpt>
      <trkpt lat="42.296811" lon="-0.434054">
        <ele>1301.5</ele>
        <time>2018-07-22T05:33:14.000Z</time>
      </trkpt>
      <trkpt lat="42.296808" lon="-0.434057">
        <ele>1301.7</ele>
        <time>2018-07-22T05:33:15.000Z</time>
      </trkpt>
      <trkpt lat="42.296805" lon="-0.434059">
        <ele>1301.9</ele>
        <time>2018-07-22T05:33:16.000Z</time>
      </trkpt>
      <trkpt lat="42.296803" lon="-0.434061">
        <ele>1302.0</ele>
        <time>2018-07-22T05:33:17.000Z</time>
      </trkpt>
      <trkpt lat="42.296801" lon="-0.434063">
        <ele>1302.2</ele>
        <time>2018-07-22T05:33:18.000Z</time>
      </trkpt>
      <trkpt lat="42.2968" lon="-0.434065">
        <ele>1302.3</ele>
        <time>2018-07-22T05:33:19.000Z</time>
      </trkpt>
      <trkpt lat="42.296799" lon="-0.434066">
        <ele>1302.3</ele>
        <time>2018-07-22T05:33:20.000Z</time>
      </trkpt>
      <trkpt lat="42.296798" lon="-0.434068">
        <ele>1302.5</ele>
        <time>2018-07-22T05:33:21.000Z</time>
      </trkpt>
      <trkpt lat="42.296798" lon="-0.43407">
        <ele>1302.5</ele>
        <time>2018-07-22T05:33:22.000Z</time>
      </trkpt>
      <trkpt lat="42.296797" lon="-0.434072">
        <ele>1302.7</ele>
        <time>2018-07-22T05:33:23.000Z</time>
      </trkpt>
      <trkpt lat="42.296796" lon="-0.434073">
        <ele>1302.7</ele>
        <time>2018-07-22T05:33:24.000Z</time>
      </trkpt>
      <trkpt lat="42.296794" lon="-0.434075">
        <ele>1302.9</ele>
        <time>2018-07-22T05:33:25.000Z</time>
      </trkpt>
      <trkpt lat="42.296792" lon="-0.434077">
        <ele>1303.0</ele>
        <time>2018-07-22T05:33:26.000Z</time>
      </trkpt>
      <trkpt lat="42.29679" lon="-0.43408">
        <ele>1303.2</ele>
        <time>2018-07-22T05:33:27.000Z</time>
      </trkpt>
      <trkpt lat="42.296788" lon="-0.434081">
        <ele>1303.3</ele>
        <time>2018-07-22T05:33:28.000Z</time>
      </trkpt>
      <trkpt lat="42.296786" lon="-0.434082">
        <ele>1303.4</ele>
        <time>2018-07-22T05:33:29.000Z</time>
      </trkpt>
      <trkpt lat="42.296786" lon="-0.434083">
        <ele>1303.5</ele>
        <time>2018-07-22T05:33:30.000Z</time>
      </trkpt>
      <trkpt lat="42.296786" lon="-0.434083">
        <ele>1303.5</ele>
        <time>2018-07-22T05:33:31.000Z</time>
      </trkpt>
      <trkpt lat="42.296784" lon="-0.434085">
        <ele>1303.6</ele>
        <time>2018-07-22T05:33:32.000Z</time>
      </trkpt>
      <trkpt lat="42.29678" lon="-0.434089">
        <ele>1303.9</ele>
        <time>2018-07-22T05:33:33.000Z</time>
      </trkpt>
      <trkpt lat="42.296776" lon="-0.434093">
        <ele>1304.2</ele>
        <time>2018-07-22T05:33:34.000Z</time>
      </trkpt>
      <trkpt lat="42.296774" lon="-0.434095">
        <ele>1304.3</ele>
        <time>2018-07-22T05:33:35.000Z</time>
      </trkpt>
      <trkpt lat="42.296772" lon="-0.434102">
        <ele>1304.7</ele>
        <time>2018-07-22T05:33:36.000Z</time>
      </trkpt>
      <trkpt lat="42.296769" lon="-0.434109">
        <ele>1305.1</ele>
        <time>2018-07-22T05:33:37.000Z</time>
      </trkpt>
      <trkpt lat="42.296767" lon="-0.434115">
        <ele>1305.4</ele>
        <time>2018-07-22T05:33:38.000Z</time>
      </trkpt>
      <trkpt lat="42.296765" lon="-0.43412">
        <ele>1305.7</ele>
        <time>2018-07-22T05:33:39.000Z</time>
      </trkpt>
      <trkpt lat="42.296764" lon="-0.434124">
        <ele>1305.9</ele>
        <time>2018-07-22T05:33:40.000Z</time>
      </trkpt>
      <trkpt lat="42.296763" lon="-0.434127">
        <ele>1306.1</ele>
        <time>2018-07-22T05:33:41.000Z</time>
      </trkpt>
      <trkpt lat="42.296762" lon="-0.434129">
        <ele>1306.2</ele>
        <time>2018-07-22T05:33:42.000Z</time>
      </trkpt>
      <trkpt lat="42.296761" lon="-0.434131">
        <ele>1306.3</ele>
        <time>2018-07-22T05:33:43.000Z</time>
      </trkpt>
      <trkpt lat="42.296761" lon="-0.434133">
        <ele>1306.4</ele>
        <time>2018-07-22T05:33:44.000Z</time>
      </trkpt>
      <trkpt lat="42.29676" lon="-0.434135">
        <ele>1306.5</ele>
        <time>2018-07-22T05:33:45.000Z</time>
      </trkpt>
      <trkpt lat="42.296759" lon="-0.434137">
        <ele>1306.6</ele>
        <time>2018-07-22T05:33:46.000Z</time>
      </trkpt>
      <trkpt lat="42.296758" lon="-0.43414">
        <ele>1306.8</ele>
        <time>2018-07-22T05:33:47.000Z</time>
      </trkpt>
      <trkpt lat="42.296756" lon="-0.434144">
        <ele>1307.0</ele>
        <time>2018-07-22T05:33:48.000Z</time>
      </trkpt>
      <trkpt lat="42.296754" lon="-0.434149">
        <ele>1307.3</ele>
        <time>2018-07-22T05:33:49.000Z</time>
      </trkpt>
      <trkpt lat="42.296752" lon="-0.434154">
        <ele>1307.6</ele>
        <time>2018-07-22T05:33:50.000Z</time>
      </trkpt>
      <trkpt lat="42.29675" lon="-0.434158">
        <ele>1307.8</ele>
        <time>2018-07-22T05:33:51.000Z</time>
      </trkpt>
      <trkpt lat="42.296748" lon="-0.43416">
        <ele>1308.0</ele>
        <time>2018-07-22T05:33:52.000Z</time>
      </trkpt>
      <trkpt lat="42.296746" lon="-0.434164">
        <ele>1308.2</ele>
        <time>2018-07-22T05:33:53.000Z</time>
      </trkpt>
      <trkpt lat="42.296745" lon="-0.434166">
        <ele>1308.3</ele>
        <time>2018-07-22T05:33:54.000Z</time>
      </trkpt>
      <trkpt lat="42.296742" lon="-0.434168">
        <ele>1308.5</ele>
        <time>2018-07-22T05:33:55.000Z</time>
      </trkpt>
      <trkpt lat="42.296738" lon="-0.434172">
        <ele>1308.8</ele>
        <time>2018-07-22T05:33:56.000Z</time>
      </trkpt>
      <trkpt lat="42.296735" lon="-0.434177">
        <ele>1309.0</ele>
        <time>2018-07-22T05:33:57.000Z</time>
      </trkpt>
      <trkpt lat="42.296735" lon="-0.434184">
        <ele>1309.2</ele>
        <time>2018-07-22T05:33:58.000Z</time>
      </trkpt>
      <trkpt lat="42.296736" lon="-0.434192">
        <ele>1309.4</ele>
        <time>2018-07-22T05:33:59.000Z</time>
      </trkpt>
      <trkpt lat="42.296738" lon="-0.434199">
        <ele>1309.5</ele>
        <time>2018-07-22T05:34:00.000Z</time>
      </trkpt>
      <trkpt lat="42.29674" lon="-0.434204">
        <ele>1309.6</ele>
        <time>2018-07-22T05:34:01.000Z</time>
      </trkpt>
      <trkpt lat="42.296742" lon="-0.434209">
        <ele>1309.6</ele>
        <time>2018-07-22T05:34:02.000Z</time>
      </trkpt>
      <trkpt lat="42.296744" lon="-0.434213">
        <ele>1309.7</ele>
        <time>2018-07-22T05:34:03.000Z</time>
      </trkpt>
      <trkpt lat="42.296746" lon="-0.434217">
        <ele>1309.7</ele>
        <time>2018-07-22T05:34:04.000Z</time>
      </trkpt>
      <trkpt lat="42.296747" lon="-0.434219">
        <ele>1309.7</ele>
        <time>2018-07-22T05:34:05.000Z</time>
      </trkpt>
      <trkpt lat="42.296749" lon="-0.434222">
        <ele>1309.7</ele>
        <time>2018-07-22T05:34:06.000Z</time>
      </trkpt>
      <trkpt lat="42.29675" lon="-0.434223">
        <ele>1309.7</ele>
        <time>2018-07-22T05:34:07.000Z</time>
      </trkpt>
      <trkpt lat="42.296751" lon="-0.434225">
        <ele>1309.8</ele>
        <time>2018-07-22T05:34:08.000Z</time>
      </trkpt>
      <trkpt lat="42.296752" lon="-0.434227">
        <ele>1309.8</ele>
        <time>2018-07-22T05:34:09.000Z</time>
      </trkpt>
      <trkpt lat="42.296752" lon="-0.434228">
        <ele>1309.8</ele>
        <time>2018-07-22T05:34:10.000Z</time>
      </trkpt>
      <trkpt lat="42.296753" lon="-0.43423">
        <ele>1309.8</ele>
        <time>2018-07-22T05:34:11.000Z</time>
      </trkpt>
      <trkpt lat="42.296753" lon="-0.434232">
        <ele>1309.9</ele>
        <time>2018-07-22T05:34:12.000Z</time>
      </trkpt>
      <trkpt lat="42.296753" lon="-0.434234">
        <ele>1309.9</ele>
        <time>2018-07-22T05:34:13.000Z</time>
      </trkpt>
      <trkpt lat="42.296753" lon="-0.434236">
        <ele>1310.0</ele>
        <time>2018-07-22T05:34:14.000Z</time>
      </trkpt>
      <trkpt lat="42.296754" lon="-0.434237">
        <ele>1310.0</ele>
        <time>2018-07-22T05:34:15.000Z</time>
      </trkpt>
      <trkpt lat="42.296754" lon="-0.434239">
        <ele>1310.0</ele>
        <time>2018-07-22T05:34:16.000Z</time>
      </trkpt>
      <trkpt lat="42.296755" lon="-0.43424">
        <ele>1310.0</ele>
        <time>2018-07-22T05:34:17.000Z</time>
      </trkpt>
      <trkpt lat="42.296754" lon="-0.434242">
        <ele>1310.1</ele>
        <time>2018-07-22T05:34:18.000Z</time>
      </trkpt>
      <trkpt lat="42.296752" lon="-0.434244">
        <ele>1310.2</ele>
        <time>2018-07-22T05:34:19.000Z</time>
      </trkpt>
      <trkpt lat="42.296749" lon="-0.434246">
        <ele>1310.4</ele>
        <time>2018-07-22T05:34:20.000Z</time>
      </trkpt>
      <trkpt lat="42.296743" lon="-0.434255">
        <ele>1310.9</ele>
        <time>2018-07-22T05:34:21.000Z</time>
      </trkpt>
      <trkpt lat="42.296739" lon="-0.434261">
        <ele>1311.2</ele>
        <time>2018-07-22T05:34:22.000Z</time>
      </trkpt>
      <trkpt lat="42.296736" lon="-0.434265">
        <ele>1311.4</ele>
        <time>2018-07-22T05:34:23.000Z</time>
      </trkpt>
      <trkpt lat="42.296734" lon="-0.43427">
        <ele>1311.6</ele>
        <time>2018-07-22T05:34:24.000Z</time>
      </trkpt>
      <trkpt lat="42.296733" lon="-0.434273">
        <ele>1311.7</ele>
        <time>2018-07-22T05:34:25.000Z</time>
      </trkpt>
      <trkpt lat="42.296732" lon="-0.434277">
        <ele>1311.9</ele>
        <time>2018-07-22T05:34:26.000Z</time>
      </trkpt>
      <trkpt lat="42.296731" lon="-0.43428">
        <ele>1312.0</ele>
        <time>2018-07-22T05:34:27.000Z</time>
      </trkpt>
      <trkpt lat="42.296729" lon="-0.434283">
        <ele>1312.1</ele>
        <time>2018-07-22T05:34:28.000Z</time>
      </trkpt>
      <trkpt lat="42.296728" lon="-0.434285">
        <ele>1312.2</ele>
        <time>2018-07-22T05:34:29.000Z</time>
      </trkpt>
      <trkpt lat="42.296726" lon="-0.434288">
        <ele>1312.4</ele>
        <time>2018-07-22T05:34:30.000Z</time>
      </trkpt>
      <trkpt lat="42.296725" lon="-0.434291">
        <ele>1312.5</ele>
        <time>2018-07-22T05:34:31.000Z</time>
      </trkpt>
      <trkpt lat="42.296724" lon="-0.434295">
        <ele>1312.6</ele>
        <time>2018-07-22T05:34:32.000Z</time>
      </trkpt>
      <trkpt lat="42.296722" lon="-0.434298">
        <ele>1312.8</ele>
        <time>2018-07-22T05:34:33.000Z</time>
      </trkpt>
      <trkpt lat="42.29672" lon="-0.434301">
        <ele>1313.0</ele>
        <time>2018-07-22T05:34:34.000Z</time>
      </trkpt>
      <trkpt lat="42.296715" lon="-0.434305">
        <ele>1313.2</ele>
        <time>2018-07-22T05:34:35.000Z</time>
      </trkpt>
      <trkpt lat="42.296707" lon="-0.434313">
        <ele>1313.8</ele>
        <time>2018-07-22T05:34:36.000Z</time>
      </trkpt>
      <trkpt lat="42.296702" lon="-0.434321">
        <ele>1314.2</ele>
        <time>2018-07-22T05:34:37.000Z</time>
      </trkpt>
      <trkpt lat="42.296699" lon="-0.434326">
        <ele>1314.4</ele>
        <time>2018-07-22T05:34:38.000Z</time>
      </trkpt>
      <trkpt lat="42.296697" lon="-0.43433">
        <ele>1314.6</ele>
        <time>2018-07-22T05:34:39.000Z</time>
      </trkpt>
      <trkpt lat="42.296695" lon="-0.434333">
        <ele>1314.8</ele>
        <time>2018-07-22T05:34:40.000Z</time>
      </trkpt>
      <trkpt lat="42.296693" lon="-0.434335">
        <ele>1314.9</ele>
        <time>2018-07-22T05:34:41.000Z</time>
      </trkpt>
      <trkpt lat="42.296692" lon="-0.434338">
        <ele>1315.0</ele>
        <time>2018-07-22T05:34:42.000Z</time>
      </trkpt>
      <trkpt lat="42.29669" lon="-0.434341">
        <ele>1315.2</ele>
        <time>2018-07-22T05:34:43.000Z</time>
      </trkpt>
      <trkpt lat="42.296688" lon="-0.434343">
        <ele>1315.3</ele>
        <time>2018-07-22T05:34:44.000Z</time>
      </trkpt>
      <trkpt lat="42.296687" lon="-0.434344">
        <ele>1315.4</ele>
        <time>2018-07-22T05:34:45.000Z</time>
      </trkpt>
      <trkpt lat="42.296684" lon="-0.434346">
        <ele>1315.5</ele>
        <time>2018-07-22T05:34:46.000Z</time>
      </trkpt>
      <trkpt lat="42.296678" lon="-0.43435">
        <ele>1315.9</ele>
        <time>2018-07-22T05:34:47.000Z</time>
      </trkpt>
      <trkpt lat="42.296666" lon="-0.434355">
        <ele>1316.4</ele>
        <time>2018-07-22T05:34:48.000Z</time>
      </trkpt>
      <trkpt lat="42.296656" lon="-0.43436">
        <ele>1316.7</ele>
        <time>2018-07-22T05:34:49.000Z</time>
      </trkpt>
      <trkpt lat="42.296651" lon="-0.434363">
        <ele>1316.8</ele>
        <time>2018-07-22T05:34:50.000Z</time>
      </trkpt>
      <trkpt lat="42.296649" lon="-0.434365">
        <ele>1316.9</ele>
        <time>2018-07-22T05:34:51.000Z</time>
      </trkpt>
      <trkpt lat="42.296648" lon="-0.434366">
        <ele>1316.9</ele>
        <time>2018-07-22T05:34:52.000Z</time>
      </trkpt>
      <trkpt lat="42.296647" lon="-0.434366">
        <ele>1316.9</ele>
        <time>2018-07-22T05:34:53.000Z</time>
      </trkpt>
      <trkpt lat="42.296646" lon="-0.434367">
        <ele>1317.0</ele>
        <time>2018-07-22T05:34:54.000Z</time>
      </trkpt>
      <trkpt lat="42.296644" lon="-0.434368">
        <ele>1317.0</ele>
        <time>2018-07-22T05:34:55.000Z</time>
      </trkpt>
      <trkpt lat="42.296642" lon="-0.43437">
        <ele>1317.1</ele>
        <time>2018-07-22T05:34:56.000Z</time>
      </trkpt>
      <trkpt lat="42.29664" lon="-0.434372">
        <ele>1317.2</ele>
        <time>2018-07-22T05:34:57.000Z</time>
      </trkpt>
      <trkpt lat="42.296639" lon="-0.434373">
        <ele>1317.2</ele>
        <time>2018-07-22T05:34:58.000Z</time>
      </trkpt>
      <trkpt lat="42.296636" lon="-0.434375">
        <ele>1317.3</ele>
        <time>2018-07-22T05:34:59.000Z</time>
      </trkpt>
      <trkpt lat="42.296629" lon="-0.43438">
        <ele>1317.5</ele>
        <time>2018-07-22T05:35:00.000Z</time>
      </trkpt>
      <trkpt lat="42.296624" lon="-0.434385">
        <ele>1317.7</ele>
        <time>2018-07-22T05:35:01.000Z</time>
      </trkpt>
      <trkpt lat="42.296619" lon="-0.434393">
        <ele>1318.0</ele>
        <time>2018-07-22T05:35:02.000Z</time>
      </trkpt>
      <trkpt lat="42.296615" lon="-0.434399">
        <ele>1318.2</ele>
        <time>2018-07-22T05:35:03.000Z</time>
      </trkpt>
      <trkpt lat="42.296613" lon="-0.434403">
        <ele>1318.3</ele>
        <time>2018-07-22T05:35:04.000Z</time>
      </trkpt>
      <trkpt lat="42.296612" lon="-0.434405">
        <ele>1318.4</ele>
        <time>2018-07-22T05:35:05.000Z</time>
      </trkpt>
      <trkpt lat="42.29661" lon="-0.434409">
        <ele>1318.5</ele>
        <time>2018-07-22T05:35:06.000Z</time>
      </trkpt>
      <trkpt lat="42.296608" lon="-0.434412">
        <ele>1318.7</ele>
        <time>2018-07-22T05:35:07.000Z</time>
      </trkpt>
      <trkpt lat="42.296606" lon="-0.434415">
        <ele>1318.8</ele>
        <time>2018-07-22T05:35:08.000Z</time>
      </trkpt>
      <trkpt lat="42.296604" lon="-0.434418">
        <ele>1318.9</ele>
        <time>2018-07-22T05:35:09.000Z</time>
      </trkpt>
      <trkpt lat="42.296602" lon="-0.434422">
        <ele>1319.0</ele>
        <time>2018-07-22T05:35:10.000Z</time>
      </trkpt>
      <trkpt lat="42.2966" lon="-0.434425">
        <ele>1319.1</ele>
        <time>2018-07-22T05:35:11.000Z</time>
      </trkpt>
      <trkpt lat="42.296597" lon="-0.43443">
        <ele>1319.3</ele>
        <time>2018-07-22T05:35:12.000Z</time>
      </trkpt>
      <trkpt lat="42.29659" lon="-0.434441">
        <ele>1319.7</ele>
        <time>2018-07-22T05:35:13.000Z</time>
      </trkpt>
      <trkpt lat="42.296586" lon="-0.434448">
        <ele>1320.0</ele>
        <time>2018-07-22T05:35:14.000Z</time>
      </trkpt>
      <trkpt lat="42.296583" lon="-0.434455">
        <ele>1320.2</ele>
        <time>2018-07-22T05:35:15.000Z</time>
      </trkpt>
      <trkpt lat="42.29658" lon="-0.434461">
        <ele>1320.4</ele>
        <time>2018-07-22T05:35:16.000Z</time>
      </trkpt>
      <trkpt lat="42.296579" lon="-0.434465">
        <ele>1320.6</ele>
        <time>2018-07-22T05:35:17.000Z</time>
      </trkpt>
      <trkpt lat="42.296578" lon="-0.434468">
        <ele>1320.7</ele>
        <time>2018-07-22T05:35:18.000Z</time>
      </trkpt>
      <trkpt lat="42.296577" lon="-0.434471">
        <ele>1320.8</ele>
        <time>2018-07-22T05:35:19.000Z</time>
      </trkpt>
      <trkpt lat="42.296576" lon="-0.434474">
        <ele>1320.9</ele>
        <time>2018-07-22T05:35:20.000Z</time>
      </trkpt>
      <trkpt lat="42.296575" lon="-0.434477">
        <ele>1321.0</ele>
        <time>2018-07-22T05:35:21.000Z</time>
      </trkpt>
      <trkpt lat="42.296575" lon="-0.434479">
        <ele>1321.1</ele>
        <time>2018-07-22T05:35:22.000Z</time>
      </trkpt>
      <trkpt lat="42.296574" lon="-0.434482">
        <ele>1321.2</ele>
        <time>2018-07-22T05:35:23.000Z</time>
      </trkpt>
      <trkpt lat="42.296573" lon="-0.434486">
        <ele>1321.3</ele>
        <time>2018-07-22T05:35:24.000Z</time>
      </trkpt>
      <trkpt lat="42.29657" lon="-0.434493">
        <ele>1321.5</ele>
        <time>2018-07-22T05:35:25.000Z</time>
      </trkpt>
      <trkpt lat="42.296565" lon="-0.434503">
        <ele>1321.9</ele>
        <time>2018-07-22T05:35:26.000Z</time>
      </trkpt>
      <trkpt lat="42.296561" lon="-0.434509">
        <ele>1322.1</ele>
        <time>2018-07-22T05:35:27.000Z</time>
      </trkpt>
      <trkpt lat="42.296558" lon="-0.434514">
        <ele>1322.3</ele>
        <time>2018-07-22T05:35:28.000Z</time>
      </trkpt>
      <trkpt lat="42.296555" lon="-0.434516">
        <ele>1322.4</ele>
        <time>2018-07-22T05:35:29.000Z</time>
      </trkpt>
      <trkpt lat="42.296553" lon="-0.434518">
        <ele>1322.5</ele>
        <time>2018-07-22T05:35:30.000Z</time>
      </trkpt>
      <trkpt lat="42.29655" lon="-0.43452">
        <ele>1322.6</ele>
        <time>2018-07-22T05:35:31.000Z</time>
      </trkpt>
      <trkpt lat="42.296548" lon="-0.434522">
        <ele>1322.7</ele>
        <time>2018-07-22T05:35:32.000Z</time>
      </trkpt>
      <trkpt lat="42.296545" lon="-0.434524">
        <ele>1322.8</ele>
        <time>2018-07-22T05:35:33.000Z</time>
      </trkpt>
      <trkpt lat="42.296543" lon="-0.434526">
        <ele>1322.9</ele>
        <time>2018-07-22T05:35:34.000Z</time>
      </trkpt>
      <trkpt lat="42.29654" lon="-0.434527">
        <ele>1323.0</ele>
        <time>2018-07-22T05:35:35.000Z</time>
      </trkpt>
      <trkpt lat="42.296537" lon="-0.434529">
        <ele>1323.1</ele>
        <time>2018-07-22T05:35:36.000Z</time>
      </trkpt>
      <trkpt lat="42.29653" lon="-0.434533">
        <ele>1323.3</ele>
        <time>2018-07-22T05:35:37.000Z</time>
      </trkpt>
      <trkpt lat="42.296519" lon="-0.434541">
        <ele>1323.7</ele>
        <time>2018-07-22T05:35:38.000Z</time>
      </trkpt>
      <trkpt lat="42.296511" lon="-0.434546">
        <ele>1323.9</ele>
        <time>2018-07-22T05:35:39.000Z</time>
      </trkpt>
      <trkpt lat="42.296506" lon="-0.43455">
        <ele>1324.1</ele>
        <time>2018-07-22T05:35:40.000Z</time>
      </trkpt>
      <trkpt lat="42.296503" lon="-0.434556">
        <ele>1324.4</ele>
        <time>2018-07-22T05:35:41.000Z</time>
      </trkpt>
      <trkpt lat="42.296501" lon="-0.434564">
        <ele>1324.7</ele>
        <time>2018-07-22T05:35:42.000Z</time>
      </trkpt>
      <trkpt lat="42.2965" lon="-0.434572">
        <ele>1324.9</ele>
        <time>2018-07-22T05:35:43.000Z</time>
      </trkpt>
      <trkpt lat="42.296499" lon="-0.434579">
        <ele>1325.2</ele>
        <time>2018-07-22T05:35:44.000Z</time>
      </trkpt>
      <trkpt lat="42.296498" lon="-0.434585">
        <ele>1325.4</ele>
        <time>2018-07-22T05:35:45.000Z</time>
      </trkpt>
      <trkpt lat="42.296497" lon="-0.434587">
        <ele>1325.5</ele>
        <time>2018-07-22T05:35:46.000Z</time>
      </trkpt>
      <trkpt lat="42.296497" lon="-0.434589">
        <ele>1325.5</ele>
        <time>2018-07-22T05:35:47.000Z</time>
      </trkpt>
      <trkpt lat="42.296497" lon="-0.434591">
        <ele>1325.6</ele>
        <time>2018-07-22T05:35:48.000Z</time>
      </trkpt>
      <trkpt lat="42.296497" lon="-0.434594">
        <ele>1325.7</ele>
        <time>2018-07-22T05:35:49.000Z</time>
      </trkpt>
      <trkpt lat="42.296496" lon="-0.434596">
        <ele>1325.8</ele>
        <time>2018-07-22T05:35:50.000Z</time>
      </trkpt>
      <trkpt lat="42.296495" lon="-0.4346">
        <ele>1325.9</ele>
        <time>2018-07-22T05:35:51.000Z</time>
      </trkpt>
      <trkpt lat="42.296494" lon="-0.434604">
        <ele>1326.1</ele>
        <time>2018-07-22T05:35:52.000Z</time>
      </trkpt>
      <trkpt lat="42.296492" lon="-0.434607">
        <ele>1326.2</ele>
        <time>2018-07-22T05:35:53.000Z</time>
      </trkpt>
      <trkpt lat="42.296489" lon="-0.43461">
        <ele>1326.3</ele>
        <time>2018-07-22T05:35:54.000Z</time>
      </trkpt>
      <trkpt lat="42.296486" lon="-0.434612">
        <ele>1326.4</ele>
        <time>2018-07-22T05:35:55.000Z</time>
      </trkpt>
      <trkpt lat="42.296482" lon="-0.434616">
        <ele>1326.6</ele>
        <time>2018-07-22T05:35:56.000Z</time>
      </trkpt>
      <trkpt lat="42.296475" lon="-0.434624">
        <ele>1327.0</ele>
        <time>2018-07-22T05:35:57.000Z</time>
      </trkpt>
      <trkpt lat="42.296468" lon="-0.43463">
        <ele>1327.3</ele>
        <time>2018-07-22T05:35:58.000Z</time>
      </trkpt>
      <trkpt lat="42.296463" lon="-0.434636">
        <ele>1327.6</ele>
        <time>2018-07-22T05:35:59.000Z</time>
      </trkpt>
      <trkpt lat="42.296459" lon="-0.434641">
        <ele>1327.8</ele>
        <time>2018-07-22T05:36:00.000Z</time>
      </trkpt>
      <trkpt lat="42.296457" lon="-0.434645">
        <ele>1327.9</ele>
        <time>2018-07-22T05:36:01.000Z</time>
      </trkpt>
      <trkpt lat="42.296455" lon="-0.434649">
        <ele>1328.1</ele>
        <time>2018-07-22T05:36:02.000Z</time>
      </trkpt>
      <trkpt lat="42.296453" lon="-0.434651">
        <ele>1328.2</ele>
        <time>2018-07-22T05:36:03.000Z</time>
      </trkpt>
      <trkpt lat="42.296451" lon="-0.434653">
        <ele>1328.3</ele>
        <time>2018-07-22T05:36:04.000Z</time>
      </trkpt>
      <trkpt lat="42.29645" lon="-0.434656">
        <ele>1328.4</ele>
        <time>2018-07-22T05:36:05.000Z</time>
      </trkpt>
      <trkpt lat="42.296447" lon="-0.434659">
        <ele>1328.6</ele>
        <time>2018-07-22T05:36:06.000Z</time>
      </trkpt>
      <trkpt lat="42.296445" lon="-0.434662">
        <ele>1328.7</ele>
        <time>2018-07-22T05:36:07.000Z</time>
      </trkpt>
      <trkpt lat="42.296444" lon="-0.434665">
        <ele>1328.8</ele>
        <time>2018-07-22T05:36:08.000Z</time>
      </trkpt>
      <trkpt lat="42.296441" lon="-0.434668">
        <ele>1329.0</ele>
        <time>2018-07-22T05:36:09.000Z</time>
      </trkpt>
      <trkpt lat="42.296436" lon="-0.434677">
        <ele>1329.3</ele>
        <time>2018-07-22T05:36:10.000Z</time>
      </trkpt>
      <trkpt lat="42.296432" lon="-0.434684">
        <ele>1329.6</ele>
        <time>2018-07-22T05:36:11.000Z</time>
      </trkpt>
      <trkpt lat="42.29643" lon="-0.434688">
        <ele>1329.8</ele>
        <time>2018-07-22T05:36:12.000Z</time>
      </trkpt>
      <trkpt lat="42.296429" lon="-0.434691">
        <ele>1329.9</ele>
        <time>2018-07-22T05:36:13.000Z</time>
      </trkpt>
      <trkpt lat="42.296427" lon="-0.434694">
        <ele>1330.1</ele>
        <time>2018-07-22T05:36:14.000Z</time>
      </trkpt>
      <trkpt lat="42.296426" lon="-0.434697">
        <ele>1330.2</ele>
        <time>2018-07-22T05:36:15.000Z</time>
      </trkpt>
      <trkpt lat="42.296425" lon="-0.434698">
        <ele>1330.2</ele>
        <time>2018-07-22T05:36:16.000Z</time>
      </trkpt>
      <trkpt lat="42.296424" lon="-0.434699">
        <ele>1330.3</ele>
        <time>2018-07-22T05:36:17.000Z</time>
      </trkpt>
      <trkpt lat="42.296424" lon="-0.4347">
        <ele>1330.3</ele>
        <time>2018-07-22T05:36:18.000Z</time>
      </trkpt>
      <trkpt lat="42.296424" lon="-0.4347">
        <ele>1330.3</ele>
        <time>2018-07-22T05:36:19.000Z</time>
      </trkpt>
      <trkpt lat="42.296423" lon="-0.434702">
        <ele>1330.4</ele>
        <time>2018-07-22T05:36:20.000Z</time>
      </trkpt>
      <trkpt lat="42.296422" lon="-0.434704">
        <ele>1330.5</ele>
        <time>2018-07-22T05:36:21.000Z</time>
      </trkpt>
      <trkpt lat="42.296421" lon="-0.434707">
        <ele>1330.6</ele>
        <time>2018-07-22T05:36:22.000Z</time>
      </trkpt>
      <trkpt lat="42.296419" lon="-0.434711">
        <ele>1330.8</ele>
        <time>2018-07-22T05:36:23.000Z</time>
      </trkpt>
      <trkpt lat="42.296418" lon="-0.434714">
        <ele>1330.9</ele>
        <time>2018-07-22T05:36:24.000Z</time>
      </trkpt>
      <trkpt lat="42.296417" lon="-0.434716">
        <ele>1331.0</ele>
        <time>2018-07-22T05:36:25.000Z</time>
      </trkpt>
      <trkpt lat="42.296417" lon="-0.434717">
        <ele>1331.0</ele>
        <time>2018-07-22T05:36:26.000Z</time>
      </trkpt>
      <trkpt lat="42.296416" lon="-0.43472">
        <ele>1331.1</ele>
        <time>2018-07-22T05:36:27.000Z</time>
      </trkpt>
      <trkpt lat="42.296413" lon="-0.434731">
        <ele>1331.6</ele>
        <time>2018-07-22T05:36:28.000Z</time>
      </trkpt>
      <trkpt lat="42.296412" lon="-0.434739">
        <ele>1331.9</ele>
        <time>2018-07-22T05:36:29.000Z</time>
      </trkpt>
      <trkpt lat="42.296412" lon="-0.434744">
        <ele>1332.0</ele>
        <time>2018-07-22T05:36:30.000Z</time>
      </trkpt>
      <trkpt lat="42.296412" lon="-0.434748">
        <ele>1332.2</ele>
        <time>2018-07-22T05:36:31.000Z</time>
      </trkpt>
      <trkpt lat="42.296412" lon="-0.434752">
        <ele>1332.3</ele>
        <time>2018-07-22T05:36:32.000Z</time>
      </trkpt>
      <trkpt lat="42.296412" lon="-0.434756">
        <ele>1332.4</ele>
        <time>2018-07-22T05:36:33.000Z</time>
      </trkpt>
      <trkpt lat="42.296412" lon="-0.43476">
        <ele>1332.6</ele>
        <time>2018-07-22T05:36:34.000Z</time>
      </trkpt>
      <trkpt lat="42.296412" lon="-0.434763">
        <ele>1332.7</ele>
        <time>2018-07-22T05:36:35.000Z</time>
      </trkpt>
      <trkpt lat="42.296412" lon="-0.434765">
        <ele>1332.7</ele>
        <time>2018-07-22T05:36:36.000Z</time>
      </trkpt>
      <trkpt lat="42.296412" lon="-0.434767">
        <ele>1332.8</ele>
        <time>2018-07-22T05:36:37.000Z</time>
      </trkpt>
      <trkpt lat="42.296412" lon="-0.434769">
        <ele>1332.9</ele>
        <time>2018-07-22T05:36:38.000Z</time>
      </trkpt>
      <trkpt lat="42.296412" lon="-0.434771">
        <ele>1333.0</ele>
        <time>2018-07-22T05:36:39.000Z</time>
      </trkpt>
      <trkpt lat="42.296412" lon="-0.434773">
        <ele>1333.0</ele>
        <time>2018-07-22T05:36:40.000Z</time>
      </trkpt>
      <trkpt lat="42.296412" lon="-0.434777">
        <ele>1333.2</ele>
        <time>2018-07-22T05:36:41.000Z</time>
      </trkpt>
      <trkpt lat="42.296412" lon="-0.434781">
        <ele>1333.3</ele>
        <time>2018-07-22T05:36:42.000Z</time>
      </trkpt>
      <trkpt lat="42.296412" lon="-0.434786">
        <ele>1333.5</ele>
        <time>2018-07-22T05:36:43.000Z</time>
      </trkpt>
      <trkpt lat="42.296411" lon="-0.434795">
        <ele>1333.8</ele>
        <time>2018-07-22T05:36:44.000Z</time>
      </trkpt>
      <trkpt lat="42.296409" lon="-0.434802">
        <ele>1334.1</ele>
        <time>2018-07-22T05:36:45.000Z</time>
      </trkpt>
      <trkpt lat="42.296408" lon="-0.434807">
        <ele>1334.3</ele>
        <time>2018-07-22T05:36:46.000Z</time>
      </trkpt>
      <trkpt lat="42.296407" lon="-0.43481">
        <ele>1334.4</ele>
        <time>2018-07-22T05:36:47.000Z</time>
      </trkpt>
      <trkpt lat="42.296405" lon="-0.434814">
        <ele>1334.6</ele>
        <time>2018-07-22T05:36:48.000Z</time>
      </trkpt>
      <trkpt lat="42.296404" lon="-0.434818">
        <ele>1334.7</ele>
        <time>2018-07-22T05:36:49.000Z</time>
      </trkpt>
      <trkpt lat="42.296402" lon="-0.434822">
        <ele>1334.9</ele>
        <time>2018-07-22T05:36:50.000Z</time>
      </trkpt>
      <trkpt lat="42.296401" lon="-0.434825">
        <ele>1335.0</ele>
        <time>2018-07-22T05:36:51.000Z</time>
      </trkpt>
      <trkpt lat="42.2964" lon="-0.434828">
        <ele>1335.1</ele>
        <time>2018-07-22T05:36:52.000Z</time>
      </trkpt>
      <trkpt lat="42.2964" lon="-0.434829">
        <ele>1335.2</ele>
        <time>2018-07-22T05:36:53.000Z</time>
      </trkpt>
      <trkpt lat="42.296399" lon="-0.43483">
        <ele>1335.2</ele>
        <time>2018-07-22T05:36:54.000Z</time>
      </trkpt>
      <trkpt lat="42.296399" lon="-0.434831">
        <ele>1335.3</ele>
        <time>2018-07-22T05:36:55.000Z</time>
      </trkpt>
      <trkpt lat="42.296398" lon="-0.434833">
        <ele>1335.3</ele>
        <time>2018-07-22T05:36:56.000Z</time>
      </trkpt>
      <trkpt lat="42.296396" lon="-0.434835">
        <ele>1335.5</ele>
        <time>2018-07-22T05:36:57.000Z</time>
      </trkpt>
      <trkpt lat="42.296395" lon="-0.434838">
        <ele>1335.6</ele>
        <time>2018-07-22T05:36:58.000Z</time>
      </trkpt>
      <trkpt lat="42.296395" lon="-0.43484">
        <ele>1335.6</ele>
        <time>2018-07-22T05:36:59.000Z</time>
      </trkpt>
      <trkpt lat="42.296394" lon="-0.43484">
        <ele>1335.7</ele>
        <time>2018-07-22T05:37:00.000Z</time>
      </trkpt>
      <trkpt lat="42.296393" lon="-0.434841">
        <ele>1335.7</ele>
        <time>2018-07-22T05:37:01.000Z</time>
      </trkpt>
      <trkpt lat="42.296387" lon="-0.434851">
        <ele>1336.2</ele>
        <time>2018-07-22T05:37:02.000Z</time>
      </trkpt>
      <trkpt lat="42.296379" lon="-0.434861">
        <ele>1336.7</ele>
        <time>2018-07-22T05:37:03.000Z</time>
      </trkpt>
      <trkpt lat="42.296374" lon="-0.434868">
        <ele>1337.0</ele>
        <time>2018-07-22T05:37:04.000Z</time>
      </trkpt>
      <trkpt lat="42.29637" lon="-0.434872">
        <ele>1337.3</ele>
        <time>2018-07-22T05:37:05.000Z</time>
      </trkpt>
      <trkpt lat="42.296368" lon="-0.434875">
        <ele>1337.4</ele>
        <time>2018-07-22T05:37:06.000Z</time>
      </trkpt>
      <trkpt lat="42.296367" lon="-0.434877">
        <ele>1337.5</ele>
        <time>2018-07-22T05:37:07.000Z</time>
      </trkpt>
      <trkpt lat="42.296366" lon="-0.434879">
        <ele>1337.6</ele>
        <time>2018-07-22T05:37:08.000Z</time>
      </trkpt>
      <trkpt lat="42.296364" lon="-0.434881">
        <ele>1337.7</ele>
        <time>2018-07-22T05:37:09.000Z</time>
      </trkpt>
      <trkpt lat="42.296362" lon="-0.434884">
        <ele>1337.8</ele>
        <time>2018-07-22T05:37:10.000Z</time>
      </trkpt>
      <trkpt lat="42.29636" lon="-0.434887">
        <ele>1338.0</ele>
        <time>2018-07-22T05:37:11.000Z</time>
      </trkpt>
      <trkpt lat="42.296358" lon="-0.43489">
        <ele>1338.1</ele>
        <time>2018-07-22T05:37:12.000Z</time>
      </trkpt>
      <trkpt lat="42.296356" lon="-0.434892">
        <ele>1338.2</ele>
        <time>2018-07-22T05:37:13.000Z</time>
      </trkpt>
      <trkpt lat="42.296355" lon="-0.434894">
        <ele>1338.3</ele>
        <time>2018-07-22T05:37:14.000Z</time>
      </trkpt>
      <trkpt lat="42.296351" lon="-0.434898">
        <ele>1338.6</ele>
        <time>2018-07-22T05:37:15.000Z</time>
      </trkpt>
      <trkpt lat="42.296345" lon="-0.434906">
        <ele>1339.0</ele>
        <time>2018-07-22T05:37:16.000Z</time>
      </trkpt>
      <trkpt lat="42.29634" lon="-0.43491">
        <ele>1339.2</ele>
        <time>2018-07-22T05:37:17.000Z</time>
      </trkpt>
      <trkpt lat="42.296337" lon="-0.434915">
        <ele>1339.5</ele>
        <time>2018-07-22T05:37:18.000Z</time>
      </trkpt>
      <trkpt lat="42.296335" lon="-0.434922">
        <ele>1339.8</ele>
        <time>2018-07-22T05:37:19.000Z</time>
      </trkpt>
      <trkpt lat="42.296333" lon="-0.434929">
        <ele>1340.1</ele>
        <time>2018-07-22T05:37:20.000Z</time>
      </trkpt>
      <trkpt lat="42.296332" lon="-0.434934">
        <ele>1340.3</ele>
        <time>2018-07-22T05:37:21.000Z</time>
      </trkpt>
      <trkpt lat="42.296331" lon="-0.434937">
        <ele>1340.4</ele>
        <time>2018-07-22T05:37:22.000Z</time>
      </trkpt>
      <trkpt lat="42.29633" lon="-0.434938">
        <ele>1340.4</ele>
        <time>2018-07-22T05:37:23.000Z</time>
      </trkpt>
      <trkpt lat="42.29633" lon="-0.434939">
        <ele>1340.5</ele>
        <time>2018-07-22T05:37:24.000Z</time>
      </trkpt>
      <trkpt lat="42.296329" lon="-0.43494">
        <ele>1340.5</ele>
        <time>2018-07-22T05:37:25.000Z</time>
      </trkpt>
      <trkpt lat="42.296329" lon="-0.434942">
        <ele>1340.6</ele>
        <time>2018-07-22T05:37:26.000Z</time>
      </trkpt>
      <trkpt lat="42.296328" lon="-0.434944">
        <ele>1340.7</ele>
        <time>2018-07-22T05:37:27.000Z</time>
      </trkpt>
      <trkpt lat="42.296327" lon="-0.434946">
        <ele>1340.8</ele>
        <time>2018-07-22T05:37:28.000Z</time>
      </trkpt>
      <trkpt lat="42.296326" lon="-0.434949">
        <ele>1340.9</ele>
        <time>2018-07-22T05:37:29.000Z</time>
      </trkpt>
      <trkpt lat="42.296326" lon="-0.434951">
        <ele>1341.0</ele>
        <time>2018-07-22T05:37:30.000Z</time>
      </trkpt>
      <trkpt lat="42.296325" lon="-0.434954">
        <ele>1341.1</ele>
        <time>2018-07-22T05:37:31.000Z</time>
      </trkpt>
      <trkpt lat="42.296324" lon="-0.434957">
        <ele>1341.3</ele>
        <time>2018-07-22T05:37:32.000Z</time>
      </trkpt>
      <trkpt lat="42.296323" lon="-0.434959">
        <ele>1341.4</ele>
        <time>2018-07-22T05:37:33.000Z</time>
      </trkpt>
      <trkpt lat="42.296322" lon="-0.434962">
        <ele>1341.5</ele>
        <time>2018-07-22T05:37:34.000Z</time>
      </trkpt>
      <trkpt lat="42.296321" lon="-0.434964">
        <ele>1341.6</ele>
        <time>2018-07-22T05:37:35.000Z</time>
      </trkpt>
      <trkpt lat="42.296321" lon="-0.434966">
        <ele>1341.6</ele>
        <time>2018-07-22T05:37:36.000Z</time>
      </trkpt>
      <trkpt lat="42.29632" lon="-0.434968">
        <ele>1341.7</ele>
        <time>2018-07-22T05:37:37.000Z</time>
      </trkpt>
      <trkpt lat="42.296319" lon="-0.43497">
        <ele>1341.8</ele>
        <time>2018-07-22T05:37:38.000Z</time>
      </trkpt>
      <trkpt lat="42.296317" lon="-0.434972">
        <ele>1342.0</ele>
        <time>2018-07-22T05:37:39.000Z</time>
      </trkpt>
      <trkpt lat="42.296314" lon="-0.434977">
        <ele>1342.2</ele>
        <time>2018-07-22T05:37:40.000Z</time>
      </trkpt>
      <trkpt lat="42.29631" lon="-0.434985">
        <ele>1342.6</ele>
        <time>2018-07-22T05:37:41.000Z</time>
      </trkpt>
      <trkpt lat="42.296308" lon="-0.434988">
        <ele>1342.7</ele>
        <time>2018-07-22T05:37:42.000Z</time>
      </trkpt>
      <trkpt lat="42.296307" lon="-0.434992">
        <ele>1342.9</ele>
        <time>2018-07-22T05:37:43.000Z</time>
      </trkpt>
      <trkpt lat="42.296306" lon="-0.434994">
        <ele>1343.0</ele>
        <time>2018-07-22T05:37:44.000Z</time>
      </trkpt>
      <trkpt lat="42.296305" lon="-0.434995">
        <ele>1343.1</ele>
        <time>2018-07-22T05:37:45.000Z</time>
      </trkpt>
      <trkpt lat="42.296304" lon="-0.434996">
        <ele>1343.1</ele>
        <time>2018-07-22T05:37:46.000Z</time>
      </trkpt>
      <trkpt lat="42.296304" lon="-0.434998">
        <ele>1343.2</ele>
        <time>2018-07-22T05:37:47.000Z</time>
      </trkpt>
      <trkpt lat="42.296303" lon="-0.435001">
        <ele>1343.3</ele>
        <time>2018-07-22T05:37:48.000Z</time>
      </trkpt>
      <trkpt lat="42.296302" lon="-0.435004">
        <ele>1343.4</ele>
        <time>2018-07-22T05:37:49.000Z</time>
      </trkpt>
      <trkpt lat="42.296301" lon="-0.435006">
        <ele>1343.4</ele>
        <time>2018-07-22T05:37:50.000Z</time>
      </trkpt>
      <trkpt lat="42.296299" lon="-0.43501">
        <ele>1343.5</ele>
        <time>2018-07-22T05:37:51.000Z</time>
      </trkpt>
      <trkpt lat="42.296298" lon="-0.435013">
        <ele>1343.5</ele>
        <time>2018-07-22T05:37:52.000Z</time>
      </trkpt>
      <trkpt lat="42.296297" lon="-0.435016">
        <ele>1343.6</ele>
        <time>2018-07-22T05:37:53.000Z</time>
      </trkpt>
      <trkpt lat="42.296295" lon="-0.43502">
        <ele>1343.7</ele>
        <time>2018-07-22T05:37:54.000Z</time>
      </trkpt>
      <trkpt lat="42.296294" lon="-0.435023">
        <ele>1343.7</ele>
        <time>2018-07-22T05:37:55.000Z</time>
      </trkpt>
      <trkpt lat="42.296292" lon="-0.435027">
        <ele>1343.8</ele>
        <time>2018-07-22T05:37:56.000Z</time>
      </trkpt>
      <trkpt lat="42.29629" lon="-0.43503">
        <ele>1343.9</ele>
        <time>2018-07-22T05:37:57.000Z</time>
      </trkpt>
      <trkpt lat="42.296289" lon="-0.435034">
        <ele>1344.0</ele>
        <time>2018-07-22T05:37:58.000Z</time>
      </trkpt>
      <trkpt lat="42.296289" lon="-0.435041">
        <ele>1344.1</ele>
        <time>2018-07-22T05:37:59.000Z</time>
      </trkpt>
      <trkpt lat="42.296289" lon="-0.435047">
        <ele>1344.1</ele>
        <time>2018-07-22T05:38:00.000Z</time>
      </trkpt>
      <trkpt lat="42.296288" lon="-0.435052">
        <ele>1344.2</ele>
        <time>2018-07-22T05:38:01.000Z</time>
      </trkpt>
      <trkpt lat="42.296285" lon="-0.435058">
        <ele>1344.3</ele>
        <time>2018-07-22T05:38:02.000Z</time>
      </trkpt>
      <trkpt lat="42.296283" lon="-0.435063">
        <ele>1344.4</ele>
        <time>2018-07-22T05:38:03.000Z</time>
      </trkpt>
      <trkpt lat="42.296281" lon="-0.435067">
        <ele>1344.5</ele>
        <time>2018-07-22T05:38:04.000Z</time>
      </trkpt>
      <trkpt lat="42.29628" lon="-0.435069">
        <ele>1344.6</ele>
        <time>2018-07-22T05:38:05.000Z</time>
      </trkpt>
      <trkpt lat="42.296279" lon="-0.435072">
        <ele>1344.6</ele>
        <time>2018-07-22T05:38:06.000Z</time>
      </trkpt>
      <trkpt lat="42.296278" lon="-0.435074">
        <ele>1344.7</ele>
        <time>2018-07-22T05:38:07.000Z</time>
      </trkpt>
      <trkpt lat="42.296276" lon="-0.435077">
        <ele>1344.8</ele>
        <time>2018-07-22T05:38:08.000Z</time>
      </trkpt>
      <trkpt lat="42.296273" lon="-0.435081">
        <ele>1344.9</ele>
        <time>2018-07-22T05:38:09.000Z</time>
      </trkpt>
      <trkpt lat="42.29627" lon="-0.435086">
        <ele>1345.0</ele>
        <time>2018-07-22T05:38:10.000Z</time>
      </trkpt>
      <trkpt lat="42.296267" lon="-0.435091">
        <ele>1345.2</ele>
        <time>2018-07-22T05:38:11.000Z</time>
      </trkpt>
      <trkpt lat="42.296265" lon="-0.435095">
        <ele>1345.3</ele>
        <time>2018-07-22T05:38:12.000Z</time>
      </trkpt>
      <trkpt lat="42.296258" lon="-0.435102">
        <ele>1345.5</ele>
        <time>2018-07-22T05:38:13.000Z</time>
      </trkpt>
      <trkpt lat="42.296253" lon="-0.435108">
        <ele>1345.7</ele>
        <time>2018-07-22T05:38:14.000Z</time>
      </trkpt>
      <trkpt lat="42.296247" lon="-0.435113">
        <ele>1345.9</ele>
        <time>2018-07-22T05:38:15.000Z</time>
      </trkpt>
      <trkpt lat="42.296241" lon="-0.435118">
        <ele>1346.2</ele>
        <time>2018-07-22T05:38:16.000Z</time>
      </trkpt>
      <trkpt lat="42.296236" lon="-0.435121">
        <ele>1346.3</ele>
        <time>2018-07-22T05:38:17.000Z</time>
      </trkpt>
      <trkpt lat="42.296233" lon="-0.435122">
        <ele>1346.4</ele>
        <time>2018-07-22T05:38:18.000Z</time>
      </trkpt>
      <trkpt lat="42.296224" lon="-0.435125">
        <ele>1346.7</ele>
        <time>2018-07-22T05:38:19.000Z</time>
      </trkpt>
      <trkpt lat="42.296217" lon="-0.435128">
        <ele>1346.9</ele>
        <time>2018-07-22T05:38:20.000Z</time>
      </trkpt>
      <trkpt lat="42.296212" lon="-0.435129">
        <ele>1347.1</ele>
        <time>2018-07-22T05:38:21.000Z</time>
      </trkpt>
      <trkpt lat="42.296209" lon="-0.43513">
        <ele>1347.1</ele>
        <time>2018-07-22T05:38:22.000Z</time>
      </trkpt>
      <trkpt lat="42.296207" lon="-0.43513">
        <ele>1347.2</ele>
        <time>2018-07-22T05:38:23.000Z</time>
      </trkpt>
      <trkpt lat="42.296205" lon="-0.43513">
        <ele>1347.3</ele>
        <time>2018-07-22T05:38:24.000Z</time>
      </trkpt>
      <trkpt lat="42.296204" lon="-0.435129">
        <ele>1347.3</ele>
        <time>2018-07-22T05:38:25.000Z</time>
      </trkpt>
      <trkpt lat="42.296202" lon="-0.435129">
        <ele>1347.3</ele>
        <time>2018-07-22T05:38:26.000Z</time>
      </trkpt>
      <trkpt lat="42.296199" lon="-0.43513">
        <ele>1347.4</ele>
        <time>2018-07-22T05:38:27.000Z</time>
      </trkpt>
      <trkpt lat="42.296197" lon="-0.43513">
        <ele>1347.5</ele>
        <time>2018-07-22T05:38:28.000Z</time>
      </trkpt>
      <trkpt lat="42.296195" lon="-0.43513">
        <ele>1347.5</ele>
        <time>2018-07-22T05:38:29.000Z</time>
      </trkpt>
      <trkpt lat="42.296192" lon="-0.43513">
        <ele>1347.6</ele>
        <time>2018-07-22T05:38:30.000Z</time>
      </trkpt>
      <trkpt lat="42.296184" lon="-0.435138">
        <ele>1347.9</ele>
        <time>2018-07-22T05:38:31.000Z</time>
      </trkpt>
      <trkpt lat="42.29618" lon="-0.435143">
        <ele>1348.1</ele>
        <time>2018-07-22T05:38:32.000Z</time>
      </trkpt>
      <trkpt lat="42.296177" lon="-0.435145">
        <ele>1348.2</ele>
        <time>2018-07-22T05:38:33.000Z</time>
      </trkpt>
      <trkpt lat="42.296175" lon="-0.435147">
        <ele>1348.3</ele>
        <time>2018-07-22T05:38:34.000Z</time>
      </trkpt>
      <trkpt lat="42.296174" lon="-0.435149">
        <ele>1348.3</ele>
        <time>2018-07-22T05:38:35.000Z</time>
      </trkpt>
      <trkpt lat="42.296172" lon="-0.435151">
        <ele>1348.4</ele>
        <time>2018-07-22T05:38:36.000Z</time>
      </trkpt>
      <trkpt lat="42.29617" lon="-0.435153">
        <ele>1348.5</ele>
        <time>2018-07-22T05:38:37.000Z</time>
      </trkpt>
      <trkpt lat="42.296167" lon="-0.435155">
        <ele>1348.6</ele>
        <time>2018-07-22T05:38:38.000Z</time>
      </trkpt>
      <trkpt lat="42.296165" lon="-0.435158">
        <ele>1348.7</ele>
        <time>2018-07-22T05:38:39.000Z</time>
      </trkpt>
      <trkpt lat="42.296163" lon="-0.43516">
        <ele>1348.8</ele>
        <time>2018-07-22T05:38:40.000Z</time>
      </trkpt>
      <trkpt lat="42.296161" lon="-0.435162">
        <ele>1348.9</ele>
        <time>2018-07-22T05:38:41.000Z</time>
      </trkpt>
      <trkpt lat="42.296159" lon="-0.435164">
        <ele>1349.0</ele>
        <time>2018-07-22T05:38:42.000Z</time>
      </trkpt>
      <trkpt lat="42.296157" lon="-0.435166">
        <ele>1349.1</ele>
        <time>2018-07-22T05:38:43.000Z</time>
      </trkpt>
      <trkpt lat="42.296154" lon="-0.435169">
        <ele>1349.2</ele>
        <time>2018-07-22T05:38:44.000Z</time>
      </trkpt>
      <trkpt lat="42.29615" lon="-0.435171">
        <ele>1349.3</ele>
        <time>2018-07-22T05:38:45.000Z</time>
      </trkpt>
      <trkpt lat="42.296141" lon="-0.435179">
        <ele>1349.7</ele>
        <time>2018-07-22T05:38:46.000Z</time>
      </trkpt>
      <trkpt lat="42.296135" lon="-0.435185">
        <ele>1350.0</ele>
        <time>2018-07-22T05:38:47.000Z</time>
      </trkpt>
      <trkpt lat="42.296132" lon="-0.435189">
        <ele>1350.1</ele>
        <time>2018-07-22T05:38:48.000Z</time>
      </trkpt>
      <trkpt lat="42.296129" lon="-0.435194">
        <ele>1350.3</ele>
        <time>2018-07-22T05:38:49.000Z</time>
      </trkpt>
      <trkpt lat="42.296128" lon="-0.435197">
        <ele>1350.3</ele>
        <time>2018-07-22T05:38:50.000Z</time>
      </trkpt>
      <trkpt lat="42.296127" lon="-0.435198">
        <ele>1350.4</ele>
        <time>2018-07-22T05:38:51.000Z</time>
      </trkpt>
      <trkpt lat="42.296126" lon="-0.435199">
        <ele>1350.4</ele>
        <time>2018-07-22T05:38:52.000Z</time>
      </trkpt>
      <trkpt lat="42.296125" lon="-0.4352">
        <ele>1350.5</ele>
        <time>2018-07-22T05:38:53.000Z</time>
      </trkpt>
      <trkpt lat="42.296124" lon="-0.435202">
        <ele>1350.5</ele>
        <time>2018-07-22T05:38:54.000Z</time>
      </trkpt>
      <trkpt lat="42.296123" lon="-0.435204">
        <ele>1350.6</ele>
        <time>2018-07-22T05:38:55.000Z</time>
      </trkpt>
      <trkpt lat="42.296121" lon="-0.435206">
        <ele>1350.7</ele>
        <time>2018-07-22T05:38:56.000Z</time>
      </trkpt>
      <trkpt lat="42.29612" lon="-0.435208">
        <ele>1350.7</ele>
        <time>2018-07-22T05:38:57.000Z</time>
      </trkpt>
      <trkpt lat="42.296118" lon="-0.435211">
        <ele>1350.8</ele>
        <time>2018-07-22T05:38:58.000Z</time>
      </trkpt>
      <trkpt lat="42.296117" lon="-0.435213">
        <ele>1350.9</ele>
        <time>2018-07-22T05:38:59.000Z</time>
      </trkpt>
      <trkpt lat="42.296115" lon="-0.435215">
        <ele>1351.0</ele>
        <time>2018-07-22T05:39:00.000Z</time>
      </trkpt>
      <trkpt lat="42.296114" lon="-0.435217">
        <ele>1351.1</ele>
        <time>2018-07-22T05:39:01.000Z</time>
      </trkpt>
      <trkpt lat="42.296112" lon="-0.435219">
        <ele>1351.1</ele>
        <time>2018-07-22T05:39:02.000Z</time>
      </trkpt>
      <trkpt lat="42.296111" lon="-0.43522">
        <ele>1351.2</ele>
        <time>2018-07-22T05:39:03.000Z</time>
      </trkpt>
      <trkpt lat="42.296111" lon="-0.435221">
        <ele>1351.2</ele>
        <time>2018-07-22T05:39:04.000Z</time>
      </trkpt>
      <trkpt lat="42.296111" lon="-0.435221">
        <ele>1351.2</ele>
        <time>2018-07-22T05:39:05.000Z</time>
      </trkpt>
      <trkpt lat="42.296109" lon="-0.435223">
        <ele>1351.3</ele>
        <time>2018-07-22T05:39:06.000Z</time>
      </trkpt>
      <trkpt lat="42.296108" lon="-0.435225">
        <ele>1351.4</ele>
        <time>2018-07-22T05:39:07.000Z</time>
      </trkpt>
      <trkpt lat="42.2961" lon="-0.435232">
        <ele>1351.7</ele>
        <time>2018-07-22T05:39:08.000Z</time>
      </trkpt>
      <trkpt lat="42.296093" lon="-0.435236">
        <ele>1352.0</ele>
        <time>2018-07-22T05:39:09.000Z</time>
      </trkpt>
      <trkpt lat="42.296087" lon="-0.435239">
        <ele>1352.2</ele>
        <time>2018-07-22T05:39:10.000Z</time>
      </trkpt>
      <trkpt lat="42.296082" lon="-0.435241">
        <ele>1352.4</ele>
        <time>2018-07-22T05:39:11.000Z</time>
      </trkpt>
      <trkpt lat="42.296079" lon="-0.435242">
        <ele>1352.5</ele>
        <time>2018-07-22T05:39:12.000Z</time>
      </trkpt>
      <trkpt lat="42.296077" lon="-0.435244">
        <ele>1352.6</ele>
        <time>2018-07-22T05:39:13.000Z</time>
      </trkpt>
      <trkpt lat="42.296076" lon="-0.435245">
        <ele>1352.6</ele>
        <time>2018-07-22T05:39:14.000Z</time>
      </trkpt>
      <trkpt lat="42.296074" lon="-0.435245">
        <ele>1352.7</ele>
        <time>2018-07-22T05:39:15.000Z</time>
      </trkpt>
      <trkpt lat="42.296073" lon="-0.435246">
        <ele>1352.7</ele>
        <time>2018-07-22T05:39:16.000Z</time>
      </trkpt>
      <trkpt lat="42.296073" lon="-0.435247">
        <ele>1352.8</ele>
        <time>2018-07-22T05:39:17.000Z</time>
      </trkpt>
      <trkpt lat="42.296072" lon="-0.435247">
        <ele>1352.8</ele>
        <time>2018-07-22T05:39:18.000Z</time>
      </trkpt>
      <trkpt lat="42.296071" lon="-0.435248">
        <ele>1352.8</ele>
        <time>2018-07-22T05:39:19.000Z</time>
      </trkpt>
      <trkpt lat="42.296071" lon="-0.435248">
        <ele>1352.8</ele>
        <time>2018-07-22T05:39:20.000Z</time>
      </trkpt>
      <trkpt lat="42.29607" lon="-0.435249">
        <ele>1352.9</ele>
        <time>2018-07-22T05:39:21.000Z</time>
      </trkpt>
      <trkpt lat="42.29607" lon="-0.435249">
        <ele>1352.9</ele>
        <time>2018-07-22T05:39:22.000Z</time>
      </trkpt>
      <trkpt lat="42.29607" lon="-0.435249">
        <ele>1352.9</ele>
        <time>2018-07-22T05:39:23.000Z</time>
      </trkpt>
      <trkpt lat="42.29607" lon="-0.435249">
        <ele>1352.9</ele>
        <time>2018-07-22T05:39:24.000Z</time>
      </trkpt>
      <trkpt lat="42.296068" lon="-0.435252">
        <ele>1353.0</ele>
        <time>2018-07-22T05:39:25.000Z</time>
      </trkpt>
      <trkpt lat="42.296063" lon="-0.43526">
        <ele>1353.3</ele>
        <time>2018-07-22T05:39:26.000Z</time>
      </trkpt>
      <trkpt lat="42.29606" lon="-0.435268">
        <ele>1353.5</ele>
        <time>2018-07-22T05:39:27.000Z</time>
      </trkpt>
      <trkpt lat="42.296058" lon="-0.435276">
        <ele>1353.7</ele>
        <time>2018-07-22T05:39:28.000Z</time>
      </trkpt>
      <trkpt lat="42.296057" lon="-0.435282">
        <ele>1353.9</ele>
        <time>2018-07-22T05:39:29.000Z</time>
      </trkpt>
      <trkpt lat="42.296056" lon="-0.435286">
        <ele>1354.0</ele>
        <time>2018-07-22T05:39:30.000Z</time>
      </trkpt>
      <trkpt lat="42.296054" lon="-0.435289">
        <ele>1354.1</ele>
        <time>2018-07-22T05:39:31.000Z</time>
      </trkpt>
      <trkpt lat="42.296053" lon="-0.435292">
        <ele>1354.2</ele>
        <time>2018-07-22T05:39:32.000Z</time>
      </trkpt>
      <trkpt lat="42.296051" lon="-0.435293">
        <ele>1354.2</ele>
        <time>2018-07-22T05:39:33.000Z</time>
      </trkpt>
      <trkpt lat="42.296049" lon="-0.435295">
        <ele>1354.3</ele>
        <time>2018-07-22T05:39:34.000Z</time>
      </trkpt>
      <trkpt lat="42.296048" lon="-0.435297">
        <ele>1354.4</ele>
        <time>2018-07-22T05:39:35.000Z</time>
      </trkpt>
      <trkpt lat="42.296046" lon="-0.435302">
        <ele>1354.5</ele>
        <time>2018-07-22T05:39:36.000Z</time>
      </trkpt>
      <trkpt lat="42.296043" lon="-0.435312">
        <ele>1354.8</ele>
        <time>2018-07-22T05:39:37.000Z</time>
      </trkpt>
      <trkpt lat="42.296041" lon="-0.435319">
        <ele>1355.0</ele>
        <time>2018-07-22T05:39:38.000Z</time>
      </trkpt>
      <trkpt lat="42.296041" lon="-0.435322">
        <ele>1355.1</ele>
        <time>2018-07-22T05:39:39.000Z</time>
      </trkpt>
      <trkpt lat="42.296041" lon="-0.435325">
        <ele>1355.1</ele>
        <time>2018-07-22T05:39:40.000Z</time>
      </trkpt>
      <trkpt lat="42.29604" lon="-0.435327">
        <ele>1355.2</ele>
        <time>2018-07-22T05:39:41.000Z</time>
      </trkpt>
      <trkpt lat="42.29604" lon="-0.435329">
        <ele>1355.2</ele>
        <time>2018-07-22T05:39:42.000Z</time>
      </trkpt>
      <trkpt lat="42.296039" lon="-0.435332">
        <ele>1355.3</ele>
        <time>2018-07-22T05:39:43.000Z</time>
      </trkpt>
      <trkpt lat="42.296038" lon="-0.435335">
        <ele>1355.4</ele>
        <time>2018-07-22T05:39:44.000Z</time>
      </trkpt>
      <trkpt lat="42.296037" lon="-0.435339">
        <ele>1355.5</ele>
        <time>2018-07-22T05:39:45.000Z</time>
      </trkpt>
      <trkpt lat="42.296036" lon="-0.435342">
        <ele>1355.6</ele>
        <time>2018-07-22T05:39:46.000Z</time>
      </trkpt>
      <trkpt lat="42.296034" lon="-0.435346">
        <ele>1355.7</ele>
        <time>2018-07-22T05:39:47.000Z</time>
      </trkpt>
      <trkpt lat="42.296033" lon="-0.435349">
        <ele>1355.8</ele>
        <time>2018-07-22T05:39:48.000Z</time>
      </trkpt>
      <trkpt lat="42.296032" lon="-0.435352">
        <ele>1355.9</ele>
        <time>2018-07-22T05:39:49.000Z</time>
      </trkpt>
      <trkpt lat="42.296031" lon="-0.435354">
        <ele>1356.0</ele>
        <time>2018-07-22T05:39:50.000Z</time>
      </trkpt>
      <trkpt lat="42.296031" lon="-0.435355">
        <ele>1356.0</ele>
        <time>2018-07-22T05:39:51.000Z</time>
      </trkpt>
      <trkpt lat="42.296029" lon="-0.435358">
        <ele>1356.1</ele>
        <time>2018-07-22T05:39:52.000Z</time>
      </trkpt>
      <trkpt lat="42.296021" lon="-0.435367">
        <ele>1356.5</ele>
        <time>2018-07-22T05:39:53.000Z</time>
      </trkpt>
      <trkpt lat="42.296016" lon="-0.435372">
        <ele>1356.8</ele>
        <time>2018-07-22T05:39:54.000Z</time>
      </trkpt>
      <trkpt lat="42.296013" lon="-0.435376">
        <ele>1357.0</ele>
        <time>2018-07-22T05:39:55.000Z</time>
      </trkpt>
      <trkpt lat="42.29601" lon="-0.43538">
        <ele>1357.2</ele>
        <time>2018-07-22T05:39:56.000Z</time>
      </trkpt>
      <trkpt lat="42.296008" lon="-0.435383">
        <ele>1357.3</ele>
        <time>2018-07-22T05:39:57.000Z</time>
      </trkpt>
      <trkpt lat="42.296006" lon="-0.435385">
        <ele>1357.4</ele>
        <time>2018-07-22T05:39:58.000Z</time>
      </trkpt>
      <trkpt lat="42.296005" lon="-0.435387">
        <ele>1357.5</ele>
        <time>2018-07-22T05:39:59.000Z</time>
      </trkpt>
      <trkpt lat="42.296003" lon="-0.435389">
        <ele>1357.6</ele>
        <time>2018-07-22T05:40:00.000Z</time>
      </trkpt>
      <trkpt lat="42.296002" lon="-0.435391">
        <ele>1357.6</ele>
        <time>2018-07-22T05:40:01.000Z</time>
      </trkpt>
      <trkpt lat="42.296" lon="-0.435394">
        <ele>1357.8</ele>
        <time>2018-07-22T05:40:02.000Z</time>
      </trkpt>
      <trkpt lat="42.295999" lon="-0.435397">
        <ele>1357.9</ele>
        <time>2018-07-22T05:40:03.000Z</time>
      </trkpt>
      <trkpt lat="42.295997" lon="-0.4354">
        <ele>1358.0</ele>
        <time>2018-07-22T05:40:04.000Z</time>
      </trkpt>
      <trkpt lat="42.295995" lon="-0.435402">
        <ele>1358.1</ele>
        <time>2018-07-22T05:40:05.000Z</time>
      </trkpt>
      <trkpt lat="42.295994" lon="-0.435404">
        <ele>1358.2</ele>
        <time>2018-07-22T05:40:06.000Z</time>
      </trkpt>
      <trkpt lat="42.295991" lon="-0.435411">
        <ele>1358.4</ele>
        <time>2018-07-22T05:40:07.000Z</time>
      </trkpt>
      <trkpt lat="42.295988" lon="-0.435414">
        <ele>1358.6</ele>
        <time>2018-07-22T05:40:08.000Z</time>
      </trkpt>
      <trkpt lat="42.295986" lon="-0.43542">
        <ele>1358.8</ele>
        <time>2018-07-22T05:40:09.000Z</time>
      </trkpt>
      <trkpt lat="42.295984" lon="-0.435427">
        <ele>1359.0</ele>
        <time>2018-07-22T05:40:10.000Z</time>
      </trkpt>
      <trkpt lat="42.295982" lon="-0.435432">
        <ele>1359.1</ele>
        <time>2018-07-22T05:40:11.000Z</time>
      </trkpt>
      <trkpt lat="42.295981" lon="-0.435437">
        <ele>1359.3</ele>
        <time>2018-07-22T05:40:12.000Z</time>
      </trkpt>
      <trkpt lat="42.29598" lon="-0.43544">
        <ele>1359.4</ele>
        <time>2018-07-22T05:40:13.000Z</time>
      </trkpt>
      <trkpt lat="42.295979" lon="-0.435443">
        <ele>1359.5</ele>
        <time>2018-07-22T05:40:14.000Z</time>
      </trkpt>
      <trkpt lat="42.295979" lon="-0.435446">
        <ele>1359.5</ele>
        <time>2018-07-22T05:40:15.000Z</time>
      </trkpt>
      <trkpt lat="42.295978" lon="-0.435449">
        <ele>1359.6</ele>
        <time>2018-07-22T05:40:16.000Z</time>
      </trkpt>
      <trkpt lat="42.295977" lon="-0.435453">
        <ele>1359.7</ele>
        <time>2018-07-22T05:40:17.000Z</time>
      </trkpt>
      <trkpt lat="42.295976" lon="-0.435456">
        <ele>1359.8</ele>
        <time>2018-07-22T05:40:18.000Z</time>
      </trkpt>
      <trkpt lat="42.295975" lon="-0.43546">
        <ele>1359.9</ele>
        <time>2018-07-22T05:40:19.000Z</time>
      </trkpt>
      <trkpt lat="42.295975" lon="-0.435463">
        <ele>1360.0</ele>
        <time>2018-07-22T05:40:20.000Z</time>
      </trkpt>
      <trkpt lat="42.295973" lon="-0.43547">
        <ele>1360.2</ele>
        <time>2018-07-22T05:40:21.000Z</time>
      </trkpt>
      <trkpt lat="42.295972" lon="-0.435476">
        <ele>1360.4</ele>
        <time>2018-07-22T05:40:22.000Z</time>
      </trkpt>
      <trkpt lat="42.295971" lon="-0.435483">
        <ele>1360.5</ele>
        <time>2018-07-22T05:40:23.000Z</time>
      </trkpt>
      <trkpt lat="42.295971" lon="-0.435489">
        <ele>1360.7</ele>
        <time>2018-07-22T05:40:24.000Z</time>
      </trkpt>
      <trkpt lat="42.295971" lon="-0.435493">
        <ele>1360.7</ele>
        <time>2018-07-22T05:40:25.000Z</time>
      </trkpt>
      <trkpt lat="42.295971" lon="-0.435495">
        <ele>1360.8</ele>
        <time>2018-07-22T05:40:26.000Z</time>
      </trkpt>
      <trkpt lat="42.295972" lon="-0.435497">
        <ele>1360.8</ele>
        <time>2018-07-22T05:40:27.000Z</time>
      </trkpt>
      <trkpt lat="42.295972" lon="-0.435498">
        <ele>1360.8</ele>
        <time>2018-07-22T05:40:28.000Z</time>
      </trkpt>
      <trkpt lat="42.295972" lon="-0.435499">
        <ele>1360.8</ele>
        <time>2018-07-22T05:40:29.000Z</time>
      </trkpt>
      <trkpt lat="42.295972" lon="-0.4355">
        <ele>1360.8</ele>
        <time>2018-07-22T05:40:30.000Z</time>
      </trkpt>
      <trkpt lat="42.295972" lon="-0.435501">
        <ele>1360.9</ele>
        <time>2018-07-22T05:40:31.000Z</time>
      </trkpt>
      <trkpt lat="42.295972" lon="-0.435503">
        <ele>1360.9</ele>
        <time>2018-07-22T05:40:32.000Z</time>
      </trkpt>
      <trkpt lat="42.295973" lon="-0.435504">
        <ele>1360.9</ele>
        <time>2018-07-22T05:40:33.000Z</time>
      </trkpt>
      <trkpt lat="42.295973" lon="-0.435505">
        <ele>1360.9</ele>
        <time>2018-07-22T05:40:34.000Z</time>
      </trkpt>
      <trkpt lat="42.295973" lon="-0.435507">
        <ele>1360.9</ele>
        <time>2018-07-22T05:40:35.000Z</time>
      </trkpt>
      <trkpt lat="42.295973" lon="-0.435508">
        <ele>1361.0</ele>
        <time>2018-07-22T05:40:36.000Z</time>
      </trkpt>
      <trkpt lat="42.295973" lon="-0.435509">
        <ele>1361.0</ele>
        <time>2018-07-22T05:40:37.000Z</time>
      </trkpt>
      <trkpt lat="42.295973" lon="-0.43551">
        <ele>1361.0</ele>
        <time>2018-07-22T05:40:38.000Z</time>
      </trkpt>
      <trkpt lat="42.295973" lon="-0.435511">
        <ele>1361.0</ele>
        <time>2018-07-22T05:40:39.000Z</time>
      </trkpt>
      <trkpt lat="42.295973" lon="-0.435512">
        <ele>1361.0</ele>
        <time>2018-07-22T05:40:40.000Z</time>
      </trkpt>
      <trkpt lat="42.295973" lon="-0.435513">
        <ele>1361.1</ele>
        <time>2018-07-22T05:40:41.000Z</time>
      </trkpt>
      <trkpt lat="42.295973" lon="-0.435514">
        <ele>1361.1</ele>
        <time>2018-07-22T05:40:42.000Z</time>
      </trkpt>
      <trkpt lat="42.295973" lon="-0.435515">
        <ele>1361.1</ele>
        <time>2018-07-22T05:40:43.000Z</time>
      </trkpt>
      <trkpt lat="42.295973" lon="-0.435516">
        <ele>1361.1</ele>
        <time>2018-07-22T05:40:44.000Z</time>
      </trkpt>
      <trkpt lat="42.295973" lon="-0.435516">
        <ele>1361.1</ele>
        <time>2018-07-22T05:40:45.000Z</time>
      </trkpt>
      <trkpt lat="42.295973" lon="-0.435517">
        <ele>1361.1</ele>
        <time>2018-07-22T05:40:46.000Z</time>
      </trkpt>
      <trkpt lat="42.295973" lon="-0.435517">
        <ele>1361.1</ele>
        <time>2018-07-22T05:40:47.000Z</time>
      </trkpt>
      <trkpt lat="42.295973" lon="-0.435518">
        <ele>1361.2</ele>
        <time>2018-07-22T05:40:48.000Z</time>
      </trkpt>
      <trkpt lat="42.295973" lon="-0.435518">
        <ele>1361.2</ele>
        <time>2018-07-22T05:40:49.000Z</time>
      </trkpt>
      <trkpt lat="42.295973" lon="-0.435518">
        <ele>1361.2</ele>
        <time>2018-07-22T05:40:50.000Z</time>
      </trkpt>
      <trkpt lat="42.295973" lon="-0.435519">
        <ele>1361.2</ele>
        <time>2018-07-22T05:40:51.000Z</time>
      </trkpt>
      <trkpt lat="42.295973" lon="-0.435519">
        <ele>1361.2</ele>
        <time>2018-07-22T05:40:52.000Z</time>
      </trkpt>
      <trkpt lat="42.295973" lon="-0.435519">
        <ele>1361.2</ele>
        <time>2018-07-22T05:40:53.000Z</time>
      </trkpt>
      <trkpt lat="42.295973" lon="-0.43552">
        <ele>1361.2</ele>
        <time>2018-07-22T05:40:54.000Z</time>
      </trkpt>
      <trkpt lat="42.295973" lon="-0.43552">
        <ele>1361.2</ele>
        <time>2018-07-22T05:40:55.000Z</time>
      </trkpt>
      <trkpt lat="42.295973" lon="-0.43552">
        <ele>1361.2</ele>
        <time>2018-07-22T05:40:56.000Z</time>
      </trkpt>
      <trkpt lat="42.295974" lon="-0.43552">
        <ele>1361.2</ele>
        <time>2018-07-22T05:40:57.000Z</time>
      </trkpt>
      <trkpt lat="42.295974" lon="-0.43552">
        <ele>1361.2</ele>
        <time>2018-07-22T05:40:58.000Z</time>
      </trkpt>
      <trkpt lat="42.295974" lon="-0.43552">
        <ele>1361.2</ele>
        <time>2018-07-22T05:40:59.000Z</time>
      </trkpt>
      <trkpt lat="42.295974" lon="-0.43552">
        <ele>1361.2</ele>
        <time>2018-07-22T05:41:00.000Z</time>
      </trkpt>
      <trkpt lat="42.295974" lon="-0.43552">
        <ele>1361.2</ele>
        <time>2018-07-22T05:41:01.000Z</time>
      </trkpt>
      <trkpt lat="42.295974" lon="-0.43552">
        <ele>1361.2</ele>
        <time>2018-07-22T05:41:02.000Z</time>
      </trkpt>
      <trkpt lat="42.295974" lon="-0.43552">
        <ele>1361.2</ele>
        <time>2018-07-22T05:41:03.000Z</time>
      </trkpt>
      <trkpt lat="42.295974" lon="-0.43552">
        <ele>1361.2</ele>
        <time>2018-07-22T05:41:04.000Z</time>
      </trkpt>
      <trkpt lat="42.295974" lon="-0.43552">
        <ele>1361.2</ele>
        <time>2018-07-22T05:41:05.000Z</time>
      </trkpt>
      <trkpt lat="42.295974" lon="-0.43552">
        <ele>1361.2</ele>
        <time>2018-07-22T05:41:06.000Z</time>
      </trkpt>
      <trkpt lat="42.295974" lon="-0.43552">
        <ele>1361.2</ele>
        <time>2018-07-22T05:41:07.000Z</time>
      </trkpt>
      <trkpt lat="42.295974" lon="-0.43552">
        <ele>1361.2</ele>
        <time>2018-07-22T05:41:08.000Z</time>
      </trkpt>
      <trkpt lat="42.295974" lon="-0.43552">
        <ele>1361.2</ele>
        <time>2018-07-22T05:41:09.000Z</time>
      </trkpt>
      <trkpt lat="42.295974" lon="-0.43552">
        <ele>1361.2</ele>
        <time>2018-07-22T05:41:10.000Z</time>
      </trkpt>
      <trkpt lat="42.295974" lon="-0.43552">
        <ele>1361.2</ele>
        <time>2018-07-22T05:41:11.000Z</time>
      </trkpt>
      <trkpt lat="42.295974" lon="-0.43552">
        <ele>1361.2</ele>
        <time>2018-07-22T05:41:12.000Z</time>
      </trkpt>
      <trkpt lat="42.295974" lon="-0.43552">
        <ele>1361.2</ele>
        <time>2018-07-22T05:41:13.000Z</time>
      </trkpt>
      <trkpt lat="42.295974" lon="-0.43552">
        <ele>1361.2</ele>
        <time>2018-07-22T05:41:14.000Z</time>
      </trkpt>
      <trkpt lat="42.295974" lon="-0.43552">
        <ele>1361.2</ele>
        <time>2018-07-22T05:41:15.000Z</time>
      </trkpt>
      <trkpt lat="42.295974" lon="-0.43552">
        <ele>1361.2</ele>
        <time>2018-07-22T05:41:16.000Z</time>
      </trkpt>
      <trkpt lat="42.295974" lon="-0.43552">
        <ele>1361.2</ele>
        <time>2018-07-22T05:41:17.000Z</time>
      </trkpt>
      <trkpt lat="42.295974" lon="-0.43552">
        <ele>1361.2</ele>
        <time>2018-07-22T05:41:18.000Z</time>
      </trkpt>
      <trkpt lat="42.295974" lon="-0.43552">
        <ele>1361.2</ele>
        <time>2018-07-22T05:41:19.000Z</time>
      </trkpt>
      <trkpt lat="42.295974" lon="-0.43552">
        <ele>1361.2</ele>
        <time>2018-07-22T05:41:20.000Z</time>
      </trkpt>
      <trkpt lat="42.295974" lon="-0.43552">
        <ele>1361.2</ele>
        <time>2018-07-22T05:41:21.000Z</time>
      </trkpt>
      <trkpt lat="42.295974" lon="-0.43552">
        <ele>1361.2</ele>
        <time>2018-07-22T05:41:22.000Z</time>
      </trkpt>
      <trkpt lat="42.295974" lon="-0.43552">
        <ele>1361.2</ele>
        <time>2018-07-22T05:41:23.000Z</time>
      </trkpt>
      <trkpt lat="42.295974" lon="-0.43552">
        <ele>1361.2</ele>
        <time>2018-07-22T05:41:24.000Z</time>
      </trkpt>
      <trkpt lat="42.295974" lon="-0.43552">
        <ele>1361.2</ele>
        <time>2018-07-22T05:41:25.000Z</time>
      </trkpt>
      <trkpt lat="42.295974" lon="-0.43552">
        <ele>1361.2</ele>
        <time>2018-07-22T05:41:26.000Z</time>
      </trkpt>
      <trkpt lat="42.295974" lon="-0.43552">
        <ele>1361.2</ele>
        <time>2018-07-22T05:41:27.000Z</time>
      </trkpt>
      <trkpt lat="42.295974" lon="-0.43552">
        <ele>1361.2</ele>
        <time>2018-07-22T05:41:28.000Z</time>
      </trkpt>
      <trkpt lat="42.295974" lon="-0.43552">
        <ele>1361.2</ele>
        <time>2018-07-22T05:41:29.000Z</time>
      </trkpt>
      <trkpt lat="42.295974" lon="-0.43552">
        <ele>1361.2</ele>
        <time>2018-07-22T05:41:30.000Z</time>
      </trkpt>
      <trkpt lat="42.295974" lon="-0.43552">
        <ele>1361.2</ele>
        <time>2018-07-22T05:41:31.000Z</time>
      </trkpt>
      <trkpt lat="42.295974" lon="-0.43552">
        <ele>1361.2</ele>
        <time>2018-07-22T05:41:32.000Z</time>
      </trkpt>
      <trkpt lat="42.295974" lon="-0.43552">
        <ele>1361.2</ele>
        <time>2018-07-22T05:41:33.000Z</time>
      </trkpt>
      <trkpt lat="42.295974" lon="-0.43552">
        <ele>1361.2</ele>
        <time>2018-07-22T05:41:34.000Z</time>
      </trkpt>
      <trkpt lat="42.295974" lon="-0.43552">
        <ele>1361.2</ele>
        <time>2018-07-22T05:41:35.000Z</time>
      </trkpt>
      <trkpt lat="42.295974" lon="-0.43552">
        <ele>1361.2</ele>
        <time>2018-07-22T05:41:36.000Z</time>
      </trkpt>
      <trkpt lat="42.295974" lon="-0.43552">
        <ele>1361.2</ele>
        <time>2018-07-22T05:41:37.000Z</time>
      </trkpt>
      <trkpt lat="42.295974" lon="-0.43552">
        <ele>1361.2</ele>
        <time>2018-07-22T05:41:38.000Z</time>
      </trkpt>
      <trkpt lat="42.295974" lon="-0.43552">
        <ele>1361.2</ele>
        <time>2018-07-22T05:41:39.000Z</time>
      </trkpt>
      <trkpt lat="42.295974" lon="-0.43552">
        <ele>1361.2</ele>
        <time>2018-07-22T05:41:40.000Z</time>
      </trkpt>
      <trkpt lat="42.295974" lon="-0.43552">
        <ele>1361.2</ele>
        <time>2018-07-22T05:41:41.000Z</time>
      </trkpt>
      <trkpt lat="42.295974" lon="-0.43552">
        <ele>1361.2</ele>
        <time>2018-07-22T05:41:42.000Z</time>
      </trkpt>
      <trkpt lat="42.295974" lon="-0.43552">
        <ele>1361.2</ele>
        <time>2018-07-22T05:41:43.000Z</time>
      </trkpt>
      <trkpt lat="42.295974" lon="-0.43552">
        <ele>1361.2</ele>
        <time>2018-07-22T05:41:44.000Z</time>
      </trkpt>
      <trkpt lat="42.295974" lon="-0.43552">
        <ele>1361.2</ele>
        <time>2018-07-22T05:41:45.000Z</time>
      </trkpt>
      <trkpt lat="42.295974" lon="-0.43552">
        <ele>1361.2</ele>
        <time>2018-07-22T05:41:46.000Z</time>
      </trkpt>
      <trkpt lat="42.295974" lon="-0.43552">
        <ele>1361.2</ele>
        <time>2018-07-22T05:41:47.000Z</time>
      </trkpt>
      <trkpt lat="42.295974" lon="-0.43552">
        <ele>1361.2</ele>
        <time>2018-07-22T05:41:48.000Z</time>
      </trkpt>
      <trkpt lat="42.295974" lon="-0.43552">
        <ele>1361.2</ele>
        <time>2018-07-22T05:41:49.000Z</time>
      </trkpt>
      <trkpt lat="42.295974" lon="-0.43552">
        <ele>1361.2</ele>
        <time>2018-07-22T05:41:50.000Z</time>
      </trkpt>
      <trkpt lat="42.295974" lon="-0.43552">
        <ele>1361.2</ele>
        <time>2018-07-22T05:41:51.000Z</time>
      </trkpt>
      <trkpt lat="42.295974" lon="-0.43552">
        <ele>1361.2</ele>
        <time>2018-07-22T05:41:52.000Z</time>
      </trkpt>
      <trkpt lat="42.295974" lon="-0.43552">
        <ele>1361.2</ele>
        <time>2018-07-22T05:41:53.000Z</time>
      </trkpt>
      <trkpt lat="42.295974" lon="-0.43552">
        <ele>1361.2</ele>
        <time>2018-07-22T05:41:54.000Z</time>
      </trkpt>
      <trkpt lat="42.295974" lon="-0.43552">
        <ele>1361.2</ele>
        <time>2018-07-22T05:41:55.000Z</time>
      </trkpt>
      <trkpt lat="42.295974" lon="-0.43552">
        <ele>1361.2</ele>
        <time>2018-07-22T05:41:56.000Z</time>
      </trkpt>
      <trkpt lat="42.295974" lon="-0.43552">
        <ele>1361.2</ele>
        <time>2018-07-22T05:41:57.000Z</time>
      </trkpt>
      <trkpt lat="42.295974" lon="-0.43552">
        <ele>1361.2</ele>
        <time>2018-07-22T05:41:58.000Z</time>
      </trkpt>
      <trkpt lat="42.295974" lon="-0.43552">
        <ele>1361.2</ele>
        <time>2018-07-22T05:41:59.000Z</time>
      </trkpt>
      <trkpt lat="42.295974" lon="-0.43552">
        <ele>1361.2</ele>
        <time>2018-07-22T05:42:00.000Z</time>
      </trkpt>
      <trkpt lat="42.295974" lon="-0.43552">
        <ele>1361.2</ele>
        <time>2018-07-22T05:42:01.000Z</time>
      </trkpt>
      <trkpt lat="42.295974" lon="-0.43552">
        <ele>1361.2</ele>
        <time>2018-07-22T05:42:02.000Z</time>
      </trkpt>
      <trkpt lat="42.295974" lon="-0.43552">
        <ele>1361.2</ele>
        <time>2018-07-22T05:42:03.000Z</time>
      </trkpt>
      <trkpt lat="42.295974" lon="-0.43552">
        <ele>1361.2</ele>
        <time>2018-07-22T05:42:04.000Z</time>
      </trkpt>
      <trkpt lat="42.295974" lon="-0.43552">
        <ele>1361.2</ele>
        <time>2018-07-22T05:42:05.000Z</time>
      </trkpt>
      <trkpt lat="42.295974" lon="-0.43552">
        <ele>1361.2</ele>
        <time>2018-07-22T05:42:06.000Z</time>
      </trkpt>
      <trkpt lat="42.295974" lon="-0.43552">
        <ele>1361.2</ele>
        <time>2018-07-22T05:42:07.000Z</time>
      </trkpt>
      <trkpt lat="42.295974" lon="-0.43552">
        <ele>1361.2</ele>
        <time>2018-07-22T05:42:08.000Z</time>
      </trkpt>
      <trkpt lat="42.295974" lon="-0.43552">
        <ele>1361.2</ele>
        <time>2018-07-22T05:42:09.000Z</time>
      </trkpt>
      <trkpt lat="42.295974" lon="-0.43552">
        <ele>1361.2</ele>
        <time>2018-07-22T05:42:10.000Z</time>
      </trkpt>
      <trkpt lat="42.295974" lon="-0.43552">
        <ele>1361.2</ele>
        <time>2018-07-22T05:42:11.000Z</time>
      </trkpt>
      <trkpt lat="42.295974" lon="-0.43552">
        <ele>1361.2</ele>
        <time>2018-07-22T05:42:12.000Z</time>
      </trkpt>
      <trkpt lat="42.295974" lon="-0.43552">
        <ele>1361.2</ele>
        <time>2018-07-22T05:42:13.000Z</time>
      </trkpt>
      <trkpt lat="42.295974" lon="-0.43552">
        <ele>1361.2</ele>
        <time>2018-07-22T05:42:14.000Z</time>
      </trkpt>
      <trkpt lat="42.295974" lon="-0.43552">
        <ele>1361.2</ele>
        <time>2018-07-22T05:42:15.000Z</time>
      </trkpt>
      <trkpt lat="42.295974" lon="-0.43552">
        <ele>1361.2</ele>
        <time>2018-07-22T05:42:16.000Z</time>
      </trkpt>
      <trkpt lat="42.295974" lon="-0.43552">
        <ele>1361.2</ele>
        <time>2018-07-22T05:42:17.000Z</time>
      </trkpt>
      <trkpt lat="42.295974" lon="-0.43552">
        <ele>1361.2</ele>
        <time>2018-07-22T05:42:18.000Z</time>
      </trkpt>
      <trkpt lat="42.295974" lon="-0.43552">
        <ele>1361.2</ele>
        <time>2018-07-22T05:42:19.000Z</time>
      </trkpt>
      <trkpt lat="42.295974" lon="-0.43552">
        <ele>1361.2</ele>
        <time>2018-07-22T05:42:20.000Z</time>
      </trkpt>
      <trkpt lat="42.295974" lon="-0.43552">
        <ele>1361.2</ele>
        <time>2018-07-22T05:42:21.000Z</time>
      </trkpt>
      <trkpt lat="42.295974" lon="-0.43552">
        <ele>1361.2</ele>
        <time>2018-07-22T05:42:22.000Z</time>
      </trkpt>
      <trkpt lat="42.295974" lon="-0.43552">
        <ele>1361.2</ele>
        <time>2018-07-22T05:42:23.000Z</time>
      </trkpt>
      <trkpt lat="42.295974" lon="-0.43552">
        <ele>1361.2</ele>
        <time>2018-07-22T05:42:24.000Z</time>
      </trkpt>
      <trkpt lat="42.295974" lon="-0.43552">
        <ele>1361.2</ele>
        <time>2018-07-22T05:42:25.000Z</time>
      </trkpt>
      <trkpt lat="42.295973" lon="-0.43552">
        <ele>1361.2</ele>
        <time>2018-07-22T05:42:26.000Z</time>
      </trkpt>
      <trkpt lat="42.295973" lon="-0.43552">
        <ele>1361.2</ele>
        <time>2018-07-22T05:42:27.000Z</time>
      </trkpt>
      <trkpt lat="42.295973" lon="-0.43552">
        <ele>1361.2</ele>
        <time>2018-07-22T05:42:28.000Z</time>
      </trkpt>
      <trkpt lat="42.295973" lon="-0.43552">
        <ele>1361.2</ele>
        <time>2018-07-22T05:42:29.000Z</time>
      </trkpt>
      <trkpt lat="42.295973" lon="-0.43552">
        <ele>1361.2</ele>
        <time>2018-07-22T05:42:30.000Z</time>
      </trkpt>
      <trkpt lat="42.295973" lon="-0.43552">
        <ele>1361.2</ele>
        <time>2018-07-22T05:42:31.000Z</time>
      </trkpt>
      <trkpt lat="42.295973" lon="-0.43552">
        <ele>1361.2</ele>
        <time>2018-07-22T05:42:32.000Z</time>
      </trkpt>
      <trkpt lat="42.295973" lon="-0.43552">
        <ele>1361.2</ele>
        <time>2018-07-22T05:42:33.000Z</time>
      </trkpt>
      <trkpt lat="42.295973" lon="-0.43552">
        <ele>1361.2</ele>
        <time>2018-07-22T05:42:34.000Z</time>
      </trkpt>
      <trkpt lat="42.295973" lon="-0.43552">
        <ele>1361.2</ele>
        <time>2018-07-22T05:42:35.000Z</time>
      </trkpt>
      <trkpt lat="42.295973" lon="-0.43552">
        <ele>1361.2</ele>
        <time>2018-07-22T05:42:36.000Z</time>
      </trkpt>
      <trkpt lat="42.295973" lon="-0.43552">
        <ele>1361.2</ele>
        <time>2018-07-22T05:42:37.000Z</time>
      </trkpt>
      <trkpt lat="42.295973" lon="-0.43552">
        <ele>1361.2</ele>
        <time>2018-07-22T05:42:38.000Z</time>
      </trkpt>
      <trkpt lat="42.295973" lon="-0.43552">
        <ele>1361.2</ele>
        <time>2018-07-22T05:42:39.000Z</time>
      </trkpt>
      <trkpt lat="42.295973" lon="-0.43552">
        <ele>1361.2</ele>
        <time>2018-07-22T05:42:40.000Z</time>
      </trkpt>
      <trkpt lat="42.295973" lon="-0.43552">
        <ele>1361.2</ele>
        <time>2018-07-22T05:42:41.000Z</time>
      </trkpt>
      <trkpt lat="42.295973" lon="-0.43552">
        <ele>1361.2</ele>
        <time>2018-07-22T05:42:42.000Z</time>
      </trkpt>
      <trkpt lat="42.295973" lon="-0.43552">
        <ele>1361.2</ele>
        <time>2018-07-22T05:42:43.000Z</time>
      </trkpt>
      <trkpt lat="42.295973" lon="-0.43552">
        <ele>1361.2</ele>
        <time>2018-07-22T05:42:44.000Z</time>
      </trkpt>
      <trkpt lat="42.295973" lon="-0.43552">
        <ele>1361.2</ele>
        <time>2018-07-22T05:42:45.000Z</time>
      </trkpt>
      <trkpt lat="42.295973" lon="-0.43552">
        <ele>1361.2</ele>
        <time>2018-07-22T05:42:46.000Z</time>
      </trkpt>
      <trkpt lat="42.295973" lon="-0.43552">
        <ele>1361.2</ele>
        <time>2018-07-22T05:42:47.000Z</time>
      </trkpt>
      <trkpt lat="42.295973" lon="-0.435521">
        <ele>1361.2</ele>
        <time>2018-07-22T05:42:48.000Z</time>
      </trkpt>
      <trkpt lat="42.295973" lon="-0.435521">
        <ele>1361.2</ele>
        <time>2018-07-22T05:42:49.000Z</time>
      </trkpt>
      <trkpt lat="42.295973" lon="-0.435521">
        <ele>1361.2</ele>
        <time>2018-07-22T05:42:50.000Z</time>
      </trkpt>
      <trkpt lat="42.295973" lon="-0.435521">
        <ele>1361.2</ele>
        <time>2018-07-22T05:42:51.000Z</time>
      </trkpt>
      <trkpt lat="42.295973" lon="-0.435521">
        <ele>1361.2</ele>
        <time>2018-07-22T05:42:52.000Z</time>
      </trkpt>
      <trkpt lat="42.295973" lon="-0.435521">
        <ele>1361.2</ele>
        <time>2018-07-22T05:42:53.000Z</time>
      </trkpt>
      <trkpt lat="42.295973" lon="-0.435522">
        <ele>1361.2</ele>
        <time>2018-07-22T05:42:54.000Z</time>
      </trkpt>
      <trkpt lat="42.295973" lon="-0.435522">
        <ele>1361.2</ele>
        <time>2018-07-22T05:42:55.000Z</time>
      </trkpt>
      <trkpt lat="42.295971" lon="-0.435527">
        <ele>1361.4</ele>
        <time>2018-07-22T05:42:56.000Z</time>
      </trkpt>
      <trkpt lat="42.295967" lon="-0.435537">
        <ele>1361.8</ele>
        <time>2018-07-22T05:42:57.000Z</time>
      </trkpt>
      <trkpt lat="42.295965" lon="-0.435543">
        <ele>1362.0</ele>
        <time>2018-07-22T05:42:58.000Z</time>
      </trkpt>
      <trkpt lat="42.295964" lon="-0.435545">
        <ele>1362.0</ele>
        <time>2018-07-22T05:42:59.000Z</time>
      </trkpt>
      <trkpt lat="42.295964" lon="-0.435546">
        <ele>1362.1</ele>
        <time>2018-07-22T05:43:00.000Z</time>
      </trkpt>
      <trkpt lat="42.295963" lon="-0.435547">
        <ele>1362.1</ele>
        <time>2018-07-22T05:43:01.000Z</time>
      </trkpt>
      <trkpt lat="42.295963" lon="-0.435548">
        <ele>1362.1</ele>
        <time>2018-07-22T05:43:02.000Z</time>
      </trkpt>
      <trkpt lat="42.295962" lon="-0.435549">
        <ele>1362.2</ele>
        <time>2018-07-22T05:43:03.000Z</time>
      </trkpt>
      <trkpt lat="42.295962" lon="-0.43555">
        <ele>1362.2</ele>
        <time>2018-07-22T05:43:04.000Z</time>
      </trkpt>
      <trkpt lat="42.295962" lon="-0.43555">
        <ele>1362.2</ele>
        <time>2018-07-22T05:43:05.000Z</time>
      </trkpt>
      <trkpt lat="42.295961" lon="-0.435551">
        <ele>1362.3</ele>
        <time>2018-07-22T05:43:06.000Z</time>
      </trkpt>
      <trkpt lat="42.295961" lon="-0.435552">
        <ele>1362.3</ele>
        <time>2018-07-22T05:43:07.000Z</time>
      </trkpt>
      <trkpt lat="42.29596" lon="-0.435552">
        <ele>1362.3</ele>
        <time>2018-07-22T05:43:08.000Z</time>
      </trkpt>
      <trkpt lat="42.29596" lon="-0.435553">
        <ele>1362.4</ele>
        <time>2018-07-22T05:43:09.000Z</time>
      </trkpt>
      <trkpt lat="42.295959" lon="-0.435554">
        <ele>1362.4</ele>
        <time>2018-07-22T05:43:10.000Z</time>
      </trkpt>
      <trkpt lat="42.295959" lon="-0.435555">
        <ele>1362.4</ele>
        <time>2018-07-22T05:43:11.000Z</time>
      </trkpt>
      <trkpt lat="42.295958" lon="-0.435556">
        <ele>1362.5</ele>
        <time>2018-07-22T05:43:12.000Z</time>
      </trkpt>
      <trkpt lat="42.295957" lon="-0.435557">
        <ele>1362.6</ele>
        <time>2018-07-22T05:43:13.000Z</time>
      </trkpt>
      <trkpt lat="42.295957" lon="-0.435558">
        <ele>1362.6</ele>
        <time>2018-07-22T05:43:14.000Z</time>
      </trkpt>
      <trkpt lat="42.295956" lon="-0.435559">
        <ele>1362.6</ele>
        <time>2018-07-22T05:43:15.000Z</time>
      </trkpt>
      <trkpt lat="42.295955" lon="-0.435561">
        <ele>1362.7</ele>
        <time>2018-07-22T05:43:16.000Z</time>
      </trkpt>
      <trkpt lat="42.295954" lon="-0.435562">
        <ele>1362.8</ele>
        <time>2018-07-22T05:43:17.000Z</time>
      </trkpt>
      <trkpt lat="42.295954" lon="-0.435564">
        <ele>1362.8</ele>
        <time>2018-07-22T05:43:18.000Z</time>
      </trkpt>
      <trkpt lat="42.295953" lon="-0.435565">
        <ele>1362.9</ele>
        <time>2018-07-22T05:43:19.000Z</time>
      </trkpt>
      <trkpt lat="42.295952" lon="-0.435567">
        <ele>1363.0</ele>
        <time>2018-07-22T05:43:20.000Z</time>
      </trkpt>
      <trkpt lat="42.295951" lon="-0.435568">
        <ele>1363.0</ele>
        <time>2018-07-22T05:43:21.000Z</time>
      </trkpt>
      <trkpt lat="42.295951" lon="-0.435569">
        <ele>1363.0</ele>
        <time>2018-07-22T05:43:22.000Z</time>
      </trkpt>
      <trkpt lat="42.29595" lon="-0.435571">
        <ele>1363.1</ele>
        <time>2018-07-22T05:43:23.000Z</time>
      </trkpt>
      <trkpt lat="42.295948" lon="-0.435573">
        <ele>1363.2</ele>
        <time>2018-07-22T05:43:24.000Z</time>
      </trkpt>
      <trkpt lat="42.295946" lon="-0.435575">
        <ele>1363.4</ele>
        <time>2018-07-22T05:43:25.000Z</time>
      </trkpt>
      <trkpt lat="42.295945" lon="-0.435576">
        <ele>1363.4</ele>
        <time>2018-07-22T05:43:26.000Z</time>
      </trkpt>
      <trkpt lat="42.295945" lon="-0.435576">
        <ele>1363.4</ele>
        <time>2018-07-22T05:43:27.000Z</time>
      </trkpt>
      <trkpt lat="42.295941" lon="-0.435581">
        <ele>1363.7</ele>
        <time>2018-07-22T05:43:28.000Z</time>
      </trkpt>
      <trkpt lat="42.295939" lon="-0.435582">
        <ele>1363.8</ele>
        <time>2018-07-22T05:43:29.000Z</time>
      </trkpt>
      <trkpt lat="42.295938" lon="-0.435583">
        <ele>1363.8</ele>
        <time>2018-07-22T05:43:30.000Z</time>
      </trkpt>
      <trkpt lat="42.295938" lon="-0.435584">
        <ele>1363.9</ele>
        <time>2018-07-22T05:43:31.000Z</time>
      </trkpt>
      <trkpt lat="42.295937" lon="-0.435584">
        <ele>1363.9</ele>
        <time>2018-07-22T05:43:32.000Z</time>
      </trkpt>
      <trkpt lat="42.295937" lon="-0.435585">
        <ele>1363.9</ele>
        <time>2018-07-22T05:43:33.000Z</time>
      </trkpt>
      <trkpt lat="42.295937" lon="-0.435586">
        <ele>1364.0</ele>
        <time>2018-07-22T05:43:34.000Z</time>
      </trkpt>
      <trkpt lat="42.295936" lon="-0.435587">
        <ele>1364.0</ele>
        <time>2018-07-22T05:43:35.000Z</time>
      </trkpt>
      <trkpt lat="42.295936" lon="-0.435589">
        <ele>1364.1</ele>
        <time>2018-07-22T05:43:36.000Z</time>
      </trkpt>
      <trkpt lat="42.295935" lon="-0.43559">
        <ele>1364.1</ele>
        <time>2018-07-22T05:43:37.000Z</time>
      </trkpt>
      <trkpt lat="42.295934" lon="-0.435592">
        <ele>1364.2</ele>
        <time>2018-07-22T05:43:38.000Z</time>
      </trkpt>
      <trkpt lat="42.295934" lon="-0.435594">
        <ele>1364.2</ele>
        <time>2018-07-22T05:43:39.000Z</time>
      </trkpt>
      <trkpt lat="42.295933" lon="-0.435596">
        <ele>1364.3</ele>
        <time>2018-07-22T05:43:40.000Z</time>
      </trkpt>
      <trkpt lat="42.295932" lon="-0.435598">
        <ele>1364.4</ele>
        <time>2018-07-22T05:43:41.000Z</time>
      </trkpt>
      <trkpt lat="42.295931" lon="-0.4356">
        <ele>1364.5</ele>
        <time>2018-07-22T05:43:42.000Z</time>
      </trkpt>
      <trkpt lat="42.295931" lon="-0.435603">
        <ele>1364.5</ele>
        <time>2018-07-22T05:43:43.000Z</time>
      </trkpt>
      <trkpt lat="42.29593" lon="-0.435606">
        <ele>1364.7</ele>
        <time>2018-07-22T05:43:44.000Z</time>
      </trkpt>
      <trkpt lat="42.295929" lon="-0.435609">
        <ele>1364.8</ele>
        <time>2018-07-22T05:43:45.000Z</time>
      </trkpt>
      <trkpt lat="42.295928" lon="-0.435613">
        <ele>1364.9</ele>
        <time>2018-07-22T05:43:46.000Z</time>
      </trkpt>
      <trkpt lat="42.295927" lon="-0.435615">
        <ele>1365.0</ele>
        <time>2018-07-22T05:43:47.000Z</time>
      </trkpt>
      <trkpt lat="42.295926" lon="-0.435618">
        <ele>1365.1</ele>
        <time>2018-07-22T05:43:48.000Z</time>
      </trkpt>
      <trkpt lat="42.295925" lon="-0.435619">
        <ele>1365.1</ele>
        <time>2018-07-22T05:43:49.000Z</time>
      </trkpt>
      <trkpt lat="42.295924" lon="-0.435621">
        <ele>1365.2</ele>
        <time>2018-07-22T05:43:50.000Z</time>
      </trkpt>
      <trkpt lat="42.295924" lon="-0.435623">
        <ele>1365.3</ele>
        <time>2018-07-22T05:43:51.000Z</time>
      </trkpt>
      <trkpt lat="42.295922" lon="-0.435626">
        <ele>1365.4</ele>
        <time>2018-07-22T05:43:52.000Z</time>
      </trkpt>
      <trkpt lat="42.295918" lon="-0.435632">
        <ele>1365.7</ele>
        <time>2018-07-22T05:43:53.000Z</time>
      </trkpt>
      <trkpt lat="42.295915" lon="-0.435636">
        <ele>1365.9</ele>
        <time>2018-07-22T05:43:54.000Z</time>
      </trkpt>
      <trkpt lat="42.295914" lon="-0.43564">
        <ele>1366.0</ele>
        <time>2018-07-22T05:43:55.000Z</time>
      </trkpt>
      <trkpt lat="42.295912" lon="-0.435643">
        <ele>1366.2</ele>
        <time>2018-07-22T05:43:56.000Z</time>
      </trkpt>
      <trkpt lat="42.295911" lon="-0.435645">
        <ele>1366.3</ele>
        <time>2018-07-22T05:43:57.000Z</time>
      </trkpt>
      <trkpt lat="42.295911" lon="-0.435646">
        <ele>1366.3</ele>
        <time>2018-07-22T05:43:58.000Z</time>
      </trkpt>
      <trkpt lat="42.29591" lon="-0.435647">
        <ele>1366.4</ele>
        <time>2018-07-22T05:43:59.000Z</time>
      </trkpt>
      <trkpt lat="42.29591" lon="-0.435648">
        <ele>1366.4</ele>
        <time>2018-07-22T05:44:00.000Z</time>
      </trkpt>
      <trkpt lat="42.29591" lon="-0.435648">
        <ele>1366.4</ele>
        <time>2018-07-22T05:44:01.000Z</time>
      </trkpt>
      <trkpt lat="42.29591" lon="-0.435648">
        <ele>1366.4</ele>
        <time>2018-07-22T05:44:02.000Z</time>
      </trkpt>
      <trkpt lat="42.29591" lon="-0.435648">
        <ele>1366.4</ele>
        <time>2018-07-22T05:44:03.000Z</time>
      </trkpt>
      <trkpt lat="42.29591" lon="-0.435648">
        <ele>1366.4</ele>
        <time>2018-07-22T05:44:04.000Z</time>
      </trkpt>
      <trkpt lat="42.29591" lon="-0.435648">
        <ele>1366.4</ele>
        <time>2018-07-22T05:44:05.000Z</time>
      </trkpt>
      <trkpt lat="42.295909" lon="-0.435649">
        <ele>1366.4</ele>
        <time>2018-07-22T05:44:06.000Z</time>
      </trkpt>
      <trkpt lat="42.295909" lon="-0.435649">
        <ele>1366.4</ele>
        <time>2018-07-22T05:44:07.000Z</time>
      </trkpt>
      <trkpt lat="42.295909" lon="-0.435649">
        <ele>1366.4</ele>
        <time>2018-07-22T05:44:08.000Z</time>
      </trkpt>
      <trkpt lat="42.295908" lon="-0.43565">
        <ele>1366.5</ele>
        <time>2018-07-22T05:44:09.000Z</time>
      </trkpt>
      <trkpt lat="42.295908" lon="-0.435651">
        <ele>1366.5</ele>
        <time>2018-07-22T05:44:10.000Z</time>
      </trkpt>
      <trkpt lat="42.295908" lon="-0.435651">
        <ele>1366.5</ele>
        <time>2018-07-22T05:44:11.000Z</time>
      </trkpt>
      <trkpt lat="42.295907" lon="-0.435652">
        <ele>1366.6</ele>
        <time>2018-07-22T05:44:12.000Z</time>
      </trkpt>
      <trkpt lat="42.295907" lon="-0.435653">
        <ele>1366.6</ele>
        <time>2018-07-22T05:44:13.000Z</time>
      </trkpt>
      <trkpt lat="42.295906" lon="-0.435654">
        <ele>1366.7</ele>
        <time>2018-07-22T05:44:14.000Z</time>
      </trkpt>
      <trkpt lat="42.295905" lon="-0.435654">
        <ele>1366.7</ele>
        <time>2018-07-22T05:44:15.000Z</time>
      </trkpt>
      <trkpt lat="42.295905" lon="-0.435655">
        <ele>1366.7</ele>
        <time>2018-07-22T05:44:16.000Z</time>
      </trkpt>
      <trkpt lat="42.295904" lon="-0.435656">
        <ele>1366.8</ele>
        <time>2018-07-22T05:44:17.000Z</time>
      </trkpt>
      <trkpt lat="42.295904" lon="-0.435657">
        <ele>1366.8</ele>
        <time>2018-07-22T05:44:18.000Z</time>
      </trkpt>
      <trkpt lat="42.295903" lon="-0.435657">
        <ele>1366.9</ele>
        <time>2018-07-22T05:44:19.000Z</time>
      </trkpt>
      <trkpt lat="42.295902" lon="-0.435658">
        <ele>1366.9</ele>
        <time>2018-07-22T05:44:20.000Z</time>
      </trkpt>
      <trkpt lat="42.295902" lon="-0.435659">
        <ele>1366.9</ele>
        <time>2018-07-22T05:44:21.000Z</time>
      </trkpt>
      <trkpt lat="42.295901" lon="-0.435661">
        <ele>1367.0</ele>
        <time>2018-07-22T05:44:22.000Z</time>
      </trkpt>
      <trkpt lat="42.2959" lon="-0.435662">
        <ele>1367.1</ele>
        <time>2018-07-22T05:44:23.000Z</time>
      </trkpt>
      <trkpt lat="42.295898" lon="-0.435665">
        <ele>1367.2</ele>
        <time>2018-07-22T05:44:24.000Z</time>
      </trkpt>
      <trkpt lat="42.295897" lon="-0.435667">
        <ele>1367.3</ele>
        <time>2018-07-22T05:44:25.000Z</time>
      </trkpt>
      <trkpt lat="42.295895" lon="-0.43567">
        <ele>1367.5</ele>
        <time>2018-07-22T05:44:26.000Z</time>
      </trkpt>
      <trkpt lat="42.295892" lon="-0.435674">
        <ele>1367.7</ele>
        <time>2018-07-22T05:44:27.000Z</time>
      </trkpt>
      <trkpt lat="42.29589" lon="-0.43568">
        <ele>1367.9</ele>
        <time>2018-07-22T05:44:28.000Z</time>
      </trkpt>
      <trkpt lat="42.295887" lon="-0.435684">
        <ele>1368.1</ele>
        <time>2018-07-22T05:44:29.000Z</time>
      </trkpt>
      <trkpt lat="42.295885" lon="-0.435688">
        <ele>1368.3</ele>
        <time>2018-07-22T05:44:30.000Z</time>
      </trkpt>
      <trkpt lat="42.295882" lon="-0.435692">
        <ele>1368.5</ele>
        <time>2018-07-22T05:44:31.000Z</time>
      </trkpt>
      <trkpt lat="42.295881" lon="-0.435696">
        <ele>1368.7</ele>
        <time>2018-07-22T05:44:32.000Z</time>
      </trkpt>
      <trkpt lat="42.295879" lon="-0.435698">
        <ele>1368.8</ele>
        <time>2018-07-22T05:44:33.000Z</time>
      </trkpt>
      <trkpt lat="42.295878" lon="-0.4357">
        <ele>1368.9</ele>
        <time>2018-07-22T05:44:34.000Z</time>
      </trkpt>
      <trkpt lat="42.295877" lon="-0.435702">
        <ele>1369.0</ele>
        <time>2018-07-22T05:44:35.000Z</time>
      </trkpt>
      <trkpt lat="42.295876" lon="-0.435703">
        <ele>1369.0</ele>
        <time>2018-07-22T05:44:36.000Z</time>
      </trkpt>
      <trkpt lat="42.295875" lon="-0.435704">
        <ele>1369.1</ele>
        <time>2018-07-22T05:44:37.000Z</time>
      </trkpt>
      <trkpt lat="42.295875" lon="-0.435706">
        <ele>1369.1</ele>
        <time>2018-07-22T05:44:38.000Z</time>
      </trkpt>
      <trkpt lat="42.295874" lon="-0.435708">
        <ele>1369.2</ele>
        <time>2018-07-22T05:44:39.000Z</time>
      </trkpt>
      <trkpt lat="42.295873" lon="-0.43571">
        <ele>1369.3</ele>
        <time>2018-07-22T05:44:40.000Z</time>
      </trkpt>
      <trkpt lat="42.295871" lon="-0.435712">
        <ele>1369.5</ele>
        <time>2018-07-22T05:44:41.000Z</time>
      </trkpt>
      <trkpt lat="42.29587" lon="-0.435714">
        <ele>1369.5</ele>
        <time>2018-07-22T05:44:42.000Z</time>
      </trkpt>
      <trkpt lat="42.295869" lon="-0.435717">
        <ele>1369.7</ele>
        <time>2018-07-22T05:44:43.000Z</time>
      </trkpt>
      <trkpt lat="42.295867" lon="-0.435719">
        <ele>1369.8</ele>
        <time>2018-07-22T05:44:44.000Z</time>
      </trkpt>
      <trkpt lat="42.295867" lon="-0.435721">
        <ele>1369.8</ele>
        <time>2018-07-22T05:44:45.000Z</time>
      </trkpt>
      <trkpt lat="42.295866" lon="-0.435722">
        <ele>1369.9</ele>
        <time>2018-07-22T05:44:46.000Z</time>
      </trkpt>
      <trkpt lat="42.295862" lon="-0.435728">
        <ele>1370.2</ele>
        <time>2018-07-22T05:44:47.000Z</time>
      </trkpt>
      <trkpt lat="42.295858" lon="-0.435735">
        <ele>1370.6</ele>
        <time>2018-07-22T05:44:48.000Z</time>
      </trkpt>
      <trkpt lat="42.295853" lon="-0.435742">
        <ele>1370.9</ele>
        <time>2018-07-22T05:44:49.000Z</time>
      </trkpt>
      <trkpt lat="42.29585" lon="-0.435748">
        <ele>1371.2</ele>
        <time>2018-07-22T05:44:50.000Z</time>
      </trkpt>
      <trkpt lat="42.295847" lon="-0.435753">
        <ele>1371.5</ele>
        <time>2018-07-22T05:44:51.000Z</time>
      </trkpt>
      <trkpt lat="42.295845" lon="-0.435758">
        <ele>1371.7</ele>
        <time>2018-07-22T05:44:52.000Z</time>
      </trkpt>
      <trkpt lat="42.295843" lon="-0.435762">
        <ele>1371.9</ele>
        <time>2018-07-22T05:44:53.000Z</time>
      </trkpt>
      <trkpt lat="42.295842" lon="-0.435765">
        <ele>1372.0</ele>
        <time>2018-07-22T05:44:54.000Z</time>
      </trkpt>
      <trkpt lat="42.295841" lon="-0.435768">
        <ele>1372.1</ele>
        <time>2018-07-22T05:44:55.000Z</time>
      </trkpt>
      <trkpt lat="42.29584" lon="-0.43577">
        <ele>1372.2</ele>
        <time>2018-07-22T05:44:56.000Z</time>
      </trkpt>
      <trkpt lat="42.29584" lon="-0.435772">
        <ele>1372.2</ele>
        <time>2018-07-22T05:44:57.000Z</time>
      </trkpt>
      <trkpt lat="42.295839" lon="-0.435773">
        <ele>1372.3</ele>
        <time>2018-07-22T05:44:58.000Z</time>
      </trkpt>
      <trkpt lat="42.295839" lon="-0.435774">
        <ele>1372.3</ele>
        <time>2018-07-22T05:44:59.000Z</time>
      </trkpt>
      <trkpt lat="42.295839" lon="-0.435775">
        <ele>1372.3</ele>
        <time>2018-07-22T05:45:00.000Z</time>
      </trkpt>
      <trkpt lat="42.295839" lon="-0.435776">
        <ele>1372.4</ele>
        <time>2018-07-22T05:45:01.000Z</time>
      </trkpt>
      <trkpt lat="42.295838" lon="-0.435778">
        <ele>1372.5</ele>
        <time>2018-07-22T05:45:02.000Z</time>
      </trkpt>
      <trkpt lat="42.295837" lon="-0.435779">
        <ele>1372.5</ele>
        <time>2018-07-22T05:45:03.000Z</time>
      </trkpt>
      <trkpt lat="42.295836" lon="-0.435782">
        <ele>1372.6</ele>
        <time>2018-07-22T05:45:04.000Z</time>
      </trkpt>
      <trkpt lat="42.295834" lon="-0.435786">
        <ele>1372.8</ele>
        <time>2018-07-22T05:45:05.000Z</time>
      </trkpt>
      <trkpt lat="42.29583" lon="-0.435791">
        <ele>1373.1</ele>
        <time>2018-07-22T05:45:06.000Z</time>
      </trkpt>
      <trkpt lat="42.295825" lon="-0.435798">
        <ele>1373.3</ele>
        <time>2018-07-22T05:45:07.000Z</time>
      </trkpt>
      <trkpt lat="42.295822" lon="-0.435802">
        <ele>1373.5</ele>
        <time>2018-07-22T05:45:08.000Z</time>
      </trkpt>
      <trkpt lat="42.29582" lon="-0.435805">
        <ele>1373.6</ele>
        <time>2018-07-22T05:45:09.000Z</time>
      </trkpt>
      <trkpt lat="42.295818" lon="-0.435807">
        <ele>1373.7</ele>
        <time>2018-07-22T05:45:10.000Z</time>
      </trkpt>
      <trkpt lat="42.295816" lon="-0.43581">
        <ele>1373.8</ele>
        <time>2018-07-22T05:45:11.000Z</time>
      </trkpt>
      <trkpt lat="42.295815" lon="-0.435812">
        <ele>1373.9</ele>
        <time>2018-07-22T05:45:12.000Z</time>
      </trkpt>
      <trkpt lat="42.295813" lon="-0.435814">
        <ele>1374.0</ele>
        <time>2018-07-22T05:45:13.000Z</time>
      </trkpt>
      <trkpt lat="42.295812" lon="-0.435816">
        <ele>1374.1</ele>
        <time>2018-07-22T05:45:14.000Z</time>
      </trkpt>
      <trkpt lat="42.295811" lon="-0.435818">
        <ele>1374.2</ele>
        <time>2018-07-22T05:45:15.000Z</time>
      </trkpt>
      <trkpt lat="42.29581" lon="-0.435819">
        <ele>1374.2</ele>
        <time>2018-07-22T05:45:16.000Z</time>
      </trkpt>
      <trkpt lat="42.295809" lon="-0.43582">
        <ele>1374.3</ele>
        <time>2018-07-22T05:45:17.000Z</time>
      </trkpt>
      <trkpt lat="42.295808" lon="-0.435821">
        <ele>1374.3</ele>
        <time>2018-07-22T05:45:18.000Z</time>
      </trkpt>
      <trkpt lat="42.295807" lon="-0.435823">
        <ele>1374.4</ele>
        <time>2018-07-22T05:45:19.000Z</time>
      </trkpt>
      <trkpt lat="42.295805" lon="-0.435825">
        <ele>1374.5</ele>
        <time>2018-07-22T05:45:20.000Z</time>
      </trkpt>
      <trkpt lat="42.295803" lon="-0.435827">
        <ele>1374.6</ele>
        <time>2018-07-22T05:45:21.000Z</time>
      </trkpt>
      <trkpt lat="42.2958" lon="-0.435831">
        <ele>1374.7</ele>
        <time>2018-07-22T05:45:22.000Z</time>
      </trkpt>
      <trkpt lat="42.295797" lon="-0.435834">
        <ele>1374.9</ele>
        <time>2018-07-22T05:45:23.000Z</time>
      </trkpt>
      <trkpt lat="42.295794" lon="-0.435835">
        <ele>1375.0</ele>
        <time>2018-07-22T05:45:24.000Z</time>
      </trkpt>
      <trkpt lat="42.295789" lon="-0.435839">
        <ele>1375.1</ele>
        <time>2018-07-22T05:45:25.000Z</time>
      </trkpt>
      <trkpt lat="42.295786" lon="-0.435841">
        <ele>1375.2</ele>
        <time>2018-07-22T05:45:26.000Z</time>
      </trkpt>
      <trkpt lat="42.295783" lon="-0.435844">
        <ele>1375.3</ele>
        <time>2018-07-22T05:45:27.000Z</time>
      </trkpt>
      <trkpt lat="42.29578" lon="-0.435847">
        <ele>1375.4</ele>
        <time>2018-07-22T05:45:28.000Z</time>
      </trkpt>
      <trkpt lat="42.295777" lon="-0.435849">
        <ele>1375.5</ele>
        <time>2018-07-22T05:45:29.000Z</time>
      </trkpt>
      <trkpt lat="42.295775" lon="-0.435851">
        <ele>1375.6</ele>
        <time>2018-07-22T05:45:30.000Z</time>
      </trkpt>
      <trkpt lat="42.295774" lon="-0.435852">
        <ele>1375.6</ele>
        <time>2018-07-22T05:45:31.000Z</time>
      </trkpt>
      <trkpt lat="42.295773" lon="-0.435853">
        <ele>1375.7</ele>
        <time>2018-07-22T05:45:32.000Z</time>
      </trkpt>
      <trkpt lat="42.295773" lon="-0.435853">
        <ele>1375.7</ele>
        <time>2018-07-22T05:45:33.000Z</time>
      </trkpt>
      <trkpt lat="42.295772" lon="-0.435854">
        <ele>1375.7</ele>
        <time>2018-07-22T05:45:34.000Z</time>
      </trkpt>
      <trkpt lat="42.295771" lon="-0.435855">
        <ele>1375.7</ele>
        <time>2018-07-22T05:45:35.000Z</time>
      </trkpt>
      <trkpt lat="42.295769" lon="-0.435856">
        <ele>1375.8</ele>
        <time>2018-07-22T05:45:36.000Z</time>
      </trkpt>
      <trkpt lat="42.295768" lon="-0.435858">
        <ele>1375.8</ele>
        <time>2018-07-22T05:45:37.000Z</time>
      </trkpt>
      <trkpt lat="42.295768" lon="-0.435859">
        <ele>1375.8</ele>
        <time>2018-07-22T05:45:38.000Z</time>
      </trkpt>
      <trkpt lat="42.295767" lon="-0.43586">
        <ele>1375.9</ele>
        <time>2018-07-22T05:45:39.000Z</time>
      </trkpt>
      <trkpt lat="42.295764" lon="-0.435861">
        <ele>1376.0</ele>
        <time>2018-07-22T05:45:40.000Z</time>
      </trkpt>
      <trkpt lat="42.295759" lon="-0.435864">
        <ele>1376.1</ele>
        <time>2018-07-22T05:45:41.000Z</time>
      </trkpt>
      <trkpt lat="42.29575" lon="-0.435868">
        <ele>1376.4</ele>
        <time>2018-07-22T05:45:42.000Z</time>
      </trkpt>
      <trkpt lat="42.295745" lon="-0.435873">
        <ele>1376.6</ele>
        <time>2018-07-22T05:45:43.000Z</time>
      </trkpt>
      <trkpt lat="42.295741" lon="-0.435877">
        <ele>1376.7</ele>
        <time>2018-07-22T05:45:44.000Z</time>
      </trkpt>
      <trkpt lat="42.295739" lon="-0.43588">
        <ele>1376.8</ele>
        <time>2018-07-22T05:45:45.000Z</time>
      </trkpt>
      <trkpt lat="42.295738" lon="-0.435882">
        <ele>1376.8</ele>
        <time>2018-07-22T05:45:46.000Z</time>
      </trkpt>
      <trkpt lat="42.295737" lon="-0.435883">
        <ele>1376.9</ele>
        <time>2018-07-22T05:45:47.000Z</time>
      </trkpt>
      <trkpt lat="42.295736" lon="-0.435884">
        <ele>1376.9</ele>
        <time>2018-07-22T05:45:48.000Z</time>
      </trkpt>
      <trkpt lat="42.295735" lon="-0.435885">
        <ele>1377.0</ele>
        <time>2018-07-22T05:45:49.000Z</time>
      </trkpt>
      <trkpt lat="42.295734" lon="-0.435886">
        <ele>1377.0</ele>
        <time>2018-07-22T05:45:50.000Z</time>
      </trkpt>
      <trkpt lat="42.295733" lon="-0.435887">
        <ele>1377.0</ele>
        <time>2018-07-22T05:45:51.000Z</time>
      </trkpt>
      <trkpt lat="42.295732" lon="-0.435888">
        <ele>1377.1</ele>
        <time>2018-07-22T05:45:52.000Z</time>
      </trkpt>
      <trkpt lat="42.295731" lon="-0.435889">
        <ele>1377.1</ele>
        <time>2018-07-22T05:45:53.000Z</time>
      </trkpt>
      <trkpt lat="42.29573" lon="-0.43589">
        <ele>1377.1</ele>
        <time>2018-07-22T05:45:54.000Z</time>
      </trkpt>
      <trkpt lat="42.295728" lon="-0.435891">
        <ele>1377.2</ele>
        <time>2018-07-22T05:45:55.000Z</time>
      </trkpt>
      <trkpt lat="42.295727" lon="-0.435893">
        <ele>1377.3</ele>
        <time>2018-07-22T05:45:56.000Z</time>
      </trkpt>
      <trkpt lat="42.295725" lon="-0.435895">
        <ele>1377.3</ele>
        <time>2018-07-22T05:45:57.000Z</time>
      </trkpt>
      <trkpt lat="42.295724" lon="-0.435897">
        <ele>1377.4</ele>
        <time>2018-07-22T05:45:58.000Z</time>
      </trkpt>
      <trkpt lat="42.295723" lon="-0.435898">
        <ele>1377.4</ele>
        <time>2018-07-22T05:45:59.000Z</time>
      </trkpt>
      <trkpt lat="42.295722" lon="-0.435899">
        <ele>1377.4</ele>
        <time>2018-07-22T05:46:00.000Z</time>
      </trkpt>
      <trkpt lat="42.295721" lon="-0.435901">
        <ele>1377.5</ele>
        <time>2018-07-22T05:46:01.000Z</time>
      </trkpt>
      <trkpt lat="42.295718" lon="-0.435904">
        <ele>1377.6</ele>
        <time>2018-07-22T05:46:02.000Z</time>
      </trkpt>
      <trkpt lat="42.295716" lon="-0.435907">
        <ele>1377.7</ele>
        <time>2018-07-22T05:46:03.000Z</time>
      </trkpt>
      <trkpt lat="42.295715" lon="-0.435908">
        <ele>1377.7</ele>
        <time>2018-07-22T05:46:04.000Z</time>
      </trkpt>
      <trkpt lat="42.295714" lon="-0.435909">
        <ele>1377.8</ele>
        <time>2018-07-22T05:46:05.000Z</time>
      </trkpt>
      <trkpt lat="42.295712" lon="-0.43591">
        <ele>1377.8</ele>
        <time>2018-07-22T05:46:06.000Z</time>
      </trkpt>
      <trkpt lat="42.295711" lon="-0.435912">
        <ele>1377.9</ele>
        <time>2018-07-22T05:46:07.000Z</time>
      </trkpt>
      <trkpt lat="42.29571" lon="-0.435913">
        <ele>1377.9</ele>
        <time>2018-07-22T05:46:08.000Z</time>
      </trkpt>
      <trkpt lat="42.295708" lon="-0.435915">
        <ele>1378.0</ele>
        <time>2018-07-22T05:46:09.000Z</time>
      </trkpt>
      <trkpt lat="42.295706" lon="-0.435917">
        <ele>1378.1</ele>
        <time>2018-07-22T05:46:10.000Z</time>
      </trkpt>
      <trkpt lat="42.295704" lon="-0.435918">
        <ele>1378.1</ele>
        <time>2018-07-22T05:46:11.000Z</time>
      </trkpt>
      <trkpt lat="42.295702" lon="-0.435921">
        <ele>1378.2</ele>
        <time>2018-07-22T05:46:12.000Z</time>
      </trkpt>
      <trkpt lat="42.2957" lon="-0.435923">
        <ele>1378.3</ele>
        <time>2018-07-22T05:46:13.000Z</time>
      </trkpt>
      <trkpt lat="42.295698" lon="-0.435925">
        <ele>1378.4</ele>
        <time>2018-07-22T05:46:14.000Z</time>
      </trkpt>
      <trkpt lat="42.295696" lon="-0.435927">
        <ele>1378.5</ele>
        <time>2018-07-22T05:46:15.000Z</time>
      </trkpt>
      <trkpt lat="42.295694" lon="-0.435929">
        <ele>1378.5</ele>
        <time>2018-07-22T05:46:16.000Z</time>
      </trkpt>
      <trkpt lat="42.295693" lon="-0.435931">
        <ele>1378.6</ele>
        <time>2018-07-22T05:46:17.000Z</time>
      </trkpt>
      <trkpt lat="42.295691" lon="-0.435932">
        <ele>1378.6</ele>
        <time>2018-07-22T05:46:18.000Z</time>
      </trkpt>
      <trkpt lat="42.29569" lon="-0.435933">
        <ele>1378.7</ele>
        <time>2018-07-22T05:46:19.000Z</time>
      </trkpt>
      <trkpt lat="42.295688" lon="-0.435935">
        <ele>1378.8</ele>
        <time>2018-07-22T05:46:20.000Z</time>
      </trkpt>
      <trkpt lat="42.295684" lon="-0.435937">
        <ele>1378.9</ele>
        <time>2018-07-22T05:46:21.000Z</time>
      </trkpt>
      <trkpt lat="42.295681" lon="-0.435941">
        <ele>1379.0</ele>
        <time>2018-07-22T05:46:22.000Z</time>
      </trkpt>
      <trkpt lat="42.29568" lon="-0.435941">
        <ele>1379.0</ele>
        <time>2018-07-22T05:46:23.000Z</time>
      </trkpt>
      <trkpt lat="42.29568" lon="-0.435941">
        <ele>1379.0</ele>
        <time>2018-07-22T05:46:24.000Z</time>
      </trkpt>
      <trkpt lat="42.295679" lon="-0.435942">
        <ele>1379.1</ele>
        <time>2018-07-22T05:46:25.000Z</time>
      </trkpt>
      <trkpt lat="42.295678" lon="-0.435943">
        <ele>1379.1</ele>
        <time>2018-07-22T05:46:26.000Z</time>
      </trkpt>
      <trkpt lat="42.295677" lon="-0.435944">
        <ele>1379.2</ele>
        <time>2018-07-22T05:46:27.000Z</time>
      </trkpt>
      <trkpt lat="42.295675" lon="-0.435945">
        <ele>1379.2</ele>
        <time>2018-07-22T05:46:28.000Z</time>
      </trkpt>
      <trkpt lat="42.295674" lon="-0.435947">
        <ele>1379.3</ele>
        <time>2018-07-22T05:46:29.000Z</time>
      </trkpt>
      <trkpt lat="42.295672" lon="-0.435949">
        <ele>1379.4</ele>
        <time>2018-07-22T05:46:30.000Z</time>
      </trkpt>
      <trkpt lat="42.29567" lon="-0.43595">
        <ele>1379.4</ele>
        <time>2018-07-22T05:46:31.000Z</time>
      </trkpt>
      <trkpt lat="42.295668" lon="-0.435951">
        <ele>1379.5</ele>
        <time>2018-07-22T05:46:32.000Z</time>
      </trkpt>
      <trkpt lat="42.295666" lon="-0.435952">
        <ele>1379.6</ele>
        <time>2018-07-22T05:46:33.000Z</time>
      </trkpt>
      <trkpt lat="42.295664" lon="-0.435952">
        <ele>1379.6</ele>
        <time>2018-07-22T05:46:34.000Z</time>
      </trkpt>
      <trkpt lat="42.295662" lon="-0.435953">
        <ele>1379.7</ele>
        <time>2018-07-22T05:46:35.000Z</time>
      </trkpt>
      <trkpt lat="42.29566" lon="-0.435953">
        <ele>1379.7</ele>
        <time>2018-07-22T05:46:36.000Z</time>
      </trkpt>
      <trkpt lat="42.295659" lon="-0.435953">
        <ele>1379.8</ele>
        <time>2018-07-22T05:46:37.000Z</time>
      </trkpt>
      <trkpt lat="42.295657" lon="-0.435953">
        <ele>1379.8</ele>
        <time>2018-07-22T05:46:38.000Z</time>
      </trkpt>
      <trkpt lat="42.295656" lon="-0.435954">
        <ele>1379.8</ele>
        <time>2018-07-22T05:46:39.000Z</time>
      </trkpt>
      <trkpt lat="42.295655" lon="-0.435955">
        <ele>1379.9</ele>
        <time>2018-07-22T05:46:40.000Z</time>
      </trkpt>
      <trkpt lat="42.295654" lon="-0.435955">
        <ele>1379.9</ele>
        <time>2018-07-22T05:46:41.000Z</time>
      </trkpt>
      <trkpt lat="42.295653" lon="-0.435956">
        <ele>1380.0</ele>
        <time>2018-07-22T05:46:42.000Z</time>
      </trkpt>
      <trkpt lat="42.295651" lon="-0.435957">
        <ele>1380.0</ele>
        <time>2018-07-22T05:46:43.000Z</time>
      </trkpt>
      <trkpt lat="42.29565" lon="-0.435958">
        <ele>1380.1</ele>
        <time>2018-07-22T05:46:44.000Z</time>
      </trkpt>
      <trkpt lat="42.295648" lon="-0.43596">
        <ele>1380.1</ele>
        <time>2018-07-22T05:46:45.000Z</time>
      </trkpt>
      <trkpt lat="42.29564" lon="-0.435962">
        <ele>1380.4</ele>
        <time>2018-07-22T05:46:46.000Z</time>
      </trkpt>
      <trkpt lat="42.295636" lon="-0.435963">
        <ele>1380.5</ele>
        <time>2018-07-22T05:46:47.000Z</time>
      </trkpt>
      <trkpt lat="42.295636" lon="-0.435963">
        <ele>1380.5</ele>
        <time>2018-07-22T05:46:48.000Z</time>
      </trkpt>
      <trkpt lat="42.295632" lon="-0.435964">
        <ele>1380.6</ele>
        <time>2018-07-22T05:46:49.000Z</time>
      </trkpt>
      <trkpt lat="42.295624" lon="-0.435966">
        <ele>1380.9</ele>
        <time>2018-07-22T05:46:50.000Z</time>
      </trkpt>
      <trkpt lat="42.295617" lon="-0.435969">
        <ele>1381.1</ele>
        <time>2018-07-22T05:46:51.000Z</time>
      </trkpt>
      <trkpt lat="42.295611" lon="-0.435973">
        <ele>1381.3</ele>
        <time>2018-07-22T05:46:52.000Z</time>
      </trkpt>
      <trkpt lat="42.295607" lon="-0.435978">
        <ele>1381.5</ele>
        <time>2018-07-22T05:46:53.000Z</time>
      </trkpt>
      <trkpt lat="42.295605" lon="-0.435982">
        <ele>1381.6</ele>
        <time>2018-07-22T05:46:54.000Z</time>
      </trkpt>
      <trkpt lat="42.295603" lon="-0.435986">
        <ele>1381.7</ele>
        <time>2018-07-22T05:46:55.000Z</time>
      </trkpt>
      <trkpt lat="42.295601" lon="-0.435988">
        <ele>1381.8</ele>
        <time>2018-07-22T05:46:56.000Z</time>
      </trkpt>
      <trkpt lat="42.295599" lon="-0.43599">
        <ele>1381.9</ele>
        <time>2018-07-22T05:46:57.000Z</time>
      </trkpt>
      <trkpt lat="42.295598" lon="-0.435992">
        <ele>1381.9</ele>
        <time>2018-07-22T05:46:58.000Z</time>
      </trkpt>
      <trkpt lat="42.295597" lon="-0.435993">
        <ele>1382.0</ele>
        <time>2018-07-22T05:46:59.000Z</time>
      </trkpt>
      <trkpt lat="42.295597" lon="-0.435994">
        <ele>1382.0</ele>
        <time>2018-07-22T05:47:00.000Z</time>
      </trkpt>
      <trkpt lat="42.295596" lon="-0.435995">
        <ele>1382.0</ele>
        <time>2018-07-22T05:47:01.000Z</time>
      </trkpt>
      <trkpt lat="42.295596" lon="-0.435995">
        <ele>1382.0</ele>
        <time>2018-07-22T05:47:02.000Z</time>
      </trkpt>
      <trkpt lat="42.295595" lon="-0.435996">
        <ele>1382.1</ele>
        <time>2018-07-22T05:47:03.000Z</time>
      </trkpt>
      <trkpt lat="42.295595" lon="-0.435996">
        <ele>1382.1</ele>
        <time>2018-07-22T05:47:04.000Z</time>
      </trkpt>
      <trkpt lat="42.295595" lon="-0.435996">
        <ele>1382.1</ele>
        <time>2018-07-22T05:47:05.000Z</time>
      </trkpt>
      <trkpt lat="42.295595" lon="-0.435997">
        <ele>1382.1</ele>
        <time>2018-07-22T05:47:06.000Z</time>
      </trkpt>
      <trkpt lat="42.295594" lon="-0.435997">
        <ele>1382.1</ele>
        <time>2018-07-22T05:47:07.000Z</time>
      </trkpt>
      <trkpt lat="42.295594" lon="-0.435998">
        <ele>1382.1</ele>
        <time>2018-07-22T05:47:08.000Z</time>
      </trkpt>
      <trkpt lat="42.295593" lon="-0.435998">
        <ele>1382.1</ele>
        <time>2018-07-22T05:47:09.000Z</time>
      </trkpt>
      <trkpt lat="42.295593" lon="-0.435999">
        <ele>1382.2</ele>
        <time>2018-07-22T05:47:10.000Z</time>
      </trkpt>
      <trkpt lat="42.295592" lon="-0.436">
        <ele>1382.2</ele>
        <time>2018-07-22T05:47:11.000Z</time>
      </trkpt>
      <trkpt lat="42.295591" lon="-0.436002">
        <ele>1382.3</ele>
        <time>2018-07-22T05:47:12.000Z</time>
      </trkpt>
      <trkpt lat="42.295591" lon="-0.436003">
        <ele>1382.3</ele>
        <time>2018-07-22T05:47:13.000Z</time>
      </trkpt>
      <trkpt lat="42.29559" lon="-0.436004">
        <ele>1382.3</ele>
        <time>2018-07-22T05:47:14.000Z</time>
      </trkpt>
      <trkpt lat="42.295589" lon="-0.436005">
        <ele>1382.4</ele>
        <time>2018-07-22T05:47:15.000Z</time>
      </trkpt>
      <trkpt lat="42.295589" lon="-0.436006">
        <ele>1382.4</ele>
        <time>2018-07-22T05:47:16.000Z</time>
      </trkpt>
      <trkpt lat="42.295589" lon="-0.436006">
        <ele>1382.4</ele>
        <time>2018-07-22T05:47:17.000Z</time>
      </trkpt>
      <trkpt lat="42.295588" lon="-0.436007">
        <ele>1382.4</ele>
        <time>2018-07-22T05:47:18.000Z</time>
      </trkpt>
      <trkpt lat="42.295588" lon="-0.436008">
        <ele>1382.4</ele>
        <time>2018-07-22T05:47:19.000Z</time>
      </trkpt>
      <trkpt lat="42.295586" lon="-0.436011">
        <ele>1382.5</ele>
        <time>2018-07-22T05:47:20.000Z</time>
      </trkpt>
      <trkpt lat="42.295583" lon="-0.436016">
        <ele>1382.7</ele>
        <time>2018-07-22T05:47:21.000Z</time>
      </trkpt>
      <trkpt lat="42.29558" lon="-0.436021">
        <ele>1382.8</ele>
        <time>2018-07-22T05:47:22.000Z</time>
      </trkpt>
      <trkpt lat="42.295579" lon="-0.436024">
        <ele>1382.9</ele>
        <time>2018-07-22T05:47:23.000Z</time>
      </trkpt>
      <trkpt lat="42.295578" lon="-0.436027">
        <ele>1383.0</ele>
        <time>2018-07-22T05:47:24.000Z</time>
      </trkpt>
      <trkpt lat="42.295577" lon="-0.436028">
        <ele>1383.0</ele>
        <time>2018-07-22T05:47:25.000Z</time>
      </trkpt>
      <trkpt lat="42.295576" lon="-0.436029">
        <ele>1383.1</ele>
        <time>2018-07-22T05:47:26.000Z</time>
      </trkpt>
      <trkpt lat="42.295576" lon="-0.43603">
        <ele>1383.1</ele>
        <time>2018-07-22T05:47:27.000Z</time>
      </trkpt>
      <trkpt lat="42.295575" lon="-0.436032">
        <ele>1383.1</ele>
        <time>2018-07-22T05:47:28.000Z</time>
      </trkpt>
      <trkpt lat="42.295573" lon="-0.436034">
        <ele>1383.2</ele>
        <time>2018-07-22T05:47:29.000Z</time>
      </trkpt>
      <trkpt lat="42.295572" lon="-0.436036">
        <ele>1383.3</ele>
        <time>2018-07-22T05:47:30.000Z</time>
      </trkpt>
      <trkpt lat="42.295571" lon="-0.436039">
        <ele>1383.4</ele>
        <time>2018-07-22T05:47:31.000Z</time>
      </trkpt>
      <trkpt lat="42.29557" lon="-0.436041">
        <ele>1383.4</ele>
        <time>2018-07-22T05:47:32.000Z</time>
      </trkpt>
      <trkpt lat="42.295568" lon="-0.436043">
        <ele>1383.5</ele>
        <time>2018-07-22T05:47:33.000Z</time>
      </trkpt>
      <trkpt lat="42.295563" lon="-0.436044">
        <ele>1383.7</ele>
        <time>2018-07-22T05:47:34.000Z</time>
      </trkpt>
      <trkpt lat="42.295557" lon="-0.436044">
        <ele>1383.8</ele>
        <time>2018-07-22T05:47:35.000Z</time>
      </trkpt>
      <trkpt lat="42.29555" lon="-0.436043">
        <ele>1384.0</ele>
        <time>2018-07-22T05:47:36.000Z</time>
      </trkpt>
      <trkpt lat="42.295544" lon="-0.436042">
        <ele>1384.2</ele>
        <time>2018-07-22T05:47:37.000Z</time>
      </trkpt>
      <trkpt lat="42.29554" lon="-0.436042">
        <ele>1384.3</ele>
        <time>2018-07-22T05:47:38.000Z</time>
      </trkpt>
      <trkpt lat="42.295537" lon="-0.436041">
        <ele>1384.3</ele>
        <time>2018-07-22T05:47:39.000Z</time>
      </trkpt>
      <trkpt lat="42.295534" lon="-0.436041">
        <ele>1384.4</ele>
        <time>2018-07-22T05:47:40.000Z</time>
      </trkpt>
      <trkpt lat="42.295531" lon="-0.436041">
        <ele>1384.5</ele>
        <time>2018-07-22T05:47:41.000Z</time>
      </trkpt>
      <trkpt lat="42.295529" lon="-0.436041">
        <ele>1384.6</ele>
        <time>2018-07-22T05:47:42.000Z</time>
      </trkpt>
      <trkpt lat="42.295527" lon="-0.43604">
        <ele>1384.6</ele>
        <time>2018-07-22T05:47:43.000Z</time>
      </trkpt>
      <trkpt lat="42.295525" lon="-0.43604">
        <ele>1384.7</ele>
        <time>2018-07-22T05:47:44.000Z</time>
      </trkpt>
      <trkpt lat="42.295523" lon="-0.436039">
        <ele>1384.7</ele>
        <time>2018-07-22T05:47:45.000Z</time>
      </trkpt>
      <trkpt lat="42.295522" lon="-0.436039">
        <ele>1384.7</ele>
        <time>2018-07-22T05:47:46.000Z</time>
      </trkpt>
      <trkpt lat="42.29552" lon="-0.436039">
        <ele>1384.8</ele>
        <time>2018-07-22T05:47:47.000Z</time>
      </trkpt>
      <trkpt lat="42.295518" lon="-0.436039">
        <ele>1384.8</ele>
        <time>2018-07-22T05:47:48.000Z</time>
      </trkpt>
      <trkpt lat="42.295515" lon="-0.436039">
        <ele>1384.9</ele>
        <time>2018-07-22T05:47:49.000Z</time>
      </trkpt>
      <trkpt lat="42.295512" lon="-0.43604">
        <ele>1385.0</ele>
        <time>2018-07-22T05:47:50.000Z</time>
      </trkpt>
      <trkpt lat="42.295509" lon="-0.43604">
        <ele>1385.1</ele>
        <time>2018-07-22T05:47:51.000Z</time>
      </trkpt>
      <trkpt lat="42.295506" lon="-0.436039">
        <ele>1385.2</ele>
        <time>2018-07-22T05:47:52.000Z</time>
      </trkpt>
      <trkpt lat="42.295501" lon="-0.43604">
        <ele>1385.3</ele>
        <time>2018-07-22T05:47:53.000Z</time>
      </trkpt>
      <trkpt lat="42.295496" lon="-0.43604">
        <ele>1385.5</ele>
        <time>2018-07-22T05:47:54.000Z</time>
      </trkpt>
      <trkpt lat="42.295492" lon="-0.436039">
        <ele>1385.6</ele>
        <time>2018-07-22T05:47:55.000Z</time>
      </trkpt>
      <trkpt lat="42.295489" lon="-0.436039">
        <ele>1385.7</ele>
        <time>2018-07-22T05:47:56.000Z</time>
      </trkpt>
      <trkpt lat="42.295487" lon="-0.436038">
        <ele>1385.7</ele>
        <time>2018-07-22T05:47:57.000Z</time>
      </trkpt>
      <trkpt lat="42.295485" lon="-0.436038">
        <ele>1385.8</ele>
        <time>2018-07-22T05:47:58.000Z</time>
      </trkpt>
      <trkpt lat="42.295482" lon="-0.436037">
        <ele>1385.8</ele>
        <time>2018-07-22T05:47:59.000Z</time>
      </trkpt>
      <trkpt lat="42.29548" lon="-0.436037">
        <ele>1385.9</ele>
        <time>2018-07-22T05:48:00.000Z</time>
      </trkpt>
      <trkpt lat="42.295477" lon="-0.436037">
        <ele>1386.0</ele>
        <time>2018-07-22T05:48:01.000Z</time>
      </trkpt>
      <trkpt lat="42.295475" lon="-0.436037">
        <ele>1386.0</ele>
        <time>2018-07-22T05:48:02.000Z</time>
      </trkpt>
      <trkpt lat="42.295473" lon="-0.436037">
        <ele>1386.1</ele>
        <time>2018-07-22T05:48:03.000Z</time>
      </trkpt>
      <trkpt lat="42.295469" lon="-0.436038">
        <ele>1386.2</ele>
        <time>2018-07-22T05:48:04.000Z</time>
      </trkpt>
      <trkpt lat="42.29546" lon="-0.436041">
        <ele>1386.5</ele>
        <time>2018-07-22T05:48:05.000Z</time>
      </trkpt>
      <trkpt lat="42.295453" lon="-0.436045">
        <ele>1386.8</ele>
        <time>2018-07-22T05:48:06.000Z</time>
      </trkpt>
      <trkpt lat="42.295446" lon="-0.436047">
        <ele>1387.0</ele>
        <time>2018-07-22T05:48:07.000Z</time>
      </trkpt>
      <trkpt lat="42.295444" lon="-0.436047">
        <ele>1387.1</ele>
        <time>2018-07-22T05:48:08.000Z</time>
      </trkpt>
      <trkpt lat="42.295443" lon="-0.436048">
        <ele>1387.1</ele>
        <time>2018-07-22T05:48:09.000Z</time>
      </trkpt>
      <trkpt lat="42.295442" lon="-0.436048">
        <ele>1387.1</ele>
        <time>2018-07-22T05:48:10.000Z</time>
      </trkpt>
      <trkpt lat="42.295442" lon="-0.436048">
        <ele>1387.1</ele>
        <time>2018-07-22T05:48:11.000Z</time>
      </trkpt>
      <trkpt lat="42.295441" lon="-0.436048">
        <ele>1387.2</ele>
        <time>2018-07-22T05:48:12.000Z</time>
      </trkpt>
      <trkpt lat="42.295439" lon="-0.436048">
        <ele>1387.2</ele>
        <time>2018-07-22T05:48:13.000Z</time>
      </trkpt>
      <trkpt lat="42.295438" lon="-0.436048">
        <ele>1387.3</ele>
        <time>2018-07-22T05:48:14.000Z</time>
      </trkpt>
      <trkpt lat="42.295435" lon="-0.436048">
        <ele>1387.3</ele>
        <time>2018-07-22T05:48:15.000Z</time>
      </trkpt>
      <trkpt lat="42.295432" lon="-0.436049">
        <ele>1387.4</ele>
        <time>2018-07-22T05:48:16.000Z</time>
      </trkpt>
      <trkpt lat="42.295429" lon="-0.43605">
        <ele>1387.6</ele>
        <time>2018-07-22T05:48:17.000Z</time>
      </trkpt>
      <trkpt lat="42.295425" lon="-0.436051">
        <ele>1387.7</ele>
        <time>2018-07-22T05:48:18.000Z</time>
      </trkpt>
      <trkpt lat="42.295421" lon="-0.436053">
        <ele>1387.8</ele>
        <time>2018-07-22T05:48:19.000Z</time>
      </trkpt>
      <trkpt lat="42.295418" lon="-0.436055">
        <ele>1388.0</ele>
        <time>2018-07-22T05:48:20.000Z</time>
      </trkpt>
      <trkpt lat="42.295415" lon="-0.436057">
        <ele>1388.1</ele>
        <time>2018-07-22T05:48:21.000Z</time>
      </trkpt>
      <trkpt lat="42.295413" lon="-0.436058">
        <ele>1388.1</ele>
        <time>2018-07-22T05:48:22.000Z</time>
      </trkpt>
      <trkpt lat="42.29541" lon="-0.436058">
        <ele>1388.2</ele>
        <time>2018-07-22T05:48:23.000Z</time>
      </trkpt>
      <trkpt lat="42.295404" lon="-0.436058">
        <ele>1388.4</ele>
        <time>2018-07-22T05:48:24.000Z</time>
      </trkpt>
      <trkpt lat="42.2954" lon="-0.436058">
        <ele>1388.5</ele>
        <time>2018-07-22T05:48:25.000Z</time>
      </trkpt>
      <trkpt lat="42.295396" lon="-0.436058">
        <ele>1388.6</ele>
        <time>2018-07-22T05:48:26.000Z</time>
      </trkpt>
      <trkpt lat="42.295392" lon="-0.436058">
        <ele>1388.7</ele>
        <time>2018-07-22T05:48:27.000Z</time>
      </trkpt>
      <trkpt lat="42.295388" lon="-0.436058">
        <ele>1388.9</ele>
        <time>2018-07-22T05:48:28.000Z</time>
      </trkpt>
      <trkpt lat="42.295385" lon="-0.436058">
        <ele>1388.9</ele>
        <time>2018-07-22T05:48:29.000Z</time>
      </trkpt>
      <trkpt lat="42.295383" lon="-0.436057">
        <ele>1389.0</ele>
        <time>2018-07-22T05:48:30.000Z</time>
      </trkpt>
      <trkpt lat="42.295382" lon="-0.436057">
        <ele>1389.0</ele>
        <time>2018-07-22T05:48:31.000Z</time>
      </trkpt>
      <trkpt lat="42.295381" lon="-0.436057">
        <ele>1389.0</ele>
        <time>2018-07-22T05:48:32.000Z</time>
      </trkpt>
      <trkpt lat="42.295379" lon="-0.436057">
        <ele>1389.1</ele>
        <time>2018-07-22T05:48:33.000Z</time>
      </trkpt>
      <trkpt lat="42.295377" lon="-0.436056">
        <ele>1389.1</ele>
        <time>2018-07-22T05:48:34.000Z</time>
      </trkpt>
      <trkpt lat="42.295374" lon="-0.436055">
        <ele>1389.2</ele>
        <time>2018-07-22T05:48:35.000Z</time>
      </trkpt>
      <trkpt lat="42.295369" lon="-0.436056">
        <ele>1389.4</ele>
        <time>2018-07-22T05:48:36.000Z</time>
      </trkpt>
      <trkpt lat="42.295362" lon="-0.436056">
        <ele>1389.6</ele>
        <time>2018-07-22T05:48:37.000Z</time>
      </trkpt>
      <trkpt lat="42.295356" lon="-0.436056">
        <ele>1389.7</ele>
        <time>2018-07-22T05:48:38.000Z</time>
      </trkpt>
      <trkpt lat="42.29535" lon="-0.436055">
        <ele>1389.9</ele>
        <time>2018-07-22T05:48:39.000Z</time>
      </trkpt>
      <trkpt lat="42.295346" lon="-0.436055">
        <ele>1390.0</ele>
        <time>2018-07-22T05:48:40.000Z</time>
      </trkpt>
      <trkpt lat="42.295342" lon="-0.436055">
        <ele>1390.1</ele>
        <time>2018-07-22T05:48:41.000Z</time>
      </trkpt>
      <trkpt lat="42.295339" lon="-0.436056">
        <ele>1390.2</ele>
        <time>2018-07-22T05:48:42.000Z</time>
      </trkpt>
      <trkpt lat="42.295336" lon="-0.436056">
        <ele>1390.3</ele>
        <time>2018-07-22T05:48:43.000Z</time>
      </trkpt>
      <trkpt lat="42.295334" lon="-0.436056">
        <ele>1390.4</ele>
        <time>2018-07-22T05:48:44.000Z</time>
      </trkpt>
      <trkpt lat="42.295332" lon="-0.436057">
        <ele>1390.4</ele>
        <time>2018-07-22T05:48:45.000Z</time>
      </trkpt>
      <trkpt lat="42.295329" lon="-0.436058">
        <ele>1390.5</ele>
        <time>2018-07-22T05:48:46.000Z</time>
      </trkpt>
      <trkpt lat="42.295327" lon="-0.436058">
        <ele>1390.6</ele>
        <time>2018-07-22T05:48:47.000Z</time>
      </trkpt>
      <trkpt lat="42.295324" lon="-0.436059">
        <ele>1390.7</ele>
        <time>2018-07-22T05:48:48.000Z</time>
      </trkpt>
      <trkpt lat="42.295321" lon="-0.43606">
        <ele>1390.8</ele>
        <time>2018-07-22T05:48:49.000Z</time>
      </trkpt>
      <trkpt lat="42.295318" lon="-0.436062">
        <ele>1390.9</ele>
        <time>2018-07-22T05:48:50.000Z</time>
      </trkpt>
      <trkpt lat="42.295315" lon="-0.436064">
        <ele>1391.1</ele>
        <time>2018-07-22T05:48:51.000Z</time>
      </trkpt>
      <trkpt lat="42.295309" lon="-0.436069">
        <ele>1391.3</ele>
        <time>2018-07-22T05:48:52.000Z</time>
      </trkpt>
      <trkpt lat="42.295297" lon="-0.436076">
        <ele>1391.8</ele>
        <time>2018-07-22T05:48:53.000Z</time>
      </trkpt>
      <trkpt lat="42.295295" lon="-0.436078">
        <ele>1391.9</ele>
        <time>2018-07-22T05:48:54.000Z</time>
      </trkpt>
      <trkpt lat="42.295294" lon="-0.436078">
        <ele>1392.0</ele>
        <time>2018-07-22T05:48:55.000Z</time>
      </trkpt>
      <trkpt lat="42.295291" lon="-0.43608">
        <ele>1392.1</ele>
        <time>2018-07-22T05:48:56.000Z</time>
      </trkpt>
      <trkpt lat="42.295289" lon="-0.436081">
        <ele>1392.2</ele>
        <time>2018-07-22T05:48:57.000Z</time>
      </trkpt>
      <trkpt lat="42.295286" lon="-0.436082">
        <ele>1392.3</ele>
        <time>2018-07-22T05:48:58.000Z</time>
      </trkpt>
      <trkpt lat="42.295281" lon="-0.436089">
        <ele>1392.6</ele>
        <time>2018-07-22T05:48:59.000Z</time>
      </trkpt>
      <trkpt lat="42.295276" lon="-0.436093">
        <ele>1392.8</ele>
        <time>2018-07-22T05:49:00.000Z</time>
      </trkpt>
      <trkpt lat="42.295274" lon="-0.436095">
        <ele>1392.9</ele>
        <time>2018-07-22T05:49:01.000Z</time>
      </trkpt>
      <trkpt lat="42.295274" lon="-0.436095">
        <ele>1392.9</ele>
        <time>2018-07-22T05:49:02.000Z</time>
      </trkpt>
      <trkpt lat="42.295273" lon="-0.436096">
        <ele>1392.9</ele>
        <time>2018-07-22T05:49:03.000Z</time>
      </trkpt>
      <trkpt lat="42.295273" lon="-0.436096">
        <ele>1392.9</ele>
        <time>2018-07-22T05:49:04.000Z</time>
      </trkpt>
      <trkpt lat="42.295271" lon="-0.436097">
        <ele>1393.0</ele>
        <time>2018-07-22T05:49:05.000Z</time>
      </trkpt>
      <trkpt lat="42.29527" lon="-0.436098">
        <ele>1393.1</ele>
        <time>2018-07-22T05:49:06.000Z</time>
      </trkpt>
      <trkpt lat="42.295269" lon="-0.436099">
        <ele>1393.1</ele>
        <time>2018-07-22T05:49:07.000Z</time>
      </trkpt>
      <trkpt lat="42.295268" lon="-0.436101">
        <ele>1393.2</ele>
        <time>2018-07-22T05:49:08.000Z</time>
      </trkpt>
      <trkpt lat="42.295267" lon="-0.436101">
        <ele>1393.2</ele>
        <time>2018-07-22T05:49:09.000Z</time>
      </trkpt>
      <trkpt lat="42.295266" lon="-0.436102">
        <ele>1393.3</ele>
        <time>2018-07-22T05:49:10.000Z</time>
      </trkpt>
      <trkpt lat="42.295265" lon="-0.436102">
        <ele>1393.3</ele>
        <time>2018-07-22T05:49:11.000Z</time>
      </trkpt>
      <trkpt lat="42.295265" lon="-0.436103">
        <ele>1393.3</ele>
        <time>2018-07-22T05:49:12.000Z</time>
      </trkpt>
      <trkpt lat="42.295265" lon="-0.436103">
        <ele>1393.3</ele>
        <time>2018-07-22T05:49:13.000Z</time>
      </trkpt>
      <trkpt lat="42.295264" lon="-0.436103">
        <ele>1393.3</ele>
        <time>2018-07-22T05:49:14.000Z</time>
      </trkpt>
      <trkpt lat="42.295264" lon="-0.436103">
        <ele>1393.3</ele>
        <time>2018-07-22T05:49:15.000Z</time>
      </trkpt>
      <trkpt lat="42.295264" lon="-0.436103">
        <ele>1393.3</ele>
        <time>2018-07-22T05:49:16.000Z</time>
      </trkpt>
      <trkpt lat="42.295264" lon="-0.436103">
        <ele>1393.3</ele>
        <time>2018-07-22T05:49:17.000Z</time>
      </trkpt>
      <trkpt lat="42.295264" lon="-0.436103">
        <ele>1393.3</ele>
        <time>2018-07-22T05:49:18.000Z</time>
      </trkpt>
      <trkpt lat="42.295265" lon="-0.436103">
        <ele>1393.3</ele>
        <time>2018-07-22T05:49:19.000Z</time>
      </trkpt>
      <trkpt lat="42.295265" lon="-0.436103">
        <ele>1393.3</ele>
        <time>2018-07-22T05:49:20.000Z</time>
      </trkpt>
      <trkpt lat="42.295265" lon="-0.436103">
        <ele>1393.3</ele>
        <time>2018-07-22T05:49:21.000Z</time>
      </trkpt>
      <trkpt lat="42.295265" lon="-0.436103">
        <ele>1393.3</ele>
        <time>2018-07-22T05:49:22.000Z</time>
      </trkpt>
      <trkpt lat="42.295265" lon="-0.436103">
        <ele>1393.3</ele>
        <time>2018-07-22T05:49:23.000Z</time>
      </trkpt>
      <trkpt lat="42.295265" lon="-0.436103">
        <ele>1393.3</ele>
        <time>2018-07-22T05:49:24.000Z</time>
      </trkpt>
      <trkpt lat="42.295265" lon="-0.436103">
        <ele>1393.3</ele>
        <time>2018-07-22T05:49:25.000Z</time>
      </trkpt>
      <trkpt lat="42.295265" lon="-0.436103">
        <ele>1393.3</ele>
        <time>2018-07-22T05:49:26.000Z</time>
      </trkpt>
      <trkpt lat="42.295265" lon="-0.436103">
        <ele>1393.3</ele>
        <time>2018-07-22T05:49:27.000Z</time>
      </trkpt>
      <trkpt lat="42.295265" lon="-0.436103">
        <ele>1393.3</ele>
        <time>2018-07-22T05:49:28.000Z</time>
      </trkpt>
      <trkpt lat="42.295264" lon="-0.436103">
        <ele>1393.3</ele>
        <time>2018-07-22T05:49:29.000Z</time>
      </trkpt>
      <trkpt lat="42.295264" lon="-0.436103">
        <ele>1393.3</ele>
        <time>2018-07-22T05:49:30.000Z</time>
      </trkpt>
      <trkpt lat="42.295264" lon="-0.436103">
        <ele>1393.3</ele>
        <time>2018-07-22T05:49:31.000Z</time>
      </trkpt>
      <trkpt lat="42.295264" lon="-0.436103">
        <ele>1393.3</ele>
        <time>2018-07-22T05:49:32.000Z</time>
      </trkpt>
      <trkpt lat="42.295264" lon="-0.436104">
        <ele>1393.4</ele>
        <time>2018-07-22T05:49:33.000Z</time>
      </trkpt>
      <trkpt lat="42.295263" lon="-0.436105">
        <ele>1393.4</ele>
        <time>2018-07-22T05:49:34.000Z</time>
      </trkpt>
      <trkpt lat="42.295261" lon="-0.436107">
        <ele>1393.5</ele>
        <time>2018-07-22T05:49:35.000Z</time>
      </trkpt>
      <trkpt lat="42.295258" lon="-0.43611">
        <ele>1393.7</ele>
        <time>2018-07-22T05:49:36.000Z</time>
      </trkpt>
      <trkpt lat="42.295255" lon="-0.436114">
        <ele>1393.8</ele>
        <time>2018-07-22T05:49:37.000Z</time>
      </trkpt>
      <trkpt lat="42.295252" lon="-0.436118">
        <ele>1394.0</ele>
        <time>2018-07-22T05:49:38.000Z</time>
      </trkpt>
      <trkpt lat="42.295249" lon="-0.436121">
        <ele>1394.2</ele>
        <time>2018-07-22T05:49:39.000Z</time>
      </trkpt>
      <trkpt lat="42.295247" lon="-0.436123">
        <ele>1394.3</ele>
        <time>2018-07-22T05:49:40.000Z</time>
      </trkpt>
      <trkpt lat="42.29524" lon="-0.436128">
        <ele>1394.6</ele>
        <time>2018-07-22T05:49:41.000Z</time>
      </trkpt>
      <trkpt lat="42.295236" lon="-0.436135">
        <ele>1394.9</ele>
        <time>2018-07-22T05:49:42.000Z</time>
      </trkpt>
      <trkpt lat="42.295235" lon="-0.436142">
        <ele>1395.0</ele>
        <time>2018-07-22T05:49:43.000Z</time>
      </trkpt>
      <trkpt lat="42.295233" lon="-0.436149">
        <ele>1395.3</ele>
        <time>2018-07-22T05:49:44.000Z</time>
      </trkpt>
      <trkpt lat="42.295232" lon="-0.436154">
        <ele>1395.4</ele>
        <time>2018-07-22T05:49:45.000Z</time>
      </trkpt>
      <trkpt lat="42.295232" lon="-0.436158">
        <ele>1395.5</ele>
        <time>2018-07-22T05:49:46.000Z</time>
      </trkpt>
      <trkpt lat="42.295231" lon="-0.43616">
        <ele>1395.6</ele>
        <time>2018-07-22T05:49:47.000Z</time>
      </trkpt>
      <trkpt lat="42.29523" lon="-0.436162">
        <ele>1395.6</ele>
        <time>2018-07-22T05:49:48.000Z</time>
      </trkpt>
      <trkpt lat="42.295229" lon="-0.436163">
        <ele>1395.7</ele>
        <time>2018-07-22T05:49:49.000Z</time>
      </trkpt>
      <trkpt lat="42.295227" lon="-0.436165">
        <ele>1395.8</ele>
        <time>2018-07-22T05:49:50.000Z</time>
      </trkpt>
      <trkpt lat="42.295225" lon="-0.436166">
        <ele>1395.9</ele>
        <time>2018-07-22T05:49:51.000Z</time>
      </trkpt>
      <trkpt lat="42.295223" lon="-0.436167">
        <ele>1396.0</ele>
        <time>2018-07-22T05:49:52.000Z</time>
      </trkpt>
      <trkpt lat="42.295222" lon="-0.436169">
        <ele>1396.0</ele>
        <time>2018-07-22T05:49:53.000Z</time>
      </trkpt>
      <trkpt lat="42.295221" lon="-0.436171">
        <ele>1396.1</ele>
        <time>2018-07-22T05:49:54.000Z</time>
      </trkpt>
      <trkpt lat="42.29522" lon="-0.436173">
        <ele>1396.2</ele>
        <time>2018-07-22T05:49:55.000Z</time>
      </trkpt>
      <trkpt lat="42.295219" lon="-0.436175">
        <ele>1396.3</ele>
        <time>2018-07-22T05:49:56.000Z</time>
      </trkpt>
      <trkpt lat="42.295218" lon="-0.436178">
        <ele>1396.4</ele>
        <time>2018-07-22T05:49:57.000Z</time>
      </trkpt>
      <trkpt lat="42.295217" lon="-0.436182">
        <ele>1396.5</ele>
        <time>2018-07-22T05:49:58.000Z</time>
      </trkpt>
      <trkpt lat="42.295215" lon="-0.436185">
        <ele>1396.6</ele>
        <time>2018-07-22T05:49:59.000Z</time>
      </trkpt>
      <trkpt lat="42.295212" lon="-0.436187">
        <ele>1396.7</ele>
        <time>2018-07-22T05:50:00.000Z</time>
      </trkpt>
      <trkpt lat="42.295204" lon="-0.436191">
        <ele>1397.1</ele>
        <time>2018-07-22T05:50:01.000Z</time>
      </trkpt>
      <trkpt lat="42.295196" lon="-0.436194">
        <ele>1397.4</ele>
        <time>2018-07-22T05:50:02.000Z</time>
      </trkpt>
      <trkpt lat="42.295188" lon="-0.436194">
        <ele>1397.6</ele>
        <time>2018-07-22T05:50:03.000Z</time>
      </trkpt>
      <trkpt lat="42.295183" lon="-0.436193">
        <ele>1397.8</ele>
        <time>2018-07-22T05:50:04.000Z</time>
      </trkpt>
      <trkpt lat="42.29518" lon="-0.436192">
        <ele>1397.8</ele>
        <time>2018-07-22T05:50:05.000Z</time>
      </trkpt>
      <trkpt lat="42.295177" lon="-0.436191">
        <ele>1397.9</ele>
        <time>2018-07-22T05:50:06.000Z</time>
      </trkpt>
      <trkpt lat="42.295172" lon="-0.43619">
        <ele>1398.1</ele>
        <time>2018-07-22T05:50:07.000Z</time>
      </trkpt>
      <trkpt lat="42.29516" lon="-0.43619">
        <ele>1398.4</ele>
        <time>2018-07-22T05:50:08.000Z</time>
      </trkpt>
      <trkpt lat="42.29515" lon="-0.436192">
        <ele>1398.8</ele>
        <time>2018-07-22T05:50:09.000Z</time>
      </trkpt>
      <trkpt lat="42.295144" lon="-0.436196">
        <ele>1399.1</ele>
        <time>2018-07-22T05:50:10.000Z</time>
      </trkpt>
      <trkpt lat="42.295141" lon="-0.436199">
        <ele>1399.2</ele>
        <time>2018-07-22T05:50:11.000Z</time>
      </trkpt>
      <trkpt lat="42.295139" lon="-0.4362">
        <ele>1399.3</ele>
        <time>2018-07-22T05:50:12.000Z</time>
      </trkpt>
      <trkpt lat="42.295139" lon="-0.436201">
        <ele>1399.3</ele>
        <time>2018-07-22T05:50:13.000Z</time>
      </trkpt>
      <trkpt lat="42.295137" lon="-0.436201">
        <ele>1399.4</ele>
        <time>2018-07-22T05:50:14.000Z</time>
      </trkpt>
      <trkpt lat="42.295136" lon="-0.436203">
        <ele>1399.5</ele>
        <time>2018-07-22T05:50:15.000Z</time>
      </trkpt>
      <trkpt lat="42.295134" lon="-0.436205">
        <ele>1399.6</ele>
        <time>2018-07-22T05:50:16.000Z</time>
      </trkpt>
      <trkpt lat="42.295132" lon="-0.436206">
        <ele>1399.7</ele>
        <time>2018-07-22T05:50:17.000Z</time>
      </trkpt>
      <trkpt lat="42.29513" lon="-0.436208">
        <ele>1399.8</ele>
        <time>2018-07-22T05:50:18.000Z</time>
      </trkpt>
      <trkpt lat="42.295128" lon="-0.43621">
        <ele>1399.9</ele>
        <time>2018-07-22T05:50:19.000Z</time>
      </trkpt>
      <trkpt lat="42.295127" lon="-0.436211">
        <ele>1400.0</ele>
        <time>2018-07-22T05:50:20.000Z</time>
      </trkpt>
      <trkpt lat="42.295126" lon="-0.436212">
        <ele>1400.0</ele>
        <time>2018-07-22T05:50:21.000Z</time>
      </trkpt>
      <trkpt lat="42.295125" lon="-0.436213">
        <ele>1400.1</ele>
        <time>2018-07-22T05:50:22.000Z</time>
      </trkpt>
      <trkpt lat="42.295124" lon="-0.436214">
        <ele>1400.1</ele>
        <time>2018-07-22T05:50:23.000Z</time>
      </trkpt>
      <trkpt lat="42.295123" lon="-0.436214">
        <ele>1400.2</ele>
        <time>2018-07-22T05:50:24.000Z</time>
      </trkpt>
      <trkpt lat="42.295122" lon="-0.436215">
        <ele>1400.2</ele>
        <time>2018-07-22T05:50:25.000Z</time>
      </trkpt>
      <trkpt lat="42.29512" lon="-0.436216">
        <ele>1400.3</ele>
        <time>2018-07-22T05:50:26.000Z</time>
      </trkpt>
      <trkpt lat="42.29512" lon="-0.436216">
        <ele>1400.3</ele>
        <time>2018-07-22T05:50:27.000Z</time>
      </trkpt>
      <trkpt lat="42.295116" lon="-0.436216">
        <ele>1400.4</ele>
        <time>2018-07-22T05:50:28.000Z</time>
      </trkpt>
      <trkpt lat="42.295109" lon="-0.436216">
        <ele>1400.6</ele>
        <time>2018-07-22T05:50:29.000Z</time>
      </trkpt>
      <trkpt lat="42.295102" lon="-0.436215">
        <ele>1400.8</ele>
        <time>2018-07-22T05:50:30.000Z</time>
      </trkpt>
      <trkpt lat="42.295098" lon="-0.436215">
        <ele>1401.0</ele>
        <time>2018-07-22T05:50:31.000Z</time>
      </trkpt>
      <trkpt lat="42.295097" lon="-0.436215">
        <ele>1401.0</ele>
        <time>2018-07-22T05:50:32.000Z</time>
      </trkpt>
      <trkpt lat="42.295097" lon="-0.436215">
        <ele>1401.0</ele>
        <time>2018-07-22T05:50:33.000Z</time>
      </trkpt>
      <trkpt lat="42.295097" lon="-0.436215">
        <ele>1401.0</ele>
        <time>2018-07-22T05:50:34.000Z</time>
      </trkpt>
      <trkpt lat="42.295097" lon="-0.436215">
        <ele>1401.0</ele>
        <time>2018-07-22T05:50:35.000Z</time>
      </trkpt>
      <trkpt lat="42.295096" lon="-0.436215">
        <ele>1401.0</ele>
        <time>2018-07-22T05:50:36.000Z</time>
      </trkpt>
      <trkpt lat="42.295096" lon="-0.436215">
        <ele>1401.0</ele>
        <time>2018-07-22T05:50:37.000Z</time>
      </trkpt>
      <trkpt lat="42.295095" lon="-0.436215">
        <ele>1401.1</ele>
        <time>2018-07-22T05:50:38.000Z</time>
      </trkpt>
      <trkpt lat="42.295093" lon="-0.436215">
        <ele>1401.1</ele>
        <time>2018-07-22T05:50:39.000Z</time>
      </trkpt>
      <trkpt lat="42.295092" lon="-0.436215">
        <ele>1401.2</ele>
        <time>2018-07-22T05:50:40.000Z</time>
      </trkpt>
      <trkpt lat="42.295091" lon="-0.436215">
        <ele>1401.2</ele>
        <time>2018-07-22T05:50:41.000Z</time>
      </trkpt>
      <trkpt lat="42.295089" lon="-0.436215">
        <ele>1401.3</ele>
        <time>2018-07-22T05:50:42.000Z</time>
      </trkpt>
      <trkpt lat="42.295088" lon="-0.436215">
        <ele>1401.3</ele>
        <time>2018-07-22T05:50:43.000Z</time>
      </trkpt>
      <trkpt lat="42.295086" lon="-0.436215">
        <ele>1401.4</ele>
        <time>2018-07-22T05:50:44.000Z</time>
      </trkpt>
      <trkpt lat="42.295085" lon="-0.436215">
        <ele>1401.4</ele>
        <time>2018-07-22T05:50:45.000Z</time>
      </trkpt>
      <trkpt lat="42.295083" lon="-0.436215">
        <ele>1401.4</ele>
        <time>2018-07-22T05:50:46.000Z</time>
      </trkpt>
      <trkpt lat="42.295082" lon="-0.436215">
        <ele>1401.5</ele>
        <time>2018-07-22T05:50:47.000Z</time>
      </trkpt>
      <trkpt lat="42.295081" lon="-0.436215">
        <ele>1401.5</ele>
        <time>2018-07-22T05:50:48.000Z</time>
      </trkpt>
      <trkpt lat="42.29508" lon="-0.436215">
        <ele>1401.5</ele>
        <time>2018-07-22T05:50:49.000Z</time>
      </trkpt>
      <trkpt lat="42.295079" lon="-0.436215">
        <ele>1401.6</ele>
        <time>2018-07-22T05:50:50.000Z</time>
      </trkpt>
      <trkpt lat="42.295078" lon="-0.436215">
        <ele>1401.6</ele>
        <time>2018-07-22T05:50:51.000Z</time>
      </trkpt>
      <trkpt lat="42.295077" lon="-0.436217">
        <ele>1401.7</ele>
        <time>2018-07-22T05:50:52.000Z</time>
      </trkpt>
      <trkpt lat="42.295076" lon="-0.436219">
        <ele>1401.8</ele>
        <time>2018-07-22T05:50:53.000Z</time>
      </trkpt>
      <trkpt lat="42.295075" lon="-0.436219">
        <ele>1401.8</ele>
        <time>2018-07-22T05:50:54.000Z</time>
      </trkpt>
      <trkpt lat="42.295073" lon="-0.436226">
        <ele>1402.0</ele>
        <time>2018-07-22T05:50:55.000Z</time>
      </trkpt>
      <trkpt lat="42.29507" lon="-0.436243">
        <ele>1402.6</ele>
        <time>2018-07-22T05:50:56.000Z</time>
      </trkpt>
      <trkpt lat="42.295068" lon="-0.43625">
        <ele>1402.8</ele>
        <time>2018-07-22T05:50:57.000Z</time>
      </trkpt>
      <trkpt lat="42.295066" lon="-0.436253">
        <ele>1402.9</ele>
        <time>2018-07-22T05:50:58.000Z</time>
      </trkpt>
      <trkpt lat="42.295065" lon="-0.436255">
        <ele>1403.0</ele>
        <time>2018-07-22T05:50:59.000Z</time>
      </trkpt>
      <trkpt lat="42.295064" lon="-0.436257">
        <ele>1403.1</ele>
        <time>2018-07-22T05:51:00.000Z</time>
      </trkpt>
      <trkpt lat="42.295063" lon="-0.436259">
        <ele>1403.2</ele>
        <time>2018-07-22T05:51:01.000Z</time>
      </trkpt>
      <trkpt lat="42.295063" lon="-0.43626">
        <ele>1403.2</ele>
        <time>2018-07-22T05:51:02.000Z</time>
      </trkpt>
      <trkpt lat="42.295062" lon="-0.436261">
        <ele>1403.3</ele>
        <time>2018-07-22T05:51:03.000Z</time>
      </trkpt>
      <trkpt lat="42.295062" lon="-0.436261">
        <ele>1403.3</ele>
        <time>2018-07-22T05:51:04.000Z</time>
      </trkpt>
      <trkpt lat="42.295062" lon="-0.436262">
        <ele>1403.3</ele>
        <time>2018-07-22T05:51:05.000Z</time>
      </trkpt>
      <trkpt lat="42.295062" lon="-0.436262">
        <ele>1403.3</ele>
        <time>2018-07-22T05:51:06.000Z</time>
      </trkpt>
      <trkpt lat="42.295062" lon="-0.436262">
        <ele>1403.3</ele>
        <time>2018-07-22T05:51:07.000Z</time>
      </trkpt>
      <trkpt lat="42.295062" lon="-0.436262">
        <ele>1403.3</ele>
        <time>2018-07-22T05:51:08.000Z</time>
      </trkpt>
      <trkpt lat="42.295062" lon="-0.436263">
        <ele>1403.3</ele>
        <time>2018-07-22T05:51:09.000Z</time>
      </trkpt>
      <trkpt lat="42.295061" lon="-0.436263">
        <ele>1403.4</ele>
        <time>2018-07-22T05:51:10.000Z</time>
      </trkpt>
      <trkpt lat="42.295061" lon="-0.436263">
        <ele>1403.4</ele>
        <time>2018-07-22T05:51:11.000Z</time>
      </trkpt>
      <trkpt lat="42.295061" lon="-0.436264">
        <ele>1403.4</ele>
        <time>2018-07-22T05:51:12.000Z</time>
      </trkpt>
      <trkpt lat="42.29506" lon="-0.436264">
        <ele>1403.4</ele>
        <time>2018-07-22T05:51:13.000Z</time>
      </trkpt>
      <trkpt lat="42.29506" lon="-0.436265">
        <ele>1403.4</ele>
        <time>2018-07-22T05:51:14.000Z</time>
      </trkpt>
      <trkpt lat="42.295059" lon="-0.436266">
        <ele>1403.5</ele>
        <time>2018-07-22T05:51:15.000Z</time>
      </trkpt>
      <trkpt lat="42.295059" lon="-0.436267">
        <ele>1403.5</ele>
        <time>2018-07-22T05:51:16.000Z</time>
      </trkpt>
      <trkpt lat="42.295058" lon="-0.436268">
        <ele>1403.6</ele>
        <time>2018-07-22T05:51:17.000Z</time>
      </trkpt>
      <trkpt lat="42.295057" lon="-0.436269">
        <ele>1403.6</ele>
        <time>2018-07-22T05:51:18.000Z</time>
      </trkpt>
      <trkpt lat="42.295056" lon="-0.436271">
        <ele>1403.7</ele>
        <time>2018-07-22T05:51:19.000Z</time>
      </trkpt>
      <trkpt lat="42.295055" lon="-0.436272">
        <ele>1403.8</ele>
        <time>2018-07-22T05:51:20.000Z</time>
      </trkpt>
      <trkpt lat="42.295053" lon="-0.436274">
        <ele>1403.9</ele>
        <time>2018-07-22T05:51:21.000Z</time>
      </trkpt>
      <trkpt lat="42.295052" lon="-0.436275">
        <ele>1403.9</ele>
        <time>2018-07-22T05:51:22.000Z</time>
      </trkpt>
      <trkpt lat="42.29505" lon="-0.436276">
        <ele>1404.0</ele>
        <time>2018-07-22T05:51:23.000Z</time>
      </trkpt>
      <trkpt lat="42.295048" lon="-0.436276">
        <ele>1404.1</ele>
        <time>2018-07-22T05:51:24.000Z</time>
      </trkpt>
      <trkpt lat="42.295044" lon="-0.436279">
        <ele>1404.3</ele>
        <time>2018-07-22T05:51:25.000Z</time>
      </trkpt>
      <trkpt lat="42.29504" lon="-0.43628">
        <ele>1404.5</ele>
        <time>2018-07-22T05:51:26.000Z</time>
      </trkpt>
      <trkpt lat="42.295037" lon="-0.436282">
        <ele>1404.6</ele>
        <time>2018-07-22T05:51:27.000Z</time>
      </trkpt>
      <trkpt lat="42.295034" lon="-0.436288">
        <ele>1404.9</ele>
        <time>2018-07-22T05:51:28.000Z</time>
      </trkpt>
      <trkpt lat="42.295032" lon="-0.436292">
        <ele>1405.0</ele>
        <time>2018-07-22T05:51:29.000Z</time>
      </trkpt>
      <trkpt lat="42.29503" lon="-0.436294">
        <ele>1405.2</ele>
        <time>2018-07-22T05:51:30.000Z</time>
      </trkpt>
      <trkpt lat="42.295029" lon="-0.436295">
        <ele>1405.2</ele>
        <time>2018-07-22T05:51:31.000Z</time>
      </trkpt>
      <trkpt lat="42.295028" lon="-0.436296">
        <ele>1405.3</ele>
        <time>2018-07-22T05:51:32.000Z</time>
      </trkpt>
      <trkpt lat="42.295027" lon="-0.436298">
        <ele>1405.4</ele>
        <time>2018-07-22T05:51:33.000Z</time>
      </trkpt>
      <trkpt lat="42.295027" lon="-0.436299">
        <ele>1405.4</ele>
        <time>2018-07-22T05:51:34.000Z</time>
      </trkpt>
      <trkpt lat="42.295026" lon="-0.4363">
        <ele>1405.5</ele>
        <time>2018-07-22T05:51:35.000Z</time>
      </trkpt>
      <trkpt lat="42.295024" lon="-0.436301">
        <ele>1405.5</ele>
        <time>2018-07-22T05:51:36.000Z</time>
      </trkpt>
      <trkpt lat="42.295023" lon="-0.436302">
        <ele>1405.6</ele>
        <time>2018-07-22T05:51:37.000Z</time>
      </trkpt>
      <trkpt lat="42.295022" lon="-0.436302">
        <ele>1405.6</ele>
        <time>2018-07-22T05:51:38.000Z</time>
      </trkpt>
      <trkpt lat="42.29502" lon="-0.436303">
        <ele>1405.7</ele>
        <time>2018-07-22T05:51:39.000Z</time>
      </trkpt>
      <trkpt lat="42.295019" lon="-0.436303">
        <ele>1405.8</ele>
        <time>2018-07-22T05:51:40.000Z</time>
      </trkpt>
      <trkpt lat="42.295017" lon="-0.436304">
        <ele>1405.9</ele>
        <time>2018-07-22T05:51:41.000Z</time>
      </trkpt>
      <trkpt lat="42.295016" lon="-0.436304">
        <ele>1405.9</ele>
        <time>2018-07-22T05:51:42.000Z</time>
      </trkpt>
      <trkpt lat="42.295014" lon="-0.436305">
        <ele>1406.0</ele>
        <time>2018-07-22T05:51:43.000Z</time>
      </trkpt>
      <trkpt lat="42.295013" lon="-0.436305">
        <ele>1406.0</ele>
        <time>2018-07-22T05:51:44.000Z</time>
      </trkpt>
      <trkpt lat="42.295011" lon="-0.436306">
        <ele>1406.1</ele>
        <time>2018-07-22T05:51:45.000Z</time>
      </trkpt>
      <trkpt lat="42.295009" lon="-0.436306">
        <ele>1406.2</ele>
        <time>2018-07-22T05:51:46.000Z</time>
      </trkpt>
      <trkpt lat="42.295008" lon="-0.436307">
        <ele>1406.2</ele>
        <time>2018-07-22T05:51:47.000Z</time>
      </trkpt>
      <trkpt lat="42.295005" lon="-0.436308">
        <ele>1406.4</ele>
        <time>2018-07-22T05:51:48.000Z</time>
      </trkpt>
      <trkpt lat="42.294999" lon="-0.43631">
        <ele>1406.6</ele>
        <time>2018-07-22T05:51:49.000Z</time>
      </trkpt>
      <trkpt lat="42.294995" lon="-0.436312">
        <ele>1406.6</ele>
        <time>2018-07-22T05:51:50.000Z</time>
      </trkpt>
      <trkpt lat="42.294991" lon="-0.436313">
        <ele>1406.6</ele>
        <time>2018-07-22T05:51:51.000Z</time>
      </trkpt>
      <trkpt lat="42.294987" lon="-0.436315">
        <ele>1406.6</ele>
        <time>2018-07-22T05:51:52.000Z</time>
      </trkpt>
      <trkpt lat="42.294983" lon="-0.436316">
        <ele>1406.6</ele>
        <time>2018-07-22T05:51:53.000Z</time>
      </trkpt>
      <trkpt lat="42.29498" lon="-0.436317">
        <ele>1406.6</ele>
        <time>2018-07-22T05:51:54.000Z</time>
      </trkpt>
      <trkpt lat="42.294977" lon="-0.436317">
        <ele>1406.6</ele>
        <time>2018-07-22T05:51:55.000Z</time>
      </trkpt>
      <trkpt lat="42.294972" lon="-0.436321">
        <ele>1406.7</ele>
        <time>2018-07-22T05:51:56.000Z</time>
      </trkpt>
      <trkpt lat="42.294965" lon="-0.436331">
        <ele>1406.9</ele>
        <time>2018-07-22T05:51:57.000Z</time>
      </trkpt>
      <trkpt lat="42.294961" lon="-0.436339">
        <ele>1407.1</ele>
        <time>2018-07-22T05:51:58.000Z</time>
      </trkpt>
      <trkpt lat="42.294959" lon="-0.436345">
        <ele>1407.2</ele>
        <time>2018-07-22T05:51:59.000Z</time>
      </trkpt>
      <trkpt lat="42.294958" lon="-0.436349">
        <ele>1407.3</ele>
        <time>2018-07-22T05:52:00.000Z</time>
      </trkpt>
      <trkpt lat="42.294957" lon="-0.436351">
        <ele>1407.3</ele>
        <time>2018-07-22T05:52:01.000Z</time>
      </trkpt>
      <trkpt lat="42.294957" lon="-0.436352">
        <ele>1407.4</ele>
        <time>2018-07-22T05:52:02.000Z</time>
      </trkpt>
      <trkpt lat="42.294956" lon="-0.436353">
        <ele>1407.4</ele>
        <time>2018-07-22T05:52:03.000Z</time>
      </trkpt>
      <trkpt lat="42.294955" lon="-0.436354">
        <ele>1407.4</ele>
        <time>2018-07-22T05:52:04.000Z</time>
      </trkpt>
      <trkpt lat="42.294954" lon="-0.436355">
        <ele>1407.4</ele>
        <time>2018-07-22T05:52:05.000Z</time>
      </trkpt>
      <trkpt lat="42.294954" lon="-0.436356">
        <ele>1407.5</ele>
        <time>2018-07-22T05:52:06.000Z</time>
      </trkpt>
      <trkpt lat="42.294953" lon="-0.436357">
        <ele>1407.5</ele>
        <time>2018-07-22T05:52:07.000Z</time>
      </trkpt>
      <trkpt lat="42.294952" lon="-0.436358">
        <ele>1407.5</ele>
        <time>2018-07-22T05:52:08.000Z</time>
      </trkpt>
      <trkpt lat="42.294952" lon="-0.436359">
        <ele>1407.5</ele>
        <time>2018-07-22T05:52:09.000Z</time>
      </trkpt>
      <trkpt lat="42.294951" lon="-0.43636">
        <ele>1407.5</ele>
        <time>2018-07-22T05:52:10.000Z</time>
      </trkpt>
      <trkpt lat="42.29495" lon="-0.436362">
        <ele>1407.6</ele>
        <time>2018-07-22T05:52:11.000Z</time>
      </trkpt>
      <trkpt lat="42.294949" lon="-0.436363">
        <ele>1407.6</ele>
        <time>2018-07-22T05:52:12.000Z</time>
      </trkpt>
      <trkpt lat="42.294948" lon="-0.436365">
        <ele>1407.7</ele>
        <time>2018-07-22T05:52:13.000Z</time>
      </trkpt>
      <trkpt lat="42.294947" lon="-0.436367">
        <ele>1407.7</ele>
        <time>2018-07-22T05:52:14.000Z</time>
      </trkpt>
      <trkpt lat="42.294945" lon="-0.436369">
        <ele>1407.7</ele>
        <time>2018-07-22T05:52:15.000Z</time>
      </trkpt>
      <trkpt lat="42.294943" lon="-0.436372">
        <ele>1407.8</ele>
        <time>2018-07-22T05:52:16.000Z</time>
      </trkpt>
      <trkpt lat="42.294941" lon="-0.436375">
        <ele>1407.9</ele>
        <time>2018-07-22T05:52:17.000Z</time>
      </trkpt>
      <trkpt lat="42.294937" lon="-0.436379">
        <ele>1407.9</ele>
        <time>2018-07-22T05:52:18.000Z</time>
      </trkpt>
      <trkpt lat="42.294932" lon="-0.436379">
        <ele>1407.9</ele>
        <time>2018-07-22T05:52:19.000Z</time>
      </trkpt>
      <trkpt lat="42.294929" lon="-0.436379">
        <ele>1407.9</ele>
        <time>2018-07-22T05:52:20.000Z</time>
      </trkpt>
      <trkpt lat="42.294926" lon="-0.43638">
        <ele>1407.9</ele>
        <time>2018-07-22T05:52:21.000Z</time>
      </trkpt>
      <trkpt lat="42.294925" lon="-0.436381">
        <ele>1407.9</ele>
        <time>2018-07-22T05:52:22.000Z</time>
      </trkpt>
      <trkpt lat="42.294924" lon="-0.436383">
        <ele>1408.0</ele>
        <time>2018-07-22T05:52:23.000Z</time>
      </trkpt>
      <trkpt lat="42.294923" lon="-0.436384">
        <ele>1408.0</ele>
        <time>2018-07-22T05:52:24.000Z</time>
      </trkpt>
      <trkpt lat="42.294921" lon="-0.436385">
        <ele>1408.0</ele>
        <time>2018-07-22T05:52:25.000Z</time>
      </trkpt>
      <trkpt lat="42.29492" lon="-0.436386">
        <ele>1408.0</ele>
        <time>2018-07-22T05:52:26.000Z</time>
      </trkpt>
      <trkpt lat="42.294919" lon="-0.436387">
        <ele>1408.0</ele>
        <time>2018-07-22T05:52:27.000Z</time>
      </trkpt>
      <trkpt lat="42.294917" lon="-0.436387">
        <ele>1408.0</ele>
        <time>2018-07-22T05:52:28.000Z</time>
      </trkpt>
      <trkpt lat="42.294916" lon="-0.436388">
        <ele>1408.0</ele>
        <time>2018-07-22T05:52:29.000Z</time>
      </trkpt>
      <trkpt lat="42.294914" lon="-0.436389">
        <ele>1408.1</ele>
        <time>2018-07-22T05:52:30.000Z</time>
      </trkpt>
      <trkpt lat="42.294913" lon="-0.43639">
        <ele>1408.1</ele>
        <time>2018-07-22T05:52:31.000Z</time>
      </trkpt>
      <trkpt lat="42.294912" lon="-0.436391">
        <ele>1408.1</ele>
        <time>2018-07-22T05:52:32.000Z</time>
      </trkpt>
      <trkpt lat="42.294911" lon="-0.436393">
        <ele>1408.1</ele>
        <time>2018-07-22T05:52:33.000Z</time>
      </trkpt>
      <trkpt lat="42.29491" lon="-0.436394">
        <ele>1408.2</ele>
        <time>2018-07-22T05:52:34.000Z</time>
      </trkpt>
      <trkpt lat="42.294909" lon="-0.436396">
        <ele>1408.2</ele>
        <time>2018-07-22T05:52:35.000Z</time>
      </trkpt>
      <trkpt lat="42.294908" lon="-0.436398">
        <ele>1408.2</ele>
        <time>2018-07-22T05:52:36.000Z</time>
      </trkpt>
      <trkpt lat="42.294907" lon="-0.436399">
        <ele>1408.3</ele>
        <time>2018-07-22T05:52:37.000Z</time>
      </trkpt>
      <trkpt lat="42.294905" lon="-0.4364">
        <ele>1408.3</ele>
        <time>2018-07-22T05:52:38.000Z</time>
      </trkpt>
      <trkpt lat="42.294903" lon="-0.436401">
        <ele>1408.3</ele>
        <time>2018-07-22T05:52:39.000Z</time>
      </trkpt>
      <trkpt lat="42.294901" lon="-0.436402">
        <ele>1408.3</ele>
        <time>2018-07-22T05:52:40.000Z</time>
      </trkpt>
      <trkpt lat="42.294898" lon="-0.436402">
        <ele>1408.3</ele>
        <time>2018-07-22T05:52:41.000Z</time>
      </trkpt>
      <trkpt lat="42.294895" lon="-0.436402">
        <ele>1408.3</ele>
        <time>2018-07-22T05:52:42.000Z</time>
      </trkpt>
      <trkpt lat="42.294892" lon="-0.436402">
        <ele>1408.2</ele>
        <time>2018-07-22T05:52:43.000Z</time>
      </trkpt>
      <trkpt lat="42.294888" lon="-0.436404">
        <ele>1408.3</ele>
        <time>2018-07-22T05:52:44.000Z</time>
      </trkpt>
      <trkpt lat="42.294883" lon="-0.436406">
        <ele>1408.3</ele>
        <time>2018-07-22T05:52:45.000Z</time>
      </trkpt>
      <trkpt lat="42.294876" lon="-0.436411">
        <ele>1408.4</ele>
        <time>2018-07-22T05:52:46.000Z</time>
      </trkpt>
      <trkpt lat="42.294871" lon="-0.436413">
        <ele>1408.4</ele>
        <time>2018-07-22T05:52:47.000Z</time>
      </trkpt>
      <trkpt lat="42.29487" lon="-0.436413">
        <ele>1408.4</ele>
        <time>2018-07-22T05:52:48.000Z</time>
      </trkpt>
      <trkpt lat="42.294869" lon="-0.436414">
        <ele>1408.4</ele>
        <time>2018-07-22T05:52:49.000Z</time>
      </trkpt>
      <trkpt lat="42.294868" lon="-0.436414">
        <ele>1408.4</ele>
        <time>2018-07-22T05:52:50.000Z</time>
      </trkpt>
      <trkpt lat="42.294867" lon="-0.436416">
        <ele>1408.4</ele>
        <time>2018-07-22T05:52:51.000Z</time>
      </trkpt>
      <trkpt lat="42.294865" lon="-0.436418">
        <ele>1408.5</ele>
        <time>2018-07-22T05:52:52.000Z</time>
      </trkpt>
      <trkpt lat="42.294864" lon="-0.43642">
        <ele>1408.5</ele>
        <time>2018-07-22T05:52:53.000Z</time>
      </trkpt>
      <trkpt lat="42.294863" lon="-0.436421">
        <ele>1408.5</ele>
        <time>2018-07-22T05:52:54.000Z</time>
      </trkpt>
      <trkpt lat="42.294861" lon="-0.436423">
        <ele>1408.6</ele>
        <time>2018-07-22T05:52:55.000Z</time>
      </trkpt>
      <trkpt lat="42.29486" lon="-0.436424">
        <ele>1408.6</ele>
        <time>2018-07-22T05:52:56.000Z</time>
      </trkpt>
      <trkpt lat="42.294859" lon="-0.436425">
        <ele>1408.6</ele>
        <time>2018-07-22T05:52:57.000Z</time>
      </trkpt>
      <trkpt lat="42.294859" lon="-0.436426">
        <ele>1408.7</ele>
        <time>2018-07-22T05:52:58.000Z</time>
      </trkpt>
      <trkpt lat="42.294858" lon="-0.436427">
        <ele>1408.7</ele>
        <time>2018-07-22T05:52:59.000Z</time>
      </trkpt>
      <trkpt lat="42.294857" lon="-0.436428">
        <ele>1408.7</ele>
        <time>2018-07-22T05:53:00.000Z</time>
      </trkpt>
      <trkpt lat="42.294856" lon="-0.436429">
        <ele>1408.7</ele>
        <time>2018-07-22T05:53:01.000Z</time>
      </trkpt>
      <trkpt lat="42.294854" lon="-0.43643">
        <ele>1408.7</ele>
        <time>2018-07-22T05:53:02.000Z</time>
      </trkpt>
      <trkpt lat="42.294851" lon="-0.436432">
        <ele>1408.8</ele>
        <time>2018-07-22T05:53:03.000Z</time>
      </trkpt>
      <trkpt lat="42.294848" lon="-0.436435">
        <ele>1408.8</ele>
        <time>2018-07-22T05:53:04.000Z</time>
      </trkpt>
      <trkpt lat="42.294846" lon="-0.436437">
        <ele>1408.9</ele>
        <time>2018-07-22T05:53:05.000Z</time>
      </trkpt>
      <trkpt lat="42.294844" lon="-0.436439">
        <ele>1408.9</ele>
        <time>2018-07-22T05:53:06.000Z</time>
      </trkpt>
      <trkpt lat="42.294842" lon="-0.436441">
        <ele>1408.9</ele>
        <time>2018-07-22T05:53:07.000Z</time>
      </trkpt>
      <trkpt lat="42.294839" lon="-0.436444">
        <ele>1409.0</ele>
        <time>2018-07-22T05:53:08.000Z</time>
      </trkpt>
      <trkpt lat="42.294836" lon="-0.436448">
        <ele>1409.1</ele>
        <time>2018-07-22T05:53:09.000Z</time>
      </trkpt>
      <trkpt lat="42.294834" lon="-0.43645">
        <ele>1409.1</ele>
        <time>2018-07-22T05:53:10.000Z</time>
      </trkpt>
      <trkpt lat="42.294832" lon="-0.436452">
        <ele>1409.2</ele>
        <time>2018-07-22T05:53:11.000Z</time>
      </trkpt>
      <trkpt lat="42.294831" lon="-0.436453">
        <ele>1409.2</ele>
        <time>2018-07-22T05:53:12.000Z</time>
      </trkpt>
      <trkpt lat="42.29483" lon="-0.436453">
        <ele>1409.2</ele>
        <time>2018-07-22T05:53:13.000Z</time>
      </trkpt>
      <trkpt lat="42.294829" lon="-0.436454">
        <ele>1409.2</ele>
        <time>2018-07-22T05:53:14.000Z</time>
      </trkpt>
      <trkpt lat="42.294828" lon="-0.436454">
        <ele>1409.2</ele>
        <time>2018-07-22T05:53:15.000Z</time>
      </trkpt>
      <trkpt lat="42.294827" lon="-0.436455">
        <ele>1409.2</ele>
        <time>2018-07-22T05:53:16.000Z</time>
      </trkpt>
      <trkpt lat="42.294826" lon="-0.436455">
        <ele>1409.2</ele>
        <time>2018-07-22T05:53:17.000Z</time>
      </trkpt>
      <trkpt lat="42.294825" lon="-0.436456">
        <ele>1409.2</ele>
        <time>2018-07-22T05:53:18.000Z</time>
      </trkpt>
      <trkpt lat="42.294824" lon="-0.436456">
        <ele>1409.2</ele>
        <time>2018-07-22T05:53:19.000Z</time>
      </trkpt>
      <trkpt lat="42.294823" lon="-0.436457">
        <ele>1409.2</ele>
        <time>2018-07-22T05:53:20.000Z</time>
      </trkpt>
      <trkpt lat="42.294823" lon="-0.436457">
        <ele>1409.2</ele>
        <time>2018-07-22T05:53:21.000Z</time>
      </trkpt>
      <trkpt lat="42.294822" lon="-0.436458">
        <ele>1409.3</ele>
        <time>2018-07-22T05:53:22.000Z</time>
      </trkpt>
      <trkpt lat="42.294821" lon="-0.436458">
        <ele>1409.3</ele>
        <time>2018-07-22T05:53:23.000Z</time>
      </trkpt>
      <trkpt lat="42.294821" lon="-0.436459">
        <ele>1409.3</ele>
        <time>2018-07-22T05:53:24.000Z</time>
      </trkpt>
      <trkpt lat="42.29482" lon="-0.436459">
        <ele>1409.3</ele>
        <time>2018-07-22T05:53:25.000Z</time>
      </trkpt>
      <trkpt lat="42.294819" lon="-0.43646">
        <ele>1409.3</ele>
        <time>2018-07-22T05:53:26.000Z</time>
      </trkpt>
      <trkpt lat="42.294819" lon="-0.436461">
        <ele>1409.3</ele>
        <time>2018-07-22T05:53:27.000Z</time>
      </trkpt>
      <trkpt lat="42.294818" lon="-0.436462">
        <ele>1409.3</ele>
        <time>2018-07-22T05:53:28.000Z</time>
      </trkpt>
      <trkpt lat="42.294817" lon="-0.436463">
        <ele>1409.4</ele>
        <time>2018-07-22T05:53:29.000Z</time>
      </trkpt>
      <trkpt lat="42.294815" lon="-0.436464">
        <ele>1409.4</ele>
        <time>2018-07-22T05:53:30.000Z</time>
      </trkpt>
      <trkpt lat="42.294814" lon="-0.436465">
        <ele>1409.4</ele>
        <time>2018-07-22T05:53:31.000Z</time>
      </trkpt>
      <trkpt lat="42.294813" lon="-0.436467">
        <ele>1409.4</ele>
        <time>2018-07-22T05:53:32.000Z</time>
      </trkpt>
      <trkpt lat="42.294812" lon="-0.436468">
        <ele>1409.5</ele>
        <time>2018-07-22T05:53:33.000Z</time>
      </trkpt>
      <trkpt lat="42.294811" lon="-0.436469">
        <ele>1409.5</ele>
        <time>2018-07-22T05:53:34.000Z</time>
      </trkpt>
      <trkpt lat="42.29481" lon="-0.436469">
        <ele>1409.5</ele>
        <time>2018-07-22T05:53:35.000Z</time>
      </trkpt>
      <trkpt lat="42.29481" lon="-0.43647">
        <ele>1409.5</ele>
        <time>2018-07-22T05:53:36.000Z</time>
      </trkpt>
      <trkpt lat="42.29481" lon="-0.43647">
        <ele>1409.5</ele>
        <time>2018-07-22T05:53:37.000Z</time>
      </trkpt>
      <trkpt lat="42.294809" lon="-0.436471">
        <ele>1409.5</ele>
        <time>2018-07-22T05:53:38.000Z</time>
      </trkpt>
      <trkpt lat="42.294806" lon="-0.436474">
        <ele>1409.6</ele>
        <time>2018-07-22T05:53:39.000Z</time>
      </trkpt>
      <trkpt lat="42.2948" lon="-0.436476">
        <ele>1409.6</ele>
        <time>2018-07-22T05:53:40.000Z</time>
      </trkpt>
      <trkpt lat="42.294793" lon="-0.436478">
        <ele>1409.6</ele>
        <time>2018-07-22T05:53:41.000Z</time>
      </trkpt>
      <trkpt lat="42.294787" lon="-0.436479">
        <ele>1409.6</ele>
        <time>2018-07-22T05:53:42.000Z</time>
      </trkpt>
      <trkpt lat="42.294781" lon="-0.43648">
        <ele>1409.6</ele>
        <time>2018-07-22T05:53:43.000Z</time>
      </trkpt>
      <trkpt lat="42.294773" lon="-0.436487">
        <ele>1409.7</ele>
        <time>2018-07-22T05:53:44.000Z</time>
      </trkpt>
      <trkpt lat="42.294764" lon="-0.436496">
        <ele>1409.9</ele>
        <time>2018-07-22T05:53:45.000Z</time>
      </trkpt>
      <trkpt lat="42.294758" lon="-0.436503">
        <ele>1410.1</ele>
        <time>2018-07-22T05:53:46.000Z</time>
      </trkpt>
      <trkpt lat="42.294754" lon="-0.436507">
        <ele>1410.1</ele>
        <time>2018-07-22T05:53:47.000Z</time>
      </trkpt>
      <trkpt lat="42.294752" lon="-0.436509">
        <ele>1410.2</ele>
        <time>2018-07-22T05:53:48.000Z</time>
      </trkpt>
      <trkpt lat="42.294752" lon="-0.43651">
        <ele>1410.2</ele>
        <time>2018-07-22T05:53:49.000Z</time>
      </trkpt>
      <trkpt lat="42.294752" lon="-0.436511">
        <ele>1410.2</ele>
        <time>2018-07-22T05:53:50.000Z</time>
      </trkpt>
      <trkpt lat="42.294752" lon="-0.436512">
        <ele>1410.3</ele>
        <time>2018-07-22T05:53:51.000Z</time>
      </trkpt>
      <trkpt lat="42.294752" lon="-0.436513">
        <ele>1410.3</ele>
        <time>2018-07-22T05:53:52.000Z</time>
      </trkpt>
      <trkpt lat="42.294751" lon="-0.436514">
        <ele>1410.3</ele>
        <time>2018-07-22T05:53:53.000Z</time>
      </trkpt>
      <trkpt lat="42.294751" lon="-0.436515">
        <ele>1410.3</ele>
        <time>2018-07-22T05:53:54.000Z</time>
      </trkpt>
      <trkpt lat="42.29475" lon="-0.436517">
        <ele>1410.4</ele>
        <time>2018-07-22T05:53:55.000Z</time>
      </trkpt>
      <trkpt lat="42.294749" lon="-0.436519">
        <ele>1410.4</ele>
        <time>2018-07-22T05:53:56.000Z</time>
      </trkpt>
      <trkpt lat="42.294749" lon="-0.436521">
        <ele>1410.5</ele>
        <time>2018-07-22T05:53:57.000Z</time>
      </trkpt>
      <trkpt lat="42.294748" lon="-0.436522">
        <ele>1410.5</ele>
        <time>2018-07-22T05:53:58.000Z</time>
      </trkpt>
      <trkpt lat="42.294748" lon="-0.436524">
        <ele>1410.6</ele>
        <time>2018-07-22T05:53:59.000Z</time>
      </trkpt>
      <trkpt lat="42.294748" lon="-0.436526">
        <ele>1410.6</ele>
        <time>2018-07-22T05:54:00.000Z</time>
      </trkpt>
      <trkpt lat="42.294748" lon="-0.436528">
        <ele>1410.7</ele>
        <time>2018-07-22T05:54:01.000Z</time>
      </trkpt>
      <trkpt lat="42.294748" lon="-0.43653">
        <ele>1410.7</ele>
        <time>2018-07-22T05:54:02.000Z</time>
      </trkpt>
      <trkpt lat="42.294748" lon="-0.436533">
        <ele>1410.8</ele>
        <time>2018-07-22T05:54:03.000Z</time>
      </trkpt>
      <trkpt lat="42.294746" lon="-0.436535">
        <ele>1410.9</ele>
        <time>2018-07-22T05:54:04.000Z</time>
      </trkpt>
      <trkpt lat="42.294744" lon="-0.436539">
        <ele>1411.0</ele>
        <time>2018-07-22T05:54:05.000Z</time>
      </trkpt>
      <trkpt lat="42.294743" lon="-0.436544">
        <ele>1411.1</ele>
        <time>2018-07-22T05:54:06.000Z</time>
      </trkpt>
      <trkpt lat="42.294742" lon="-0.436545">
        <ele>1411.1</ele>
        <time>2018-07-22T05:54:07.000Z</time>
      </trkpt>
      <trkpt lat="42.29474" lon="-0.436546">
        <ele>1411.1</ele>
        <time>2018-07-22T05:54:08.000Z</time>
      </trkpt>
      <trkpt lat="42.294739" lon="-0.436547">
        <ele>1411.1</ele>
        <time>2018-07-22T05:54:09.000Z</time>
      </trkpt>
      <trkpt lat="42.294738" lon="-0.436548">
        <ele>1411.2</ele>
        <time>2018-07-22T05:54:10.000Z</time>
      </trkpt>
      <trkpt lat="42.294737" lon="-0.43655">
        <ele>1411.2</ele>
        <time>2018-07-22T05:54:11.000Z</time>
      </trkpt>
      <trkpt lat="42.294736" lon="-0.436553">
        <ele>1411.3</ele>
        <time>2018-07-22T05:54:12.000Z</time>
      </trkpt>
      <trkpt lat="42.294736" lon="-0.436555">
        <ele>1411.3</ele>
        <time>2018-07-22T05:54:13.000Z</time>
      </trkpt>
      <trkpt lat="42.294735" lon="-0.436557">
        <ele>1411.4</ele>
        <time>2018-07-22T05:54:14.000Z</time>
      </trkpt>
      <trkpt lat="42.294735" lon="-0.43656">
        <ele>1411.5</ele>
        <time>2018-07-22T05:54:15.000Z</time>
      </trkpt>
      <trkpt lat="42.294735" lon="-0.436562">
        <ele>1411.5</ele>
        <time>2018-07-22T05:54:16.000Z</time>
      </trkpt>
      <trkpt lat="42.294735" lon="-0.436563">
        <ele>1411.6</ele>
        <time>2018-07-22T05:54:17.000Z</time>
      </trkpt>
      <trkpt lat="42.294735" lon="-0.436564">
        <ele>1411.6</ele>
        <time>2018-07-22T05:54:18.000Z</time>
      </trkpt>
      <trkpt lat="42.294734" lon="-0.436564">
        <ele>1411.6</ele>
        <time>2018-07-22T05:54:19.000Z</time>
      </trkpt>
      <trkpt lat="42.294734" lon="-0.436564">
        <ele>1411.6</ele>
        <time>2018-07-22T05:54:20.000Z</time>
      </trkpt>
      <trkpt lat="42.294733" lon="-0.436565">
        <ele>1411.6</ele>
        <time>2018-07-22T05:54:21.000Z</time>
      </trkpt>
      <trkpt lat="42.294732" lon="-0.436566">
        <ele>1411.6</ele>
        <time>2018-07-22T05:54:22.000Z</time>
      </trkpt>
      <trkpt lat="42.29473" lon="-0.436568">
        <ele>1411.7</ele>
        <time>2018-07-22T05:54:23.000Z</time>
      </trkpt>
      <trkpt lat="42.294727" lon="-0.436572">
        <ele>1411.8</ele>
        <time>2018-07-22T05:54:24.000Z</time>
      </trkpt>
      <trkpt lat="42.29472" lon="-0.436576">
        <ele>1411.8</ele>
        <time>2018-07-22T05:54:25.000Z</time>
      </trkpt>
      <trkpt lat="42.294717" lon="-0.43658">
        <ele>1411.9</ele>
        <time>2018-07-22T05:54:26.000Z</time>
      </trkpt>
      <trkpt lat="42.294714" lon="-0.436584">
        <ele>1412.0</ele>
        <time>2018-07-22T05:54:27.000Z</time>
      </trkpt>
      <trkpt lat="42.29471" lon="-0.436587">
        <ele>1412.1</ele>
        <time>2018-07-22T05:54:28.000Z</time>
      </trkpt>
      <trkpt lat="42.294708" lon="-0.436589">
        <ele>1412.1</ele>
        <time>2018-07-22T05:54:29.000Z</time>
      </trkpt>
      <trkpt lat="42.294706" lon="-0.43659">
        <ele>1412.1</ele>
        <time>2018-07-22T05:54:30.000Z</time>
      </trkpt>
      <trkpt lat="42.294705" lon="-0.436591">
        <ele>1412.1</ele>
        <time>2018-07-22T05:54:31.000Z</time>
      </trkpt>
      <trkpt lat="42.294704" lon="-0.436592">
        <ele>1412.2</ele>
        <time>2018-07-22T05:54:32.000Z</time>
      </trkpt>
      <trkpt lat="42.294703" lon="-0.436593">
        <ele>1412.2</ele>
        <time>2018-07-22T05:54:33.000Z</time>
      </trkpt>
      <trkpt lat="42.294701" lon="-0.436595">
        <ele>1412.2</ele>
        <time>2018-07-22T05:54:34.000Z</time>
      </trkpt>
      <trkpt lat="42.2947" lon="-0.436596">
        <ele>1412.2</ele>
        <time>2018-07-22T05:54:35.000Z</time>
      </trkpt>
      <trkpt lat="42.294699" lon="-0.436598">
        <ele>1412.3</ele>
        <time>2018-07-22T05:54:36.000Z</time>
      </trkpt>
      <trkpt lat="42.294698" lon="-0.436599">
        <ele>1412.3</ele>
        <time>2018-07-22T05:54:37.000Z</time>
      </trkpt>
      <trkpt lat="42.294696" lon="-0.436601">
        <ele>1412.4</ele>
        <time>2018-07-22T05:54:38.000Z</time>
      </trkpt>
      <trkpt lat="42.294695" lon="-0.436603">
        <ele>1412.4</ele>
        <time>2018-07-22T05:54:39.000Z</time>
      </trkpt>
      <trkpt lat="42.294694" lon="-0.436604">
        <ele>1412.4</ele>
        <time>2018-07-22T05:54:40.000Z</time>
      </trkpt>
      <trkpt lat="42.294693" lon="-0.436605">
        <ele>1412.4</ele>
        <time>2018-07-22T05:54:41.000Z</time>
      </trkpt>
      <trkpt lat="42.294692" lon="-0.436606">
        <ele>1412.5</ele>
        <time>2018-07-22T05:54:42.000Z</time>
      </trkpt>
      <trkpt lat="42.294692" lon="-0.436606">
        <ele>1412.5</ele>
        <time>2018-07-22T05:54:43.000Z</time>
      </trkpt>
      <trkpt lat="42.294691" lon="-0.436607">
        <ele>1412.5</ele>
        <time>2018-07-22T05:54:44.000Z</time>
      </trkpt>
      <trkpt lat="42.294691" lon="-0.436606">
        <ele>1412.5</ele>
        <time>2018-07-22T05:54:45.000Z</time>
      </trkpt>
      <trkpt lat="42.294691" lon="-0.436606">
        <ele>1412.5</ele>
        <time>2018-07-22T05:54:46.000Z</time>
      </trkpt>
      <trkpt lat="42.29469" lon="-0.436606">
        <ele>1412.5</ele>
        <time>2018-07-22T05:54:47.000Z</time>
      </trkpt>
      <trkpt lat="42.294688" lon="-0.436607">
        <ele>1412.5</ele>
        <time>2018-07-22T05:54:48.000Z</time>
      </trkpt>
      <trkpt lat="42.294684" lon="-0.436608">
        <ele>1412.5</ele>
        <time>2018-07-22T05:54:49.000Z</time>
      </trkpt>
      <trkpt lat="42.294675" lon="-0.436613">
        <ele>1412.6</ele>
        <time>2018-07-22T05:54:50.000Z</time>
      </trkpt>
      <trkpt lat="42.29467" lon="-0.436616">
        <ele>1412.6</ele>
        <time>2018-07-22T05:54:51.000Z</time>
      </trkpt>
      <trkpt lat="42.294667" lon="-0.436618">
        <ele>1412.6</ele>
        <time>2018-07-22T05:54:52.000Z</time>
      </trkpt>
      <trkpt lat="42.294664" lon="-0.43662">
        <ele>1412.7</ele>
        <time>2018-07-22T05:54:53.000Z</time>
      </trkpt>
      <trkpt lat="42.294661" lon="-0.436621">
        <ele>1412.7</ele>
        <time>2018-07-22T05:54:54.000Z</time>
      </trkpt>
      <trkpt lat="42.294658" lon="-0.436621">
        <ele>1412.7</ele>
        <time>2018-07-22T05:54:55.000Z</time>
      </trkpt>
      <trkpt lat="42.294656" lon="-0.436622">
        <ele>1412.7</ele>
        <time>2018-07-22T05:54:56.000Z</time>
      </trkpt>
      <trkpt lat="42.294655" lon="-0.436623">
        <ele>1412.7</ele>
        <time>2018-07-22T05:54:57.000Z</time>
      </trkpt>
      <trkpt lat="42.294653" lon="-0.436624">
        <ele>1412.7</ele>
        <time>2018-07-22T05:54:58.000Z</time>
      </trkpt>
      <trkpt lat="42.294652" lon="-0.436625">
        <ele>1412.7</ele>
        <time>2018-07-22T05:54:59.000Z</time>
      </trkpt>
      <trkpt lat="42.294651" lon="-0.436626">
        <ele>1412.8</ele>
        <time>2018-07-22T05:55:00.000Z</time>
      </trkpt>
      <trkpt lat="42.29465" lon="-0.436628">
        <ele>1412.8</ele>
        <time>2018-07-22T05:55:01.000Z</time>
      </trkpt>
      <trkpt lat="42.294649" lon="-0.436629">
        <ele>1412.8</ele>
        <time>2018-07-22T05:55:02.000Z</time>
      </trkpt>
      <trkpt lat="42.294648" lon="-0.43663">
        <ele>1412.9</ele>
        <time>2018-07-22T05:55:03.000Z</time>
      </trkpt>
      <trkpt lat="42.294647" lon="-0.436631">
        <ele>1412.9</ele>
        <time>2018-07-22T05:55:04.000Z</time>
      </trkpt>
      <trkpt lat="42.294646" lon="-0.436632">
        <ele>1412.9</ele>
        <time>2018-07-22T05:55:05.000Z</time>
      </trkpt>
      <trkpt lat="42.294645" lon="-0.436633">
        <ele>1412.9</ele>
        <time>2018-07-22T05:55:06.000Z</time>
      </trkpt>
      <trkpt lat="42.294644" lon="-0.436634">
        <ele>1413.0</ele>
        <time>2018-07-22T05:55:07.000Z</time>
      </trkpt>
      <trkpt lat="42.294642" lon="-0.436635">
        <ele>1413.0</ele>
        <time>2018-07-22T05:55:08.000Z</time>
      </trkpt>
      <trkpt lat="42.294642" lon="-0.436635">
        <ele>1413.0</ele>
        <time>2018-07-22T05:55:09.000Z</time>
      </trkpt>
      <trkpt lat="42.294641" lon="-0.436636">
        <ele>1413.0</ele>
        <time>2018-07-22T05:55:10.000Z</time>
      </trkpt>
      <trkpt lat="42.29464" lon="-0.436638">
        <ele>1413.0</ele>
        <time>2018-07-22T05:55:11.000Z</time>
      </trkpt>
      <trkpt lat="42.294635" lon="-0.436641">
        <ele>1413.1</ele>
        <time>2018-07-22T05:55:12.000Z</time>
      </trkpt>
      <trkpt lat="42.294626" lon="-0.436643">
        <ele>1413.1</ele>
        <time>2018-07-22T05:55:13.000Z</time>
      </trkpt>
      <trkpt lat="42.29462" lon="-0.436646">
        <ele>1413.1</ele>
        <time>2018-07-22T05:55:14.000Z</time>
      </trkpt>
      <trkpt lat="42.294617" lon="-0.436647">
        <ele>1413.2</ele>
        <time>2018-07-22T05:55:15.000Z</time>
      </trkpt>
      <trkpt lat="42.294613" lon="-0.436649">
        <ele>1413.2</ele>
        <time>2018-07-22T05:55:16.000Z</time>
      </trkpt>
      <trkpt lat="42.29461" lon="-0.436651">
        <ele>1413.2</ele>
        <time>2018-07-22T05:55:17.000Z</time>
      </trkpt>
      <trkpt lat="42.294607" lon="-0.436653">
        <ele>1413.3</ele>
        <time>2018-07-22T05:55:18.000Z</time>
      </trkpt>
      <trkpt lat="42.294605" lon="-0.436654">
        <ele>1413.3</ele>
        <time>2018-07-22T05:55:19.000Z</time>
      </trkpt>
      <trkpt lat="42.294603" lon="-0.436656">
        <ele>1413.3</ele>
        <time>2018-07-22T05:55:20.000Z</time>
      </trkpt>
      <trkpt lat="42.294602" lon="-0.436657">
        <ele>1413.3</ele>
        <time>2018-07-22T05:55:21.000Z</time>
      </trkpt>
      <trkpt lat="42.294601" lon="-0.436657">
        <ele>1413.3</ele>
        <time>2018-07-22T05:55:22.000Z</time>
      </trkpt>
      <trkpt lat="42.2946" lon="-0.436658">
        <ele>1413.4</ele>
        <time>2018-07-22T05:55:23.000Z</time>
      </trkpt>
      <trkpt lat="42.294598" lon="-0.436659">
        <ele>1413.4</ele>
        <time>2018-07-22T05:55:24.000Z</time>
      </trkpt>
      <trkpt lat="42.294597" lon="-0.43666">
        <ele>1413.4</ele>
        <time>2018-07-22T05:55:25.000Z</time>
      </trkpt>
      <trkpt lat="42.294595" lon="-0.436661">
        <ele>1413.4</ele>
        <time>2018-07-22T05:55:26.000Z</time>
      </trkpt>
      <trkpt lat="42.294594" lon="-0.436663">
        <ele>1413.5</ele>
        <time>2018-07-22T05:55:27.000Z</time>
      </trkpt>
      <trkpt lat="42.294592" lon="-0.436664">
        <ele>1413.5</ele>
        <time>2018-07-22T05:55:28.000Z</time>
      </trkpt>
      <trkpt lat="42.294588" lon="-0.436667">
        <ele>1413.5</ele>
        <time>2018-07-22T05:55:29.000Z</time>
      </trkpt>
      <trkpt lat="42.294577" lon="-0.436676">
        <ele>1413.6</ele>
        <time>2018-07-22T05:55:30.000Z</time>
      </trkpt>
      <trkpt lat="42.294571" lon="-0.436682">
        <ele>1413.6</ele>
        <time>2018-07-22T05:55:31.000Z</time>
      </trkpt>
      <trkpt lat="42.294567" lon="-0.436685">
        <ele>1413.7</ele>
        <time>2018-07-22T05:55:32.000Z</time>
      </trkpt>
      <trkpt lat="42.294565" lon="-0.436687">
        <ele>1413.7</ele>
        <time>2018-07-22T05:55:33.000Z</time>
      </trkpt>
      <trkpt lat="42.294563" lon="-0.436688">
        <ele>1413.7</ele>
        <time>2018-07-22T05:55:34.000Z</time>
      </trkpt>
      <trkpt lat="42.294561" lon="-0.43669">
        <ele>1413.7</ele>
        <time>2018-07-22T05:55:35.000Z</time>
      </trkpt>
      <trkpt lat="42.294559" lon="-0.436691">
        <ele>1413.7</ele>
        <time>2018-07-22T05:55:36.000Z</time>
      </trkpt>
      <trkpt lat="42.294557" lon="-0.436693">
        <ele>1413.7</ele>
        <time>2018-07-22T05:55:37.000Z</time>
      </trkpt>
      <trkpt lat="42.294555" lon="-0.436694">
        <ele>1413.7</ele>
        <time>2018-07-22T05:55:38.000Z</time>
      </trkpt>
      <trkpt lat="42.294553" lon="-0.436696">
        <ele>1413.7</ele>
        <time>2018-07-22T05:55:39.000Z</time>
      </trkpt>
      <trkpt lat="42.29455" lon="-0.436697">
        <ele>1413.7</ele>
        <time>2018-07-22T05:55:40.000Z</time>
      </trkpt>
      <trkpt lat="42.294549" lon="-0.436698">
        <ele>1413.7</ele>
        <time>2018-07-22T05:55:41.000Z</time>
      </trkpt>
      <trkpt lat="42.294547" lon="-0.436699">
        <ele>1413.7</ele>
        <time>2018-07-22T05:55:42.000Z</time>
      </trkpt>
      <trkpt lat="42.294544" lon="-0.4367">
        <ele>1413.7</ele>
        <time>2018-07-22T05:55:43.000Z</time>
      </trkpt>
      <trkpt lat="42.294538" lon="-0.436701">
        <ele>1413.7</ele>
        <time>2018-07-22T05:55:44.000Z</time>
      </trkpt>
      <trkpt lat="42.294529" lon="-0.436702">
        <ele>1413.7</ele>
        <time>2018-07-22T05:55:45.000Z</time>
      </trkpt>
      <trkpt lat="42.294522" lon="-0.436704">
        <ele>1413.7</ele>
        <time>2018-07-22T05:55:46.000Z</time>
      </trkpt>
      <trkpt lat="42.294516" lon="-0.436705">
        <ele>1413.6</ele>
        <time>2018-07-22T05:55:47.000Z</time>
      </trkpt>
      <trkpt lat="42.294512" lon="-0.436705">
        <ele>1413.6</ele>
        <time>2018-07-22T05:55:48.000Z</time>
      </trkpt>
      <trkpt lat="42.294509" lon="-0.436706">
        <ele>1413.6</ele>
        <time>2018-07-22T05:55:49.000Z</time>
      </trkpt>
      <trkpt lat="42.294506" lon="-0.436706">
        <ele>1413.6</ele>
        <time>2018-07-22T05:55:50.000Z</time>
      </trkpt>
      <trkpt lat="42.294503" lon="-0.436706">
        <ele>1413.6</ele>
        <time>2018-07-22T05:55:51.000Z</time>
      </trkpt>
      <trkpt lat="42.2945" lon="-0.436707">
        <ele>1413.6</ele>
        <time>2018-07-22T05:55:52.000Z</time>
      </trkpt>
      <trkpt lat="42.294498" lon="-0.436707">
        <ele>1413.6</ele>
        <time>2018-07-22T05:55:53.000Z</time>
      </trkpt>
      <trkpt lat="42.294496" lon="-0.436707">
        <ele>1413.6</ele>
        <time>2018-07-22T05:55:54.000Z</time>
      </trkpt>
      <trkpt lat="42.294495" lon="-0.436708">
        <ele>1413.6</ele>
        <time>2018-07-22T05:55:55.000Z</time>
      </trkpt>
      <trkpt lat="42.294492" lon="-0.436708">
        <ele>1413.5</ele>
        <time>2018-07-22T05:55:56.000Z</time>
      </trkpt>
      <trkpt lat="42.294489" lon="-0.436708">
        <ele>1413.5</ele>
        <time>2018-07-22T05:55:57.000Z</time>
      </trkpt>
      <trkpt lat="42.294484" lon="-0.43671">
        <ele>1413.5</ele>
        <time>2018-07-22T05:55:58.000Z</time>
      </trkpt>
      <trkpt lat="42.294474" lon="-0.436715">
        <ele>1413.5</ele>
        <time>2018-07-22T05:55:59.000Z</time>
      </trkpt>
      <trkpt lat="42.29447" lon="-0.436718">
        <ele>1413.6</ele>
        <time>2018-07-22T05:56:00.000Z</time>
      </trkpt>
      <trkpt lat="42.294464" lon="-0.436721">
        <ele>1413.6</ele>
        <time>2018-07-22T05:56:01.000Z</time>
      </trkpt>
      <trkpt lat="42.294456" lon="-0.436727">
        <ele>1413.6</ele>
        <time>2018-07-22T05:56:02.000Z</time>
      </trkpt>
      <trkpt lat="42.294448" lon="-0.436733">
        <ele>1413.7</ele>
        <time>2018-07-22T05:56:03.000Z</time>
      </trkpt>
      <trkpt lat="42.294442" lon="-0.43674">
        <ele>1413.7</ele>
        <time>2018-07-22T05:56:04.000Z</time>
      </trkpt>
      <trkpt lat="42.294439" lon="-0.436748">
        <ele>1413.8</ele>
        <time>2018-07-22T05:56:05.000Z</time>
      </trkpt>
      <trkpt lat="42.294437" lon="-0.436754">
        <ele>1413.9</ele>
        <time>2018-07-22T05:56:06.000Z</time>
      </trkpt>
      <trkpt lat="42.294437" lon="-0.436759">
        <ele>1414.0</ele>
        <time>2018-07-22T05:56:07.000Z</time>
      </trkpt>
      <trkpt lat="42.294438" lon="-0.436763">
        <ele>1414.1</ele>
        <time>2018-07-22T05:56:08.000Z</time>
      </trkpt>
      <trkpt lat="42.294439" lon="-0.436766">
        <ele>1414.1</ele>
        <time>2018-07-22T05:56:09.000Z</time>
      </trkpt>
      <trkpt lat="42.294438" lon="-0.436769">
        <ele>1414.1</ele>
        <time>2018-07-22T05:56:10.000Z</time>
      </trkpt>
      <trkpt lat="42.294435" lon="-0.436772">
        <ele>1414.2</ele>
        <time>2018-07-22T05:56:11.000Z</time>
      </trkpt>
      <trkpt lat="42.294429" lon="-0.436778">
        <ele>1414.2</ele>
        <time>2018-07-22T05:56:12.000Z</time>
      </trkpt>
      <trkpt lat="42.294423" lon="-0.436783">
        <ele>1414.3</ele>
        <time>2018-07-22T05:56:13.000Z</time>
      </trkpt>
      <trkpt lat="42.294422" lon="-0.436784">
        <ele>1414.3</ele>
        <time>2018-07-22T05:56:14.000Z</time>
      </trkpt>
      <trkpt lat="42.294422" lon="-0.436784">
        <ele>1414.3</ele>
        <time>2018-07-22T05:56:15.000Z</time>
      </trkpt>
      <trkpt lat="42.294421" lon="-0.436785">
        <ele>1414.3</ele>
        <time>2018-07-22T05:56:16.000Z</time>
      </trkpt>
      <trkpt lat="42.29442" lon="-0.436786">
        <ele>1414.3</ele>
        <time>2018-07-22T05:56:17.000Z</time>
      </trkpt>
      <trkpt lat="42.294419" lon="-0.436787">
        <ele>1414.3</ele>
        <time>2018-07-22T05:56:18.000Z</time>
      </trkpt>
      <trkpt lat="42.294417" lon="-0.436788">
        <ele>1414.3</ele>
        <time>2018-07-22T05:56:19.000Z</time>
      </trkpt>
      <trkpt lat="42.294416" lon="-0.436789">
        <ele>1414.3</ele>
        <time>2018-07-22T05:56:20.000Z</time>
      </trkpt>
      <trkpt lat="42.294415" lon="-0.43679">
        <ele>1414.3</ele>
        <time>2018-07-22T05:56:21.000Z</time>
      </trkpt>
      <trkpt lat="42.294414" lon="-0.43679">
        <ele>1414.3</ele>
        <time>2018-07-22T05:56:22.000Z</time>
      </trkpt>
      <trkpt lat="42.294413" lon="-0.436791">
        <ele>1414.3</ele>
        <time>2018-07-22T05:56:23.000Z</time>
      </trkpt>
      <trkpt lat="42.294412" lon="-0.436791">
        <ele>1414.3</ele>
        <time>2018-07-22T05:56:24.000Z</time>
      </trkpt>
      <trkpt lat="42.294411" lon="-0.436792">
        <ele>1414.4</ele>
        <time>2018-07-22T05:56:25.000Z</time>
      </trkpt>
      <trkpt lat="42.294411" lon="-0.436792">
        <ele>1414.4</ele>
        <time>2018-07-22T05:56:26.000Z</time>
      </trkpt>
      <trkpt lat="42.29441" lon="-0.436793">
        <ele>1414.4</ele>
        <time>2018-07-22T05:56:27.000Z</time>
      </trkpt>
      <trkpt lat="42.294409" lon="-0.436793">
        <ele>1414.4</ele>
        <time>2018-07-22T05:56:28.000Z</time>
      </trkpt>
      <trkpt lat="42.294409" lon="-0.436793">
        <ele>1414.4</ele>
        <time>2018-07-22T05:56:29.000Z</time>
      </trkpt>
      <trkpt lat="42.294409" lon="-0.436794">
        <ele>1414.4</ele>
        <time>2018-07-22T05:56:30.000Z</time>
      </trkpt>
      <trkpt lat="42.294408" lon="-0.436794">
        <ele>1414.4</ele>
        <time>2018-07-22T05:56:31.000Z</time>
      </trkpt>
      <trkpt lat="42.294408" lon="-0.436794">
        <ele>1414.4</ele>
        <time>2018-07-22T05:56:32.000Z</time>
      </trkpt>
      <trkpt lat="42.294408" lon="-0.436794">
        <ele>1414.4</ele>
        <time>2018-07-22T05:56:33.000Z</time>
      </trkpt>
      <trkpt lat="42.294408" lon="-0.436794">
        <ele>1414.4</ele>
        <time>2018-07-22T05:56:34.000Z</time>
      </trkpt>
      <trkpt lat="42.294408" lon="-0.436794">
        <ele>1414.4</ele>
        <time>2018-07-22T05:56:35.000Z</time>
      </trkpt>
      <trkpt lat="42.294407" lon="-0.436794">
        <ele>1414.4</ele>
        <time>2018-07-22T05:56:36.000Z</time>
      </trkpt>
      <trkpt lat="42.294407" lon="-0.436795">
        <ele>1414.4</ele>
        <time>2018-07-22T05:56:37.000Z</time>
      </trkpt>
      <trkpt lat="42.294407" lon="-0.436795">
        <ele>1414.4</ele>
        <time>2018-07-22T05:56:38.000Z</time>
      </trkpt>
      <trkpt lat="42.294407" lon="-0.436795">
        <ele>1414.4</ele>
        <time>2018-07-22T05:56:39.000Z</time>
      </trkpt>
      <trkpt lat="42.294407" lon="-0.436795">
        <ele>1414.4</ele>
        <time>2018-07-22T05:56:40.000Z</time>
      </trkpt>
      <trkpt lat="42.294407" lon="-0.436795">
        <ele>1414.4</ele>
        <time>2018-07-22T05:56:41.000Z</time>
      </trkpt>
      <trkpt lat="42.294407" lon="-0.436795">
        <ele>1414.4</ele>
        <time>2018-07-22T05:56:42.000Z</time>
      </trkpt>
      <trkpt lat="42.294407" lon="-0.436795">
        <ele>1414.4</ele>
        <time>2018-07-22T05:56:43.000Z</time>
      </trkpt>
      <trkpt lat="42.294407" lon="-0.436795">
        <ele>1414.4</ele>
        <time>2018-07-22T05:56:44.000Z</time>
      </trkpt>
      <trkpt lat="42.294407" lon="-0.436795">
        <ele>1414.4</ele>
        <time>2018-07-22T05:56:45.000Z</time>
      </trkpt>
      <trkpt lat="42.294407" lon="-0.436795">
        <ele>1414.4</ele>
        <time>2018-07-22T05:56:46.000Z</time>
      </trkpt>
      <trkpt lat="42.294407" lon="-0.436795">
        <ele>1414.4</ele>
        <time>2018-07-22T05:56:47.000Z</time>
      </trkpt>
      <trkpt lat="42.294407" lon="-0.436795">
        <ele>1414.4</ele>
        <time>2018-07-22T05:56:48.000Z</time>
      </trkpt>
      <trkpt lat="42.294407" lon="-0.436795">
        <ele>1414.4</ele>
        <time>2018-07-22T05:56:49.000Z</time>
      </trkpt>
      <trkpt lat="42.294407" lon="-0.436795">
        <ele>1414.4</ele>
        <time>2018-07-22T05:56:50.000Z</time>
      </trkpt>
      <trkpt lat="42.294407" lon="-0.436796">
        <ele>1414.4</ele>
        <time>2018-07-22T05:56:51.000Z</time>
      </trkpt>
      <trkpt lat="42.294407" lon="-0.436796">
        <ele>1414.4</ele>
        <time>2018-07-22T05:56:52.000Z</time>
      </trkpt>
      <trkpt lat="42.294407" lon="-0.436796">
        <ele>1414.4</ele>
        <time>2018-07-22T05:56:53.000Z</time>
      </trkpt>
      <trkpt lat="42.294407" lon="-0.436796">
        <ele>1414.4</ele>
        <time>2018-07-22T05:56:54.000Z</time>
      </trkpt>
      <trkpt lat="42.294407" lon="-0.436796">
        <ele>1414.4</ele>
        <time>2018-07-22T05:56:55.000Z</time>
      </trkpt>
      <trkpt lat="42.294407" lon="-0.436796">
        <ele>1414.4</ele>
        <time>2018-07-22T05:56:56.000Z</time>
      </trkpt>
      <trkpt lat="42.294407" lon="-0.436796">
        <ele>1414.4</ele>
        <time>2018-07-22T05:56:57.000Z</time>
      </trkpt>
      <trkpt lat="42.294407" lon="-0.436796">
        <ele>1414.4</ele>
        <time>2018-07-22T05:56:58.000Z</time>
      </trkpt>
      <trkpt lat="42.294407" lon="-0.436797">
        <ele>1414.4</ele>
        <time>2018-07-22T05:56:59.000Z</time>
      </trkpt>
      <trkpt lat="42.294408" lon="-0.436797">
        <ele>1414.4</ele>
        <time>2018-07-22T05:57:00.000Z</time>
      </trkpt>
      <trkpt lat="42.294408" lon="-0.436798">
        <ele>1414.4</ele>
        <time>2018-07-22T05:57:01.000Z</time>
      </trkpt>
      <trkpt lat="42.294408" lon="-0.436799">
        <ele>1414.4</ele>
        <time>2018-07-22T05:57:02.000Z</time>
      </trkpt>
      <trkpt lat="42.294408" lon="-0.436801">
        <ele>1414.5</ele>
        <time>2018-07-22T05:57:03.000Z</time>
      </trkpt>
      <trkpt lat="42.294408" lon="-0.436803">
        <ele>1414.5</ele>
        <time>2018-07-22T05:57:04.000Z</time>
      </trkpt>
      <trkpt lat="42.294408" lon="-0.436805">
        <ele>1414.5</ele>
        <time>2018-07-22T05:57:05.000Z</time>
      </trkpt>
      <trkpt lat="42.294409" lon="-0.436809">
        <ele>1414.6</ele>
        <time>2018-07-22T05:57:06.000Z</time>
      </trkpt>
      <trkpt lat="42.294408" lon="-0.436814">
        <ele>1414.7</ele>
        <time>2018-07-22T05:57:07.000Z</time>
      </trkpt>
      <trkpt lat="42.294407" lon="-0.436825">
        <ele>1414.8</ele>
        <time>2018-07-22T05:57:08.000Z</time>
      </trkpt>
      <trkpt lat="42.294406" lon="-0.436832">
        <ele>1414.9</ele>
        <time>2018-07-22T05:57:09.000Z</time>
      </trkpt>
      <trkpt lat="42.294405" lon="-0.436835">
        <ele>1415.0</ele>
        <time>2018-07-22T05:57:10.000Z</time>
      </trkpt>
      <trkpt lat="42.294405" lon="-0.436837">
        <ele>1415.0</ele>
        <time>2018-07-22T05:57:11.000Z</time>
      </trkpt>
      <trkpt lat="42.294405" lon="-0.436838">
        <ele>1415.0</ele>
        <time>2018-07-22T05:57:12.000Z</time>
      </trkpt>
      <trkpt lat="42.294406" lon="-0.436838">
        <ele>1415.0</ele>
        <time>2018-07-22T05:57:13.000Z</time>
      </trkpt>
      <trkpt lat="42.294406" lon="-0.436839">
        <ele>1415.0</ele>
        <time>2018-07-22T05:57:14.000Z</time>
      </trkpt>
      <trkpt lat="42.294406" lon="-0.43684">
        <ele>1415.0</ele>
        <time>2018-07-22T05:57:15.000Z</time>
      </trkpt>
      <trkpt lat="42.294406" lon="-0.436841">
        <ele>1415.1</ele>
        <time>2018-07-22T05:57:16.000Z</time>
      </trkpt>
      <trkpt lat="42.294406" lon="-0.436842">
        <ele>1415.1</ele>
        <time>2018-07-22T05:57:17.000Z</time>
      </trkpt>
      <trkpt lat="42.294406" lon="-0.436843">
        <ele>1415.1</ele>
        <time>2018-07-22T05:57:18.000Z</time>
      </trkpt>
      <trkpt lat="42.294406" lon="-0.436843">
        <ele>1415.1</ele>
        <time>2018-07-22T05:57:19.000Z</time>
      </trkpt>
      <trkpt lat="42.294405" lon="-0.436844">
        <ele>1415.1</ele>
        <time>2018-07-22T05:57:20.000Z</time>
      </trkpt>
      <trkpt lat="42.294405" lon="-0.436845">
        <ele>1415.1</ele>
        <time>2018-07-22T05:57:21.000Z</time>
      </trkpt>
      <trkpt lat="42.294405" lon="-0.436846">
        <ele>1415.1</ele>
        <time>2018-07-22T05:57:22.000Z</time>
      </trkpt>
      <trkpt lat="42.294405" lon="-0.436846">
        <ele>1415.1</ele>
        <time>2018-07-22T05:57:23.000Z</time>
      </trkpt>
      <trkpt lat="42.294405" lon="-0.436847">
        <ele>1415.2</ele>
        <time>2018-07-22T05:57:24.000Z</time>
      </trkpt>
      <trkpt lat="42.294405" lon="-0.436847">
        <ele>1415.2</ele>
        <time>2018-07-22T05:57:25.000Z</time>
      </trkpt>
      <trkpt lat="42.294405" lon="-0.436848">
        <ele>1415.2</ele>
        <time>2018-07-22T05:57:26.000Z</time>
      </trkpt>
      <trkpt lat="42.294405" lon="-0.436848">
        <ele>1415.2</ele>
        <time>2018-07-22T05:57:27.000Z</time>
      </trkpt>
      <trkpt lat="42.294405" lon="-0.436849">
        <ele>1415.2</ele>
        <time>2018-07-22T05:57:28.000Z</time>
      </trkpt>
      <trkpt lat="42.294405" lon="-0.436849">
        <ele>1415.2</ele>
        <time>2018-07-22T05:57:29.000Z</time>
      </trkpt>
      <trkpt lat="42.294405" lon="-0.436849">
        <ele>1415.2</ele>
        <time>2018-07-22T05:57:30.000Z</time>
      </trkpt>
      <trkpt lat="42.294405" lon="-0.436849">
        <ele>1415.2</ele>
        <time>2018-07-22T05:57:31.000Z</time>
      </trkpt>
      <trkpt lat="42.294405" lon="-0.436849">
        <ele>1415.2</ele>
        <time>2018-07-22T05:57:32.000Z</time>
      </trkpt>
      <trkpt lat="42.294405" lon="-0.436849">
        <ele>1415.2</ele>
        <time>2018-07-22T05:57:33.000Z</time>
      </trkpt>
      <trkpt lat="42.294405" lon="-0.436849">
        <ele>1415.2</ele>
        <time>2018-07-22T05:57:34.000Z</time>
      </trkpt>
      <trkpt lat="42.294405" lon="-0.436849">
        <ele>1415.2</ele>
        <time>2018-07-22T05:57:35.000Z</time>
      </trkpt>
      <trkpt lat="42.294405" lon="-0.436849">
        <ele>1415.2</ele>
        <time>2018-07-22T05:57:36.000Z</time>
      </trkpt>
      <trkpt lat="42.294405" lon="-0.436849">
        <ele>1415.2</ele>
        <time>2018-07-22T05:57:37.000Z</time>
      </trkpt>
      <trkpt lat="42.294405" lon="-0.436849">
        <ele>1415.2</ele>
        <time>2018-07-22T05:57:38.000Z</time>
      </trkpt>
      <trkpt lat="42.294405" lon="-0.436849">
        <ele>1415.2</ele>
        <time>2018-07-22T05:57:39.000Z</time>
      </trkpt>
      <trkpt lat="42.294405" lon="-0.436849">
        <ele>1415.2</ele>
        <time>2018-07-22T05:57:40.000Z</time>
      </trkpt>
      <trkpt lat="42.294405" lon="-0.436849">
        <ele>1415.2</ele>
        <time>2018-07-22T05:57:41.000Z</time>
      </trkpt>
      <trkpt lat="42.294405" lon="-0.436849">
        <ele>1415.2</ele>
        <time>2018-07-22T05:57:42.000Z</time>
      </trkpt>
      <trkpt lat="42.294405" lon="-0.43685">
        <ele>1415.2</ele>
        <time>2018-07-22T05:57:43.000Z</time>
      </trkpt>
      <trkpt lat="42.294405" lon="-0.43685">
        <ele>1415.2</ele>
        <time>2018-07-22T05:57:44.000Z</time>
      </trkpt>
      <trkpt lat="42.294404" lon="-0.43685">
        <ele>1415.2</ele>
        <time>2018-07-22T05:57:45.000Z</time>
      </trkpt>
      <trkpt lat="42.294404" lon="-0.43685">
        <ele>1415.2</ele>
        <time>2018-07-22T05:57:46.000Z</time>
      </trkpt>
      <trkpt lat="42.294404" lon="-0.436851">
        <ele>1415.2</ele>
        <time>2018-07-22T05:57:47.000Z</time>
      </trkpt>
      <trkpt lat="42.294404" lon="-0.436851">
        <ele>1415.2</ele>
        <time>2018-07-22T05:57:48.000Z</time>
      </trkpt>
      <trkpt lat="42.294403" lon="-0.436852">
        <ele>1415.2</ele>
        <time>2018-07-22T05:57:49.000Z</time>
      </trkpt>
      <trkpt lat="42.294403" lon="-0.436852">
        <ele>1415.2</ele>
        <time>2018-07-22T05:57:50.000Z</time>
      </trkpt>
      <trkpt lat="42.294403" lon="-0.436853">
        <ele>1415.2</ele>
        <time>2018-07-22T05:57:51.000Z</time>
      </trkpt>
      <trkpt lat="42.294403" lon="-0.436854">
        <ele>1415.2</ele>
        <time>2018-07-22T05:57:52.000Z</time>
      </trkpt>
      <trkpt lat="42.294403" lon="-0.436854">
        <ele>1415.2</ele>
        <time>2018-07-22T05:57:53.000Z</time>
      </trkpt>
      <trkpt lat="42.294402" lon="-0.436854">
        <ele>1415.2</ele>
        <time>2018-07-22T05:57:54.000Z</time>
      </trkpt>
      <trkpt lat="42.294402" lon="-0.436855">
        <ele>1415.3</ele>
        <time>2018-07-22T05:57:55.000Z</time>
      </trkpt>
      <trkpt lat="42.294401" lon="-0.436857">
        <ele>1415.3</ele>
        <time>2018-07-22T05:57:56.000Z</time>
      </trkpt>
      <trkpt lat="42.294401" lon="-0.436864">
        <ele>1415.4</ele>
        <time>2018-07-22T05:57:57.000Z</time>
      </trkpt>
      <trkpt lat="42.294403" lon="-0.436879">
        <ele>1415.6</ele>
        <time>2018-07-22T05:57:58.000Z</time>
      </trkpt>
      <trkpt lat="42.294404" lon="-0.436892">
        <ele>1415.8</ele>
        <time>2018-07-22T05:57:59.000Z</time>
      </trkpt>
      <trkpt lat="42.294404" lon="-0.436904">
        <ele>1416.0</ele>
        <time>2018-07-22T05:58:00.000Z</time>
      </trkpt>
      <trkpt lat="42.294404" lon="-0.436915">
        <ele>1416.2</ele>
        <time>2018-07-22T05:58:01.000Z</time>
      </trkpt>
      <trkpt lat="42.294404" lon="-0.436927">
        <ele>1416.4</ele>
        <time>2018-07-22T05:58:02.000Z</time>
      </trkpt>
      <trkpt lat="42.294404" lon="-0.436937">
        <ele>1416.5</ele>
        <time>2018-07-22T05:58:03.000Z</time>
      </trkpt>
      <trkpt lat="42.294406" lon="-0.436946">
        <ele>1416.6</ele>
        <time>2018-07-22T05:58:04.000Z</time>
      </trkpt>
      <trkpt lat="42.294408" lon="-0.436953">
        <ele>1416.8</ele>
        <time>2018-07-22T05:58:05.000Z</time>
      </trkpt>
      <trkpt lat="42.294411" lon="-0.436959">
        <ele>1416.9</ele>
        <time>2018-07-22T05:58:06.000Z</time>
      </trkpt>
      <trkpt lat="42.294413" lon="-0.436963">
        <ele>1416.9</ele>
        <time>2018-07-22T05:58:07.000Z</time>
      </trkpt>
      <trkpt lat="42.294415" lon="-0.436967">
        <ele>1417.0</ele>
        <time>2018-07-22T05:58:08.000Z</time>
      </trkpt>
      <trkpt lat="42.294416" lon="-0.43697">
        <ele>1417.0</ele>
        <time>2018-07-22T05:58:09.000Z</time>
      </trkpt>
      <trkpt lat="42.294418" lon="-0.436973">
        <ele>1417.1</ele>
        <time>2018-07-22T05:58:10.000Z</time>
      </trkpt>
      <trkpt lat="42.294419" lon="-0.436976">
        <ele>1417.1</ele>
        <time>2018-07-22T05:58:11.000Z</time>
      </trkpt>
      <trkpt lat="42.294419" lon="-0.436978">
        <ele>1417.2</ele>
        <time>2018-07-22T05:58:12.000Z</time>
      </trkpt>
      <trkpt lat="42.294419" lon="-0.436981">
        <ele>1417.2</ele>
        <time>2018-07-22T05:58:13.000Z</time>
      </trkpt>
      <trkpt lat="42.294419" lon="-0.436983">
        <ele>1417.3</ele>
        <time>2018-07-22T05:58:14.000Z</time>
      </trkpt>
      <trkpt lat="42.29442" lon="-0.436987">
        <ele>1417.3</ele>
        <time>2018-07-22T05:58:15.000Z</time>
      </trkpt>
      <trkpt lat="42.294422" lon="-0.436996">
        <ele>1417.5</ele>
        <time>2018-07-22T05:58:16.000Z</time>
      </trkpt>
      <trkpt lat="42.294425" lon="-0.437005">
        <ele>1417.6</ele>
        <time>2018-07-22T05:58:17.000Z</time>
      </trkpt>
      <trkpt lat="42.294426" lon="-0.437012">
        <ele>1417.7</ele>
        <time>2018-07-22T05:58:18.000Z</time>
      </trkpt>
      <trkpt lat="42.294426" lon="-0.437018">
        <ele>1417.8</ele>
        <time>2018-07-22T05:58:19.000Z</time>
      </trkpt>
      <trkpt lat="42.294424" lon="-0.437025">
        <ele>1417.9</ele>
        <time>2018-07-22T05:58:20.000Z</time>
      </trkpt>
      <trkpt lat="42.294419" lon="-0.437034">
        <ele>1418.0</ele>
        <time>2018-07-22T05:58:21.000Z</time>
      </trkpt>
      <trkpt lat="42.294414" lon="-0.437044">
        <ele>1418.2</ele>
        <time>2018-07-22T05:58:22.000Z</time>
      </trkpt>
      <trkpt lat="42.294409" lon="-0.437052">
        <ele>1418.3</ele>
        <time>2018-07-22T05:58:23.000Z</time>
      </trkpt>
      <trkpt lat="42.294406" lon="-0.437059">
        <ele>1418.4</ele>
        <time>2018-07-22T05:58:24.000Z</time>
      </trkpt>
      <trkpt lat="42.294404" lon="-0.437064">
        <ele>1418.4</ele>
        <time>2018-07-22T05:58:25.000Z</time>
      </trkpt>
      <trkpt lat="42.294403" lon="-0.437069">
        <ele>1418.5</ele>
        <time>2018-07-22T05:58:26.000Z</time>
      </trkpt>
      <trkpt lat="42.294402" lon="-0.437072">
        <ele>1418.5</ele>
        <time>2018-07-22T05:58:27.000Z</time>
      </trkpt>
      <trkpt lat="42.294401" lon="-0.437076">
        <ele>1418.6</ele>
        <time>2018-07-22T05:58:28.000Z</time>
      </trkpt>
      <trkpt lat="42.294401" lon="-0.437079">
        <ele>1418.6</ele>
        <time>2018-07-22T05:58:29.000Z</time>
      </trkpt>
      <trkpt lat="42.2944" lon="-0.437082">
        <ele>1418.7</ele>
        <time>2018-07-22T05:58:30.000Z</time>
      </trkpt>
      <trkpt lat="42.294399" lon="-0.437085">
        <ele>1418.7</ele>
        <time>2018-07-22T05:58:31.000Z</time>
      </trkpt>
      <trkpt lat="42.294398" lon="-0.437088">
        <ele>1418.8</ele>
        <time>2018-07-22T05:58:32.000Z</time>
      </trkpt>
      <trkpt lat="42.294397" lon="-0.43709">
        <ele>1418.8</ele>
        <time>2018-07-22T05:58:33.000Z</time>
      </trkpt>
      <trkpt lat="42.294397" lon="-0.437093">
        <ele>1418.8</ele>
        <time>2018-07-22T05:58:34.000Z</time>
      </trkpt>
      <trkpt lat="42.294396" lon="-0.437096">
        <ele>1418.9</ele>
        <time>2018-07-22T05:58:35.000Z</time>
      </trkpt>
      <trkpt lat="42.294395" lon="-0.437102">
        <ele>1419.0</ele>
        <time>2018-07-22T05:58:36.000Z</time>
      </trkpt>
      <trkpt lat="42.294395" lon="-0.437108">
        <ele>1419.1</ele>
        <time>2018-07-22T05:58:37.000Z</time>
      </trkpt>
      <trkpt lat="42.294396" lon="-0.437116">
        <ele>1419.2</ele>
        <time>2018-07-22T05:58:38.000Z</time>
      </trkpt>
      <trkpt lat="42.294398" lon="-0.43712">
        <ele>1419.2</ele>
        <time>2018-07-22T05:58:39.000Z</time>
      </trkpt>
      <trkpt lat="42.294399" lon="-0.437124">
        <ele>1419.3</ele>
        <time>2018-07-22T05:58:40.000Z</time>
      </trkpt>
      <trkpt lat="42.2944" lon="-0.437127">
        <ele>1419.4</ele>
        <time>2018-07-22T05:58:41.000Z</time>
      </trkpt>
      <trkpt lat="42.294401" lon="-0.43713">
        <ele>1419.4</ele>
        <time>2018-07-22T05:58:42.000Z</time>
      </trkpt>
      <trkpt lat="42.294402" lon="-0.437133">
        <ele>1419.5</ele>
        <time>2018-07-22T05:58:43.000Z</time>
      </trkpt>
      <trkpt lat="42.294403" lon="-0.437136">
        <ele>1419.5</ele>
        <time>2018-07-22T05:58:44.000Z</time>
      </trkpt>
      <trkpt lat="42.294404" lon="-0.437138">
        <ele>1419.5</ele>
        <time>2018-07-22T05:58:45.000Z</time>
      </trkpt>
      <trkpt lat="42.294405" lon="-0.43714">
        <ele>1419.6</ele>
        <time>2018-07-22T05:58:46.000Z</time>
      </trkpt>
      <trkpt lat="42.294405" lon="-0.437142">
        <ele>1419.6</ele>
        <time>2018-07-22T05:58:47.000Z</time>
      </trkpt>
      <trkpt lat="42.294406" lon="-0.437144">
        <ele>1419.6</ele>
        <time>2018-07-22T05:58:48.000Z</time>
      </trkpt>
      <trkpt lat="42.294406" lon="-0.437146">
        <ele>1419.7</ele>
        <time>2018-07-22T05:58:49.000Z</time>
      </trkpt>
      <trkpt lat="42.294407" lon="-0.437147">
        <ele>1419.7</ele>
        <time>2018-07-22T05:58:50.000Z</time>
      </trkpt>
      <trkpt lat="42.294407" lon="-0.437148">
        <ele>1419.7</ele>
        <time>2018-07-22T05:58:51.000Z</time>
      </trkpt>
      <trkpt lat="42.294407" lon="-0.437149">
        <ele>1419.7</ele>
        <time>2018-07-22T05:58:52.000Z</time>
      </trkpt>
      <trkpt lat="42.294407" lon="-0.43715">
        <ele>1419.7</ele>
        <time>2018-07-22T05:58:53.000Z</time>
      </trkpt>
      <trkpt lat="42.294407" lon="-0.437151">
        <ele>1419.7</ele>
        <time>2018-07-22T05:58:54.000Z</time>
      </trkpt>
      <trkpt lat="42.294407" lon="-0.437152">
        <ele>1419.8</ele>
        <time>2018-07-22T05:58:55.000Z</time>
      </trkpt>
      <trkpt lat="42.294408" lon="-0.437153">
        <ele>1419.8</ele>
        <time>2018-07-22T05:58:56.000Z</time>
      </trkpt>
      <trkpt lat="42.294407" lon="-0.437155">
        <ele>1419.8</ele>
        <time>2018-07-22T05:58:57.000Z</time>
      </trkpt>
      <trkpt lat="42.294407" lon="-0.437157">
        <ele>1419.8</ele>
        <time>2018-07-22T05:58:58.000Z</time>
      </trkpt>
      <trkpt lat="42.294407" lon="-0.437159">
        <ele>1419.9</ele>
        <time>2018-07-22T05:58:59.000Z</time>
      </trkpt>
      <trkpt lat="42.294406" lon="-0.437162">
        <ele>1419.9</ele>
        <time>2018-07-22T05:59:00.000Z</time>
      </trkpt>
      <trkpt lat="42.294407" lon="-0.437165">
        <ele>1420.0</ele>
        <time>2018-07-22T05:59:01.000Z</time>
      </trkpt>
      <trkpt lat="42.294414" lon="-0.437167">
        <ele>1420.0</ele>
        <time>2018-07-22T05:59:02.000Z</time>
      </trkpt>
      <trkpt lat="42.294418" lon="-0.437169">
        <ele>1420.0</ele>
        <time>2018-07-22T05:59:03.000Z</time>
      </trkpt>
      <trkpt lat="42.29442" lon="-0.43717">
        <ele>1420.1</ele>
        <time>2018-07-22T05:59:04.000Z</time>
      </trkpt>
      <trkpt lat="42.294422" lon="-0.437172">
        <ele>1420.1</ele>
        <time>2018-07-22T05:59:05.000Z</time>
      </trkpt>
      <trkpt lat="42.294424" lon="-0.437174">
        <ele>1420.1</ele>
        <time>2018-07-22T05:59:06.000Z</time>
      </trkpt>
      <trkpt lat="42.294425" lon="-0.437175">
        <ele>1420.1</ele>
        <time>2018-07-22T05:59:07.000Z</time>
      </trkpt>
      <trkpt lat="42.294427" lon="-0.437176">
        <ele>1420.2</ele>
        <time>2018-07-22T05:59:08.000Z</time>
      </trkpt>
      <trkpt lat="42.294428" lon="-0.437178">
        <ele>1420.2</ele>
        <time>2018-07-22T05:59:09.000Z</time>
      </trkpt>
      <trkpt lat="42.294429" lon="-0.437179">
        <ele>1420.2</ele>
        <time>2018-07-22T05:59:10.000Z</time>
      </trkpt>
      <trkpt lat="42.29443" lon="-0.43718">
        <ele>1420.2</ele>
        <time>2018-07-22T05:59:11.000Z</time>
      </trkpt>
      <trkpt lat="42.29443" lon="-0.437181">
        <ele>1420.2</ele>
        <time>2018-07-22T05:59:12.000Z</time>
      </trkpt>
      <trkpt lat="42.294431" lon="-0.437182">
        <ele>1420.3</ele>
        <time>2018-07-22T05:59:13.000Z</time>
      </trkpt>
      <trkpt lat="42.294431" lon="-0.437183">
        <ele>1420.3</ele>
        <time>2018-07-22T05:59:14.000Z</time>
      </trkpt>
      <trkpt lat="42.294432" lon="-0.437184">
        <ele>1420.3</ele>
        <time>2018-07-22T05:59:15.000Z</time>
      </trkpt>
      <trkpt lat="42.294432" lon="-0.437184">
        <ele>1420.3</ele>
        <time>2018-07-22T05:59:16.000Z</time>
      </trkpt>
      <trkpt lat="42.294432" lon="-0.437185">
        <ele>1420.3</ele>
        <time>2018-07-22T05:59:17.000Z</time>
      </trkpt>
      <trkpt lat="42.294433" lon="-0.437185">
        <ele>1420.3</ele>
        <time>2018-07-22T05:59:18.000Z</time>
      </trkpt>
      <trkpt lat="42.294433" lon="-0.437186">
        <ele>1420.3</ele>
        <time>2018-07-22T05:59:19.000Z</time>
      </trkpt>
      <trkpt lat="42.294433" lon="-0.437186">
        <ele>1420.3</ele>
        <time>2018-07-22T05:59:20.000Z</time>
      </trkpt>
      <trkpt lat="42.294433" lon="-0.437186">
        <ele>1420.3</ele>
        <time>2018-07-22T05:59:21.000Z</time>
      </trkpt>
      <trkpt lat="42.294433" lon="-0.437187">
        <ele>1420.3</ele>
        <time>2018-07-22T05:59:22.000Z</time>
      </trkpt>
      <trkpt lat="42.294433" lon="-0.437187">
        <ele>1420.3</ele>
        <time>2018-07-22T05:59:23.000Z</time>
      </trkpt>
      <trkpt lat="42.294433" lon="-0.437187">
        <ele>1420.3</ele>
        <time>2018-07-22T05:59:24.000Z</time>
      </trkpt>
      <trkpt lat="42.294433" lon="-0.437187">
        <ele>1420.3</ele>
        <time>2018-07-22T05:59:25.000Z</time>
      </trkpt>
      <trkpt lat="42.294433" lon="-0.437187">
        <ele>1420.3</ele>
        <time>2018-07-22T05:59:26.000Z</time>
      </trkpt>
      <trkpt lat="42.294433" lon="-0.437187">
        <ele>1420.3</ele>
        <time>2018-07-22T05:59:27.000Z</time>
      </trkpt>
      <trkpt lat="42.294433" lon="-0.437187">
        <ele>1420.3</ele>
        <time>2018-07-22T05:59:28.000Z</time>
      </trkpt>
      <trkpt lat="42.294433" lon="-0.437187">
        <ele>1420.3</ele>
        <time>2018-07-22T05:59:29.000Z</time>
      </trkpt>
      <trkpt lat="42.294433" lon="-0.437187">
        <ele>1420.3</ele>
        <time>2018-07-22T05:59:30.000Z</time>
      </trkpt>
      <trkpt lat="42.294433" lon="-0.437187">
        <ele>1420.3</ele>
        <time>2018-07-22T05:59:31.000Z</time>
      </trkpt>
      <trkpt lat="42.294433" lon="-0.437187">
        <ele>1420.3</ele>
        <time>2018-07-22T05:59:32.000Z</time>
      </trkpt>
      <trkpt lat="42.294433" lon="-0.437187">
        <ele>1420.3</ele>
        <time>2018-07-22T05:59:33.000Z</time>
      </trkpt>
      <trkpt lat="42.294433" lon="-0.437187">
        <ele>1420.3</ele>
        <time>2018-07-22T05:59:34.000Z</time>
      </trkpt>
      <trkpt lat="42.294433" lon="-0.437188">
        <ele>1420.4</ele>
        <time>2018-07-22T05:59:35.000Z</time>
      </trkpt>
      <trkpt lat="42.294433" lon="-0.437188">
        <ele>1420.4</ele>
        <time>2018-07-22T05:59:36.000Z</time>
      </trkpt>
      <trkpt lat="42.294433" lon="-0.437188">
        <ele>1420.4</ele>
        <time>2018-07-22T05:59:37.000Z</time>
      </trkpt>
      <trkpt lat="42.294434" lon="-0.437189">
        <ele>1420.4</ele>
        <time>2018-07-22T05:59:38.000Z</time>
      </trkpt>
      <trkpt lat="42.294434" lon="-0.437189">
        <ele>1420.4</ele>
        <time>2018-07-22T05:59:39.000Z</time>
      </trkpt>
      <trkpt lat="42.294434" lon="-0.43719">
        <ele>1420.4</ele>
        <time>2018-07-22T05:59:40.000Z</time>
      </trkpt>
      <trkpt lat="42.294435" lon="-0.437191">
        <ele>1420.4</ele>
        <time>2018-07-22T05:59:41.000Z</time>
      </trkpt>
      <trkpt lat="42.294436" lon="-0.437193">
        <ele>1420.4</ele>
        <time>2018-07-22T05:59:42.000Z</time>
      </trkpt>
      <trkpt lat="42.294438" lon="-0.437195">
        <ele>1420.5</ele>
        <time>2018-07-22T05:59:43.000Z</time>
      </trkpt>
      <trkpt lat="42.29444" lon="-0.437197">
        <ele>1420.5</ele>
        <time>2018-07-22T05:59:44.000Z</time>
      </trkpt>
      <trkpt lat="42.294442" lon="-0.437198">
        <ele>1420.5</ele>
        <time>2018-07-22T05:59:45.000Z</time>
      </trkpt>
      <trkpt lat="42.294443" lon="-0.437199">
        <ele>1420.5</ele>
        <time>2018-07-22T05:59:46.000Z</time>
      </trkpt>
      <trkpt lat="42.294447" lon="-0.437202">
        <ele>1420.6</ele>
        <time>2018-07-22T05:59:47.000Z</time>
      </trkpt>
      <trkpt lat="42.29445" lon="-0.437205">
        <ele>1420.6</ele>
        <time>2018-07-22T05:59:48.000Z</time>
      </trkpt>
      <trkpt lat="42.294453" lon="-0.437206">
        <ele>1420.7</ele>
        <time>2018-07-22T05:59:49.000Z</time>
      </trkpt>
      <trkpt lat="42.294454" lon="-0.437207">
        <ele>1420.7</ele>
        <time>2018-07-22T05:59:50.000Z</time>
      </trkpt>
      <trkpt lat="42.294455" lon="-0.437209">
        <ele>1420.7</ele>
        <time>2018-07-22T05:59:51.000Z</time>
      </trkpt>
      <trkpt lat="42.294456" lon="-0.437209">
        <ele>1420.7</ele>
        <time>2018-07-22T05:59:52.000Z</time>
      </trkpt>
      <trkpt lat="42.294457" lon="-0.43721">
        <ele>1420.7</ele>
        <time>2018-07-22T05:59:53.000Z</time>
      </trkpt>
      <trkpt lat="42.294457" lon="-0.437211">
        <ele>1420.7</ele>
        <time>2018-07-22T05:59:54.000Z</time>
      </trkpt>
      <trkpt lat="42.294458" lon="-0.437212">
        <ele>1420.8</ele>
        <time>2018-07-22T05:59:55.000Z</time>
      </trkpt>
      <trkpt lat="42.294458" lon="-0.437213">
        <ele>1420.8</ele>
        <time>2018-07-22T05:59:56.000Z</time>
      </trkpt>
      <trkpt lat="42.294459" lon="-0.437213">
        <ele>1420.8</ele>
        <time>2018-07-22T05:59:57.000Z</time>
      </trkpt>
      <trkpt lat="42.294459" lon="-0.437214">
        <ele>1420.8</ele>
        <time>2018-07-22T05:59:58.000Z</time>
      </trkpt>
      <trkpt lat="42.29446" lon="-0.437215">
        <ele>1420.8</ele>
        <time>2018-07-22T05:59:59.000Z</time>
      </trkpt>
      <trkpt lat="42.29446" lon="-0.437216">
        <ele>1420.8</ele>
        <time>2018-07-22T06:00:00.000Z</time>
      </trkpt>
      <trkpt lat="42.294461" lon="-0.437216">
        <ele>1420.8</ele>
        <time>2018-07-22T06:00:01.000Z</time>
      </trkpt>
      <trkpt lat="42.294462" lon="-0.437217">
        <ele>1420.8</ele>
        <time>2018-07-22T06:00:02.000Z</time>
      </trkpt>
      <trkpt lat="42.294462" lon="-0.437217">
        <ele>1420.8</ele>
        <time>2018-07-22T06:00:03.000Z</time>
      </trkpt>
      <trkpt lat="42.294463" lon="-0.437218">
        <ele>1420.9</ele>
        <time>2018-07-22T06:00:04.000Z</time>
      </trkpt>
      <trkpt lat="42.294463" lon="-0.437219">
        <ele>1420.9</ele>
        <time>2018-07-22T06:00:05.000Z</time>
      </trkpt>
      <trkpt lat="42.294464" lon="-0.437219">
        <ele>1420.9</ele>
        <time>2018-07-22T06:00:06.000Z</time>
      </trkpt>
      <trkpt lat="42.294464" lon="-0.43722">
        <ele>1420.9</ele>
        <time>2018-07-22T06:00:07.000Z</time>
      </trkpt>
      <trkpt lat="42.294465" lon="-0.43722">
        <ele>1420.9</ele>
        <time>2018-07-22T06:00:08.000Z</time>
      </trkpt>
      <trkpt lat="42.294465" lon="-0.437221">
        <ele>1420.9</ele>
        <time>2018-07-22T06:00:09.000Z</time>
      </trkpt>
      <trkpt lat="42.294466" lon="-0.437221">
        <ele>1420.9</ele>
        <time>2018-07-22T06:00:10.000Z</time>
      </trkpt>
      <trkpt lat="42.294466" lon="-0.437222">
        <ele>1420.9</ele>
        <time>2018-07-22T06:00:11.000Z</time>
      </trkpt>
      <trkpt lat="42.294467" lon="-0.437223">
        <ele>1420.9</ele>
        <time>2018-07-22T06:00:12.000Z</time>
      </trkpt>
      <trkpt lat="42.294467" lon="-0.437223">
        <ele>1420.9</ele>
        <time>2018-07-22T06:00:13.000Z</time>
      </trkpt>
      <trkpt lat="42.294468" lon="-0.437224">
        <ele>1421.0</ele>
        <time>2018-07-22T06:00:14.000Z</time>
      </trkpt>
      <trkpt lat="42.294469" lon="-0.437224">
        <ele>1421.0</ele>
        <time>2018-07-22T06:00:15.000Z</time>
      </trkpt>
      <trkpt lat="42.29447" lon="-0.437224">
        <ele>1421.0</ele>
        <time>2018-07-22T06:00:16.000Z</time>
      </trkpt>
      <trkpt lat="42.29447" lon="-0.437223">
        <ele>1421.0</ele>
        <time>2018-07-22T06:00:17.000Z</time>
      </trkpt>
      <trkpt lat="42.294467" lon="-0.437222">
        <ele>1420.9</ele>
        <time>2018-07-22T06:00:18.000Z</time>
      </trkpt>
      <trkpt lat="42.294461" lon="-0.437219">
        <ele>1420.9</ele>
        <time>2018-07-22T06:00:19.000Z</time>
      </trkpt>
      <trkpt lat="42.294453" lon="-0.437213">
        <ele>1420.8</ele>
        <time>2018-07-22T06:00:20.000Z</time>
      </trkpt>
      <trkpt lat="42.294447" lon="-0.437203">
        <ele>1420.6</ele>
        <time>2018-07-22T06:00:21.000Z</time>
      </trkpt>
      <trkpt lat="42.294441" lon="-0.437194">
        <ele>1420.5</ele>
        <time>2018-07-22T06:00:22.000Z</time>
      </trkpt>
      <trkpt lat="42.294435" lon="-0.437187">
        <ele>1420.3</ele>
        <time>2018-07-22T06:00:23.000Z</time>
      </trkpt>
      <trkpt lat="42.294429" lon="-0.437188">
        <ele>1420.3</ele>
        <time>2018-07-22T06:00:24.000Z</time>
      </trkpt>
      <trkpt lat="42.294422" lon="-0.437192">
        <ele>1420.4</ele>
        <time>2018-07-22T06:00:25.000Z</time>
      </trkpt>
      <trkpt lat="42.294416" lon="-0.437198">
        <ele>1420.5</ele>
        <time>2018-07-22T06:00:26.000Z</time>
      </trkpt>
      <trkpt lat="42.29441" lon="-0.437203">
        <ele>1420.5</ele>
        <time>2018-07-22T06:00:27.000Z</time>
      </trkpt>
      <trkpt lat="42.294405" lon="-0.437208">
        <ele>1420.6</ele>
        <time>2018-07-22T06:00:28.000Z</time>
      </trkpt>
      <trkpt lat="42.294401" lon="-0.437214">
        <ele>1420.7</ele>
        <time>2018-07-22T06:00:29.000Z</time>
      </trkpt>
      <trkpt lat="42.294398" lon="-0.437222">
        <ele>1420.8</ele>
        <time>2018-07-22T06:00:30.000Z</time>
      </trkpt>
      <trkpt lat="42.294395" lon="-0.437231">
        <ele>1420.9</ele>
        <time>2018-07-22T06:00:31.000Z</time>
      </trkpt>
      <trkpt lat="42.294393" lon="-0.437238">
        <ele>1421.0</ele>
        <time>2018-07-22T06:00:32.000Z</time>
      </trkpt>
      <trkpt lat="42.29439" lon="-0.437245">
        <ele>1421.1</ele>
        <time>2018-07-22T06:00:33.000Z</time>
      </trkpt>
      <trkpt lat="42.294387" lon="-0.43725">
        <ele>1421.2</ele>
        <time>2018-07-22T06:00:34.000Z</time>
      </trkpt>
      <trkpt lat="42.294385" lon="-0.437254">
        <ele>1421.3</ele>
        <time>2018-07-22T06:00:35.000Z</time>
      </trkpt>
      <trkpt lat="42.294383" lon="-0.437257">
        <ele>1421.3</ele>
        <time>2018-07-22T06:00:36.000Z</time>
      </trkpt>
      <trkpt lat="42.294381" lon="-0.43726">
        <ele>1421.3</ele>
        <time>2018-07-22T06:00:37.000Z</time>
      </trkpt>
      <trkpt lat="42.29438" lon="-0.437261">
        <ele>1421.4</ele>
        <time>2018-07-22T06:00:38.000Z</time>
      </trkpt>
      <trkpt lat="42.29438" lon="-0.437262">
        <ele>1421.4</ele>
        <time>2018-07-22T06:00:39.000Z</time>
      </trkpt>
      <trkpt lat="42.294379" lon="-0.437263">
        <ele>1421.4</ele>
        <time>2018-07-22T06:00:40.000Z</time>
      </trkpt>
      <trkpt lat="42.294378" lon="-0.437264">
        <ele>1421.4</ele>
        <time>2018-07-22T06:00:41.000Z</time>
      </trkpt>
      <trkpt lat="42.294377" lon="-0.437266">
        <ele>1421.4</ele>
        <time>2018-07-22T06:00:42.000Z</time>
      </trkpt>
      <trkpt lat="42.294375" lon="-0.437269">
        <ele>1421.5</ele>
        <time>2018-07-22T06:00:43.000Z</time>
      </trkpt>
      <trkpt lat="42.294372" lon="-0.437272">
        <ele>1421.5</ele>
        <time>2018-07-22T06:00:44.000Z</time>
      </trkpt>
      <trkpt lat="42.294368" lon="-0.437278">
        <ele>1421.6</ele>
        <time>2018-07-22T06:00:45.000Z</time>
      </trkpt>
      <trkpt lat="42.29436" lon="-0.437287">
        <ele>1421.7</ele>
        <time>2018-07-22T06:00:46.000Z</time>
      </trkpt>
      <trkpt lat="42.294358" lon="-0.437293">
        <ele>1421.8</ele>
        <time>2018-07-22T06:00:47.000Z</time>
      </trkpt>
      <trkpt lat="42.294357" lon="-0.437304">
        <ele>1422.0</ele>
        <time>2018-07-22T06:00:48.000Z</time>
      </trkpt>
      <trkpt lat="42.294357" lon="-0.437309">
        <ele>1422.1</ele>
        <time>2018-07-22T06:00:49.000Z</time>
      </trkpt>
      <trkpt lat="42.294357" lon="-0.437311">
        <ele>1422.1</ele>
        <time>2018-07-22T06:00:50.000Z</time>
      </trkpt>
      <trkpt lat="42.294358" lon="-0.437315">
        <ele>1422.1</ele>
        <time>2018-07-22T06:00:51.000Z</time>
      </trkpt>
      <trkpt lat="42.29436" lon="-0.437323">
        <ele>1422.3</ele>
        <time>2018-07-22T06:00:52.000Z</time>
      </trkpt>
      <trkpt lat="42.294363" lon="-0.437332">
        <ele>1422.4</ele>
        <time>2018-07-22T06:00:53.000Z</time>
      </trkpt>
      <trkpt lat="42.294366" lon="-0.437338">
        <ele>1422.5</ele>
        <time>2018-07-22T06:00:54.000Z</time>
      </trkpt>
      <trkpt lat="42.294368" lon="-0.437341">
        <ele>1422.6</ele>
        <time>2018-07-22T06:00:55.000Z</time>
      </trkpt>
      <trkpt lat="42.294371" lon="-0.437343">
        <ele>1422.6</ele>
        <time>2018-07-22T06:00:56.000Z</time>
      </trkpt>
      <trkpt lat="42.294372" lon="-0.437346">
        <ele>1422.6</ele>
        <time>2018-07-22T06:00:57.000Z</time>
      </trkpt>
      <trkpt lat="42.294373" lon="-0.437349">
        <ele>1422.7</ele>
        <time>2018-07-22T06:00:58.000Z</time>
      </trkpt>
      <trkpt lat="42.294374" lon="-0.437352">
        <ele>1422.7</ele>
        <time>2018-07-22T06:00:59.000Z</time>
      </trkpt>
      <trkpt lat="42.294374" lon="-0.437356">
        <ele>1422.8</ele>
        <time>2018-07-22T06:01:00.000Z</time>
      </trkpt>
      <trkpt lat="42.294374" lon="-0.437362">
        <ele>1422.9</ele>
        <time>2018-07-22T06:01:01.000Z</time>
      </trkpt>
      <trkpt lat="42.294372" lon="-0.437372">
        <ele>1423.0</ele>
        <time>2018-07-22T06:01:02.000Z</time>
      </trkpt>
      <trkpt lat="42.294371" lon="-0.437379">
        <ele>1423.1</ele>
        <time>2018-07-22T06:01:03.000Z</time>
      </trkpt>
      <trkpt lat="42.294367" lon="-0.43739">
        <ele>1423.3</ele>
        <time>2018-07-22T06:01:04.000Z</time>
      </trkpt>
      <trkpt lat="42.294362" lon="-0.437397">
        <ele>1423.4</ele>
        <time>2018-07-22T06:01:05.000Z</time>
      </trkpt>
      <trkpt lat="42.294359" lon="-0.437399">
        <ele>1423.4</ele>
        <time>2018-07-22T06:01:06.000Z</time>
      </trkpt>
      <trkpt lat="42.294354" lon="-0.437403">
        <ele>1423.5</ele>
        <time>2018-07-22T06:01:07.000Z</time>
      </trkpt>
      <trkpt lat="42.294351" lon="-0.437405">
        <ele>1423.5</ele>
        <time>2018-07-22T06:01:08.000Z</time>
      </trkpt>
      <trkpt lat="42.294349" lon="-0.437406">
        <ele>1423.5</ele>
        <time>2018-07-22T06:01:09.000Z</time>
      </trkpt>
      <trkpt lat="42.294348" lon="-0.437407">
        <ele>1423.6</ele>
        <time>2018-07-22T06:01:10.000Z</time>
      </trkpt>
      <trkpt lat="42.294347" lon="-0.437409">
        <ele>1423.6</ele>
        <time>2018-07-22T06:01:11.000Z</time>
      </trkpt>
      <trkpt lat="42.294345" lon="-0.437411">
        <ele>1423.6</ele>
        <time>2018-07-22T06:01:12.000Z</time>
      </trkpt>
      <trkpt lat="42.294342" lon="-0.437414">
        <ele>1423.7</ele>
        <time>2018-07-22T06:01:13.000Z</time>
      </trkpt>
      <trkpt lat="42.29434" lon="-0.437416">
        <ele>1423.7</ele>
        <time>2018-07-22T06:01:14.000Z</time>
      </trkpt>
      <trkpt lat="42.294338" lon="-0.437419">
        <ele>1423.7</ele>
        <time>2018-07-22T06:01:15.000Z</time>
      </trkpt>
      <trkpt lat="42.294335" lon="-0.437422">
        <ele>1423.8</ele>
        <time>2018-07-22T06:01:16.000Z</time>
      </trkpt>
      <trkpt lat="42.294333" lon="-0.437425">
        <ele>1423.8</ele>
        <time>2018-07-22T06:01:17.000Z</time>
      </trkpt>
      <trkpt lat="42.294329" lon="-0.437432">
        <ele>1423.9</ele>
        <time>2018-07-22T06:01:18.000Z</time>
      </trkpt>
      <trkpt lat="42.294326" lon="-0.437445">
        <ele>1424.1</ele>
        <time>2018-07-22T06:01:19.000Z</time>
      </trkpt>
      <trkpt lat="42.294325" lon="-0.437455">
        <ele>1424.3</ele>
        <time>2018-07-22T06:01:20.000Z</time>
      </trkpt>
      <trkpt lat="42.294324" lon="-0.437466">
        <ele>1424.5</ele>
        <time>2018-07-22T06:01:21.000Z</time>
      </trkpt>
      <trkpt lat="42.294324" lon="-0.437476">
        <ele>1424.6</ele>
        <time>2018-07-22T06:01:22.000Z</time>
      </trkpt>
      <trkpt lat="42.294324" lon="-0.437486">
        <ele>1424.8</ele>
        <time>2018-07-22T06:01:23.000Z</time>
      </trkpt>
      <trkpt lat="42.294323" lon="-0.437496">
        <ele>1424.9</ele>
        <time>2018-07-22T06:01:24.000Z</time>
      </trkpt>
      <trkpt lat="42.294323" lon="-0.437505">
        <ele>1425.0</ele>
        <time>2018-07-22T06:01:25.000Z</time>
      </trkpt>
      <trkpt lat="42.294323" lon="-0.437513">
        <ele>1425.1</ele>
        <time>2018-07-22T06:01:26.000Z</time>
      </trkpt>
      <trkpt lat="42.294322" lon="-0.437521">
        <ele>1425.1</ele>
        <time>2018-07-22T06:01:27.000Z</time>
      </trkpt>
      <trkpt lat="42.294321" lon="-0.437529">
        <ele>1425.1</ele>
        <time>2018-07-22T06:01:28.000Z</time>
      </trkpt>
      <trkpt lat="42.29432" lon="-0.437535">
        <ele>1425.2</ele>
        <time>2018-07-22T06:01:29.000Z</time>
      </trkpt>
      <trkpt lat="42.294319" lon="-0.437542">
        <ele>1425.2</ele>
        <time>2018-07-22T06:01:30.000Z</time>
      </trkpt>
      <trkpt lat="42.294318" lon="-0.437547">
        <ele>1425.2</ele>
        <time>2018-07-22T06:01:31.000Z</time>
      </trkpt>
      <trkpt lat="42.294316" lon="-0.437552">
        <ele>1425.2</ele>
        <time>2018-07-22T06:01:32.000Z</time>
      </trkpt>
      <trkpt lat="42.294315" lon="-0.437557">
        <ele>1425.3</ele>
        <time>2018-07-22T06:01:33.000Z</time>
      </trkpt>
      <trkpt lat="42.294314" lon="-0.437561">
        <ele>1425.3</ele>
        <time>2018-07-22T06:01:34.000Z</time>
      </trkpt>
      <trkpt lat="42.294313" lon="-0.437564">
        <ele>1425.3</ele>
        <time>2018-07-22T06:01:35.000Z</time>
      </trkpt>
      <trkpt lat="42.294313" lon="-0.437567">
        <ele>1425.3</ele>
        <time>2018-07-22T06:01:36.000Z</time>
      </trkpt>
      <trkpt lat="42.294312" lon="-0.437569">
        <ele>1425.3</ele>
        <time>2018-07-22T06:01:37.000Z</time>
      </trkpt>
      <trkpt lat="42.294312" lon="-0.437572">
        <ele>1425.3</ele>
        <time>2018-07-22T06:01:38.000Z</time>
      </trkpt>
      <trkpt lat="42.29431" lon="-0.437577">
        <ele>1425.4</ele>
        <time>2018-07-22T06:01:39.000Z</time>
      </trkpt>
      <trkpt lat="42.294306" lon="-0.437585">
        <ele>1425.4</ele>
        <time>2018-07-22T06:01:40.000Z</time>
      </trkpt>
      <trkpt lat="42.294303" lon="-0.437592">
        <ele>1425.4</ele>
        <time>2018-07-22T06:01:41.000Z</time>
      </trkpt>
      <trkpt lat="42.294301" lon="-0.437596">
        <ele>1425.5</ele>
        <time>2018-07-22T06:01:42.000Z</time>
      </trkpt>
      <trkpt lat="42.294299" lon="-0.4376">
        <ele>1425.5</ele>
        <time>2018-07-22T06:01:43.000Z</time>
      </trkpt>
      <trkpt lat="42.294298" lon="-0.437603">
        <ele>1425.5</ele>
        <time>2018-07-22T06:01:44.000Z</time>
      </trkpt>
      <trkpt lat="42.294296" lon="-0.437606">
        <ele>1425.5</ele>
        <time>2018-07-22T06:01:45.000Z</time>
      </trkpt>
      <trkpt lat="42.294295" lon="-0.437608">
        <ele>1425.5</ele>
        <time>2018-07-22T06:01:46.000Z</time>
      </trkpt>
      <trkpt lat="42.294295" lon="-0.437609">
        <ele>1425.6</ele>
        <time>2018-07-22T06:01:47.000Z</time>
      </trkpt>
      <trkpt lat="42.294294" lon="-0.43761">
        <ele>1425.6</ele>
        <time>2018-07-22T06:01:48.000Z</time>
      </trkpt>
      <trkpt lat="42.294294" lon="-0.437611">
        <ele>1425.6</ele>
        <time>2018-07-22T06:01:49.000Z</time>
      </trkpt>
      <trkpt lat="42.294293" lon="-0.437612">
        <ele>1425.6</ele>
        <time>2018-07-22T06:01:50.000Z</time>
      </trkpt>
      <trkpt lat="42.294291" lon="-0.437614">
        <ele>1425.6</ele>
        <time>2018-07-22T06:01:51.000Z</time>
      </trkpt>
      <trkpt lat="42.29429" lon="-0.437617">
        <ele>1425.6</ele>
        <time>2018-07-22T06:01:52.000Z</time>
      </trkpt>
      <trkpt lat="42.294288" lon="-0.43762">
        <ele>1425.6</ele>
        <time>2018-07-22T06:01:53.000Z</time>
      </trkpt>
      <trkpt lat="42.294286" lon="-0.437623">
        <ele>1425.7</ele>
        <time>2018-07-22T06:01:54.000Z</time>
      </trkpt>
      <trkpt lat="42.294284" lon="-0.437626">
        <ele>1425.7</ele>
        <time>2018-07-22T06:01:55.000Z</time>
      </trkpt>
      <trkpt lat="42.294282" lon="-0.437629">
        <ele>1425.7</ele>
        <time>2018-07-22T06:01:56.000Z</time>
      </trkpt>
      <trkpt lat="42.294279" lon="-0.437631">
        <ele>1425.7</ele>
        <time>2018-07-22T06:01:57.000Z</time>
      </trkpt>
      <trkpt lat="42.294267" lon="-0.437637">
        <ele>1425.8</ele>
        <time>2018-07-22T06:01:58.000Z</time>
      </trkpt>
      <trkpt lat="42.294259" lon="-0.437646">
        <ele>1425.9</ele>
        <time>2018-07-22T06:01:59.000Z</time>
      </trkpt>
      <trkpt lat="42.294253" lon="-0.437657">
        <ele>1426.0</ele>
        <time>2018-07-22T06:02:00.000Z</time>
      </trkpt>
      <trkpt lat="42.294245" lon="-0.437667">
        <ele>1426.1</ele>
        <time>2018-07-22T06:02:01.000Z</time>
      </trkpt>
      <trkpt lat="42.29424" lon="-0.437677">
        <ele>1426.2</ele>
        <time>2018-07-22T06:02:02.000Z</time>
      </trkpt>
      <trkpt lat="42.294238" lon="-0.437687">
        <ele>1426.2</ele>
        <time>2018-07-22T06:02:03.000Z</time>
      </trkpt>
      <trkpt lat="42.294238" lon="-0.437695">
        <ele>1426.3</ele>
        <time>2018-07-22T06:02:04.000Z</time>
      </trkpt>
      <trkpt lat="42.294238" lon="-0.437702">
        <ele>1426.3</ele>
        <time>2018-07-22T06:02:05.000Z</time>
      </trkpt>
      <trkpt lat="42.294239" lon="-0.437708">
        <ele>1426.4</ele>
        <time>2018-07-22T06:02:06.000Z</time>
      </trkpt>
      <trkpt lat="42.29424" lon="-0.437712">
        <ele>1426.4</ele>
        <time>2018-07-22T06:02:07.000Z</time>
      </trkpt>
      <trkpt lat="42.294241" lon="-0.437716">
        <ele>1426.4</ele>
        <time>2018-07-22T06:02:08.000Z</time>
      </trkpt>
      <trkpt lat="42.294241" lon="-0.437719">
        <ele>1426.4</ele>
        <time>2018-07-22T06:02:09.000Z</time>
      </trkpt>
      <trkpt lat="42.294242" lon="-0.437721">
        <ele>1426.4</ele>
        <time>2018-07-22T06:02:10.000Z</time>
      </trkpt>
      <trkpt lat="42.294242" lon="-0.437724">
        <ele>1426.4</ele>
        <time>2018-07-22T06:02:11.000Z</time>
      </trkpt>
      <trkpt lat="42.294242" lon="-0.437726">
        <ele>1426.5</ele>
        <time>2018-07-22T06:02:12.000Z</time>
      </trkpt>
      <trkpt lat="42.294241" lon="-0.437728">
        <ele>1426.5</ele>
        <time>2018-07-22T06:02:13.000Z</time>
      </trkpt>
      <trkpt lat="42.294241" lon="-0.43773">
        <ele>1426.5</ele>
        <time>2018-07-22T06:02:14.000Z</time>
      </trkpt>
      <trkpt lat="42.29424" lon="-0.437731">
        <ele>1426.5</ele>
        <time>2018-07-22T06:02:15.000Z</time>
      </trkpt>
      <trkpt lat="42.29424" lon="-0.437732">
        <ele>1426.5</ele>
        <time>2018-07-22T06:02:16.000Z</time>
      </trkpt>
      <trkpt lat="42.294239" lon="-0.437733">
        <ele>1426.5</ele>
        <time>2018-07-22T06:02:17.000Z</time>
      </trkpt>
      <trkpt lat="42.294239" lon="-0.437734">
        <ele>1426.5</ele>
        <time>2018-07-22T06:02:18.000Z</time>
      </trkpt>
      <trkpt lat="42.294238" lon="-0.437734">
        <ele>1426.5</ele>
        <time>2018-07-22T06:02:19.000Z</time>
      </trkpt>
      <trkpt lat="42.294238" lon="-0.437735">
        <ele>1426.5</ele>
        <time>2018-07-22T06:02:20.000Z</time>
      </trkpt>
      <trkpt lat="42.294238" lon="-0.437735">
        <ele>1426.5</ele>
        <time>2018-07-22T06:02:21.000Z</time>
      </trkpt>
      <trkpt lat="42.294238" lon="-0.437735">
        <ele>1426.5</ele>
        <time>2018-07-22T06:02:22.000Z</time>
      </trkpt>
      <trkpt lat="42.294237" lon="-0.437736">
        <ele>1426.6</ele>
        <time>2018-07-22T06:02:23.000Z</time>
      </trkpt>
      <trkpt lat="42.294236" lon="-0.43774">
        <ele>1426.6</ele>
        <time>2018-07-22T06:02:24.000Z</time>
      </trkpt>
      <trkpt lat="42.294237" lon="-0.43775">
        <ele>1426.6</ele>
        <time>2018-07-22T06:02:25.000Z</time>
      </trkpt>
      <trkpt lat="42.294239" lon="-0.437759">
        <ele>1426.7</ele>
        <time>2018-07-22T06:02:26.000Z</time>
      </trkpt>
      <trkpt lat="42.294241" lon="-0.437767">
        <ele>1426.7</ele>
        <time>2018-07-22T06:02:27.000Z</time>
      </trkpt>
      <trkpt lat="42.294239" lon="-0.43778">
        <ele>1426.8</ele>
        <time>2018-07-22T06:02:28.000Z</time>
      </trkpt>
      <trkpt lat="42.294237" lon="-0.437788">
        <ele>1426.9</ele>
        <time>2018-07-22T06:02:29.000Z</time>
      </trkpt>
      <trkpt lat="42.294236" lon="-0.437791">
        <ele>1426.9</ele>
        <time>2018-07-22T06:02:30.000Z</time>
      </trkpt>
      <trkpt lat="42.294235" lon="-0.437794">
        <ele>1426.9</ele>
        <time>2018-07-22T06:02:31.000Z</time>
      </trkpt>
      <trkpt lat="42.294234" lon="-0.437796">
        <ele>1427.0</ele>
        <time>2018-07-22T06:02:32.000Z</time>
      </trkpt>
      <trkpt lat="42.294234" lon="-0.437798">
        <ele>1427.0</ele>
        <time>2018-07-22T06:02:33.000Z</time>
      </trkpt>
      <trkpt lat="42.294233" lon="-0.4378">
        <ele>1427.0</ele>
        <time>2018-07-22T06:02:34.000Z</time>
      </trkpt>
      <trkpt lat="42.294233" lon="-0.437801">
        <ele>1427.0</ele>
        <time>2018-07-22T06:02:35.000Z</time>
      </trkpt>
      <trkpt lat="42.294232" lon="-0.437802">
        <ele>1427.0</ele>
        <time>2018-07-22T06:02:36.000Z</time>
      </trkpt>
      <trkpt lat="42.294232" lon="-0.437803">
        <ele>1427.0</ele>
        <time>2018-07-22T06:02:37.000Z</time>
      </trkpt>
      <trkpt lat="42.294231" lon="-0.437804">
        <ele>1427.0</ele>
        <time>2018-07-22T06:02:38.000Z</time>
      </trkpt>
      <trkpt lat="42.294231" lon="-0.437805">
        <ele>1427.1</ele>
        <time>2018-07-22T06:02:39.000Z</time>
      </trkpt>
      <trkpt lat="42.294231" lon="-0.437806">
        <ele>1427.1</ele>
        <time>2018-07-22T06:02:40.000Z</time>
      </trkpt>
      <trkpt lat="42.294231" lon="-0.437806">
        <ele>1427.1</ele>
        <time>2018-07-22T06:02:41.000Z</time>
      </trkpt>
      <trkpt lat="42.29423" lon="-0.437806">
        <ele>1427.1</ele>
        <time>2018-07-22T06:02:42.000Z</time>
      </trkpt>
      <trkpt lat="42.29423" lon="-0.437807">
        <ele>1427.1</ele>
        <time>2018-07-22T06:02:43.000Z</time>
      </trkpt>
      <trkpt lat="42.29423" lon="-0.437807">
        <ele>1427.1</ele>
        <time>2018-07-22T06:02:44.000Z</time>
      </trkpt>
      <trkpt lat="42.29423" lon="-0.437807">
        <ele>1427.1</ele>
        <time>2018-07-22T06:02:45.000Z</time>
      </trkpt>
      <trkpt lat="42.29423" lon="-0.437807">
        <ele>1427.1</ele>
        <time>2018-07-22T06:02:46.000Z</time>
      </trkpt>
      <trkpt lat="42.29423" lon="-0.437807">
        <ele>1427.1</ele>
        <time>2018-07-22T06:02:47.000Z</time>
      </trkpt>
      <trkpt lat="42.29423" lon="-0.437807">
        <ele>1427.1</ele>
        <time>2018-07-22T06:02:48.000Z</time>
      </trkpt>
      <trkpt lat="42.29423" lon="-0.437807">
        <ele>1427.1</ele>
        <time>2018-07-22T06:02:49.000Z</time>
      </trkpt>
      <trkpt lat="42.29423" lon="-0.437807">
        <ele>1427.1</ele>
        <time>2018-07-22T06:02:50.000Z</time>
      </trkpt>
      <trkpt lat="42.29423" lon="-0.437807">
        <ele>1427.1</ele>
        <time>2018-07-22T06:02:51.000Z</time>
      </trkpt>
      <trkpt lat="42.29423" lon="-0.437807">
        <ele>1427.1</ele>
        <time>2018-07-22T06:02:52.000Z</time>
      </trkpt>
      <trkpt lat="42.29423" lon="-0.437807">
        <ele>1427.1</ele>
        <time>2018-07-22T06:02:53.000Z</time>
      </trkpt>
      <trkpt lat="42.29423" lon="-0.437807">
        <ele>1427.1</ele>
        <time>2018-07-22T06:02:54.000Z</time>
      </trkpt>
      <trkpt lat="42.29423" lon="-0.437807">
        <ele>1427.1</ele>
        <time>2018-07-22T06:02:55.000Z</time>
      </trkpt>
      <trkpt lat="42.29423" lon="-0.437807">
        <ele>1427.1</ele>
        <time>2018-07-22T06:02:56.000Z</time>
      </trkpt>
      <trkpt lat="42.29423" lon="-0.437807">
        <ele>1427.1</ele>
        <time>2018-07-22T06:02:57.000Z</time>
      </trkpt>
      <trkpt lat="42.29423" lon="-0.437808">
        <ele>1427.1</ele>
        <time>2018-07-22T06:02:58.000Z</time>
      </trkpt>
      <trkpt lat="42.29423" lon="-0.437808">
        <ele>1427.1</ele>
        <time>2018-07-22T06:02:59.000Z</time>
      </trkpt>
      <trkpt lat="42.29423" lon="-0.437808">
        <ele>1427.1</ele>
        <time>2018-07-22T06:03:00.000Z</time>
      </trkpt>
      <trkpt lat="42.29423" lon="-0.437809">
        <ele>1427.1</ele>
        <time>2018-07-22T06:03:01.000Z</time>
      </trkpt>
      <trkpt lat="42.29423" lon="-0.437809">
        <ele>1427.1</ele>
        <time>2018-07-22T06:03:02.000Z</time>
      </trkpt>
      <trkpt lat="42.29423" lon="-0.437809">
        <ele>1427.1</ele>
        <time>2018-07-22T06:03:03.000Z</time>
      </trkpt>
      <trkpt lat="42.29423" lon="-0.43781">
        <ele>1427.1</ele>
        <time>2018-07-22T06:03:04.000Z</time>
      </trkpt>
      <trkpt lat="42.29423" lon="-0.43781">
        <ele>1427.1</ele>
        <time>2018-07-22T06:03:05.000Z</time>
      </trkpt>
      <trkpt lat="42.29423" lon="-0.437811">
        <ele>1427.1</ele>
        <time>2018-07-22T06:03:06.000Z</time>
      </trkpt>
      <trkpt lat="42.29423" lon="-0.437811">
        <ele>1427.1</ele>
        <time>2018-07-22T06:03:07.000Z</time>
      </trkpt>
      <trkpt lat="42.29423" lon="-0.437812">
        <ele>1427.1</ele>
        <time>2018-07-22T06:03:08.000Z</time>
      </trkpt>
      <trkpt lat="42.29423" lon="-0.437813">
        <ele>1427.1</ele>
        <time>2018-07-22T06:03:09.000Z</time>
      </trkpt>
      <trkpt lat="42.29423" lon="-0.437813">
        <ele>1427.1</ele>
        <time>2018-07-22T06:03:10.000Z</time>
      </trkpt>
      <trkpt lat="42.29423" lon="-0.437814">
        <ele>1427.1</ele>
        <time>2018-07-22T06:03:11.000Z</time>
      </trkpt>
      <trkpt lat="42.29423" lon="-0.437814">
        <ele>1427.1</ele>
        <time>2018-07-22T06:03:12.000Z</time>
      </trkpt>
      <trkpt lat="42.29423" lon="-0.437815">
        <ele>1427.1</ele>
        <time>2018-07-22T06:03:13.000Z</time>
      </trkpt>
      <trkpt lat="42.29423" lon="-0.437816">
        <ele>1427.1</ele>
        <time>2018-07-22T06:03:14.000Z</time>
      </trkpt>
      <trkpt lat="42.29423" lon="-0.437817">
        <ele>1427.1</ele>
        <time>2018-07-22T06:03:15.000Z</time>
      </trkpt>
      <trkpt lat="42.29423" lon="-0.437819">
        <ele>1427.2</ele>
        <time>2018-07-22T06:03:16.000Z</time>
      </trkpt>
      <trkpt lat="42.29423" lon="-0.437821">
        <ele>1427.2</ele>
        <time>2018-07-22T06:03:17.000Z</time>
      </trkpt>
      <trkpt lat="42.29423" lon="-0.437826">
        <ele>1427.2</ele>
        <time>2018-07-22T06:03:18.000Z</time>
      </trkpt>
      <trkpt lat="42.29423" lon="-0.437832">
        <ele>1427.2</ele>
        <time>2018-07-22T06:03:19.000Z</time>
      </trkpt>
      <trkpt lat="42.29423" lon="-0.437838">
        <ele>1427.3</ele>
        <time>2018-07-22T06:03:20.000Z</time>
      </trkpt>
      <trkpt lat="42.294229" lon="-0.437841">
        <ele>1427.3</ele>
        <time>2018-07-22T06:03:21.000Z</time>
      </trkpt>
      <trkpt lat="42.294231" lon="-0.43785">
        <ele>1427.4</ele>
        <time>2018-07-22T06:03:22.000Z</time>
      </trkpt>
      <trkpt lat="42.294231" lon="-0.437853">
        <ele>1427.4</ele>
        <time>2018-07-22T06:03:23.000Z</time>
      </trkpt>
      <trkpt lat="42.29423" lon="-0.43786">
        <ele>1427.4</ele>
        <time>2018-07-22T06:03:24.000Z</time>
      </trkpt>
      <trkpt lat="42.29423" lon="-0.437868">
        <ele>1427.5</ele>
        <time>2018-07-22T06:03:25.000Z</time>
      </trkpt>
      <trkpt lat="42.294232" lon="-0.437875">
        <ele>1427.5</ele>
        <time>2018-07-22T06:03:26.000Z</time>
      </trkpt>
      <trkpt lat="42.294233" lon="-0.437881">
        <ele>1427.5</ele>
        <time>2018-07-22T06:03:27.000Z</time>
      </trkpt>
      <trkpt lat="42.294235" lon="-0.437886">
        <ele>1427.6</ele>
        <time>2018-07-22T06:03:28.000Z</time>
      </trkpt>
      <trkpt lat="42.294237" lon="-0.43789">
        <ele>1427.6</ele>
        <time>2018-07-22T06:03:29.000Z</time>
      </trkpt>
      <trkpt lat="42.294239" lon="-0.437893">
        <ele>1427.6</ele>
        <time>2018-07-22T06:03:30.000Z</time>
      </trkpt>
      <trkpt lat="42.29424" lon="-0.437895">
        <ele>1427.6</ele>
        <time>2018-07-22T06:03:31.000Z</time>
      </trkpt>
      <trkpt lat="42.29424" lon="-0.437898">
        <ele>1427.6</ele>
        <time>2018-07-22T06:03:32.000Z</time>
      </trkpt>
      <trkpt lat="42.294241" lon="-0.437902">
        <ele>1427.6</ele>
        <time>2018-07-22T06:03:33.000Z</time>
      </trkpt>
      <trkpt lat="42.29424" lon="-0.43791">
        <ele>1427.7</ele>
        <time>2018-07-22T06:03:34.000Z</time>
      </trkpt>
      <trkpt lat="42.294237" lon="-0.437922">
        <ele>1427.8</ele>
        <time>2018-07-22T06:03:35.000Z</time>
      </trkpt>
      <trkpt lat="42.294235" lon="-0.437931">
        <ele>1427.9</ele>
        <time>2018-07-22T06:03:36.000Z</time>
      </trkpt>
      <trkpt lat="42.294233" lon="-0.437938">
        <ele>1427.9</ele>
        <time>2018-07-22T06:03:37.000Z</time>
      </trkpt>
      <trkpt lat="42.294231" lon="-0.437944">
        <ele>1428.0</ele>
        <time>2018-07-22T06:03:38.000Z</time>
      </trkpt>
      <trkpt lat="42.29423" lon="-0.437953">
        <ele>1428.1</ele>
        <time>2018-07-22T06:03:39.000Z</time>
      </trkpt>
      <trkpt lat="42.294228" lon="-0.437962">
        <ele>1428.1</ele>
        <time>2018-07-22T06:03:40.000Z</time>
      </trkpt>
      <trkpt lat="42.294227" lon="-0.437971">
        <ele>1428.2</ele>
        <time>2018-07-22T06:03:41.000Z</time>
      </trkpt>
      <trkpt lat="42.294226" lon="-0.437976">
        <ele>1428.3</ele>
        <time>2018-07-22T06:03:42.000Z</time>
      </trkpt>
      <trkpt lat="42.294226" lon="-0.43798">
        <ele>1428.3</ele>
        <time>2018-07-22T06:03:43.000Z</time>
      </trkpt>
      <trkpt lat="42.294226" lon="-0.437982">
        <ele>1428.3</ele>
        <time>2018-07-22T06:03:44.000Z</time>
      </trkpt>
      <trkpt lat="42.294226" lon="-0.437985">
        <ele>1428.3</ele>
        <time>2018-07-22T06:03:45.000Z</time>
      </trkpt>
      <trkpt lat="42.294226" lon="-0.437988">
        <ele>1428.3</ele>
        <time>2018-07-22T06:03:46.000Z</time>
      </trkpt>
      <trkpt lat="42.294226" lon="-0.437992">
        <ele>1428.4</ele>
        <time>2018-07-22T06:03:47.000Z</time>
      </trkpt>
      <trkpt lat="42.294226" lon="-0.437997">
        <ele>1428.4</ele>
        <time>2018-07-22T06:03:48.000Z</time>
      </trkpt>
      <trkpt lat="42.294226" lon="-0.438">
        <ele>1428.4</ele>
        <time>2018-07-22T06:03:49.000Z</time>
      </trkpt>
      <trkpt lat="42.294225" lon="-0.438004">
        <ele>1428.5</ele>
        <time>2018-07-22T06:03:50.000Z</time>
      </trkpt>
      <trkpt lat="42.294219" lon="-0.438009">
        <ele>1428.6</ele>
        <time>2018-07-22T06:03:51.000Z</time>
      </trkpt>
      <trkpt lat="42.294213" lon="-0.438016">
        <ele>1428.7</ele>
        <time>2018-07-22T06:03:52.000Z</time>
      </trkpt>
      <trkpt lat="42.294208" lon="-0.438022">
        <ele>1428.8</ele>
        <time>2018-07-22T06:03:53.000Z</time>
      </trkpt>
      <trkpt lat="42.294202" lon="-0.438028">
        <ele>1429.0</ele>
        <time>2018-07-22T06:03:54.000Z</time>
      </trkpt>
      <trkpt lat="42.294196" lon="-0.438035">
        <ele>1429.1</ele>
        <time>2018-07-22T06:03:55.000Z</time>
      </trkpt>
      <trkpt lat="42.29419" lon="-0.438041">
        <ele>1429.2</ele>
        <time>2018-07-22T06:03:56.000Z</time>
      </trkpt>
      <trkpt lat="42.294185" lon="-0.438049">
        <ele>1429.4</ele>
        <time>2018-07-22T06:03:57.000Z</time>
      </trkpt>
      <trkpt lat="42.29418" lon="-0.438058">
        <ele>1429.5</ele>
        <time>2018-07-22T06:03:58.000Z</time>
      </trkpt>
      <trkpt lat="42.294176" lon="-0.438068">
        <ele>1429.6</ele>
        <time>2018-07-22T06:03:59.000Z</time>
      </trkpt>
      <trkpt lat="42.294172" lon="-0.438078">
        <ele>1429.8</ele>
        <time>2018-07-22T06:04:00.000Z</time>
      </trkpt>
      <trkpt lat="42.294168" lon="-0.438088">
        <ele>1429.9</ele>
        <time>2018-07-22T06:04:01.000Z</time>
      </trkpt>
      <trkpt lat="42.294163" lon="-0.438096">
        <ele>1429.8</ele>
        <time>2018-07-22T06:04:02.000Z</time>
      </trkpt>
      <trkpt lat="42.294158" lon="-0.438103">
        <ele>1429.5</ele>
        <time>2018-07-22T06:04:03.000Z</time>
      </trkpt>
      <trkpt lat="42.294153" lon="-0.438108">
        <ele>1429.2</ele>
        <time>2018-07-22T06:04:04.000Z</time>
      </trkpt>
      <trkpt lat="42.294147" lon="-0.438112">
        <ele>1428.9</ele>
        <time>2018-07-22T06:04:05.000Z</time>
      </trkpt>
      <trkpt lat="42.294141" lon="-0.438117">
        <ele>1428.6</ele>
        <time>2018-07-22T06:04:06.000Z</time>
      </trkpt>
      <trkpt lat="42.294136" lon="-0.438126">
        <ele>1428.3</ele>
        <time>2018-07-22T06:04:07.000Z</time>
      </trkpt>
      <trkpt lat="42.294133" lon="-0.438136">
        <ele>1428.2</ele>
        <time>2018-07-22T06:04:08.000Z</time>
      </trkpt>
      <trkpt lat="42.29413" lon="-0.438147">
        <ele>1428.1</ele>
        <time>2018-07-22T06:04:09.000Z</time>
      </trkpt>
      <trkpt lat="42.294129" lon="-0.438158">
        <ele>1428.2</ele>
        <time>2018-07-22T06:04:10.000Z</time>
      </trkpt>
      <trkpt lat="42.294128" lon="-0.438166">
        <ele>1428.2</ele>
        <time>2018-07-22T06:04:11.000Z</time>
      </trkpt>
      <trkpt lat="42.294128" lon="-0.438171">
        <ele>1428.2</ele>
        <time>2018-07-22T06:04:12.000Z</time>
      </trkpt>
      <trkpt lat="42.294128" lon="-0.438174">
        <ele>1428.3</ele>
        <time>2018-07-22T06:04:13.000Z</time>
      </trkpt>
      <trkpt lat="42.294129" lon="-0.438175">
        <ele>1428.3</ele>
        <time>2018-07-22T06:04:14.000Z</time>
      </trkpt>
      <trkpt lat="42.294129" lon="-0.438177">
        <ele>1428.3</ele>
        <time>2018-07-22T06:04:15.000Z</time>
      </trkpt>
      <trkpt lat="42.294129" lon="-0.438178">
        <ele>1428.4</ele>
        <time>2018-07-22T06:04:16.000Z</time>
      </trkpt>
      <trkpt lat="42.294129" lon="-0.438178">
        <ele>1428.4</ele>
        <time>2018-07-22T06:04:17.000Z</time>
      </trkpt>
      <trkpt lat="42.294129" lon="-0.438179">
        <ele>1428.4</ele>
        <time>2018-07-22T06:04:18.000Z</time>
      </trkpt>
      <trkpt lat="42.294129" lon="-0.43818">
        <ele>1428.4</ele>
        <time>2018-07-22T06:04:19.000Z</time>
      </trkpt>
      <trkpt lat="42.294129" lon="-0.43818">
        <ele>1428.4</ele>
        <time>2018-07-22T06:04:20.000Z</time>
      </trkpt>
      <trkpt lat="42.294129" lon="-0.43818">
        <ele>1428.4</ele>
        <time>2018-07-22T06:04:21.000Z</time>
      </trkpt>
      <trkpt lat="42.294129" lon="-0.438181">
        <ele>1428.4</ele>
        <time>2018-07-22T06:04:22.000Z</time>
      </trkpt>
      <trkpt lat="42.294128" lon="-0.438181">
        <ele>1428.3</ele>
        <time>2018-07-22T06:04:23.000Z</time>
      </trkpt>
      <trkpt lat="42.294128" lon="-0.43818">
        <ele>1428.3</ele>
        <time>2018-07-22T06:04:24.000Z</time>
      </trkpt>
      <trkpt lat="42.294128" lon="-0.43818">
        <ele>1428.3</ele>
        <time>2018-07-22T06:04:25.000Z</time>
      </trkpt>
      <trkpt lat="42.294128" lon="-0.438181">
        <ele>1428.3</ele>
        <time>2018-07-22T06:04:26.000Z</time>
      </trkpt>
      <trkpt lat="42.294129" lon="-0.438186">
        <ele>1428.4</ele>
        <time>2018-07-22T06:04:27.000Z</time>
      </trkpt>
      <trkpt lat="42.294134" lon="-0.438196">
        <ele>1428.8</ele>
        <time>2018-07-22T06:09:20.000Z</time>
      </trkpt>
      <trkpt lat="42.294137" lon="-0.438202">
        <ele>1429.1</ele>
        <time>2018-07-22T06:09:21.000Z</time>
      </trkpt>
      <trkpt lat="42.294137" lon="-0.43821">
        <ele>1429.1</ele>
        <time>2018-07-22T06:09:22.000Z</time>
      </trkpt>
      <trkpt lat="42.294137" lon="-0.43822">
        <ele>1429.2</ele>
        <time>2018-07-22T06:09:23.000Z</time>
      </trkpt>
      <trkpt lat="42.294137" lon="-0.438231">
        <ele>1429.3</ele>
        <time>2018-07-22T06:09:24.000Z</time>
      </trkpt>
      <trkpt lat="42.294137" lon="-0.43824">
        <ele>1429.4</ele>
        <time>2018-07-22T06:09:25.000Z</time>
      </trkpt>
      <trkpt lat="42.294137" lon="-0.438249">
        <ele>1429.5</ele>
        <time>2018-07-22T06:09:26.000Z</time>
      </trkpt>
      <trkpt lat="42.294138" lon="-0.438255">
        <ele>1429.6</ele>
        <time>2018-07-22T06:09:27.000Z</time>
      </trkpt>
      <trkpt lat="42.294138" lon="-0.438258">
        <ele>1429.6</ele>
        <time>2018-07-22T06:09:28.000Z</time>
      </trkpt>
      <trkpt lat="42.294138" lon="-0.438262">
        <ele>1429.7</ele>
        <time>2018-07-22T06:09:29.000Z</time>
      </trkpt>
      <trkpt lat="42.294137" lon="-0.438268">
        <ele>1429.6</ele>
        <time>2018-07-22T06:09:30.000Z</time>
      </trkpt>
      <trkpt lat="42.294136" lon="-0.438279">
        <ele>1429.7</ele>
        <time>2018-07-22T06:09:31.000Z</time>
      </trkpt>
      <trkpt lat="42.294134" lon="-0.438291">
        <ele>1429.7</ele>
        <time>2018-07-22T06:09:32.000Z</time>
      </trkpt>
      <trkpt lat="42.294133" lon="-0.4383">
        <ele>1429.7</ele>
        <time>2018-07-22T06:09:33.000Z</time>
      </trkpt>
      <trkpt lat="42.294132" lon="-0.438307">
        <ele>1429.7</ele>
        <time>2018-07-22T06:09:34.000Z</time>
      </trkpt>
      <trkpt lat="42.294132" lon="-0.438311">
        <ele>1429.7</ele>
        <time>2018-07-22T06:09:35.000Z</time>
      </trkpt>
      <trkpt lat="42.294132" lon="-0.438315">
        <ele>1429.8</ele>
        <time>2018-07-22T06:09:36.000Z</time>
      </trkpt>
      <trkpt lat="42.294132" lon="-0.438317">
        <ele>1429.8</ele>
        <time>2018-07-22T06:09:37.000Z</time>
      </trkpt>
      <trkpt lat="42.294132" lon="-0.43832">
        <ele>1429.8</ele>
        <time>2018-07-22T06:09:38.000Z</time>
      </trkpt>
      <trkpt lat="42.294132" lon="-0.438322">
        <ele>1429.8</ele>
        <time>2018-07-22T06:09:39.000Z</time>
      </trkpt>
      <trkpt lat="42.294132" lon="-0.438325">
        <ele>1429.8</ele>
        <time>2018-07-22T06:09:40.000Z</time>
      </trkpt>
      <trkpt lat="42.294132" lon="-0.438328">
        <ele>1429.9</ele>
        <time>2018-07-22T06:09:41.000Z</time>
      </trkpt>
      <trkpt lat="42.294132" lon="-0.438331">
        <ele>1429.9</ele>
        <time>2018-07-22T06:09:42.000Z</time>
      </trkpt>
      <trkpt lat="42.294132" lon="-0.438333">
        <ele>1429.9</ele>
        <time>2018-07-22T06:09:43.000Z</time>
      </trkpt>
      <trkpt lat="42.294132" lon="-0.438336">
        <ele>1429.9</ele>
        <time>2018-07-22T06:09:44.000Z</time>
      </trkpt>
      <trkpt lat="42.294132" lon="-0.43834">
        <ele>1429.9</ele>
        <time>2018-07-22T06:09:45.000Z</time>
      </trkpt>
      <trkpt lat="42.29413" lon="-0.438348">
        <ele>1429.8</ele>
        <time>2018-07-22T06:09:46.000Z</time>
      </trkpt>
      <trkpt lat="42.294127" lon="-0.43836">
        <ele>1429.6</ele>
        <time>2018-07-22T06:09:47.000Z</time>
      </trkpt>
      <trkpt lat="42.294127" lon="-0.438367">
        <ele>1429.6</ele>
        <time>2018-07-22T06:09:48.000Z</time>
      </trkpt>
      <trkpt lat="42.294128" lon="-0.438372">
        <ele>1429.6</ele>
        <time>2018-07-22T06:09:49.000Z</time>
      </trkpt>
      <trkpt lat="42.294128" lon="-0.438377">
        <ele>1429.6</ele>
        <time>2018-07-22T06:09:50.000Z</time>
      </trkpt>
      <trkpt lat="42.294128" lon="-0.438379">
        <ele>1429.6</ele>
        <time>2018-07-22T06:09:51.000Z</time>
      </trkpt>
      <trkpt lat="42.294128" lon="-0.438382">
        <ele>1429.6</ele>
        <time>2018-07-22T06:09:52.000Z</time>
      </trkpt>
      <trkpt lat="42.294127" lon="-0.438386">
        <ele>1429.5</ele>
        <time>2018-07-22T06:09:53.000Z</time>
      </trkpt>
      <trkpt lat="42.294125" lon="-0.438393">
        <ele>1429.4</ele>
        <time>2018-07-22T06:09:54.000Z</time>
      </trkpt>
      <trkpt lat="42.294121" lon="-0.438408">
        <ele>1429.1</ele>
        <time>2018-07-22T06:09:55.000Z</time>
      </trkpt>
      <trkpt lat="42.294118" lon="-0.438415">
        <ele>1429.0</ele>
        <time>2018-07-22T06:09:56.000Z</time>
      </trkpt>
      <trkpt lat="42.294113" lon="-0.438422">
        <ele>1428.7</ele>
        <time>2018-07-22T06:09:57.000Z</time>
      </trkpt>
      <trkpt lat="42.294107" lon="-0.43843">
        <ele>1428.3</ele>
        <time>2018-07-22T06:09:58.000Z</time>
      </trkpt>
      <trkpt lat="42.294102" lon="-0.438437">
        <ele>1428.0</ele>
        <time>2018-07-22T06:09:59.000Z</time>
      </trkpt>
      <trkpt lat="42.294098" lon="-0.438445">
        <ele>1427.8</ele>
        <time>2018-07-22T06:10:00.000Z</time>
      </trkpt>
      <trkpt lat="42.294095" lon="-0.438453">
        <ele>1427.6</ele>
        <time>2018-07-22T06:10:01.000Z</time>
      </trkpt>
      <trkpt lat="42.294092" lon="-0.438462">
        <ele>1427.4</ele>
        <time>2018-07-22T06:10:02.000Z</time>
      </trkpt>
      <trkpt lat="42.29409" lon="-0.43847">
        <ele>1427.3</ele>
        <time>2018-07-22T06:10:03.000Z</time>
      </trkpt>
      <trkpt lat="42.294088" lon="-0.438478">
        <ele>1427.1</ele>
        <time>2018-07-22T06:10:04.000Z</time>
      </trkpt>
      <trkpt lat="42.294087" lon="-0.438485">
        <ele>1427.1</ele>
        <time>2018-07-22T06:10:05.000Z</time>
      </trkpt>
      <trkpt lat="42.294087" lon="-0.438491">
        <ele>1427.1</ele>
        <time>2018-07-22T06:10:06.000Z</time>
      </trkpt>
      <trkpt lat="42.294087" lon="-0.438495">
        <ele>1427.1</ele>
        <time>2018-07-22T06:10:07.000Z</time>
      </trkpt>
      <trkpt lat="42.294088" lon="-0.438499">
        <ele>1427.1</ele>
        <time>2018-07-22T06:10:08.000Z</time>
      </trkpt>
      <trkpt lat="42.294088" lon="-0.438502">
        <ele>1427.1</ele>
        <time>2018-07-22T06:10:09.000Z</time>
      </trkpt>
      <trkpt lat="42.294089" lon="-0.438505">
        <ele>1427.2</ele>
        <time>2018-07-22T06:10:10.000Z</time>
      </trkpt>
      <trkpt lat="42.29409" lon="-0.438507">
        <ele>1427.2</ele>
        <time>2018-07-22T06:10:11.000Z</time>
      </trkpt>
      <trkpt lat="42.294091" lon="-0.438509">
        <ele>1427.3</ele>
        <time>2018-07-22T06:10:12.000Z</time>
      </trkpt>
      <trkpt lat="42.294091" lon="-0.438512">
        <ele>1427.3</ele>
        <time>2018-07-22T06:10:13.000Z</time>
      </trkpt>
      <trkpt lat="42.294092" lon="-0.438515">
        <ele>1427.3</ele>
        <time>2018-07-22T06:10:14.000Z</time>
      </trkpt>
      <trkpt lat="42.294092" lon="-0.438518">
        <ele>1427.3</ele>
        <time>2018-07-22T06:10:15.000Z</time>
      </trkpt>
      <trkpt lat="42.294091" lon="-0.438522">
        <ele>1427.3</ele>
        <time>2018-07-22T06:10:16.000Z</time>
      </trkpt>
      <trkpt lat="42.294091" lon="-0.438525">
        <ele>1427.3</ele>
        <time>2018-07-22T06:10:17.000Z</time>
      </trkpt>
      <trkpt lat="42.29409" lon="-0.438527">
        <ele>1427.2</ele>
        <time>2018-07-22T06:10:18.000Z</time>
      </trkpt>
      <trkpt lat="42.294091" lon="-0.438529">
        <ele>1427.3</ele>
        <time>2018-07-22T06:10:19.000Z</time>
      </trkpt>
      <trkpt lat="42.294091" lon="-0.438534">
        <ele>1427.3</ele>
        <time>2018-07-22T06:10:20.000Z</time>
      </trkpt>
      <trkpt lat="42.294091" lon="-0.438538">
        <ele>1427.3</ele>
        <time>2018-07-22T06:10:21.000Z</time>
      </trkpt>
      <trkpt lat="42.29409" lon="-0.43854">
        <ele>1427.2</ele>
        <time>2018-07-22T06:10:22.000Z</time>
      </trkpt>
      <trkpt lat="42.294089" lon="-0.438542">
        <ele>1427.1</ele>
        <time>2018-07-22T06:10:23.000Z</time>
      </trkpt>
      <trkpt lat="42.294089" lon="-0.438543">
        <ele>1427.1</ele>
        <time>2018-07-22T06:10:24.000Z</time>
      </trkpt>
      <trkpt lat="42.294089" lon="-0.438544">
        <ele>1427.1</ele>
        <time>2018-07-22T06:10:25.000Z</time>
      </trkpt>
      <trkpt lat="42.29409" lon="-0.438545">
        <ele>1427.2</ele>
        <time>2018-07-22T06:10:26.000Z</time>
      </trkpt>
      <trkpt lat="42.29409" lon="-0.438547">
        <ele>1427.2</ele>
        <time>2018-07-22T06:10:27.000Z</time>
      </trkpt>
      <trkpt lat="42.294089" lon="-0.438549">
        <ele>1427.1</ele>
        <time>2018-07-22T06:10:28.000Z</time>
      </trkpt>
      <trkpt lat="42.294089" lon="-0.438551">
        <ele>1427.1</ele>
        <time>2018-07-22T06:10:29.000Z</time>
      </trkpt>
      <trkpt lat="42.294088" lon="-0.438553">
        <ele>1427.1</ele>
        <time>2018-07-22T06:10:30.000Z</time>
      </trkpt>
      <trkpt lat="42.294087" lon="-0.438554">
        <ele>1427.0</ele>
        <time>2018-07-22T06:10:31.000Z</time>
      </trkpt>
      <trkpt lat="42.294087" lon="-0.438555">
        <ele>1427.0</ele>
        <time>2018-07-22T06:10:32.000Z</time>
      </trkpt>
      <trkpt lat="42.294086" lon="-0.438556">
        <ele>1427.0</ele>
        <time>2018-07-22T06:10:33.000Z</time>
      </trkpt>
      <trkpt lat="42.294086" lon="-0.438557">
        <ele>1427.0</ele>
        <time>2018-07-22T06:10:34.000Z</time>
      </trkpt>
      <trkpt lat="42.294086" lon="-0.438557">
        <ele>1427.0</ele>
        <time>2018-07-22T06:10:35.000Z</time>
      </trkpt>
      <trkpt lat="42.294086" lon="-0.438557">
        <ele>1427.0</ele>
        <time>2018-07-22T06:10:36.000Z</time>
      </trkpt>
      <trkpt lat="42.294086" lon="-0.438557">
        <ele>1427.0</ele>
        <time>2018-07-22T06:10:37.000Z</time>
      </trkpt>
      <trkpt lat="42.294086" lon="-0.438557">
        <ele>1427.0</ele>
        <time>2018-07-22T06:10:38.000Z</time>
      </trkpt>
      <trkpt lat="42.294086" lon="-0.438557">
        <ele>1427.0</ele>
        <time>2018-07-22T06:10:39.000Z</time>
      </trkpt>
      <trkpt lat="42.294086" lon="-0.438557">
        <ele>1427.0</ele>
        <time>2018-07-22T06:10:40.000Z</time>
      </trkpt>
      <trkpt lat="42.294086" lon="-0.438557">
        <ele>1427.0</ele>
        <time>2018-07-22T06:10:41.000Z</time>
      </trkpt>
      <trkpt lat="42.294086" lon="-0.438557">
        <ele>1427.0</ele>
        <time>2018-07-22T06:10:42.000Z</time>
      </trkpt>
      <trkpt lat="42.294086" lon="-0.438557">
        <ele>1427.0</ele>
        <time>2018-07-22T06:10:43.000Z</time>
      </trkpt>
      <trkpt lat="42.294086" lon="-0.438557">
        <ele>1427.0</ele>
        <time>2018-07-22T06:10:44.000Z</time>
      </trkpt>
      <trkpt lat="42.294086" lon="-0.438557">
        <ele>1427.0</ele>
        <time>2018-07-22T06:10:45.000Z</time>
      </trkpt>
      <trkpt lat="42.294086" lon="-0.438557">
        <ele>1427.0</ele>
        <time>2018-07-22T06:10:46.000Z</time>
      </trkpt>
      <trkpt lat="42.294086" lon="-0.438557">
        <ele>1427.0</ele>
        <time>2018-07-22T06:10:47.000Z</time>
      </trkpt>
      <trkpt lat="42.294086" lon="-0.438557">
        <ele>1427.0</ele>
        <time>2018-07-22T06:10:48.000Z</time>
      </trkpt>
      <trkpt lat="42.294086" lon="-0.438557">
        <ele>1427.0</ele>
        <time>2018-07-22T06:10:49.000Z</time>
      </trkpt>
      <trkpt lat="42.294086" lon="-0.438557">
        <ele>1427.0</ele>
        <time>2018-07-22T06:10:50.000Z</time>
      </trkpt>
      <trkpt lat="42.294086" lon="-0.438557">
        <ele>1427.0</ele>
        <time>2018-07-22T06:10:51.000Z</time>
      </trkpt>
      <trkpt lat="42.294086" lon="-0.438557">
        <ele>1427.0</ele>
        <time>2018-07-22T06:10:52.000Z</time>
      </trkpt>
      <trkpt lat="42.294086" lon="-0.438557">
        <ele>1427.0</ele>
        <time>2018-07-22T06:10:53.000Z</time>
      </trkpt>
      <trkpt lat="42.294086" lon="-0.438557">
        <ele>1427.0</ele>
        <time>2018-07-22T06:10:54.000Z</time>
      </trkpt>
      <trkpt lat="42.294086" lon="-0.438557">
        <ele>1427.0</ele>
        <time>2018-07-22T06:10:55.000Z</time>
      </trkpt>
      <trkpt lat="42.294086" lon="-0.438557">
        <ele>1427.0</ele>
        <time>2018-07-22T06:10:56.000Z</time>
      </trkpt>
      <trkpt lat="42.294086" lon="-0.438557">
        <ele>1427.0</ele>
        <time>2018-07-22T06:10:57.000Z</time>
      </trkpt>
      <trkpt lat="42.294086" lon="-0.438557">
        <ele>1427.0</ele>
        <time>2018-07-22T06:10:58.000Z</time>
      </trkpt>
      <trkpt lat="42.294086" lon="-0.438557">
        <ele>1427.0</ele>
        <time>2018-07-22T06:10:59.000Z</time>
      </trkpt>
      <trkpt lat="42.294086" lon="-0.438557">
        <ele>1427.0</ele>
        <time>2018-07-22T06:11:00.000Z</time>
      </trkpt>
      <trkpt lat="42.294086" lon="-0.438557">
        <ele>1427.0</ele>
        <time>2018-07-22T06:11:01.000Z</time>
      </trkpt>
      <trkpt lat="42.294086" lon="-0.438557">
        <ele>1427.0</ele>
        <time>2018-07-22T06:11:02.000Z</time>
      </trkpt>
      <trkpt lat="42.294086" lon="-0.438557">
        <ele>1427.0</ele>
        <time>2018-07-22T06:11:03.000Z</time>
      </trkpt>
      <trkpt lat="42.294086" lon="-0.438557">
        <ele>1427.0</ele>
        <time>2018-07-22T06:11:04.000Z</time>
      </trkpt>
      <trkpt lat="42.294086" lon="-0.438557">
        <ele>1427.0</ele>
        <time>2018-07-22T06:11:05.000Z</time>
      </trkpt>
      <trkpt lat="42.294086" lon="-0.438557">
        <ele>1427.0</ele>
        <time>2018-07-22T06:11:06.000Z</time>
      </trkpt>
      <trkpt lat="42.294086" lon="-0.438557">
        <ele>1427.0</ele>
        <time>2018-07-22T06:11:07.000Z</time>
      </trkpt>
      <trkpt lat="42.294086" lon="-0.438558">
        <ele>1427.0</ele>
        <time>2018-07-22T06:11:08.000Z</time>
      </trkpt>
      <trkpt lat="42.294086" lon="-0.438558">
        <ele>1427.0</ele>
        <time>2018-07-22T06:11:09.000Z</time>
      </trkpt>
      <trkpt lat="42.294086" lon="-0.438558">
        <ele>1427.0</ele>
        <time>2018-07-22T06:11:10.000Z</time>
      </trkpt>
      <trkpt lat="42.294086" lon="-0.438558">
        <ele>1427.0</ele>
        <time>2018-07-22T06:11:11.000Z</time>
      </trkpt>
      <trkpt lat="42.294086" lon="-0.438558">
        <ele>1427.0</ele>
        <time>2018-07-22T06:11:12.000Z</time>
      </trkpt>
      <trkpt lat="42.294086" lon="-0.438558">
        <ele>1427.0</ele>
        <time>2018-07-22T06:11:13.000Z</time>
      </trkpt>
      <trkpt lat="42.294085" lon="-0.438559">
        <ele>1426.9</ele>
        <time>2018-07-22T06:11:14.000Z</time>
      </trkpt>
      <trkpt lat="42.294085" lon="-0.438559">
        <ele>1426.9</ele>
        <time>2018-07-22T06:11:15.000Z</time>
      </trkpt>
      <trkpt lat="42.294085" lon="-0.438559">
        <ele>1426.9</ele>
        <time>2018-07-22T06:11:16.000Z</time>
      </trkpt>
      <trkpt lat="42.294085" lon="-0.438559">
        <ele>1426.9</ele>
        <time>2018-07-22T06:11:17.000Z</time>
      </trkpt>
      <trkpt lat="42.294085" lon="-0.43856">
        <ele>1426.9</ele>
        <time>2018-07-22T06:11:18.000Z</time>
      </trkpt>
      <trkpt lat="42.294085" lon="-0.43856">
        <ele>1426.9</ele>
        <time>2018-07-22T06:11:19.000Z</time>
      </trkpt>
      <trkpt lat="42.294085" lon="-0.438561">
        <ele>1426.9</ele>
        <time>2018-07-22T06:11:20.000Z</time>
      </trkpt>
      <trkpt lat="42.294085" lon="-0.438561">
        <ele>1426.9</ele>
        <time>2018-07-22T06:11:21.000Z</time>
      </trkpt>
      <trkpt lat="42.294085" lon="-0.438562">
        <ele>1426.9</ele>
        <time>2018-07-22T06:11:22.000Z</time>
      </trkpt>
      <trkpt lat="42.294084" lon="-0.438562">
        <ele>1426.8</ele>
        <time>2018-07-22T06:11:23.000Z</time>
      </trkpt>
      <trkpt lat="42.294084" lon="-0.438563">
        <ele>1426.8</ele>
        <time>2018-07-22T06:11:24.000Z</time>
      </trkpt>
      <trkpt lat="42.294084" lon="-0.438564">
        <ele>1426.8</ele>
        <time>2018-07-22T06:11:25.000Z</time>
      </trkpt>
      <trkpt lat="42.294084" lon="-0.438565">
        <ele>1426.8</ele>
        <time>2018-07-22T06:11:26.000Z</time>
      </trkpt>
      <trkpt lat="42.294083" lon="-0.438566">
        <ele>1426.8</ele>
        <time>2018-07-22T06:11:27.000Z</time>
      </trkpt>
      <trkpt lat="42.294083" lon="-0.438568">
        <ele>1426.8</ele>
        <time>2018-07-22T06:11:28.000Z</time>
      </trkpt>
      <trkpt lat="42.294082" lon="-0.438569">
        <ele>1426.7</ele>
        <time>2018-07-22T06:11:29.000Z</time>
      </trkpt>
      <trkpt lat="42.294082" lon="-0.43857">
        <ele>1426.7</ele>
        <time>2018-07-22T06:11:30.000Z</time>
      </trkpt>
      <trkpt lat="42.294081" lon="-0.438571">
        <ele>1426.7</ele>
        <time>2018-07-22T06:11:31.000Z</time>
      </trkpt>
      <trkpt lat="42.294079" lon="-0.438576">
        <ele>1426.6</ele>
        <time>2018-07-22T06:11:32.000Z</time>
      </trkpt>
      <trkpt lat="42.294076" lon="-0.438595">
        <ele>1426.4</ele>
        <time>2018-07-22T06:11:33.000Z</time>
      </trkpt>
      <trkpt lat="42.294075" lon="-0.438607">
        <ele>1426.3</ele>
        <time>2018-07-22T06:11:34.000Z</time>
      </trkpt>
      <trkpt lat="42.294073" lon="-0.438616">
        <ele>1426.2</ele>
        <time>2018-07-22T06:11:35.000Z</time>
      </trkpt>
      <trkpt lat="42.294068" lon="-0.438625">
        <ele>1425.9</ele>
        <time>2018-07-22T06:11:36.000Z</time>
      </trkpt>
      <trkpt lat="42.294063" lon="-0.438636">
        <ele>1425.6</ele>
        <time>2018-07-22T06:11:37.000Z</time>
      </trkpt>
      <trkpt lat="42.294059" lon="-0.438647">
        <ele>1425.4</ele>
        <time>2018-07-22T06:11:38.000Z</time>
      </trkpt>
      <trkpt lat="42.294055" lon="-0.43866">
        <ele>1425.2</ele>
        <time>2018-07-22T06:11:39.000Z</time>
      </trkpt>
      <trkpt lat="42.294052" lon="-0.438673">
        <ele>1425.0</ele>
        <time>2018-07-22T06:11:40.000Z</time>
      </trkpt>
      <trkpt lat="42.294047" lon="-0.438688">
        <ele>1424.8</ele>
        <time>2018-07-22T06:11:41.000Z</time>
      </trkpt>
      <trkpt lat="42.294041" lon="-0.438703">
        <ele>1424.4</ele>
        <time>2018-07-22T06:11:42.000Z</time>
      </trkpt>
      <trkpt lat="42.294033" lon="-0.43872">
        <ele>1424.0</ele>
        <time>2018-07-22T06:11:43.000Z</time>
      </trkpt>
      <trkpt lat="42.294022" lon="-0.438736">
        <ele>1423.4</ele>
        <time>2018-07-22T06:11:44.000Z</time>
      </trkpt>
      <trkpt lat="42.294011" lon="-0.43875">
        <ele>1422.9</ele>
        <time>2018-07-22T06:11:45.000Z</time>
      </trkpt>
      <trkpt lat="42.293999" lon="-0.438761">
        <ele>1422.3</ele>
        <time>2018-07-22T06:11:46.000Z</time>
      </trkpt>
      <trkpt lat="42.293988" lon="-0.438772">
        <ele>1421.7</ele>
        <time>2018-07-22T06:11:47.000Z</time>
      </trkpt>
      <trkpt lat="42.29398" lon="-0.438783">
        <ele>1421.3</ele>
        <time>2018-07-22T06:11:48.000Z</time>
      </trkpt>
      <trkpt lat="42.293974" lon="-0.438795">
        <ele>1421.0</ele>
        <time>2018-07-22T06:11:49.000Z</time>
      </trkpt>
      <trkpt lat="42.29397" lon="-0.438809">
        <ele>1420.8</ele>
        <time>2018-07-22T06:11:50.000Z</time>
      </trkpt>
      <trkpt lat="42.293966" lon="-0.43882">
        <ele>1420.6</ele>
        <time>2018-07-22T06:11:51.000Z</time>
      </trkpt>
      <trkpt lat="42.293961" lon="-0.438827">
        <ele>1420.4</ele>
        <time>2018-07-22T06:11:52.000Z</time>
      </trkpt>
      <trkpt lat="42.293955" lon="-0.438833">
        <ele>1420.1</ele>
        <time>2018-07-22T06:11:53.000Z</time>
      </trkpt>
      <trkpt lat="42.29395" lon="-0.438839">
        <ele>1419.8</ele>
        <time>2018-07-22T06:11:54.000Z</time>
      </trkpt>
      <trkpt lat="42.293944" lon="-0.438845">
        <ele>1419.5</ele>
        <time>2018-07-22T06:11:55.000Z</time>
      </trkpt>
      <trkpt lat="42.293939" lon="-0.438853">
        <ele>1419.3</ele>
        <time>2018-07-22T06:11:56.000Z</time>
      </trkpt>
      <trkpt lat="42.293934" lon="-0.438861">
        <ele>1419.1</ele>
        <time>2018-07-22T06:11:57.000Z</time>
      </trkpt>
      <trkpt lat="42.29393" lon="-0.43887">
        <ele>1418.9</ele>
        <time>2018-07-22T06:11:58.000Z</time>
      </trkpt>
      <trkpt lat="42.293928" lon="-0.438881">
        <ele>1418.8</ele>
        <time>2018-07-22T06:11:59.000Z</time>
      </trkpt>
      <trkpt lat="42.293927" lon="-0.438892">
        <ele>1418.8</ele>
        <time>2018-07-22T06:12:00.000Z</time>
      </trkpt>
      <trkpt lat="42.293927" lon="-0.438903">
        <ele>1418.8</ele>
        <time>2018-07-22T06:12:01.000Z</time>
      </trkpt>
      <trkpt lat="42.293926" lon="-0.438913">
        <ele>1418.8</ele>
        <time>2018-07-22T06:12:02.000Z</time>
      </trkpt>
      <trkpt lat="42.293924" lon="-0.438922">
        <ele>1418.7</ele>
        <time>2018-07-22T06:12:03.000Z</time>
      </trkpt>
      <trkpt lat="42.293922" lon="-0.438932">
        <ele>1418.6</ele>
        <time>2018-07-22T06:12:04.000Z</time>
      </trkpt>
      <trkpt lat="42.29392" lon="-0.438943">
        <ele>1418.6</ele>
        <time>2018-07-22T06:12:05.000Z</time>
      </trkpt>
      <trkpt lat="42.293919" lon="-0.438955">
        <ele>1418.5</ele>
        <time>2018-07-22T06:12:06.000Z</time>
      </trkpt>
      <trkpt lat="42.293918" lon="-0.438968">
        <ele>1418.5</ele>
        <time>2018-07-22T06:12:07.000Z</time>
      </trkpt>
      <trkpt lat="42.293918" lon="-0.438981">
        <ele>1418.5</ele>
        <time>2018-07-22T06:12:08.000Z</time>
      </trkpt>
      <trkpt lat="42.293917" lon="-0.438994">
        <ele>1418.5</ele>
        <time>2018-07-22T06:12:09.000Z</time>
      </trkpt>
      <trkpt lat="42.293917" lon="-0.439004">
        <ele>1418.5</ele>
        <time>2018-07-22T06:12:10.000Z</time>
      </trkpt>
      <trkpt lat="42.293917" lon="-0.439013">
        <ele>1418.6</ele>
        <time>2018-07-22T06:12:11.000Z</time>
      </trkpt>
      <trkpt lat="42.293917" lon="-0.439019">
        <ele>1418.6</ele>
        <time>2018-07-22T06:12:12.000Z</time>
      </trkpt>
      <trkpt lat="42.293916" lon="-0.439024">
        <ele>1418.5</ele>
        <time>2018-07-22T06:12:13.000Z</time>
      </trkpt>
      <trkpt lat="42.293916" lon="-0.439027">
        <ele>1418.6</ele>
        <time>2018-07-22T06:12:14.000Z</time>
      </trkpt>
      <trkpt lat="42.293916" lon="-0.43903">
        <ele>1418.6</ele>
        <time>2018-07-22T06:12:15.000Z</time>
      </trkpt>
      <trkpt lat="42.293917" lon="-0.439033">
        <ele>1418.6</ele>
        <time>2018-07-22T06:12:16.000Z</time>
      </trkpt>
      <trkpt lat="42.293917" lon="-0.439035">
        <ele>1418.6</ele>
        <time>2018-07-22T06:12:17.000Z</time>
      </trkpt>
      <trkpt lat="42.293918" lon="-0.439037">
        <ele>1418.7</ele>
        <time>2018-07-22T06:12:18.000Z</time>
      </trkpt>
      <trkpt lat="42.293918" lon="-0.439039">
        <ele>1418.7</ele>
        <time>2018-07-22T06:12:19.000Z</time>
      </trkpt>
      <trkpt lat="42.293919" lon="-0.439041">
        <ele>1418.7</ele>
        <time>2018-07-22T06:12:20.000Z</time>
      </trkpt>
      <trkpt lat="42.293919" lon="-0.439043">
        <ele>1418.7</ele>
        <time>2018-07-22T06:12:21.000Z</time>
      </trkpt>
      <trkpt lat="42.293919" lon="-0.439044">
        <ele>1418.7</ele>
        <time>2018-07-22T06:12:22.000Z</time>
      </trkpt>
      <trkpt lat="42.293919" lon="-0.439046">
        <ele>1418.7</ele>
        <time>2018-07-22T06:12:23.000Z</time>
      </trkpt>
      <trkpt lat="42.293919" lon="-0.439047">
        <ele>1418.7</ele>
        <time>2018-07-22T06:12:24.000Z</time>
      </trkpt>
      <trkpt lat="42.29392" lon="-0.439047">
        <ele>1418.8</ele>
        <time>2018-07-22T06:12:25.000Z</time>
      </trkpt>
      <trkpt lat="42.29392" lon="-0.439047">
        <ele>1418.8</ele>
        <time>2018-07-22T06:12:26.000Z</time>
      </trkpt>
      <trkpt lat="42.29392" lon="-0.439049">
        <ele>1418.8</ele>
        <time>2018-07-22T06:12:27.000Z</time>
      </trkpt>
      <trkpt lat="42.29393" lon="-0.439046">
        <ele>1419.2</ele>
        <time>2018-07-22T06:12:28.000Z</time>
      </trkpt>
      <trkpt lat="42.293936" lon="-0.439042">
        <ele>1419.5</ele>
        <time>2018-07-22T06:12:29.000Z</time>
      </trkpt>
      <trkpt lat="42.293939" lon="-0.439039">
        <ele>1419.7</ele>
        <time>2018-07-22T06:12:30.000Z</time>
      </trkpt>
      <trkpt lat="42.293944" lon="-0.439035">
        <ele>1419.9</ele>
        <time>2018-07-22T06:12:31.000Z</time>
      </trkpt>
      <trkpt lat="42.29395" lon="-0.439033">
        <ele>1420.2</ele>
        <time>2018-07-22T06:12:32.000Z</time>
      </trkpt>
      <trkpt lat="42.293954" lon="-0.439033">
        <ele>1420.3</ele>
        <time>2018-07-22T06:12:33.000Z</time>
      </trkpt>
      <trkpt lat="42.293959" lon="-0.439035">
        <ele>1420.6</ele>
        <time>2018-07-22T06:12:34.000Z</time>
      </trkpt>
      <trkpt lat="42.293962" lon="-0.439038">
        <ele>1420.7</ele>
        <time>2018-07-22T06:12:35.000Z</time>
      </trkpt>
      <trkpt lat="42.293966" lon="-0.439043">
        <ele>1420.9</ele>
        <time>2018-07-22T06:12:36.000Z</time>
      </trkpt>
      <trkpt lat="42.293969" lon="-0.439048">
        <ele>1421.1</ele>
        <time>2018-07-22T06:12:37.000Z</time>
      </trkpt>
      <trkpt lat="42.293971" lon="-0.439054">
        <ele>1421.2</ele>
        <time>2018-07-22T06:12:38.000Z</time>
      </trkpt>
      <trkpt lat="42.293974" lon="-0.439061">
        <ele>1421.3</ele>
        <time>2018-07-22T06:12:39.000Z</time>
      </trkpt>
      <trkpt lat="42.293976" lon="-0.439067">
        <ele>1421.4</ele>
        <time>2018-07-22T06:12:40.000Z</time>
      </trkpt>
      <trkpt lat="42.293978" lon="-0.439072">
        <ele>1421.5</ele>
        <time>2018-07-22T06:12:41.000Z</time>
      </trkpt>
      <trkpt lat="42.293979" lon="-0.439077">
        <ele>1421.6</ele>
        <time>2018-07-22T06:12:42.000Z</time>
      </trkpt>
      <trkpt lat="42.29398" lon="-0.43908">
        <ele>1421.6</ele>
        <time>2018-07-22T06:12:43.000Z</time>
      </trkpt>
      <trkpt lat="42.293981" lon="-0.439082">
        <ele>1421.7</ele>
        <time>2018-07-22T06:12:44.000Z</time>
      </trkpt>
      <trkpt lat="42.293982" lon="-0.439083">
        <ele>1421.7</ele>
        <time>2018-07-22T06:12:45.000Z</time>
      </trkpt>
      <trkpt lat="42.293982" lon="-0.439083">
        <ele>1421.7</ele>
        <time>2018-07-22T06:12:46.000Z</time>
      </trkpt>
      <trkpt lat="42.293983" lon="-0.439084">
        <ele>1421.8</ele>
        <time>2018-07-22T06:12:47.000Z</time>
      </trkpt>
      <trkpt lat="42.293983" lon="-0.439084">
        <ele>1421.8</ele>
        <time>2018-07-22T06:12:48.000Z</time>
      </trkpt>
      <trkpt lat="42.293983" lon="-0.439085">
        <ele>1421.8</ele>
        <time>2018-07-22T06:12:49.000Z</time>
      </trkpt>
      <trkpt lat="42.293984" lon="-0.439085">
        <ele>1421.8</ele>
        <time>2018-07-22T06:12:50.000Z</time>
      </trkpt>
      <trkpt lat="42.293984" lon="-0.439086">
        <ele>1421.8</ele>
        <time>2018-07-22T06:12:51.000Z</time>
      </trkpt>
      <trkpt lat="42.293984" lon="-0.439087">
        <ele>1421.8</ele>
        <time>2018-07-22T06:12:52.000Z</time>
      </trkpt>
      <trkpt lat="42.293985" lon="-0.439087">
        <ele>1421.9</ele>
        <time>2018-07-22T06:12:53.000Z</time>
      </trkpt>
      <trkpt lat="42.293985" lon="-0.439088">
        <ele>1421.9</ele>
        <time>2018-07-22T06:12:54.000Z</time>
      </trkpt>
      <trkpt lat="42.293985" lon="-0.439089">
        <ele>1421.9</ele>
        <time>2018-07-22T06:12:55.000Z</time>
      </trkpt>
      <trkpt lat="42.293986" lon="-0.43909">
        <ele>1421.9</ele>
        <time>2018-07-22T06:12:56.000Z</time>
      </trkpt>
      <trkpt lat="42.293986" lon="-0.439091">
        <ele>1421.9</ele>
        <time>2018-07-22T06:12:57.000Z</time>
      </trkpt>
      <trkpt lat="42.293986" lon="-0.439092">
        <ele>1421.9</ele>
        <time>2018-07-22T06:12:58.000Z</time>
      </trkpt>
      <trkpt lat="42.293987" lon="-0.439093">
        <ele>1422.0</ele>
        <time>2018-07-22T06:12:59.000Z</time>
      </trkpt>
      <trkpt lat="42.293987" lon="-0.439095">
        <ele>1422.0</ele>
        <time>2018-07-22T06:13:00.000Z</time>
      </trkpt>
      <trkpt lat="42.293988" lon="-0.439096">
        <ele>1422.0</ele>
        <time>2018-07-22T06:13:01.000Z</time>
      </trkpt>
      <trkpt lat="42.293988" lon="-0.439097">
        <ele>1422.0</ele>
        <time>2018-07-22T06:13:02.000Z</time>
      </trkpt>
      <trkpt lat="42.293988" lon="-0.439099">
        <ele>1422.0</ele>
        <time>2018-07-22T06:13:03.000Z</time>
      </trkpt>
      <trkpt lat="42.293989" lon="-0.4391">
        <ele>1422.0</ele>
        <time>2018-07-22T06:13:04.000Z</time>
      </trkpt>
      <trkpt lat="42.293989" lon="-0.439101">
        <ele>1422.1</ele>
        <time>2018-07-22T06:13:05.000Z</time>
      </trkpt>
      <trkpt lat="42.29399" lon="-0.439103">
        <ele>1422.1</ele>
        <time>2018-07-22T06:13:06.000Z</time>
      </trkpt>
      <trkpt lat="42.29399" lon="-0.439104">
        <ele>1422.1</ele>
        <time>2018-07-22T06:13:07.000Z</time>
      </trkpt>
      <trkpt lat="42.293991" lon="-0.439106">
        <ele>1422.1</ele>
        <time>2018-07-22T06:13:08.000Z</time>
      </trkpt>
      <trkpt lat="42.293992" lon="-0.439108">
        <ele>1422.2</ele>
        <time>2018-07-22T06:13:09.000Z</time>
      </trkpt>
      <trkpt lat="42.293992" lon="-0.439109">
        <ele>1422.2</ele>
        <time>2018-07-22T06:13:10.000Z</time>
      </trkpt>
      <trkpt lat="42.293993" lon="-0.439111">
        <ele>1422.2</ele>
        <time>2018-07-22T06:13:11.000Z</time>
      </trkpt>
      <trkpt lat="42.293993" lon="-0.439113">
        <ele>1422.2</ele>
        <time>2018-07-22T06:13:12.000Z</time>
      </trkpt>
      <trkpt lat="42.293994" lon="-0.439114">
        <ele>1422.3</ele>
        <time>2018-07-22T06:13:13.000Z</time>
      </trkpt>
      <trkpt lat="42.293995" lon="-0.439117">
        <ele>1422.3</ele>
        <time>2018-07-22T06:13:14.000Z</time>
      </trkpt>
      <trkpt lat="42.293996" lon="-0.439119">
        <ele>1422.4</ele>
        <time>2018-07-22T06:13:15.000Z</time>
      </trkpt>
      <trkpt lat="42.293996" lon="-0.439121">
        <ele>1422.4</ele>
        <time>2018-07-22T06:13:16.000Z</time>
      </trkpt>
      <trkpt lat="42.293996" lon="-0.439122">
        <ele>1422.4</ele>
        <time>2018-07-22T06:13:17.000Z</time>
      </trkpt>
      <trkpt lat="42.293997" lon="-0.439123">
        <ele>1422.4</ele>
        <time>2018-07-22T06:13:18.000Z</time>
      </trkpt>
      <trkpt lat="42.293997" lon="-0.439124">
        <ele>1422.4</ele>
        <time>2018-07-22T06:13:19.000Z</time>
      </trkpt>
      <trkpt lat="42.293998" lon="-0.439125">
        <ele>1422.5</ele>
        <time>2018-07-22T06:13:20.000Z</time>
      </trkpt>
      <trkpt lat="42.293998" lon="-0.439126">
        <ele>1422.5</ele>
        <time>2018-07-22T06:13:21.000Z</time>
      </trkpt>
      <trkpt lat="42.293998" lon="-0.439127">
        <ele>1422.5</ele>
        <time>2018-07-22T06:13:22.000Z</time>
      </trkpt>
      <trkpt lat="42.293999" lon="-0.439128">
        <ele>1422.5</ele>
        <time>2018-07-22T06:13:23.000Z</time>
      </trkpt>
      <trkpt lat="42.293999" lon="-0.439129">
        <ele>1422.5</ele>
        <time>2018-07-22T06:13:24.000Z</time>
      </trkpt>
      <trkpt lat="42.293999" lon="-0.439129">
        <ele>1422.5</ele>
        <time>2018-07-22T06:13:25.000Z</time>
      </trkpt>
      <trkpt lat="42.293999" lon="-0.43913">
        <ele>1422.5</ele>
        <time>2018-07-22T06:13:26.000Z</time>
      </trkpt>
      <trkpt lat="42.293999" lon="-0.43913">
        <ele>1422.5</ele>
        <time>2018-07-22T06:13:27.000Z</time>
      </trkpt>
      <trkpt lat="42.293999" lon="-0.439131">
        <ele>1422.5</ele>
        <time>2018-07-22T06:13:28.000Z</time>
      </trkpt>
      <trkpt lat="42.293999" lon="-0.439131">
        <ele>1422.5</ele>
        <time>2018-07-22T06:13:29.000Z</time>
      </trkpt>
      <trkpt lat="42.293999" lon="-0.439131">
        <ele>1422.5</ele>
        <time>2018-07-22T06:13:30.000Z</time>
      </trkpt>
      <trkpt lat="42.293999" lon="-0.439132">
        <ele>1422.5</ele>
        <time>2018-07-22T06:13:31.000Z</time>
      </trkpt>
      <trkpt lat="42.293999" lon="-0.439132">
        <ele>1422.5</ele>
        <time>2018-07-22T06:13:32.000Z</time>
      </trkpt>
      <trkpt lat="42.293999" lon="-0.439132">
        <ele>1422.5</ele>
        <time>2018-07-22T06:13:33.000Z</time>
      </trkpt>
      <trkpt lat="42.293999" lon="-0.439132">
        <ele>1422.5</ele>
        <time>2018-07-22T06:13:34.000Z</time>
      </trkpt>
      <trkpt lat="42.293999" lon="-0.439132">
        <ele>1422.5</ele>
        <time>2018-07-22T06:13:35.000Z</time>
      </trkpt>
      <trkpt lat="42.293999" lon="-0.439132">
        <ele>1422.5</ele>
        <time>2018-07-22T06:13:36.000Z</time>
      </trkpt>
      <trkpt lat="42.293999" lon="-0.439132">
        <ele>1422.5</ele>
        <time>2018-07-22T06:13:37.000Z</time>
      </trkpt>
      <trkpt lat="42.293999" lon="-0.439132">
        <ele>1422.5</ele>
        <time>2018-07-22T06:13:38.000Z</time>
      </trkpt>
      <trkpt lat="42.293999" lon="-0.439132">
        <ele>1422.5</ele>
        <time>2018-07-22T06:13:39.000Z</time>
      </trkpt>
      <trkpt lat="42.293999" lon="-0.439132">
        <ele>1422.5</ele>
        <time>2018-07-22T06:13:40.000Z</time>
      </trkpt>
      <trkpt lat="42.293999" lon="-0.439132">
        <ele>1422.5</ele>
        <time>2018-07-22T06:13:41.000Z</time>
      </trkpt>
      <trkpt lat="42.293999" lon="-0.439132">
        <ele>1422.5</ele>
        <time>2018-07-22T06:13:42.000Z</time>
      </trkpt>
      <trkpt lat="42.293999" lon="-0.439132">
        <ele>1422.5</ele>
        <time>2018-07-22T06:13:43.000Z</time>
      </trkpt>
      <trkpt lat="42.293999" lon="-0.439133">
        <ele>1422.5</ele>
        <time>2018-07-22T06:13:44.000Z</time>
      </trkpt>
      <trkpt lat="42.293999" lon="-0.439133">
        <ele>1422.5</ele>
        <time>2018-07-22T06:13:45.000Z</time>
      </trkpt>
      <trkpt lat="42.293999" lon="-0.439134">
        <ele>1422.5</ele>
        <time>2018-07-22T06:13:46.000Z</time>
      </trkpt>
      <trkpt lat="42.293999" lon="-0.439134">
        <ele>1422.5</ele>
        <time>2018-07-22T06:13:47.000Z</time>
      </trkpt>
      <trkpt lat="42.293999" lon="-0.439135">
        <ele>1422.5</ele>
        <time>2018-07-22T06:13:48.000Z</time>
      </trkpt>
      <trkpt lat="42.293999" lon="-0.439136">
        <ele>1422.5</ele>
        <time>2018-07-22T06:13:49.000Z</time>
      </trkpt>
      <trkpt lat="42.293999" lon="-0.439137">
        <ele>1422.5</ele>
        <time>2018-07-22T06:13:50.000Z</time>
      </trkpt>
      <trkpt lat="42.293999" lon="-0.439138">
        <ele>1422.5</ele>
        <time>2018-07-22T06:13:51.000Z</time>
      </trkpt>
      <trkpt lat="42.293999" lon="-0.43914">
        <ele>1422.5</ele>
        <time>2018-07-22T06:13:52.000Z</time>
      </trkpt>
      <trkpt lat="42.293999" lon="-0.439141">
        <ele>1422.5</ele>
        <time>2018-07-22T06:13:53.000Z</time>
      </trkpt>
      <trkpt lat="42.293999" lon="-0.439143">
        <ele>1422.5</ele>
        <time>2018-07-22T06:13:54.000Z</time>
      </trkpt>
      <trkpt lat="42.293999" lon="-0.439145">
        <ele>1422.5</ele>
        <time>2018-07-22T06:13:55.000Z</time>
      </trkpt>
      <trkpt lat="42.293999" lon="-0.439147">
        <ele>1422.5</ele>
        <time>2018-07-22T06:13:56.000Z</time>
      </trkpt>
      <trkpt lat="42.293998" lon="-0.43915">
        <ele>1422.5</ele>
        <time>2018-07-22T06:13:57.000Z</time>
      </trkpt>
      <trkpt lat="42.293998" lon="-0.439153">
        <ele>1422.5</ele>
        <time>2018-07-22T06:13:58.000Z</time>
      </trkpt>
      <trkpt lat="42.293997" lon="-0.439157">
        <ele>1422.5</ele>
        <time>2018-07-22T06:13:59.000Z</time>
      </trkpt>
      <trkpt lat="42.293997" lon="-0.43916">
        <ele>1422.5</ele>
        <time>2018-07-22T06:14:00.000Z</time>
      </trkpt>
      <trkpt lat="42.293997" lon="-0.439163">
        <ele>1422.5</ele>
        <time>2018-07-22T06:14:01.000Z</time>
      </trkpt>
      <trkpt lat="42.293998" lon="-0.439168">
        <ele>1422.5</ele>
        <time>2018-07-22T06:14:02.000Z</time>
      </trkpt>
      <trkpt lat="42.293997" lon="-0.439173">
        <ele>1422.4</ele>
        <time>2018-07-22T06:14:03.000Z</time>
      </trkpt>
      <trkpt lat="42.293996" lon="-0.439176">
        <ele>1422.4</ele>
        <time>2018-07-22T06:14:04.000Z</time>
      </trkpt>
      <trkpt lat="42.293996" lon="-0.439179">
        <ele>1422.3</ele>
        <time>2018-07-22T06:14:05.000Z</time>
      </trkpt>
      <trkpt lat="42.293995" lon="-0.439181">
        <ele>1422.3</ele>
        <time>2018-07-22T06:14:06.000Z</time>
      </trkpt>
      <trkpt lat="42.293995" lon="-0.439183">
        <ele>1422.3</ele>
        <time>2018-07-22T06:14:07.000Z</time>
      </trkpt>
      <trkpt lat="42.293996" lon="-0.439185">
        <ele>1422.3</ele>
        <time>2018-07-22T06:14:08.000Z</time>
      </trkpt>
      <trkpt lat="42.293996" lon="-0.439187">
        <ele>1422.3</ele>
        <time>2018-07-22T06:14:09.000Z</time>
      </trkpt>
      <trkpt lat="42.293996" lon="-0.439189">
        <ele>1422.3</ele>
        <time>2018-07-22T06:14:10.000Z</time>
      </trkpt>
      <trkpt lat="42.293997" lon="-0.439191">
        <ele>1422.3</ele>
        <time>2018-07-22T06:14:11.000Z</time>
      </trkpt>
      <trkpt lat="42.293997" lon="-0.439194">
        <ele>1422.3</ele>
        <time>2018-07-22T06:14:12.000Z</time>
      </trkpt>
      <trkpt lat="42.293998" lon="-0.439196">
        <ele>1422.3</ele>
        <time>2018-07-22T06:14:13.000Z</time>
      </trkpt>
      <trkpt lat="42.293998" lon="-0.439198">
        <ele>1422.3</ele>
        <time>2018-07-22T06:14:14.000Z</time>
      </trkpt>
      <trkpt lat="42.293998" lon="-0.439201">
        <ele>1422.3</ele>
        <time>2018-07-22T06:14:15.000Z</time>
      </trkpt>
      <trkpt lat="42.293991" lon="-0.439205">
        <ele>1421.9</ele>
        <time>2018-07-22T06:14:16.000Z</time>
      </trkpt>
      <trkpt lat="42.293983" lon="-0.439208">
        <ele>1421.6</ele>
        <time>2018-07-22T06:14:17.000Z</time>
      </trkpt>
      <trkpt lat="42.293977" lon="-0.439211">
        <ele>1421.3</ele>
        <time>2018-07-22T06:14:18.000Z</time>
      </trkpt>
      <trkpt lat="42.293972" lon="-0.439216">
        <ele>1421.1</ele>
        <time>2018-07-22T06:14:19.000Z</time>
      </trkpt>
      <trkpt lat="42.293969" lon="-0.439219">
        <ele>1420.9</ele>
        <time>2018-07-22T06:14:20.000Z</time>
      </trkpt>
      <trkpt lat="42.293966" lon="-0.439222">
        <ele>1420.8</ele>
        <time>2018-07-22T06:14:21.000Z</time>
      </trkpt>
      <trkpt lat="42.293964" lon="-0.439225">
        <ele>1420.7</ele>
        <time>2018-07-22T06:14:22.000Z</time>
      </trkpt>
      <trkpt lat="42.293963" lon="-0.439226">
        <ele>1420.6</ele>
        <time>2018-07-22T06:14:23.000Z</time>
      </trkpt>
      <trkpt lat="42.293961" lon="-0.439228">
        <ele>1420.5</ele>
        <time>2018-07-22T06:14:24.000Z</time>
      </trkpt>
      <trkpt lat="42.29396" lon="-0.43923">
        <ele>1420.5</ele>
        <time>2018-07-22T06:14:25.000Z</time>
      </trkpt>
      <trkpt lat="42.293959" lon="-0.439232">
        <ele>1420.4</ele>
        <time>2018-07-22T06:14:26.000Z</time>
      </trkpt>
      <trkpt lat="42.293957" lon="-0.439234">
        <ele>1420.3</ele>
        <time>2018-07-22T06:14:27.000Z</time>
      </trkpt>
      <trkpt lat="42.293956" lon="-0.439235">
        <ele>1420.3</ele>
        <time>2018-07-22T06:14:28.000Z</time>
      </trkpt>
      <trkpt lat="42.293955" lon="-0.439237">
        <ele>1420.2</ele>
        <time>2018-07-22T06:14:29.000Z</time>
      </trkpt>
      <trkpt lat="42.293954" lon="-0.439238">
        <ele>1420.2</ele>
        <time>2018-07-22T06:14:30.000Z</time>
      </trkpt>
      <trkpt lat="42.293954" lon="-0.439245">
        <ele>1420.1</ele>
        <time>2018-07-22T06:14:31.000Z</time>
      </trkpt>
      <trkpt lat="42.293955" lon="-0.439267">
        <ele>1420.0</ele>
        <time>2018-07-22T06:14:32.000Z</time>
      </trkpt>
      <trkpt lat="42.293954" lon="-0.439273">
        <ele>1420.0</ele>
        <time>2018-07-22T06:14:33.000Z</time>
      </trkpt>
      <trkpt lat="42.293954" lon="-0.439282">
        <ele>1419.9</ele>
        <time>2018-07-22T06:14:34.000Z</time>
      </trkpt>
      <trkpt lat="42.293957" lon="-0.439293">
        <ele>1420.0</ele>
        <time>2018-07-22T06:14:35.000Z</time>
      </trkpt>
      <trkpt lat="42.293961" lon="-0.4393">
        <ele>1420.1</ele>
        <time>2018-07-22T06:14:36.000Z</time>
      </trkpt>
      <trkpt lat="42.293965" lon="-0.439305">
        <ele>1420.2</ele>
        <time>2018-07-22T06:14:37.000Z</time>
      </trkpt>
      <trkpt lat="42.293968" lon="-0.439308">
        <ele>1420.3</ele>
        <time>2018-07-22T06:14:38.000Z</time>
      </trkpt>
      <trkpt lat="42.293971" lon="-0.439309">
        <ele>1420.4</ele>
        <time>2018-07-22T06:14:39.000Z</time>
      </trkpt>
      <trkpt lat="42.293974" lon="-0.439308">
        <ele>1420.6</ele>
        <time>2018-07-22T06:14:40.000Z</time>
      </trkpt>
      <trkpt lat="42.293976" lon="-0.439308">
        <ele>1420.7</ele>
        <time>2018-07-22T06:14:41.000Z</time>
      </trkpt>
      <trkpt lat="42.293978" lon="-0.439307">
        <ele>1420.7</ele>
        <time>2018-07-22T06:14:42.000Z</time>
      </trkpt>
      <trkpt lat="42.29398" lon="-0.439308">
        <ele>1420.8</ele>
        <time>2018-07-22T06:14:43.000Z</time>
      </trkpt>
      <trkpt lat="42.293982" lon="-0.439309">
        <ele>1420.9</ele>
        <time>2018-07-22T06:14:44.000Z</time>
      </trkpt>
      <trkpt lat="42.293984" lon="-0.439311">
        <ele>1421.0</ele>
        <time>2018-07-22T06:14:45.000Z</time>
      </trkpt>
      <trkpt lat="42.293986" lon="-0.439313">
        <ele>1421.0</ele>
        <time>2018-07-22T06:14:46.000Z</time>
      </trkpt>
      <trkpt lat="42.293989" lon="-0.439315">
        <ele>1421.1</ele>
        <time>2018-07-22T06:14:47.000Z</time>
      </trkpt>
      <trkpt lat="42.293993" lon="-0.439318">
        <ele>1421.3</ele>
        <time>2018-07-22T06:14:48.000Z</time>
      </trkpt>
      <trkpt lat="42.294" lon="-0.439321">
        <ele>1421.5</ele>
        <time>2018-07-22T06:14:49.000Z</time>
      </trkpt>
      <trkpt lat="42.294006" lon="-0.439324">
        <ele>1421.7</ele>
        <time>2018-07-22T06:14:50.000Z</time>
      </trkpt>
      <trkpt lat="42.29401" lon="-0.439326">
        <ele>1421.9</ele>
        <time>2018-07-22T06:14:51.000Z</time>
      </trkpt>
      <trkpt lat="42.294014" lon="-0.439328">
        <ele>1422.0</ele>
        <time>2018-07-22T06:14:52.000Z</time>
      </trkpt>
      <trkpt lat="42.294018" lon="-0.43933">
        <ele>1422.2</ele>
        <time>2018-07-22T06:14:53.000Z</time>
      </trkpt>
      <trkpt lat="42.29402" lon="-0.439332">
        <ele>1422.2</ele>
        <time>2018-07-22T06:14:54.000Z</time>
      </trkpt>
      <trkpt lat="42.294023" lon="-0.439334">
        <ele>1422.3</ele>
        <time>2018-07-22T06:14:55.000Z</time>
      </trkpt>
      <trkpt lat="42.294025" lon="-0.439336">
        <ele>1422.4</ele>
        <time>2018-07-22T06:14:56.000Z</time>
      </trkpt>
      <trkpt lat="42.294027" lon="-0.439337">
        <ele>1422.5</ele>
        <time>2018-07-22T06:14:57.000Z</time>
      </trkpt>
      <trkpt lat="42.294029" lon="-0.439338">
        <ele>1422.5</ele>
        <time>2018-07-22T06:14:58.000Z</time>
      </trkpt>
      <trkpt lat="42.29403" lon="-0.439339">
        <ele>1422.6</ele>
        <time>2018-07-22T06:14:59.000Z</time>
      </trkpt>
      <trkpt lat="42.294032" lon="-0.439341">
        <ele>1422.6</ele>
        <time>2018-07-22T06:15:00.000Z</time>
      </trkpt>
      <trkpt lat="42.294035" lon="-0.439348">
        <ele>1422.7</ele>
        <time>2018-07-22T06:15:01.000Z</time>
      </trkpt>
      <trkpt lat="42.294039" lon="-0.439357">
        <ele>1422.8</ele>
        <time>2018-07-22T06:15:02.000Z</time>
      </trkpt>
      <trkpt lat="42.294043" lon="-0.439363">
        <ele>1422.9</ele>
        <time>2018-07-22T06:15:03.000Z</time>
      </trkpt>
      <trkpt lat="42.294047" lon="-0.439371">
        <ele>1423.0</ele>
        <time>2018-07-22T06:15:04.000Z</time>
      </trkpt>
      <trkpt lat="42.294049" lon="-0.439379">
        <ele>1423.0</ele>
        <time>2018-07-22T06:15:05.000Z</time>
      </trkpt>
      <trkpt lat="42.294051" lon="-0.439386">
        <ele>1423.0</ele>
        <time>2018-07-22T06:15:06.000Z</time>
      </trkpt>
      <trkpt lat="42.294052" lon="-0.439391">
        <ele>1423.0</ele>
        <time>2018-07-22T06:15:07.000Z</time>
      </trkpt>
      <trkpt lat="42.294052" lon="-0.439395">
        <ele>1423.0</ele>
        <time>2018-07-22T06:15:08.000Z</time>
      </trkpt>
      <trkpt lat="42.294053" lon="-0.439398">
        <ele>1423.0</ele>
        <time>2018-07-22T06:15:09.000Z</time>
      </trkpt>
      <trkpt lat="42.294053" lon="-0.439401">
        <ele>1422.9</ele>
        <time>2018-07-22T06:15:10.000Z</time>
      </trkpt>
      <trkpt lat="42.294053" lon="-0.439403">
        <ele>1422.9</ele>
        <time>2018-07-22T06:15:11.000Z</time>
      </trkpt>
      <trkpt lat="42.294054" lon="-0.439405">
        <ele>1422.9</ele>
        <time>2018-07-22T06:15:12.000Z</time>
      </trkpt>
      <trkpt lat="42.294054" lon="-0.439407">
        <ele>1422.9</ele>
        <time>2018-07-22T06:15:13.000Z</time>
      </trkpt>
      <trkpt lat="42.294055" lon="-0.439409">
        <ele>1423.0</ele>
        <time>2018-07-22T06:15:14.000Z</time>
      </trkpt>
      <trkpt lat="42.294055" lon="-0.43941">
        <ele>1422.9</ele>
        <time>2018-07-22T06:15:15.000Z</time>
      </trkpt>
      <trkpt lat="42.294056" lon="-0.439412">
        <ele>1423.0</ele>
        <time>2018-07-22T06:15:16.000Z</time>
      </trkpt>
      <trkpt lat="42.294056" lon="-0.439413">
        <ele>1423.0</ele>
        <time>2018-07-22T06:15:17.000Z</time>
      </trkpt>
      <trkpt lat="42.294056" lon="-0.439415">
        <ele>1422.9</ele>
        <time>2018-07-22T06:15:18.000Z</time>
      </trkpt>
      <trkpt lat="42.294057" lon="-0.439417">
        <ele>1423.0</ele>
        <time>2018-07-22T06:15:19.000Z</time>
      </trkpt>
      <trkpt lat="42.294057" lon="-0.43942">
        <ele>1422.9</ele>
        <time>2018-07-22T06:15:20.000Z</time>
      </trkpt>
      <trkpt lat="42.294059" lon="-0.439425">
        <ele>1423.0</ele>
        <time>2018-07-22T06:15:21.000Z</time>
      </trkpt>
      <trkpt lat="42.294061" lon="-0.439434">
        <ele>1423.0</ele>
        <time>2018-07-22T06:15:22.000Z</time>
      </trkpt>
      <trkpt lat="42.294063" lon="-0.439441">
        <ele>1423.0</ele>
        <time>2018-07-22T06:15:23.000Z</time>
      </trkpt>
      <trkpt lat="42.294064" lon="-0.439447">
        <ele>1422.9</ele>
        <time>2018-07-22T06:15:24.000Z</time>
      </trkpt>
      <trkpt lat="42.294065" lon="-0.439452">
        <ele>1422.9</ele>
        <time>2018-07-22T06:15:25.000Z</time>
      </trkpt>
      <trkpt lat="42.294066" lon="-0.439457">
        <ele>1422.9</ele>
        <time>2018-07-22T06:15:26.000Z</time>
      </trkpt>
      <trkpt lat="42.294067" lon="-0.43946">
        <ele>1422.9</ele>
        <time>2018-07-22T06:15:27.000Z</time>
      </trkpt>
      <trkpt lat="42.294068" lon="-0.439462">
        <ele>1423.0</ele>
        <time>2018-07-22T06:15:28.000Z</time>
      </trkpt>
      <trkpt lat="42.294068" lon="-0.439464">
        <ele>1422.9</ele>
        <time>2018-07-22T06:15:29.000Z</time>
      </trkpt>
      <trkpt lat="42.294068" lon="-0.439465">
        <ele>1422.9</ele>
        <time>2018-07-22T06:15:30.000Z</time>
      </trkpt>
      <trkpt lat="42.294069" lon="-0.439466">
        <ele>1423.0</ele>
        <time>2018-07-22T06:15:31.000Z</time>
      </trkpt>
      <trkpt lat="42.294069" lon="-0.439467">
        <ele>1422.9</ele>
        <time>2018-07-22T06:15:32.000Z</time>
      </trkpt>
      <trkpt lat="42.294069" lon="-0.439467">
        <ele>1422.9</ele>
        <time>2018-07-22T06:15:33.000Z</time>
      </trkpt>
      <trkpt lat="42.294069" lon="-0.439467">
        <ele>1422.9</ele>
        <time>2018-07-22T06:15:34.000Z</time>
      </trkpt>
      <trkpt lat="42.294069" lon="-0.439468">
        <ele>1422.9</ele>
        <time>2018-07-22T06:15:35.000Z</time>
      </trkpt>
      <trkpt lat="42.294069" lon="-0.439468">
        <ele>1422.9</ele>
        <time>2018-07-22T06:15:36.000Z</time>
      </trkpt>
      <trkpt lat="42.294069" lon="-0.439468">
        <ele>1422.9</ele>
        <time>2018-07-22T06:15:37.000Z</time>
      </trkpt>
      <trkpt lat="42.294069" lon="-0.439468">
        <ele>1422.9</ele>
        <time>2018-07-22T06:15:38.000Z</time>
      </trkpt>
      <trkpt lat="42.294069" lon="-0.439468">
        <ele>1422.9</ele>
        <time>2018-07-22T06:15:39.000Z</time>
      </trkpt>
      <trkpt lat="42.294069" lon="-0.439468">
        <ele>1422.9</ele>
        <time>2018-07-22T06:15:40.000Z</time>
      </trkpt>
      <trkpt lat="42.294069" lon="-0.439468">
        <ele>1422.9</ele>
        <time>2018-07-22T06:15:41.000Z</time>
      </trkpt>
      <trkpt lat="42.29407" lon="-0.439469">
        <ele>1423.0</ele>
        <time>2018-07-22T06:15:42.000Z</time>
      </trkpt>
      <trkpt lat="42.29407" lon="-0.439469">
        <ele>1423.0</ele>
        <time>2018-07-22T06:15:43.000Z</time>
      </trkpt>
      <trkpt lat="42.294071" lon="-0.43947">
        <ele>1423.0</ele>
        <time>2018-07-22T06:15:44.000Z</time>
      </trkpt>
      <trkpt lat="42.294071" lon="-0.439471">
        <ele>1423.0</ele>
        <time>2018-07-22T06:15:45.000Z</time>
      </trkpt>
      <trkpt lat="42.294072" lon="-0.439472">
        <ele>1423.0</ele>
        <time>2018-07-22T06:15:46.000Z</time>
      </trkpt>
      <trkpt lat="42.294073" lon="-0.439473">
        <ele>1423.0</ele>
        <time>2018-07-22T06:15:47.000Z</time>
      </trkpt>
      <trkpt lat="42.294074" lon="-0.439475">
        <ele>1423.0</ele>
        <time>2018-07-22T06:15:48.000Z</time>
      </trkpt>
      <trkpt lat="42.294075" lon="-0.439476">
        <ele>1423.1</ele>
        <time>2018-07-22T06:15:49.000Z</time>
      </trkpt>
      <trkpt lat="42.294075" lon="-0.439478">
        <ele>1423.1</ele>
        <time>2018-07-22T06:15:50.000Z</time>
      </trkpt>
      <trkpt lat="42.294076" lon="-0.43948">
        <ele>1423.1</ele>
        <time>2018-07-22T06:15:51.000Z</time>
      </trkpt>
      <trkpt lat="42.294077" lon="-0.439482">
        <ele>1423.1</ele>
        <time>2018-07-22T06:15:52.000Z</time>
      </trkpt>
      <trkpt lat="42.294078" lon="-0.439484">
        <ele>1423.1</ele>
        <time>2018-07-22T06:15:53.000Z</time>
      </trkpt>
      <trkpt lat="42.294079" lon="-0.439486">
        <ele>1423.1</ele>
        <time>2018-07-22T06:15:54.000Z</time>
      </trkpt>
      <trkpt lat="42.29408" lon="-0.439488">
        <ele>1423.1</ele>
        <time>2018-07-22T06:15:55.000Z</time>
      </trkpt>
      <trkpt lat="42.294081" lon="-0.43949">
        <ele>1423.2</ele>
        <time>2018-07-22T06:15:56.000Z</time>
      </trkpt>
      <trkpt lat="42.294082" lon="-0.439492">
        <ele>1423.2</ele>
        <time>2018-07-22T06:15:57.000Z</time>
      </trkpt>
      <trkpt lat="42.294083" lon="-0.439494">
        <ele>1423.2</ele>
        <time>2018-07-22T06:15:58.000Z</time>
      </trkpt>
      <trkpt lat="42.294084" lon="-0.439496">
        <ele>1423.2</ele>
        <time>2018-07-22T06:15:59.000Z</time>
      </trkpt>
      <trkpt lat="42.294085" lon="-0.439497">
        <ele>1423.2</ele>
        <time>2018-07-22T06:16:00.000Z</time>
      </trkpt>
      <trkpt lat="42.294086" lon="-0.439499">
        <ele>1423.2</ele>
        <time>2018-07-22T06:16:01.000Z</time>
      </trkpt>
      <trkpt lat="42.294086" lon="-0.439499">
        <ele>1423.2</ele>
        <time>2018-07-22T06:16:02.000Z</time>
      </trkpt>
      <trkpt lat="42.294087" lon="-0.4395">
        <ele>1423.3</ele>
        <time>2018-07-22T06:16:03.000Z</time>
      </trkpt>
      <trkpt lat="42.294088" lon="-0.4395">
        <ele>1423.3</ele>
        <time>2018-07-22T06:16:04.000Z</time>
      </trkpt>
      <trkpt lat="42.294088" lon="-0.439502">
        <ele>1423.3</ele>
        <time>2018-07-22T06:16:05.000Z</time>
      </trkpt>
      <trkpt lat="42.294089" lon="-0.439504">
        <ele>1423.3</ele>
        <time>2018-07-22T06:16:06.000Z</time>
      </trkpt>
      <trkpt lat="42.29409" lon="-0.439505">
        <ele>1423.3</ele>
        <time>2018-07-22T06:16:07.000Z</time>
      </trkpt>
      <trkpt lat="42.294091" lon="-0.439504">
        <ele>1423.4</ele>
        <time>2018-07-22T06:16:08.000Z</time>
      </trkpt>
      <trkpt lat="42.294093" lon="-0.439503">
        <ele>1423.4</ele>
        <time>2018-07-22T06:16:09.000Z</time>
      </trkpt>
      <trkpt lat="42.294094" lon="-0.439503">
        <ele>1423.5</ele>
        <time>2018-07-22T06:16:10.000Z</time>
      </trkpt>
      <trkpt lat="42.294095" lon="-0.439503">
        <ele>1423.5</ele>
        <time>2018-07-22T06:16:11.000Z</time>
      </trkpt>
      <trkpt lat="42.294097" lon="-0.439503">
        <ele>1423.6</ele>
        <time>2018-07-22T06:16:12.000Z</time>
      </trkpt>
      <trkpt lat="42.294098" lon="-0.439504">
        <ele>1423.6</ele>
        <time>2018-07-22T06:16:13.000Z</time>
      </trkpt>
      <trkpt lat="42.294099" lon="-0.439504">
        <ele>1423.6</ele>
        <time>2018-07-22T06:16:14.000Z</time>
      </trkpt>
      <trkpt lat="42.2941" lon="-0.439504">
        <ele>1423.7</ele>
        <time>2018-07-22T06:16:15.000Z</time>
      </trkpt>
      <trkpt lat="42.294101" lon="-0.439505">
        <ele>1423.7</ele>
        <time>2018-07-22T06:16:16.000Z</time>
      </trkpt>
      <trkpt lat="42.294101" lon="-0.439505">
        <ele>1423.7</ele>
        <time>2018-07-22T06:16:17.000Z</time>
      </trkpt>
      <trkpt lat="42.294102" lon="-0.439505">
        <ele>1423.7</ele>
        <time>2018-07-22T06:16:18.000Z</time>
      </trkpt>
      <trkpt lat="42.294102" lon="-0.439505">
        <ele>1423.7</ele>
        <time>2018-07-22T06:16:19.000Z</time>
      </trkpt>
      <trkpt lat="42.294103" lon="-0.439505">
        <ele>1423.8</ele>
        <time>2018-07-22T06:16:20.000Z</time>
      </trkpt>
      <trkpt lat="42.294103" lon="-0.439505">
        <ele>1423.8</ele>
        <time>2018-07-22T06:16:21.000Z</time>
      </trkpt>
      <trkpt lat="42.294103" lon="-0.439505">
        <ele>1423.8</ele>
        <time>2018-07-22T06:16:22.000Z</time>
      </trkpt>
      <trkpt lat="42.294103" lon="-0.439505">
        <ele>1423.8</ele>
        <time>2018-07-22T06:16:23.000Z</time>
      </trkpt>
      <trkpt lat="42.294103" lon="-0.439506">
        <ele>1423.8</ele>
        <time>2018-07-22T06:16:24.000Z</time>
      </trkpt>
      <trkpt lat="42.294104" lon="-0.439506">
        <ele>1423.8</ele>
        <time>2018-07-22T06:16:25.000Z</time>
      </trkpt>
      <trkpt lat="42.294104" lon="-0.439506">
        <ele>1423.8</ele>
        <time>2018-07-22T06:16:26.000Z</time>
      </trkpt>
      <trkpt lat="42.294104" lon="-0.439506">
        <ele>1423.8</ele>
        <time>2018-07-22T06:16:27.000Z</time>
      </trkpt>
      <trkpt lat="42.294104" lon="-0.439506">
        <ele>1423.8</ele>
        <time>2018-07-22T06:16:28.000Z</time>
      </trkpt>
      <trkpt lat="42.294104" lon="-0.439506">
        <ele>1423.8</ele>
        <time>2018-07-22T06:16:29.000Z</time>
      </trkpt>
      <trkpt lat="42.294104" lon="-0.439506">
        <ele>1423.8</ele>
        <time>2018-07-22T06:16:30.000Z</time>
      </trkpt>
      <trkpt lat="42.294104" lon="-0.439506">
        <ele>1423.8</ele>
        <time>2018-07-22T06:16:31.000Z</time>
      </trkpt>
      <trkpt lat="42.294104" lon="-0.439507">
        <ele>1423.8</ele>
        <time>2018-07-22T06:16:32.000Z</time>
      </trkpt>
      <trkpt lat="42.294104" lon="-0.439507">
        <ele>1423.8</ele>
        <time>2018-07-22T06:16:33.000Z</time>
      </trkpt>
      <trkpt lat="42.294104" lon="-0.439507">
        <ele>1423.8</ele>
        <time>2018-07-22T06:16:34.000Z</time>
      </trkpt>
      <trkpt lat="42.294104" lon="-0.439507">
        <ele>1423.8</ele>
        <time>2018-07-22T06:16:35.000Z</time>
      </trkpt>
      <trkpt lat="42.294104" lon="-0.439507">
        <ele>1423.8</ele>
        <time>2018-07-22T06:16:36.000Z</time>
      </trkpt>
      <trkpt lat="42.294104" lon="-0.439506">
        <ele>1423.8</ele>
        <time>2018-07-22T06:16:37.000Z</time>
      </trkpt>
      <trkpt lat="42.294104" lon="-0.439506">
        <ele>1423.8</ele>
        <time>2018-07-22T06:16:38.000Z</time>
      </trkpt>
      <trkpt lat="42.294104" lon="-0.439506">
        <ele>1423.8</ele>
        <time>2018-07-22T06:16:39.000Z</time>
      </trkpt>
      <trkpt lat="42.294104" lon="-0.439506">
        <ele>1423.8</ele>
        <time>2018-07-22T06:16:40.000Z</time>
      </trkpt>
      <trkpt lat="42.294104" lon="-0.439506">
        <ele>1423.8</ele>
        <time>2018-07-22T06:16:41.000Z</time>
      </trkpt>
      <trkpt lat="42.294104" lon="-0.439506">
        <ele>1423.8</ele>
        <time>2018-07-22T06:16:42.000Z</time>
      </trkpt>
      <trkpt lat="42.294104" lon="-0.439506">
        <ele>1423.8</ele>
        <time>2018-07-22T06:16:43.000Z</time>
      </trkpt>
      <trkpt lat="42.294104" lon="-0.439507">
        <ele>1423.8</ele>
        <time>2018-07-22T06:16:44.000Z</time>
      </trkpt>
      <trkpt lat="42.294104" lon="-0.439507">
        <ele>1423.8</ele>
        <time>2018-07-22T06:16:45.000Z</time>
      </trkpt>
      <trkpt lat="42.294104" lon="-0.439507">
        <ele>1423.8</ele>
        <time>2018-07-22T06:16:46.000Z</time>
      </trkpt>
      <trkpt lat="42.294104" lon="-0.439508">
        <ele>1423.8</ele>
        <time>2018-07-22T06:16:47.000Z</time>
      </trkpt>
      <trkpt lat="42.294104" lon="-0.439508">
        <ele>1423.8</ele>
        <time>2018-07-22T06:16:48.000Z</time>
      </trkpt>
      <trkpt lat="42.294103" lon="-0.439508">
        <ele>1423.7</ele>
        <time>2018-07-22T06:16:49.000Z</time>
      </trkpt>
      <trkpt lat="42.294103" lon="-0.439508">
        <ele>1423.7</ele>
        <time>2018-07-22T06:16:50.000Z</time>
      </trkpt>
      <trkpt lat="42.294102" lon="-0.439506">
        <ele>1423.7</ele>
        <time>2018-07-22T06:16:51.000Z</time>
      </trkpt>
      <trkpt lat="42.294099" lon="-0.439498">
        <ele>1423.7</ele>
        <time>2018-07-22T06:16:52.000Z</time>
      </trkpt>
      <trkpt lat="42.294087" lon="-0.439472">
        <ele>1423.5</ele>
        <time>2018-07-22T06:16:53.000Z</time>
      </trkpt>
      <trkpt lat="42.294078" lon="-0.439462">
        <ele>1423.3</ele>
        <time>2018-07-22T06:16:54.000Z</time>
      </trkpt>
      <trkpt lat="42.294072" lon="-0.439458">
        <ele>1423.1</ele>
        <time>2018-07-22T06:16:55.000Z</time>
      </trkpt>
      <trkpt lat="42.294069" lon="-0.439456">
        <ele>1423.0</ele>
        <time>2018-07-22T06:16:56.000Z</time>
      </trkpt>
      <trkpt lat="42.294066" lon="-0.439455">
        <ele>1422.9</ele>
        <time>2018-07-22T06:16:57.000Z</time>
      </trkpt>
      <trkpt lat="42.294063" lon="-0.439453">
        <ele>1422.9</ele>
        <time>2018-07-22T06:16:58.000Z</time>
      </trkpt>
      <trkpt lat="42.294062" lon="-0.439452">
        <ele>1422.8</ele>
        <time>2018-07-22T06:16:59.000Z</time>
      </trkpt>
      <trkpt lat="42.29406" lon="-0.439451">
        <ele>1422.8</ele>
        <time>2018-07-22T06:17:00.000Z</time>
      </trkpt>
      <trkpt lat="42.29406" lon="-0.439451">
        <ele>1422.8</ele>
        <time>2018-07-22T06:17:01.000Z</time>
      </trkpt>
      <trkpt lat="42.294059" lon="-0.43945">
        <ele>1422.7</ele>
        <time>2018-07-22T06:17:02.000Z</time>
      </trkpt>
      <trkpt lat="42.294059" lon="-0.43945">
        <ele>1422.7</ele>
        <time>2018-07-22T06:17:03.000Z</time>
      </trkpt>
      <trkpt lat="42.294059" lon="-0.43945">
        <ele>1422.7</ele>
        <time>2018-07-22T06:17:04.000Z</time>
      </trkpt>
      <trkpt lat="42.294059" lon="-0.43945">
        <ele>1422.7</ele>
        <time>2018-07-22T06:17:05.000Z</time>
      </trkpt>
      <trkpt lat="42.294059" lon="-0.43945">
        <ele>1422.7</ele>
        <time>2018-07-22T06:17:06.000Z</time>
      </trkpt>
      <trkpt lat="42.294058" lon="-0.439449">
        <ele>1422.7</ele>
        <time>2018-07-22T06:17:07.000Z</time>
      </trkpt>
      <trkpt lat="42.294058" lon="-0.439449">
        <ele>1422.7</ele>
        <time>2018-07-22T06:17:08.000Z</time>
      </trkpt>
      <trkpt lat="42.294058" lon="-0.439449">
        <ele>1422.7</ele>
        <time>2018-07-22T06:17:09.000Z</time>
      </trkpt>
      <trkpt lat="42.294057" lon="-0.439449">
        <ele>1422.7</ele>
        <time>2018-07-22T06:17:10.000Z</time>
      </trkpt>
      <trkpt lat="42.294057" lon="-0.439449">
        <ele>1422.7</ele>
        <time>2018-07-22T06:17:11.000Z</time>
      </trkpt>
      <trkpt lat="42.294056" lon="-0.439449">
        <ele>1422.6</ele>
        <time>2018-07-22T06:17:12.000Z</time>
      </trkpt>
      <trkpt lat="42.294055" lon="-0.439449">
        <ele>1422.6</ele>
        <time>2018-07-22T06:17:13.000Z</time>
      </trkpt>
      <trkpt lat="42.294054" lon="-0.439449">
        <ele>1422.6</ele>
        <time>2018-07-22T06:17:14.000Z</time>
      </trkpt>
      <trkpt lat="42.294053" lon="-0.439449">
        <ele>1422.5</ele>
        <time>2018-07-22T06:17:15.000Z</time>
      </trkpt>
      <trkpt lat="42.294052" lon="-0.439449">
        <ele>1422.5</ele>
        <time>2018-07-22T06:17:16.000Z</time>
      </trkpt>
      <trkpt lat="42.29405" lon="-0.439449">
        <ele>1422.4</ele>
        <time>2018-07-22T06:17:17.000Z</time>
      </trkpt>
      <trkpt lat="42.294049" lon="-0.439449">
        <ele>1422.4</ele>
        <time>2018-07-22T06:17:18.000Z</time>
      </trkpt>
      <trkpt lat="42.294047" lon="-0.439449">
        <ele>1422.3</ele>
        <time>2018-07-22T06:17:19.000Z</time>
      </trkpt>
      <trkpt lat="42.294046" lon="-0.439448">
        <ele>1422.3</ele>
        <time>2018-07-22T06:17:20.000Z</time>
      </trkpt>
      <trkpt lat="42.294045" lon="-0.439448">
        <ele>1422.3</ele>
        <time>2018-07-22T06:17:21.000Z</time>
      </trkpt>
      <trkpt lat="42.294044" lon="-0.439447">
        <ele>1422.2</ele>
        <time>2018-07-22T06:17:22.000Z</time>
      </trkpt>
      <trkpt lat="42.294043" lon="-0.439446">
        <ele>1422.2</ele>
        <time>2018-07-22T06:17:23.000Z</time>
      </trkpt>
      <trkpt lat="42.294042" lon="-0.439446">
        <ele>1422.2</ele>
        <time>2018-07-22T06:17:24.000Z</time>
      </trkpt>
      <trkpt lat="42.294041" lon="-0.439446">
        <ele>1422.1</ele>
        <time>2018-07-22T06:17:25.000Z</time>
      </trkpt>
      <trkpt lat="42.294037" lon="-0.439443">
        <ele>1422.0</ele>
        <time>2018-07-22T06:17:26.000Z</time>
      </trkpt>
      <trkpt lat="42.294032" lon="-0.439436">
        <ele>1421.9</ele>
        <time>2018-07-22T06:17:27.000Z</time>
      </trkpt>
      <trkpt lat="42.294027" lon="-0.439432">
        <ele>1421.7</ele>
        <time>2018-07-22T06:17:28.000Z</time>
      </trkpt>
      <trkpt lat="42.294024" lon="-0.43943">
        <ele>1421.6</ele>
        <time>2018-07-22T06:17:29.000Z</time>
      </trkpt>
      <trkpt lat="42.294021" lon="-0.43943">
        <ele>1421.5</ele>
        <time>2018-07-22T06:17:30.000Z</time>
      </trkpt>
      <trkpt lat="42.294019" lon="-0.439429">
        <ele>1421.5</ele>
        <time>2018-07-22T06:17:31.000Z</time>
      </trkpt>
      <trkpt lat="42.294017" lon="-0.439429">
        <ele>1421.4</ele>
        <time>2018-07-22T06:17:32.000Z</time>
      </trkpt>
      <trkpt lat="42.294016" lon="-0.439429">
        <ele>1421.4</ele>
        <time>2018-07-22T06:17:33.000Z</time>
      </trkpt>
      <trkpt lat="42.294014" lon="-0.439429">
        <ele>1421.3</ele>
        <time>2018-07-22T06:17:34.000Z</time>
      </trkpt>
      <trkpt lat="42.294013" lon="-0.439429">
        <ele>1421.2</ele>
        <time>2018-07-22T06:17:35.000Z</time>
      </trkpt>
      <trkpt lat="42.294012" lon="-0.439429">
        <ele>1421.2</ele>
        <time>2018-07-22T06:17:36.000Z</time>
      </trkpt>
      <trkpt lat="42.294011" lon="-0.439429">
        <ele>1421.2</ele>
        <time>2018-07-22T06:17:37.000Z</time>
      </trkpt>
      <trkpt lat="42.29401" lon="-0.439429">
        <ele>1421.1</ele>
        <time>2018-07-22T06:17:38.000Z</time>
      </trkpt>
      <trkpt lat="42.294009" lon="-0.439429">
        <ele>1421.1</ele>
        <time>2018-07-22T06:17:39.000Z</time>
      </trkpt>
      <trkpt lat="42.294008" lon="-0.439428">
        <ele>1421.1</ele>
        <time>2018-07-22T06:17:40.000Z</time>
      </trkpt>
      <trkpt lat="42.294007" lon="-0.439428">
        <ele>1421.0</ele>
        <time>2018-07-22T06:17:41.000Z</time>
      </trkpt>
      <trkpt lat="42.294005" lon="-0.439428">
        <ele>1421.0</ele>
        <time>2018-07-22T06:17:42.000Z</time>
      </trkpt>
      <trkpt lat="42.294004" lon="-0.439428">
        <ele>1420.9</ele>
        <time>2018-07-22T06:17:43.000Z</time>
      </trkpt>
      <trkpt lat="42.294002" lon="-0.439427">
        <ele>1420.9</ele>
        <time>2018-07-22T06:17:44.000Z</time>
      </trkpt>
      <trkpt lat="42.293999" lon="-0.439426">
        <ele>1420.8</ele>
        <time>2018-07-22T06:17:45.000Z</time>
      </trkpt>
      <trkpt lat="42.293996" lon="-0.439425">
        <ele>1420.7</ele>
        <time>2018-07-22T06:17:46.000Z</time>
      </trkpt>
      <trkpt lat="42.293992" lon="-0.439423">
        <ele>1420.5</ele>
        <time>2018-07-22T06:17:47.000Z</time>
      </trkpt>
      <trkpt lat="42.293988" lon="-0.43942">
        <ele>1420.4</ele>
        <time>2018-07-22T06:17:48.000Z</time>
      </trkpt>
      <trkpt lat="42.293983" lon="-0.439417">
        <ele>1420.2</ele>
        <time>2018-07-22T06:17:49.000Z</time>
      </trkpt>
      <trkpt lat="42.293978" lon="-0.439414">
        <ele>1420.1</ele>
        <time>2018-07-22T06:17:50.000Z</time>
      </trkpt>
      <trkpt lat="42.293974" lon="-0.439414">
        <ele>1419.9</ele>
        <time>2018-07-22T06:17:51.000Z</time>
      </trkpt>
      <trkpt lat="42.293973" lon="-0.439414">
        <ele>1419.9</ele>
        <time>2018-07-22T06:17:52.000Z</time>
      </trkpt>
      <trkpt lat="42.293971" lon="-0.439414">
        <ele>1419.8</ele>
        <time>2018-07-22T06:17:53.000Z</time>
      </trkpt>
      <trkpt lat="42.293965" lon="-0.439415">
        <ele>1419.6</ele>
        <time>2018-07-22T06:17:54.000Z</time>
      </trkpt>
      <trkpt lat="42.293962" lon="-0.439415">
        <ele>1419.5</ele>
        <time>2018-07-22T06:17:55.000Z</time>
      </trkpt>
      <trkpt lat="42.293961" lon="-0.439416">
        <ele>1419.4</ele>
        <time>2018-07-22T06:17:56.000Z</time>
      </trkpt>
      <trkpt lat="42.29396" lon="-0.439416">
        <ele>1419.4</ele>
        <time>2018-07-22T06:17:57.000Z</time>
      </trkpt>
      <trkpt lat="42.293959" lon="-0.439416">
        <ele>1419.4</ele>
        <time>2018-07-22T06:17:58.000Z</time>
      </trkpt>
      <trkpt lat="42.293958" lon="-0.439416">
        <ele>1419.3</ele>
        <time>2018-07-22T06:17:59.000Z</time>
      </trkpt>
      <trkpt lat="42.293956" lon="-0.439417">
        <ele>1419.2</ele>
        <time>2018-07-22T06:18:00.000Z</time>
      </trkpt>
      <trkpt lat="42.293954" lon="-0.439417">
        <ele>1419.2</ele>
        <time>2018-07-22T06:18:01.000Z</time>
      </trkpt>
      <trkpt lat="42.293952" lon="-0.439417">
        <ele>1419.1</ele>
        <time>2018-07-22T06:18:02.000Z</time>
      </trkpt>
      <trkpt lat="42.293949" lon="-0.439418">
        <ele>1419.0</ele>
        <time>2018-07-22T06:18:03.000Z</time>
      </trkpt>
      <trkpt lat="42.293948" lon="-0.439418">
        <ele>1418.9</ele>
        <time>2018-07-22T06:18:04.000Z</time>
      </trkpt>
      <trkpt lat="42.293946" lon="-0.439418">
        <ele>1418.9</ele>
        <time>2018-07-22T06:18:05.000Z</time>
      </trkpt>
      <trkpt lat="42.293944" lon="-0.439419">
        <ele>1418.8</ele>
        <time>2018-07-22T06:18:06.000Z</time>
      </trkpt>
      <trkpt lat="42.293937" lon="-0.43942">
        <ele>1418.5</ele>
        <time>2018-07-22T06:18:07.000Z</time>
      </trkpt>
      <trkpt lat="42.293925" lon="-0.439423">
        <ele>1418.1</ele>
        <time>2018-07-22T06:18:08.000Z</time>
      </trkpt>
      <trkpt lat="42.293915" lon="-0.439426">
        <ele>1417.7</ele>
        <time>2018-07-22T06:18:09.000Z</time>
      </trkpt>
      <trkpt lat="42.293908" lon="-0.439432">
        <ele>1417.4</ele>
        <time>2018-07-22T06:18:10.000Z</time>
      </trkpt>
      <trkpt lat="42.293903" lon="-0.439437">
        <ele>1417.2</ele>
        <time>2018-07-22T06:18:11.000Z</time>
      </trkpt>
      <trkpt lat="42.293899" lon="-0.439442">
        <ele>1417.0</ele>
        <time>2018-07-22T06:18:12.000Z</time>
      </trkpt>
      <trkpt lat="42.293897" lon="-0.439445">
        <ele>1417.0</ele>
        <time>2018-07-22T06:18:13.000Z</time>
      </trkpt>
      <trkpt lat="42.293894" lon="-0.439449">
        <ele>1416.8</ele>
        <time>2018-07-22T06:18:14.000Z</time>
      </trkpt>
      <trkpt lat="42.29389" lon="-0.439452">
        <ele>1416.7</ele>
        <time>2018-07-22T06:18:15.000Z</time>
      </trkpt>
      <trkpt lat="42.293884" lon="-0.439458">
        <ele>1416.4</ele>
        <time>2018-07-22T06:18:16.000Z</time>
      </trkpt>
      <trkpt lat="42.293878" lon="-0.439471">
        <ele>1416.2</ele>
        <time>2018-07-22T06:18:17.000Z</time>
      </trkpt>
      <trkpt lat="42.293875" lon="-0.43948">
        <ele>1416.1</ele>
        <time>2018-07-22T06:18:18.000Z</time>
      </trkpt>
      <trkpt lat="42.293874" lon="-0.439489">
        <ele>1416.0</ele>
        <time>2018-07-22T06:18:19.000Z</time>
      </trkpt>
      <trkpt lat="42.293873" lon="-0.439497">
        <ele>1415.9</ele>
        <time>2018-07-22T06:18:20.000Z</time>
      </trkpt>
      <trkpt lat="42.293872" lon="-0.439503">
        <ele>1415.9</ele>
        <time>2018-07-22T06:18:21.000Z</time>
      </trkpt>
      <trkpt lat="42.293871" lon="-0.439508">
        <ele>1415.8</ele>
        <time>2018-07-22T06:18:22.000Z</time>
      </trkpt>
      <trkpt lat="42.293871" lon="-0.439511">
        <ele>1415.8</ele>
        <time>2018-07-22T06:18:23.000Z</time>
      </trkpt>
      <trkpt lat="42.293871" lon="-0.439514">
        <ele>1415.8</ele>
        <time>2018-07-22T06:18:24.000Z</time>
      </trkpt>
      <trkpt lat="42.293871" lon="-0.439516">
        <ele>1415.8</ele>
        <time>2018-07-22T06:18:25.000Z</time>
      </trkpt>
      <trkpt lat="42.293869" lon="-0.439519">
        <ele>1415.7</ele>
        <time>2018-07-22T06:18:26.000Z</time>
      </trkpt>
      <trkpt lat="42.293867" lon="-0.439523">
        <ele>1415.6</ele>
        <time>2018-07-22T06:18:27.000Z</time>
      </trkpt>
      <trkpt lat="42.293865" lon="-0.439532">
        <ele>1415.6</ele>
        <time>2018-07-22T06:18:28.000Z</time>
      </trkpt>
      <trkpt lat="42.293862" lon="-0.439543">
        <ele>1415.4</ele>
        <time>2018-07-22T06:18:29.000Z</time>
      </trkpt>
      <trkpt lat="42.293859" lon="-0.439552">
        <ele>1415.3</ele>
        <time>2018-07-22T06:18:30.000Z</time>
      </trkpt>
      <trkpt lat="42.293857" lon="-0.439558">
        <ele>1415.2</ele>
        <time>2018-07-22T06:18:31.000Z</time>
      </trkpt>
      <trkpt lat="42.293855" lon="-0.439563">
        <ele>1415.1</ele>
        <time>2018-07-22T06:18:32.000Z</time>
      </trkpt>
      <trkpt lat="42.293854" lon="-0.439566">
        <ele>1415.1</ele>
        <time>2018-07-22T06:18:33.000Z</time>
      </trkpt>
      <trkpt lat="42.293853" lon="-0.439568">
        <ele>1415.1</ele>
        <time>2018-07-22T06:18:34.000Z</time>
      </trkpt>
      <trkpt lat="42.293852" lon="-0.439571">
        <ele>1415.0</ele>
        <time>2018-07-22T06:18:35.000Z</time>
      </trkpt>
      <trkpt lat="42.293852" lon="-0.439574">
        <ele>1415.0</ele>
        <time>2018-07-22T06:18:36.000Z</time>
      </trkpt>
      <trkpt lat="42.293851" lon="-0.439576">
        <ele>1415.0</ele>
        <time>2018-07-22T06:18:37.000Z</time>
      </trkpt>
      <trkpt lat="42.29385" lon="-0.439579">
        <ele>1414.9</ele>
        <time>2018-07-22T06:18:38.000Z</time>
      </trkpt>
      <trkpt lat="42.29385" lon="-0.439582">
        <ele>1414.9</ele>
        <time>2018-07-22T06:18:39.000Z</time>
      </trkpt>
      <trkpt lat="42.293849" lon="-0.439585">
        <ele>1414.9</ele>
        <time>2018-07-22T06:18:40.000Z</time>
      </trkpt>
      <trkpt lat="42.293847" lon="-0.439587">
        <ele>1414.8</ele>
        <time>2018-07-22T06:18:41.000Z</time>
      </trkpt>
      <trkpt lat="42.293845" lon="-0.43959">
        <ele>1414.8</ele>
        <time>2018-07-22T06:18:42.000Z</time>
      </trkpt>
      <trkpt lat="42.293843" lon="-0.439593">
        <ele>1414.7</ele>
        <time>2018-07-22T06:18:43.000Z</time>
      </trkpt>
      <trkpt lat="42.29384" lon="-0.439595">
        <ele>1414.6</ele>
        <time>2018-07-22T06:18:44.000Z</time>
      </trkpt>
      <trkpt lat="42.293837" lon="-0.439598">
        <ele>1414.5</ele>
        <time>2018-07-22T06:18:45.000Z</time>
      </trkpt>
      <trkpt lat="42.293833" lon="-0.4396">
        <ele>1414.4</ele>
        <time>2018-07-22T06:18:46.000Z</time>
      </trkpt>
      <trkpt lat="42.293831" lon="-0.439602">
        <ele>1414.3</ele>
        <time>2018-07-22T06:18:47.000Z</time>
      </trkpt>
      <trkpt lat="42.293825" lon="-0.439609">
        <ele>1414.1</ele>
        <time>2018-07-22T06:18:48.000Z</time>
      </trkpt>
      <trkpt lat="42.293819" lon="-0.439616">
        <ele>1413.9</ele>
        <time>2018-07-22T06:18:49.000Z</time>
      </trkpt>
      <trkpt lat="42.293815" lon="-0.439623">
        <ele>1413.8</ele>
        <time>2018-07-22T06:18:50.000Z</time>
      </trkpt>
      <trkpt lat="42.29381" lon="-0.439632">
        <ele>1413.6</ele>
        <time>2018-07-22T06:18:51.000Z</time>
      </trkpt>
      <trkpt lat="42.293806" lon="-0.439638">
        <ele>1413.5</ele>
        <time>2018-07-22T06:18:52.000Z</time>
      </trkpt>
      <trkpt lat="42.293803" lon="-0.439643">
        <ele>1413.4</ele>
        <time>2018-07-22T06:18:53.000Z</time>
      </trkpt>
      <trkpt lat="42.293801" lon="-0.439646">
        <ele>1413.3</ele>
        <time>2018-07-22T06:18:54.000Z</time>
      </trkpt>
      <trkpt lat="42.293799" lon="-0.439649">
        <ele>1413.3</ele>
        <time>2018-07-22T06:18:55.000Z</time>
      </trkpt>
      <trkpt lat="42.293798" lon="-0.439651">
        <ele>1413.2</ele>
        <time>2018-07-22T06:18:56.000Z</time>
      </trkpt>
      <trkpt lat="42.293797" lon="-0.439654">
        <ele>1413.2</ele>
        <time>2018-07-22T06:18:57.000Z</time>
      </trkpt>
      <trkpt lat="42.293797" lon="-0.439657">
        <ele>1413.2</ele>
        <time>2018-07-22T06:18:58.000Z</time>
      </trkpt>
      <trkpt lat="42.293796" lon="-0.439661">
        <ele>1413.2</ele>
        <time>2018-07-22T06:18:59.000Z</time>
      </trkpt>
      <trkpt lat="42.293795" lon="-0.439665">
        <ele>1413.1</ele>
        <time>2018-07-22T06:19:00.000Z</time>
      </trkpt>
      <trkpt lat="42.293792" lon="-0.43967">
        <ele>1413.0</ele>
        <time>2018-07-22T06:19:01.000Z</time>
      </trkpt>
      <trkpt lat="42.293787" lon="-0.439678">
        <ele>1412.9</ele>
        <time>2018-07-22T06:19:02.000Z</time>
      </trkpt>
      <trkpt lat="42.29378" lon="-0.439693">
        <ele>1412.7</ele>
        <time>2018-07-22T06:19:03.000Z</time>
      </trkpt>
      <trkpt lat="42.293777" lon="-0.439703">
        <ele>1412.6</ele>
        <time>2018-07-22T06:19:04.000Z</time>
      </trkpt>
      <trkpt lat="42.293775" lon="-0.439712">
        <ele>1412.5</ele>
        <time>2018-07-22T06:19:05.000Z</time>
      </trkpt>
      <trkpt lat="42.293772" lon="-0.439722">
        <ele>1412.4</ele>
        <time>2018-07-22T06:19:06.000Z</time>
      </trkpt>
      <trkpt lat="42.29377" lon="-0.439731">
        <ele>1412.4</ele>
        <time>2018-07-22T06:19:07.000Z</time>
      </trkpt>
      <trkpt lat="42.293769" lon="-0.43974">
        <ele>1412.4</ele>
        <time>2018-07-22T06:19:08.000Z</time>
      </trkpt>
      <trkpt lat="42.293768" lon="-0.439749">
        <ele>1412.3</ele>
        <time>2018-07-22T06:19:09.000Z</time>
      </trkpt>
      <trkpt lat="42.293767" lon="-0.439756">
        <ele>1412.3</ele>
        <time>2018-07-22T06:19:10.000Z</time>
      </trkpt>
      <trkpt lat="42.293766" lon="-0.439763">
        <ele>1412.3</ele>
        <time>2018-07-22T06:19:11.000Z</time>
      </trkpt>
      <trkpt lat="42.293766" lon="-0.439769">
        <ele>1412.3</ele>
        <time>2018-07-22T06:19:12.000Z</time>
      </trkpt>
      <trkpt lat="42.293764" lon="-0.439774">
        <ele>1412.2</ele>
        <time>2018-07-22T06:19:13.000Z</time>
      </trkpt>
      <trkpt lat="42.293763" lon="-0.439779">
        <ele>1412.2</ele>
        <time>2018-07-22T06:19:14.000Z</time>
      </trkpt>
      <trkpt lat="42.293761" lon="-0.439782">
        <ele>1412.2</ele>
        <time>2018-07-22T06:19:15.000Z</time>
      </trkpt>
      <trkpt lat="42.29376" lon="-0.439785">
        <ele>1412.1</ele>
        <time>2018-07-22T06:19:16.000Z</time>
      </trkpt>
      <trkpt lat="42.293759" lon="-0.439787">
        <ele>1412.1</ele>
        <time>2018-07-22T06:19:17.000Z</time>
      </trkpt>
      <trkpt lat="42.293754" lon="-0.439792">
        <ele>1412.0</ele>
        <time>2018-07-22T06:19:18.000Z</time>
      </trkpt>
      <trkpt lat="42.293746" lon="-0.4398">
        <ele>1411.8</ele>
        <time>2018-07-22T06:19:19.000Z</time>
      </trkpt>
      <trkpt lat="42.293739" lon="-0.439804">
        <ele>1411.6</ele>
        <time>2018-07-22T06:19:20.000Z</time>
      </trkpt>
      <trkpt lat="42.293733" lon="-0.439808">
        <ele>1411.5</ele>
        <time>2018-07-22T06:19:21.000Z</time>
      </trkpt>
      <trkpt lat="42.293725" lon="-0.439814">
        <ele>1411.3</ele>
        <time>2018-07-22T06:19:22.000Z</time>
      </trkpt>
      <trkpt lat="42.293718" lon="-0.439823">
        <ele>1411.1</ele>
        <time>2018-07-22T06:19:23.000Z</time>
      </trkpt>
      <trkpt lat="42.293712" lon="-0.439833">
        <ele>1411.0</ele>
        <time>2018-07-22T06:19:24.000Z</time>
      </trkpt>
      <trkpt lat="42.293707" lon="-0.439843">
        <ele>1410.9</ele>
        <time>2018-07-22T06:19:25.000Z</time>
      </trkpt>
      <trkpt lat="42.293702" lon="-0.439851">
        <ele>1410.8</ele>
        <time>2018-07-22T06:19:26.000Z</time>
      </trkpt>
      <trkpt lat="42.293698" lon="-0.43986">
        <ele>1410.7</ele>
        <time>2018-07-22T06:19:27.000Z</time>
      </trkpt>
      <trkpt lat="42.293694" lon="-0.439867">
        <ele>1410.6</ele>
        <time>2018-07-22T06:19:28.000Z</time>
      </trkpt>
      <trkpt lat="42.29369" lon="-0.439874">
        <ele>1410.5</ele>
        <time>2018-07-22T06:19:29.000Z</time>
      </trkpt>
      <trkpt lat="42.293685" lon="-0.43988">
        <ele>1410.4</ele>
        <time>2018-07-22T06:19:30.000Z</time>
      </trkpt>
      <trkpt lat="42.29368" lon="-0.439886">
        <ele>1410.3</ele>
        <time>2018-07-22T06:19:31.000Z</time>
      </trkpt>
      <trkpt lat="42.293675" lon="-0.439892">
        <ele>1410.3</ele>
        <time>2018-07-22T06:19:32.000Z</time>
      </trkpt>
      <trkpt lat="42.29367" lon="-0.439899">
        <ele>1410.2</ele>
        <time>2018-07-22T06:19:33.000Z</time>
      </trkpt>
      <trkpt lat="42.293666" lon="-0.439906">
        <ele>1410.1</ele>
        <time>2018-07-22T06:19:34.000Z</time>
      </trkpt>
      <trkpt lat="42.293662" lon="-0.439914">
        <ele>1410.0</ele>
        <time>2018-07-22T06:19:35.000Z</time>
      </trkpt>
      <trkpt lat="42.293659" lon="-0.439921">
        <ele>1410.0</ele>
        <time>2018-07-22T06:19:36.000Z</time>
      </trkpt>
      <trkpt lat="42.293657" lon="-0.439927">
        <ele>1410.0</ele>
        <time>2018-07-22T06:19:37.000Z</time>
      </trkpt>
      <trkpt lat="42.293656" lon="-0.439931">
        <ele>1410.0</ele>
        <time>2018-07-22T06:19:38.000Z</time>
      </trkpt>
      <trkpt lat="42.293654" lon="-0.439935">
        <ele>1409.9</ele>
        <time>2018-07-22T06:19:39.000Z</time>
      </trkpt>
      <trkpt lat="42.29365" lon="-0.439943">
        <ele>1409.9</ele>
        <time>2018-07-22T06:19:40.000Z</time>
      </trkpt>
      <trkpt lat="42.293646" lon="-0.439951">
        <ele>1409.8</ele>
        <time>2018-07-22T06:19:41.000Z</time>
      </trkpt>
      <trkpt lat="42.293644" lon="-0.439957">
        <ele>1409.8</ele>
        <time>2018-07-22T06:19:42.000Z</time>
      </trkpt>
      <trkpt lat="42.293642" lon="-0.439965">
        <ele>1409.8</ele>
        <time>2018-07-22T06:19:43.000Z</time>
      </trkpt>
      <trkpt lat="42.29364" lon="-0.439974">
        <ele>1409.8</ele>
        <time>2018-07-22T06:19:44.000Z</time>
      </trkpt>
      <trkpt lat="42.293639" lon="-0.439983">
        <ele>1409.8</ele>
        <time>2018-07-22T06:19:45.000Z</time>
      </trkpt>
      <trkpt lat="42.293639" lon="-0.439988">
        <ele>1409.8</ele>
        <time>2018-07-22T06:19:46.000Z</time>
      </trkpt>
      <trkpt lat="42.293639" lon="-0.439992">
        <ele>1409.8</ele>
        <time>2018-07-22T06:19:47.000Z</time>
      </trkpt>
      <trkpt lat="42.293641" lon="-0.439997">
        <ele>1409.9</ele>
        <time>2018-07-22T06:19:48.000Z</time>
      </trkpt>
      <trkpt lat="42.293644" lon="-0.440003">
        <ele>1410.0</ele>
        <time>2018-07-22T06:19:49.000Z</time>
      </trkpt>
      <trkpt lat="42.293646" lon="-0.44001">
        <ele>1410.0</ele>
        <time>2018-07-22T06:19:50.000Z</time>
      </trkpt>
      <trkpt lat="42.293646" lon="-0.440017">
        <ele>1410.0</ele>
        <time>2018-07-22T06:19:51.000Z</time>
      </trkpt>
      <trkpt lat="42.293646" lon="-0.440025">
        <ele>1410.0</ele>
        <time>2018-07-22T06:19:52.000Z</time>
      </trkpt>
      <trkpt lat="42.293646" lon="-0.440034">
        <ele>1410.1</ele>
        <time>2018-07-22T06:19:53.000Z</time>
      </trkpt>
      <trkpt lat="42.293649" lon="-0.440044">
        <ele>1410.1</ele>
        <time>2018-07-22T06:19:54.000Z</time>
      </trkpt>
      <trkpt lat="42.293652" lon="-0.440055">
        <ele>1410.2</ele>
        <time>2018-07-22T06:19:55.000Z</time>
      </trkpt>
      <trkpt lat="42.293655" lon="-0.440065">
        <ele>1410.3</ele>
        <time>2018-07-22T06:19:56.000Z</time>
      </trkpt>
      <trkpt lat="42.293655" lon="-0.440074">
        <ele>1410.3</ele>
        <time>2018-07-22T06:19:57.000Z</time>
      </trkpt>
      <trkpt lat="42.293653" lon="-0.440083">
        <ele>1410.3</ele>
        <time>2018-07-22T06:19:58.000Z</time>
      </trkpt>
      <trkpt lat="42.29365" lon="-0.440092">
        <ele>1410.2</ele>
        <time>2018-07-22T06:19:59.000Z</time>
      </trkpt>
      <trkpt lat="42.293646" lon="-0.440102">
        <ele>1410.2</ele>
        <time>2018-07-22T06:20:00.000Z</time>
      </trkpt>
      <trkpt lat="42.293642" lon="-0.440113">
        <ele>1410.1</ele>
        <time>2018-07-22T06:20:01.000Z</time>
      </trkpt>
      <trkpt lat="42.293639" lon="-0.440126">
        <ele>1410.1</ele>
        <time>2018-07-22T06:20:02.000Z</time>
      </trkpt>
      <trkpt lat="42.293637" lon="-0.440139">
        <ele>1410.0</ele>
        <time>2018-07-22T06:20:03.000Z</time>
      </trkpt>
      <trkpt lat="42.293635" lon="-0.440153">
        <ele>1410.0</ele>
        <time>2018-07-22T06:20:04.000Z</time>
      </trkpt>
      <trkpt lat="42.293634" lon="-0.440168">
        <ele>1410.0</ele>
        <time>2018-07-22T06:20:05.000Z</time>
      </trkpt>
      <trkpt lat="42.293634" lon="-0.440181">
        <ele>1410.1</ele>
        <time>2018-07-22T06:20:06.000Z</time>
      </trkpt>
      <trkpt lat="42.293635" lon="-0.440194">
        <ele>1410.1</ele>
        <time>2018-07-22T06:20:07.000Z</time>
      </trkpt>
      <trkpt lat="42.293636" lon="-0.440205">
        <ele>1410.1</ele>
        <time>2018-07-22T06:20:08.000Z</time>
      </trkpt>
      <trkpt lat="42.293637" lon="-0.440215">
        <ele>1410.2</ele>
        <time>2018-07-22T06:20:09.000Z</time>
      </trkpt>
      <trkpt lat="42.293638" lon="-0.440223">
        <ele>1410.2</ele>
        <time>2018-07-22T06:20:10.000Z</time>
      </trkpt>
      <trkpt lat="42.293639" lon="-0.44023">
        <ele>1410.2</ele>
        <time>2018-07-22T06:20:11.000Z</time>
      </trkpt>
      <trkpt lat="42.293637" lon="-0.440237">
        <ele>1410.2</ele>
        <time>2018-07-22T06:20:12.000Z</time>
      </trkpt>
      <trkpt lat="42.293634" lon="-0.440243">
        <ele>1410.1</ele>
        <time>2018-07-22T06:20:13.000Z</time>
      </trkpt>
      <trkpt lat="42.293629" lon="-0.44025">
        <ele>1410.1</ele>
        <time>2018-07-22T06:20:14.000Z</time>
      </trkpt>
      <trkpt lat="42.293623" lon="-0.440258">
        <ele>1410.0</ele>
        <time>2018-07-22T06:20:15.000Z</time>
      </trkpt>
      <trkpt lat="42.293618" lon="-0.440268">
        <ele>1409.9</ele>
        <time>2018-07-22T06:20:16.000Z</time>
      </trkpt>
      <trkpt lat="42.293613" lon="-0.44028">
        <ele>1409.8</ele>
        <time>2018-07-22T06:20:17.000Z</time>
      </trkpt>
      <trkpt lat="42.293609" lon="-0.440292">
        <ele>1409.8</ele>
        <time>2018-07-22T06:20:18.000Z</time>
      </trkpt>
      <trkpt lat="42.293606" lon="-0.440305">
        <ele>1409.7</ele>
        <time>2018-07-22T06:20:19.000Z</time>
      </trkpt>
      <trkpt lat="42.293605" lon="-0.440318">
        <ele>1409.7</ele>
        <time>2018-07-22T06:20:20.000Z</time>
      </trkpt>
      <trkpt lat="42.293605" lon="-0.44033">
        <ele>1409.7</ele>
        <time>2018-07-22T06:20:21.000Z</time>
      </trkpt>
      <trkpt lat="42.293606" lon="-0.440341">
        <ele>1409.8</ele>
        <time>2018-07-22T06:20:22.000Z</time>
      </trkpt>
      <trkpt lat="42.293608" lon="-0.440351">
        <ele>1409.8</ele>
        <time>2018-07-22T06:20:23.000Z</time>
      </trkpt>
      <trkpt lat="42.293612" lon="-0.44036">
        <ele>1409.9</ele>
        <time>2018-07-22T06:20:24.000Z</time>
      </trkpt>
      <trkpt lat="42.293617" lon="-0.440367">
        <ele>1410.0</ele>
        <time>2018-07-22T06:20:25.000Z</time>
      </trkpt>
      <trkpt lat="42.293622" lon="-0.440375">
        <ele>1410.1</ele>
        <time>2018-07-22T06:20:26.000Z</time>
      </trkpt>
      <trkpt lat="42.293627" lon="-0.440382">
        <ele>1410.2</ele>
        <time>2018-07-22T06:20:27.000Z</time>
      </trkpt>
      <trkpt lat="42.293632" lon="-0.440389">
        <ele>1410.3</ele>
        <time>2018-07-22T06:20:28.000Z</time>
      </trkpt>
      <trkpt lat="42.293635" lon="-0.440397">
        <ele>1410.4</ele>
        <time>2018-07-22T06:20:29.000Z</time>
      </trkpt>
      <trkpt lat="42.293638" lon="-0.440407">
        <ele>1410.5</ele>
        <time>2018-07-22T06:20:30.000Z</time>
      </trkpt>
      <trkpt lat="42.293638" lon="-0.440418">
        <ele>1410.5</ele>
        <time>2018-07-22T06:20:31.000Z</time>
      </trkpt>
      <trkpt lat="42.293639" lon="-0.440428">
        <ele>1410.5</ele>
        <time>2018-07-22T06:20:32.000Z</time>
      </trkpt>
      <trkpt lat="42.293638" lon="-0.440439">
        <ele>1410.5</ele>
        <time>2018-07-22T06:20:33.000Z</time>
      </trkpt>
      <trkpt lat="42.293637" lon="-0.440448">
        <ele>1410.5</ele>
        <time>2018-07-22T06:20:34.000Z</time>
      </trkpt>
      <trkpt lat="42.293636" lon="-0.440455">
        <ele>1410.5</ele>
        <time>2018-07-22T06:20:35.000Z</time>
      </trkpt>
      <trkpt lat="42.293635" lon="-0.440461">
        <ele>1410.5</ele>
        <time>2018-07-22T06:20:36.000Z</time>
      </trkpt>
      <trkpt lat="42.293634" lon="-0.440465">
        <ele>1410.5</ele>
        <time>2018-07-22T06:20:37.000Z</time>
      </trkpt>
      <trkpt lat="42.293633" lon="-0.440469">
        <ele>1410.5</ele>
        <time>2018-07-22T06:20:38.000Z</time>
      </trkpt>
      <trkpt lat="42.29363" lon="-0.440479">
        <ele>1410.4</ele>
        <time>2018-07-22T06:20:39.000Z</time>
      </trkpt>
      <trkpt lat="42.293627" lon="-0.440487">
        <ele>1410.4</ele>
        <time>2018-07-22T06:20:40.000Z</time>
      </trkpt>
      <trkpt lat="42.293625" lon="-0.440495">
        <ele>1410.4</ele>
        <time>2018-07-22T06:20:41.000Z</time>
      </trkpt>
      <trkpt lat="42.293624" lon="-0.440504">
        <ele>1410.4</ele>
        <time>2018-07-22T06:20:42.000Z</time>
      </trkpt>
      <trkpt lat="42.293623" lon="-0.440512">
        <ele>1410.4</ele>
        <time>2018-07-22T06:20:43.000Z</time>
      </trkpt>
      <trkpt lat="42.293623" lon="-0.440519">
        <ele>1410.4</ele>
        <time>2018-07-22T06:20:44.000Z</time>
      </trkpt>
      <trkpt lat="42.293622" lon="-0.440522">
        <ele>1410.4</ele>
        <time>2018-07-22T06:20:45.000Z</time>
      </trkpt>
      <trkpt lat="42.293623" lon="-0.440525">
        <ele>1410.4</ele>
        <time>2018-07-22T06:20:46.000Z</time>
      </trkpt>
      <trkpt lat="42.293626" lon="-0.440536">
        <ele>1410.5</ele>
        <time>2018-07-22T06:20:47.000Z</time>
      </trkpt>
      <trkpt lat="42.293629" lon="-0.440545">
        <ele>1410.5</ele>
        <time>2018-07-22T06:20:48.000Z</time>
      </trkpt>
      <trkpt lat="42.293632" lon="-0.440552">
        <ele>1410.6</ele>
        <time>2018-07-22T06:20:49.000Z</time>
      </trkpt>
      <trkpt lat="42.293634" lon="-0.44056">
        <ele>1410.6</ele>
        <time>2018-07-22T06:20:50.000Z</time>
      </trkpt>
      <trkpt lat="42.293636" lon="-0.440568">
        <ele>1410.7</ele>
        <time>2018-07-22T06:20:51.000Z</time>
      </trkpt>
      <trkpt lat="42.293636" lon="-0.440578">
        <ele>1410.7</ele>
        <time>2018-07-22T06:20:52.000Z</time>
      </trkpt>
      <trkpt lat="42.293635" lon="-0.440588">
        <ele>1410.7</ele>
        <time>2018-07-22T06:20:53.000Z</time>
      </trkpt>
      <trkpt lat="42.293634" lon="-0.440598">
        <ele>1410.7</ele>
        <time>2018-07-22T06:20:54.000Z</time>
      </trkpt>
      <trkpt lat="42.293633" lon="-0.440606">
        <ele>1410.7</ele>
        <time>2018-07-22T06:20:55.000Z</time>
      </trkpt>
      <trkpt lat="42.293632" lon="-0.440613">
        <ele>1410.7</ele>
        <time>2018-07-22T06:20:56.000Z</time>
      </trkpt>
      <trkpt lat="42.293631" lon="-0.440616">
        <ele>1410.7</ele>
        <time>2018-07-22T06:20:57.000Z</time>
      </trkpt>
      <trkpt lat="42.293631" lon="-0.440617">
        <ele>1410.7</ele>
        <time>2018-07-22T06:20:58.000Z</time>
      </trkpt>
      <trkpt lat="42.293631" lon="-0.440617">
        <ele>1410.7</ele>
        <time>2018-07-22T06:20:59.000Z</time>
      </trkpt>
      <trkpt lat="42.293632" lon="-0.440616">
        <ele>1410.7</ele>
        <time>2018-07-22T06:21:00.000Z</time>
      </trkpt>
      <trkpt lat="42.293632" lon="-0.440614">
        <ele>1410.7</ele>
        <time>2018-07-22T06:21:01.000Z</time>
      </trkpt>
      <trkpt lat="42.293632" lon="-0.440614">
        <ele>1410.7</ele>
        <time>2018-07-22T06:23:04.000Z</time>
      </trkpt>
      <trkpt lat="42.293631" lon="-0.440614">
        <ele>1410.7</ele>
        <time>2018-07-22T06:23:05.000Z</time>
      </trkpt>
      <trkpt lat="42.29363" lon="-0.440615">
        <ele>1410.6</ele>
        <time>2018-07-22T06:23:06.000Z</time>
      </trkpt>
      <trkpt lat="42.293629" lon="-0.440615">
        <ele>1410.6</ele>
        <time>2018-07-22T06:23:07.000Z</time>
      </trkpt>
      <trkpt lat="42.293627" lon="-0.440616">
        <ele>1410.6</ele>
        <time>2018-07-22T06:23:08.000Z</time>
      </trkpt>
      <trkpt lat="42.293625" lon="-0.440616">
        <ele>1410.6</ele>
        <time>2018-07-22T06:23:09.000Z</time>
      </trkpt>
      <trkpt lat="42.293628" lon="-0.440618">
        <ele>1410.6</ele>
        <time>2018-07-22T06:23:10.000Z</time>
      </trkpt>
      <trkpt lat="42.293636" lon="-0.440622">
        <ele>1410.8</ele>
        <time>2018-07-22T06:23:11.000Z</time>
      </trkpt>
      <trkpt lat="42.293643" lon="-0.440632">
        <ele>1410.9</ele>
        <time>2018-07-22T06:23:12.000Z</time>
      </trkpt>
      <trkpt lat="42.293648" lon="-0.440644">
        <ele>1411.0</ele>
        <time>2018-07-22T06:23:13.000Z</time>
      </trkpt>
      <trkpt lat="42.293651" lon="-0.440655">
        <ele>1411.1</ele>
        <time>2018-07-22T06:23:14.000Z</time>
      </trkpt>
      <trkpt lat="42.293654" lon="-0.440665">
        <ele>1411.1</ele>
        <time>2018-07-22T06:23:15.000Z</time>
      </trkpt>
      <trkpt lat="42.293656" lon="-0.440673">
        <ele>1411.2</ele>
        <time>2018-07-22T06:23:16.000Z</time>
      </trkpt>
      <trkpt lat="42.293659" lon="-0.440681">
        <ele>1411.2</ele>
        <time>2018-07-22T06:23:17.000Z</time>
      </trkpt>
      <trkpt lat="42.293662" lon="-0.440693">
        <ele>1411.3</ele>
        <time>2018-07-22T06:23:18.000Z</time>
      </trkpt>
      <trkpt lat="42.293666" lon="-0.440704">
        <ele>1411.4</ele>
        <time>2018-07-22T06:23:19.000Z</time>
      </trkpt>
      <trkpt lat="42.293669" lon="-0.440715">
        <ele>1411.5</ele>
        <time>2018-07-22T06:23:20.000Z</time>
      </trkpt>
      <trkpt lat="42.293672" lon="-0.440724">
        <ele>1411.5</ele>
        <time>2018-07-22T06:23:21.000Z</time>
      </trkpt>
      <trkpt lat="42.293676" lon="-0.440731">
        <ele>1411.6</ele>
        <time>2018-07-22T06:23:22.000Z</time>
      </trkpt>
      <trkpt lat="42.293681" lon="-0.440735">
        <ele>1411.7</ele>
        <time>2018-07-22T06:23:23.000Z</time>
      </trkpt>
      <trkpt lat="42.293688" lon="-0.440737">
        <ele>1411.8</ele>
        <time>2018-07-22T06:23:24.000Z</time>
      </trkpt>
      <trkpt lat="42.293695" lon="-0.440737">
        <ele>1411.9</ele>
        <time>2018-07-22T06:23:25.000Z</time>
      </trkpt>
      <trkpt lat="42.293703" lon="-0.440737">
        <ele>1412.1</ele>
        <time>2018-07-22T06:23:26.000Z</time>
      </trkpt>
      <trkpt lat="42.293709" lon="-0.440739">
        <ele>1412.2</ele>
        <time>2018-07-22T06:23:27.000Z</time>
      </trkpt>
      <trkpt lat="42.293714" lon="-0.440744">
        <ele>1412.3</ele>
        <time>2018-07-22T06:23:28.000Z</time>
      </trkpt>
      <trkpt lat="42.293717" lon="-0.440754">
        <ele>1412.3</ele>
        <time>2018-07-22T06:23:29.000Z</time>
      </trkpt>
      <trkpt lat="42.293718" lon="-0.440768">
        <ele>1412.4</ele>
        <time>2018-07-22T06:23:30.000Z</time>
      </trkpt>
      <trkpt lat="42.293718" lon="-0.440782">
        <ele>1412.4</ele>
        <time>2018-07-22T06:23:31.000Z</time>
      </trkpt>
      <trkpt lat="42.293719" lon="-0.440796">
        <ele>1412.4</ele>
        <time>2018-07-22T06:23:32.000Z</time>
      </trkpt>
      <trkpt lat="42.29372" lon="-0.440809">
        <ele>1412.5</ele>
        <time>2018-07-22T06:23:33.000Z</time>
      </trkpt>
      <trkpt lat="42.293722" lon="-0.440822">
        <ele>1412.5</ele>
        <time>2018-07-22T06:23:34.000Z</time>
      </trkpt>
      <trkpt lat="42.293725" lon="-0.440834">
        <ele>1412.6</ele>
        <time>2018-07-22T06:23:35.000Z</time>
      </trkpt>
      <trkpt lat="42.293729" lon="-0.440845">
        <ele>1412.7</ele>
        <time>2018-07-22T06:23:36.000Z</time>
      </trkpt>
      <trkpt lat="42.293734" lon="-0.440855">
        <ele>1412.9</ele>
        <time>2018-07-22T06:23:37.000Z</time>
      </trkpt>
      <trkpt lat="42.29374" lon="-0.440863">
        <ele>1413.1</ele>
        <time>2018-07-22T06:23:38.000Z</time>
      </trkpt>
      <trkpt lat="42.293746" lon="-0.440871">
        <ele>1413.2</ele>
        <time>2018-07-22T06:23:39.000Z</time>
      </trkpt>
      <trkpt lat="42.293753" lon="-0.440878">
        <ele>1413.4</ele>
        <time>2018-07-22T06:23:40.000Z</time>
      </trkpt>
      <trkpt lat="42.293759" lon="-0.440884">
        <ele>1413.6</ele>
        <time>2018-07-22T06:23:41.000Z</time>
      </trkpt>
      <trkpt lat="42.293764" lon="-0.44089">
        <ele>1413.7</ele>
        <time>2018-07-22T06:23:42.000Z</time>
      </trkpt>
      <trkpt lat="42.293768" lon="-0.440896">
        <ele>1413.9</ele>
        <time>2018-07-22T06:23:43.000Z</time>
      </trkpt>
      <trkpt lat="42.293771" lon="-0.440901">
        <ele>1413.9</ele>
        <time>2018-07-22T06:23:44.000Z</time>
      </trkpt>
      <trkpt lat="42.293772" lon="-0.440905">
        <ele>1414.0</ele>
        <time>2018-07-22T06:23:45.000Z</time>
      </trkpt>
      <trkpt lat="42.293773" lon="-0.440907">
        <ele>1414.0</ele>
        <time>2018-07-22T06:23:46.000Z</time>
      </trkpt>
      <trkpt lat="42.293773" lon="-0.440909">
        <ele>1414.1</ele>
        <time>2018-07-22T06:23:47.000Z</time>
      </trkpt>
      <trkpt lat="42.293775" lon="-0.440913">
        <ele>1414.1</ele>
        <time>2018-07-22T06:23:48.000Z</time>
      </trkpt>
      <trkpt lat="42.293781" lon="-0.440921">
        <ele>1414.3</ele>
        <time>2018-07-22T06:23:49.000Z</time>
      </trkpt>
      <trkpt lat="42.293785" lon="-0.44093">
        <ele>1414.5</ele>
        <time>2018-07-22T06:23:50.000Z</time>
      </trkpt>
      <trkpt lat="42.293787" lon="-0.440938">
        <ele>1414.6</ele>
        <time>2018-07-22T06:23:51.000Z</time>
      </trkpt>
      <trkpt lat="42.293789" lon="-0.440946">
        <ele>1414.7</ele>
        <time>2018-07-22T06:23:52.000Z</time>
      </trkpt>
      <trkpt lat="42.293789" lon="-0.440951">
        <ele>1414.7</ele>
        <time>2018-07-22T06:23:53.000Z</time>
      </trkpt>
      <trkpt lat="42.29379" lon="-0.440955">
        <ele>1414.8</ele>
        <time>2018-07-22T06:23:54.000Z</time>
      </trkpt>
      <trkpt lat="42.29379" lon="-0.440958">
        <ele>1414.8</ele>
        <time>2018-07-22T06:23:55.000Z</time>
      </trkpt>
      <trkpt lat="42.293789" lon="-0.44096">
        <ele>1414.8</ele>
        <time>2018-07-22T06:23:56.000Z</time>
      </trkpt>
      <trkpt lat="42.293789" lon="-0.440961">
        <ele>1414.8</ele>
        <time>2018-07-22T06:23:57.000Z</time>
      </trkpt>
      <trkpt lat="42.293789" lon="-0.440961">
        <ele>1414.8</ele>
        <time>2018-07-22T06:23:58.000Z</time>
      </trkpt>
      <trkpt lat="42.293789" lon="-0.440961">
        <ele>1414.8</ele>
        <time>2018-07-22T06:23:59.000Z</time>
      </trkpt>
      <trkpt lat="42.293789" lon="-0.440961">
        <ele>1414.8</ele>
        <time>2018-07-22T06:24:00.000Z</time>
      </trkpt>
      <trkpt lat="42.293789" lon="-0.440963">
        <ele>1414.8</ele>
        <time>2018-07-22T06:24:01.000Z</time>
      </trkpt>
      <trkpt lat="42.29379" lon="-0.440967">
        <ele>1414.9</ele>
        <time>2018-07-22T06:24:02.000Z</time>
      </trkpt>
      <trkpt lat="42.29379" lon="-0.440973">
        <ele>1415.0</ele>
        <time>2018-07-22T06:24:03.000Z</time>
      </trkpt>
      <trkpt lat="42.29379" lon="-0.44098">
        <ele>1415.0</ele>
        <time>2018-07-22T06:24:04.000Z</time>
      </trkpt>
      <trkpt lat="42.29379" lon="-0.44099">
        <ele>1415.1</ele>
        <time>2018-07-22T06:24:05.000Z</time>
      </trkpt>
      <trkpt lat="42.293789" lon="-0.441">
        <ele>1415.2</ele>
        <time>2018-07-22T06:24:06.000Z</time>
      </trkpt>
      <trkpt lat="42.293789" lon="-0.441009">
        <ele>1415.3</ele>
        <time>2018-07-22T06:24:07.000Z</time>
      </trkpt>
      <trkpt lat="42.29379" lon="-0.441019">
        <ele>1415.4</ele>
        <time>2018-07-22T06:24:08.000Z</time>
      </trkpt>
      <trkpt lat="42.293791" lon="-0.441027">
        <ele>1415.5</ele>
        <time>2018-07-22T06:24:09.000Z</time>
      </trkpt>
      <trkpt lat="42.293793" lon="-0.441035">
        <ele>1415.6</ele>
        <time>2018-07-22T06:24:10.000Z</time>
      </trkpt>
      <trkpt lat="42.293796" lon="-0.441043">
        <ele>1415.7</ele>
        <time>2018-07-22T06:24:11.000Z</time>
      </trkpt>
      <trkpt lat="42.293799" lon="-0.441051">
        <ele>1415.9</ele>
        <time>2018-07-22T06:24:12.000Z</time>
      </trkpt>
      <trkpt lat="42.293803" lon="-0.441059">
        <ele>1416.0</ele>
        <time>2018-07-22T06:24:13.000Z</time>
      </trkpt>
      <trkpt lat="42.293806" lon="-0.441067">
        <ele>1416.2</ele>
        <time>2018-07-22T06:24:14.000Z</time>
      </trkpt>
      <trkpt lat="42.293808" lon="-0.441075">
        <ele>1416.3</ele>
        <time>2018-07-22T06:24:15.000Z</time>
      </trkpt>
      <trkpt lat="42.293811" lon="-0.441082">
        <ele>1416.4</ele>
        <time>2018-07-22T06:24:16.000Z</time>
      </trkpt>
      <trkpt lat="42.293813" lon="-0.441087">
        <ele>1416.5</ele>
        <time>2018-07-22T06:24:17.000Z</time>
      </trkpt>
      <trkpt lat="42.293814" lon="-0.441093">
        <ele>1416.6</ele>
        <time>2018-07-22T06:24:18.000Z</time>
      </trkpt>
      <trkpt lat="42.293816" lon="-0.441099">
        <ele>1416.7</ele>
        <time>2018-07-22T06:24:19.000Z</time>
      </trkpt>
      <trkpt lat="42.293817" lon="-0.441106">
        <ele>1416.8</ele>
        <time>2018-07-22T06:24:20.000Z</time>
      </trkpt>
      <trkpt lat="42.293819" lon="-0.441114">
        <ele>1416.9</ele>
        <time>2018-07-22T06:24:21.000Z</time>
      </trkpt>
      <trkpt lat="42.29382" lon="-0.441121">
        <ele>1417.0</ele>
        <time>2018-07-22T06:24:22.000Z</time>
      </trkpt>
      <trkpt lat="42.293821" lon="-0.441125">
        <ele>1417.1</ele>
        <time>2018-07-22T06:24:23.000Z</time>
      </trkpt>
      <trkpt lat="42.293822" lon="-0.441127">
        <ele>1417.1</ele>
        <time>2018-07-22T06:24:24.000Z</time>
      </trkpt>
      <trkpt lat="42.293822" lon="-0.441129">
        <ele>1417.1</ele>
        <time>2018-07-22T06:24:25.000Z</time>
      </trkpt>
      <trkpt lat="42.293822" lon="-0.44113">
        <ele>1417.1</ele>
        <time>2018-07-22T06:24:26.000Z</time>
      </trkpt>
      <trkpt lat="42.293822" lon="-0.44113">
        <ele>1417.1</ele>
        <time>2018-07-22T06:24:27.000Z</time>
      </trkpt>
      <trkpt lat="42.293822" lon="-0.441131">
        <ele>1417.1</ele>
        <time>2018-07-22T06:24:28.000Z</time>
      </trkpt>
      <trkpt lat="42.293822" lon="-0.441131">
        <ele>1417.1</ele>
        <time>2018-07-22T06:24:29.000Z</time>
      </trkpt>
      <trkpt lat="42.293822" lon="-0.441132">
        <ele>1417.2</ele>
        <time>2018-07-22T06:24:30.000Z</time>
      </trkpt>
      <trkpt lat="42.293822" lon="-0.441133">
        <ele>1417.2</ele>
        <time>2018-07-22T06:24:31.000Z</time>
      </trkpt>
      <trkpt lat="42.293822" lon="-0.441135">
        <ele>1417.2</ele>
        <time>2018-07-22T06:24:32.000Z</time>
      </trkpt>
      <trkpt lat="42.293821" lon="-0.441137">
        <ele>1417.2</ele>
        <time>2018-07-22T06:24:33.000Z</time>
      </trkpt>
      <trkpt lat="42.293821" lon="-0.44114">
        <ele>1417.2</ele>
        <time>2018-07-22T06:24:34.000Z</time>
      </trkpt>
      <trkpt lat="42.293821" lon="-0.441144">
        <ele>1417.2</ele>
        <time>2018-07-22T06:24:35.000Z</time>
      </trkpt>
      <trkpt lat="42.293821" lon="-0.441148">
        <ele>1417.3</ele>
        <time>2018-07-22T06:24:36.000Z</time>
      </trkpt>
      <trkpt lat="42.29382" lon="-0.441151">
        <ele>1417.3</ele>
        <time>2018-07-22T06:24:37.000Z</time>
      </trkpt>
      <trkpt lat="42.293815" lon="-0.441156">
        <ele>1417.2</ele>
        <time>2018-07-22T06:24:38.000Z</time>
      </trkpt>
      <trkpt lat="42.293809" lon="-0.441168">
        <ele>1417.2</ele>
        <time>2018-07-22T06:24:39.000Z</time>
      </trkpt>
      <trkpt lat="42.293805" lon="-0.441177">
        <ele>1417.2</ele>
        <time>2018-07-22T06:24:40.000Z</time>
      </trkpt>
      <trkpt lat="42.2938" lon="-0.441188">
        <ele>1417.2</ele>
        <time>2018-07-22T06:24:41.000Z</time>
      </trkpt>
      <trkpt lat="42.293793" lon="-0.4412">
        <ele>1417.1</ele>
        <time>2018-07-22T06:24:42.000Z</time>
      </trkpt>
      <trkpt lat="42.293785" lon="-0.441214">
        <ele>1417.1</ele>
        <time>2018-07-22T06:24:43.000Z</time>
      </trkpt>
      <trkpt lat="42.293777" lon="-0.441228">
        <ele>1417.0</ele>
        <time>2018-07-22T06:24:44.000Z</time>
      </trkpt>
      <trkpt lat="42.293772" lon="-0.441242">
        <ele>1417.0</ele>
        <time>2018-07-22T06:24:45.000Z</time>
      </trkpt>
      <trkpt lat="42.293769" lon="-0.441256">
        <ele>1417.0</ele>
        <time>2018-07-22T06:24:46.000Z</time>
      </trkpt>
      <trkpt lat="42.293769" lon="-0.441269">
        <ele>1417.1</ele>
        <time>2018-07-22T06:24:47.000Z</time>
      </trkpt>
      <trkpt lat="42.293771" lon="-0.441281">
        <ele>1417.3</ele>
        <time>2018-07-22T06:24:48.000Z</time>
      </trkpt>
      <trkpt lat="42.293774" lon="-0.441292">
        <ele>1417.5</ele>
        <time>2018-07-22T06:24:49.000Z</time>
      </trkpt>
      <trkpt lat="42.293778" lon="-0.441302">
        <ele>1417.7</ele>
        <time>2018-07-22T06:24:50.000Z</time>
      </trkpt>
      <trkpt lat="42.293783" lon="-0.441312">
        <ele>1417.9</ele>
        <time>2018-07-22T06:24:51.000Z</time>
      </trkpt>
      <trkpt lat="42.293788" lon="-0.44132">
        <ele>1418.1</ele>
        <time>2018-07-22T06:24:52.000Z</time>
      </trkpt>
      <trkpt lat="42.293792" lon="-0.441329">
        <ele>1418.3</ele>
        <time>2018-07-22T06:24:53.000Z</time>
      </trkpt>
      <trkpt lat="42.293795" lon="-0.441338">
        <ele>1418.5</ele>
        <time>2018-07-22T06:24:54.000Z</time>
      </trkpt>
      <trkpt lat="42.293797" lon="-0.441348">
        <ele>1418.6</ele>
        <time>2018-07-22T06:24:55.000Z</time>
      </trkpt>
      <trkpt lat="42.293797" lon="-0.44136">
        <ele>1418.7</ele>
        <time>2018-07-22T06:24:56.000Z</time>
      </trkpt>
      <trkpt lat="42.293796" lon="-0.441373">
        <ele>1418.8</ele>
        <time>2018-07-22T06:24:57.000Z</time>
      </trkpt>
      <trkpt lat="42.293794" lon="-0.441388">
        <ele>1418.9</ele>
        <time>2018-07-22T06:24:58.000Z</time>
      </trkpt>
      <trkpt lat="42.293793" lon="-0.441401">
        <ele>1419.0</ele>
        <time>2018-07-22T06:24:59.000Z</time>
      </trkpt>
      <trkpt lat="42.293794" lon="-0.441412">
        <ele>1419.1</ele>
        <time>2018-07-22T06:25:00.000Z</time>
      </trkpt>
      <trkpt lat="42.293797" lon="-0.441422">
        <ele>1419.3</ele>
        <time>2018-07-22T06:25:01.000Z</time>
      </trkpt>
      <trkpt lat="42.293802" lon="-0.44143">
        <ele>1419.5</ele>
        <time>2018-07-22T06:25:02.000Z</time>
      </trkpt>
      <trkpt lat="42.293806" lon="-0.441437">
        <ele>1419.7</ele>
        <time>2018-07-22T06:25:03.000Z</time>
      </trkpt>
      <trkpt lat="42.293811" lon="-0.441444">
        <ele>1419.9</ele>
        <time>2018-07-22T06:25:04.000Z</time>
      </trkpt>
      <trkpt lat="42.293815" lon="-0.441451">
        <ele>1420.1</ele>
        <time>2018-07-22T06:25:05.000Z</time>
      </trkpt>
      <trkpt lat="42.293819" lon="-0.441459">
        <ele>1420.3</ele>
        <time>2018-07-22T06:25:06.000Z</time>
      </trkpt>
      <trkpt lat="42.293822" lon="-0.441468">
        <ele>1420.5</ele>
        <time>2018-07-22T06:25:07.000Z</time>
      </trkpt>
      <trkpt lat="42.293823" lon="-0.441478">
        <ele>1420.6</ele>
        <time>2018-07-22T06:25:08.000Z</time>
      </trkpt>
      <trkpt lat="42.293824" lon="-0.441489">
        <ele>1420.7</ele>
        <time>2018-07-22T06:25:09.000Z</time>
      </trkpt>
      <trkpt lat="42.293824" lon="-0.4415">
        <ele>1420.8</ele>
        <time>2018-07-22T06:25:10.000Z</time>
      </trkpt>
      <trkpt lat="42.293824" lon="-0.441509">
        <ele>1420.9</ele>
        <time>2018-07-22T06:25:11.000Z</time>
      </trkpt>
      <trkpt lat="42.293824" lon="-0.441517">
        <ele>1421.0</ele>
        <time>2018-07-22T06:25:12.000Z</time>
      </trkpt>
      <trkpt lat="42.293824" lon="-0.441523">
        <ele>1421.1</ele>
        <time>2018-07-22T06:25:13.000Z</time>
      </trkpt>
      <trkpt lat="42.293824" lon="-0.441528">
        <ele>1421.1</ele>
        <time>2018-07-22T06:25:14.000Z</time>
      </trkpt>
      <trkpt lat="42.293824" lon="-0.44153">
        <ele>1421.1</ele>
        <time>2018-07-22T06:25:15.000Z</time>
      </trkpt>
      <trkpt lat="42.293824" lon="-0.441532">
        <ele>1421.2</ele>
        <time>2018-07-22T06:25:16.000Z</time>
      </trkpt>
      <trkpt lat="42.293824" lon="-0.441532">
        <ele>1421.2</ele>
        <time>2018-07-22T06:25:17.000Z</time>
      </trkpt>
      <trkpt lat="42.293824" lon="-0.441532">
        <ele>1421.2</ele>
        <time>2018-07-22T06:25:18.000Z</time>
      </trkpt>
      <trkpt lat="42.293823" lon="-0.441532">
        <ele>1421.1</ele>
        <time>2018-07-22T06:25:19.000Z</time>
      </trkpt>
      <trkpt lat="42.293823" lon="-0.441531">
        <ele>1421.1</ele>
        <time>2018-07-22T06:25:20.000Z</time>
      </trkpt>
      <trkpt lat="42.293822" lon="-0.441531">
        <ele>1421.1</ele>
        <time>2018-07-22T06:25:21.000Z</time>
      </trkpt>
      <trkpt lat="42.293822" lon="-0.441531">
        <ele>1421.1</ele>
        <time>2018-07-22T06:25:22.000Z</time>
      </trkpt>
      <trkpt lat="42.293821" lon="-0.441531">
        <ele>1421.1</ele>
        <time>2018-07-22T06:25:23.000Z</time>
      </trkpt>
      <trkpt lat="42.293821" lon="-0.441532">
        <ele>1421.1</ele>
        <time>2018-07-22T06:25:24.000Z</time>
      </trkpt>
      <trkpt lat="42.293821" lon="-0.441534">
        <ele>1421.1</ele>
        <time>2018-07-22T06:25:25.000Z</time>
      </trkpt>
      <trkpt lat="42.293822" lon="-0.441537">
        <ele>1421.1</ele>
        <time>2018-07-22T06:25:26.000Z</time>
      </trkpt>
      <trkpt lat="42.293822" lon="-0.44154">
        <ele>1421.2</ele>
        <time>2018-07-22T06:25:27.000Z</time>
      </trkpt>
      <trkpt lat="42.293824" lon="-0.441546">
        <ele>1421.3</ele>
        <time>2018-07-22T06:25:28.000Z</time>
      </trkpt>
      <trkpt lat="42.293826" lon="-0.441552">
        <ele>1421.4</ele>
        <time>2018-07-22T06:25:29.000Z</time>
      </trkpt>
      <trkpt lat="42.293828" lon="-0.441561">
        <ele>1421.6</ele>
        <time>2018-07-22T06:25:30.000Z</time>
      </trkpt>
      <trkpt lat="42.293831" lon="-0.44157">
        <ele>1421.8</ele>
        <time>2018-07-22T06:25:31.000Z</time>
      </trkpt>
      <trkpt lat="42.293835" lon="-0.441578">
        <ele>1422.0</ele>
        <time>2018-07-22T06:25:32.000Z</time>
      </trkpt>
      <trkpt lat="42.29384" lon="-0.441584">
        <ele>1422.2</ele>
        <time>2018-07-22T06:25:33.000Z</time>
      </trkpt>
      <trkpt lat="42.293844" lon="-0.441589">
        <ele>1422.4</ele>
        <time>2018-07-22T06:25:34.000Z</time>
      </trkpt>
      <trkpt lat="42.293847" lon="-0.441593">
        <ele>1422.5</ele>
        <time>2018-07-22T06:25:35.000Z</time>
      </trkpt>
      <trkpt lat="42.293849" lon="-0.441597">
        <ele>1422.6</ele>
        <time>2018-07-22T06:25:36.000Z</time>
      </trkpt>
      <trkpt lat="42.293849" lon="-0.441601">
        <ele>1422.6</ele>
        <time>2018-07-22T06:25:37.000Z</time>
      </trkpt>
      <trkpt lat="42.293851" lon="-0.441607">
        <ele>1422.8</ele>
        <time>2018-07-22T06:25:38.000Z</time>
      </trkpt>
      <trkpt lat="42.293855" lon="-0.441615">
        <ele>1423.0</ele>
        <time>2018-07-22T06:25:39.000Z</time>
      </trkpt>
      <trkpt lat="42.293858" lon="-0.441625">
        <ele>1423.2</ele>
        <time>2018-07-22T06:25:40.000Z</time>
      </trkpt>
      <trkpt lat="42.293859" lon="-0.441636">
        <ele>1423.3</ele>
        <time>2018-07-22T06:25:41.000Z</time>
      </trkpt>
      <trkpt lat="42.293861" lon="-0.441646">
        <ele>1423.5</ele>
        <time>2018-07-22T06:25:42.000Z</time>
      </trkpt>
      <trkpt lat="42.293862" lon="-0.441657">
        <ele>1423.7</ele>
        <time>2018-07-22T06:25:43.000Z</time>
      </trkpt>
      <trkpt lat="42.293864" lon="-0.441667">
        <ele>1423.8</ele>
        <time>2018-07-22T06:25:44.000Z</time>
      </trkpt>
      <trkpt lat="42.293865" lon="-0.441677">
        <ele>1424.0</ele>
        <time>2018-07-22T06:25:45.000Z</time>
      </trkpt>
      <trkpt lat="42.293866" lon="-0.441688">
        <ele>1424.3</ele>
        <time>2018-07-22T06:25:46.000Z</time>
      </trkpt>
      <trkpt lat="42.293867" lon="-0.441699">
        <ele>1424.5</ele>
        <time>2018-07-22T06:25:47.000Z</time>
      </trkpt>
      <trkpt lat="42.293868" lon="-0.441709">
        <ele>1424.7</ele>
        <time>2018-07-22T06:25:48.000Z</time>
      </trkpt>
      <trkpt lat="42.293868" lon="-0.441721">
        <ele>1424.9</ele>
        <time>2018-07-22T06:25:49.000Z</time>
      </trkpt>
      <trkpt lat="42.293869" lon="-0.441732">
        <ele>1425.1</ele>
        <time>2018-07-22T06:25:50.000Z</time>
      </trkpt>
      <trkpt lat="42.29387" lon="-0.441744">
        <ele>1425.4</ele>
        <time>2018-07-22T06:25:51.000Z</time>
      </trkpt>
      <trkpt lat="42.293871" lon="-0.441756">
        <ele>1425.6</ele>
        <time>2018-07-22T06:25:52.000Z</time>
      </trkpt>
      <trkpt lat="42.293873" lon="-0.441768">
        <ele>1425.9</ele>
        <time>2018-07-22T06:25:53.000Z</time>
      </trkpt>
      <trkpt lat="42.293876" lon="-0.44178">
        <ele>1426.2</ele>
        <time>2018-07-22T06:25:54.000Z</time>
      </trkpt>
      <trkpt lat="42.293879" lon="-0.441791">
        <ele>1426.5</ele>
        <time>2018-07-22T06:25:55.000Z</time>
      </trkpt>
      <trkpt lat="42.293883" lon="-0.4418">
        <ele>1426.9</ele>
        <time>2018-07-22T06:25:56.000Z</time>
      </trkpt>
      <trkpt lat="42.293887" lon="-0.441809">
        <ele>1427.2</ele>
        <time>2018-07-22T06:25:57.000Z</time>
      </trkpt>
      <trkpt lat="42.293891" lon="-0.441817">
        <ele>1427.5</ele>
        <time>2018-07-22T06:25:58.000Z</time>
      </trkpt>
      <trkpt lat="42.293895" lon="-0.441824">
        <ele>1427.7</ele>
        <time>2018-07-22T06:25:59.000Z</time>
      </trkpt>
      <trkpt lat="42.293898" lon="-0.441833">
        <ele>1428.0</ele>
        <time>2018-07-22T06:26:00.000Z</time>
      </trkpt>
      <trkpt lat="42.2939" lon="-0.441843">
        <ele>1428.3</ele>
        <time>2018-07-22T06:26:01.000Z</time>
      </trkpt>
      <trkpt lat="42.2939" lon="-0.441855">
        <ele>1428.5</ele>
        <time>2018-07-22T06:26:02.000Z</time>
      </trkpt>
      <trkpt lat="42.2939" lon="-0.441867">
        <ele>1428.7</ele>
        <time>2018-07-22T06:26:03.000Z</time>
      </trkpt>
      <trkpt lat="42.293899" lon="-0.441876">
        <ele>1428.8</ele>
        <time>2018-07-22T06:26:04.000Z</time>
      </trkpt>
      <trkpt lat="42.293899" lon="-0.441882">
        <ele>1428.9</ele>
        <time>2018-07-22T06:26:05.000Z</time>
      </trkpt>
      <trkpt lat="42.293899" lon="-0.441884">
        <ele>1429.0</ele>
        <time>2018-07-22T06:26:06.000Z</time>
      </trkpt>
      <trkpt lat="42.293898" lon="-0.441885">
        <ele>1428.9</ele>
        <time>2018-07-22T06:26:07.000Z</time>
      </trkpt>
      <trkpt lat="42.293898" lon="-0.441886">
        <ele>1429.0</ele>
        <time>2018-07-22T06:26:08.000Z</time>
      </trkpt>
      <trkpt lat="42.293898" lon="-0.441886">
        <ele>1429.0</ele>
        <time>2018-07-22T06:26:09.000Z</time>
      </trkpt>
      <trkpt lat="42.293898" lon="-0.441887">
        <ele>1429.0</ele>
        <time>2018-07-22T06:26:10.000Z</time>
      </trkpt>
      <trkpt lat="42.293898" lon="-0.441887">
        <ele>1429.0</ele>
        <time>2018-07-22T06:26:11.000Z</time>
      </trkpt>
      <trkpt lat="42.293898" lon="-0.441887">
        <ele>1429.0</ele>
        <time>2018-07-22T06:26:12.000Z</time>
      </trkpt>
      <trkpt lat="42.293898" lon="-0.441888">
        <ele>1429.0</ele>
        <time>2018-07-22T06:26:13.000Z</time>
      </trkpt>
      <trkpt lat="42.293898" lon="-0.441888">
        <ele>1429.0</ele>
        <time>2018-07-22T06:26:14.000Z</time>
      </trkpt>
      <trkpt lat="42.293898" lon="-0.441889">
        <ele>1429.0</ele>
        <time>2018-07-22T06:26:15.000Z</time>
      </trkpt>
      <trkpt lat="42.293898" lon="-0.44189">
        <ele>1429.0</ele>
        <time>2018-07-22T06:26:16.000Z</time>
      </trkpt>
      <trkpt lat="42.293898" lon="-0.44189">
        <ele>1429.0</ele>
        <time>2018-07-22T06:26:17.000Z</time>
      </trkpt>
      <trkpt lat="42.293898" lon="-0.441891">
        <ele>1429.1</ele>
        <time>2018-07-22T06:26:18.000Z</time>
      </trkpt>
      <trkpt lat="42.293898" lon="-0.441891">
        <ele>1429.1</ele>
        <time>2018-07-22T06:26:19.000Z</time>
      </trkpt>
      <trkpt lat="42.293898" lon="-0.441892">
        <ele>1429.1</ele>
        <time>2018-07-22T06:26:20.000Z</time>
      </trkpt>
      <trkpt lat="42.293898" lon="-0.441892">
        <ele>1429.1</ele>
        <time>2018-07-22T06:26:21.000Z</time>
      </trkpt>
      <trkpt lat="42.293898" lon="-0.441892">
        <ele>1429.1</ele>
        <time>2018-07-22T06:26:22.000Z</time>
      </trkpt>
      <trkpt lat="42.293898" lon="-0.441892">
        <ele>1429.1</ele>
        <time>2018-07-22T06:26:23.000Z</time>
      </trkpt>
      <trkpt lat="42.293898" lon="-0.441892">
        <ele>1429.1</ele>
        <time>2018-07-22T06:26:24.000Z</time>
      </trkpt>
      <trkpt lat="42.293898" lon="-0.441892">
        <ele>1429.1</ele>
        <time>2018-07-22T06:26:25.000Z</time>
      </trkpt>
      <trkpt lat="42.293898" lon="-0.441893">
        <ele>1429.1</ele>
        <time>2018-07-22T06:26:26.000Z</time>
      </trkpt>
      <trkpt lat="42.293898" lon="-0.441894">
        <ele>1429.1</ele>
        <time>2018-07-22T06:26:27.000Z</time>
      </trkpt>
      <trkpt lat="42.293898" lon="-0.441895">
        <ele>1429.1</ele>
        <time>2018-07-22T06:26:28.000Z</time>
      </trkpt>
      <trkpt lat="42.293897" lon="-0.441898">
        <ele>1429.1</ele>
        <time>2018-07-22T06:26:29.000Z</time>
      </trkpt>
      <trkpt lat="42.293898" lon="-0.441903">
        <ele>1429.3</ele>
        <time>2018-07-22T06:26:30.000Z</time>
      </trkpt>
      <trkpt lat="42.293904" lon="-0.441912">
        <ele>1429.7</ele>
        <time>2018-07-22T06:26:31.000Z</time>
      </trkpt>
      <trkpt lat="42.293911" lon="-0.44192">
        <ele>1430.1</ele>
        <time>2018-07-22T06:26:32.000Z</time>
      </trkpt>
      <trkpt lat="42.293917" lon="-0.441926">
        <ele>1430.4</ele>
        <time>2018-07-22T06:26:33.000Z</time>
      </trkpt>
      <trkpt lat="42.293922" lon="-0.441933">
        <ele>1430.8</ele>
        <time>2018-07-22T06:26:34.000Z</time>
      </trkpt>
      <trkpt lat="42.293925" lon="-0.441942">
        <ele>1431.1</ele>
        <time>2018-07-22T06:26:35.000Z</time>
      </trkpt>
      <trkpt lat="42.293927" lon="-0.441953">
        <ele>1431.3</ele>
        <time>2018-07-22T06:26:36.000Z</time>
      </trkpt>
      <trkpt lat="42.293928" lon="-0.441966">
        <ele>1431.6</ele>
        <time>2018-07-22T06:26:37.000Z</time>
      </trkpt>
      <trkpt lat="42.293928" lon="-0.441979">
        <ele>1431.9</ele>
        <time>2018-07-22T06:26:38.000Z</time>
      </trkpt>
      <trkpt lat="42.293929" lon="-0.441993">
        <ele>1432.2</ele>
        <time>2018-07-22T06:26:39.000Z</time>
      </trkpt>
      <trkpt lat="42.29393" lon="-0.442005">
        <ele>1432.4</ele>
        <time>2018-07-22T06:26:40.000Z</time>
      </trkpt>
      <trkpt lat="42.293933" lon="-0.442016">
        <ele>1432.8</ele>
        <time>2018-07-22T06:26:41.000Z</time>
      </trkpt>
      <trkpt lat="42.293937" lon="-0.442025">
        <ele>1433.1</ele>
        <time>2018-07-22T06:26:42.000Z</time>
      </trkpt>
      <trkpt lat="42.293941" lon="-0.442031">
        <ele>1433.4</ele>
        <time>2018-07-22T06:26:43.000Z</time>
      </trkpt>
      <trkpt lat="42.293944" lon="-0.442035">
        <ele>1433.6</ele>
        <time>2018-07-22T06:26:44.000Z</time>
      </trkpt>
      <trkpt lat="42.293945" lon="-0.442035">
        <ele>1433.6</ele>
        <time>2018-07-22T06:26:45.000Z</time>
      </trkpt>
      <trkpt lat="42.293945" lon="-0.442032">
        <ele>1433.6</ele>
        <time>2018-07-22T06:26:46.000Z</time>
      </trkpt>
      <trkpt lat="42.293943" lon="-0.442025">
        <ele>1433.4</ele>
        <time>2018-07-22T06:26:47.000Z</time>
      </trkpt>
      <trkpt lat="42.29394" lon="-0.442016">
        <ele>1433.1</ele>
        <time>2018-07-22T06:26:48.000Z</time>
      </trkpt>
      <trkpt lat="42.293936" lon="-0.442005">
        <ele>1432.7</ele>
        <time>2018-07-22T06:26:49.000Z</time>
      </trkpt>
      <trkpt lat="42.293932" lon="-0.441993">
        <ele>1432.3</ele>
        <time>2018-07-22T06:26:50.000Z</time>
      </trkpt>
      <trkpt lat="42.293929" lon="-0.44198">
        <ele>1431.9</ele>
        <time>2018-07-22T06:26:51.000Z</time>
      </trkpt>
      <trkpt lat="42.293927" lon="-0.441968">
        <ele>1431.6</ele>
        <time>2018-07-22T06:26:52.000Z</time>
      </trkpt>
      <trkpt lat="42.293925" lon="-0.441956">
        <ele>1431.3</ele>
        <time>2018-07-22T06:26:53.000Z</time>
      </trkpt>
      <trkpt lat="42.293924" lon="-0.441945">
        <ele>1431.1</ele>
        <time>2018-07-22T06:26:54.000Z</time>
      </trkpt>
      <trkpt lat="42.293922" lon="-0.441934">
        <ele>1430.8</ele>
        <time>2018-07-22T06:26:55.000Z</time>
      </trkpt>
      <trkpt lat="42.293918" lon="-0.441925">
        <ele>1430.5</ele>
        <time>2018-07-22T06:26:56.000Z</time>
      </trkpt>
      <trkpt lat="42.293913" lon="-0.441917">
        <ele>1430.1</ele>
        <time>2018-07-22T06:26:57.000Z</time>
      </trkpt>
      <trkpt lat="42.293907" lon="-0.441911">
        <ele>1429.8</ele>
        <time>2018-07-22T06:26:58.000Z</time>
      </trkpt>
      <trkpt lat="42.2939" lon="-0.441908">
        <ele>1429.4</ele>
        <time>2018-07-22T06:26:59.000Z</time>
      </trkpt>
      <trkpt lat="42.293893" lon="-0.441909">
        <ele>1429.2</ele>
        <time>2018-07-22T06:27:00.000Z</time>
      </trkpt>
      <trkpt lat="42.293887" lon="-0.441914">
        <ele>1429.0</ele>
        <time>2018-07-22T06:27:01.000Z</time>
      </trkpt>
      <trkpt lat="42.293883" lon="-0.441921">
        <ele>1429.0</ele>
        <time>2018-07-22T06:27:02.000Z</time>
      </trkpt>
      <trkpt lat="42.29388" lon="-0.441931">
        <ele>1429.1</ele>
        <time>2018-07-22T06:27:03.000Z</time>
      </trkpt>
      <trkpt lat="42.293879" lon="-0.441942">
        <ele>1429.2</ele>
        <time>2018-07-22T06:27:04.000Z</time>
      </trkpt>
      <trkpt lat="42.293879" lon="-0.441953">
        <ele>1429.4</ele>
        <time>2018-07-22T06:27:05.000Z</time>
      </trkpt>
      <trkpt lat="42.293879" lon="-0.441963">
        <ele>1429.6</ele>
        <time>2018-07-22T06:27:06.000Z</time>
      </trkpt>
      <trkpt lat="42.293878" lon="-0.441972">
        <ele>1429.7</ele>
        <time>2018-07-22T06:27:07.000Z</time>
      </trkpt>
      <trkpt lat="42.293876" lon="-0.44198">
        <ele>1429.8</ele>
        <time>2018-07-22T06:27:08.000Z</time>
      </trkpt>
      <trkpt lat="42.293873" lon="-0.441988">
        <ele>1429.8</ele>
        <time>2018-07-22T06:27:09.000Z</time>
      </trkpt>
      <trkpt lat="42.29387" lon="-0.441998">
        <ele>1429.9</ele>
        <time>2018-07-22T06:27:10.000Z</time>
      </trkpt>
      <trkpt lat="42.293866" lon="-0.442009">
        <ele>1429.9</ele>
        <time>2018-07-22T06:27:11.000Z</time>
      </trkpt>
      <trkpt lat="42.293863" lon="-0.442022">
        <ele>1430.0</ele>
        <time>2018-07-22T06:27:12.000Z</time>
      </trkpt>
      <trkpt lat="42.293861" lon="-0.442034">
        <ele>1430.1</ele>
        <time>2018-07-22T06:27:13.000Z</time>
      </trkpt>
      <trkpt lat="42.293859" lon="-0.442046">
        <ele>1430.2</ele>
        <time>2018-07-22T06:27:14.000Z</time>
      </trkpt>
      <trkpt lat="42.293858" lon="-0.442057">
        <ele>1430.4</ele>
        <time>2018-07-22T06:27:15.000Z</time>
      </trkpt>
      <trkpt lat="42.293857" lon="-0.442067">
        <ele>1430.5</ele>
        <time>2018-07-22T06:27:16.000Z</time>
      </trkpt>
      <trkpt lat="42.293856" lon="-0.442077">
        <ele>1430.7</ele>
        <time>2018-07-22T06:27:17.000Z</time>
      </trkpt>
      <trkpt lat="42.293856" lon="-0.442087">
        <ele>1430.8</ele>
        <time>2018-07-22T06:27:18.000Z</time>
      </trkpt>
      <trkpt lat="42.293856" lon="-0.442097">
        <ele>1431.0</ele>
        <time>2018-07-22T06:27:19.000Z</time>
      </trkpt>
      <trkpt lat="42.293856" lon="-0.442106">
        <ele>1431.2</ele>
        <time>2018-07-22T06:27:20.000Z</time>
      </trkpt>
      <trkpt lat="42.293857" lon="-0.442115">
        <ele>1431.4</ele>
        <time>2018-07-22T06:27:21.000Z</time>
      </trkpt>
      <trkpt lat="42.293857" lon="-0.442124">
        <ele>1431.5</ele>
        <time>2018-07-22T06:27:22.000Z</time>
      </trkpt>
      <trkpt lat="42.293858" lon="-0.442132">
        <ele>1431.7</ele>
        <time>2018-07-22T06:27:23.000Z</time>
      </trkpt>
      <trkpt lat="42.293858" lon="-0.44214">
        <ele>1431.8</ele>
        <time>2018-07-22T06:27:24.000Z</time>
      </trkpt>
      <trkpt lat="42.293859" lon="-0.442147">
        <ele>1432.0</ele>
        <time>2018-07-22T06:27:25.000Z</time>
      </trkpt>
      <trkpt lat="42.29386" lon="-0.442152">
        <ele>1432.1</ele>
        <time>2018-07-22T06:27:26.000Z</time>
      </trkpt>
      <trkpt lat="42.293861" lon="-0.442157">
        <ele>1432.3</ele>
        <time>2018-07-22T06:27:27.000Z</time>
      </trkpt>
      <trkpt lat="42.293861" lon="-0.442161">
        <ele>1432.3</ele>
        <time>2018-07-22T06:27:28.000Z</time>
      </trkpt>
      <trkpt lat="42.293862" lon="-0.442163">
        <ele>1432.4</ele>
        <time>2018-07-22T06:27:29.000Z</time>
      </trkpt>
      <trkpt lat="42.293862" lon="-0.442165">
        <ele>1432.4</ele>
        <time>2018-07-22T06:27:30.000Z</time>
      </trkpt>
      <trkpt lat="42.293862" lon="-0.442169">
        <ele>1432.5</ele>
        <time>2018-07-22T06:27:31.000Z</time>
      </trkpt>
      <trkpt lat="42.293862" lon="-0.442174">
        <ele>1432.6</ele>
        <time>2018-07-22T06:27:32.000Z</time>
      </trkpt>
      <trkpt lat="42.293862" lon="-0.442179">
        <ele>1432.7</ele>
        <time>2018-07-22T06:27:33.000Z</time>
      </trkpt>
      <trkpt lat="42.293863" lon="-0.442184">
        <ele>1432.8</ele>
        <time>2018-07-22T06:27:34.000Z</time>
      </trkpt>
      <trkpt lat="42.293864" lon="-0.442188">
        <ele>1432.9</ele>
        <time>2018-07-22T06:27:35.000Z</time>
      </trkpt>
      <trkpt lat="42.293866" lon="-0.442196">
        <ele>1433.2</ele>
        <time>2018-07-22T06:27:36.000Z</time>
      </trkpt>
      <trkpt lat="42.293869" lon="-0.442204">
        <ele>1433.4</ele>
        <time>2018-07-22T06:27:37.000Z</time>
      </trkpt>
      <trkpt lat="42.29387" lon="-0.442212">
        <ele>1433.6</ele>
        <time>2018-07-22T06:27:38.000Z</time>
      </trkpt>
      <trkpt lat="42.29387" lon="-0.44222">
        <ele>1433.8</ele>
        <time>2018-07-22T06:27:39.000Z</time>
      </trkpt>
      <trkpt lat="42.293871" lon="-0.442226">
        <ele>1433.9</ele>
        <time>2018-07-22T06:27:40.000Z</time>
      </trkpt>
      <trkpt lat="42.293871" lon="-0.44223">
        <ele>1434.0</ele>
        <time>2018-07-22T06:27:41.000Z</time>
      </trkpt>
      <trkpt lat="42.293871" lon="-0.442233">
        <ele>1434.0</ele>
        <time>2018-07-22T06:27:42.000Z</time>
      </trkpt>
      <trkpt lat="42.29387" lon="-0.442237">
        <ele>1434.1</ele>
        <time>2018-07-22T06:27:43.000Z</time>
      </trkpt>
      <trkpt lat="42.293865" lon="-0.442253">
        <ele>1434.1</ele>
        <time>2018-07-22T06:27:44.000Z</time>
      </trkpt>
      <trkpt lat="42.293862" lon="-0.442267">
        <ele>1434.2</ele>
        <time>2018-07-22T06:27:45.000Z</time>
      </trkpt>
      <trkpt lat="42.29386" lon="-0.442278">
        <ele>1434.3</ele>
        <time>2018-07-22T06:27:46.000Z</time>
      </trkpt>
      <trkpt lat="42.293859" lon="-0.442285">
        <ele>1434.4</ele>
        <time>2018-07-22T06:27:47.000Z</time>
      </trkpt>
      <trkpt lat="42.293859" lon="-0.442289">
        <ele>1434.5</ele>
        <time>2018-07-22T06:27:48.000Z</time>
      </trkpt>
      <trkpt lat="42.293859" lon="-0.442292">
        <ele>1434.5</ele>
        <time>2018-07-22T06:27:49.000Z</time>
      </trkpt>
      <trkpt lat="42.293858" lon="-0.442295">
        <ele>1434.5</ele>
        <time>2018-07-22T06:27:50.000Z</time>
      </trkpt>
      <trkpt lat="42.293857" lon="-0.442298">
        <ele>1434.5</ele>
        <time>2018-07-22T06:27:51.000Z</time>
      </trkpt>
      <trkpt lat="42.293855" lon="-0.442304">
        <ele>1434.5</ele>
        <time>2018-07-22T06:27:52.000Z</time>
      </trkpt>
      <trkpt lat="42.293852" lon="-0.442316">
        <ele>1434.6</ele>
        <time>2018-07-22T06:27:53.000Z</time>
      </trkpt>
      <trkpt lat="42.293849" lon="-0.442328">
        <ele>1434.7</ele>
        <time>2018-07-22T06:27:54.000Z</time>
      </trkpt>
      <trkpt lat="42.293846" lon="-0.442338">
        <ele>1434.7</ele>
        <time>2018-07-22T06:27:55.000Z</time>
      </trkpt>
      <trkpt lat="42.293844" lon="-0.442347">
        <ele>1434.7</ele>
        <time>2018-07-22T06:27:56.000Z</time>
      </trkpt>
      <trkpt lat="42.293843" lon="-0.442357">
        <ele>1434.9</ele>
        <time>2018-07-22T06:27:57.000Z</time>
      </trkpt>
      <trkpt lat="42.29384" lon="-0.442367">
        <ele>1434.9</ele>
        <time>2018-07-22T06:27:58.000Z</time>
      </trkpt>
      <trkpt lat="42.293838" lon="-0.442377">
        <ele>1435.0</ele>
        <time>2018-07-22T06:27:59.000Z</time>
      </trkpt>
      <trkpt lat="42.293836" lon="-0.442388">
        <ele>1435.0</ele>
        <time>2018-07-22T06:28:00.000Z</time>
      </trkpt>
      <trkpt lat="42.293834" lon="-0.4424">
        <ele>1435.2</ele>
        <time>2018-07-22T06:28:01.000Z</time>
      </trkpt>
      <trkpt lat="42.293833" lon="-0.442411">
        <ele>1435.3</ele>
        <time>2018-07-22T06:28:02.000Z</time>
      </trkpt>
      <trkpt lat="42.293832" lon="-0.442421">
        <ele>1435.4</ele>
        <time>2018-07-22T06:28:03.000Z</time>
      </trkpt>
      <trkpt lat="42.293832" lon="-0.442431">
        <ele>1435.6</ele>
        <time>2018-07-22T06:28:04.000Z</time>
      </trkpt>
      <trkpt lat="42.293831" lon="-0.442441">
        <ele>1435.7</ele>
        <time>2018-07-22T06:28:05.000Z</time>
      </trkpt>
      <trkpt lat="42.293831" lon="-0.442449">
        <ele>1435.8</ele>
        <time>2018-07-22T06:28:06.000Z</time>
      </trkpt>
      <trkpt lat="42.29383" lon="-0.442457">
        <ele>1435.9</ele>
        <time>2018-07-22T06:28:07.000Z</time>
      </trkpt>
      <trkpt lat="42.293829" lon="-0.442464">
        <ele>1436.0</ele>
        <time>2018-07-22T06:28:08.000Z</time>
      </trkpt>
      <trkpt lat="42.293827" lon="-0.442471">
        <ele>1436.0</ele>
        <time>2018-07-22T06:28:09.000Z</time>
      </trkpt>
      <trkpt lat="42.293825" lon="-0.442479">
        <ele>1436.0</ele>
        <time>2018-07-22T06:28:10.000Z</time>
      </trkpt>
      <trkpt lat="42.293822" lon="-0.442489">
        <ele>1436.0</ele>
        <time>2018-07-22T06:28:11.000Z</time>
      </trkpt>
      <trkpt lat="42.293819" lon="-0.442499">
        <ele>1436.0</ele>
        <time>2018-07-22T06:28:12.000Z</time>
      </trkpt>
      <trkpt lat="42.293818" lon="-0.442509">
        <ele>1436.2</ele>
        <time>2018-07-22T06:28:13.000Z</time>
      </trkpt>
      <trkpt lat="42.293818" lon="-0.442518">
        <ele>1436.4</ele>
        <time>2018-07-22T06:28:14.000Z</time>
      </trkpt>
      <trkpt lat="42.293818" lon="-0.442528">
        <ele>1436.7</ele>
        <time>2018-07-22T06:28:15.000Z</time>
      </trkpt>
      <trkpt lat="42.293818" lon="-0.442538">
        <ele>1436.9</ele>
        <time>2018-07-22T06:28:16.000Z</time>
      </trkpt>
      <trkpt lat="42.293817" lon="-0.442548">
        <ele>1437.1</ele>
        <time>2018-07-22T06:28:17.000Z</time>
      </trkpt>
      <trkpt lat="42.293815" lon="-0.442559">
        <ele>1437.2</ele>
        <time>2018-07-22T06:28:18.000Z</time>
      </trkpt>
      <trkpt lat="42.293811" lon="-0.442571">
        <ele>1437.3</ele>
        <time>2018-07-22T06:28:19.000Z</time>
      </trkpt>
      <trkpt lat="42.293808" lon="-0.442583">
        <ele>1437.4</ele>
        <time>2018-07-22T06:28:20.000Z</time>
      </trkpt>
      <trkpt lat="42.293806" lon="-0.442596">
        <ele>1437.6</ele>
        <time>2018-07-22T06:28:21.000Z</time>
      </trkpt>
      <trkpt lat="42.293806" lon="-0.442608">
        <ele>1437.9</ele>
        <time>2018-07-22T06:28:22.000Z</time>
      </trkpt>
      <trkpt lat="42.293807" lon="-0.442621">
        <ele>1438.3</ele>
        <time>2018-07-22T06:28:23.000Z</time>
      </trkpt>
      <trkpt lat="42.293806" lon="-0.442633">
        <ele>1438.5</ele>
        <time>2018-07-22T06:28:24.000Z</time>
      </trkpt>
      <trkpt lat="42.293803" lon="-0.442645">
        <ele>1438.6</ele>
        <time>2018-07-22T06:28:25.000Z</time>
      </trkpt>
      <trkpt lat="42.293798" lon="-0.442657">
        <ele>1438.7</ele>
        <time>2018-07-22T06:28:26.000Z</time>
      </trkpt>
      <trkpt lat="42.293793" lon="-0.442669">
        <ele>1438.7</ele>
        <time>2018-07-22T06:28:27.000Z</time>
      </trkpt>
      <trkpt lat="42.293787" lon="-0.442681">
        <ele>1438.7</ele>
        <time>2018-07-22T06:28:28.000Z</time>
      </trkpt>
      <trkpt lat="42.293783" lon="-0.442692">
        <ele>1438.7</ele>
        <time>2018-07-22T06:28:29.000Z</time>
      </trkpt>
      <trkpt lat="42.29378" lon="-0.442704">
        <ele>1438.9</ele>
        <time>2018-07-22T06:28:30.000Z</time>
      </trkpt>
      <trkpt lat="42.293778" lon="-0.442716">
        <ele>1439.1</ele>
        <time>2018-07-22T06:28:31.000Z</time>
      </trkpt>
      <trkpt lat="42.293776" lon="-0.442728">
        <ele>1439.2</ele>
        <time>2018-07-22T06:28:32.000Z</time>
      </trkpt>
      <trkpt lat="42.293774" lon="-0.44274">
        <ele>1439.4</ele>
        <time>2018-07-22T06:28:33.000Z</time>
      </trkpt>
      <trkpt lat="42.293771" lon="-0.442752">
        <ele>1439.6</ele>
        <time>2018-07-22T06:28:34.000Z</time>
      </trkpt>
      <trkpt lat="42.293767" lon="-0.442764">
        <ele>1439.7</ele>
        <time>2018-07-22T06:28:35.000Z</time>
      </trkpt>
      <trkpt lat="42.293763" lon="-0.442776">
        <ele>1439.8</ele>
        <time>2018-07-22T06:28:36.000Z</time>
      </trkpt>
      <trkpt lat="42.293761" lon="-0.442788">
        <ele>1439.9</ele>
        <time>2018-07-22T06:28:37.000Z</time>
      </trkpt>
      <trkpt lat="42.293762" lon="-0.4428">
        <ele>1440.3</ele>
        <time>2018-07-22T06:28:38.000Z</time>
      </trkpt>
      <trkpt lat="42.293765" lon="-0.442812">
        <ele>1440.7</ele>
        <time>2018-07-22T06:28:39.000Z</time>
      </trkpt>
      <trkpt lat="42.293767" lon="-0.442824">
        <ele>1441.1</ele>
        <time>2018-07-22T06:28:40.000Z</time>
      </trkpt>
      <trkpt lat="42.293768" lon="-0.442835">
        <ele>1441.4</ele>
        <time>2018-07-22T06:28:41.000Z</time>
      </trkpt>
      <trkpt lat="42.293768" lon="-0.442846">
        <ele>1441.7</ele>
        <time>2018-07-22T06:28:42.000Z</time>
      </trkpt>
      <trkpt lat="42.293767" lon="-0.442856">
        <ele>1441.9</ele>
        <time>2018-07-22T06:28:43.000Z</time>
      </trkpt>
      <trkpt lat="42.293766" lon="-0.442863">
        <ele>1442.0</ele>
        <time>2018-07-22T06:28:44.000Z</time>
      </trkpt>
      <trkpt lat="42.293765" lon="-0.442868">
        <ele>1442.0</ele>
        <time>2018-07-22T06:28:45.000Z</time>
      </trkpt>
      <trkpt lat="42.293765" lon="-0.44287">
        <ele>1442.1</ele>
        <time>2018-07-22T06:28:46.000Z</time>
      </trkpt>
      <trkpt lat="42.293765" lon="-0.442872">
        <ele>1442.1</ele>
        <time>2018-07-22T06:28:47.000Z</time>
      </trkpt>
      <trkpt lat="42.293764" lon="-0.442878">
        <ele>1442.2</ele>
        <time>2018-07-22T06:28:48.000Z</time>
      </trkpt>
      <trkpt lat="42.293762" lon="-0.442888">
        <ele>1442.4</ele>
        <time>2018-07-22T06:28:49.000Z</time>
      </trkpt>
      <trkpt lat="42.293759" lon="-0.442896">
        <ele>1442.4</ele>
        <time>2018-07-22T06:28:50.000Z</time>
      </trkpt>
      <trkpt lat="42.293756" lon="-0.442906">
        <ele>1442.5</ele>
        <time>2018-07-22T06:28:51.000Z</time>
      </trkpt>
      <trkpt lat="42.293754" lon="-0.442916">
        <ele>1442.7</ele>
        <time>2018-07-22T06:28:52.000Z</time>
      </trkpt>
      <trkpt lat="42.293754" lon="-0.442927">
        <ele>1442.9</ele>
        <time>2018-07-22T06:28:53.000Z</time>
      </trkpt>
      <trkpt lat="42.293757" lon="-0.442937">
        <ele>1443.3</ele>
        <time>2018-07-22T06:28:54.000Z</time>
      </trkpt>
      <trkpt lat="42.29376" lon="-0.442948">
        <ele>1443.7</ele>
        <time>2018-07-22T06:28:55.000Z</time>
      </trkpt>
      <trkpt lat="42.293762" lon="-0.442958">
        <ele>1444.0</ele>
        <time>2018-07-22T06:28:56.000Z</time>
      </trkpt>
      <trkpt lat="42.293765" lon="-0.442969">
        <ele>1444.4</ele>
        <time>2018-07-22T06:28:57.000Z</time>
      </trkpt>
      <trkpt lat="42.293767" lon="-0.442981">
        <ele>1444.8</ele>
        <time>2018-07-22T06:28:58.000Z</time>
      </trkpt>
      <trkpt lat="42.293768" lon="-0.442992">
        <ele>1445.1</ele>
        <time>2018-07-22T06:28:59.000Z</time>
      </trkpt>
      <trkpt lat="42.29377" lon="-0.443004">
        <ele>1445.5</ele>
        <time>2018-07-22T06:29:00.000Z</time>
      </trkpt>
      <trkpt lat="42.293771" lon="-0.443014">
        <ele>1445.8</ele>
        <time>2018-07-22T06:29:01.000Z</time>
      </trkpt>
      <trkpt lat="42.293772" lon="-0.443025">
        <ele>1446.1</ele>
        <time>2018-07-22T06:29:02.000Z</time>
      </trkpt>
      <trkpt lat="42.293772" lon="-0.443034">
        <ele>1446.3</ele>
        <time>2018-07-22T06:29:03.000Z</time>
      </trkpt>
      <trkpt lat="42.293773" lon="-0.443042">
        <ele>1446.6</ele>
        <time>2018-07-22T06:29:04.000Z</time>
      </trkpt>
      <trkpt lat="42.293773" lon="-0.443049">
        <ele>1446.7</ele>
        <time>2018-07-22T06:29:05.000Z</time>
      </trkpt>
      <trkpt lat="42.293774" lon="-0.443054">
        <ele>1446.9</ele>
        <time>2018-07-22T06:29:06.000Z</time>
      </trkpt>
      <trkpt lat="42.293774" lon="-0.443058">
        <ele>1447.0</ele>
        <time>2018-07-22T06:29:07.000Z</time>
      </trkpt>
      <trkpt lat="42.293774" lon="-0.44306">
        <ele>1447.0</ele>
        <time>2018-07-22T06:29:08.000Z</time>
      </trkpt>
      <trkpt lat="42.293775" lon="-0.443061">
        <ele>1447.1</ele>
        <time>2018-07-22T06:29:09.000Z</time>
      </trkpt>
      <trkpt lat="42.293775" lon="-0.443061">
        <ele>1447.1</ele>
        <time>2018-07-22T06:29:10.000Z</time>
      </trkpt>
      <trkpt lat="42.293776" lon="-0.443061">
        <ele>1447.1</ele>
        <time>2018-07-22T06:29:11.000Z</time>
      </trkpt>
      <trkpt lat="42.293777" lon="-0.443061">
        <ele>1447.2</ele>
        <time>2018-07-22T06:29:12.000Z</time>
      </trkpt>
      <trkpt lat="42.293778" lon="-0.44306">
        <ele>1447.2</ele>
        <time>2018-07-22T06:29:13.000Z</time>
      </trkpt>
      <trkpt lat="42.293779" lon="-0.44306">
        <ele>1447.2</ele>
        <time>2018-07-22T06:29:14.000Z</time>
      </trkpt>
      <trkpt lat="42.293779" lon="-0.44306">
        <ele>1447.2</ele>
        <time>2018-07-22T06:29:15.000Z</time>
      </trkpt>
      <trkpt lat="42.293778" lon="-0.44306">
        <ele>1447.2</ele>
        <time>2018-07-22T06:29:16.000Z</time>
      </trkpt>
      <trkpt lat="42.293776" lon="-0.443061">
        <ele>1447.1</ele>
        <time>2018-07-22T06:29:17.000Z</time>
      </trkpt>
      <trkpt lat="42.293773" lon="-0.443062">
        <ele>1447.0</ele>
        <time>2018-07-22T06:29:18.000Z</time>
      </trkpt>
      <trkpt lat="42.293768" lon="-0.443063">
        <ele>1446.8</ele>
        <time>2018-07-22T06:29:19.000Z</time>
      </trkpt>
      <trkpt lat="42.293762" lon="-0.443066">
        <ele>1446.6</ele>
        <time>2018-07-22T06:29:20.000Z</time>
      </trkpt>
      <trkpt lat="42.293757" lon="-0.443071">
        <ele>1446.5</ele>
        <time>2018-07-22T06:29:21.000Z</time>
      </trkpt>
      <trkpt lat="42.293752" lon="-0.443077">
        <ele>1446.4</ele>
        <time>2018-07-22T06:29:22.000Z</time>
      </trkpt>
      <trkpt lat="42.293749" lon="-0.443086">
        <ele>1446.5</ele>
        <time>2018-07-22T06:29:23.000Z</time>
      </trkpt>
      <trkpt lat="42.293747" lon="-0.443098">
        <ele>1446.7</ele>
        <time>2018-07-22T06:29:24.000Z</time>
      </trkpt>
      <trkpt lat="42.293747" lon="-0.443111">
        <ele>1447.0</ele>
        <time>2018-07-22T06:29:25.000Z</time>
      </trkpt>
      <trkpt lat="42.293748" lon="-0.443124">
        <ele>1447.4</ele>
        <time>2018-07-22T06:29:26.000Z</time>
      </trkpt>
      <trkpt lat="42.293749" lon="-0.443135">
        <ele>1447.7</ele>
        <time>2018-07-22T06:29:27.000Z</time>
      </trkpt>
      <trkpt lat="42.29375" lon="-0.443144">
        <ele>1448.0</ele>
        <time>2018-07-22T06:29:28.000Z</time>
      </trkpt>
      <trkpt lat="42.293751" lon="-0.44315">
        <ele>1448.1</ele>
        <time>2018-07-22T06:29:29.000Z</time>
      </trkpt>
      <trkpt lat="42.293751" lon="-0.443152">
        <ele>1448.2</ele>
        <time>2018-07-22T06:29:30.000Z</time>
      </trkpt>
      <trkpt lat="42.29375" lon="-0.443153">
        <ele>1448.2</ele>
        <time>2018-07-22T06:29:31.000Z</time>
      </trkpt>
      <trkpt lat="42.293749" lon="-0.443152">
        <ele>1448.1</ele>
        <time>2018-07-22T06:29:32.000Z</time>
      </trkpt>
      <trkpt lat="42.293749" lon="-0.443151">
        <ele>1448.1</ele>
        <time>2018-07-22T06:29:33.000Z</time>
      </trkpt>
      <trkpt lat="42.293749" lon="-0.443151">
        <ele>1448.1</ele>
        <time>2018-07-22T06:29:34.000Z</time>
      </trkpt>
      <trkpt lat="42.293749" lon="-0.443151">
        <ele>1448.1</ele>
        <time>2018-07-22T06:29:35.000Z</time>
      </trkpt>
      <trkpt lat="42.293749" lon="-0.443152">
        <ele>1448.1</ele>
        <time>2018-07-22T06:29:36.000Z</time>
      </trkpt>
      <trkpt lat="42.293749" lon="-0.443153">
        <ele>1448.1</ele>
        <time>2018-07-22T06:29:37.000Z</time>
      </trkpt>
      <trkpt lat="42.293749" lon="-0.443154">
        <ele>1448.2</ele>
        <time>2018-07-22T06:29:38.000Z</time>
      </trkpt>
      <trkpt lat="42.293749" lon="-0.443154">
        <ele>1448.2</ele>
        <time>2018-07-22T06:29:39.000Z</time>
      </trkpt>
      <trkpt lat="42.293749" lon="-0.443154">
        <ele>1448.2</ele>
        <time>2018-07-22T06:29:40.000Z</time>
      </trkpt>
      <trkpt lat="42.293749" lon="-0.443154">
        <ele>1448.2</ele>
        <time>2018-07-22T06:29:41.000Z</time>
      </trkpt>
      <trkpt lat="42.293749" lon="-0.443157">
        <ele>1448.2</ele>
        <time>2018-07-22T06:29:42.000Z</time>
      </trkpt>
      <trkpt lat="42.293744" lon="-0.44317">
        <ele>1448.3</ele>
        <time>2018-07-22T06:29:43.000Z</time>
      </trkpt>
      <trkpt lat="42.293741" lon="-0.443182">
        <ele>1448.5</ele>
        <time>2018-07-22T06:29:44.000Z</time>
      </trkpt>
      <trkpt lat="42.293738" lon="-0.443192">
        <ele>1448.6</ele>
        <time>2018-07-22T06:29:45.000Z</time>
      </trkpt>
      <trkpt lat="42.293736" lon="-0.443202">
        <ele>1448.7</ele>
        <time>2018-07-22T06:29:46.000Z</time>
      </trkpt>
      <trkpt lat="42.293734" lon="-0.443212">
        <ele>1448.9</ele>
        <time>2018-07-22T06:29:47.000Z</time>
      </trkpt>
      <trkpt lat="42.293732" lon="-0.443222">
        <ele>1449.0</ele>
        <time>2018-07-22T06:29:48.000Z</time>
      </trkpt>
      <trkpt lat="42.29373" lon="-0.443232">
        <ele>1449.2</ele>
        <time>2018-07-22T06:29:49.000Z</time>
      </trkpt>
      <trkpt lat="42.293727" lon="-0.443242">
        <ele>1449.3</ele>
        <time>2018-07-22T06:29:50.000Z</time>
      </trkpt>
      <trkpt lat="42.293724" lon="-0.443252">
        <ele>1449.4</ele>
        <time>2018-07-22T06:29:51.000Z</time>
      </trkpt>
      <trkpt lat="42.293721" lon="-0.443263">
        <ele>1449.6</ele>
        <time>2018-07-22T06:29:52.000Z</time>
      </trkpt>
      <trkpt lat="42.293717" lon="-0.443274">
        <ele>1449.7</ele>
        <time>2018-07-22T06:29:53.000Z</time>
      </trkpt>
      <trkpt lat="42.293713" lon="-0.443285">
        <ele>1449.8</ele>
        <time>2018-07-22T06:29:54.000Z</time>
      </trkpt>
      <trkpt lat="42.293709" lon="-0.443296">
        <ele>1449.9</ele>
        <time>2018-07-22T06:29:55.000Z</time>
      </trkpt>
      <trkpt lat="42.293704" lon="-0.443308">
        <ele>1449.9</ele>
        <time>2018-07-22T06:29:56.000Z</time>
      </trkpt>
      <trkpt lat="42.293699" lon="-0.443319">
        <ele>1450.0</ele>
        <time>2018-07-22T06:29:57.000Z</time>
      </trkpt>
      <trkpt lat="42.293694" lon="-0.443331">
        <ele>1450.1</ele>
        <time>2018-07-22T06:29:58.000Z</time>
      </trkpt>
      <trkpt lat="42.293689" lon="-0.443343">
        <ele>1450.1</ele>
        <time>2018-07-22T06:29:59.000Z</time>
      </trkpt>
      <trkpt lat="42.293683" lon="-0.443355">
        <ele>1450.2</ele>
        <time>2018-07-22T06:30:00.000Z</time>
      </trkpt>
      <trkpt lat="42.293677" lon="-0.443366">
        <ele>1450.1</ele>
        <time>2018-07-22T06:30:01.000Z</time>
      </trkpt>
      <trkpt lat="42.293672" lon="-0.443378">
        <ele>1450.2</ele>
        <time>2018-07-22T06:30:02.000Z</time>
      </trkpt>
      <trkpt lat="42.293666" lon="-0.44339">
        <ele>1450.2</ele>
        <time>2018-07-22T06:30:03.000Z</time>
      </trkpt>
      <trkpt lat="42.293662" lon="-0.443403">
        <ele>1450.3</ele>
        <time>2018-07-22T06:30:04.000Z</time>
      </trkpt>
      <trkpt lat="42.293658" lon="-0.443415">
        <ele>1450.4</ele>
        <time>2018-07-22T06:30:05.000Z</time>
      </trkpt>
      <trkpt lat="42.293655" lon="-0.443428">
        <ele>1450.5</ele>
        <time>2018-07-22T06:30:06.000Z</time>
      </trkpt>
      <trkpt lat="42.293654" lon="-0.443441">
        <ele>1450.8</ele>
        <time>2018-07-22T06:30:07.000Z</time>
      </trkpt>
      <trkpt lat="42.293653" lon="-0.443455">
        <ele>1451.0</ele>
        <time>2018-07-22T06:30:08.000Z</time>
      </trkpt>
      <trkpt lat="42.293653" lon="-0.443468">
        <ele>1451.3</ele>
        <time>2018-07-22T06:30:09.000Z</time>
      </trkpt>
      <trkpt lat="42.293653" lon="-0.443481">
        <ele>1451.6</ele>
        <time>2018-07-22T06:30:10.000Z</time>
      </trkpt>
      <trkpt lat="42.293653" lon="-0.443494">
        <ele>1451.9</ele>
        <time>2018-07-22T06:30:11.000Z</time>
      </trkpt>
      <trkpt lat="42.293651" lon="-0.443506">
        <ele>1452.1</ele>
        <time>2018-07-22T06:30:12.000Z</time>
      </trkpt>
      <trkpt lat="42.293648" lon="-0.443517">
        <ele>1452.2</ele>
        <time>2018-07-22T06:30:13.000Z</time>
      </trkpt>
      <trkpt lat="42.293645" lon="-0.443528">
        <ele>1452.3</ele>
        <time>2018-07-22T06:30:14.000Z</time>
      </trkpt>
      <trkpt lat="42.293641" lon="-0.443539">
        <ele>1452.3</ele>
        <time>2018-07-22T06:30:15.000Z</time>
      </trkpt>
      <trkpt lat="42.293637" lon="-0.443549">
        <ele>1452.4</ele>
        <time>2018-07-22T06:30:16.000Z</time>
      </trkpt>
      <trkpt lat="42.293633" lon="-0.443559">
        <ele>1452.4</ele>
        <time>2018-07-22T06:30:17.000Z</time>
      </trkpt>
      <trkpt lat="42.293629" lon="-0.443569">
        <ele>1452.4</ele>
        <time>2018-07-22T06:30:18.000Z</time>
      </trkpt>
      <trkpt lat="42.293626" lon="-0.443578">
        <ele>1452.5</ele>
        <time>2018-07-22T06:30:19.000Z</time>
      </trkpt>
      <trkpt lat="42.293623" lon="-0.443588">
        <ele>1452.6</ele>
        <time>2018-07-22T06:30:20.000Z</time>
      </trkpt>
      <trkpt lat="42.293621" lon="-0.443597">
        <ele>1452.7</ele>
        <time>2018-07-22T06:30:21.000Z</time>
      </trkpt>
      <trkpt lat="42.29362" lon="-0.443607">
        <ele>1452.9</ele>
        <time>2018-07-22T06:30:22.000Z</time>
      </trkpt>
      <trkpt lat="42.29362" lon="-0.443616">
        <ele>1453.1</ele>
        <time>2018-07-22T06:30:23.000Z</time>
      </trkpt>
      <trkpt lat="42.29362" lon="-0.443626">
        <ele>1453.3</ele>
        <time>2018-07-22T06:30:24.000Z</time>
      </trkpt>
      <trkpt lat="42.29362" lon="-0.443636">
        <ele>1453.5</ele>
        <time>2018-07-22T06:30:25.000Z</time>
      </trkpt>
      <trkpt lat="42.29362" lon="-0.443646">
        <ele>1453.7</ele>
        <time>2018-07-22T06:30:26.000Z</time>
      </trkpt>
      <trkpt lat="42.293619" lon="-0.443656">
        <ele>1453.9</ele>
        <time>2018-07-22T06:30:27.000Z</time>
      </trkpt>
      <trkpt lat="42.293618" lon="-0.443666">
        <ele>1454.0</ele>
        <time>2018-07-22T06:30:28.000Z</time>
      </trkpt>
      <trkpt lat="42.293616" lon="-0.443676">
        <ele>1454.1</ele>
        <time>2018-07-22T06:30:29.000Z</time>
      </trkpt>
      <trkpt lat="42.293614" lon="-0.443686">
        <ele>1454.3</ele>
        <time>2018-07-22T06:30:30.000Z</time>
      </trkpt>
      <trkpt lat="42.293613" lon="-0.443696">
        <ele>1454.4</ele>
        <time>2018-07-22T06:30:31.000Z</time>
      </trkpt>
      <trkpt lat="42.293612" lon="-0.443705">
        <ele>1454.6</ele>
        <time>2018-07-22T06:30:32.000Z</time>
      </trkpt>
      <trkpt lat="42.293612" lon="-0.443714">
        <ele>1454.8</ele>
        <time>2018-07-22T06:30:33.000Z</time>
      </trkpt>
      <trkpt lat="42.293612" lon="-0.443722">
        <ele>1454.9</ele>
        <time>2018-07-22T06:30:34.000Z</time>
      </trkpt>
      <trkpt lat="42.293611" lon="-0.443731">
        <ele>1455.1</ele>
        <time>2018-07-22T06:30:35.000Z</time>
      </trkpt>
      <trkpt lat="42.293608" lon="-0.44374">
        <ele>1455.1</ele>
        <time>2018-07-22T06:30:36.000Z</time>
      </trkpt>
      <trkpt lat="42.293604" lon="-0.443749">
        <ele>1455.2</ele>
        <time>2018-07-22T06:30:37.000Z</time>
      </trkpt>
      <trkpt lat="42.293601" lon="-0.443757">
        <ele>1455.2</ele>
        <time>2018-07-22T06:30:38.000Z</time>
      </trkpt>
      <trkpt lat="42.2936" lon="-0.443765">
        <ele>1455.3</ele>
        <time>2018-07-22T06:30:39.000Z</time>
      </trkpt>
      <trkpt lat="42.293599" lon="-0.443771">
        <ele>1455.4</ele>
        <time>2018-07-22T06:30:40.000Z</time>
      </trkpt>
      <trkpt lat="42.2936" lon="-0.443776">
        <ele>1455.5</ele>
        <time>2018-07-22T06:30:41.000Z</time>
      </trkpt>
      <trkpt lat="42.2936" lon="-0.443781">
        <ele>1455.7</ele>
        <time>2018-07-22T06:30:42.000Z</time>
      </trkpt>
      <trkpt lat="42.2936" lon="-0.443784">
        <ele>1455.7</ele>
        <time>2018-07-22T06:30:43.000Z</time>
      </trkpt>
      <trkpt lat="42.293599" lon="-0.443787">
        <ele>1455.7</ele>
        <time>2018-07-22T06:30:44.000Z</time>
      </trkpt>
      <trkpt lat="42.2936" lon="-0.443791">
        <ele>1455.9</ele>
        <time>2018-07-22T06:30:45.000Z</time>
      </trkpt>
      <trkpt lat="42.293597" lon="-0.443801">
        <ele>1455.9</ele>
        <time>2018-07-22T06:30:46.000Z</time>
      </trkpt>
      <trkpt lat="42.293593" lon="-0.44381">
        <ele>1455.9</ele>
        <time>2018-07-22T06:30:47.000Z</time>
      </trkpt>
      <trkpt lat="42.29359" lon="-0.443817">
        <ele>1456.0</ele>
        <time>2018-07-22T06:30:48.000Z</time>
      </trkpt>
      <trkpt lat="42.293588" lon="-0.443823">
        <ele>1456.0</ele>
        <time>2018-07-22T06:30:49.000Z</time>
      </trkpt>
      <trkpt lat="42.293584" lon="-0.443829">
        <ele>1455.9</ele>
        <time>2018-07-22T06:30:50.000Z</time>
      </trkpt>
      <trkpt lat="42.293578" lon="-0.443837">
        <ele>1455.8</ele>
        <time>2018-07-22T06:30:51.000Z</time>
      </trkpt>
      <trkpt lat="42.293572" lon="-0.443845">
        <ele>1455.7</ele>
        <time>2018-07-22T06:30:52.000Z</time>
      </trkpt>
      <trkpt lat="42.293565" lon="-0.443855">
        <ele>1455.6</ele>
        <time>2018-07-22T06:30:53.000Z</time>
      </trkpt>
      <trkpt lat="42.293559" lon="-0.443865">
        <ele>1455.5</ele>
        <time>2018-07-22T06:30:54.000Z</time>
      </trkpt>
      <trkpt lat="42.293555" lon="-0.443875">
        <ele>1455.6</ele>
        <time>2018-07-22T06:30:55.000Z</time>
      </trkpt>
      <trkpt lat="42.293551" lon="-0.443886">
        <ele>1455.6</ele>
        <time>2018-07-22T06:30:56.000Z</time>
      </trkpt>
      <trkpt lat="42.293549" lon="-0.443897">
        <ele>1455.8</ele>
        <time>2018-07-22T06:30:57.000Z</time>
      </trkpt>
      <trkpt lat="42.293547" lon="-0.443907">
        <ele>1455.9</ele>
        <time>2018-07-22T06:30:58.000Z</time>
      </trkpt>
      <trkpt lat="42.293546" lon="-0.443916">
        <ele>1456.0</ele>
        <time>2018-07-22T06:30:59.000Z</time>
      </trkpt>
      <trkpt lat="42.293546" lon="-0.443923">
        <ele>1456.2</ele>
        <time>2018-07-22T06:31:00.000Z</time>
      </trkpt>
      <trkpt lat="42.293546" lon="-0.443929">
        <ele>1456.3</ele>
        <time>2018-07-22T06:31:01.000Z</time>
      </trkpt>
      <trkpt lat="42.293546" lon="-0.443933">
        <ele>1456.4</ele>
        <time>2018-07-22T06:31:02.000Z</time>
      </trkpt>
      <trkpt lat="42.293546" lon="-0.443936">
        <ele>1456.4</ele>
        <time>2018-07-22T06:31:03.000Z</time>
      </trkpt>
      <trkpt lat="42.293546" lon="-0.443938">
        <ele>1456.5</ele>
        <time>2018-07-22T06:31:04.000Z</time>
      </trkpt>
      <trkpt lat="42.293546" lon="-0.44394">
        <ele>1456.5</ele>
        <time>2018-07-22T06:31:05.000Z</time>
      </trkpt>
      <trkpt lat="42.293546" lon="-0.443942">
        <ele>1456.6</ele>
        <time>2018-07-22T06:31:06.000Z</time>
      </trkpt>
      <trkpt lat="42.293545" lon="-0.443944">
        <ele>1456.5</ele>
        <time>2018-07-22T06:31:07.000Z</time>
      </trkpt>
      <trkpt lat="42.293545" lon="-0.443946">
        <ele>1456.6</ele>
        <time>2018-07-22T06:31:08.000Z</time>
      </trkpt>
      <trkpt lat="42.293544" lon="-0.443947">
        <ele>1456.6</ele>
        <time>2018-07-22T06:31:09.000Z</time>
      </trkpt>
      <trkpt lat="42.293544" lon="-0.443948">
        <ele>1456.6</ele>
        <time>2018-07-22T06:31:10.000Z</time>
      </trkpt>
      <trkpt lat="42.293543" lon="-0.443949">
        <ele>1456.6</ele>
        <time>2018-07-22T06:31:11.000Z</time>
      </trkpt>
      <trkpt lat="42.293543" lon="-0.443949">
        <ele>1456.6</ele>
        <time>2018-07-22T06:31:12.000Z</time>
      </trkpt>
      <trkpt lat="42.293543" lon="-0.443949">
        <ele>1456.6</ele>
        <time>2018-07-22T06:31:13.000Z</time>
      </trkpt>
      <trkpt lat="42.293543" lon="-0.44395">
        <ele>1456.6</ele>
        <time>2018-07-22T06:31:14.000Z</time>
      </trkpt>
      <trkpt lat="42.293542" lon="-0.443951">
        <ele>1456.6</ele>
        <time>2018-07-22T06:31:15.000Z</time>
      </trkpt>
      <trkpt lat="42.293542" lon="-0.443954">
        <ele>1456.6</ele>
        <time>2018-07-22T06:31:16.000Z</time>
      </trkpt>
      <trkpt lat="42.293542" lon="-0.44396">
        <ele>1456.7</ele>
        <time>2018-07-22T06:31:17.000Z</time>
      </trkpt>
      <trkpt lat="42.293539" lon="-0.44397">
        <ele>1456.8</ele>
        <time>2018-07-22T06:31:18.000Z</time>
      </trkpt>
      <trkpt lat="42.293537" lon="-0.443978">
        <ele>1456.9</ele>
        <time>2018-07-22T06:31:19.000Z</time>
      </trkpt>
      <trkpt lat="42.293534" lon="-0.443983">
        <ele>1456.8</ele>
        <time>2018-07-22T06:31:20.000Z</time>
      </trkpt>
      <trkpt lat="42.293533" lon="-0.443988">
        <ele>1456.9</ele>
        <time>2018-07-22T06:31:21.000Z</time>
      </trkpt>
      <trkpt lat="42.293532" lon="-0.443991">
        <ele>1456.9</ele>
        <time>2018-07-22T06:31:22.000Z</time>
      </trkpt>
      <trkpt lat="42.293534" lon="-0.443992">
        <ele>1457.0</ele>
        <time>2018-07-22T06:31:23.000Z</time>
      </trkpt>
      <trkpt lat="42.293537" lon="-0.443992">
        <ele>1457.2</ele>
        <time>2018-07-22T06:31:24.000Z</time>
      </trkpt>
      <trkpt lat="42.293542" lon="-0.443991">
        <ele>1457.4</ele>
        <time>2018-07-22T06:31:25.000Z</time>
      </trkpt>
      <trkpt lat="42.293546" lon="-0.44399">
        <ele>1457.5</ele>
        <time>2018-07-22T06:31:26.000Z</time>
      </trkpt>
      <trkpt lat="42.293551" lon="-0.443988">
        <ele>1457.7</ele>
        <time>2018-07-22T06:31:27.000Z</time>
      </trkpt>
      <trkpt lat="42.293555" lon="-0.443987">
        <ele>1457.9</ele>
        <time>2018-07-22T06:31:28.000Z</time>
      </trkpt>
      <trkpt lat="42.293558" lon="-0.443986">
        <ele>1458.0</ele>
        <time>2018-07-22T06:31:29.000Z</time>
      </trkpt>
      <trkpt lat="42.293561" lon="-0.443985">
        <ele>1458.1</ele>
        <time>2018-07-22T06:31:30.000Z</time>
      </trkpt>
      <trkpt lat="42.293563" lon="-0.443984">
        <ele>1458.2</ele>
        <time>2018-07-22T06:31:31.000Z</time>
      </trkpt>
      <trkpt lat="42.293565" lon="-0.443984">
        <ele>1458.3</ele>
        <time>2018-07-22T06:31:32.000Z</time>
      </trkpt>
      <trkpt lat="42.293566" lon="-0.443983">
        <ele>1458.3</ele>
        <time>2018-07-22T06:31:33.000Z</time>
      </trkpt>
      <trkpt lat="42.293567" lon="-0.443983">
        <ele>1458.4</ele>
        <time>2018-07-22T06:31:34.000Z</time>
      </trkpt>
      <trkpt lat="42.293568" lon="-0.443982">
        <ele>1458.4</ele>
        <time>2018-07-22T06:31:35.000Z</time>
      </trkpt>
      <trkpt lat="42.293569" lon="-0.443982">
        <ele>1458.5</ele>
        <time>2018-07-22T06:31:36.000Z</time>
      </trkpt>
      <trkpt lat="42.293569" lon="-0.443982">
        <ele>1458.5</ele>
        <time>2018-07-22T06:31:37.000Z</time>
      </trkpt>
      <trkpt lat="42.29357" lon="-0.443982">
        <ele>1458.5</ele>
        <time>2018-07-22T06:31:38.000Z</time>
      </trkpt>
      <trkpt lat="42.293571" lon="-0.443982">
        <ele>1458.5</ele>
        <time>2018-07-22T06:31:39.000Z</time>
      </trkpt>
      <trkpt lat="42.293572" lon="-0.443982">
        <ele>1458.6</ele>
        <time>2018-07-22T06:31:40.000Z</time>
      </trkpt>
      <trkpt lat="42.293573" lon="-0.443981">
        <ele>1458.6</ele>
        <time>2018-07-22T06:31:41.000Z</time>
      </trkpt>
      <trkpt lat="42.293573" lon="-0.443981">
        <ele>1458.6</ele>
        <time>2018-07-22T06:31:42.000Z</time>
      </trkpt>
      <trkpt lat="42.293574" lon="-0.443981">
        <ele>1458.7</ele>
        <time>2018-07-22T06:31:43.000Z</time>
      </trkpt>
      <trkpt lat="42.293574" lon="-0.443981">
        <ele>1458.7</ele>
        <time>2018-07-22T06:31:44.000Z</time>
      </trkpt>
      <trkpt lat="42.293574" lon="-0.443981">
        <ele>1458.7</ele>
        <time>2018-07-22T06:31:45.000Z</time>
      </trkpt>
      <trkpt lat="42.293574" lon="-0.443981">
        <ele>1458.7</ele>
        <time>2018-07-22T06:31:46.000Z</time>
      </trkpt>
      <trkpt lat="42.293574" lon="-0.443981">
        <ele>1458.7</ele>
        <time>2018-07-22T06:31:47.000Z</time>
      </trkpt>
      <trkpt lat="42.293575" lon="-0.443981">
        <ele>1458.7</ele>
        <time>2018-07-22T06:31:48.000Z</time>
      </trkpt>
      <trkpt lat="42.293583" lon="-0.443979">
        <ele>1459.0</ele>
        <time>2018-07-22T06:31:49.000Z</time>
      </trkpt>
      <trkpt lat="42.29359" lon="-0.443978">
        <ele>1459.3</ele>
        <time>2018-07-22T06:31:50.000Z</time>
      </trkpt>
      <trkpt lat="42.293591" lon="-0.443975">
        <ele>1459.3</ele>
        <time>2018-07-22T06:31:51.000Z</time>
      </trkpt>
      <trkpt lat="42.293594" lon="-0.443975">
        <ele>1459.5</ele>
        <time>2018-07-22T06:31:52.000Z</time>
      </trkpt>
      <trkpt lat="42.2936" lon="-0.443977">
        <ele>1459.8</ele>
        <time>2018-07-22T06:31:53.000Z</time>
      </trkpt>
      <trkpt lat="42.293606" lon="-0.44398">
        <ele>1460.1</ele>
        <time>2018-07-22T06:31:54.000Z</time>
      </trkpt>
      <trkpt lat="42.293611" lon="-0.443982">
        <ele>1460.4</ele>
        <time>2018-07-22T06:31:55.000Z</time>
      </trkpt>
      <trkpt lat="42.293615" lon="-0.443984">
        <ele>1460.6</ele>
        <time>2018-07-22T06:31:56.000Z</time>
      </trkpt>
      <trkpt lat="42.293617" lon="-0.443985">
        <ele>1460.8</ele>
        <time>2018-07-22T06:31:57.000Z</time>
      </trkpt>
      <trkpt lat="42.29362" lon="-0.443985">
        <ele>1460.9</ele>
        <time>2018-07-22T06:31:58.000Z</time>
      </trkpt>
      <trkpt lat="42.293622" lon="-0.443984">
        <ele>1461.0</ele>
        <time>2018-07-22T06:31:59.000Z</time>
      </trkpt>
      <trkpt lat="42.293624" lon="-0.443982">
        <ele>1461.0</ele>
        <time>2018-07-22T06:32:00.000Z</time>
      </trkpt>
      <trkpt lat="42.293624" lon="-0.443981">
        <ele>1461.0</ele>
        <time>2018-07-22T06:32:01.000Z</time>
      </trkpt>
      <trkpt lat="42.293619" lon="-0.443982">
        <ele>1460.8</ele>
        <time>2018-07-22T06:32:02.000Z</time>
      </trkpt>
      <trkpt lat="42.293614" lon="-0.443984">
        <ele>1460.6</ele>
        <time>2018-07-22T06:32:03.000Z</time>
      </trkpt>
      <trkpt lat="42.293608" lon="-0.443985">
        <ele>1460.3</ele>
        <time>2018-07-22T06:32:04.000Z</time>
      </trkpt>
      <trkpt lat="42.293602" lon="-0.443987">
        <ele>1460.1</ele>
        <time>2018-07-22T06:32:05.000Z</time>
      </trkpt>
      <trkpt lat="42.293598" lon="-0.443988">
        <ele>1459.9</ele>
        <time>2018-07-22T06:32:06.000Z</time>
      </trkpt>
      <trkpt lat="42.293595" lon="-0.443988">
        <ele>1459.8</ele>
        <time>2018-07-22T06:32:07.000Z</time>
      </trkpt>
      <trkpt lat="42.293592" lon="-0.443989">
        <ele>1459.7</ele>
        <time>2018-07-22T06:32:08.000Z</time>
      </trkpt>
      <trkpt lat="42.29359" lon="-0.443989">
        <ele>1459.6</ele>
        <time>2018-07-22T06:32:09.000Z</time>
      </trkpt>
      <trkpt lat="42.293589" lon="-0.44399">
        <ele>1459.6</ele>
        <time>2018-07-22T06:32:10.000Z</time>
      </trkpt>
      <trkpt lat="42.293587" lon="-0.44399">
        <ele>1459.5</ele>
        <time>2018-07-22T06:32:11.000Z</time>
      </trkpt>
      <trkpt lat="42.293585" lon="-0.44399">
        <ele>1459.4</ele>
        <time>2018-07-22T06:32:12.000Z</time>
      </trkpt>
      <trkpt lat="42.293583" lon="-0.443991">
        <ele>1459.3</ele>
        <time>2018-07-22T06:32:13.000Z</time>
      </trkpt>
      <trkpt lat="42.29358" lon="-0.443991">
        <ele>1459.2</ele>
        <time>2018-07-22T06:32:14.000Z</time>
      </trkpt>
      <trkpt lat="42.293577" lon="-0.443992">
        <ele>1459.0</ele>
        <time>2018-07-22T06:32:15.000Z</time>
      </trkpt>
      <trkpt lat="42.293575" lon="-0.443992">
        <ele>1458.9</ele>
        <time>2018-07-22T06:32:16.000Z</time>
      </trkpt>
      <trkpt lat="42.293567" lon="-0.443992">
        <ele>1458.6</ele>
        <time>2018-07-22T06:32:17.000Z</time>
      </trkpt>
      <trkpt lat="42.293558" lon="-0.443995">
        <ele>1458.2</ele>
        <time>2018-07-22T06:32:18.000Z</time>
      </trkpt>
      <trkpt lat="42.293544" lon="-0.443999">
        <ele>1457.6</ele>
        <time>2018-07-22T06:32:19.000Z</time>
      </trkpt>
      <trkpt lat="42.293537" lon="-0.444008">
        <ele>1457.5</ele>
        <time>2018-07-22T06:32:20.000Z</time>
      </trkpt>
      <trkpt lat="42.293533" lon="-0.444019">
        <ele>1457.5</ele>
        <time>2018-07-22T06:32:21.000Z</time>
      </trkpt>
      <trkpt lat="42.29353" lon="-0.44403">
        <ele>1457.6</ele>
        <time>2018-07-22T06:32:22.000Z</time>
      </trkpt>
      <trkpt lat="42.293526" lon="-0.444041">
        <ele>1457.7</ele>
        <time>2018-07-22T06:32:23.000Z</time>
      </trkpt>
      <trkpt lat="42.293523" lon="-0.444051">
        <ele>1457.7</ele>
        <time>2018-07-22T06:32:24.000Z</time>
      </trkpt>
      <trkpt lat="42.293518" lon="-0.444061">
        <ele>1457.7</ele>
        <time>2018-07-22T06:32:25.000Z</time>
      </trkpt>
      <trkpt lat="42.293514" lon="-0.44407">
        <ele>1457.7</ele>
        <time>2018-07-22T06:32:26.000Z</time>
      </trkpt>
      <trkpt lat="42.293509" lon="-0.44408">
        <ele>1457.7</ele>
        <time>2018-07-22T06:32:27.000Z</time>
      </trkpt>
      <trkpt lat="42.293504" lon="-0.444089">
        <ele>1457.6</ele>
        <time>2018-07-22T06:32:28.000Z</time>
      </trkpt>
      <trkpt lat="42.293499" lon="-0.444099">
        <ele>1457.6</ele>
        <time>2018-07-22T06:32:29.000Z</time>
      </trkpt>
      <trkpt lat="42.293494" lon="-0.444109">
        <ele>1457.5</ele>
        <time>2018-07-22T06:32:30.000Z</time>
      </trkpt>
      <trkpt lat="42.293489" lon="-0.444119">
        <ele>1457.5</ele>
        <time>2018-07-22T06:32:31.000Z</time>
      </trkpt>
      <trkpt lat="42.293484" lon="-0.444129">
        <ele>1457.5</ele>
        <time>2018-07-22T06:32:32.000Z</time>
      </trkpt>
      <trkpt lat="42.29348" lon="-0.444139">
        <ele>1457.5</ele>
        <time>2018-07-22T06:32:33.000Z</time>
      </trkpt>
      <trkpt lat="42.293475" lon="-0.44415">
        <ele>1457.5</ele>
        <time>2018-07-22T06:32:34.000Z</time>
      </trkpt>
      <trkpt lat="42.293471" lon="-0.444161">
        <ele>1457.5</ele>
        <time>2018-07-22T06:32:35.000Z</time>
      </trkpt>
      <trkpt lat="42.293467" lon="-0.444172">
        <ele>1457.6</ele>
        <time>2018-07-22T06:32:36.000Z</time>
      </trkpt>
      <trkpt lat="42.293464" lon="-0.444182">
        <ele>1457.7</ele>
        <time>2018-07-22T06:32:37.000Z</time>
      </trkpt>
      <trkpt lat="42.293461" lon="-0.444193">
        <ele>1457.9</ele>
        <time>2018-07-22T06:32:38.000Z</time>
      </trkpt>
      <trkpt lat="42.293458" lon="-0.444203">
        <ele>1458.1</ele>
        <time>2018-07-22T06:32:39.000Z</time>
      </trkpt>
      <trkpt lat="42.293456" lon="-0.444213">
        <ele>1458.3</ele>
        <time>2018-07-22T06:32:40.000Z</time>
      </trkpt>
      <trkpt lat="42.293455" lon="-0.444223">
        <ele>1458.5</ele>
        <time>2018-07-22T06:32:41.000Z</time>
      </trkpt>
      <trkpt lat="42.293454" lon="-0.444232">
        <ele>1458.7</ele>
        <time>2018-07-22T06:32:42.000Z</time>
      </trkpt>
      <trkpt lat="42.293454" lon="-0.44424">
        <ele>1459.0</ele>
        <time>2018-07-22T06:32:43.000Z</time>
      </trkpt>
      <trkpt lat="42.293454" lon="-0.444248">
        <ele>1459.2</ele>
        <time>2018-07-22T06:32:44.000Z</time>
      </trkpt>
      <trkpt lat="42.293455" lon="-0.444255">
        <ele>1459.4</ele>
        <time>2018-07-22T06:32:45.000Z</time>
      </trkpt>
      <trkpt lat="42.293456" lon="-0.444261">
        <ele>1459.7</ele>
        <time>2018-07-22T06:32:46.000Z</time>
      </trkpt>
      <trkpt lat="42.293457" lon="-0.444267">
        <ele>1459.9</ele>
        <time>2018-07-22T06:32:47.000Z</time>
      </trkpt>
      <trkpt lat="42.293458" lon="-0.444272">
        <ele>1460.1</ele>
        <time>2018-07-22T06:32:48.000Z</time>
      </trkpt>
      <trkpt lat="42.293459" lon="-0.444275">
        <ele>1460.2</ele>
        <time>2018-07-22T06:32:49.000Z</time>
      </trkpt>
      <trkpt lat="42.29346" lon="-0.444278">
        <ele>1460.4</ele>
        <time>2018-07-22T06:32:50.000Z</time>
      </trkpt>
      <trkpt lat="42.29346" lon="-0.444282">
        <ele>1460.5</ele>
        <time>2018-07-22T06:32:51.000Z</time>
      </trkpt>
      <trkpt lat="42.293461" lon="-0.444293">
        <ele>1460.8</ele>
        <time>2018-07-22T06:32:52.000Z</time>
      </trkpt>
      <trkpt lat="42.29346" lon="-0.444302">
        <ele>1461.1</ele>
        <time>2018-07-22T06:32:53.000Z</time>
      </trkpt>
      <trkpt lat="42.293458" lon="-0.444313">
        <ele>1461.3</ele>
        <time>2018-07-22T06:32:54.000Z</time>
      </trkpt>
      <trkpt lat="42.293455" lon="-0.444324">
        <ele>1461.5</ele>
        <time>2018-07-22T06:32:55.000Z</time>
      </trkpt>
      <trkpt lat="42.293451" lon="-0.444334">
        <ele>1461.6</ele>
        <time>2018-07-22T06:32:56.000Z</time>
      </trkpt>
      <trkpt lat="42.293446" lon="-0.44434">
        <ele>1461.5</ele>
        <time>2018-07-22T06:32:57.000Z</time>
      </trkpt>
      <trkpt lat="42.293441" lon="-0.444345">
        <ele>1461.4</ele>
        <time>2018-07-22T06:32:58.000Z</time>
      </trkpt>
      <trkpt lat="42.293436" lon="-0.44435">
        <ele>1461.3</ele>
        <time>2018-07-22T06:32:59.000Z</time>
      </trkpt>
      <trkpt lat="42.293431" lon="-0.444355">
        <ele>1461.3</ele>
        <time>2018-07-22T06:33:00.000Z</time>
      </trkpt>
      <trkpt lat="42.293427" lon="-0.444361">
        <ele>1461.2</ele>
        <time>2018-07-22T06:33:01.000Z</time>
      </trkpt>
      <trkpt lat="42.293423" lon="-0.444369">
        <ele>1461.3</ele>
        <time>2018-07-22T06:33:02.000Z</time>
      </trkpt>
      <trkpt lat="42.293419" lon="-0.444377">
        <ele>1461.3</ele>
        <time>2018-07-22T06:33:03.000Z</time>
      </trkpt>
      <trkpt lat="42.293415" lon="-0.444385">
        <ele>1461.4</ele>
        <time>2018-07-22T06:33:04.000Z</time>
      </trkpt>
      <trkpt lat="42.293412" lon="-0.444394">
        <ele>1461.5</ele>
        <time>2018-07-22T06:33:05.000Z</time>
      </trkpt>
      <trkpt lat="42.293409" lon="-0.444403">
        <ele>1461.6</ele>
        <time>2018-07-22T06:33:06.000Z</time>
      </trkpt>
      <trkpt lat="42.293405" lon="-0.444412">
        <ele>1461.7</ele>
        <time>2018-07-22T06:33:07.000Z</time>
      </trkpt>
      <trkpt lat="42.293402" lon="-0.444421">
        <ele>1461.9</ele>
        <time>2018-07-22T06:33:08.000Z</time>
      </trkpt>
      <trkpt lat="42.293397" lon="-0.444429">
        <ele>1461.9</ele>
        <time>2018-07-22T06:33:09.000Z</time>
      </trkpt>
      <trkpt lat="42.293392" lon="-0.444437">
        <ele>1461.9</ele>
        <time>2018-07-22T06:33:10.000Z</time>
      </trkpt>
      <trkpt lat="42.293386" lon="-0.444444">
        <ele>1461.8</ele>
        <time>2018-07-22T06:33:11.000Z</time>
      </trkpt>
      <trkpt lat="42.29338" lon="-0.444452">
        <ele>1461.7</ele>
        <time>2018-07-22T06:33:12.000Z</time>
      </trkpt>
      <trkpt lat="42.293375" lon="-0.44446">
        <ele>1461.7</ele>
        <time>2018-07-22T06:33:13.000Z</time>
      </trkpt>
      <trkpt lat="42.293369" lon="-0.444469">
        <ele>1461.7</ele>
        <time>2018-07-22T06:33:14.000Z</time>
      </trkpt>
      <trkpt lat="42.293364" lon="-0.444479">
        <ele>1461.8</ele>
        <time>2018-07-22T06:33:15.000Z</time>
      </trkpt>
      <trkpt lat="42.29336" lon="-0.44449">
        <ele>1461.9</ele>
        <time>2018-07-22T06:33:16.000Z</time>
      </trkpt>
      <trkpt lat="42.293357" lon="-0.444501">
        <ele>1462.1</ele>
        <time>2018-07-22T06:33:17.000Z</time>
      </trkpt>
      <trkpt lat="42.293353" lon="-0.44451">
        <ele>1462.2</ele>
        <time>2018-07-22T06:33:18.000Z</time>
      </trkpt>
      <trkpt lat="42.29335" lon="-0.444519">
        <ele>1462.3</ele>
        <time>2018-07-22T06:33:19.000Z</time>
      </trkpt>
      <trkpt lat="42.293347" lon="-0.444526">
        <ele>1462.4</ele>
        <time>2018-07-22T06:33:20.000Z</time>
      </trkpt>
      <trkpt lat="42.293343" lon="-0.444531">
        <ele>1462.4</ele>
        <time>2018-07-22T06:33:21.000Z</time>
      </trkpt>
      <trkpt lat="42.293339" lon="-0.444535">
        <ele>1462.3</ele>
        <time>2018-07-22T06:33:22.000Z</time>
      </trkpt>
      <trkpt lat="42.293332" lon="-0.44454">
        <ele>1462.1</ele>
        <time>2018-07-22T06:33:23.000Z</time>
      </trkpt>
      <trkpt lat="42.293323" lon="-0.444549">
        <ele>1461.8</ele>
        <time>2018-07-22T06:33:24.000Z</time>
      </trkpt>
      <trkpt lat="42.293313" lon="-0.444559">
        <ele>1461.5</ele>
        <time>2018-07-22T06:33:25.000Z</time>
      </trkpt>
      <trkpt lat="42.293305" lon="-0.44457">
        <ele>1461.4</ele>
        <time>2018-07-22T06:33:26.000Z</time>
      </trkpt>
      <trkpt lat="42.293299" lon="-0.44458">
        <ele>1461.3</ele>
        <time>2018-07-22T06:33:27.000Z</time>
      </trkpt>
      <trkpt lat="42.293295" lon="-0.444591">
        <ele>1461.4</ele>
        <time>2018-07-22T06:33:28.000Z</time>
      </trkpt>
      <trkpt lat="42.293291" lon="-0.444602">
        <ele>1461.5</ele>
        <time>2018-07-22T06:33:29.000Z</time>
      </trkpt>
      <trkpt lat="42.293288" lon="-0.444613">
        <ele>1461.6</ele>
        <time>2018-07-22T06:33:30.000Z</time>
      </trkpt>
      <trkpt lat="42.293284" lon="-0.444623">
        <ele>1461.7</ele>
        <time>2018-07-22T06:33:31.000Z</time>
      </trkpt>
      <trkpt lat="42.29328" lon="-0.444632">
        <ele>1461.7</ele>
        <time>2018-07-22T06:33:32.000Z</time>
      </trkpt>
      <trkpt lat="42.293275" lon="-0.444641">
        <ele>1461.7</ele>
        <time>2018-07-22T06:33:33.000Z</time>
      </trkpt>
      <trkpt lat="42.293269" lon="-0.44465">
        <ele>1461.6</ele>
        <time>2018-07-22T06:33:34.000Z</time>
      </trkpt>
      <trkpt lat="42.293262" lon="-0.444657">
        <ele>1461.4</ele>
        <time>2018-07-22T06:33:35.000Z</time>
      </trkpt>
      <trkpt lat="42.293254" lon="-0.444664">
        <ele>1461.1</ele>
        <time>2018-07-22T06:33:36.000Z</time>
      </trkpt>
      <trkpt lat="42.293245" lon="-0.44467">
        <ele>1460.7</ele>
        <time>2018-07-22T06:33:37.000Z</time>
      </trkpt>
      <trkpt lat="42.293236" lon="-0.444676">
        <ele>1460.3</ele>
        <time>2018-07-22T06:33:38.000Z</time>
      </trkpt>
      <trkpt lat="42.293227" lon="-0.444681">
        <ele>1459.9</ele>
        <time>2018-07-22T06:33:39.000Z</time>
      </trkpt>
      <trkpt lat="42.293219" lon="-0.444687">
        <ele>1459.6</ele>
        <time>2018-07-22T06:33:40.000Z</time>
      </trkpt>
      <trkpt lat="42.293212" lon="-0.444693">
        <ele>1459.4</ele>
        <time>2018-07-22T06:33:41.000Z</time>
      </trkpt>
      <trkpt lat="42.293206" lon="-0.444701">
        <ele>1459.2</ele>
        <time>2018-07-22T06:33:42.000Z</time>
      </trkpt>
      <trkpt lat="42.293202" lon="-0.44471">
        <ele>1459.3</ele>
        <time>2018-07-22T06:33:43.000Z</time>
      </trkpt>
      <trkpt lat="42.2932" lon="-0.444719">
        <ele>1459.4</ele>
        <time>2018-07-22T06:33:44.000Z</time>
      </trkpt>
      <trkpt lat="42.293199" lon="-0.444728">
        <ele>1459.6</ele>
        <time>2018-07-22T06:33:45.000Z</time>
      </trkpt>
      <trkpt lat="42.293199" lon="-0.444736">
        <ele>1459.9</ele>
        <time>2018-07-22T06:33:46.000Z</time>
      </trkpt>
      <trkpt lat="42.293199" lon="-0.444743">
        <ele>1460.1</ele>
        <time>2018-07-22T06:33:47.000Z</time>
      </trkpt>
      <trkpt lat="42.293198" lon="-0.444747">
        <ele>1460.1</ele>
        <time>2018-07-22T06:33:48.000Z</time>
      </trkpt>
      <trkpt lat="42.293197" lon="-0.44475">
        <ele>1460.1</ele>
        <time>2018-07-22T06:33:49.000Z</time>
      </trkpt>
      <trkpt lat="42.293197" lon="-0.444753">
        <ele>1460.2</ele>
        <time>2018-07-22T06:33:50.000Z</time>
      </trkpt>
      <trkpt lat="42.293198" lon="-0.444757">
        <ele>1460.4</ele>
        <time>2018-07-22T06:33:51.000Z</time>
      </trkpt>
      <trkpt lat="42.293199" lon="-0.444761">
        <ele>1460.6</ele>
        <time>2018-07-22T06:33:52.000Z</time>
      </trkpt>
      <trkpt lat="42.293199" lon="-0.444765">
        <ele>1460.7</ele>
        <time>2018-07-22T06:33:53.000Z</time>
      </trkpt>
      <trkpt lat="42.293199" lon="-0.444775">
        <ele>1461.0</ele>
        <time>2018-07-22T06:33:54.000Z</time>
      </trkpt>
      <trkpt lat="42.293199" lon="-0.444783">
        <ele>1461.2</ele>
        <time>2018-07-22T06:33:55.000Z</time>
      </trkpt>
      <trkpt lat="42.293199" lon="-0.44479">
        <ele>1461.4</ele>
        <time>2018-07-22T06:33:56.000Z</time>
      </trkpt>
      <trkpt lat="42.293198" lon="-0.444798">
        <ele>1461.6</ele>
        <time>2018-07-22T06:33:57.000Z</time>
      </trkpt>
      <trkpt lat="42.293196" lon="-0.444806">
        <ele>1461.7</ele>
        <time>2018-07-22T06:33:58.000Z</time>
      </trkpt>
      <trkpt lat="42.293197" lon="-0.444809">
        <ele>1461.9</ele>
        <time>2018-07-22T06:33:59.000Z</time>
      </trkpt>
      <trkpt lat="42.293196" lon="-0.444814">
        <ele>1462.0</ele>
        <time>2018-07-22T06:34:00.000Z</time>
      </trkpt>
      <trkpt lat="42.293193" lon="-0.444825">
        <ele>1462.1</ele>
        <time>2018-07-22T06:34:01.000Z</time>
      </trkpt>
      <trkpt lat="42.29319" lon="-0.444834">
        <ele>1462.2</ele>
        <time>2018-07-22T06:34:02.000Z</time>
      </trkpt>
      <trkpt lat="42.293186" lon="-0.444841">
        <ele>1462.1</ele>
        <time>2018-07-22T06:34:03.000Z</time>
      </trkpt>
      <trkpt lat="42.293183" lon="-0.444846">
        <ele>1462.1</ele>
        <time>2018-07-22T06:34:04.000Z</time>
      </trkpt>
      <trkpt lat="42.293179" lon="-0.444853">
        <ele>1462.1</ele>
        <time>2018-07-22T06:34:05.000Z</time>
      </trkpt>
      <trkpt lat="42.293175" lon="-0.444861">
        <ele>1462.0</ele>
        <time>2018-07-22T06:34:06.000Z</time>
      </trkpt>
      <trkpt lat="42.293172" lon="-0.44487">
        <ele>1462.1</ele>
        <time>2018-07-22T06:34:07.000Z</time>
      </trkpt>
      <trkpt lat="42.293169" lon="-0.44488">
        <ele>1462.2</ele>
        <time>2018-07-22T06:34:08.000Z</time>
      </trkpt>
      <trkpt lat="42.293167" lon="-0.444888">
        <ele>1462.3</ele>
        <time>2018-07-22T06:34:09.000Z</time>
      </trkpt>
      <trkpt lat="42.293165" lon="-0.444896">
        <ele>1462.5</ele>
        <time>2018-07-22T06:34:10.000Z</time>
      </trkpt>
      <trkpt lat="42.293164" lon="-0.444904">
        <ele>1462.6</ele>
        <time>2018-07-22T06:34:11.000Z</time>
      </trkpt>
      <trkpt lat="42.293163" lon="-0.44491">
        <ele>1462.7</ele>
        <time>2018-07-22T06:34:12.000Z</time>
      </trkpt>
      <trkpt lat="42.293163" lon="-0.444916">
        <ele>1462.9</ele>
        <time>2018-07-22T06:34:13.000Z</time>
      </trkpt>
      <trkpt lat="42.293163" lon="-0.44492">
        <ele>1463.0</ele>
        <time>2018-07-22T06:34:14.000Z</time>
      </trkpt>
      <trkpt lat="42.293163" lon="-0.444925">
        <ele>1463.2</ele>
        <time>2018-07-22T06:34:15.000Z</time>
      </trkpt>
      <trkpt lat="42.293163" lon="-0.444928">
        <ele>1463.3</ele>
        <time>2018-07-22T06:34:16.000Z</time>
      </trkpt>
      <trkpt lat="42.293164" lon="-0.444931">
        <ele>1463.4</ele>
        <time>2018-07-22T06:34:17.000Z</time>
      </trkpt>
      <trkpt lat="42.293164" lon="-0.444933">
        <ele>1463.5</ele>
        <time>2018-07-22T06:34:18.000Z</time>
      </trkpt>
      <trkpt lat="42.293164" lon="-0.444935">
        <ele>1463.5</ele>
        <time>2018-07-22T06:34:19.000Z</time>
      </trkpt>
      <trkpt lat="42.293165" lon="-0.444936">
        <ele>1463.6</ele>
        <time>2018-07-22T06:34:20.000Z</time>
      </trkpt>
      <trkpt lat="42.293165" lon="-0.444936">
        <ele>1463.6</ele>
        <time>2018-07-22T06:34:21.000Z</time>
      </trkpt>
      <trkpt lat="42.293165" lon="-0.444937">
        <ele>1463.7</ele>
        <time>2018-07-22T06:34:22.000Z</time>
      </trkpt>
      <trkpt lat="42.293164" lon="-0.444937">
        <ele>1463.6</ele>
        <time>2018-07-22T06:34:23.000Z</time>
      </trkpt>
      <trkpt lat="42.293164" lon="-0.444937">
        <ele>1463.6</ele>
        <time>2018-07-22T06:34:24.000Z</time>
      </trkpt>
      <trkpt lat="42.293164" lon="-0.444937">
        <ele>1463.6</ele>
        <time>2018-07-22T06:34:25.000Z</time>
      </trkpt>
      <trkpt lat="42.293165" lon="-0.444937">
        <ele>1463.7</ele>
        <time>2018-07-22T06:34:26.000Z</time>
      </trkpt>
      <trkpt lat="42.293164" lon="-0.444938">
        <ele>1463.6</ele>
        <time>2018-07-22T06:34:27.000Z</time>
      </trkpt>
      <trkpt lat="42.293165" lon="-0.444942">
        <ele>1463.8</ele>
        <time>2018-07-22T06:34:28.000Z</time>
      </trkpt>
      <trkpt lat="42.293166" lon="-0.444954">
        <ele>1464.2</ele>
        <time>2018-07-22T06:34:29.000Z</time>
      </trkpt>
      <trkpt lat="42.293165" lon="-0.444966">
        <ele>1464.5</ele>
        <time>2018-07-22T06:34:30.000Z</time>
      </trkpt>
      <trkpt lat="42.293166" lon="-0.444978">
        <ele>1464.9</ele>
        <time>2018-07-22T06:34:31.000Z</time>
      </trkpt>
      <trkpt lat="42.293166" lon="-0.444989">
        <ele>1465.2</ele>
        <time>2018-07-22T06:34:32.000Z</time>
      </trkpt>
      <trkpt lat="42.293166" lon="-0.445">
        <ele>1465.6</ele>
        <time>2018-07-22T06:34:33.000Z</time>
      </trkpt>
      <trkpt lat="42.293165" lon="-0.445011">
        <ele>1465.7</ele>
        <time>2018-07-22T06:34:34.000Z</time>
      </trkpt>
      <trkpt lat="42.293164" lon="-0.445021">
        <ele>1465.8</ele>
        <time>2018-07-22T06:34:35.000Z</time>
      </trkpt>
      <trkpt lat="42.293163" lon="-0.44503">
        <ele>1466.0</ele>
        <time>2018-07-22T06:34:36.000Z</time>
      </trkpt>
      <trkpt lat="42.293162" lon="-0.445039">
        <ele>1466.1</ele>
        <time>2018-07-22T06:34:37.000Z</time>
      </trkpt>
      <trkpt lat="42.29316" lon="-0.445048">
        <ele>1466.1</ele>
        <time>2018-07-22T06:34:38.000Z</time>
      </trkpt>
      <trkpt lat="42.29316" lon="-0.445055">
        <ele>1466.3</ele>
        <time>2018-07-22T06:34:39.000Z</time>
      </trkpt>
      <trkpt lat="42.293159" lon="-0.445061">
        <ele>1466.3</ele>
        <time>2018-07-22T06:34:40.000Z</time>
      </trkpt>
      <trkpt lat="42.293159" lon="-0.445066">
        <ele>1466.4</ele>
        <time>2018-07-22T06:34:41.000Z</time>
      </trkpt>
      <trkpt lat="42.293157" lon="-0.445074">
        <ele>1466.5</ele>
        <time>2018-07-22T06:34:42.000Z</time>
      </trkpt>
      <trkpt lat="42.293154" lon="-0.445083">
        <ele>1466.4</ele>
        <time>2018-07-22T06:34:43.000Z</time>
      </trkpt>
      <trkpt lat="42.293151" lon="-0.445093">
        <ele>1466.4</ele>
        <time>2018-07-22T06:34:44.000Z</time>
      </trkpt>
      <trkpt lat="42.293147" lon="-0.445104">
        <ele>1466.4</ele>
        <time>2018-07-22T06:34:45.000Z</time>
      </trkpt>
      <trkpt lat="42.293144" lon="-0.445115">
        <ele>1466.4</ele>
        <time>2018-07-22T06:34:46.000Z</time>
      </trkpt>
      <trkpt lat="42.293141" lon="-0.445126">
        <ele>1466.5</ele>
        <time>2018-07-22T06:34:47.000Z</time>
      </trkpt>
      <trkpt lat="42.293138" lon="-0.445136">
        <ele>1466.5</ele>
        <time>2018-07-22T06:34:48.000Z</time>
      </trkpt>
      <trkpt lat="42.293137" lon="-0.445146">
        <ele>1466.6</ele>
        <time>2018-07-22T06:34:49.000Z</time>
      </trkpt>
      <trkpt lat="42.293136" lon="-0.445155">
        <ele>1466.7</ele>
        <time>2018-07-22T06:34:50.000Z</time>
      </trkpt>
      <trkpt lat="42.293134" lon="-0.445164">
        <ele>1466.8</ele>
        <time>2018-07-22T06:34:51.000Z</time>
      </trkpt>
      <trkpt lat="42.293133" lon="-0.445173">
        <ele>1466.9</ele>
        <time>2018-07-22T06:34:52.000Z</time>
      </trkpt>
      <trkpt lat="42.293131" lon="-0.445181">
        <ele>1466.9</ele>
        <time>2018-07-22T06:34:53.000Z</time>
      </trkpt>
      <trkpt lat="42.293129" lon="-0.44519">
        <ele>1467.0</ele>
        <time>2018-07-22T06:34:54.000Z</time>
      </trkpt>
      <trkpt lat="42.293127" lon="-0.445198">
        <ele>1467.0</ele>
        <time>2018-07-22T06:34:55.000Z</time>
      </trkpt>
      <trkpt lat="42.293126" lon="-0.445207">
        <ele>1467.1</ele>
        <time>2018-07-22T06:34:56.000Z</time>
      </trkpt>
      <trkpt lat="42.293125" lon="-0.445215">
        <ele>1467.2</ele>
        <time>2018-07-22T06:34:57.000Z</time>
      </trkpt>
      <trkpt lat="42.293125" lon="-0.445222">
        <ele>1467.3</ele>
        <time>2018-07-22T06:34:58.000Z</time>
      </trkpt>
      <trkpt lat="42.293126" lon="-0.44523">
        <ele>1467.5</ele>
        <time>2018-07-22T06:34:59.000Z</time>
      </trkpt>
      <trkpt lat="42.293129" lon="-0.445237">
        <ele>1467.9</ele>
        <time>2018-07-22T06:35:00.000Z</time>
      </trkpt>
      <trkpt lat="42.293131" lon="-0.445245">
        <ele>1468.2</ele>
        <time>2018-07-22T06:35:01.000Z</time>
      </trkpt>
      <trkpt lat="42.293133" lon="-0.445254">
        <ele>1468.5</ele>
        <time>2018-07-22T06:35:02.000Z</time>
      </trkpt>
      <trkpt lat="42.293134" lon="-0.445265">
        <ele>1468.7</ele>
        <time>2018-07-22T06:35:03.000Z</time>
      </trkpt>
      <trkpt lat="42.293134" lon="-0.445277">
        <ele>1469.0</ele>
        <time>2018-07-22T06:35:04.000Z</time>
      </trkpt>
      <trkpt lat="42.293133" lon="-0.445292">
        <ele>1469.2</ele>
        <time>2018-07-22T06:35:05.000Z</time>
      </trkpt>
      <trkpt lat="42.293131" lon="-0.445307">
        <ele>1469.4</ele>
        <time>2018-07-22T06:35:06.000Z</time>
      </trkpt>
      <trkpt lat="42.293129" lon="-0.445323">
        <ele>1469.6</ele>
        <time>2018-07-22T06:35:07.000Z</time>
      </trkpt>
      <trkpt lat="42.293126" lon="-0.445339">
        <ele>1469.7</ele>
        <time>2018-07-22T06:35:08.000Z</time>
      </trkpt>
      <trkpt lat="42.293124" lon="-0.445355">
        <ele>1469.9</ele>
        <time>2018-07-22T06:35:09.000Z</time>
      </trkpt>
      <trkpt lat="42.293123" lon="-0.44537">
        <ele>1470.1</ele>
        <time>2018-07-22T06:35:10.000Z</time>
      </trkpt>
      <trkpt lat="42.293123" lon="-0.445384">
        <ele>1470.4</ele>
        <time>2018-07-22T06:35:11.000Z</time>
      </trkpt>
      <trkpt lat="42.293123" lon="-0.445397">
        <ele>1470.6</ele>
        <time>2018-07-22T06:35:12.000Z</time>
      </trkpt>
      <trkpt lat="42.293125" lon="-0.445409">
        <ele>1471.0</ele>
        <time>2018-07-22T06:35:13.000Z</time>
      </trkpt>
      <trkpt lat="42.293127" lon="-0.445418">
        <ele>1471.3</ele>
        <time>2018-07-22T06:35:14.000Z</time>
      </trkpt>
      <trkpt lat="42.293131" lon="-0.445426">
        <ele>1471.7</ele>
        <time>2018-07-22T06:35:15.000Z</time>
      </trkpt>
      <trkpt lat="42.293135" lon="-0.445432">
        <ele>1472.1</ele>
        <time>2018-07-22T06:35:16.000Z</time>
      </trkpt>
      <trkpt lat="42.293138" lon="-0.445438">
        <ele>1472.4</ele>
        <time>2018-07-22T06:35:17.000Z</time>
      </trkpt>
      <trkpt lat="42.293141" lon="-0.445444">
        <ele>1472.7</ele>
        <time>2018-07-22T06:35:18.000Z</time>
      </trkpt>
      <trkpt lat="42.293143" lon="-0.445453">
        <ele>1473.0</ele>
        <time>2018-07-22T06:35:19.000Z</time>
      </trkpt>
      <trkpt lat="42.293142" lon="-0.445464">
        <ele>1473.1</ele>
        <time>2018-07-22T06:35:20.000Z</time>
      </trkpt>
      <trkpt lat="42.293141" lon="-0.445476">
        <ele>1473.3</ele>
        <time>2018-07-22T06:35:21.000Z</time>
      </trkpt>
      <trkpt lat="42.293139" lon="-0.445486">
        <ele>1473.4</ele>
        <time>2018-07-22T06:35:22.000Z</time>
      </trkpt>
      <trkpt lat="42.293137" lon="-0.445494">
        <ele>1473.4</ele>
        <time>2018-07-22T06:35:23.000Z</time>
      </trkpt>
      <trkpt lat="42.293137" lon="-0.445501">
        <ele>1473.5</ele>
        <time>2018-07-22T06:35:24.000Z</time>
      </trkpt>
      <trkpt lat="42.293137" lon="-0.445508">
        <ele>1473.7</ele>
        <time>2018-07-22T06:35:25.000Z</time>
      </trkpt>
      <trkpt lat="42.293138" lon="-0.445516">
        <ele>1473.9</ele>
        <time>2018-07-22T06:35:26.000Z</time>
      </trkpt>
      <trkpt lat="42.293139" lon="-0.445526">
        <ele>1474.2</ele>
        <time>2018-07-22T06:35:27.000Z</time>
      </trkpt>
      <trkpt lat="42.29314" lon="-0.445535">
        <ele>1474.4</ele>
        <time>2018-07-22T06:35:28.000Z</time>
      </trkpt>
      <trkpt lat="42.293141" lon="-0.445546">
        <ele>1474.7</ele>
        <time>2018-07-22T06:35:29.000Z</time>
      </trkpt>
      <trkpt lat="42.293143" lon="-0.445556">
        <ele>1475.0</ele>
        <time>2018-07-22T06:35:30.000Z</time>
      </trkpt>
      <trkpt lat="42.293144" lon="-0.445567">
        <ele>1475.3</ele>
        <time>2018-07-22T06:35:31.000Z</time>
      </trkpt>
      <trkpt lat="42.293145" lon="-0.445577">
        <ele>1475.5</ele>
        <time>2018-07-22T06:35:32.000Z</time>
      </trkpt>
      <trkpt lat="42.293146" lon="-0.445588">
        <ele>1475.8</ele>
        <time>2018-07-22T06:35:33.000Z</time>
      </trkpt>
      <trkpt lat="42.293146" lon="-0.445599">
        <ele>1476.0</ele>
        <time>2018-07-22T06:35:34.000Z</time>
      </trkpt>
      <trkpt lat="42.293145" lon="-0.445611">
        <ele>1476.2</ele>
        <time>2018-07-22T06:35:35.000Z</time>
      </trkpt>
      <trkpt lat="42.293143" lon="-0.445622">
        <ele>1476.3</ele>
        <time>2018-07-22T06:35:36.000Z</time>
      </trkpt>
      <trkpt lat="42.293141" lon="-0.445634">
        <ele>1476.4</ele>
        <time>2018-07-22T06:35:37.000Z</time>
      </trkpt>
      <trkpt lat="42.293138" lon="-0.445645">
        <ele>1476.4</ele>
        <time>2018-07-22T06:35:38.000Z</time>
      </trkpt>
      <trkpt lat="42.293136" lon="-0.445656">
        <ele>1476.5</ele>
        <time>2018-07-22T06:35:39.000Z</time>
      </trkpt>
      <trkpt lat="42.293134" lon="-0.445666">
        <ele>1476.6</ele>
        <time>2018-07-22T06:35:40.000Z</time>
      </trkpt>
      <trkpt lat="42.293133" lon="-0.445674">
        <ele>1476.7</ele>
        <time>2018-07-22T06:35:41.000Z</time>
      </trkpt>
      <trkpt lat="42.293132" lon="-0.445682">
        <ele>1476.8</ele>
        <time>2018-07-22T06:35:42.000Z</time>
      </trkpt>
      <trkpt lat="42.293133" lon="-0.445688">
        <ele>1476.9</ele>
        <time>2018-07-22T06:35:43.000Z</time>
      </trkpt>
      <trkpt lat="42.293134" lon="-0.445693">
        <ele>1477.1</ele>
        <time>2018-07-22T06:35:44.000Z</time>
      </trkpt>
      <trkpt lat="42.293136" lon="-0.445697">
        <ele>1477.3</ele>
        <time>2018-07-22T06:35:45.000Z</time>
      </trkpt>
      <trkpt lat="42.293137" lon="-0.4457">
        <ele>1477.4</ele>
        <time>2018-07-22T06:35:46.000Z</time>
      </trkpt>
      <trkpt lat="42.293138" lon="-0.445703">
        <ele>1477.6</ele>
        <time>2018-07-22T06:35:47.000Z</time>
      </trkpt>
      <trkpt lat="42.293138" lon="-0.445706">
        <ele>1477.6</ele>
        <time>2018-07-22T06:35:48.000Z</time>
      </trkpt>
      <trkpt lat="42.293138" lon="-0.445708">
        <ele>1477.7</ele>
        <time>2018-07-22T06:35:49.000Z</time>
      </trkpt>
      <trkpt lat="42.293137" lon="-0.44571">
        <ele>1477.6</ele>
        <time>2018-07-22T06:35:50.000Z</time>
      </trkpt>
      <trkpt lat="42.293137" lon="-0.445712">
        <ele>1477.7</ele>
        <time>2018-07-22T06:35:51.000Z</time>
      </trkpt>
      <trkpt lat="42.293137" lon="-0.445714">
        <ele>1477.7</ele>
        <time>2018-07-22T06:35:52.000Z</time>
      </trkpt>
      <trkpt lat="42.293136" lon="-0.445716">
        <ele>1477.7</ele>
        <time>2018-07-22T06:35:53.000Z</time>
      </trkpt>
      <trkpt lat="42.293136" lon="-0.445718">
        <ele>1477.7</ele>
        <time>2018-07-22T06:35:54.000Z</time>
      </trkpt>
      <trkpt lat="42.293136" lon="-0.44572">
        <ele>1477.8</ele>
        <time>2018-07-22T06:35:55.000Z</time>
      </trkpt>
      <trkpt lat="42.293136" lon="-0.445721">
        <ele>1477.8</ele>
        <time>2018-07-22T06:35:56.000Z</time>
      </trkpt>
      <trkpt lat="42.293136" lon="-0.445722">
        <ele>1477.8</ele>
        <time>2018-07-22T06:35:57.000Z</time>
      </trkpt>
      <trkpt lat="42.293136" lon="-0.445723">
        <ele>1477.8</ele>
        <time>2018-07-22T06:35:58.000Z</time>
      </trkpt>
      <trkpt lat="42.293136" lon="-0.445723">
        <ele>1477.8</ele>
        <time>2018-07-22T06:35:59.000Z</time>
      </trkpt>
      <trkpt lat="42.293136" lon="-0.445723">
        <ele>1477.8</ele>
        <time>2018-07-22T06:36:00.000Z</time>
      </trkpt>
      <trkpt lat="42.293136" lon="-0.445723">
        <ele>1477.8</ele>
        <time>2018-07-22T06:36:01.000Z</time>
      </trkpt>
      <trkpt lat="42.293135" lon="-0.445723">
        <ele>1477.8</ele>
        <time>2018-07-22T06:36:02.000Z</time>
      </trkpt>
      <trkpt lat="42.293135" lon="-0.445724">
        <ele>1477.8</ele>
        <time>2018-07-22T06:36:03.000Z</time>
      </trkpt>
      <trkpt lat="42.293135" lon="-0.445724">
        <ele>1477.8</ele>
        <time>2018-07-22T06:36:04.000Z</time>
      </trkpt>
      <trkpt lat="42.293134" lon="-0.445726">
        <ele>1477.7</ele>
        <time>2018-07-22T06:36:05.000Z</time>
      </trkpt>
      <trkpt lat="42.293133" lon="-0.445728">
        <ele>1477.7</ele>
        <time>2018-07-22T06:36:06.000Z</time>
      </trkpt>
      <trkpt lat="42.293131" lon="-0.445731">
        <ele>1477.6</ele>
        <time>2018-07-22T06:36:07.000Z</time>
      </trkpt>
      <trkpt lat="42.29313" lon="-0.445734">
        <ele>1477.6</ele>
        <time>2018-07-22T06:36:08.000Z</time>
      </trkpt>
      <trkpt lat="42.293131" lon="-0.445737">
        <ele>1477.8</ele>
        <time>2018-07-22T06:36:09.000Z</time>
      </trkpt>
      <trkpt lat="42.293129" lon="-0.445749">
        <ele>1477.9</ele>
        <time>2018-07-22T06:36:10.000Z</time>
      </trkpt>
      <trkpt lat="42.293126" lon="-0.445761">
        <ele>1477.9</ele>
        <time>2018-07-22T06:36:11.000Z</time>
      </trkpt>
      <trkpt lat="42.293124" lon="-0.445771">
        <ele>1478.0</ele>
        <time>2018-07-22T06:36:12.000Z</time>
      </trkpt>
      <trkpt lat="42.29312" lon="-0.44578">
        <ele>1477.9</ele>
        <time>2018-07-22T06:36:13.000Z</time>
      </trkpt>
      <trkpt lat="42.293115" lon="-0.445788">
        <ele>1477.7</ele>
        <time>2018-07-22T06:36:14.000Z</time>
      </trkpt>
      <trkpt lat="42.29311" lon="-0.445796">
        <ele>1477.5</ele>
        <time>2018-07-22T06:36:15.000Z</time>
      </trkpt>
      <trkpt lat="42.293106" lon="-0.445804">
        <ele>1477.4</ele>
        <time>2018-07-22T06:36:16.000Z</time>
      </trkpt>
      <trkpt lat="42.293102" lon="-0.44581">
        <ele>1477.3</ele>
        <time>2018-07-22T06:36:17.000Z</time>
      </trkpt>
      <trkpt lat="42.293099" lon="-0.445816">
        <ele>1477.2</ele>
        <time>2018-07-22T06:36:18.000Z</time>
      </trkpt>
      <trkpt lat="42.293097" lon="-0.445819">
        <ele>1477.1</ele>
        <time>2018-07-22T06:36:19.000Z</time>
      </trkpt>
      <trkpt lat="42.293096" lon="-0.445822">
        <ele>1477.1</ele>
        <time>2018-07-22T06:36:20.000Z</time>
      </trkpt>
      <trkpt lat="42.293092" lon="-0.445826">
        <ele>1476.9</ele>
        <time>2018-07-22T06:36:21.000Z</time>
      </trkpt>
      <trkpt lat="42.293088" lon="-0.445831">
        <ele>1476.8</ele>
        <time>2018-07-22T06:36:22.000Z</time>
      </trkpt>
      <trkpt lat="42.293086" lon="-0.445834">
        <ele>1476.7</ele>
        <time>2018-07-22T06:36:23.000Z</time>
      </trkpt>
      <trkpt lat="42.293075" lon="-0.445844">
        <ele>1476.3</ele>
        <time>2018-07-22T06:36:24.000Z</time>
      </trkpt>
      <trkpt lat="42.293066" lon="-0.445855">
        <ele>1476.0</ele>
        <time>2018-07-22T06:36:25.000Z</time>
      </trkpt>
      <trkpt lat="42.293061" lon="-0.445864">
        <ele>1475.9</ele>
        <time>2018-07-22T06:36:26.000Z</time>
      </trkpt>
      <trkpt lat="42.293057" lon="-0.445872">
        <ele>1475.9</ele>
        <time>2018-07-22T06:36:27.000Z</time>
      </trkpt>
      <trkpt lat="42.293055" lon="-0.44588">
        <ele>1476.0</ele>
        <time>2018-07-22T06:36:28.000Z</time>
      </trkpt>
      <trkpt lat="42.293053" lon="-0.445889">
        <ele>1476.1</ele>
        <time>2018-07-22T06:36:29.000Z</time>
      </trkpt>
      <trkpt lat="42.293052" lon="-0.445898">
        <ele>1476.3</ele>
        <time>2018-07-22T06:36:30.000Z</time>
      </trkpt>
      <trkpt lat="42.293052" lon="-0.445906">
        <ele>1476.5</ele>
        <time>2018-07-22T06:36:31.000Z</time>
      </trkpt>
      <trkpt lat="42.293051" lon="-0.445914">
        <ele>1476.7</ele>
        <time>2018-07-22T06:36:32.000Z</time>
      </trkpt>
      <trkpt lat="42.293051" lon="-0.445922">
        <ele>1476.9</ele>
        <time>2018-07-22T06:36:33.000Z</time>
      </trkpt>
      <trkpt lat="42.293052" lon="-0.445929">
        <ele>1477.2</ele>
        <time>2018-07-22T06:36:34.000Z</time>
      </trkpt>
      <trkpt lat="42.293052" lon="-0.445934">
        <ele>1477.3</ele>
        <time>2018-07-22T06:36:35.000Z</time>
      </trkpt>
      <trkpt lat="42.293052" lon="-0.445938">
        <ele>1477.5</ele>
        <time>2018-07-22T06:36:36.000Z</time>
      </trkpt>
      <trkpt lat="42.293052" lon="-0.445941">
        <ele>1477.5</ele>
        <time>2018-07-22T06:36:37.000Z</time>
      </trkpt>
      <trkpt lat="42.293052" lon="-0.445945">
        <ele>1477.7</ele>
        <time>2018-07-22T06:36:38.000Z</time>
      </trkpt>
      <trkpt lat="42.293051" lon="-0.445949">
        <ele>1477.7</ele>
        <time>2018-07-22T06:36:39.000Z</time>
      </trkpt>
      <trkpt lat="42.29305" lon="-0.445955">
        <ele>1477.8</ele>
        <time>2018-07-22T06:36:40.000Z</time>
      </trkpt>
      <trkpt lat="42.293049" lon="-0.445961">
        <ele>1477.9</ele>
        <time>2018-07-22T06:36:41.000Z</time>
      </trkpt>
      <trkpt lat="42.293049" lon="-0.445965">
        <ele>1478.1</ele>
        <time>2018-07-22T06:36:42.000Z</time>
      </trkpt>
      <trkpt lat="42.29305" lon="-0.445973">
        <ele>1478.3</ele>
        <time>2018-07-22T06:36:43.000Z</time>
      </trkpt>
      <trkpt lat="42.29305" lon="-0.44598">
        <ele>1478.6</ele>
        <time>2018-07-22T06:36:44.000Z</time>
      </trkpt>
      <trkpt lat="42.293049" lon="-0.445991">
        <ele>1478.8</ele>
        <time>2018-07-22T06:36:45.000Z</time>
      </trkpt>
      <trkpt lat="42.293049" lon="-0.445998">
        <ele>1479.0</ele>
        <time>2018-07-22T06:36:46.000Z</time>
      </trkpt>
      <trkpt lat="42.293048" lon="-0.446004">
        <ele>1479.1</ele>
        <time>2018-07-22T06:36:47.000Z</time>
      </trkpt>
      <trkpt lat="42.293048" lon="-0.446007">
        <ele>1479.2</ele>
        <time>2018-07-22T06:36:48.000Z</time>
      </trkpt>
      <trkpt lat="42.293048" lon="-0.446011">
        <ele>1479.3</ele>
        <time>2018-07-22T06:36:49.000Z</time>
      </trkpt>
      <trkpt lat="42.293048" lon="-0.446014">
        <ele>1479.4</ele>
        <time>2018-07-22T06:36:50.000Z</time>
      </trkpt>
      <trkpt lat="42.293048" lon="-0.446018">
        <ele>1479.5</ele>
        <time>2018-07-22T06:36:51.000Z</time>
      </trkpt>
      <trkpt lat="42.293048" lon="-0.446023">
        <ele>1479.7</ele>
        <time>2018-07-22T06:36:52.000Z</time>
      </trkpt>
      <trkpt lat="42.293048" lon="-0.446027">
        <ele>1479.8</ele>
        <time>2018-07-22T06:36:53.000Z</time>
      </trkpt>
      <trkpt lat="42.293046" lon="-0.446035">
        <ele>1479.9</ele>
        <time>2018-07-22T06:36:54.000Z</time>
      </trkpt>
      <trkpt lat="42.293043" lon="-0.446043">
        <ele>1480.0</ele>
        <time>2018-07-22T06:36:55.000Z</time>
      </trkpt>
      <trkpt lat="42.293034" lon="-0.446054">
        <ele>1479.8</ele>
        <time>2018-07-22T06:36:56.000Z</time>
      </trkpt>
      <trkpt lat="42.293027" lon="-0.446061">
        <ele>1479.6</ele>
        <time>2018-07-22T06:36:57.000Z</time>
      </trkpt>
      <trkpt lat="42.293023" lon="-0.446065">
        <ele>1479.5</ele>
        <time>2018-07-22T06:36:58.000Z</time>
      </trkpt>
      <trkpt lat="42.293019" lon="-0.446067">
        <ele>1479.3</ele>
        <time>2018-07-22T06:36:59.000Z</time>
      </trkpt>
      <trkpt lat="42.293017" lon="-0.446068">
        <ele>1479.2</ele>
        <time>2018-07-22T06:37:00.000Z</time>
      </trkpt>
      <trkpt lat="42.293014" lon="-0.44607">
        <ele>1479.1</ele>
        <time>2018-07-22T06:37:01.000Z</time>
      </trkpt>
      <trkpt lat="42.293012" lon="-0.446072">
        <ele>1479.0</ele>
        <time>2018-07-22T06:37:02.000Z</time>
      </trkpt>
      <trkpt lat="42.293008" lon="-0.446076">
        <ele>1478.9</ele>
        <time>2018-07-22T06:37:03.000Z</time>
      </trkpt>
      <trkpt lat="42.293005" lon="-0.446081">
        <ele>1478.9</ele>
        <time>2018-07-22T06:37:04.000Z</time>
      </trkpt>
      <trkpt lat="42.293001" lon="-0.446088">
        <ele>1478.9</ele>
        <time>2018-07-22T06:37:05.000Z</time>
      </trkpt>
      <trkpt lat="42.292994" lon="-0.446099">
        <ele>1478.8</ele>
        <time>2018-07-22T06:37:06.000Z</time>
      </trkpt>
      <trkpt lat="42.292988" lon="-0.446108">
        <ele>1478.8</ele>
        <time>2018-07-22T06:37:07.000Z</time>
      </trkpt>
      <trkpt lat="42.292984" lon="-0.446115">
        <ele>1478.8</ele>
        <time>2018-07-22T06:37:08.000Z</time>
      </trkpt>
      <trkpt lat="42.292981" lon="-0.446122">
        <ele>1478.8</ele>
        <time>2018-07-22T06:37:09.000Z</time>
      </trkpt>
      <trkpt lat="42.29298" lon="-0.446129">
        <ele>1479.0</ele>
        <time>2018-07-22T06:37:10.000Z</time>
      </trkpt>
      <trkpt lat="42.292979" lon="-0.446136">
        <ele>1479.1</ele>
        <time>2018-07-22T06:37:11.000Z</time>
      </trkpt>
      <trkpt lat="42.292979" lon="-0.446143">
        <ele>1479.4</ele>
        <time>2018-07-22T06:37:12.000Z</time>
      </trkpt>
      <trkpt lat="42.292979" lon="-0.446148">
        <ele>1479.5</ele>
        <time>2018-07-22T06:37:13.000Z</time>
      </trkpt>
      <trkpt lat="42.292979" lon="-0.446152">
        <ele>1479.6</ele>
        <time>2018-07-22T06:37:14.000Z</time>
      </trkpt>
      <trkpt lat="42.292979" lon="-0.446156">
        <ele>1479.8</ele>
        <time>2018-07-22T06:37:15.000Z</time>
      </trkpt>
      <trkpt lat="42.292979" lon="-0.44616">
        <ele>1479.9</ele>
        <time>2018-07-22T06:37:16.000Z</time>
      </trkpt>
      <trkpt lat="42.292978" lon="-0.446166">
        <ele>1480.0</ele>
        <time>2018-07-22T06:37:17.000Z</time>
      </trkpt>
      <trkpt lat="42.292977" lon="-0.446172">
        <ele>1480.2</ele>
        <time>2018-07-22T06:37:18.000Z</time>
      </trkpt>
      <trkpt lat="42.292977" lon="-0.446176">
        <ele>1480.3</ele>
        <time>2018-07-22T06:37:19.000Z</time>
      </trkpt>
      <trkpt lat="42.292977" lon="-0.446181">
        <ele>1480.4</ele>
        <time>2018-07-22T06:37:20.000Z</time>
      </trkpt>
      <trkpt lat="42.292977" lon="-0.446194">
        <ele>1480.8</ele>
        <time>2018-07-22T06:37:21.000Z</time>
      </trkpt>
      <trkpt lat="42.292978" lon="-0.446201">
        <ele>1481.1</ele>
        <time>2018-07-22T06:37:22.000Z</time>
      </trkpt>
      <trkpt lat="42.29298" lon="-0.446207">
        <ele>1481.4</ele>
        <time>2018-07-22T06:37:23.000Z</time>
      </trkpt>
      <trkpt lat="42.292982" lon="-0.446212">
        <ele>1481.7</ele>
        <time>2018-07-22T06:37:24.000Z</time>
      </trkpt>
      <trkpt lat="42.292984" lon="-0.446216">
        <ele>1481.9</ele>
        <time>2018-07-22T06:37:25.000Z</time>
      </trkpt>
      <trkpt lat="42.292985" lon="-0.44622">
        <ele>1482.1</ele>
        <time>2018-07-22T06:37:26.000Z</time>
      </trkpt>
      <trkpt lat="42.292986" lon="-0.446224">
        <ele>1482.3</ele>
        <time>2018-07-22T06:37:27.000Z</time>
      </trkpt>
      <trkpt lat="42.292987" lon="-0.446227">
        <ele>1482.4</ele>
        <time>2018-07-22T06:37:28.000Z</time>
      </trkpt>
      <trkpt lat="42.292987" lon="-0.44623">
        <ele>1482.5</ele>
        <time>2018-07-22T06:37:29.000Z</time>
      </trkpt>
      <trkpt lat="42.292988" lon="-0.446232">
        <ele>1482.6</ele>
        <time>2018-07-22T06:37:30.000Z</time>
      </trkpt>
      <trkpt lat="42.292988" lon="-0.446235">
        <ele>1482.7</ele>
        <time>2018-07-22T06:37:31.000Z</time>
      </trkpt>
      <trkpt lat="42.292988" lon="-0.446239">
        <ele>1482.8</ele>
        <time>2018-07-22T06:37:32.000Z</time>
      </trkpt>
      <trkpt lat="42.292989" lon="-0.446242">
        <ele>1483.0</ele>
        <time>2018-07-22T06:37:33.000Z</time>
      </trkpt>
      <trkpt lat="42.292989" lon="-0.446246">
        <ele>1483.1</ele>
        <time>2018-07-22T06:37:34.000Z</time>
      </trkpt>
      <trkpt lat="42.29299" lon="-0.446251">
        <ele>1483.3</ele>
        <time>2018-07-22T06:37:35.000Z</time>
      </trkpt>
      <trkpt lat="42.29299" lon="-0.446253">
        <ele>1483.4</ele>
        <time>2018-07-22T06:37:36.000Z</time>
      </trkpt>
      <trkpt lat="42.292991" lon="-0.446254">
        <ele>1483.5</ele>
        <time>2018-07-22T06:37:37.000Z</time>
      </trkpt>
      <trkpt lat="42.29299" lon="-0.446269">
        <ele>1483.9</ele>
        <time>2018-07-22T06:37:38.000Z</time>
      </trkpt>
      <trkpt lat="42.292991" lon="-0.446281">
        <ele>1484.3</ele>
        <time>2018-07-22T06:37:39.000Z</time>
      </trkpt>
      <trkpt lat="42.292991" lon="-0.44629">
        <ele>1484.6</ele>
        <time>2018-07-22T06:37:40.000Z</time>
      </trkpt>
      <trkpt lat="42.292992" lon="-0.446296">
        <ele>1484.8</ele>
        <time>2018-07-22T06:37:41.000Z</time>
      </trkpt>
      <trkpt lat="42.292992" lon="-0.4463">
        <ele>1484.9</ele>
        <time>2018-07-22T06:37:42.000Z</time>
      </trkpt>
      <trkpt lat="42.292992" lon="-0.446303">
        <ele>1485.0</ele>
        <time>2018-07-22T06:37:43.000Z</time>
      </trkpt>
      <trkpt lat="42.292992" lon="-0.446305">
        <ele>1485.1</ele>
        <time>2018-07-22T06:37:44.000Z</time>
      </trkpt>
      <trkpt lat="42.292992" lon="-0.446309">
        <ele>1485.2</ele>
        <time>2018-07-22T06:37:45.000Z</time>
      </trkpt>
      <trkpt lat="42.292991" lon="-0.446315">
        <ele>1485.4</ele>
        <time>2018-07-22T06:37:46.000Z</time>
      </trkpt>
      <trkpt lat="42.292989" lon="-0.44633">
        <ele>1485.7</ele>
        <time>2018-07-22T06:37:47.000Z</time>
      </trkpt>
      <trkpt lat="42.292987" lon="-0.446339">
        <ele>1485.9</ele>
        <time>2018-07-22T06:37:48.000Z</time>
      </trkpt>
      <trkpt lat="42.292985" lon="-0.446347">
        <ele>1486.1</ele>
        <time>2018-07-22T06:37:49.000Z</time>
      </trkpt>
      <trkpt lat="42.292983" lon="-0.446355">
        <ele>1486.2</ele>
        <time>2018-07-22T06:37:50.000Z</time>
      </trkpt>
      <trkpt lat="42.292981" lon="-0.446364">
        <ele>1486.4</ele>
        <time>2018-07-22T06:37:51.000Z</time>
      </trkpt>
      <trkpt lat="42.292978" lon="-0.446372">
        <ele>1486.5</ele>
        <time>2018-07-22T06:37:52.000Z</time>
      </trkpt>
      <trkpt lat="42.292976" lon="-0.446378">
        <ele>1486.6</ele>
        <time>2018-07-22T06:37:53.000Z</time>
      </trkpt>
      <trkpt lat="42.292975" lon="-0.446385">
        <ele>1486.8</ele>
        <time>2018-07-22T06:37:54.000Z</time>
      </trkpt>
      <trkpt lat="42.292973" lon="-0.44639">
        <ele>1486.8</ele>
        <time>2018-07-22T06:37:55.000Z</time>
      </trkpt>
      <trkpt lat="42.292972" lon="-0.446395">
        <ele>1486.9</ele>
        <time>2018-07-22T06:37:56.000Z</time>
      </trkpt>
      <trkpt lat="42.29297" lon="-0.446399">
        <ele>1487.0</ele>
        <time>2018-07-22T06:37:57.000Z</time>
      </trkpt>
      <trkpt lat="42.292969" lon="-0.446403">
        <ele>1487.1</ele>
        <time>2018-07-22T06:37:58.000Z</time>
      </trkpt>
      <trkpt lat="42.292968" lon="-0.446407">
        <ele>1487.1</ele>
        <time>2018-07-22T06:37:59.000Z</time>
      </trkpt>
      <trkpt lat="42.292966" lon="-0.446413">
        <ele>1487.2</ele>
        <time>2018-07-22T06:38:00.000Z</time>
      </trkpt>
      <trkpt lat="42.292964" lon="-0.446422">
        <ele>1487.4</ele>
        <time>2018-07-22T06:38:01.000Z</time>
      </trkpt>
      <trkpt lat="42.292961" lon="-0.446432">
        <ele>1487.6</ele>
        <time>2018-07-22T06:38:02.000Z</time>
      </trkpt>
      <trkpt lat="42.292957" lon="-0.446441">
        <ele>1487.7</ele>
        <time>2018-07-22T06:38:03.000Z</time>
      </trkpt>
      <trkpt lat="42.292952" lon="-0.446448">
        <ele>1487.7</ele>
        <time>2018-07-22T06:38:04.000Z</time>
      </trkpt>
      <trkpt lat="42.292946" lon="-0.446455">
        <ele>1487.7</ele>
        <time>2018-07-22T06:38:05.000Z</time>
      </trkpt>
      <trkpt lat="42.292941" lon="-0.446462">
        <ele>1487.7</ele>
        <time>2018-07-22T06:38:06.000Z</time>
      </trkpt>
      <trkpt lat="42.292935" lon="-0.446469">
        <ele>1487.7</ele>
        <time>2018-07-22T06:38:07.000Z</time>
      </trkpt>
      <trkpt lat="42.29293" lon="-0.446478">
        <ele>1487.7</ele>
        <time>2018-07-22T06:38:08.000Z</time>
      </trkpt>
      <trkpt lat="42.292926" lon="-0.446487">
        <ele>1487.9</ele>
        <time>2018-07-22T06:38:09.000Z</time>
      </trkpt>
      <trkpt lat="42.292923" lon="-0.446497">
        <ele>1488.1</ele>
        <time>2018-07-22T06:38:10.000Z</time>
      </trkpt>
      <trkpt lat="42.292921" lon="-0.446507">
        <ele>1488.3</ele>
        <time>2018-07-22T06:38:11.000Z</time>
      </trkpt>
      <trkpt lat="42.292919" lon="-0.446518">
        <ele>1488.6</ele>
        <time>2018-07-22T06:38:12.000Z</time>
      </trkpt>
      <trkpt lat="42.292917" lon="-0.446529">
        <ele>1488.9</ele>
        <time>2018-07-22T06:38:13.000Z</time>
      </trkpt>
      <trkpt lat="42.292917" lon="-0.446541">
        <ele>1489.3</ele>
        <time>2018-07-22T06:38:14.000Z</time>
      </trkpt>
      <trkpt lat="42.292917" lon="-0.446552">
        <ele>1489.7</ele>
        <time>2018-07-22T06:38:15.000Z</time>
      </trkpt>
      <trkpt lat="42.292917" lon="-0.446562">
        <ele>1490.0</ele>
        <time>2018-07-22T06:38:16.000Z</time>
      </trkpt>
      <trkpt lat="42.292918" lon="-0.446573">
        <ele>1490.4</ele>
        <time>2018-07-22T06:38:17.000Z</time>
      </trkpt>
      <trkpt lat="42.292919" lon="-0.446582">
        <ele>1490.7</ele>
        <time>2018-07-22T06:38:18.000Z</time>
      </trkpt>
      <trkpt lat="42.292921" lon="-0.446591">
        <ele>1491.1</ele>
        <time>2018-07-22T06:38:19.000Z</time>
      </trkpt>
      <trkpt lat="42.292923" lon="-0.446599">
        <ele>1491.5</ele>
        <time>2018-07-22T06:38:20.000Z</time>
      </trkpt>
      <trkpt lat="42.292925" lon="-0.446607">
        <ele>1491.8</ele>
        <time>2018-07-22T06:38:21.000Z</time>
      </trkpt>
      <trkpt lat="42.292927" lon="-0.446614">
        <ele>1492.1</ele>
        <time>2018-07-22T06:38:22.000Z</time>
      </trkpt>
      <trkpt lat="42.292929" lon="-0.446621">
        <ele>1492.4</ele>
        <time>2018-07-22T06:38:23.000Z</time>
      </trkpt>
      <trkpt lat="42.29293" lon="-0.446629">
        <ele>1492.7</ele>
        <time>2018-07-22T06:38:24.000Z</time>
      </trkpt>
      <trkpt lat="42.29293" lon="-0.446636">
        <ele>1493.0</ele>
        <time>2018-07-22T06:38:25.000Z</time>
      </trkpt>
      <trkpt lat="42.29293" lon="-0.446643">
        <ele>1493.2</ele>
        <time>2018-07-22T06:38:26.000Z</time>
      </trkpt>
      <trkpt lat="42.29293" lon="-0.44665">
        <ele>1493.4</ele>
        <time>2018-07-22T06:38:27.000Z</time>
      </trkpt>
      <trkpt lat="42.292929" lon="-0.446656">
        <ele>1493.6</ele>
        <time>2018-07-22T06:38:28.000Z</time>
      </trkpt>
      <trkpt lat="42.292929" lon="-0.446661">
        <ele>1493.8</ele>
        <time>2018-07-22T06:38:29.000Z</time>
      </trkpt>
      <trkpt lat="42.292929" lon="-0.446665">
        <ele>1493.9</ele>
        <time>2018-07-22T06:38:30.000Z</time>
      </trkpt>
      <trkpt lat="42.292929" lon="-0.446669">
        <ele>1494.0</ele>
        <time>2018-07-22T06:38:31.000Z</time>
      </trkpt>
      <trkpt lat="42.292929" lon="-0.446677">
        <ele>1494.1</ele>
        <time>2018-07-22T06:38:32.000Z</time>
      </trkpt>
      <trkpt lat="42.29293" lon="-0.446693">
        <ele>1494.3</ele>
        <time>2018-07-22T06:38:33.000Z</time>
      </trkpt>
      <trkpt lat="42.292933" lon="-0.446702">
        <ele>1494.5</ele>
        <time>2018-07-22T06:38:34.000Z</time>
      </trkpt>
      <trkpt lat="42.292935" lon="-0.44671">
        <ele>1494.7</ele>
        <time>2018-07-22T06:38:35.000Z</time>
      </trkpt>
      <trkpt lat="42.292938" lon="-0.446718">
        <ele>1494.9</ele>
        <time>2018-07-22T06:38:36.000Z</time>
      </trkpt>
      <trkpt lat="42.29294" lon="-0.446724">
        <ele>1495.1</ele>
        <time>2018-07-22T06:38:37.000Z</time>
      </trkpt>
      <trkpt lat="42.292941" lon="-0.446729">
        <ele>1495.1</ele>
        <time>2018-07-22T06:38:38.000Z</time>
      </trkpt>
      <trkpt lat="42.292942" lon="-0.446733">
        <ele>1495.2</ele>
        <time>2018-07-22T06:38:39.000Z</time>
      </trkpt>
      <trkpt lat="42.292943" lon="-0.446737">
        <ele>1495.3</ele>
        <time>2018-07-22T06:38:40.000Z</time>
      </trkpt>
      <trkpt lat="42.292944" lon="-0.446741">
        <ele>1495.4</ele>
        <time>2018-07-22T06:38:41.000Z</time>
      </trkpt>
      <trkpt lat="42.292945" lon="-0.446744">
        <ele>1495.5</ele>
        <time>2018-07-22T06:38:42.000Z</time>
      </trkpt>
      <trkpt lat="42.292946" lon="-0.446748">
        <ele>1495.6</ele>
        <time>2018-07-22T06:38:43.000Z</time>
      </trkpt>
      <trkpt lat="42.292948" lon="-0.446754">
        <ele>1495.7</ele>
        <time>2018-07-22T06:38:44.000Z</time>
      </trkpt>
      <trkpt lat="42.292951" lon="-0.446765">
        <ele>1495.9</ele>
        <time>2018-07-22T06:38:45.000Z</time>
      </trkpt>
      <trkpt lat="42.292956" lon="-0.446778">
        <ele>1496.2</ele>
        <time>2018-07-22T06:38:46.000Z</time>
      </trkpt>
      <trkpt lat="42.29296" lon="-0.446789">
        <ele>1496.5</ele>
        <time>2018-07-22T06:38:47.000Z</time>
      </trkpt>
      <trkpt lat="42.292963" lon="-0.446797">
        <ele>1496.7</ele>
        <time>2018-07-22T06:38:48.000Z</time>
      </trkpt>
      <trkpt lat="42.292965" lon="-0.446803">
        <ele>1496.8</ele>
        <time>2018-07-22T06:38:49.000Z</time>
      </trkpt>
      <trkpt lat="42.292967" lon="-0.446808">
        <ele>1497.0</ele>
        <time>2018-07-22T06:38:50.000Z</time>
      </trkpt>
      <trkpt lat="42.292969" lon="-0.446812">
        <ele>1497.1</ele>
        <time>2018-07-22T06:38:51.000Z</time>
      </trkpt>
      <trkpt lat="42.292971" lon="-0.446815">
        <ele>1497.2</ele>
        <time>2018-07-22T06:38:52.000Z</time>
      </trkpt>
      <trkpt lat="42.292973" lon="-0.446818">
        <ele>1497.3</ele>
        <time>2018-07-22T06:38:53.000Z</time>
      </trkpt>
      <trkpt lat="42.292974" lon="-0.446822">
        <ele>1497.3</ele>
        <time>2018-07-22T06:38:54.000Z</time>
      </trkpt>
      <trkpt lat="42.292976" lon="-0.446825">
        <ele>1497.4</ele>
        <time>2018-07-22T06:38:55.000Z</time>
      </trkpt>
      <trkpt lat="42.292977" lon="-0.446828">
        <ele>1497.5</ele>
        <time>2018-07-22T06:38:56.000Z</time>
      </trkpt>
      <trkpt lat="42.292979" lon="-0.446831">
        <ele>1497.6</ele>
        <time>2018-07-22T06:38:57.000Z</time>
      </trkpt>
      <trkpt lat="42.29298" lon="-0.446834">
        <ele>1497.7</ele>
        <time>2018-07-22T06:38:58.000Z</time>
      </trkpt>
      <trkpt lat="42.292983" lon="-0.446844">
        <ele>1497.9</ele>
        <time>2018-07-22T06:38:59.000Z</time>
      </trkpt>
      <trkpt lat="42.292984" lon="-0.446855">
        <ele>1498.0</ele>
        <time>2018-07-22T06:39:00.000Z</time>
      </trkpt>
      <trkpt lat="42.292985" lon="-0.446865">
        <ele>1498.2</ele>
        <time>2018-07-22T06:39:01.000Z</time>
      </trkpt>
      <trkpt lat="42.292988" lon="-0.446873">
        <ele>1498.4</ele>
        <time>2018-07-22T06:39:02.000Z</time>
      </trkpt>
      <trkpt lat="42.292991" lon="-0.44688">
        <ele>1498.5</ele>
        <time>2018-07-22T06:39:03.000Z</time>
      </trkpt>
      <trkpt lat="42.292996" lon="-0.446887">
        <ele>1498.7</ele>
        <time>2018-07-22T06:39:04.000Z</time>
      </trkpt>
      <trkpt lat="42.293002" lon="-0.446892">
        <ele>1499.0</ele>
        <time>2018-07-22T06:39:05.000Z</time>
      </trkpt>
      <trkpt lat="42.293008" lon="-0.446898">
        <ele>1499.2</ele>
        <time>2018-07-22T06:39:06.000Z</time>
      </trkpt>
      <trkpt lat="42.293013" lon="-0.446905">
        <ele>1499.5</ele>
        <time>2018-07-22T06:39:07.000Z</time>
      </trkpt>
      <trkpt lat="42.293018" lon="-0.446912">
        <ele>1499.7</ele>
        <time>2018-07-22T06:39:08.000Z</time>
      </trkpt>
      <trkpt lat="42.293023" lon="-0.44692">
        <ele>1499.9</ele>
        <time>2018-07-22T06:39:09.000Z</time>
      </trkpt>
      <trkpt lat="42.293026" lon="-0.446928">
        <ele>1500.1</ele>
        <time>2018-07-22T06:39:10.000Z</time>
      </trkpt>
      <trkpt lat="42.293028" lon="-0.446937">
        <ele>1500.2</ele>
        <time>2018-07-22T06:39:11.000Z</time>
      </trkpt>
      <trkpt lat="42.293029" lon="-0.446947">
        <ele>1500.3</ele>
        <time>2018-07-22T06:39:12.000Z</time>
      </trkpt>
      <trkpt lat="42.293029" lon="-0.446957">
        <ele>1500.4</ele>
        <time>2018-07-22T06:39:13.000Z</time>
      </trkpt>
      <trkpt lat="42.293027" lon="-0.446968">
        <ele>1500.5</ele>
        <time>2018-07-22T06:39:14.000Z</time>
      </trkpt>
      <trkpt lat="42.293026" lon="-0.446979">
        <ele>1500.6</ele>
        <time>2018-07-22T06:39:15.000Z</time>
      </trkpt>
      <trkpt lat="42.293026" lon="-0.446992">
        <ele>1500.7</ele>
        <time>2018-07-22T06:39:16.000Z</time>
      </trkpt>
      <trkpt lat="42.293025" lon="-0.447004">
        <ele>1500.8</ele>
        <time>2018-07-22T06:39:17.000Z</time>
      </trkpt>
      <trkpt lat="42.293024" lon="-0.447016">
        <ele>1500.9</ele>
        <time>2018-07-22T06:39:18.000Z</time>
      </trkpt>
      <trkpt lat="42.293022" lon="-0.447026">
        <ele>1500.9</ele>
        <time>2018-07-22T06:39:19.000Z</time>
      </trkpt>
      <trkpt lat="42.293019" lon="-0.447034">
        <ele>1500.9</ele>
        <time>2018-07-22T06:39:20.000Z</time>
      </trkpt>
      <trkpt lat="42.293014" lon="-0.447041">
        <ele>1500.8</ele>
        <time>2018-07-22T06:39:21.000Z</time>
      </trkpt>
      <trkpt lat="42.293007" lon="-0.447046">
        <ele>1500.7</ele>
        <time>2018-07-22T06:39:22.000Z</time>
      </trkpt>
      <trkpt lat="42.293" lon="-0.44705">
        <ele>1500.6</ele>
        <time>2018-07-22T06:39:23.000Z</time>
      </trkpt>
      <trkpt lat="42.292991" lon="-0.447053">
        <ele>1500.3</ele>
        <time>2018-07-22T06:39:24.000Z</time>
      </trkpt>
      <trkpt lat="42.292982" lon="-0.447055">
        <ele>1500.1</ele>
        <time>2018-07-22T06:39:25.000Z</time>
      </trkpt>
      <trkpt lat="42.292975" lon="-0.447059">
        <ele>1500.0</ele>
        <time>2018-07-22T06:39:26.000Z</time>
      </trkpt>
      <trkpt lat="42.29297" lon="-0.447066">
        <ele>1499.9</ele>
        <time>2018-07-22T06:39:27.000Z</time>
      </trkpt>
      <trkpt lat="42.292967" lon="-0.447073">
        <ele>1499.9</ele>
        <time>2018-07-22T06:39:28.000Z</time>
      </trkpt>
      <trkpt lat="42.292965" lon="-0.44708">
        <ele>1500.0</ele>
        <time>2018-07-22T06:39:29.000Z</time>
      </trkpt>
      <trkpt lat="42.292963" lon="-0.447084">
        <ele>1500.0</ele>
        <time>2018-07-22T06:39:30.000Z</time>
      </trkpt>
      <trkpt lat="42.292962" lon="-0.447089">
        <ele>1500.0</ele>
        <time>2018-07-22T06:39:31.000Z</time>
      </trkpt>
      <trkpt lat="42.292961" lon="-0.447095">
        <ele>1500.0</ele>
        <time>2018-07-22T06:39:32.000Z</time>
      </trkpt>
      <trkpt lat="42.292961" lon="-0.447106">
        <ele>1500.2</ele>
        <time>2018-07-22T06:39:33.000Z</time>
      </trkpt>
      <trkpt lat="42.292963" lon="-0.447114">
        <ele>1500.3</ele>
        <time>2018-07-22T06:39:34.000Z</time>
      </trkpt>
      <trkpt lat="42.292966" lon="-0.447116">
        <ele>1500.4</ele>
        <time>2018-07-22T06:39:35.000Z</time>
      </trkpt>
      <trkpt lat="42.292971" lon="-0.447114">
        <ele>1500.5</ele>
        <time>2018-07-22T06:39:36.000Z</time>
      </trkpt>
      <trkpt lat="42.292973" lon="-0.447115">
        <ele>1500.6</ele>
        <time>2018-07-22T06:39:37.000Z</time>
      </trkpt>
      <trkpt lat="42.292975" lon="-0.447123">
        <ele>1500.7</ele>
        <time>2018-07-22T06:39:38.000Z</time>
      </trkpt>
      <trkpt lat="42.292981" lon="-0.447108">
        <ele>1500.7</ele>
        <time>2018-07-22T06:43:35.000Z</time>
      </trkpt>
      <trkpt lat="42.292991" lon="-0.447101">
        <ele>1500.9</ele>
        <time>2018-07-22T06:43:36.000Z</time>
      </trkpt>
      <trkpt lat="42.293002" lon="-0.447096">
        <ele>1501.1</ele>
        <time>2018-07-22T06:43:37.000Z</time>
      </trkpt>
      <trkpt lat="42.293014" lon="-0.44709">
        <ele>1501.3</ele>
        <time>2018-07-22T06:43:38.000Z</time>
      </trkpt>
      <trkpt lat="42.293026" lon="-0.447083">
        <ele>1501.6</ele>
        <time>2018-07-22T06:43:39.000Z</time>
      </trkpt>
      <trkpt lat="42.293039" lon="-0.447076">
        <ele>1501.8</ele>
        <time>2018-07-22T06:43:40.000Z</time>
      </trkpt>
      <trkpt lat="42.293052" lon="-0.447069">
        <ele>1502.1</ele>
        <time>2018-07-22T06:43:41.000Z</time>
      </trkpt>
      <trkpt lat="42.293064" lon="-0.447065">
        <ele>1502.4</ele>
        <time>2018-07-22T06:43:42.000Z</time>
      </trkpt>
      <trkpt lat="42.293076" lon="-0.447061">
        <ele>1502.7</ele>
        <time>2018-07-22T06:43:43.000Z</time>
      </trkpt>
      <trkpt lat="42.293088" lon="-0.447059">
        <ele>1503.0</ele>
        <time>2018-07-22T06:43:44.000Z</time>
      </trkpt>
      <trkpt lat="42.293098" lon="-0.447059">
        <ele>1503.2</ele>
        <time>2018-07-22T06:43:45.000Z</time>
      </trkpt>
      <trkpt lat="42.293108" lon="-0.447059">
        <ele>1503.5</ele>
        <time>2018-07-22T06:43:46.000Z</time>
      </trkpt>
      <trkpt lat="42.293118" lon="-0.44706">
        <ele>1503.8</ele>
        <time>2018-07-22T06:43:47.000Z</time>
      </trkpt>
      <trkpt lat="42.293126" lon="-0.447062">
        <ele>1504.0</ele>
        <time>2018-07-22T06:43:48.000Z</time>
      </trkpt>
      <trkpt lat="42.293134" lon="-0.447064">
        <ele>1504.2</ele>
        <time>2018-07-22T06:43:49.000Z</time>
      </trkpt>
      <trkpt lat="42.293141" lon="-0.447067">
        <ele>1504.4</ele>
        <time>2018-07-22T06:43:50.000Z</time>
      </trkpt>
      <trkpt lat="42.293147" lon="-0.447069">
        <ele>1504.6</ele>
        <time>2018-07-22T06:43:51.000Z</time>
      </trkpt>
      <trkpt lat="42.293153" lon="-0.447072">
        <ele>1504.8</ele>
        <time>2018-07-22T06:43:52.000Z</time>
      </trkpt>
      <trkpt lat="42.293158" lon="-0.447074">
        <ele>1504.9</ele>
        <time>2018-07-22T06:43:53.000Z</time>
      </trkpt>
      <trkpt lat="42.293164" lon="-0.447075">
        <ele>1505.1</ele>
        <time>2018-07-22T06:43:54.000Z</time>
      </trkpt>
      <trkpt lat="42.293173" lon="-0.447075">
        <ele>1505.3</ele>
        <time>2018-07-22T06:43:55.000Z</time>
      </trkpt>
      <trkpt lat="42.29318" lon="-0.447073">
        <ele>1505.5</ele>
        <time>2018-07-22T06:43:56.000Z</time>
      </trkpt>
      <trkpt lat="42.293185" lon="-0.447069">
        <ele>1505.6</ele>
        <time>2018-07-22T06:43:57.000Z</time>
      </trkpt>
      <trkpt lat="42.293188" lon="-0.447066">
        <ele>1505.7</ele>
        <time>2018-07-22T06:43:58.000Z</time>
      </trkpt>
      <trkpt lat="42.29319" lon="-0.447063">
        <ele>1505.7</ele>
        <time>2018-07-22T06:43:59.000Z</time>
      </trkpt>
      <trkpt lat="42.293192" lon="-0.447061">
        <ele>1505.7</ele>
        <time>2018-07-22T06:44:00.000Z</time>
      </trkpt>
      <trkpt lat="42.293193" lon="-0.44706">
        <ele>1505.8</ele>
        <time>2018-07-22T06:44:01.000Z</time>
      </trkpt>
      <trkpt lat="42.293194" lon="-0.44706">
        <ele>1505.8</ele>
        <time>2018-07-22T06:44:02.000Z</time>
      </trkpt>
      <trkpt lat="42.293195" lon="-0.447059">
        <ele>1505.8</ele>
        <time>2018-07-22T06:44:03.000Z</time>
      </trkpt>
      <trkpt lat="42.293196" lon="-0.447058">
        <ele>1505.8</ele>
        <time>2018-07-22T06:44:04.000Z</time>
      </trkpt>
      <trkpt lat="42.293198" lon="-0.447057">
        <ele>1505.9</ele>
        <time>2018-07-22T06:44:05.000Z</time>
      </trkpt>
      <trkpt lat="42.2932" lon="-0.447056">
        <ele>1505.9</ele>
        <time>2018-07-22T06:44:06.000Z</time>
      </trkpt>
      <trkpt lat="42.293201" lon="-0.447055">
        <ele>1505.9</ele>
        <time>2018-07-22T06:44:07.000Z</time>
      </trkpt>
      <trkpt lat="42.293203" lon="-0.447054">
        <ele>1506.0</ele>
        <time>2018-07-22T06:44:08.000Z</time>
      </trkpt>
      <trkpt lat="42.293205" lon="-0.447052">
        <ele>1506.0</ele>
        <time>2018-07-22T06:44:09.000Z</time>
      </trkpt>
      <trkpt lat="42.293207" lon="-0.447051">
        <ele>1506.1</ele>
        <time>2018-07-22T06:44:10.000Z</time>
      </trkpt>
      <trkpt lat="42.293208" lon="-0.44705">
        <ele>1506.1</ele>
        <time>2018-07-22T06:44:11.000Z</time>
      </trkpt>
      <trkpt lat="42.293211" lon="-0.447048">
        <ele>1506.2</ele>
        <time>2018-07-22T06:44:12.000Z</time>
      </trkpt>
      <trkpt lat="42.293214" lon="-0.447046">
        <ele>1506.3</ele>
        <time>2018-07-22T06:44:13.000Z</time>
      </trkpt>
      <trkpt lat="42.29322" lon="-0.447043">
        <ele>1506.4</ele>
        <time>2018-07-22T06:44:14.000Z</time>
      </trkpt>
      <trkpt lat="42.293227" lon="-0.447037">
        <ele>1506.6</ele>
        <time>2018-07-22T06:44:15.000Z</time>
      </trkpt>
      <trkpt lat="42.29323" lon="-0.447032">
        <ele>1506.6</ele>
        <time>2018-07-22T06:44:16.000Z</time>
      </trkpt>
      <trkpt lat="42.293238" lon="-0.447026">
        <ele>1506.8</ele>
        <time>2018-07-22T06:44:17.000Z</time>
      </trkpt>
      <trkpt lat="42.293244" lon="-0.447022">
        <ele>1507.0</ele>
        <time>2018-07-22T06:44:18.000Z</time>
      </trkpt>
      <trkpt lat="42.293246" lon="-0.447019">
        <ele>1507.0</ele>
        <time>2018-07-22T06:44:19.000Z</time>
      </trkpt>
      <trkpt lat="42.293248" lon="-0.447017">
        <ele>1507.1</ele>
        <time>2018-07-22T06:44:20.000Z</time>
      </trkpt>
      <trkpt lat="42.29325" lon="-0.447014">
        <ele>1507.1</ele>
        <time>2018-07-22T06:44:21.000Z</time>
      </trkpt>
      <trkpt lat="42.293252" lon="-0.447012">
        <ele>1507.2</ele>
        <time>2018-07-22T06:44:22.000Z</time>
      </trkpt>
      <trkpt lat="42.293254" lon="-0.44701">
        <ele>1507.2</ele>
        <time>2018-07-22T06:44:23.000Z</time>
      </trkpt>
      <trkpt lat="42.293256" lon="-0.447008">
        <ele>1507.3</ele>
        <time>2018-07-22T06:44:24.000Z</time>
      </trkpt>
      <trkpt lat="42.293258" lon="-0.447007">
        <ele>1507.3</ele>
        <time>2018-07-22T06:44:25.000Z</time>
      </trkpt>
      <trkpt lat="42.293261" lon="-0.447005">
        <ele>1507.4</ele>
        <time>2018-07-22T06:44:26.000Z</time>
      </trkpt>
      <trkpt lat="42.293266" lon="-0.447001">
        <ele>1507.5</ele>
        <time>2018-07-22T06:44:27.000Z</time>
      </trkpt>
      <trkpt lat="42.29327" lon="-0.446997">
        <ele>1507.6</ele>
        <time>2018-07-22T06:44:28.000Z</time>
      </trkpt>
      <trkpt lat="42.293273" lon="-0.446995">
        <ele>1507.7</ele>
        <time>2018-07-22T06:44:29.000Z</time>
      </trkpt>
      <trkpt lat="42.293275" lon="-0.446993">
        <ele>1507.7</ele>
        <time>2018-07-22T06:44:30.000Z</time>
      </trkpt>
      <trkpt lat="42.293277" lon="-0.446992">
        <ele>1507.8</ele>
        <time>2018-07-22T06:44:31.000Z</time>
      </trkpt>
      <trkpt lat="42.293279" lon="-0.446991">
        <ele>1507.9</ele>
        <time>2018-07-22T06:44:32.000Z</time>
      </trkpt>
      <trkpt lat="42.293281" lon="-0.446989">
        <ele>1507.9</ele>
        <time>2018-07-22T06:44:33.000Z</time>
      </trkpt>
      <trkpt lat="42.293283" lon="-0.446988">
        <ele>1508.0</ele>
        <time>2018-07-22T06:44:34.000Z</time>
      </trkpt>
      <trkpt lat="42.293285" lon="-0.446987">
        <ele>1508.0</ele>
        <time>2018-07-22T06:44:35.000Z</time>
      </trkpt>
      <trkpt lat="42.293287" lon="-0.446986">
        <ele>1508.1</ele>
        <time>2018-07-22T06:44:36.000Z</time>
      </trkpt>
      <trkpt lat="42.293289" lon="-0.446984">
        <ele>1508.1</ele>
        <time>2018-07-22T06:44:37.000Z</time>
      </trkpt>
      <trkpt lat="42.293291" lon="-0.446983">
        <ele>1508.2</ele>
        <time>2018-07-22T06:44:38.000Z</time>
      </trkpt>
      <trkpt lat="42.293293" lon="-0.446981">
        <ele>1508.2</ele>
        <time>2018-07-22T06:44:39.000Z</time>
      </trkpt>
      <trkpt lat="42.293296" lon="-0.44698">
        <ele>1508.3</ele>
        <time>2018-07-22T06:44:40.000Z</time>
      </trkpt>
      <trkpt lat="42.293301" lon="-0.44698">
        <ele>1508.5</ele>
        <time>2018-07-22T06:44:41.000Z</time>
      </trkpt>
      <trkpt lat="42.293308" lon="-0.446983">
        <ele>1508.7</ele>
        <time>2018-07-22T06:44:42.000Z</time>
      </trkpt>
      <trkpt lat="42.293314" lon="-0.446985">
        <ele>1508.8</ele>
        <time>2018-07-22T06:44:43.000Z</time>
      </trkpt>
      <trkpt lat="42.293318" lon="-0.446989">
        <ele>1509.0</ele>
        <time>2018-07-22T06:44:44.000Z</time>
      </trkpt>
      <trkpt lat="42.293324" lon="-0.446997">
        <ele>1509.1</ele>
        <time>2018-07-22T06:44:45.000Z</time>
      </trkpt>
      <trkpt lat="42.29333" lon="-0.447009">
        <ele>1509.3</ele>
        <time>2018-07-22T06:44:46.000Z</time>
      </trkpt>
      <trkpt lat="42.293335" lon="-0.447021">
        <ele>1509.5</ele>
        <time>2018-07-22T06:44:47.000Z</time>
      </trkpt>
      <trkpt lat="42.293338" lon="-0.447032">
        <ele>1509.6</ele>
        <time>2018-07-22T06:44:48.000Z</time>
      </trkpt>
      <trkpt lat="42.293341" lon="-0.447044">
        <ele>1509.8</ele>
        <time>2018-07-22T06:44:49.000Z</time>
      </trkpt>
      <trkpt lat="42.293342" lon="-0.447057">
        <ele>1509.8</ele>
        <time>2018-07-22T06:44:50.000Z</time>
      </trkpt>
      <trkpt lat="42.293344" lon="-0.44707">
        <ele>1509.9</ele>
        <time>2018-07-22T06:44:51.000Z</time>
      </trkpt>
      <trkpt lat="42.293344" lon="-0.447086">
        <ele>1509.9</ele>
        <time>2018-07-22T06:44:52.000Z</time>
      </trkpt>
      <trkpt lat="42.293345" lon="-0.447103">
        <ele>1510.0</ele>
        <time>2018-07-22T06:44:53.000Z</time>
      </trkpt>
      <trkpt lat="42.293346" lon="-0.447121">
        <ele>1510.0</ele>
        <time>2018-07-22T06:44:54.000Z</time>
      </trkpt>
      <trkpt lat="42.293348" lon="-0.44714">
        <ele>1510.1</ele>
        <time>2018-07-22T06:44:55.000Z</time>
      </trkpt>
      <trkpt lat="42.293351" lon="-0.447157">
        <ele>1510.3</ele>
        <time>2018-07-22T06:44:56.000Z</time>
      </trkpt>
      <trkpt lat="42.293354" lon="-0.447174">
        <ele>1510.4</ele>
        <time>2018-07-22T06:44:57.000Z</time>
      </trkpt>
      <trkpt lat="42.293359" lon="-0.447187">
        <ele>1510.6</ele>
        <time>2018-07-22T06:44:58.000Z</time>
      </trkpt>
      <trkpt lat="42.293365" lon="-0.447198">
        <ele>1510.8</ele>
        <time>2018-07-22T06:44:59.000Z</time>
      </trkpt>
      <trkpt lat="42.293371" lon="-0.447207">
        <ele>1511.0</ele>
        <time>2018-07-22T06:45:00.000Z</time>
      </trkpt>
      <trkpt lat="42.293378" lon="-0.447215">
        <ele>1511.3</ele>
        <time>2018-07-22T06:45:01.000Z</time>
      </trkpt>
      <trkpt lat="42.293386" lon="-0.44722">
        <ele>1511.6</ele>
        <time>2018-07-22T06:45:02.000Z</time>
      </trkpt>
      <trkpt lat="42.293393" lon="-0.447224">
        <ele>1511.9</ele>
        <time>2018-07-22T06:45:03.000Z</time>
      </trkpt>
      <trkpt lat="42.293399" lon="-0.447227">
        <ele>1512.1</ele>
        <time>2018-07-22T06:45:04.000Z</time>
      </trkpt>
      <trkpt lat="42.293406" lon="-0.447229">
        <ele>1512.3</ele>
        <time>2018-07-22T06:45:05.000Z</time>
      </trkpt>
      <trkpt lat="42.293411" lon="-0.44723">
        <ele>1512.5</ele>
        <time>2018-07-22T06:45:06.000Z</time>
      </trkpt>
      <trkpt lat="42.293415" lon="-0.447231">
        <ele>1512.7</ele>
        <time>2018-07-22T06:45:07.000Z</time>
      </trkpt>
      <trkpt lat="42.293418" lon="-0.447232">
        <ele>1512.8</ele>
        <time>2018-07-22T06:45:08.000Z</time>
      </trkpt>
      <trkpt lat="42.293419" lon="-0.447232">
        <ele>1512.8</ele>
        <time>2018-07-22T06:45:09.000Z</time>
      </trkpt>
      <trkpt lat="42.29342" lon="-0.447234">
        <ele>1512.8</ele>
        <time>2018-07-22T06:45:10.000Z</time>
      </trkpt>
      <trkpt lat="42.293421" lon="-0.447236">
        <ele>1512.9</ele>
        <time>2018-07-22T06:45:11.000Z</time>
      </trkpt>
      <trkpt lat="42.293424" lon="-0.447241">
        <ele>1513.0</ele>
        <time>2018-07-22T06:45:12.000Z</time>
      </trkpt>
      <trkpt lat="42.293431" lon="-0.447248">
        <ele>1513.2</ele>
        <time>2018-07-22T06:45:13.000Z</time>
      </trkpt>
      <trkpt lat="42.293437" lon="-0.447253">
        <ele>1513.5</ele>
        <time>2018-07-22T06:45:14.000Z</time>
      </trkpt>
      <trkpt lat="42.293444" lon="-0.447256">
        <ele>1513.7</ele>
        <time>2018-07-22T06:45:15.000Z</time>
      </trkpt>
      <trkpt lat="42.293449" lon="-0.447258">
        <ele>1513.9</ele>
        <time>2018-07-22T06:45:16.000Z</time>
      </trkpt>
      <trkpt lat="42.293454" lon="-0.447259">
        <ele>1514.1</ele>
        <time>2018-07-22T06:45:17.000Z</time>
      </trkpt>
      <trkpt lat="42.293458" lon="-0.44726">
        <ele>1514.2</ele>
        <time>2018-07-22T06:45:18.000Z</time>
      </trkpt>
      <trkpt lat="42.293461" lon="-0.447261">
        <ele>1514.3</ele>
        <time>2018-07-22T06:45:19.000Z</time>
      </trkpt>
      <trkpt lat="42.293464" lon="-0.44726">
        <ele>1514.4</ele>
        <time>2018-07-22T06:45:20.000Z</time>
      </trkpt>
      <trkpt lat="42.293466" lon="-0.44726">
        <ele>1514.5</ele>
        <time>2018-07-22T06:45:21.000Z</time>
      </trkpt>
      <trkpt lat="42.293468" lon="-0.44726">
        <ele>1514.6</ele>
        <time>2018-07-22T06:45:22.000Z</time>
      </trkpt>
      <trkpt lat="42.293471" lon="-0.44726">
        <ele>1514.7</ele>
        <time>2018-07-22T06:45:23.000Z</time>
      </trkpt>
      <trkpt lat="42.293475" lon="-0.44726">
        <ele>1514.8</ele>
        <time>2018-07-22T06:45:24.000Z</time>
      </trkpt>
      <trkpt lat="42.293479" lon="-0.447261">
        <ele>1515.0</ele>
        <time>2018-07-22T06:45:25.000Z</time>
      </trkpt>
      <trkpt lat="42.293484" lon="-0.447263">
        <ele>1515.1</ele>
        <time>2018-07-22T06:45:26.000Z</time>
      </trkpt>
      <trkpt lat="42.293485" lon="-0.447264">
        <ele>1515.2</ele>
        <time>2018-07-22T06:45:27.000Z</time>
      </trkpt>
      <trkpt lat="42.293487" lon="-0.447263">
        <ele>1515.2</ele>
        <time>2018-07-22T06:45:28.000Z</time>
      </trkpt>
      <trkpt lat="42.293491" lon="-0.447262">
        <ele>1515.4</ele>
        <time>2018-07-22T06:45:29.000Z</time>
      </trkpt>
      <trkpt lat="42.293494" lon="-0.447261">
        <ele>1515.5</ele>
        <time>2018-07-22T06:45:30.000Z</time>
      </trkpt>
      <trkpt lat="42.293497" lon="-0.447261">
        <ele>1515.6</ele>
        <time>2018-07-22T06:45:31.000Z</time>
      </trkpt>
      <trkpt lat="42.2935" lon="-0.44726">
        <ele>1515.7</ele>
        <time>2018-07-22T06:45:32.000Z</time>
      </trkpt>
      <trkpt lat="42.293502" lon="-0.44726">
        <ele>1515.8</ele>
        <time>2018-07-22T06:45:33.000Z</time>
      </trkpt>
      <trkpt lat="42.293504" lon="-0.44726">
        <ele>1515.9</ele>
        <time>2018-07-22T06:45:34.000Z</time>
      </trkpt>
      <trkpt lat="42.293506" lon="-0.44726">
        <ele>1515.9</ele>
        <time>2018-07-22T06:45:35.000Z</time>
      </trkpt>
      <trkpt lat="42.293508" lon="-0.44726">
        <ele>1516.0</ele>
        <time>2018-07-22T06:45:36.000Z</time>
      </trkpt>
      <trkpt lat="42.29351" lon="-0.44726">
        <ele>1516.1</ele>
        <time>2018-07-22T06:45:37.000Z</time>
      </trkpt>
      <trkpt lat="42.293513" lon="-0.44726">
        <ele>1516.2</ele>
        <time>2018-07-22T06:45:38.000Z</time>
      </trkpt>
      <trkpt lat="42.293516" lon="-0.44726">
        <ele>1516.3</ele>
        <time>2018-07-22T06:45:39.000Z</time>
      </trkpt>
      <trkpt lat="42.293519" lon="-0.44726">
        <ele>1516.4</ele>
        <time>2018-07-22T06:45:40.000Z</time>
      </trkpt>
      <trkpt lat="42.293522" lon="-0.44726">
        <ele>1516.5</ele>
        <time>2018-07-22T06:45:41.000Z</time>
      </trkpt>
      <trkpt lat="42.293525" lon="-0.447259">
        <ele>1516.6</ele>
        <time>2018-07-22T06:45:42.000Z</time>
      </trkpt>
      <trkpt lat="42.293528" lon="-0.447258">
        <ele>1516.7</ele>
        <time>2018-07-22T06:45:43.000Z</time>
      </trkpt>
      <trkpt lat="42.293532" lon="-0.447257">
        <ele>1516.9</ele>
        <time>2018-07-22T06:45:44.000Z</time>
      </trkpt>
      <trkpt lat="42.293535" lon="-0.447255">
        <ele>1517.0</ele>
        <time>2018-07-22T06:45:45.000Z</time>
      </trkpt>
      <trkpt lat="42.293538" lon="-0.447254">
        <ele>1517.1</ele>
        <time>2018-07-22T06:45:46.000Z</time>
      </trkpt>
      <trkpt lat="42.29354" lon="-0.447253">
        <ele>1517.2</ele>
        <time>2018-07-22T06:45:47.000Z</time>
      </trkpt>
      <trkpt lat="42.293542" lon="-0.447252">
        <ele>1517.3</ele>
        <time>2018-07-22T06:45:48.000Z</time>
      </trkpt>
      <trkpt lat="42.293544" lon="-0.447251">
        <ele>1517.3</ele>
        <time>2018-07-22T06:45:49.000Z</time>
      </trkpt>
      <trkpt lat="42.293546" lon="-0.44725">
        <ele>1517.4</ele>
        <time>2018-07-22T06:45:50.000Z</time>
      </trkpt>
      <trkpt lat="42.293547" lon="-0.447249">
        <ele>1517.4</ele>
        <time>2018-07-22T06:45:51.000Z</time>
      </trkpt>
      <trkpt lat="42.293549" lon="-0.447249">
        <ele>1517.5</ele>
        <time>2018-07-22T06:45:52.000Z</time>
      </trkpt>
      <trkpt lat="42.29355" lon="-0.447248">
        <ele>1517.6</ele>
        <time>2018-07-22T06:45:53.000Z</time>
      </trkpt>
      <trkpt lat="42.293551" lon="-0.447247">
        <ele>1517.6</ele>
        <time>2018-07-22T06:45:54.000Z</time>
      </trkpt>
      <trkpt lat="42.293552" lon="-0.447247">
        <ele>1517.6</ele>
        <time>2018-07-22T06:45:55.000Z</time>
      </trkpt>
      <trkpt lat="42.293554" lon="-0.447246">
        <ele>1517.7</ele>
        <time>2018-07-22T06:45:56.000Z</time>
      </trkpt>
      <trkpt lat="42.293555" lon="-0.447245">
        <ele>1517.7</ele>
        <time>2018-07-22T06:45:57.000Z</time>
      </trkpt>
      <trkpt lat="42.293556" lon="-0.447244">
        <ele>1517.8</ele>
        <time>2018-07-22T06:45:58.000Z</time>
      </trkpt>
      <trkpt lat="42.293559" lon="-0.447243">
        <ele>1517.9</ele>
        <time>2018-07-22T06:45:59.000Z</time>
      </trkpt>
      <trkpt lat="42.293567" lon="-0.447235">
        <ele>1518.2</ele>
        <time>2018-07-22T06:46:00.000Z</time>
      </trkpt>
      <trkpt lat="42.293577" lon="-0.447223">
        <ele>1518.6</ele>
        <time>2018-07-22T06:46:01.000Z</time>
      </trkpt>
      <trkpt lat="42.293585" lon="-0.447215">
        <ele>1519.0</ele>
        <time>2018-07-22T06:46:02.000Z</time>
      </trkpt>
      <trkpt lat="42.293589" lon="-0.44721">
        <ele>1519.1</ele>
        <time>2018-07-22T06:46:03.000Z</time>
      </trkpt>
      <trkpt lat="42.293591" lon="-0.447207">
        <ele>1519.2</ele>
        <time>2018-07-22T06:46:04.000Z</time>
      </trkpt>
      <trkpt lat="42.293593" lon="-0.447205">
        <ele>1519.3</ele>
        <time>2018-07-22T06:46:05.000Z</time>
      </trkpt>
      <trkpt lat="42.293594" lon="-0.447203">
        <ele>1519.3</ele>
        <time>2018-07-22T06:46:06.000Z</time>
      </trkpt>
      <trkpt lat="42.293595" lon="-0.447201">
        <ele>1519.4</ele>
        <time>2018-07-22T06:46:07.000Z</time>
      </trkpt>
      <trkpt lat="42.293596" lon="-0.4472">
        <ele>1519.4</ele>
        <time>2018-07-22T06:46:08.000Z</time>
      </trkpt>
      <trkpt lat="42.293598" lon="-0.447198">
        <ele>1519.5</ele>
        <time>2018-07-22T06:46:09.000Z</time>
      </trkpt>
      <trkpt lat="42.293601" lon="-0.447195">
        <ele>1519.6</ele>
        <time>2018-07-22T06:46:10.000Z</time>
      </trkpt>
      <trkpt lat="42.293612" lon="-0.447188">
        <ele>1520.1</ele>
        <time>2018-07-22T06:46:11.000Z</time>
      </trkpt>
      <trkpt lat="42.293621" lon="-0.44718">
        <ele>1520.4</ele>
        <time>2018-07-22T06:46:12.000Z</time>
      </trkpt>
      <trkpt lat="42.293627" lon="-0.447174">
        <ele>1520.7</ele>
        <time>2018-07-22T06:46:13.000Z</time>
      </trkpt>
      <trkpt lat="42.293631" lon="-0.44717">
        <ele>1520.9</ele>
        <time>2018-07-22T06:46:14.000Z</time>
      </trkpt>
      <trkpt lat="42.293633" lon="-0.447167">
        <ele>1521.0</ele>
        <time>2018-07-22T06:46:15.000Z</time>
      </trkpt>
      <trkpt lat="42.293634" lon="-0.447165">
        <ele>1521.0</ele>
        <time>2018-07-22T06:46:16.000Z</time>
      </trkpt>
      <trkpt lat="42.293635" lon="-0.447163">
        <ele>1521.1</ele>
        <time>2018-07-22T06:46:17.000Z</time>
      </trkpt>
      <trkpt lat="42.293637" lon="-0.447161">
        <ele>1521.1</ele>
        <time>2018-07-22T06:46:18.000Z</time>
      </trkpt>
      <trkpt lat="42.293638" lon="-0.447159">
        <ele>1521.2</ele>
        <time>2018-07-22T06:46:19.000Z</time>
      </trkpt>
      <trkpt lat="42.29364" lon="-0.447157">
        <ele>1521.3</ele>
        <time>2018-07-22T06:46:20.000Z</time>
      </trkpt>
      <trkpt lat="42.293641" lon="-0.447156">
        <ele>1521.3</ele>
        <time>2018-07-22T06:46:21.000Z</time>
      </trkpt>
      <trkpt lat="42.293642" lon="-0.447154">
        <ele>1521.4</ele>
        <time>2018-07-22T06:46:22.000Z</time>
      </trkpt>
      <trkpt lat="42.293643" lon="-0.447153">
        <ele>1521.4</ele>
        <time>2018-07-22T06:46:23.000Z</time>
      </trkpt>
      <trkpt lat="42.293644" lon="-0.447151">
        <ele>1521.5</ele>
        <time>2018-07-22T06:46:24.000Z</time>
      </trkpt>
      <trkpt lat="42.293646" lon="-0.44715">
        <ele>1521.5</ele>
        <time>2018-07-22T06:46:25.000Z</time>
      </trkpt>
      <trkpt lat="42.293651" lon="-0.447147">
        <ele>1521.7</ele>
        <time>2018-07-22T06:46:26.000Z</time>
      </trkpt>
      <trkpt lat="42.29366" lon="-0.447143">
        <ele>1522.1</ele>
        <time>2018-07-22T06:46:27.000Z</time>
      </trkpt>
      <trkpt lat="42.29367" lon="-0.447139">
        <ele>1522.5</ele>
        <time>2018-07-22T06:46:28.000Z</time>
      </trkpt>
      <trkpt lat="42.293678" lon="-0.447136">
        <ele>1522.8</ele>
        <time>2018-07-22T06:46:29.000Z</time>
      </trkpt>
      <trkpt lat="42.293684" lon="-0.447133">
        <ele>1523.1</ele>
        <time>2018-07-22T06:46:30.000Z</time>
      </trkpt>
      <trkpt lat="42.293687" lon="-0.447132">
        <ele>1523.2</ele>
        <time>2018-07-22T06:46:31.000Z</time>
      </trkpt>
      <trkpt lat="42.293688" lon="-0.447131">
        <ele>1523.3</ele>
        <time>2018-07-22T06:46:32.000Z</time>
      </trkpt>
      <trkpt lat="42.293689" lon="-0.447131">
        <ele>1523.3</ele>
        <time>2018-07-22T06:46:33.000Z</time>
      </trkpt>
      <trkpt lat="42.29369" lon="-0.44713">
        <ele>1523.3</ele>
        <time>2018-07-22T06:46:34.000Z</time>
      </trkpt>
      <trkpt lat="42.293691" lon="-0.447129">
        <ele>1523.4</ele>
        <time>2018-07-22T06:46:35.000Z</time>
      </trkpt>
      <trkpt lat="42.293693" lon="-0.447128">
        <ele>1523.5</ele>
        <time>2018-07-22T06:46:36.000Z</time>
      </trkpt>
      <trkpt lat="42.293697" lon="-0.447127">
        <ele>1523.6</ele>
        <time>2018-07-22T06:46:37.000Z</time>
      </trkpt>
      <trkpt lat="42.293701" lon="-0.447127">
        <ele>1523.8</ele>
        <time>2018-07-22T06:46:38.000Z</time>
      </trkpt>
      <trkpt lat="42.293706" lon="-0.447127">
        <ele>1524.0</ele>
        <time>2018-07-22T06:46:39.000Z</time>
      </trkpt>
      <trkpt lat="42.293711" lon="-0.447127">
        <ele>1524.2</ele>
        <time>2018-07-22T06:46:40.000Z</time>
      </trkpt>
      <trkpt lat="42.29372" lon="-0.447126">
        <ele>1524.5</ele>
        <time>2018-07-22T06:46:41.000Z</time>
      </trkpt>
      <trkpt lat="42.293726" lon="-0.447125">
        <ele>1524.8</ele>
        <time>2018-07-22T06:46:42.000Z</time>
      </trkpt>
      <trkpt lat="42.293737" lon="-0.447126">
        <ele>1525.2</ele>
        <time>2018-07-22T06:46:43.000Z</time>
      </trkpt>
      <trkpt lat="42.293743" lon="-0.447126">
        <ele>1525.4</ele>
        <time>2018-07-22T06:46:44.000Z</time>
      </trkpt>
      <trkpt lat="42.293746" lon="-0.447126">
        <ele>1525.5</ele>
        <time>2018-07-22T06:46:45.000Z</time>
      </trkpt>
      <trkpt lat="42.293748" lon="-0.447126">
        <ele>1525.6</ele>
        <time>2018-07-22T06:46:46.000Z</time>
      </trkpt>
      <trkpt lat="42.29375" lon="-0.447126">
        <ele>1525.7</ele>
        <time>2018-07-22T06:46:47.000Z</time>
      </trkpt>
      <trkpt lat="42.293753" lon="-0.447126">
        <ele>1525.8</ele>
        <time>2018-07-22T06:46:48.000Z</time>
      </trkpt>
      <trkpt lat="42.293755" lon="-0.447125">
        <ele>1525.9</ele>
        <time>2018-07-22T06:46:49.000Z</time>
      </trkpt>
      <trkpt lat="42.293759" lon="-0.447126">
        <ele>1526.0</ele>
        <time>2018-07-22T06:46:50.000Z</time>
      </trkpt>
      <trkpt lat="42.293766" lon="-0.447129">
        <ele>1526.3</ele>
        <time>2018-07-22T06:46:51.000Z</time>
      </trkpt>
      <trkpt lat="42.293777" lon="-0.447135">
        <ele>1526.7</ele>
        <time>2018-07-22T06:46:52.000Z</time>
      </trkpt>
      <trkpt lat="42.293787" lon="-0.447139">
        <ele>1527.0</ele>
        <time>2018-07-22T06:46:53.000Z</time>
      </trkpt>
      <trkpt lat="42.293793" lon="-0.447139">
        <ele>1527.3</ele>
        <time>2018-07-22T06:46:54.000Z</time>
      </trkpt>
      <trkpt lat="42.293798" lon="-0.44714">
        <ele>1527.4</ele>
        <time>2018-07-22T06:46:55.000Z</time>
      </trkpt>
      <trkpt lat="42.293803" lon="-0.44714">
        <ele>1527.6</ele>
        <time>2018-07-22T06:46:56.000Z</time>
      </trkpt>
      <trkpt lat="42.293808" lon="-0.447141">
        <ele>1527.8</ele>
        <time>2018-07-22T06:46:57.000Z</time>
      </trkpt>
      <trkpt lat="42.293811" lon="-0.447142">
        <ele>1527.9</ele>
        <time>2018-07-22T06:46:58.000Z</time>
      </trkpt>
      <trkpt lat="42.293814" lon="-0.447142">
        <ele>1528.0</ele>
        <time>2018-07-22T06:46:59.000Z</time>
      </trkpt>
      <trkpt lat="42.293816" lon="-0.447142">
        <ele>1528.1</ele>
        <time>2018-07-22T06:47:00.000Z</time>
      </trkpt>
      <trkpt lat="42.293818" lon="-0.447142">
        <ele>1528.2</ele>
        <time>2018-07-22T06:47:01.000Z</time>
      </trkpt>
      <trkpt lat="42.293821" lon="-0.447142">
        <ele>1528.3</ele>
        <time>2018-07-22T06:47:02.000Z</time>
      </trkpt>
      <trkpt lat="42.293824" lon="-0.447142">
        <ele>1528.4</ele>
        <time>2018-07-22T06:47:03.000Z</time>
      </trkpt>
      <trkpt lat="42.293826" lon="-0.447142">
        <ele>1528.5</ele>
        <time>2018-07-22T06:47:04.000Z</time>
      </trkpt>
      <trkpt lat="42.293829" lon="-0.447142">
        <ele>1528.6</ele>
        <time>2018-07-22T06:47:05.000Z</time>
      </trkpt>
      <trkpt lat="42.293831" lon="-0.447142">
        <ele>1528.7</ele>
        <time>2018-07-22T06:47:06.000Z</time>
      </trkpt>
      <trkpt lat="42.293837" lon="-0.447141">
        <ele>1528.9</ele>
        <time>2018-07-22T06:47:07.000Z</time>
      </trkpt>
      <trkpt lat="42.293848" lon="-0.44714">
        <ele>1529.4</ele>
        <time>2018-07-22T06:47:08.000Z</time>
      </trkpt>
      <trkpt lat="42.293856" lon="-0.447139">
        <ele>1529.7</ele>
        <time>2018-07-22T06:47:09.000Z</time>
      </trkpt>
      <trkpt lat="42.29386" lon="-0.447138">
        <ele>1529.8</ele>
        <time>2018-07-22T06:47:10.000Z</time>
      </trkpt>
      <trkpt lat="42.293863" lon="-0.447137">
        <ele>1530.0</ele>
        <time>2018-07-22T06:47:11.000Z</time>
      </trkpt>
      <trkpt lat="42.293866" lon="-0.447136">
        <ele>1530.1</ele>
        <time>2018-07-22T06:47:12.000Z</time>
      </trkpt>
      <trkpt lat="42.293868" lon="-0.447135">
        <ele>1530.2</ele>
        <time>2018-07-22T06:47:13.000Z</time>
      </trkpt>
      <trkpt lat="42.293869" lon="-0.447135">
        <ele>1530.2</ele>
        <time>2018-07-22T06:47:14.000Z</time>
      </trkpt>
      <trkpt lat="42.293871" lon="-0.447135">
        <ele>1530.3</ele>
        <time>2018-07-22T06:47:15.000Z</time>
      </trkpt>
      <trkpt lat="42.293874" lon="-0.447134">
        <ele>1530.4</ele>
        <time>2018-07-22T06:47:16.000Z</time>
      </trkpt>
      <trkpt lat="42.293878" lon="-0.447133">
        <ele>1530.6</ele>
        <time>2018-07-22T06:47:17.000Z</time>
      </trkpt>
      <trkpt lat="42.293881" lon="-0.447132">
        <ele>1530.7</ele>
        <time>2018-07-22T06:47:18.000Z</time>
      </trkpt>
      <trkpt lat="42.293886" lon="-0.447132">
        <ele>1530.9</ele>
        <time>2018-07-22T06:47:19.000Z</time>
      </trkpt>
      <trkpt lat="42.293893" lon="-0.447131">
        <ele>1531.2</ele>
        <time>2018-07-22T06:47:20.000Z</time>
      </trkpt>
      <trkpt lat="42.293902" lon="-0.447131">
        <ele>1531.5</ele>
        <time>2018-07-22T06:47:21.000Z</time>
      </trkpt>
      <trkpt lat="42.29391" lon="-0.44713">
        <ele>1531.8</ele>
        <time>2018-07-22T06:47:22.000Z</time>
      </trkpt>
      <trkpt lat="42.293915" lon="-0.44713">
        <ele>1532.0</ele>
        <time>2018-07-22T06:47:23.000Z</time>
      </trkpt>
      <trkpt lat="42.293916" lon="-0.447131">
        <ele>1532.1</ele>
        <time>2018-07-22T06:47:24.000Z</time>
      </trkpt>
      <trkpt lat="42.293917" lon="-0.447131">
        <ele>1532.1</ele>
        <time>2018-07-22T06:47:25.000Z</time>
      </trkpt>
      <trkpt lat="42.293917" lon="-0.447131">
        <ele>1532.1</ele>
        <time>2018-07-22T06:47:26.000Z</time>
      </trkpt>
      <trkpt lat="42.293917" lon="-0.447131">
        <ele>1532.1</ele>
        <time>2018-07-22T06:47:27.000Z</time>
      </trkpt>
      <trkpt lat="42.293918" lon="-0.447131">
        <ele>1532.1</ele>
        <time>2018-07-22T06:47:28.000Z</time>
      </trkpt>
      <trkpt lat="42.293921" lon="-0.447131">
        <ele>1532.3</ele>
        <time>2018-07-22T06:47:29.000Z</time>
      </trkpt>
      <trkpt lat="42.293924" lon="-0.447131">
        <ele>1532.4</ele>
        <time>2018-07-22T06:47:30.000Z</time>
      </trkpt>
      <trkpt lat="42.293927" lon="-0.447132">
        <ele>1532.5</ele>
        <time>2018-07-22T06:47:31.000Z</time>
      </trkpt>
      <trkpt lat="42.293929" lon="-0.447132">
        <ele>1532.6</ele>
        <time>2018-07-22T06:47:32.000Z</time>
      </trkpt>
      <trkpt lat="42.293932" lon="-0.447133">
        <ele>1532.7</ele>
        <time>2018-07-22T06:47:33.000Z</time>
      </trkpt>
      <trkpt lat="42.293937" lon="-0.447134">
        <ele>1532.8</ele>
        <time>2018-07-22T06:47:34.000Z</time>
      </trkpt>
      <trkpt lat="42.293944" lon="-0.447137">
        <ele>1533.1</ele>
        <time>2018-07-22T06:47:35.000Z</time>
      </trkpt>
      <trkpt lat="42.293956" lon="-0.447143">
        <ele>1533.5</ele>
        <time>2018-07-22T06:47:36.000Z</time>
      </trkpt>
      <trkpt lat="42.293966" lon="-0.447147">
        <ele>1533.8</ele>
        <time>2018-07-22T06:47:37.000Z</time>
      </trkpt>
      <trkpt lat="42.293971" lon="-0.447149">
        <ele>1534.0</ele>
        <time>2018-07-22T06:47:38.000Z</time>
      </trkpt>
      <trkpt lat="42.293975" lon="-0.447152">
        <ele>1534.1</ele>
        <time>2018-07-22T06:47:39.000Z</time>
      </trkpt>
      <trkpt lat="42.293977" lon="-0.447154">
        <ele>1534.2</ele>
        <time>2018-07-22T06:47:40.000Z</time>
      </trkpt>
      <trkpt lat="42.29398" lon="-0.447155">
        <ele>1534.3</ele>
        <time>2018-07-22T06:47:41.000Z</time>
      </trkpt>
      <trkpt lat="42.293982" lon="-0.447157">
        <ele>1534.3</ele>
        <time>2018-07-22T06:47:42.000Z</time>
      </trkpt>
      <trkpt lat="42.293985" lon="-0.447159">
        <ele>1534.4</ele>
        <time>2018-07-22T06:47:43.000Z</time>
      </trkpt>
      <trkpt lat="42.293987" lon="-0.44716">
        <ele>1534.5</ele>
        <time>2018-07-22T06:47:44.000Z</time>
      </trkpt>
      <trkpt lat="42.293989" lon="-0.447162">
        <ele>1534.5</ele>
        <time>2018-07-22T06:47:45.000Z</time>
      </trkpt>
      <trkpt lat="42.293991" lon="-0.447163">
        <ele>1534.6</ele>
        <time>2018-07-22T06:47:46.000Z</time>
      </trkpt>
      <trkpt lat="42.293995" lon="-0.447165">
        <ele>1534.7</ele>
        <time>2018-07-22T06:47:47.000Z</time>
      </trkpt>
      <trkpt lat="42.294004" lon="-0.447169">
        <ele>1535.0</ele>
        <time>2018-07-22T06:47:48.000Z</time>
      </trkpt>
      <trkpt lat="42.294016" lon="-0.447176">
        <ele>1535.4</ele>
        <time>2018-07-22T06:47:49.000Z</time>
      </trkpt>
      <trkpt lat="42.294022" lon="-0.44718">
        <ele>1535.5</ele>
        <time>2018-07-22T06:47:50.000Z</time>
      </trkpt>
      <trkpt lat="42.294026" lon="-0.447182">
        <ele>1535.7</ele>
        <time>2018-07-22T06:47:51.000Z</time>
      </trkpt>
      <trkpt lat="42.29403" lon="-0.447185">
        <ele>1535.8</ele>
        <time>2018-07-22T06:47:52.000Z</time>
      </trkpt>
      <trkpt lat="42.294033" lon="-0.447187">
        <ele>1535.9</ele>
        <time>2018-07-22T06:47:53.000Z</time>
      </trkpt>
      <trkpt lat="42.294037" lon="-0.447189">
        <ele>1536.0</ele>
        <time>2018-07-22T06:47:54.000Z</time>
      </trkpt>
      <trkpt lat="42.29404" lon="-0.447191">
        <ele>1536.1</ele>
        <time>2018-07-22T06:47:55.000Z</time>
      </trkpt>
      <trkpt lat="42.294042" lon="-0.447192">
        <ele>1536.1</ele>
        <time>2018-07-22T06:47:56.000Z</time>
      </trkpt>
      <trkpt lat="42.294044" lon="-0.447194">
        <ele>1536.2</ele>
        <time>2018-07-22T06:47:57.000Z</time>
      </trkpt>
      <trkpt lat="42.294047" lon="-0.447195">
        <ele>1536.3</ele>
        <time>2018-07-22T06:47:58.000Z</time>
      </trkpt>
      <trkpt lat="42.294049" lon="-0.447197">
        <ele>1536.3</ele>
        <time>2018-07-22T06:47:59.000Z</time>
      </trkpt>
      <trkpt lat="42.294054" lon="-0.447199">
        <ele>1536.5</ele>
        <time>2018-07-22T06:48:00.000Z</time>
      </trkpt>
      <trkpt lat="42.294062" lon="-0.447201">
        <ele>1536.8</ele>
        <time>2018-07-22T06:48:01.000Z</time>
      </trkpt>
      <trkpt lat="42.294069" lon="-0.447204">
        <ele>1537.0</ele>
        <time>2018-07-22T06:48:02.000Z</time>
      </trkpt>
      <trkpt lat="42.294075" lon="-0.447207">
        <ele>1537.2</ele>
        <time>2018-07-22T06:48:03.000Z</time>
      </trkpt>
      <trkpt lat="42.294079" lon="-0.447208">
        <ele>1537.3</ele>
        <time>2018-07-22T06:48:04.000Z</time>
      </trkpt>
      <trkpt lat="42.294082" lon="-0.44721">
        <ele>1537.4</ele>
        <time>2018-07-22T06:48:05.000Z</time>
      </trkpt>
      <trkpt lat="42.294085" lon="-0.447211">
        <ele>1537.5</ele>
        <time>2018-07-22T06:48:06.000Z</time>
      </trkpt>
      <trkpt lat="42.294087" lon="-0.447211">
        <ele>1537.6</ele>
        <time>2018-07-22T06:48:07.000Z</time>
      </trkpt>
      <trkpt lat="42.29409" lon="-0.447213">
        <ele>1537.6</ele>
        <time>2018-07-22T06:48:08.000Z</time>
      </trkpt>
      <trkpt lat="42.294092" lon="-0.447214">
        <ele>1537.7</ele>
        <time>2018-07-22T06:48:09.000Z</time>
      </trkpt>
      <trkpt lat="42.294095" lon="-0.447216">
        <ele>1537.8</ele>
        <time>2018-07-22T06:48:10.000Z</time>
      </trkpt>
      <trkpt lat="42.294097" lon="-0.447217">
        <ele>1537.8</ele>
        <time>2018-07-22T06:48:11.000Z</time>
      </trkpt>
      <trkpt lat="42.294099" lon="-0.447218">
        <ele>1537.9</ele>
        <time>2018-07-22T06:48:12.000Z</time>
      </trkpt>
      <trkpt lat="42.294101" lon="-0.447218">
        <ele>1538.0</ele>
        <time>2018-07-22T06:48:13.000Z</time>
      </trkpt>
      <trkpt lat="42.294104" lon="-0.447219">
        <ele>1538.1</ele>
        <time>2018-07-22T06:48:14.000Z</time>
      </trkpt>
      <trkpt lat="42.294108" lon="-0.447221">
        <ele>1538.2</ele>
        <time>2018-07-22T06:48:15.000Z</time>
      </trkpt>
      <trkpt lat="42.294111" lon="-0.447223">
        <ele>1538.3</ele>
        <time>2018-07-22T06:48:16.000Z</time>
      </trkpt>
      <trkpt lat="42.294114" lon="-0.447223">
        <ele>1538.4</ele>
        <time>2018-07-22T06:48:17.000Z</time>
      </trkpt>
      <trkpt lat="42.294116" lon="-0.447224">
        <ele>1538.4</ele>
        <time>2018-07-22T06:48:18.000Z</time>
      </trkpt>
      <trkpt lat="42.294117" lon="-0.447225">
        <ele>1538.5</ele>
        <time>2018-07-22T06:48:19.000Z</time>
      </trkpt>
      <trkpt lat="42.294119" lon="-0.447225">
        <ele>1538.5</ele>
        <time>2018-07-22T06:48:20.000Z</time>
      </trkpt>
      <trkpt lat="42.29412" lon="-0.447226">
        <ele>1538.6</ele>
        <time>2018-07-22T06:48:21.000Z</time>
      </trkpt>
      <trkpt lat="42.294121" lon="-0.447226">
        <ele>1538.6</ele>
        <time>2018-07-22T06:48:22.000Z</time>
      </trkpt>
      <trkpt lat="42.294122" lon="-0.447227">
        <ele>1538.6</ele>
        <time>2018-07-22T06:48:23.000Z</time>
      </trkpt>
      <trkpt lat="42.294123" lon="-0.447227">
        <ele>1538.7</ele>
        <time>2018-07-22T06:48:24.000Z</time>
      </trkpt>
      <trkpt lat="42.294125" lon="-0.447227">
        <ele>1538.7</ele>
        <time>2018-07-22T06:48:25.000Z</time>
      </trkpt>
      <trkpt lat="42.294126" lon="-0.447228">
        <ele>1538.8</ele>
        <time>2018-07-22T06:48:26.000Z</time>
      </trkpt>
      <trkpt lat="42.294127" lon="-0.447228">
        <ele>1538.8</ele>
        <time>2018-07-22T06:48:27.000Z</time>
      </trkpt>
      <trkpt lat="42.294128" lon="-0.447228">
        <ele>1538.8</ele>
        <time>2018-07-22T06:48:28.000Z</time>
      </trkpt>
      <trkpt lat="42.294129" lon="-0.447228">
        <ele>1538.9</ele>
        <time>2018-07-22T06:48:29.000Z</time>
      </trkpt>
      <trkpt lat="42.294131" lon="-0.447228">
        <ele>1538.9</ele>
        <time>2018-07-22T06:48:30.000Z</time>
      </trkpt>
      <trkpt lat="42.294132" lon="-0.447228">
        <ele>1539.0</ele>
        <time>2018-07-22T06:48:31.000Z</time>
      </trkpt>
      <trkpt lat="42.294133" lon="-0.447228">
        <ele>1539.0</ele>
        <time>2018-07-22T06:48:32.000Z</time>
      </trkpt>
      <trkpt lat="42.294134" lon="-0.447228">
        <ele>1539.0</ele>
        <time>2018-07-22T06:48:33.000Z</time>
      </trkpt>
      <trkpt lat="42.294135" lon="-0.447228">
        <ele>1539.1</ele>
        <time>2018-07-22T06:48:34.000Z</time>
      </trkpt>
      <trkpt lat="42.294136" lon="-0.447228">
        <ele>1539.1</ele>
        <time>2018-07-22T06:48:35.000Z</time>
      </trkpt>
      <trkpt lat="42.294138" lon="-0.447228">
        <ele>1539.2</ele>
        <time>2018-07-22T06:48:36.000Z</time>
      </trkpt>
      <trkpt lat="42.294139" lon="-0.447228">
        <ele>1539.2</ele>
        <time>2018-07-22T06:48:37.000Z</time>
      </trkpt>
      <trkpt lat="42.29414" lon="-0.447228">
        <ele>1539.3</ele>
        <time>2018-07-22T06:48:38.000Z</time>
      </trkpt>
      <trkpt lat="42.294141" lon="-0.447227">
        <ele>1539.3</ele>
        <time>2018-07-22T06:48:39.000Z</time>
      </trkpt>
      <trkpt lat="42.294142" lon="-0.447227">
        <ele>1539.4</ele>
        <time>2018-07-22T06:48:40.000Z</time>
      </trkpt>
      <trkpt lat="42.294144" lon="-0.447227">
        <ele>1539.4</ele>
        <time>2018-07-22T06:48:41.000Z</time>
      </trkpt>
      <trkpt lat="42.294145" lon="-0.447226">
        <ele>1539.5</ele>
        <time>2018-07-22T06:48:42.000Z</time>
      </trkpt>
      <trkpt lat="42.294146" lon="-0.447226">
        <ele>1539.5</ele>
        <time>2018-07-22T06:48:43.000Z</time>
      </trkpt>
      <trkpt lat="42.294147" lon="-0.447225">
        <ele>1539.6</ele>
        <time>2018-07-22T06:48:44.000Z</time>
      </trkpt>
      <trkpt lat="42.294148" lon="-0.447225">
        <ele>1539.6</ele>
        <time>2018-07-22T06:48:45.000Z</time>
      </trkpt>
      <trkpt lat="42.29415" lon="-0.447225">
        <ele>1539.7</ele>
        <time>2018-07-22T06:48:46.000Z</time>
      </trkpt>
      <trkpt lat="42.294151" lon="-0.447225">
        <ele>1539.7</ele>
        <time>2018-07-22T06:48:47.000Z</time>
      </trkpt>
      <trkpt lat="42.294153" lon="-0.447225">
        <ele>1539.8</ele>
        <time>2018-07-22T06:48:48.000Z</time>
      </trkpt>
      <trkpt lat="42.294155" lon="-0.447225">
        <ele>1539.9</ele>
        <time>2018-07-22T06:48:49.000Z</time>
      </trkpt>
      <trkpt lat="42.294157" lon="-0.447225">
        <ele>1539.9</ele>
        <time>2018-07-22T06:48:50.000Z</time>
      </trkpt>
      <trkpt lat="42.294159" lon="-0.447224">
        <ele>1540.0</ele>
        <time>2018-07-22T06:48:51.000Z</time>
      </trkpt>
      <trkpt lat="42.29416" lon="-0.447223">
        <ele>1540.1</ele>
        <time>2018-07-22T06:48:52.000Z</time>
      </trkpt>
      <trkpt lat="42.294161" lon="-0.447222">
        <ele>1540.1</ele>
        <time>2018-07-22T06:48:53.000Z</time>
      </trkpt>
      <trkpt lat="42.294161" lon="-0.447222">
        <ele>1540.1</ele>
        <time>2018-07-22T06:48:54.000Z</time>
      </trkpt>
      <trkpt lat="42.294162" lon="-0.447221">
        <ele>1540.2</ele>
        <time>2018-07-22T06:48:55.000Z</time>
      </trkpt>
      <trkpt lat="42.294162" lon="-0.44722">
        <ele>1540.2</ele>
        <time>2018-07-22T06:48:56.000Z</time>
      </trkpt>
      <trkpt lat="42.294163" lon="-0.44722">
        <ele>1540.2</ele>
        <time>2018-07-22T06:48:57.000Z</time>
      </trkpt>
      <trkpt lat="42.294164" lon="-0.44722">
        <ele>1540.3</ele>
        <time>2018-07-22T06:48:58.000Z</time>
      </trkpt>
      <trkpt lat="42.294164" lon="-0.447219">
        <ele>1540.3</ele>
        <time>2018-07-22T06:48:59.000Z</time>
      </trkpt>
      <trkpt lat="42.294165" lon="-0.447219">
        <ele>1540.3</ele>
        <time>2018-07-22T06:49:00.000Z</time>
      </trkpt>
      <trkpt lat="42.294166" lon="-0.447218">
        <ele>1540.4</ele>
        <time>2018-07-22T06:49:01.000Z</time>
      </trkpt>
      <trkpt lat="42.294166" lon="-0.447217">
        <ele>1540.4</ele>
        <time>2018-07-22T06:49:02.000Z</time>
      </trkpt>
      <trkpt lat="42.294167" lon="-0.447216">
        <ele>1540.4</ele>
        <time>2018-07-22T06:49:03.000Z</time>
      </trkpt>
      <trkpt lat="42.294168" lon="-0.447215">
        <ele>1540.5</ele>
        <time>2018-07-22T06:49:04.000Z</time>
      </trkpt>
      <trkpt lat="42.294168" lon="-0.447213">
        <ele>1540.5</ele>
        <time>2018-07-22T06:49:05.000Z</time>
      </trkpt>
      <trkpt lat="42.294169" lon="-0.447211">
        <ele>1540.6</ele>
        <time>2018-07-22T06:49:06.000Z</time>
      </trkpt>
      <trkpt lat="42.29417" lon="-0.447209">
        <ele>1540.6</ele>
        <time>2018-07-22T06:49:07.000Z</time>
      </trkpt>
      <trkpt lat="42.29417" lon="-0.447207">
        <ele>1540.7</ele>
        <time>2018-07-22T06:49:08.000Z</time>
      </trkpt>
      <trkpt lat="42.294171" lon="-0.447206">
        <ele>1540.7</ele>
        <time>2018-07-22T06:49:09.000Z</time>
      </trkpt>
      <trkpt lat="42.294172" lon="-0.447205">
        <ele>1540.8</ele>
        <time>2018-07-22T06:49:10.000Z</time>
      </trkpt>
      <trkpt lat="42.294174" lon="-0.447205">
        <ele>1540.8</ele>
        <time>2018-07-22T06:49:11.000Z</time>
      </trkpt>
      <trkpt lat="42.294177" lon="-0.447203">
        <ele>1540.9</ele>
        <time>2018-07-22T06:49:12.000Z</time>
      </trkpt>
      <trkpt lat="42.29418" lon="-0.4472">
        <ele>1541.1</ele>
        <time>2018-07-22T06:49:13.000Z</time>
      </trkpt>
      <trkpt lat="42.294183" lon="-0.447197">
        <ele>1541.2</ele>
        <time>2018-07-22T06:49:14.000Z</time>
      </trkpt>
      <trkpt lat="42.294185" lon="-0.447194">
        <ele>1541.3</ele>
        <time>2018-07-22T06:49:15.000Z</time>
      </trkpt>
      <trkpt lat="42.294186" lon="-0.447192">
        <ele>1541.4</ele>
        <time>2018-07-22T06:49:16.000Z</time>
      </trkpt>
      <trkpt lat="42.294188" lon="-0.447191">
        <ele>1541.4</ele>
        <time>2018-07-22T06:49:17.000Z</time>
      </trkpt>
      <trkpt lat="42.294189" lon="-0.44719">
        <ele>1541.5</ele>
        <time>2018-07-22T06:49:18.000Z</time>
      </trkpt>
      <trkpt lat="42.294191" lon="-0.447188">
        <ele>1541.6</ele>
        <time>2018-07-22T06:49:19.000Z</time>
      </trkpt>
      <trkpt lat="42.294193" lon="-0.447186">
        <ele>1541.7</ele>
        <time>2018-07-22T06:49:20.000Z</time>
      </trkpt>
      <trkpt lat="42.294195" lon="-0.447184">
        <ele>1541.8</ele>
        <time>2018-07-22T06:49:21.000Z</time>
      </trkpt>
      <trkpt lat="42.294196" lon="-0.447182">
        <ele>1541.8</ele>
        <time>2018-07-22T06:49:22.000Z</time>
      </trkpt>
      <trkpt lat="42.294197" lon="-0.447179">
        <ele>1541.9</ele>
        <time>2018-07-22T06:49:23.000Z</time>
      </trkpt>
      <trkpt lat="42.294197" lon="-0.447176">
        <ele>1541.9</ele>
        <time>2018-07-22T06:49:24.000Z</time>
      </trkpt>
      <trkpt lat="42.294197" lon="-0.447173">
        <ele>1542.0</ele>
        <time>2018-07-22T06:49:25.000Z</time>
      </trkpt>
      <trkpt lat="42.294198" lon="-0.44717">
        <ele>1542.1</ele>
        <time>2018-07-22T06:49:26.000Z</time>
      </trkpt>
      <trkpt lat="42.2942" lon="-0.447165">
        <ele>1542.2</ele>
        <time>2018-07-22T06:49:27.000Z</time>
      </trkpt>
      <trkpt lat="42.294201" lon="-0.44716">
        <ele>1542.3</ele>
        <time>2018-07-22T06:49:28.000Z</time>
      </trkpt>
      <trkpt lat="42.294202" lon="-0.447151">
        <ele>1542.5</ele>
        <time>2018-07-22T06:49:29.000Z</time>
      </trkpt>
      <trkpt lat="42.294205" lon="-0.447144">
        <ele>1542.7</ele>
        <time>2018-07-22T06:49:30.000Z</time>
      </trkpt>
      <trkpt lat="42.294207" lon="-0.447138">
        <ele>1542.8</ele>
        <time>2018-07-22T06:49:31.000Z</time>
      </trkpt>
      <trkpt lat="42.294209" lon="-0.447133">
        <ele>1543.0</ele>
        <time>2018-07-22T06:49:32.000Z</time>
      </trkpt>
      <trkpt lat="42.294211" lon="-0.44713">
        <ele>1543.1</ele>
        <time>2018-07-22T06:49:33.000Z</time>
      </trkpt>
      <trkpt lat="42.294212" lon="-0.447127">
        <ele>1543.1</ele>
        <time>2018-07-22T06:49:34.000Z</time>
      </trkpt>
      <trkpt lat="42.294213" lon="-0.447125">
        <ele>1543.2</ele>
        <time>2018-07-22T06:49:35.000Z</time>
      </trkpt>
      <trkpt lat="42.294214" lon="-0.447124">
        <ele>1543.2</ele>
        <time>2018-07-22T06:49:36.000Z</time>
      </trkpt>
      <trkpt lat="42.294214" lon="-0.447122">
        <ele>1543.3</ele>
        <time>2018-07-22T06:49:37.000Z</time>
      </trkpt>
      <trkpt lat="42.294215" lon="-0.447121">
        <ele>1543.3</ele>
        <time>2018-07-22T06:49:38.000Z</time>
      </trkpt>
      <trkpt lat="42.294216" lon="-0.447119">
        <ele>1543.4</ele>
        <time>2018-07-22T06:49:39.000Z</time>
      </trkpt>
      <trkpt lat="42.294216" lon="-0.447117">
        <ele>1543.4</ele>
        <time>2018-07-22T06:49:40.000Z</time>
      </trkpt>
      <trkpt lat="42.294217" lon="-0.447115">
        <ele>1543.5</ele>
        <time>2018-07-22T06:49:41.000Z</time>
      </trkpt>
      <trkpt lat="42.294218" lon="-0.447113">
        <ele>1543.5</ele>
        <time>2018-07-22T06:49:42.000Z</time>
      </trkpt>
      <trkpt lat="42.294219" lon="-0.447111">
        <ele>1543.6</ele>
        <time>2018-07-22T06:49:43.000Z</time>
      </trkpt>
      <trkpt lat="42.29422" lon="-0.447109">
        <ele>1543.6</ele>
        <time>2018-07-22T06:49:44.000Z</time>
      </trkpt>
      <trkpt lat="42.294221" lon="-0.447106">
        <ele>1543.7</ele>
        <time>2018-07-22T06:49:45.000Z</time>
      </trkpt>
      <trkpt lat="42.294223" lon="-0.447104">
        <ele>1543.8</ele>
        <time>2018-07-22T06:49:46.000Z</time>
      </trkpt>
      <trkpt lat="42.294224" lon="-0.447102">
        <ele>1543.9</ele>
        <time>2018-07-22T06:49:47.000Z</time>
      </trkpt>
      <trkpt lat="42.294224" lon="-0.4471">
        <ele>1543.9</ele>
        <time>2018-07-22T06:49:48.000Z</time>
      </trkpt>
      <trkpt lat="42.294225" lon="-0.447098">
        <ele>1544.0</ele>
        <time>2018-07-22T06:49:49.000Z</time>
      </trkpt>
      <trkpt lat="42.294226" lon="-0.447096">
        <ele>1544.0</ele>
        <time>2018-07-22T06:49:50.000Z</time>
      </trkpt>
      <trkpt lat="42.294226" lon="-0.447094">
        <ele>1544.0</ele>
        <time>2018-07-22T06:49:51.000Z</time>
      </trkpt>
      <trkpt lat="42.294227" lon="-0.447093">
        <ele>1544.1</ele>
        <time>2018-07-22T06:49:52.000Z</time>
      </trkpt>
      <trkpt lat="42.294227" lon="-0.447092">
        <ele>1544.1</ele>
        <time>2018-07-22T06:49:53.000Z</time>
      </trkpt>
      <trkpt lat="42.294227" lon="-0.447092">
        <ele>1544.1</ele>
        <time>2018-07-22T06:49:54.000Z</time>
      </trkpt>
      <trkpt lat="42.294227" lon="-0.447092">
        <ele>1544.1</ele>
        <time>2018-07-22T06:49:55.000Z</time>
      </trkpt>
      <trkpt lat="42.294227" lon="-0.447091">
        <ele>1544.1</ele>
        <time>2018-07-22T06:49:56.000Z</time>
      </trkpt>
      <trkpt lat="42.294227" lon="-0.44709">
        <ele>1544.1</ele>
        <time>2018-07-22T06:49:57.000Z</time>
      </trkpt>
      <trkpt lat="42.294227" lon="-0.447087">
        <ele>1544.2</ele>
        <time>2018-07-22T06:49:58.000Z</time>
      </trkpt>
      <trkpt lat="42.294228" lon="-0.447086">
        <ele>1544.2</ele>
        <time>2018-07-22T06:49:59.000Z</time>
      </trkpt>
      <trkpt lat="42.294228" lon="-0.447085">
        <ele>1544.2</ele>
        <time>2018-07-22T06:50:00.000Z</time>
      </trkpt>
      <trkpt lat="42.294229" lon="-0.447084">
        <ele>1544.3</ele>
        <time>2018-07-22T06:50:01.000Z</time>
      </trkpt>
      <trkpt lat="42.294229" lon="-0.447084">
        <ele>1544.3</ele>
        <time>2018-07-22T06:50:02.000Z</time>
      </trkpt>
      <trkpt lat="42.294229" lon="-0.447083">
        <ele>1544.3</ele>
        <time>2018-07-22T06:50:03.000Z</time>
      </trkpt>
      <trkpt lat="42.294229" lon="-0.447082">
        <ele>1544.3</ele>
        <time>2018-07-22T06:50:04.000Z</time>
      </trkpt>
      <trkpt lat="42.294229" lon="-0.447082">
        <ele>1544.3</ele>
        <time>2018-07-22T06:50:05.000Z</time>
      </trkpt>
      <trkpt lat="42.29423" lon="-0.447081">
        <ele>1544.4</ele>
        <time>2018-07-22T06:50:06.000Z</time>
      </trkpt>
      <trkpt lat="42.29423" lon="-0.447081">
        <ele>1544.4</ele>
        <time>2018-07-22T06:50:07.000Z</time>
      </trkpt>
      <trkpt lat="42.29423" lon="-0.447081">
        <ele>1544.4</ele>
        <time>2018-07-22T06:50:08.000Z</time>
      </trkpt>
      <trkpt lat="42.29423" lon="-0.44708">
        <ele>1544.4</ele>
        <time>2018-07-22T06:50:09.000Z</time>
      </trkpt>
      <trkpt lat="42.29423" lon="-0.44708">
        <ele>1544.4</ele>
        <time>2018-07-22T06:50:10.000Z</time>
      </trkpt>
      <trkpt lat="42.29423" lon="-0.44708">
        <ele>1544.4</ele>
        <time>2018-07-22T06:50:11.000Z</time>
      </trkpt>
      <trkpt lat="42.29423" lon="-0.44708">
        <ele>1544.4</ele>
        <time>2018-07-22T06:50:12.000Z</time>
      </trkpt>
      <trkpt lat="42.29423" lon="-0.44708">
        <ele>1544.4</ele>
        <time>2018-07-22T06:50:13.000Z</time>
      </trkpt>
      <trkpt lat="42.29423" lon="-0.447079">
        <ele>1544.4</ele>
        <time>2018-07-22T06:50:14.000Z</time>
      </trkpt>
      <trkpt lat="42.29423" lon="-0.447079">
        <ele>1544.4</ele>
        <time>2018-07-22T06:50:15.000Z</time>
      </trkpt>
      <trkpt lat="42.294231" lon="-0.447079">
        <ele>1544.4</ele>
        <time>2018-07-22T06:50:16.000Z</time>
      </trkpt>
      <trkpt lat="42.294231" lon="-0.447079">
        <ele>1544.4</ele>
        <time>2018-07-22T06:50:17.000Z</time>
      </trkpt>
      <trkpt lat="42.294231" lon="-0.447079">
        <ele>1544.4</ele>
        <time>2018-07-22T06:50:18.000Z</time>
      </trkpt>
      <trkpt lat="42.294231" lon="-0.447078">
        <ele>1544.4</ele>
        <time>2018-07-22T06:50:19.000Z</time>
      </trkpt>
      <trkpt lat="42.294231" lon="-0.447078">
        <ele>1544.4</ele>
        <time>2018-07-22T06:50:20.000Z</time>
      </trkpt>
      <trkpt lat="42.294231" lon="-0.447078">
        <ele>1544.4</ele>
        <time>2018-07-22T06:50:21.000Z</time>
      </trkpt>
      <trkpt lat="42.294231" lon="-0.447078">
        <ele>1544.4</ele>
        <time>2018-07-22T06:50:22.000Z</time>
      </trkpt>
      <trkpt lat="42.294231" lon="-0.447078">
        <ele>1544.4</ele>
        <time>2018-07-22T06:50:23.000Z</time>
      </trkpt>
      <trkpt lat="42.294231" lon="-0.447077">
        <ele>1544.5</ele>
        <time>2018-07-22T06:50:24.000Z</time>
      </trkpt>
      <trkpt lat="42.294231" lon="-0.447077">
        <ele>1544.5</ele>
        <time>2018-07-22T06:50:25.000Z</time>
      </trkpt>
      <trkpt lat="42.294231" lon="-0.447077">
        <ele>1544.5</ele>
        <time>2018-07-22T06:50:26.000Z</time>
      </trkpt>
      <trkpt lat="42.294231" lon="-0.447077">
        <ele>1544.5</ele>
        <time>2018-07-22T06:50:27.000Z</time>
      </trkpt>
      <trkpt lat="42.294232" lon="-0.447077">
        <ele>1544.5</ele>
        <time>2018-07-22T06:50:28.000Z</time>
      </trkpt>
      <trkpt lat="42.294232" lon="-0.447077">
        <ele>1544.5</ele>
        <time>2018-07-22T06:50:29.000Z</time>
      </trkpt>
      <trkpt lat="42.294232" lon="-0.447076">
        <ele>1544.5</ele>
        <time>2018-07-22T06:50:30.000Z</time>
      </trkpt>
      <trkpt lat="42.294232" lon="-0.447076">
        <ele>1544.5</ele>
        <time>2018-07-22T06:50:31.000Z</time>
      </trkpt>
      <trkpt lat="42.294232" lon="-0.447076">
        <ele>1544.5</ele>
        <time>2018-07-22T06:50:32.000Z</time>
      </trkpt>
      <trkpt lat="42.294232" lon="-0.447076">
        <ele>1544.5</ele>
        <time>2018-07-22T06:50:33.000Z</time>
      </trkpt>
      <trkpt lat="42.294232" lon="-0.447076">
        <ele>1544.5</ele>
        <time>2018-07-22T06:50:34.000Z</time>
      </trkpt>
      <trkpt lat="42.294232" lon="-0.447076">
        <ele>1544.5</ele>
        <time>2018-07-22T06:50:35.000Z</time>
      </trkpt>
      <trkpt lat="42.294232" lon="-0.447076">
        <ele>1544.5</ele>
        <time>2018-07-22T06:50:36.000Z</time>
      </trkpt>
      <trkpt lat="42.294232" lon="-0.447076">
        <ele>1544.5</ele>
        <time>2018-07-22T06:50:37.000Z</time>
      </trkpt>
      <trkpt lat="42.294233" lon="-0.447075">
        <ele>1544.5</ele>
        <time>2018-07-22T06:50:38.000Z</time>
      </trkpt>
      <trkpt lat="42.294233" lon="-0.447075">
        <ele>1544.5</ele>
        <time>2018-07-22T06:50:39.000Z</time>
      </trkpt>
      <trkpt lat="42.294233" lon="-0.447075">
        <ele>1544.5</ele>
        <time>2018-07-22T06:50:40.000Z</time>
      </trkpt>
      <trkpt lat="42.294233" lon="-0.447075">
        <ele>1544.5</ele>
        <time>2018-07-22T06:50:41.000Z</time>
      </trkpt>
      <trkpt lat="42.294234" lon="-0.447075">
        <ele>1544.6</ele>
        <time>2018-07-22T06:50:42.000Z</time>
      </trkpt>
      <trkpt lat="42.294234" lon="-0.447074">
        <ele>1544.6</ele>
        <time>2018-07-22T06:50:43.000Z</time>
      </trkpt>
      <trkpt lat="42.294235" lon="-0.447074">
        <ele>1544.6</ele>
        <time>2018-07-22T06:50:44.000Z</time>
      </trkpt>
      <trkpt lat="42.294235" lon="-0.447073">
        <ele>1544.6</ele>
        <time>2018-07-22T06:50:45.000Z</time>
      </trkpt>
      <trkpt lat="42.294236" lon="-0.447073">
        <ele>1544.7</ele>
        <time>2018-07-22T06:50:46.000Z</time>
      </trkpt>
      <trkpt lat="42.294237" lon="-0.447072">
        <ele>1544.7</ele>
        <time>2018-07-22T06:50:47.000Z</time>
      </trkpt>
      <trkpt lat="42.294237" lon="-0.447072">
        <ele>1544.7</ele>
        <time>2018-07-22T06:50:48.000Z</time>
      </trkpt>
      <trkpt lat="42.294238" lon="-0.447071">
        <ele>1544.7</ele>
        <time>2018-07-22T06:50:49.000Z</time>
      </trkpt>
      <trkpt lat="42.294239" lon="-0.44707">
        <ele>1544.8</ele>
        <time>2018-07-22T06:50:50.000Z</time>
      </trkpt>
      <trkpt lat="42.29424" lon="-0.447069">
        <ele>1544.8</ele>
        <time>2018-07-22T06:50:51.000Z</time>
      </trkpt>
      <trkpt lat="42.294242" lon="-0.447067">
        <ele>1544.9</ele>
        <time>2018-07-22T06:50:52.000Z</time>
      </trkpt>
      <trkpt lat="42.294243" lon="-0.447066">
        <ele>1545.0</ele>
        <time>2018-07-22T06:50:53.000Z</time>
      </trkpt>
      <trkpt lat="42.294245" lon="-0.447065">
        <ele>1545.0</ele>
        <time>2018-07-22T06:50:54.000Z</time>
      </trkpt>
      <trkpt lat="42.294246" lon="-0.447063">
        <ele>1545.1</ele>
        <time>2018-07-22T06:50:55.000Z</time>
      </trkpt>
      <trkpt lat="42.294248" lon="-0.447062">
        <ele>1545.2</ele>
        <time>2018-07-22T06:50:56.000Z</time>
      </trkpt>
      <trkpt lat="42.294249" lon="-0.44706">
        <ele>1545.2</ele>
        <time>2018-07-22T06:50:57.000Z</time>
      </trkpt>
      <trkpt lat="42.29425" lon="-0.447059">
        <ele>1545.3</ele>
        <time>2018-07-22T06:50:58.000Z</time>
      </trkpt>
      <trkpt lat="42.294251" lon="-0.447058">
        <ele>1545.3</ele>
        <time>2018-07-22T06:50:59.000Z</time>
      </trkpt>
      <trkpt lat="42.294253" lon="-0.447057">
        <ele>1545.4</ele>
        <time>2018-07-22T06:51:00.000Z</time>
      </trkpt>
      <trkpt lat="42.294255" lon="-0.44705">
        <ele>1545.6</ele>
        <time>2018-07-22T06:51:01.000Z</time>
      </trkpt>
      <trkpt lat="42.294257" lon="-0.447045">
        <ele>1545.7</ele>
        <time>2018-07-22T06:51:02.000Z</time>
      </trkpt>
      <trkpt lat="42.294258" lon="-0.44704">
        <ele>1545.8</ele>
        <time>2018-07-22T06:51:03.000Z</time>
      </trkpt>
      <trkpt lat="42.29426" lon="-0.447038">
        <ele>1545.9</ele>
        <time>2018-07-22T06:51:04.000Z</time>
      </trkpt>
      <trkpt lat="42.294261" lon="-0.447035">
        <ele>1546.0</ele>
        <time>2018-07-22T06:51:05.000Z</time>
      </trkpt>
      <trkpt lat="42.294262" lon="-0.447034">
        <ele>1546.0</ele>
        <time>2018-07-22T06:51:06.000Z</time>
      </trkpt>
      <trkpt lat="42.294263" lon="-0.447031">
        <ele>1546.1</ele>
        <time>2018-07-22T06:51:07.000Z</time>
      </trkpt>
      <trkpt lat="42.294264" lon="-0.447029">
        <ele>1546.1</ele>
        <time>2018-07-22T06:51:08.000Z</time>
      </trkpt>
      <trkpt lat="42.294265" lon="-0.447027">
        <ele>1546.2</ele>
        <time>2018-07-22T06:51:09.000Z</time>
      </trkpt>
      <trkpt lat="42.294267" lon="-0.447025">
        <ele>1546.3</ele>
        <time>2018-07-22T06:51:10.000Z</time>
      </trkpt>
      <trkpt lat="42.294268" lon="-0.447023">
        <ele>1546.3</ele>
        <time>2018-07-22T06:51:11.000Z</time>
      </trkpt>
      <trkpt lat="42.294269" lon="-0.447021">
        <ele>1546.4</ele>
        <time>2018-07-22T06:51:12.000Z</time>
      </trkpt>
      <trkpt lat="42.29427" lon="-0.447019">
        <ele>1546.5</ele>
        <time>2018-07-22T06:51:13.000Z</time>
      </trkpt>
      <trkpt lat="42.294271" lon="-0.447017">
        <ele>1546.5</ele>
        <time>2018-07-22T06:51:14.000Z</time>
      </trkpt>
      <trkpt lat="42.294272" lon="-0.447015">
        <ele>1546.6</ele>
        <time>2018-07-22T06:51:15.000Z</time>
      </trkpt>
      <trkpt lat="42.294273" lon="-0.447013">
        <ele>1546.6</ele>
        <time>2018-07-22T06:51:16.000Z</time>
      </trkpt>
      <trkpt lat="42.294274" lon="-0.447012">
        <ele>1546.7</ele>
        <time>2018-07-22T06:51:17.000Z</time>
      </trkpt>
      <trkpt lat="42.294275" lon="-0.447009">
        <ele>1546.8</ele>
        <time>2018-07-22T06:51:18.000Z</time>
      </trkpt>
      <trkpt lat="42.294276" lon="-0.447006">
        <ele>1546.8</ele>
        <time>2018-07-22T06:51:19.000Z</time>
      </trkpt>
      <trkpt lat="42.294277" lon="-0.447005">
        <ele>1546.9</ele>
        <time>2018-07-22T06:51:20.000Z</time>
      </trkpt>
      <trkpt lat="42.294279" lon="-0.447">
        <ele>1547.0</ele>
        <time>2018-07-22T06:51:21.000Z</time>
      </trkpt>
      <trkpt lat="42.294282" lon="-0.446994">
        <ele>1547.2</ele>
        <time>2018-07-22T06:51:22.000Z</time>
      </trkpt>
      <trkpt lat="42.294285" lon="-0.44699">
        <ele>1547.3</ele>
        <time>2018-07-22T06:51:23.000Z</time>
      </trkpt>
      <trkpt lat="42.294287" lon="-0.446986">
        <ele>1547.5</ele>
        <time>2018-07-22T06:51:24.000Z</time>
      </trkpt>
      <trkpt lat="42.294288" lon="-0.446983">
        <ele>1547.5</ele>
        <time>2018-07-22T06:51:25.000Z</time>
      </trkpt>
      <trkpt lat="42.29429" lon="-0.446981">
        <ele>1547.6</ele>
        <time>2018-07-22T06:51:26.000Z</time>
      </trkpt>
      <trkpt lat="42.294291" lon="-0.446978">
        <ele>1547.7</ele>
        <time>2018-07-22T06:51:27.000Z</time>
      </trkpt>
      <trkpt lat="42.294292" lon="-0.446976">
        <ele>1547.7</ele>
        <time>2018-07-22T06:51:28.000Z</time>
      </trkpt>
      <trkpt lat="42.294293" lon="-0.446975">
        <ele>1547.8</ele>
        <time>2018-07-22T06:51:29.000Z</time>
      </trkpt>
      <trkpt lat="42.294293" lon="-0.446974">
        <ele>1547.8</ele>
        <time>2018-07-22T06:51:30.000Z</time>
      </trkpt>
      <trkpt lat="42.294294" lon="-0.446973">
        <ele>1547.8</ele>
        <time>2018-07-22T06:51:31.000Z</time>
      </trkpt>
      <trkpt lat="42.294295" lon="-0.446973">
        <ele>1547.9</ele>
        <time>2018-07-22T06:51:32.000Z</time>
      </trkpt>
      <trkpt lat="42.294296" lon="-0.446974">
        <ele>1547.9</ele>
        <time>2018-07-22T06:51:33.000Z</time>
      </trkpt>
      <trkpt lat="42.294296" lon="-0.446972">
        <ele>1547.9</ele>
        <time>2018-07-22T06:51:34.000Z</time>
      </trkpt>
      <trkpt lat="42.294297" lon="-0.446967">
        <ele>1548.0</ele>
        <time>2018-07-22T06:51:35.000Z</time>
      </trkpt>
      <trkpt lat="42.294296" lon="-0.446958">
        <ele>1548.1</ele>
        <time>2018-07-22T06:51:36.000Z</time>
      </trkpt>
      <trkpt lat="42.294296" lon="-0.446952">
        <ele>1548.2</ele>
        <time>2018-07-22T06:51:37.000Z</time>
      </trkpt>
      <trkpt lat="42.294295" lon="-0.446948">
        <ele>1548.3</ele>
        <time>2018-07-22T06:51:38.000Z</time>
      </trkpt>
      <trkpt lat="42.294295" lon="-0.446946">
        <ele>1548.3</ele>
        <time>2018-07-22T06:51:39.000Z</time>
      </trkpt>
      <trkpt lat="42.294294" lon="-0.446946">
        <ele>1548.3</ele>
        <time>2018-07-22T06:51:40.000Z</time>
      </trkpt>
      <trkpt lat="42.294294" lon="-0.446945">
        <ele>1548.3</ele>
        <time>2018-07-22T06:51:41.000Z</time>
      </trkpt>
      <trkpt lat="42.294293" lon="-0.446946">
        <ele>1548.2</ele>
        <time>2018-07-22T06:51:42.000Z</time>
      </trkpt>
      <trkpt lat="42.294293" lon="-0.446946">
        <ele>1548.2</ele>
        <time>2018-07-22T06:51:43.000Z</time>
      </trkpt>
      <trkpt lat="42.294292" lon="-0.446946">
        <ele>1548.2</ele>
        <time>2018-07-22T06:51:44.000Z</time>
      </trkpt>
      <trkpt lat="42.294292" lon="-0.446946">
        <ele>1548.2</ele>
        <time>2018-07-22T06:51:45.000Z</time>
      </trkpt>
      <trkpt lat="42.294292" lon="-0.446946">
        <ele>1548.2</ele>
        <time>2018-07-22T06:51:46.000Z</time>
      </trkpt>
      <trkpt lat="42.294292" lon="-0.446946">
        <ele>1548.2</ele>
        <time>2018-07-22T06:51:47.000Z</time>
      </trkpt>
      <trkpt lat="42.294292" lon="-0.446946">
        <ele>1548.2</ele>
        <time>2018-07-22T06:51:48.000Z</time>
      </trkpt>
      <trkpt lat="42.294291" lon="-0.446946">
        <ele>1548.2</ele>
        <time>2018-07-22T06:51:49.000Z</time>
      </trkpt>
      <trkpt lat="42.294291" lon="-0.446946">
        <ele>1548.2</ele>
        <time>2018-07-22T06:51:50.000Z</time>
      </trkpt>
      <trkpt lat="42.294291" lon="-0.446946">
        <ele>1548.2</ele>
        <time>2018-07-22T06:51:51.000Z</time>
      </trkpt>
      <trkpt lat="42.294291" lon="-0.446946">
        <ele>1548.2</ele>
        <time>2018-07-22T06:51:52.000Z</time>
      </trkpt>
      <trkpt lat="42.294291" lon="-0.446946">
        <ele>1548.2</ele>
        <time>2018-07-22T06:51:53.000Z</time>
      </trkpt>
      <trkpt lat="42.294292" lon="-0.446945">
        <ele>1548.2</ele>
        <time>2018-07-22T06:51:54.000Z</time>
      </trkpt>
      <trkpt lat="42.294292" lon="-0.446945">
        <ele>1548.2</ele>
        <time>2018-07-22T06:51:55.000Z</time>
      </trkpt>
      <trkpt lat="42.294293" lon="-0.446944">
        <ele>1548.3</ele>
        <time>2018-07-22T06:51:56.000Z</time>
      </trkpt>
      <trkpt lat="42.294293" lon="-0.446943">
        <ele>1548.3</ele>
        <time>2018-07-22T06:51:57.000Z</time>
      </trkpt>
      <trkpt lat="42.294293" lon="-0.446943">
        <ele>1548.3</ele>
        <time>2018-07-22T06:51:58.000Z</time>
      </trkpt>
      <trkpt lat="42.294291" lon="-0.446943">
        <ele>1548.2</ele>
        <time>2018-07-22T06:51:59.000Z</time>
      </trkpt>
      <trkpt lat="42.29429" lon="-0.446941">
        <ele>1548.2</ele>
        <time>2018-07-22T06:52:00.000Z</time>
      </trkpt>
      <trkpt lat="42.294293" lon="-0.44693">
        <ele>1548.5</ele>
        <time>2018-07-22T06:52:01.000Z</time>
      </trkpt>
      <trkpt lat="42.294294" lon="-0.446923">
        <ele>1548.6</ele>
        <time>2018-07-22T06:52:02.000Z</time>
      </trkpt>
      <trkpt lat="42.294296" lon="-0.446914">
        <ele>1548.8</ele>
        <time>2018-07-22T06:52:03.000Z</time>
      </trkpt>
      <trkpt lat="42.2943" lon="-0.446902">
        <ele>1549.1</ele>
        <time>2018-07-22T06:52:04.000Z</time>
      </trkpt>
      <trkpt lat="42.294306" lon="-0.446891">
        <ele>1549.4</ele>
        <time>2018-07-22T06:52:05.000Z</time>
      </trkpt>
      <trkpt lat="42.294314" lon="-0.446885">
        <ele>1549.8</ele>
        <time>2018-07-22T06:52:06.000Z</time>
      </trkpt>
      <trkpt lat="42.294323" lon="-0.446882">
        <ele>1550.1</ele>
        <time>2018-07-22T06:52:07.000Z</time>
      </trkpt>
      <trkpt lat="42.294333" lon="-0.446882">
        <ele>1550.3</ele>
        <time>2018-07-22T06:52:08.000Z</time>
      </trkpt>
      <trkpt lat="42.294343" lon="-0.446882">
        <ele>1550.6</ele>
        <time>2018-07-22T06:52:09.000Z</time>
      </trkpt>
      <trkpt lat="42.294352" lon="-0.446883">
        <ele>1550.9</ele>
        <time>2018-07-22T06:52:10.000Z</time>
      </trkpt>
      <trkpt lat="42.294361" lon="-0.446882">
        <ele>1551.1</ele>
        <time>2018-07-22T06:52:11.000Z</time>
      </trkpt>
      <trkpt lat="42.294368" lon="-0.44688">
        <ele>1551.4</ele>
        <time>2018-07-22T06:52:12.000Z</time>
      </trkpt>
      <trkpt lat="42.294375" lon="-0.446876">
        <ele>1551.6</ele>
        <time>2018-07-22T06:52:13.000Z</time>
      </trkpt>
      <trkpt lat="42.294381" lon="-0.446872">
        <ele>1551.8</ele>
        <time>2018-07-22T06:52:14.000Z</time>
      </trkpt>
      <trkpt lat="42.294386" lon="-0.446868">
        <ele>1552.0</ele>
        <time>2018-07-22T06:52:15.000Z</time>
      </trkpt>
      <trkpt lat="42.294391" lon="-0.446863">
        <ele>1552.3</ele>
        <time>2018-07-22T06:52:16.000Z</time>
      </trkpt>
      <trkpt lat="42.294396" lon="-0.446858">
        <ele>1552.5</ele>
        <time>2018-07-22T06:52:17.000Z</time>
      </trkpt>
      <trkpt lat="42.2944" lon="-0.446853">
        <ele>1552.7</ele>
        <time>2018-07-22T06:52:18.000Z</time>
      </trkpt>
      <trkpt lat="42.294404" lon="-0.446849">
        <ele>1552.8</ele>
        <time>2018-07-22T06:52:19.000Z</time>
      </trkpt>
      <trkpt lat="42.29441" lon="-0.446845">
        <ele>1553.1</ele>
        <time>2018-07-22T06:52:20.000Z</time>
      </trkpt>
      <trkpt lat="42.294416" lon="-0.446843">
        <ele>1553.3</ele>
        <time>2018-07-22T06:52:21.000Z</time>
      </trkpt>
      <trkpt lat="42.294424" lon="-0.446843">
        <ele>1553.5</ele>
        <time>2018-07-22T06:52:22.000Z</time>
      </trkpt>
      <trkpt lat="42.294431" lon="-0.446843">
        <ele>1553.7</ele>
        <time>2018-07-22T06:52:23.000Z</time>
      </trkpt>
      <trkpt lat="42.294437" lon="-0.446845">
        <ele>1553.8</ele>
        <time>2018-07-22T06:52:24.000Z</time>
      </trkpt>
      <trkpt lat="42.294443" lon="-0.446845">
        <ele>1554.0</ele>
        <time>2018-07-22T06:52:25.000Z</time>
      </trkpt>
      <trkpt lat="42.294449" lon="-0.446844">
        <ele>1554.2</ele>
        <time>2018-07-22T06:52:26.000Z</time>
      </trkpt>
      <trkpt lat="42.294455" lon="-0.446843">
        <ele>1554.4</ele>
        <time>2018-07-22T06:52:27.000Z</time>
      </trkpt>
      <trkpt lat="42.29446" lon="-0.446842">
        <ele>1554.5</ele>
        <time>2018-07-22T06:52:28.000Z</time>
      </trkpt>
      <trkpt lat="42.294464" lon="-0.446841">
        <ele>1554.6</ele>
        <time>2018-07-22T06:52:29.000Z</time>
      </trkpt>
      <trkpt lat="42.294467" lon="-0.446841">
        <ele>1554.7</ele>
        <time>2018-07-22T06:52:30.000Z</time>
      </trkpt>
      <trkpt lat="42.29447" lon="-0.446841">
        <ele>1554.8</ele>
        <time>2018-07-22T06:52:31.000Z</time>
      </trkpt>
      <trkpt lat="42.294472" lon="-0.44684">
        <ele>1554.9</ele>
        <time>2018-07-22T06:52:32.000Z</time>
      </trkpt>
      <trkpt lat="42.294474" lon="-0.44684">
        <ele>1554.9</ele>
        <time>2018-07-22T06:52:33.000Z</time>
      </trkpt>
      <trkpt lat="42.294475" lon="-0.44684">
        <ele>1555.0</ele>
        <time>2018-07-22T06:52:34.000Z</time>
      </trkpt>
      <trkpt lat="42.294477" lon="-0.446839">
        <ele>1555.0</ele>
        <time>2018-07-22T06:52:35.000Z</time>
      </trkpt>
      <trkpt lat="42.294478" lon="-0.446839">
        <ele>1555.1</ele>
        <time>2018-07-22T06:52:36.000Z</time>
      </trkpt>
      <trkpt lat="42.29448" lon="-0.446839">
        <ele>1555.1</ele>
        <time>2018-07-22T06:52:37.000Z</time>
      </trkpt>
      <trkpt lat="42.294482" lon="-0.446839">
        <ele>1555.2</ele>
        <time>2018-07-22T06:52:38.000Z</time>
      </trkpt>
      <trkpt lat="42.294484" lon="-0.446838">
        <ele>1555.2</ele>
        <time>2018-07-22T06:52:39.000Z</time>
      </trkpt>
      <trkpt lat="42.29449" lon="-0.446839">
        <ele>1555.4</ele>
        <time>2018-07-22T06:52:40.000Z</time>
      </trkpt>
      <trkpt lat="42.294496" lon="-0.446842">
        <ele>1555.5</ele>
        <time>2018-07-22T06:52:41.000Z</time>
      </trkpt>
      <trkpt lat="42.294502" lon="-0.446844">
        <ele>1555.7</ele>
        <time>2018-07-22T06:52:42.000Z</time>
      </trkpt>
      <trkpt lat="42.294507" lon="-0.446845">
        <ele>1555.8</ele>
        <time>2018-07-22T06:52:43.000Z</time>
      </trkpt>
      <trkpt lat="42.294512" lon="-0.446845">
        <ele>1555.9</ele>
        <time>2018-07-22T06:52:44.000Z</time>
      </trkpt>
      <trkpt lat="42.294516" lon="-0.446845">
        <ele>1556.0</ele>
        <time>2018-07-22T06:52:45.000Z</time>
      </trkpt>
      <trkpt lat="42.29452" lon="-0.446846">
        <ele>1556.1</ele>
        <time>2018-07-22T06:52:46.000Z</time>
      </trkpt>
      <trkpt lat="42.294523" lon="-0.446846">
        <ele>1556.2</ele>
        <time>2018-07-22T06:52:47.000Z</time>
      </trkpt>
      <trkpt lat="42.294526" lon="-0.446846">
        <ele>1556.3</ele>
        <time>2018-07-22T06:52:48.000Z</time>
      </trkpt>
      <trkpt lat="42.294528" lon="-0.446846">
        <ele>1556.4</ele>
        <time>2018-07-22T06:52:49.000Z</time>
      </trkpt>
      <trkpt lat="42.29453" lon="-0.446846">
        <ele>1556.4</ele>
        <time>2018-07-22T06:52:50.000Z</time>
      </trkpt>
      <trkpt lat="42.294531" lon="-0.446846">
        <ele>1556.4</ele>
        <time>2018-07-22T06:52:51.000Z</time>
      </trkpt>
      <trkpt lat="42.294533" lon="-0.446846">
        <ele>1556.5</ele>
        <time>2018-07-22T06:52:52.000Z</time>
      </trkpt>
      <trkpt lat="42.294534" lon="-0.446846">
        <ele>1556.5</ele>
        <time>2018-07-22T06:52:53.000Z</time>
      </trkpt>
      <trkpt lat="42.294536" lon="-0.446845">
        <ele>1556.6</ele>
        <time>2018-07-22T06:52:54.000Z</time>
      </trkpt>
      <trkpt lat="42.294538" lon="-0.446845">
        <ele>1556.7</ele>
        <time>2018-07-22T06:52:55.000Z</time>
      </trkpt>
      <trkpt lat="42.294539" lon="-0.446845">
        <ele>1556.7</ele>
        <time>2018-07-22T06:52:56.000Z</time>
      </trkpt>
      <trkpt lat="42.29454" lon="-0.446844">
        <ele>1556.7</ele>
        <time>2018-07-22T06:52:57.000Z</time>
      </trkpt>
      <trkpt lat="42.294541" lon="-0.446844">
        <ele>1556.8</ele>
        <time>2018-07-22T06:52:58.000Z</time>
      </trkpt>
      <trkpt lat="42.294545" lon="-0.446844">
        <ele>1556.9</ele>
        <time>2018-07-22T06:52:59.000Z</time>
      </trkpt>
      <trkpt lat="42.294553" lon="-0.446845">
        <ele>1557.1</ele>
        <time>2018-07-22T06:53:00.000Z</time>
      </trkpt>
      <trkpt lat="42.294559" lon="-0.446851">
        <ele>1557.2</ele>
        <time>2018-07-22T06:53:01.000Z</time>
      </trkpt>
      <trkpt lat="42.294564" lon="-0.446855">
        <ele>1557.2</ele>
        <time>2018-07-22T06:53:02.000Z</time>
      </trkpt>
      <trkpt lat="42.294568" lon="-0.446859">
        <ele>1557.3</ele>
        <time>2018-07-22T06:53:03.000Z</time>
      </trkpt>
      <trkpt lat="42.294571" lon="-0.446862">
        <ele>1557.3</ele>
        <time>2018-07-22T06:53:04.000Z</time>
      </trkpt>
      <trkpt lat="42.294574" lon="-0.446864">
        <ele>1557.4</ele>
        <time>2018-07-22T06:53:05.000Z</time>
      </trkpt>
      <trkpt lat="42.294577" lon="-0.446865">
        <ele>1557.5</ele>
        <time>2018-07-22T06:53:06.000Z</time>
      </trkpt>
      <trkpt lat="42.29458" lon="-0.446866">
        <ele>1557.5</ele>
        <time>2018-07-22T06:53:07.000Z</time>
      </trkpt>
      <trkpt lat="42.294583" lon="-0.446866">
        <ele>1557.6</ele>
        <time>2018-07-22T06:53:08.000Z</time>
      </trkpt>
      <trkpt lat="42.294585" lon="-0.446866">
        <ele>1557.7</ele>
        <time>2018-07-22T06:53:09.000Z</time>
      </trkpt>
      <trkpt lat="42.294587" lon="-0.446867">
        <ele>1557.7</ele>
        <time>2018-07-22T06:53:10.000Z</time>
      </trkpt>
      <trkpt lat="42.294589" lon="-0.446867">
        <ele>1557.8</ele>
        <time>2018-07-22T06:53:11.000Z</time>
      </trkpt>
      <trkpt lat="42.294591" lon="-0.446869">
        <ele>1557.8</ele>
        <time>2018-07-22T06:53:12.000Z</time>
      </trkpt>
      <trkpt lat="42.294597" lon="-0.446877">
        <ele>1557.9</ele>
        <time>2018-07-22T06:53:13.000Z</time>
      </trkpt>
      <trkpt lat="42.294601" lon="-0.446885">
        <ele>1557.9</ele>
        <time>2018-07-22T06:53:14.000Z</time>
      </trkpt>
      <trkpt lat="42.294607" lon="-0.446894">
        <ele>1557.9</ele>
        <time>2018-07-22T06:53:15.000Z</time>
      </trkpt>
      <trkpt lat="42.294615" lon="-0.446903">
        <ele>1558.0</ele>
        <time>2018-07-22T06:53:16.000Z</time>
      </trkpt>
      <trkpt lat="42.294624" lon="-0.446911">
        <ele>1558.1</ele>
        <time>2018-07-22T06:53:17.000Z</time>
      </trkpt>
      <trkpt lat="42.294633" lon="-0.446918">
        <ele>1558.3</ele>
        <time>2018-07-22T06:53:18.000Z</time>
      </trkpt>
      <trkpt lat="42.294643" lon="-0.446922">
        <ele>1558.5</ele>
        <time>2018-07-22T06:53:19.000Z</time>
      </trkpt>
      <trkpt lat="42.294654" lon="-0.446924">
        <ele>1558.8</ele>
        <time>2018-07-22T06:53:20.000Z</time>
      </trkpt>
      <trkpt lat="42.294663" lon="-0.446922">
        <ele>1559.1</ele>
        <time>2018-07-22T06:53:21.000Z</time>
      </trkpt>
      <trkpt lat="42.294673" lon="-0.446916">
        <ele>1559.4</ele>
        <time>2018-07-22T06:53:22.000Z</time>
      </trkpt>
      <trkpt lat="42.294682" lon="-0.446908">
        <ele>1559.8</ele>
        <time>2018-07-22T06:53:23.000Z</time>
      </trkpt>
      <trkpt lat="42.29469" lon="-0.446897">
        <ele>1560.2</ele>
        <time>2018-07-22T06:53:24.000Z</time>
      </trkpt>
      <trkpt lat="42.294699" lon="-0.446886">
        <ele>1560.6</ele>
        <time>2018-07-22T06:53:25.000Z</time>
      </trkpt>
      <trkpt lat="42.294708" lon="-0.446875">
        <ele>1561.0</ele>
        <time>2018-07-22T06:53:26.000Z</time>
      </trkpt>
      <trkpt lat="42.294718" lon="-0.446866">
        <ele>1561.4</ele>
        <time>2018-07-22T06:53:27.000Z</time>
      </trkpt>
      <trkpt lat="42.294727" lon="-0.446858">
        <ele>1561.8</ele>
        <time>2018-07-22T06:53:28.000Z</time>
      </trkpt>
      <trkpt lat="42.294737" lon="-0.446852">
        <ele>1562.2</ele>
        <time>2018-07-22T06:53:29.000Z</time>
      </trkpt>
      <trkpt lat="42.294747" lon="-0.446847">
        <ele>1562.5</ele>
        <time>2018-07-22T06:53:30.000Z</time>
      </trkpt>
      <trkpt lat="42.294757" lon="-0.446843">
        <ele>1562.8</ele>
        <time>2018-07-22T06:53:31.000Z</time>
      </trkpt>
      <trkpt lat="42.294766" lon="-0.446839">
        <ele>1563.2</ele>
        <time>2018-07-22T06:53:32.000Z</time>
      </trkpt>
      <trkpt lat="42.294775" lon="-0.446835">
        <ele>1563.5</ele>
        <time>2018-07-22T06:53:33.000Z</time>
      </trkpt>
      <trkpt lat="42.294784" lon="-0.446833">
        <ele>1563.7</ele>
        <time>2018-07-22T06:53:34.000Z</time>
      </trkpt>
      <trkpt lat="42.294792" lon="-0.446832">
        <ele>1564.0</ele>
        <time>2018-07-22T06:53:35.000Z</time>
      </trkpt>
      <trkpt lat="42.294799" lon="-0.446833">
        <ele>1564.2</ele>
        <time>2018-07-22T06:53:36.000Z</time>
      </trkpt>
      <trkpt lat="42.294807" lon="-0.446837">
        <ele>1564.3</ele>
        <time>2018-07-22T06:53:37.000Z</time>
      </trkpt>
      <trkpt lat="42.294813" lon="-0.446845">
        <ele>1564.4</ele>
        <time>2018-07-22T06:53:38.000Z</time>
      </trkpt>
      <trkpt lat="42.29482" lon="-0.446853">
        <ele>1564.5</ele>
        <time>2018-07-22T06:53:39.000Z</time>
      </trkpt>
      <trkpt lat="42.294828" lon="-0.44686">
        <ele>1564.6</ele>
        <time>2018-07-22T06:53:40.000Z</time>
      </trkpt>
      <trkpt lat="42.294836" lon="-0.446862">
        <ele>1564.8</ele>
        <time>2018-07-22T06:53:41.000Z</time>
      </trkpt>
      <trkpt lat="42.294845" lon="-0.44686">
        <ele>1565.1</ele>
        <time>2018-07-22T06:53:42.000Z</time>
      </trkpt>
      <trkpt lat="42.294853" lon="-0.446857">
        <ele>1565.3</ele>
        <time>2018-07-22T06:53:43.000Z</time>
      </trkpt>
      <trkpt lat="42.294859" lon="-0.446854">
        <ele>1565.6</ele>
        <time>2018-07-22T06:53:44.000Z</time>
      </trkpt>
      <trkpt lat="42.294864" lon="-0.446851">
        <ele>1565.7</ele>
        <time>2018-07-22T06:53:45.000Z</time>
      </trkpt>
      <trkpt lat="42.294867" lon="-0.446849">
        <ele>1565.9</ele>
        <time>2018-07-22T06:53:46.000Z</time>
      </trkpt>
      <trkpt lat="42.294868" lon="-0.446848">
        <ele>1565.9</ele>
        <time>2018-07-22T06:53:47.000Z</time>
      </trkpt>
      <trkpt lat="42.294869" lon="-0.446847">
        <ele>1565.9</ele>
        <time>2018-07-22T06:53:48.000Z</time>
      </trkpt>
      <trkpt lat="42.29487" lon="-0.446846">
        <ele>1566.0</ele>
        <time>2018-07-22T06:53:49.000Z</time>
      </trkpt>
      <trkpt lat="42.294871" lon="-0.446845">
        <ele>1566.0</ele>
        <time>2018-07-22T06:53:50.000Z</time>
      </trkpt>
      <trkpt lat="42.294872" lon="-0.446844">
        <ele>1566.1</ele>
        <time>2018-07-22T06:53:51.000Z</time>
      </trkpt>
      <trkpt lat="42.294873" lon="-0.446844">
        <ele>1566.1</ele>
        <time>2018-07-22T06:53:52.000Z</time>
      </trkpt>
      <trkpt lat="42.294873" lon="-0.446843">
        <ele>1566.1</ele>
        <time>2018-07-22T06:53:53.000Z</time>
      </trkpt>
      <trkpt lat="42.294872" lon="-0.446841">
        <ele>1566.1</ele>
        <time>2018-07-22T07:11:30.000Z</time>
      </trkpt>
      <trkpt lat="42.294871" lon="-0.446836">
        <ele>1566.1</ele>
        <time>2018-07-22T07:11:31.000Z</time>
      </trkpt>
      <trkpt lat="42.294869" lon="-0.446831">
        <ele>1566.2</ele>
        <time>2018-07-22T07:11:32.000Z</time>
      </trkpt>
      <trkpt lat="42.294864" lon="-0.446831">
        <ele>1566.0</ele>
        <time>2018-07-22T07:11:33.000Z</time>
      </trkpt>
      <trkpt lat="42.294857" lon="-0.446835">
        <ele>1565.8</ele>
        <time>2018-07-22T07:11:34.000Z</time>
      </trkpt>
      <trkpt lat="42.294848" lon="-0.44684">
        <ele>1565.4</ele>
        <time>2018-07-22T07:11:35.000Z</time>
      </trkpt>
      <trkpt lat="42.294839" lon="-0.446841">
        <ele>1565.2</ele>
        <time>2018-07-22T07:11:36.000Z</time>
      </trkpt>
      <trkpt lat="42.294829" lon="-0.446839">
        <ele>1564.9</ele>
        <time>2018-07-22T07:11:37.000Z</time>
      </trkpt>
      <trkpt lat="42.294819" lon="-0.446833">
        <ele>1564.7</ele>
        <time>2018-07-22T07:11:38.000Z</time>
      </trkpt>
      <trkpt lat="42.29481" lon="-0.446827">
        <ele>1564.6</ele>
        <time>2018-07-22T07:11:39.000Z</time>
      </trkpt>
      <trkpt lat="42.2948" lon="-0.446821">
        <ele>1564.4</ele>
        <time>2018-07-22T07:11:40.000Z</time>
      </trkpt>
      <trkpt lat="42.294791" lon="-0.446816">
        <ele>1564.2</ele>
        <time>2018-07-22T07:11:41.000Z</time>
      </trkpt>
      <trkpt lat="42.294782" lon="-0.446814">
        <ele>1563.9</ele>
        <time>2018-07-22T07:11:42.000Z</time>
      </trkpt>
      <trkpt lat="42.294773" lon="-0.446813">
        <ele>1563.7</ele>
        <time>2018-07-22T07:11:43.000Z</time>
      </trkpt>
      <trkpt lat="42.294764" lon="-0.446816">
        <ele>1563.4</ele>
        <time>2018-07-22T07:11:44.000Z</time>
      </trkpt>
      <trkpt lat="42.294755" lon="-0.44682">
        <ele>1563.1</ele>
        <time>2018-07-22T07:11:45.000Z</time>
      </trkpt>
      <trkpt lat="42.294745" lon="-0.446825">
        <ele>1562.8</ele>
        <time>2018-07-22T07:11:46.000Z</time>
      </trkpt>
      <trkpt lat="42.294735" lon="-0.446832">
        <ele>1562.4</ele>
        <time>2018-07-22T07:11:47.000Z</time>
      </trkpt>
      <trkpt lat="42.294725" lon="-0.44684">
        <ele>1562.0</ele>
        <time>2018-07-22T07:11:48.000Z</time>
      </trkpt>
      <trkpt lat="42.294715" lon="-0.446849">
        <ele>1561.6</ele>
        <time>2018-07-22T07:11:49.000Z</time>
      </trkpt>
      <trkpt lat="42.294704" lon="-0.446858">
        <ele>1561.1</ele>
        <time>2018-07-22T07:11:50.000Z</time>
      </trkpt>
      <trkpt lat="42.294694" lon="-0.446867">
        <ele>1560.7</ele>
        <time>2018-07-22T07:11:51.000Z</time>
      </trkpt>
      <trkpt lat="42.294683" lon="-0.446875">
        <ele>1560.3</ele>
        <time>2018-07-22T07:11:52.000Z</time>
      </trkpt>
      <trkpt lat="42.294673" lon="-0.446883">
        <ele>1559.9</ele>
        <time>2018-07-22T07:11:53.000Z</time>
      </trkpt>
      <trkpt lat="42.294663" lon="-0.44689">
        <ele>1559.5</ele>
        <time>2018-07-22T07:11:54.000Z</time>
      </trkpt>
      <trkpt lat="42.294654" lon="-0.446896">
        <ele>1559.2</ele>
        <time>2018-07-22T07:11:55.000Z</time>
      </trkpt>
      <trkpt lat="42.294646" lon="-0.4469">
        <ele>1558.9</ele>
        <time>2018-07-22T07:11:56.000Z</time>
      </trkpt>
      <trkpt lat="42.29464" lon="-0.446902">
        <ele>1558.7</ele>
        <time>2018-07-22T07:11:57.000Z</time>
      </trkpt>
      <trkpt lat="42.294635" lon="-0.446902">
        <ele>1558.6</ele>
        <time>2018-07-22T07:11:58.000Z</time>
      </trkpt>
      <trkpt lat="42.294632" lon="-0.446901">
        <ele>1558.5</ele>
        <time>2018-07-22T07:11:59.000Z</time>
      </trkpt>
      <trkpt lat="42.294629" lon="-0.446898">
        <ele>1558.5</ele>
        <time>2018-07-22T07:12:00.000Z</time>
      </trkpt>
      <trkpt lat="42.294626" lon="-0.446896">
        <ele>1558.4</ele>
        <time>2018-07-22T07:12:01.000Z</time>
      </trkpt>
      <trkpt lat="42.294623" lon="-0.446893">
        <ele>1558.4</ele>
        <time>2018-07-22T07:12:02.000Z</time>
      </trkpt>
      <trkpt lat="42.294618" lon="-0.446891">
        <ele>1558.2</ele>
        <time>2018-07-22T07:12:03.000Z</time>
      </trkpt>
      <trkpt lat="42.294613" lon="-0.44689">
        <ele>1558.1</ele>
        <time>2018-07-22T07:12:04.000Z</time>
      </trkpt>
      <trkpt lat="42.294608" lon="-0.446889">
        <ele>1558.0</ele>
        <time>2018-07-22T07:12:05.000Z</time>
      </trkpt>
      <trkpt lat="42.294602" lon="-0.446888">
        <ele>1557.8</ele>
        <time>2018-07-22T07:12:06.000Z</time>
      </trkpt>
      <trkpt lat="42.294597" lon="-0.446888">
        <ele>1557.7</ele>
        <time>2018-07-22T07:12:07.000Z</time>
      </trkpt>
      <trkpt lat="42.294594" lon="-0.446887">
        <ele>1557.6</ele>
        <time>2018-07-22T07:12:08.000Z</time>
      </trkpt>
      <trkpt lat="42.294591" lon="-0.446887">
        <ele>1557.5</ele>
        <time>2018-07-22T07:12:09.000Z</time>
      </trkpt>
      <trkpt lat="42.294588" lon="-0.446886">
        <ele>1557.5</ele>
        <time>2018-07-22T07:12:10.000Z</time>
      </trkpt>
      <trkpt lat="42.294583" lon="-0.446885">
        <ele>1557.3</ele>
        <time>2018-07-22T07:12:11.000Z</time>
      </trkpt>
      <trkpt lat="42.294576" lon="-0.44688">
        <ele>1557.2</ele>
        <time>2018-07-22T07:12:12.000Z</time>
      </trkpt>
      <trkpt lat="42.294572" lon="-0.446874">
        <ele>1557.2</ele>
        <time>2018-07-22T07:12:13.000Z</time>
      </trkpt>
      <trkpt lat="42.294571" lon="-0.446869">
        <ele>1557.2</ele>
        <time>2018-07-22T07:12:14.000Z</time>
      </trkpt>
      <trkpt lat="42.29457" lon="-0.446867">
        <ele>1557.2</ele>
        <time>2018-07-22T07:12:15.000Z</time>
      </trkpt>
      <trkpt lat="42.294569" lon="-0.446865">
        <ele>1557.2</ele>
        <time>2018-07-22T07:12:16.000Z</time>
      </trkpt>
      <trkpt lat="42.294569" lon="-0.446865">
        <ele>1557.2</ele>
        <time>2018-07-22T07:12:17.000Z</time>
      </trkpt>
      <trkpt lat="42.294569" lon="-0.446865">
        <ele>1557.2</ele>
        <time>2018-07-22T07:12:18.000Z</time>
      </trkpt>
      <trkpt lat="42.294569" lon="-0.446864">
        <ele>1557.3</ele>
        <time>2018-07-22T07:12:19.000Z</time>
      </trkpt>
      <trkpt lat="42.294568" lon="-0.446864">
        <ele>1557.2</ele>
        <time>2018-07-22T07:12:20.000Z</time>
      </trkpt>
      <trkpt lat="42.294568" lon="-0.446863">
        <ele>1557.2</ele>
        <time>2018-07-22T07:12:21.000Z</time>
      </trkpt>
      <trkpt lat="42.294567" lon="-0.446861">
        <ele>1557.2</ele>
        <time>2018-07-22T07:12:22.000Z</time>
      </trkpt>
      <trkpt lat="42.294565" lon="-0.446859">
        <ele>1557.2</ele>
        <time>2018-07-22T07:12:23.000Z</time>
      </trkpt>
      <trkpt lat="42.294564" lon="-0.446857">
        <ele>1557.2</ele>
        <time>2018-07-22T07:12:24.000Z</time>
      </trkpt>
      <trkpt lat="42.294562" lon="-0.446854">
        <ele>1557.2</ele>
        <time>2018-07-22T07:12:25.000Z</time>
      </trkpt>
      <trkpt lat="42.29456" lon="-0.446851">
        <ele>1557.2</ele>
        <time>2018-07-22T07:12:26.000Z</time>
      </trkpt>
      <trkpt lat="42.294556" lon="-0.446843">
        <ele>1557.2</ele>
        <time>2018-07-22T07:12:27.000Z</time>
      </trkpt>
      <trkpt lat="42.294552" lon="-0.446834">
        <ele>1557.2</ele>
        <time>2018-07-22T07:12:28.000Z</time>
      </trkpt>
      <trkpt lat="42.294549" lon="-0.446828">
        <ele>1557.2</ele>
        <time>2018-07-22T07:12:29.000Z</time>
      </trkpt>
      <trkpt lat="42.294546" lon="-0.446824">
        <ele>1557.2</ele>
        <time>2018-07-22T07:12:30.000Z</time>
      </trkpt>
      <trkpt lat="42.294545" lon="-0.446821">
        <ele>1557.2</ele>
        <time>2018-07-22T07:12:31.000Z</time>
      </trkpt>
      <trkpt lat="42.294545" lon="-0.44682">
        <ele>1557.2</ele>
        <time>2018-07-22T07:12:32.000Z</time>
      </trkpt>
      <trkpt lat="42.294544" lon="-0.44682">
        <ele>1557.2</ele>
        <time>2018-07-22T07:12:33.000Z</time>
      </trkpt>
      <trkpt lat="42.294544" lon="-0.44682">
        <ele>1557.2</ele>
        <time>2018-07-22T07:12:34.000Z</time>
      </trkpt>
      <trkpt lat="42.294542" lon="-0.446821">
        <ele>1557.1</ele>
        <time>2018-07-22T07:12:35.000Z</time>
      </trkpt>
      <trkpt lat="42.294539" lon="-0.446821">
        <ele>1557.0</ele>
        <time>2018-07-22T07:12:36.000Z</time>
      </trkpt>
      <trkpt lat="42.294535" lon="-0.446821">
        <ele>1556.9</ele>
        <time>2018-07-22T07:12:37.000Z</time>
      </trkpt>
      <trkpt lat="42.294532" lon="-0.446823">
        <ele>1556.8</ele>
        <time>2018-07-22T07:12:38.000Z</time>
      </trkpt>
      <trkpt lat="42.294529" lon="-0.446826">
        <ele>1556.7</ele>
        <time>2018-07-22T07:12:39.000Z</time>
      </trkpt>
      <trkpt lat="42.294527" lon="-0.446829">
        <ele>1556.6</ele>
        <time>2018-07-22T07:12:40.000Z</time>
      </trkpt>
      <trkpt lat="42.294526" lon="-0.446832">
        <ele>1556.5</ele>
        <time>2018-07-22T07:12:41.000Z</time>
      </trkpt>
      <trkpt lat="42.294525" lon="-0.446834">
        <ele>1556.5</ele>
        <time>2018-07-22T07:12:42.000Z</time>
      </trkpt>
      <trkpt lat="42.294524" lon="-0.446835">
        <ele>1556.4</ele>
        <time>2018-07-22T07:12:43.000Z</time>
      </trkpt>
      <trkpt lat="42.294522" lon="-0.446838">
        <ele>1556.3</ele>
        <time>2018-07-22T07:12:44.000Z</time>
      </trkpt>
      <trkpt lat="42.29452" lon="-0.44684">
        <ele>1556.2</ele>
        <time>2018-07-22T07:12:45.000Z</time>
      </trkpt>
      <trkpt lat="42.294519" lon="-0.446841">
        <ele>1556.2</ele>
        <time>2018-07-22T07:12:46.000Z</time>
      </trkpt>
      <trkpt lat="42.294517" lon="-0.446842">
        <ele>1556.1</ele>
        <time>2018-07-22T07:12:47.000Z</time>
      </trkpt>
      <trkpt lat="42.294515" lon="-0.446844">
        <ele>1556.0</ele>
        <time>2018-07-22T07:12:48.000Z</time>
      </trkpt>
      <trkpt lat="42.294513" lon="-0.446846">
        <ele>1555.9</ele>
        <time>2018-07-22T07:12:49.000Z</time>
      </trkpt>
      <trkpt lat="42.294506" lon="-0.446841">
        <ele>1555.8</ele>
        <time>2018-07-22T07:12:50.000Z</time>
      </trkpt>
      <trkpt lat="42.2945" lon="-0.446833">
        <ele>1555.8</ele>
        <time>2018-07-22T07:12:51.000Z</time>
      </trkpt>
      <trkpt lat="42.294493" lon="-0.446828">
        <ele>1555.6</ele>
        <time>2018-07-22T07:12:52.000Z</time>
      </trkpt>
      <trkpt lat="42.294486" lon="-0.446826">
        <ele>1555.5</ele>
        <time>2018-07-22T07:12:53.000Z</time>
      </trkpt>
      <trkpt lat="42.294479" lon="-0.446826">
        <ele>1555.3</ele>
        <time>2018-07-22T07:12:54.000Z</time>
      </trkpt>
      <trkpt lat="42.294473" lon="-0.446828">
        <ele>1555.1</ele>
        <time>2018-07-22T07:12:55.000Z</time>
      </trkpt>
      <trkpt lat="42.294469" lon="-0.446829">
        <ele>1555.0</ele>
        <time>2018-07-22T07:12:56.000Z</time>
      </trkpt>
      <trkpt lat="42.294466" lon="-0.446831">
        <ele>1554.8</ele>
        <time>2018-07-22T07:12:57.000Z</time>
      </trkpt>
      <trkpt lat="42.294465" lon="-0.446832">
        <ele>1554.8</ele>
        <time>2018-07-22T07:12:58.000Z</time>
      </trkpt>
      <trkpt lat="42.294464" lon="-0.446832">
        <ele>1554.8</ele>
        <time>2018-07-22T07:12:59.000Z</time>
      </trkpt>
      <trkpt lat="42.294464" lon="-0.446832">
        <ele>1554.8</ele>
        <time>2018-07-22T07:13:00.000Z</time>
      </trkpt>
      <trkpt lat="42.294464" lon="-0.446831">
        <ele>1554.8</ele>
        <time>2018-07-22T07:13:01.000Z</time>
      </trkpt>
      <trkpt lat="42.294464" lon="-0.446831">
        <ele>1554.8</ele>
        <time>2018-07-22T07:13:02.000Z</time>
      </trkpt>
      <trkpt lat="42.294463" lon="-0.446831">
        <ele>1554.8</ele>
        <time>2018-07-22T07:13:03.000Z</time>
      </trkpt>
      <trkpt lat="42.294462" lon="-0.446832">
        <ele>1554.7</ele>
        <time>2018-07-22T07:13:04.000Z</time>
      </trkpt>
      <trkpt lat="42.294462" lon="-0.446832">
        <ele>1554.7</ele>
        <time>2018-07-22T07:13:05.000Z</time>
      </trkpt>
      <trkpt lat="42.294462" lon="-0.446832">
        <ele>1554.7</ele>
        <time>2018-07-22T07:13:06.000Z</time>
      </trkpt>
      <trkpt lat="42.29446" lon="-0.446833">
        <ele>1554.6</ele>
        <time>2018-07-22T07:13:07.000Z</time>
      </trkpt>
      <trkpt lat="42.294456" lon="-0.446835">
        <ele>1554.5</ele>
        <time>2018-07-22T07:13:08.000Z</time>
      </trkpt>
      <trkpt lat="42.294448" lon="-0.446839">
        <ele>1554.2</ele>
        <time>2018-07-22T07:13:09.000Z</time>
      </trkpt>
      <trkpt lat="42.294442" lon="-0.446841">
        <ele>1554.0</ele>
        <time>2018-07-22T07:13:10.000Z</time>
      </trkpt>
      <trkpt lat="42.294435" lon="-0.446842">
        <ele>1553.8</ele>
        <time>2018-07-22T07:13:11.000Z</time>
      </trkpt>
      <trkpt lat="42.294428" lon="-0.446841">
        <ele>1553.6</ele>
        <time>2018-07-22T07:13:12.000Z</time>
      </trkpt>
      <trkpt lat="42.294421" lon="-0.446839">
        <ele>1553.5</ele>
        <time>2018-07-22T07:13:13.000Z</time>
      </trkpt>
      <trkpt lat="42.294413" lon="-0.446836">
        <ele>1553.3</ele>
        <time>2018-07-22T07:13:14.000Z</time>
      </trkpt>
      <trkpt lat="42.294405" lon="-0.446833">
        <ele>1553.1</ele>
        <time>2018-07-22T07:13:15.000Z</time>
      </trkpt>
      <trkpt lat="42.294398" lon="-0.446834">
        <ele>1552.9</ele>
        <time>2018-07-22T07:13:16.000Z</time>
      </trkpt>
      <trkpt lat="42.294392" lon="-0.446839">
        <ele>1552.6</ele>
        <time>2018-07-22T07:13:17.000Z</time>
      </trkpt>
      <trkpt lat="42.294386" lon="-0.446846">
        <ele>1552.4</ele>
        <time>2018-07-22T07:13:18.000Z</time>
      </trkpt>
      <trkpt lat="42.294379" lon="-0.446853">
        <ele>1552.1</ele>
        <time>2018-07-22T07:13:19.000Z</time>
      </trkpt>
      <trkpt lat="42.294371" lon="-0.446857">
        <ele>1551.8</ele>
        <time>2018-07-22T07:13:20.000Z</time>
      </trkpt>
      <trkpt lat="42.294362" lon="-0.446859">
        <ele>1551.5</ele>
        <time>2018-07-22T07:13:21.000Z</time>
      </trkpt>
      <trkpt lat="42.294352" lon="-0.446859">
        <ele>1551.2</ele>
        <time>2018-07-22T07:13:22.000Z</time>
      </trkpt>
      <trkpt lat="42.294341" lon="-0.446859">
        <ele>1550.9</ele>
        <time>2018-07-22T07:13:23.000Z</time>
      </trkpt>
      <trkpt lat="42.29433" lon="-0.446859">
        <ele>1550.6</ele>
        <time>2018-07-22T07:13:24.000Z</time>
      </trkpt>
      <trkpt lat="42.294322" lon="-0.446862">
        <ele>1550.3</ele>
        <time>2018-07-22T07:13:25.000Z</time>
      </trkpt>
      <trkpt lat="42.294315" lon="-0.446867">
        <ele>1550.1</ele>
        <time>2018-07-22T07:13:26.000Z</time>
      </trkpt>
      <trkpt lat="42.294311" lon="-0.446874">
        <ele>1549.8</ele>
        <time>2018-07-22T07:13:27.000Z</time>
      </trkpt>
      <trkpt lat="42.294307" lon="-0.446881">
        <ele>1549.6</ele>
        <time>2018-07-22T07:13:28.000Z</time>
      </trkpt>
      <trkpt lat="42.294305" lon="-0.446886">
        <ele>1549.5</ele>
        <time>2018-07-22T07:13:29.000Z</time>
      </trkpt>
      <trkpt lat="42.294304" lon="-0.446891">
        <ele>1549.4</ele>
        <time>2018-07-22T07:13:30.000Z</time>
      </trkpt>
      <trkpt lat="42.294303" lon="-0.446893">
        <ele>1549.3</ele>
        <time>2018-07-22T07:13:31.000Z</time>
      </trkpt>
      <trkpt lat="42.294303" lon="-0.446895">
        <ele>1549.3</ele>
        <time>2018-07-22T07:13:32.000Z</time>
      </trkpt>
      <trkpt lat="42.294303" lon="-0.446896">
        <ele>1549.3</ele>
        <time>2018-07-22T07:13:33.000Z</time>
      </trkpt>
      <trkpt lat="42.294303" lon="-0.446896">
        <ele>1549.3</ele>
        <time>2018-07-22T07:13:34.000Z</time>
      </trkpt>
      <trkpt lat="42.294303" lon="-0.446896">
        <ele>1549.3</ele>
        <time>2018-07-22T07:13:35.000Z</time>
      </trkpt>
      <trkpt lat="42.294303" lon="-0.446896">
        <ele>1549.3</ele>
        <time>2018-07-22T07:13:36.000Z</time>
      </trkpt>
      <trkpt lat="42.294303" lon="-0.446897">
        <ele>1549.3</ele>
        <time>2018-07-22T07:13:37.000Z</time>
      </trkpt>
      <trkpt lat="42.294303" lon="-0.446897">
        <ele>1549.3</ele>
        <time>2018-07-22T07:13:38.000Z</time>
      </trkpt>
      <trkpt lat="42.294303" lon="-0.446897">
        <ele>1549.3</ele>
        <time>2018-07-22T07:13:39.000Z</time>
      </trkpt>
      <trkpt lat="42.294303" lon="-0.446897">
        <ele>1549.3</ele>
        <time>2018-07-22T07:13:40.000Z</time>
      </trkpt>
      <trkpt lat="42.294303" lon="-0.446897">
        <ele>1549.3</ele>
        <time>2018-07-22T07:13:41.000Z</time>
      </trkpt>
      <trkpt lat="42.294303" lon="-0.446897">
        <ele>1549.3</ele>
        <time>2018-07-22T07:13:42.000Z</time>
      </trkpt>
      <trkpt lat="42.294303" lon="-0.446898">
        <ele>1549.2</ele>
        <time>2018-07-22T07:13:43.000Z</time>
      </trkpt>
      <trkpt lat="42.294303" lon="-0.446898">
        <ele>1549.2</ele>
        <time>2018-07-22T07:13:44.000Z</time>
      </trkpt>
      <trkpt lat="42.294303" lon="-0.446898">
        <ele>1549.2</ele>
        <time>2018-07-22T07:13:45.000Z</time>
      </trkpt>
      <trkpt lat="42.294303" lon="-0.446898">
        <ele>1549.2</ele>
        <time>2018-07-22T07:13:46.000Z</time>
      </trkpt>
      <trkpt lat="42.294303" lon="-0.446898">
        <ele>1549.2</ele>
        <time>2018-07-22T07:13:47.000Z</time>
      </trkpt>
      <trkpt lat="42.294303" lon="-0.446898">
        <ele>1549.2</ele>
        <time>2018-07-22T07:13:48.000Z</time>
      </trkpt>
      <trkpt lat="42.294303" lon="-0.446898">
        <ele>1549.2</ele>
        <time>2018-07-22T07:13:49.000Z</time>
      </trkpt>
      <trkpt lat="42.294303" lon="-0.446898">
        <ele>1549.2</ele>
        <time>2018-07-22T07:13:50.000Z</time>
      </trkpt>
      <trkpt lat="42.294303" lon="-0.446899">
        <ele>1549.2</ele>
        <time>2018-07-22T07:13:51.000Z</time>
      </trkpt>
      <trkpt lat="42.294303" lon="-0.446899">
        <ele>1549.2</ele>
        <time>2018-07-22T07:13:52.000Z</time>
      </trkpt>
      <trkpt lat="42.294303" lon="-0.446899">
        <ele>1549.2</ele>
        <time>2018-07-22T07:13:53.000Z</time>
      </trkpt>
      <trkpt lat="42.294303" lon="-0.446899">
        <ele>1549.2</ele>
        <time>2018-07-22T07:13:54.000Z</time>
      </trkpt>
      <trkpt lat="42.294303" lon="-0.446899">
        <ele>1549.2</ele>
        <time>2018-07-22T07:13:55.000Z</time>
      </trkpt>
      <trkpt lat="42.294303" lon="-0.4469">
        <ele>1549.2</ele>
        <time>2018-07-22T07:13:56.000Z</time>
      </trkpt>
      <trkpt lat="42.294303" lon="-0.4469">
        <ele>1549.2</ele>
        <time>2018-07-22T07:13:57.000Z</time>
      </trkpt>
      <trkpt lat="42.294303" lon="-0.4469">
        <ele>1549.2</ele>
        <time>2018-07-22T07:13:58.000Z</time>
      </trkpt>
      <trkpt lat="42.294302" lon="-0.446901">
        <ele>1549.2</ele>
        <time>2018-07-22T07:13:59.000Z</time>
      </trkpt>
      <trkpt lat="42.294302" lon="-0.446901">
        <ele>1549.2</ele>
        <time>2018-07-22T07:14:00.000Z</time>
      </trkpt>
      <trkpt lat="42.294302" lon="-0.446902">
        <ele>1549.2</ele>
        <time>2018-07-22T07:14:01.000Z</time>
      </trkpt>
      <trkpt lat="42.294302" lon="-0.446902">
        <ele>1549.2</ele>
        <time>2018-07-22T07:14:02.000Z</time>
      </trkpt>
      <trkpt lat="42.294302" lon="-0.446903">
        <ele>1549.1</ele>
        <time>2018-07-22T07:14:03.000Z</time>
      </trkpt>
      <trkpt lat="42.294302" lon="-0.446903">
        <ele>1549.1</ele>
        <time>2018-07-22T07:14:04.000Z</time>
      </trkpt>
      <trkpt lat="42.294302" lon="-0.446904">
        <ele>1549.1</ele>
        <time>2018-07-22T07:14:05.000Z</time>
      </trkpt>
      <trkpt lat="42.294302" lon="-0.446905">
        <ele>1549.1</ele>
        <time>2018-07-22T07:14:06.000Z</time>
      </trkpt>
      <trkpt lat="42.294302" lon="-0.446905">
        <ele>1549.1</ele>
        <time>2018-07-22T07:14:07.000Z</time>
      </trkpt>
      <trkpt lat="42.294302" lon="-0.446906">
        <ele>1549.1</ele>
        <time>2018-07-22T07:14:08.000Z</time>
      </trkpt>
      <trkpt lat="42.294301" lon="-0.446907">
        <ele>1549.1</ele>
        <time>2018-07-22T07:14:09.000Z</time>
      </trkpt>
      <trkpt lat="42.294301" lon="-0.446908">
        <ele>1549.0</ele>
        <time>2018-07-22T07:14:10.000Z</time>
      </trkpt>
      <trkpt lat="42.294301" lon="-0.446909">
        <ele>1549.0</ele>
        <time>2018-07-22T07:14:11.000Z</time>
      </trkpt>
      <trkpt lat="42.294301" lon="-0.44691">
        <ele>1549.0</ele>
        <time>2018-07-22T07:14:12.000Z</time>
      </trkpt>
      <trkpt lat="42.294301" lon="-0.446911">
        <ele>1549.0</ele>
        <time>2018-07-22T07:14:13.000Z</time>
      </trkpt>
      <trkpt lat="42.2943" lon="-0.446913">
        <ele>1548.9</ele>
        <time>2018-07-22T07:14:14.000Z</time>
      </trkpt>
      <trkpt lat="42.2943" lon="-0.446914">
        <ele>1548.9</ele>
        <time>2018-07-22T07:14:15.000Z</time>
      </trkpt>
      <trkpt lat="42.294299" lon="-0.446915">
        <ele>1548.9</ele>
        <time>2018-07-22T07:14:16.000Z</time>
      </trkpt>
      <trkpt lat="42.294299" lon="-0.446917">
        <ele>1548.8</ele>
        <time>2018-07-22T07:14:17.000Z</time>
      </trkpt>
      <trkpt lat="42.294298" lon="-0.446918">
        <ele>1548.8</ele>
        <time>2018-07-22T07:14:18.000Z</time>
      </trkpt>
      <trkpt lat="42.294298" lon="-0.44692">
        <ele>1548.8</ele>
        <time>2018-07-22T07:14:19.000Z</time>
      </trkpt>
      <trkpt lat="42.294298" lon="-0.446923">
        <ele>1548.7</ele>
        <time>2018-07-22T07:14:20.000Z</time>
      </trkpt>
      <trkpt lat="42.294297" lon="-0.446926">
        <ele>1548.6</ele>
        <time>2018-07-22T07:14:21.000Z</time>
      </trkpt>
      <trkpt lat="42.294297" lon="-0.446929">
        <ele>1548.6</ele>
        <time>2018-07-22T07:14:22.000Z</time>
      </trkpt>
      <trkpt lat="42.294296" lon="-0.446931">
        <ele>1548.5</ele>
        <time>2018-07-22T07:14:23.000Z</time>
      </trkpt>
      <trkpt lat="42.294296" lon="-0.446932">
        <ele>1548.5</ele>
        <time>2018-07-22T07:14:24.000Z</time>
      </trkpt>
      <trkpt lat="42.294296" lon="-0.446933">
        <ele>1548.5</ele>
        <time>2018-07-22T07:14:25.000Z</time>
      </trkpt>
      <trkpt lat="42.294296" lon="-0.446933">
        <ele>1548.5</ele>
        <time>2018-07-22T07:14:26.000Z</time>
      </trkpt>
      <trkpt lat="42.294296" lon="-0.446934">
        <ele>1548.5</ele>
        <time>2018-07-22T07:14:27.000Z</time>
      </trkpt>
      <trkpt lat="42.294296" lon="-0.446934">
        <ele>1548.5</ele>
        <time>2018-07-22T07:14:28.000Z</time>
      </trkpt>
      <trkpt lat="42.294296" lon="-0.446935">
        <ele>1548.5</ele>
        <time>2018-07-22T07:14:29.000Z</time>
      </trkpt>
      <trkpt lat="42.294295" lon="-0.446936">
        <ele>1548.4</ele>
        <time>2018-07-22T07:14:30.000Z</time>
      </trkpt>
      <trkpt lat="42.294295" lon="-0.446936">
        <ele>1548.4</ele>
        <time>2018-07-22T07:14:31.000Z</time>
      </trkpt>
      <trkpt lat="42.294295" lon="-0.446937">
        <ele>1548.4</ele>
        <time>2018-07-22T07:14:32.000Z</time>
      </trkpt>
      <trkpt lat="42.294295" lon="-0.446938">
        <ele>1548.4</ele>
        <time>2018-07-22T07:14:33.000Z</time>
      </trkpt>
      <trkpt lat="42.294295" lon="-0.446939">
        <ele>1548.4</ele>
        <time>2018-07-22T07:14:34.000Z</time>
      </trkpt>
      <trkpt lat="42.294295" lon="-0.44694">
        <ele>1548.4</ele>
        <time>2018-07-22T07:14:35.000Z</time>
      </trkpt>
      <trkpt lat="42.294294" lon="-0.446941">
        <ele>1548.3</ele>
        <time>2018-07-22T07:14:36.000Z</time>
      </trkpt>
      <trkpt lat="42.294294" lon="-0.446942">
        <ele>1548.3</ele>
        <time>2018-07-22T07:14:37.000Z</time>
      </trkpt>
      <trkpt lat="42.294294" lon="-0.446943">
        <ele>1548.3</ele>
        <time>2018-07-22T07:14:38.000Z</time>
      </trkpt>
      <trkpt lat="42.294294" lon="-0.446944">
        <ele>1548.3</ele>
        <time>2018-07-22T07:14:39.000Z</time>
      </trkpt>
      <trkpt lat="42.294294" lon="-0.446944">
        <ele>1548.3</ele>
        <time>2018-07-22T07:14:40.000Z</time>
      </trkpt>
      <trkpt lat="42.294294" lon="-0.446945">
        <ele>1548.3</ele>
        <time>2018-07-22T07:14:41.000Z</time>
      </trkpt>
      <trkpt lat="42.294294" lon="-0.446946">
        <ele>1548.3</ele>
        <time>2018-07-22T07:14:42.000Z</time>
      </trkpt>
      <trkpt lat="42.294293" lon="-0.446946">
        <ele>1548.2</ele>
        <time>2018-07-22T07:14:43.000Z</time>
      </trkpt>
      <trkpt lat="42.294293" lon="-0.446947">
        <ele>1548.2</ele>
        <time>2018-07-22T07:14:44.000Z</time>
      </trkpt>
      <trkpt lat="42.294293" lon="-0.446947">
        <ele>1548.2</ele>
        <time>2018-07-22T07:14:45.000Z</time>
      </trkpt>
      <trkpt lat="42.294293" lon="-0.446948">
        <ele>1548.2</ele>
        <time>2018-07-22T07:14:46.000Z</time>
      </trkpt>
      <trkpt lat="42.294293" lon="-0.446948">
        <ele>1548.2</ele>
        <time>2018-07-22T07:14:47.000Z</time>
      </trkpt>
      <trkpt lat="42.294293" lon="-0.446949">
        <ele>1548.2</ele>
        <time>2018-07-22T07:14:48.000Z</time>
      </trkpt>
      <trkpt lat="42.294293" lon="-0.44695">
        <ele>1548.2</ele>
        <time>2018-07-22T07:14:49.000Z</time>
      </trkpt>
      <trkpt lat="42.294293" lon="-0.44695">
        <ele>1548.2</ele>
        <time>2018-07-22T07:14:50.000Z</time>
      </trkpt>
      <trkpt lat="42.294292" lon="-0.446951">
        <ele>1548.1</ele>
        <time>2018-07-22T07:14:51.000Z</time>
      </trkpt>
      <trkpt lat="42.294292" lon="-0.446952">
        <ele>1548.1</ele>
        <time>2018-07-22T07:14:52.000Z</time>
      </trkpt>
      <trkpt lat="42.294292" lon="-0.446953">
        <ele>1548.1</ele>
        <time>2018-07-22T07:14:53.000Z</time>
      </trkpt>
      <trkpt lat="42.294292" lon="-0.446954">
        <ele>1548.1</ele>
        <time>2018-07-22T07:14:54.000Z</time>
      </trkpt>
      <trkpt lat="42.294292" lon="-0.446955">
        <ele>1548.1</ele>
        <time>2018-07-22T07:14:55.000Z</time>
      </trkpt>
      <trkpt lat="42.294291" lon="-0.446957">
        <ele>1548.0</ele>
        <time>2018-07-22T07:14:56.000Z</time>
      </trkpt>
      <trkpt lat="42.294291" lon="-0.446958">
        <ele>1548.0</ele>
        <time>2018-07-22T07:14:57.000Z</time>
      </trkpt>
      <trkpt lat="42.294291" lon="-0.44696">
        <ele>1548.0</ele>
        <time>2018-07-22T07:14:58.000Z</time>
      </trkpt>
      <trkpt lat="42.294291" lon="-0.446961">
        <ele>1547.9</ele>
        <time>2018-07-22T07:14:59.000Z</time>
      </trkpt>
      <trkpt lat="42.29429" lon="-0.446964">
        <ele>1547.9</ele>
        <time>2018-07-22T07:15:00.000Z</time>
      </trkpt>
      <trkpt lat="42.294289" lon="-0.446967">
        <ele>1547.8</ele>
        <time>2018-07-22T07:15:01.000Z</time>
      </trkpt>
      <trkpt lat="42.294288" lon="-0.446977">
        <ele>1547.6</ele>
        <time>2018-07-22T07:15:02.000Z</time>
      </trkpt>
      <trkpt lat="42.294286" lon="-0.446984">
        <ele>1547.5</ele>
        <time>2018-07-22T07:15:03.000Z</time>
      </trkpt>
      <trkpt lat="42.294286" lon="-0.44699">
        <ele>1547.4</ele>
        <time>2018-07-22T07:15:04.000Z</time>
      </trkpt>
      <trkpt lat="42.294285" lon="-0.446994">
        <ele>1547.3</ele>
        <time>2018-07-22T07:15:05.000Z</time>
      </trkpt>
      <trkpt lat="42.294285" lon="-0.446997">
        <ele>1547.2</ele>
        <time>2018-07-22T07:15:06.000Z</time>
      </trkpt>
      <trkpt lat="42.294285" lon="-0.446999">
        <ele>1547.2</ele>
        <time>2018-07-22T07:15:07.000Z</time>
      </trkpt>
      <trkpt lat="42.294285" lon="-0.447">
        <ele>1547.2</ele>
        <time>2018-07-22T07:15:08.000Z</time>
      </trkpt>
      <trkpt lat="42.294284" lon="-0.447001">
        <ele>1547.1</ele>
        <time>2018-07-22T07:15:09.000Z</time>
      </trkpt>
      <trkpt lat="42.294284" lon="-0.447002">
        <ele>1547.1</ele>
        <time>2018-07-22T07:15:10.000Z</time>
      </trkpt>
      <trkpt lat="42.294284" lon="-0.447003">
        <ele>1547.1</ele>
        <time>2018-07-22T07:15:11.000Z</time>
      </trkpt>
      <trkpt lat="42.294283" lon="-0.447005">
        <ele>1547.0</ele>
        <time>2018-07-22T07:15:12.000Z</time>
      </trkpt>
      <trkpt lat="42.294283" lon="-0.447007">
        <ele>1547.0</ele>
        <time>2018-07-22T07:15:13.000Z</time>
      </trkpt>
      <trkpt lat="42.294283" lon="-0.447009">
        <ele>1547.0</ele>
        <time>2018-07-22T07:15:14.000Z</time>
      </trkpt>
      <trkpt lat="42.294282" lon="-0.447011">
        <ele>1546.9</ele>
        <time>2018-07-22T07:15:15.000Z</time>
      </trkpt>
      <trkpt lat="42.294281" lon="-0.447014">
        <ele>1546.9</ele>
        <time>2018-07-22T07:15:16.000Z</time>
      </trkpt>
      <trkpt lat="42.294281" lon="-0.447017">
        <ele>1546.8</ele>
        <time>2018-07-22T07:15:17.000Z</time>
      </trkpt>
      <trkpt lat="42.294279" lon="-0.44702">
        <ele>1546.7</ele>
        <time>2018-07-22T07:15:18.000Z</time>
      </trkpt>
      <trkpt lat="42.294278" lon="-0.447022">
        <ele>1546.6</ele>
        <time>2018-07-22T07:15:19.000Z</time>
      </trkpt>
      <trkpt lat="42.294277" lon="-0.447025">
        <ele>1546.6</ele>
        <time>2018-07-22T07:15:20.000Z</time>
      </trkpt>
      <trkpt lat="42.294275" lon="-0.447027">
        <ele>1546.5</ele>
        <time>2018-07-22T07:15:21.000Z</time>
      </trkpt>
      <trkpt lat="42.294272" lon="-0.447029">
        <ele>1546.4</ele>
        <time>2018-07-22T07:15:22.000Z</time>
      </trkpt>
      <trkpt lat="42.294268" lon="-0.447032">
        <ele>1546.2</ele>
        <time>2018-07-22T07:15:23.000Z</time>
      </trkpt>
      <trkpt lat="42.294261" lon="-0.447035">
        <ele>1546.0</ele>
        <time>2018-07-22T07:15:24.000Z</time>
      </trkpt>
      <trkpt lat="42.29426" lon="-0.447037">
        <ele>1545.9</ele>
        <time>2018-07-22T07:15:25.000Z</time>
      </trkpt>
      <trkpt lat="42.294259" lon="-0.44704">
        <ele>1545.8</ele>
        <time>2018-07-22T07:15:26.000Z</time>
      </trkpt>
      <trkpt lat="42.294257" lon="-0.447042">
        <ele>1545.7</ele>
        <time>2018-07-22T07:15:27.000Z</time>
      </trkpt>
      <trkpt lat="42.294255" lon="-0.447045">
        <ele>1545.6</ele>
        <time>2018-07-22T07:15:28.000Z</time>
      </trkpt>
      <trkpt lat="42.294253" lon="-0.447047">
        <ele>1545.5</ele>
        <time>2018-07-22T07:15:29.000Z</time>
      </trkpt>
      <trkpt lat="42.294252" lon="-0.447049">
        <ele>1545.5</ele>
        <time>2018-07-22T07:15:30.000Z</time>
      </trkpt>
      <trkpt lat="42.294251" lon="-0.447051">
        <ele>1545.4</ele>
        <time>2018-07-22T07:15:31.000Z</time>
      </trkpt>
      <trkpt lat="42.29425" lon="-0.447052">
        <ele>1545.4</ele>
        <time>2018-07-22T07:15:32.000Z</time>
      </trkpt>
      <trkpt lat="42.294249" lon="-0.447054">
        <ele>1545.3</ele>
        <time>2018-07-22T07:15:33.000Z</time>
      </trkpt>
      <trkpt lat="42.294248" lon="-0.447056">
        <ele>1545.3</ele>
        <time>2018-07-22T07:15:34.000Z</time>
      </trkpt>
      <trkpt lat="42.294246" lon="-0.447059">
        <ele>1545.2</ele>
        <time>2018-07-22T07:15:35.000Z</time>
      </trkpt>
      <trkpt lat="42.294244" lon="-0.447062">
        <ele>1545.1</ele>
        <time>2018-07-22T07:15:36.000Z</time>
      </trkpt>
      <trkpt lat="42.294243" lon="-0.447065">
        <ele>1545.0</ele>
        <time>2018-07-22T07:15:37.000Z</time>
      </trkpt>
      <trkpt lat="42.294241" lon="-0.447068">
        <ele>1544.9</ele>
        <time>2018-07-22T07:15:38.000Z</time>
      </trkpt>
      <trkpt lat="42.29424" lon="-0.447071">
        <ele>1544.8</ele>
        <time>2018-07-22T07:15:39.000Z</time>
      </trkpt>
      <trkpt lat="42.294238" lon="-0.447073">
        <ele>1544.7</ele>
        <time>2018-07-22T07:15:40.000Z</time>
      </trkpt>
      <trkpt lat="42.294237" lon="-0.447076">
        <ele>1544.6</ele>
        <time>2018-07-22T07:15:41.000Z</time>
      </trkpt>
      <trkpt lat="42.294236" lon="-0.447078">
        <ele>1544.6</ele>
        <time>2018-07-22T07:15:42.000Z</time>
      </trkpt>
      <trkpt lat="42.294234" lon="-0.447082">
        <ele>1544.5</ele>
        <time>2018-07-22T07:15:43.000Z</time>
      </trkpt>
      <trkpt lat="42.294226" lon="-0.447091">
        <ele>1544.1</ele>
        <time>2018-07-22T07:15:44.000Z</time>
      </trkpt>
      <trkpt lat="42.294221" lon="-0.447098">
        <ele>1543.8</ele>
        <time>2018-07-22T07:15:45.000Z</time>
      </trkpt>
      <trkpt lat="42.294218" lon="-0.447101">
        <ele>1543.7</ele>
        <time>2018-07-22T07:15:46.000Z</time>
      </trkpt>
      <trkpt lat="42.294217" lon="-0.447102">
        <ele>1543.7</ele>
        <time>2018-07-22T07:15:47.000Z</time>
      </trkpt>
      <trkpt lat="42.294217" lon="-0.447103">
        <ele>1543.6</ele>
        <time>2018-07-22T07:15:48.000Z</time>
      </trkpt>
      <trkpt lat="42.294216" lon="-0.447104">
        <ele>1543.6</ele>
        <time>2018-07-22T07:15:49.000Z</time>
      </trkpt>
      <trkpt lat="42.294214" lon="-0.447108">
        <ele>1543.5</ele>
        <time>2018-07-22T07:15:50.000Z</time>
      </trkpt>
      <trkpt lat="42.294209" lon="-0.447115">
        <ele>1543.2</ele>
        <time>2018-07-22T07:15:51.000Z</time>
      </trkpt>
      <trkpt lat="42.294203" lon="-0.447124">
        <ele>1542.9</ele>
        <time>2018-07-22T07:15:52.000Z</time>
      </trkpt>
      <trkpt lat="42.294198" lon="-0.447132">
        <ele>1542.6</ele>
        <time>2018-07-22T07:15:53.000Z</time>
      </trkpt>
      <trkpt lat="42.294194" lon="-0.447139">
        <ele>1542.4</ele>
        <time>2018-07-22T07:15:54.000Z</time>
      </trkpt>
      <trkpt lat="42.294192" lon="-0.447144">
        <ele>1542.3</ele>
        <time>2018-07-22T07:15:55.000Z</time>
      </trkpt>
      <trkpt lat="42.294191" lon="-0.447149">
        <ele>1542.2</ele>
        <time>2018-07-22T07:15:56.000Z</time>
      </trkpt>
      <trkpt lat="42.29419" lon="-0.447153">
        <ele>1542.1</ele>
        <time>2018-07-22T07:15:57.000Z</time>
      </trkpt>
      <trkpt lat="42.29419" lon="-0.447156">
        <ele>1542.0</ele>
        <time>2018-07-22T07:15:58.000Z</time>
      </trkpt>
      <trkpt lat="42.294189" lon="-0.44716">
        <ele>1542.0</ele>
        <time>2018-07-22T07:15:59.000Z</time>
      </trkpt>
      <trkpt lat="42.294189" lon="-0.447163">
        <ele>1541.9</ele>
        <time>2018-07-22T07:16:00.000Z</time>
      </trkpt>
      <trkpt lat="42.294189" lon="-0.447166">
        <ele>1541.9</ele>
        <time>2018-07-22T07:16:01.000Z</time>
      </trkpt>
      <trkpt lat="42.294189" lon="-0.447169">
        <ele>1541.8</ele>
        <time>2018-07-22T07:16:02.000Z</time>
      </trkpt>
      <trkpt lat="42.294188" lon="-0.447172">
        <ele>1541.7</ele>
        <time>2018-07-22T07:16:03.000Z</time>
      </trkpt>
      <trkpt lat="42.294188" lon="-0.447175">
        <ele>1541.7</ele>
        <time>2018-07-22T07:16:04.000Z</time>
      </trkpt>
      <trkpt lat="42.294187" lon="-0.447178">
        <ele>1541.6</ele>
        <time>2018-07-22T07:16:05.000Z</time>
      </trkpt>
      <trkpt lat="42.294187" lon="-0.447181">
        <ele>1541.6</ele>
        <time>2018-07-22T07:16:06.000Z</time>
      </trkpt>
      <trkpt lat="42.294187" lon="-0.447183">
        <ele>1541.5</ele>
        <time>2018-07-22T07:16:07.000Z</time>
      </trkpt>
      <trkpt lat="42.294186" lon="-0.447186">
        <ele>1541.5</ele>
        <time>2018-07-22T07:16:08.000Z</time>
      </trkpt>
      <trkpt lat="42.294186" lon="-0.44719">
        <ele>1541.4</ele>
        <time>2018-07-22T07:16:09.000Z</time>
      </trkpt>
      <trkpt lat="42.294186" lon="-0.447193">
        <ele>1541.4</ele>
        <time>2018-07-22T07:16:10.000Z</time>
      </trkpt>
      <trkpt lat="42.294186" lon="-0.447195">
        <ele>1541.3</ele>
        <time>2018-07-22T07:16:11.000Z</time>
      </trkpt>
      <trkpt lat="42.294185" lon="-0.447197">
        <ele>1541.3</ele>
        <time>2018-07-22T07:16:12.000Z</time>
      </trkpt>
      <trkpt lat="42.294185" lon="-0.447198">
        <ele>1541.2</ele>
        <time>2018-07-22T07:16:13.000Z</time>
      </trkpt>
      <trkpt lat="42.294185" lon="-0.447198">
        <ele>1541.2</ele>
        <time>2018-07-22T07:16:14.000Z</time>
      </trkpt>
      <trkpt lat="42.294184" lon="-0.447198">
        <ele>1541.2</ele>
        <time>2018-07-22T07:16:15.000Z</time>
      </trkpt>
      <trkpt lat="42.294184" lon="-0.447199">
        <ele>1541.2</ele>
        <time>2018-07-22T07:16:16.000Z</time>
      </trkpt>
      <trkpt lat="42.294184" lon="-0.4472">
        <ele>1541.2</ele>
        <time>2018-07-22T07:16:17.000Z</time>
      </trkpt>
      <trkpt lat="42.294184" lon="-0.447201">
        <ele>1541.2</ele>
        <time>2018-07-22T07:16:18.000Z</time>
      </trkpt>
      <trkpt lat="42.294183" lon="-0.447201">
        <ele>1541.1</ele>
        <time>2018-07-22T07:16:19.000Z</time>
      </trkpt>
      <trkpt lat="42.294183" lon="-0.447202">
        <ele>1541.1</ele>
        <time>2018-07-22T07:16:20.000Z</time>
      </trkpt>
      <trkpt lat="42.294183" lon="-0.447202">
        <ele>1541.1</ele>
        <time>2018-07-22T07:16:21.000Z</time>
      </trkpt>
      <trkpt lat="42.294182" lon="-0.447203">
        <ele>1541.1</ele>
        <time>2018-07-22T07:16:22.000Z</time>
      </trkpt>
      <trkpt lat="42.294182" lon="-0.447203">
        <ele>1541.1</ele>
        <time>2018-07-22T07:16:23.000Z</time>
      </trkpt>
      <trkpt lat="42.294181" lon="-0.447204">
        <ele>1541.0</ele>
        <time>2018-07-22T07:16:24.000Z</time>
      </trkpt>
      <trkpt lat="42.294181" lon="-0.447204">
        <ele>1541.0</ele>
        <time>2018-07-22T07:16:25.000Z</time>
      </trkpt>
      <trkpt lat="42.294181" lon="-0.447205">
        <ele>1541.0</ele>
        <time>2018-07-22T07:16:26.000Z</time>
      </trkpt>
      <trkpt lat="42.29418" lon="-0.447205">
        <ele>1541.0</ele>
        <time>2018-07-22T07:16:27.000Z</time>
      </trkpt>
      <trkpt lat="42.29418" lon="-0.447206">
        <ele>1541.0</ele>
        <time>2018-07-22T07:16:28.000Z</time>
      </trkpt>
      <trkpt lat="42.29418" lon="-0.447207">
        <ele>1541.0</ele>
        <time>2018-07-22T07:16:29.000Z</time>
      </trkpt>
      <trkpt lat="42.29418" lon="-0.447208">
        <ele>1540.9</ele>
        <time>2018-07-22T07:16:30.000Z</time>
      </trkpt>
      <trkpt lat="42.294179" lon="-0.447209">
        <ele>1540.9</ele>
        <time>2018-07-22T07:16:31.000Z</time>
      </trkpt>
      <trkpt lat="42.294179" lon="-0.44721">
        <ele>1540.9</ele>
        <time>2018-07-22T07:16:32.000Z</time>
      </trkpt>
      <trkpt lat="42.294179" lon="-0.447211">
        <ele>1540.9</ele>
        <time>2018-07-22T07:16:33.000Z</time>
      </trkpt>
      <trkpt lat="42.294178" lon="-0.447212">
        <ele>1540.8</ele>
        <time>2018-07-22T07:16:34.000Z</time>
      </trkpt>
      <trkpt lat="42.294178" lon="-0.447213">
        <ele>1540.8</ele>
        <time>2018-07-22T07:16:35.000Z</time>
      </trkpt>
      <trkpt lat="42.294177" lon="-0.447214">
        <ele>1540.8</ele>
        <time>2018-07-22T07:16:36.000Z</time>
      </trkpt>
      <trkpt lat="42.294176" lon="-0.447215">
        <ele>1540.7</ele>
        <time>2018-07-22T07:16:37.000Z</time>
      </trkpt>
      <trkpt lat="42.294175" lon="-0.447215">
        <ele>1540.7</ele>
        <time>2018-07-22T07:16:38.000Z</time>
      </trkpt>
      <trkpt lat="42.294174" lon="-0.447215">
        <ele>1540.7</ele>
        <time>2018-07-22T07:16:39.000Z</time>
      </trkpt>
      <trkpt lat="42.294172" lon="-0.447216">
        <ele>1540.6</ele>
        <time>2018-07-22T07:16:40.000Z</time>
      </trkpt>
      <trkpt lat="42.294169" lon="-0.447217">
        <ele>1540.5</ele>
        <time>2018-07-22T07:16:41.000Z</time>
      </trkpt>
      <trkpt lat="42.294164" lon="-0.447218">
        <ele>1540.3</ele>
        <time>2018-07-22T07:16:42.000Z</time>
      </trkpt>
      <trkpt lat="42.294161" lon="-0.447219">
        <ele>1540.2</ele>
        <time>2018-07-22T07:16:43.000Z</time>
      </trkpt>
      <trkpt lat="42.294161" lon="-0.44722">
        <ele>1540.2</ele>
        <time>2018-07-22T07:16:44.000Z</time>
      </trkpt>
      <trkpt lat="42.294159" lon="-0.447222">
        <ele>1540.1</ele>
        <time>2018-07-22T07:16:45.000Z</time>
      </trkpt>
      <trkpt lat="42.294158" lon="-0.447224">
        <ele>1540.0</ele>
        <time>2018-07-22T07:16:46.000Z</time>
      </trkpt>
      <trkpt lat="42.294158" lon="-0.447225">
        <ele>1540.0</ele>
        <time>2018-07-22T07:16:47.000Z</time>
      </trkpt>
      <trkpt lat="42.294157" lon="-0.447226">
        <ele>1539.9</ele>
        <time>2018-07-22T07:16:48.000Z</time>
      </trkpt>
      <trkpt lat="42.294156" lon="-0.447227">
        <ele>1539.9</ele>
        <time>2018-07-22T07:16:49.000Z</time>
      </trkpt>
      <trkpt lat="42.294154" lon="-0.447228">
        <ele>1539.8</ele>
        <time>2018-07-22T07:16:50.000Z</time>
      </trkpt>
      <trkpt lat="42.294153" lon="-0.447228">
        <ele>1539.7</ele>
        <time>2018-07-22T07:16:51.000Z</time>
      </trkpt>
      <trkpt lat="42.294152" lon="-0.447229">
        <ele>1539.7</ele>
        <time>2018-07-22T07:16:52.000Z</time>
      </trkpt>
      <trkpt lat="42.294151" lon="-0.44723">
        <ele>1539.6</ele>
        <time>2018-07-22T07:16:53.000Z</time>
      </trkpt>
      <trkpt lat="42.294151" lon="-0.44723">
        <ele>1539.6</ele>
        <time>2018-07-22T07:16:54.000Z</time>
      </trkpt>
      <trkpt lat="42.29415" lon="-0.44723">
        <ele>1539.6</ele>
        <time>2018-07-22T07:16:55.000Z</time>
      </trkpt>
      <trkpt lat="42.294149" lon="-0.447231">
        <ele>1539.5</ele>
        <time>2018-07-22T07:16:56.000Z</time>
      </trkpt>
      <trkpt lat="42.294149" lon="-0.447231">
        <ele>1539.5</ele>
        <time>2018-07-22T07:16:57.000Z</time>
      </trkpt>
      <trkpt lat="42.294148" lon="-0.447232">
        <ele>1539.5</ele>
        <time>2018-07-22T07:16:58.000Z</time>
      </trkpt>
      <trkpt lat="42.294148" lon="-0.447232">
        <ele>1539.5</ele>
        <time>2018-07-22T07:16:59.000Z</time>
      </trkpt>
      <trkpt lat="42.294148" lon="-0.447232">
        <ele>1539.5</ele>
        <time>2018-07-22T07:17:00.000Z</time>
      </trkpt>
      <trkpt lat="42.294147" lon="-0.447232">
        <ele>1539.5</ele>
        <time>2018-07-22T07:17:01.000Z</time>
      </trkpt>
      <trkpt lat="42.294147" lon="-0.447233">
        <ele>1539.4</ele>
        <time>2018-07-22T07:17:02.000Z</time>
      </trkpt>
      <trkpt lat="42.294147" lon="-0.447233">
        <ele>1539.4</ele>
        <time>2018-07-22T07:17:03.000Z</time>
      </trkpt>
      <trkpt lat="42.294147" lon="-0.447233">
        <ele>1539.4</ele>
        <time>2018-07-22T07:17:04.000Z</time>
      </trkpt>
      <trkpt lat="42.294147" lon="-0.447233">
        <ele>1539.4</ele>
        <time>2018-07-22T07:17:05.000Z</time>
      </trkpt>
      <trkpt lat="42.294147" lon="-0.447233">
        <ele>1539.4</ele>
        <time>2018-07-22T07:17:06.000Z</time>
      </trkpt>
      <trkpt lat="42.294147" lon="-0.447233">
        <ele>1539.4</ele>
        <time>2018-07-22T07:17:07.000Z</time>
      </trkpt>
      <trkpt lat="42.294147" lon="-0.447233">
        <ele>1539.4</ele>
        <time>2018-07-22T07:17:08.000Z</time>
      </trkpt>
      <trkpt lat="42.294147" lon="-0.447233">
        <ele>1539.4</ele>
        <time>2018-07-22T07:17:09.000Z</time>
      </trkpt>
      <trkpt lat="42.294147" lon="-0.447233">
        <ele>1539.4</ele>
        <time>2018-07-22T07:17:10.000Z</time>
      </trkpt>
      <trkpt lat="42.294147" lon="-0.447233">
        <ele>1539.4</ele>
        <time>2018-07-22T07:17:11.000Z</time>
      </trkpt>
      <trkpt lat="42.294147" lon="-0.447233">
        <ele>1539.4</ele>
        <time>2018-07-22T07:17:12.000Z</time>
      </trkpt>
      <trkpt lat="42.294147" lon="-0.447233">
        <ele>1539.4</ele>
        <time>2018-07-22T07:17:13.000Z</time>
      </trkpt>
      <trkpt lat="42.294147" lon="-0.447233">
        <ele>1539.4</ele>
        <time>2018-07-22T07:17:14.000Z</time>
      </trkpt>
      <trkpt lat="42.294147" lon="-0.447233">
        <ele>1539.4</ele>
        <time>2018-07-22T07:17:15.000Z</time>
      </trkpt>
      <trkpt lat="42.294147" lon="-0.447233">
        <ele>1539.4</ele>
        <time>2018-07-22T07:17:16.000Z</time>
      </trkpt>
      <trkpt lat="42.294147" lon="-0.447233">
        <ele>1539.4</ele>
        <time>2018-07-22T07:17:17.000Z</time>
      </trkpt>
      <trkpt lat="42.294147" lon="-0.447233">
        <ele>1539.4</ele>
        <time>2018-07-22T07:17:18.000Z</time>
      </trkpt>
      <trkpt lat="42.294147" lon="-0.447233">
        <ele>1539.4</ele>
        <time>2018-07-22T07:17:19.000Z</time>
      </trkpt>
      <trkpt lat="42.294147" lon="-0.447233">
        <ele>1539.4</ele>
        <time>2018-07-22T07:17:20.000Z</time>
      </trkpt>
      <trkpt lat="42.294147" lon="-0.447233">
        <ele>1539.4</ele>
        <time>2018-07-22T07:17:21.000Z</time>
      </trkpt>
      <trkpt lat="42.294147" lon="-0.447233">
        <ele>1539.4</ele>
        <time>2018-07-22T07:17:22.000Z</time>
      </trkpt>
      <trkpt lat="42.294146" lon="-0.447233">
        <ele>1539.4</ele>
        <time>2018-07-22T07:17:23.000Z</time>
      </trkpt>
      <trkpt lat="42.294146" lon="-0.447233">
        <ele>1539.4</ele>
        <time>2018-07-22T07:17:24.000Z</time>
      </trkpt>
      <trkpt lat="42.294146" lon="-0.447233">
        <ele>1539.4</ele>
        <time>2018-07-22T07:17:25.000Z</time>
      </trkpt>
      <trkpt lat="42.294146" lon="-0.447233">
        <ele>1539.4</ele>
        <time>2018-07-22T07:17:26.000Z</time>
      </trkpt>
      <trkpt lat="42.294146" lon="-0.447233">
        <ele>1539.4</ele>
        <time>2018-07-22T07:17:27.000Z</time>
      </trkpt>
      <trkpt lat="42.294146" lon="-0.447233">
        <ele>1539.4</ele>
        <time>2018-07-22T07:17:28.000Z</time>
      </trkpt>
      <trkpt lat="42.294146" lon="-0.447233">
        <ele>1539.4</ele>
        <time>2018-07-22T07:17:29.000Z</time>
      </trkpt>
      <trkpt lat="42.294146" lon="-0.447233">
        <ele>1539.4</ele>
        <time>2018-07-22T07:17:30.000Z</time>
      </trkpt>
      <trkpt lat="42.294146" lon="-0.447233">
        <ele>1539.4</ele>
        <time>2018-07-22T07:17:31.000Z</time>
      </trkpt>
      <trkpt lat="42.294146" lon="-0.447233">
        <ele>1539.4</ele>
        <time>2018-07-22T07:17:32.000Z</time>
      </trkpt>
      <trkpt lat="42.294146" lon="-0.447233">
        <ele>1539.4</ele>
        <time>2018-07-22T07:17:33.000Z</time>
      </trkpt>
      <trkpt lat="42.294146" lon="-0.447233">
        <ele>1539.4</ele>
        <time>2018-07-22T07:17:34.000Z</time>
      </trkpt>
      <trkpt lat="42.294147" lon="-0.447233">
        <ele>1539.4</ele>
        <time>2018-07-22T07:17:35.000Z</time>
      </trkpt>
      <trkpt lat="42.294147" lon="-0.447233">
        <ele>1539.4</ele>
        <time>2018-07-22T07:17:36.000Z</time>
      </trkpt>
      <trkpt lat="42.294147" lon="-0.447233">
        <ele>1539.4</ele>
        <time>2018-07-22T07:17:37.000Z</time>
      </trkpt>
      <trkpt lat="42.294147" lon="-0.447233">
        <ele>1539.4</ele>
        <time>2018-07-22T07:17:38.000Z</time>
      </trkpt>
      <trkpt lat="42.294147" lon="-0.447233">
        <ele>1539.4</ele>
        <time>2018-07-22T07:17:39.000Z</time>
      </trkpt>
      <trkpt lat="42.294147" lon="-0.447233">
        <ele>1539.4</ele>
        <time>2018-07-22T07:17:40.000Z</time>
      </trkpt>
      <trkpt lat="42.294147" lon="-0.447233">
        <ele>1539.4</ele>
        <time>2018-07-22T07:17:41.000Z</time>
      </trkpt>
      <trkpt lat="42.294147" lon="-0.447233">
        <ele>1539.4</ele>
        <time>2018-07-22T07:17:42.000Z</time>
      </trkpt>
      <trkpt lat="42.294146" lon="-0.447233">
        <ele>1539.4</ele>
        <time>2018-07-22T07:17:43.000Z</time>
      </trkpt>
      <trkpt lat="42.294146" lon="-0.447233">
        <ele>1539.4</ele>
        <time>2018-07-22T07:17:44.000Z</time>
      </trkpt>
      <trkpt lat="42.294146" lon="-0.447233">
        <ele>1539.4</ele>
        <time>2018-07-22T07:17:45.000Z</time>
      </trkpt>
      <trkpt lat="42.294146" lon="-0.447233">
        <ele>1539.4</ele>
        <time>2018-07-22T07:17:46.000Z</time>
      </trkpt>
      <trkpt lat="42.294146" lon="-0.447233">
        <ele>1539.4</ele>
        <time>2018-07-22T07:17:47.000Z</time>
      </trkpt>
      <trkpt lat="42.294146" lon="-0.447233">
        <ele>1539.4</ele>
        <time>2018-07-22T07:17:48.000Z</time>
      </trkpt>
      <trkpt lat="42.294146" lon="-0.447233">
        <ele>1539.4</ele>
        <time>2018-07-22T07:17:49.000Z</time>
      </trkpt>
      <trkpt lat="42.294146" lon="-0.447233">
        <ele>1539.4</ele>
        <time>2018-07-22T07:17:50.000Z</time>
      </trkpt>
      <trkpt lat="42.294146" lon="-0.447233">
        <ele>1539.4</ele>
        <time>2018-07-22T07:17:51.000Z</time>
      </trkpt>
      <trkpt lat="42.294146" lon="-0.447233">
        <ele>1539.4</ele>
        <time>2018-07-22T07:17:52.000Z</time>
      </trkpt>
      <trkpt lat="42.294146" lon="-0.447233">
        <ele>1539.4</ele>
        <time>2018-07-22T07:17:53.000Z</time>
      </trkpt>
      <trkpt lat="42.294146" lon="-0.447233">
        <ele>1539.4</ele>
        <time>2018-07-22T07:17:54.000Z</time>
      </trkpt>
      <trkpt lat="42.294146" lon="-0.447233">
        <ele>1539.4</ele>
        <time>2018-07-22T07:17:55.000Z</time>
      </trkpt>
      <trkpt lat="42.294146" lon="-0.447234">
        <ele>1539.4</ele>
        <time>2018-07-22T07:17:56.000Z</time>
      </trkpt>
      <trkpt lat="42.294146" lon="-0.447234">
        <ele>1539.4</ele>
        <time>2018-07-22T07:17:57.000Z</time>
      </trkpt>
      <trkpt lat="42.294145" lon="-0.447234">
        <ele>1539.4</ele>
        <time>2018-07-22T07:17:58.000Z</time>
      </trkpt>
      <trkpt lat="42.294145" lon="-0.447234">
        <ele>1539.4</ele>
        <time>2018-07-22T07:17:59.000Z</time>
      </trkpt>
      <trkpt lat="42.294145" lon="-0.447234">
        <ele>1539.4</ele>
        <time>2018-07-22T07:18:00.000Z</time>
      </trkpt>
      <trkpt lat="42.294145" lon="-0.447235">
        <ele>1539.3</ele>
        <time>2018-07-22T07:18:01.000Z</time>
      </trkpt>
      <trkpt lat="42.294144" lon="-0.447235">
        <ele>1539.3</ele>
        <time>2018-07-22T07:18:02.000Z</time>
      </trkpt>
      <trkpt lat="42.294144" lon="-0.447236">
        <ele>1539.3</ele>
        <time>2018-07-22T07:18:03.000Z</time>
      </trkpt>
      <trkpt lat="42.294143" lon="-0.447237">
        <ele>1539.2</ele>
        <time>2018-07-22T07:18:04.000Z</time>
      </trkpt>
      <trkpt lat="42.294143" lon="-0.447237">
        <ele>1539.2</ele>
        <time>2018-07-22T07:18:05.000Z</time>
      </trkpt>
      <trkpt lat="42.294142" lon="-0.447238">
        <ele>1539.2</ele>
        <time>2018-07-22T07:18:06.000Z</time>
      </trkpt>
      <trkpt lat="42.29414" lon="-0.447239">
        <ele>1539.1</ele>
        <time>2018-07-22T07:18:07.000Z</time>
      </trkpt>
      <trkpt lat="42.294138" lon="-0.447239">
        <ele>1539.0</ele>
        <time>2018-07-22T07:18:08.000Z</time>
      </trkpt>
      <trkpt lat="42.294135" lon="-0.447238">
        <ele>1538.9</ele>
        <time>2018-07-22T07:18:09.000Z</time>
      </trkpt>
      <trkpt lat="42.294131" lon="-0.447235">
        <ele>1538.8</ele>
        <time>2018-07-22T07:18:10.000Z</time>
      </trkpt>
      <trkpt lat="42.294128" lon="-0.447234">
        <ele>1538.7</ele>
        <time>2018-07-22T07:18:11.000Z</time>
      </trkpt>
      <trkpt lat="42.294127" lon="-0.447236">
        <ele>1538.7</ele>
        <time>2018-07-22T07:18:12.000Z</time>
      </trkpt>
      <trkpt lat="42.294127" lon="-0.447237">
        <ele>1538.7</ele>
        <time>2018-07-22T07:18:13.000Z</time>
      </trkpt>
      <trkpt lat="42.294126" lon="-0.447237">
        <ele>1538.6</ele>
        <time>2018-07-22T07:18:14.000Z</time>
      </trkpt>
      <trkpt lat="42.294126" lon="-0.447237">
        <ele>1538.6</ele>
        <time>2018-07-22T07:18:15.000Z</time>
      </trkpt>
      <trkpt lat="42.294126" lon="-0.447238">
        <ele>1538.6</ele>
        <time>2018-07-22T07:18:16.000Z</time>
      </trkpt>
      <trkpt lat="42.294125" lon="-0.447238">
        <ele>1538.6</ele>
        <time>2018-07-22T07:18:17.000Z</time>
      </trkpt>
      <trkpt lat="42.294123" lon="-0.447238">
        <ele>1538.5</ele>
        <time>2018-07-22T07:18:18.000Z</time>
      </trkpt>
      <trkpt lat="42.294119" lon="-0.447236">
        <ele>1538.4</ele>
        <time>2018-07-22T07:18:19.000Z</time>
      </trkpt>
      <trkpt lat="42.294114" lon="-0.447232">
        <ele>1538.3</ele>
        <time>2018-07-22T07:18:20.000Z</time>
      </trkpt>
      <trkpt lat="42.294107" lon="-0.447226">
        <ele>1538.1</ele>
        <time>2018-07-22T07:18:21.000Z</time>
      </trkpt>
      <trkpt lat="42.294099" lon="-0.447219">
        <ele>1537.9</ele>
        <time>2018-07-22T07:18:22.000Z</time>
      </trkpt>
      <trkpt lat="42.29409" lon="-0.44721">
        <ele>1537.7</ele>
        <time>2018-07-22T07:18:23.000Z</time>
      </trkpt>
      <trkpt lat="42.294082" lon="-0.447201">
        <ele>1537.5</ele>
        <time>2018-07-22T07:18:24.000Z</time>
      </trkpt>
      <trkpt lat="42.294073" lon="-0.447193">
        <ele>1537.3</ele>
        <time>2018-07-22T07:18:25.000Z</time>
      </trkpt>
      <trkpt lat="42.294066" lon="-0.447186">
        <ele>1537.1</ele>
        <time>2018-07-22T07:18:26.000Z</time>
      </trkpt>
      <trkpt lat="42.294059" lon="-0.447181">
        <ele>1536.9</ele>
        <time>2018-07-22T07:18:27.000Z</time>
      </trkpt>
      <trkpt lat="42.294053" lon="-0.447177">
        <ele>1536.8</ele>
        <time>2018-07-22T07:18:28.000Z</time>
      </trkpt>
      <trkpt lat="42.294048" lon="-0.447175">
        <ele>1536.6</ele>
        <time>2018-07-22T07:18:29.000Z</time>
      </trkpt>
      <trkpt lat="42.294042" lon="-0.447173">
        <ele>1536.4</ele>
        <time>2018-07-22T07:18:30.000Z</time>
      </trkpt>
      <trkpt lat="42.294037" lon="-0.447172">
        <ele>1536.2</ele>
        <time>2018-07-22T07:18:31.000Z</time>
      </trkpt>
      <trkpt lat="42.294031" lon="-0.447171">
        <ele>1536.0</ele>
        <time>2018-07-22T07:18:32.000Z</time>
      </trkpt>
      <trkpt lat="42.294025" lon="-0.44717">
        <ele>1535.8</ele>
        <time>2018-07-22T07:18:33.000Z</time>
      </trkpt>
      <trkpt lat="42.294018" lon="-0.447168">
        <ele>1535.5</ele>
        <time>2018-07-22T07:18:34.000Z</time>
      </trkpt>
      <trkpt lat="42.294011" lon="-0.447167">
        <ele>1535.3</ele>
        <time>2018-07-22T07:18:35.000Z</time>
      </trkpt>
      <trkpt lat="42.294005" lon="-0.447165">
        <ele>1535.1</ele>
        <time>2018-07-22T07:18:36.000Z</time>
      </trkpt>
      <trkpt lat="42.293998" lon="-0.447162">
        <ele>1534.9</ele>
        <time>2018-07-22T07:18:37.000Z</time>
      </trkpt>
      <trkpt lat="42.293993" lon="-0.44716">
        <ele>1534.7</ele>
        <time>2018-07-22T07:18:38.000Z</time>
      </trkpt>
      <trkpt lat="42.293989" lon="-0.447158">
        <ele>1534.6</ele>
        <time>2018-07-22T07:18:39.000Z</time>
      </trkpt>
      <trkpt lat="42.293985" lon="-0.447156">
        <ele>1534.4</ele>
        <time>2018-07-22T07:18:40.000Z</time>
      </trkpt>
      <trkpt lat="42.293982" lon="-0.447154">
        <ele>1534.3</ele>
        <time>2018-07-22T07:18:41.000Z</time>
      </trkpt>
      <trkpt lat="42.293979" lon="-0.447152">
        <ele>1534.3</ele>
        <time>2018-07-22T07:18:42.000Z</time>
      </trkpt>
      <trkpt lat="42.293977" lon="-0.447151">
        <ele>1534.2</ele>
        <time>2018-07-22T07:18:43.000Z</time>
      </trkpt>
      <trkpt lat="42.293975" lon="-0.447149">
        <ele>1534.1</ele>
        <time>2018-07-22T07:18:44.000Z</time>
      </trkpt>
      <trkpt lat="42.293973" lon="-0.447148">
        <ele>1534.1</ele>
        <time>2018-07-22T07:18:45.000Z</time>
      </trkpt>
      <trkpt lat="42.293971" lon="-0.447147">
        <ele>1534.0</ele>
        <time>2018-07-22T07:18:46.000Z</time>
      </trkpt>
      <trkpt lat="42.293968" lon="-0.447145">
        <ele>1533.9</ele>
        <time>2018-07-22T07:18:47.000Z</time>
      </trkpt>
      <trkpt lat="42.293963" lon="-0.447142">
        <ele>1533.8</ele>
        <time>2018-07-22T07:18:48.000Z</time>
      </trkpt>
      <trkpt lat="42.293957" lon="-0.447138">
        <ele>1533.6</ele>
        <time>2018-07-22T07:18:49.000Z</time>
      </trkpt>
      <trkpt lat="42.293951" lon="-0.447131">
        <ele>1533.4</ele>
        <time>2018-07-22T07:18:50.000Z</time>
      </trkpt>
      <trkpt lat="42.293944" lon="-0.447121">
        <ele>1533.3</ele>
        <time>2018-07-22T07:18:51.000Z</time>
      </trkpt>
      <trkpt lat="42.293936" lon="-0.447113">
        <ele>1533.0</ele>
        <time>2018-07-22T07:18:52.000Z</time>
      </trkpt>
      <trkpt lat="42.293928" lon="-0.44711">
        <ele>1532.8</ele>
        <time>2018-07-22T07:18:53.000Z</time>
      </trkpt>
      <trkpt lat="42.29392" lon="-0.447109">
        <ele>1532.5</ele>
        <time>2018-07-22T07:18:54.000Z</time>
      </trkpt>
      <trkpt lat="42.293912" lon="-0.44711">
        <ele>1532.1</ele>
        <time>2018-07-22T07:18:55.000Z</time>
      </trkpt>
      <trkpt lat="42.293905" lon="-0.447111">
        <ele>1531.9</ele>
        <time>2018-07-22T07:18:56.000Z</time>
      </trkpt>
      <trkpt lat="42.293898" lon="-0.447112">
        <ele>1531.6</ele>
        <time>2018-07-22T07:18:57.000Z</time>
      </trkpt>
      <trkpt lat="42.293892" lon="-0.447113">
        <ele>1531.3</ele>
        <time>2018-07-22T07:18:58.000Z</time>
      </trkpt>
      <trkpt lat="42.293886" lon="-0.447114">
        <ele>1531.1</ele>
        <time>2018-07-22T07:18:59.000Z</time>
      </trkpt>
      <trkpt lat="42.293881" lon="-0.447115">
        <ele>1530.9</ele>
        <time>2018-07-22T07:19:00.000Z</time>
      </trkpt>
      <trkpt lat="42.293876" lon="-0.447115">
        <ele>1530.7</ele>
        <time>2018-07-22T07:19:01.000Z</time>
      </trkpt>
      <trkpt lat="42.293872" lon="-0.447116">
        <ele>1530.5</ele>
        <time>2018-07-22T07:19:02.000Z</time>
      </trkpt>
      <trkpt lat="42.293868" lon="-0.447116">
        <ele>1530.4</ele>
        <time>2018-07-22T07:19:03.000Z</time>
      </trkpt>
      <trkpt lat="42.293865" lon="-0.447117">
        <ele>1530.2</ele>
        <time>2018-07-22T07:19:04.000Z</time>
      </trkpt>
      <trkpt lat="42.293862" lon="-0.447118">
        <ele>1530.1</ele>
        <time>2018-07-22T07:19:05.000Z</time>
      </trkpt>
      <trkpt lat="42.293859" lon="-0.447118">
        <ele>1530.0</ele>
        <time>2018-07-22T07:19:06.000Z</time>
      </trkpt>
      <trkpt lat="42.293855" lon="-0.447119">
        <ele>1529.8</ele>
        <time>2018-07-22T07:19:07.000Z</time>
      </trkpt>
      <trkpt lat="42.293852" lon="-0.447119">
        <ele>1529.7</ele>
        <time>2018-07-22T07:19:08.000Z</time>
      </trkpt>
      <trkpt lat="42.293847" lon="-0.44712">
        <ele>1529.5</ele>
        <time>2018-07-22T07:19:09.000Z</time>
      </trkpt>
      <trkpt lat="42.293842" lon="-0.447123">
        <ele>1529.3</ele>
        <time>2018-07-22T07:19:10.000Z</time>
      </trkpt>
      <trkpt lat="42.293836" lon="-0.447125">
        <ele>1529.0</ele>
        <time>2018-07-22T07:19:11.000Z</time>
      </trkpt>
      <trkpt lat="42.293832" lon="-0.447127">
        <ele>1528.9</ele>
        <time>2018-07-22T07:19:12.000Z</time>
      </trkpt>
      <trkpt lat="42.293828" lon="-0.447128">
        <ele>1528.7</ele>
        <time>2018-07-22T07:19:13.000Z</time>
      </trkpt>
      <trkpt lat="42.293824" lon="-0.447129">
        <ele>1528.5</ele>
        <time>2018-07-22T07:19:14.000Z</time>
      </trkpt>
      <trkpt lat="42.293821" lon="-0.44713">
        <ele>1528.4</ele>
        <time>2018-07-22T07:19:15.000Z</time>
      </trkpt>
      <trkpt lat="42.293818" lon="-0.447131">
        <ele>1528.3</ele>
        <time>2018-07-22T07:19:16.000Z</time>
      </trkpt>
      <trkpt lat="42.293815" lon="-0.447132">
        <ele>1528.2</ele>
        <time>2018-07-22T07:19:17.000Z</time>
      </trkpt>
      <trkpt lat="42.293812" lon="-0.447133">
        <ele>1528.0</ele>
        <time>2018-07-22T07:19:18.000Z</time>
      </trkpt>
      <trkpt lat="42.29381" lon="-0.447134">
        <ele>1527.9</ele>
        <time>2018-07-22T07:19:19.000Z</time>
      </trkpt>
      <trkpt lat="42.293804" lon="-0.447132">
        <ele>1527.7</ele>
        <time>2018-07-22T07:19:20.000Z</time>
      </trkpt>
      <trkpt lat="42.293794" lon="-0.447126">
        <ele>1527.4</ele>
        <time>2018-07-22T07:19:21.000Z</time>
      </trkpt>
      <trkpt lat="42.293783" lon="-0.447117">
        <ele>1527.0</ele>
        <time>2018-07-22T07:19:22.000Z</time>
      </trkpt>
      <trkpt lat="42.293773" lon="-0.447114">
        <ele>1526.7</ele>
        <time>2018-07-22T07:19:23.000Z</time>
      </trkpt>
      <trkpt lat="42.293767" lon="-0.447112">
        <ele>1526.5</ele>
        <time>2018-07-22T07:19:24.000Z</time>
      </trkpt>
      <trkpt lat="42.293762" lon="-0.447111">
        <ele>1526.3</ele>
        <time>2018-07-22T07:19:25.000Z</time>
      </trkpt>
      <trkpt lat="42.293759" lon="-0.447111">
        <ele>1526.2</ele>
        <time>2018-07-22T07:19:26.000Z</time>
      </trkpt>
      <trkpt lat="42.293757" lon="-0.44711">
        <ele>1526.1</ele>
        <time>2018-07-22T07:19:27.000Z</time>
      </trkpt>
      <trkpt lat="42.293754" lon="-0.447109">
        <ele>1526.0</ele>
        <time>2018-07-22T07:19:28.000Z</time>
      </trkpt>
      <trkpt lat="42.293749" lon="-0.447108">
        <ele>1525.8</ele>
        <time>2018-07-22T07:19:29.000Z</time>
      </trkpt>
      <trkpt lat="42.293741" lon="-0.447107">
        <ele>1525.5</ele>
        <time>2018-07-22T07:19:30.000Z</time>
      </trkpt>
      <trkpt lat="42.293731" lon="-0.447108">
        <ele>1525.1</ele>
        <time>2018-07-22T07:19:31.000Z</time>
      </trkpt>
      <trkpt lat="42.293722" lon="-0.447109">
        <ele>1524.7</ele>
        <time>2018-07-22T07:19:32.000Z</time>
      </trkpt>
      <trkpt lat="42.293714" lon="-0.44711">
        <ele>1524.4</ele>
        <time>2018-07-22T07:19:33.000Z</time>
      </trkpt>
      <trkpt lat="42.293706" lon="-0.447111">
        <ele>1524.1</ele>
        <time>2018-07-22T07:19:34.000Z</time>
      </trkpt>
      <trkpt lat="42.293698" lon="-0.447112">
        <ele>1523.8</ele>
        <time>2018-07-22T07:19:35.000Z</time>
      </trkpt>
      <trkpt lat="42.293692" lon="-0.447113">
        <ele>1523.5</ele>
        <time>2018-07-22T07:19:36.000Z</time>
      </trkpt>
      <trkpt lat="42.293686" lon="-0.447114">
        <ele>1523.3</ele>
        <time>2018-07-22T07:19:37.000Z</time>
      </trkpt>
      <trkpt lat="42.29368" lon="-0.447115">
        <ele>1523.0</ele>
        <time>2018-07-22T07:19:38.000Z</time>
      </trkpt>
      <trkpt lat="42.293675" lon="-0.447116">
        <ele>1522.8</ele>
        <time>2018-07-22T07:19:39.000Z</time>
      </trkpt>
      <trkpt lat="42.293671" lon="-0.447117">
        <ele>1522.7</ele>
        <time>2018-07-22T07:19:40.000Z</time>
      </trkpt>
      <trkpt lat="42.293668" lon="-0.447118">
        <ele>1522.6</ele>
        <time>2018-07-22T07:19:41.000Z</time>
      </trkpt>
      <trkpt lat="42.293665" lon="-0.447119">
        <ele>1522.4</ele>
        <time>2018-07-22T07:19:42.000Z</time>
      </trkpt>
      <trkpt lat="42.293663" lon="-0.44712">
        <ele>1522.4</ele>
        <time>2018-07-22T07:19:43.000Z</time>
      </trkpt>
      <trkpt lat="42.293661" lon="-0.447121">
        <ele>1522.3</ele>
        <time>2018-07-22T07:19:44.000Z</time>
      </trkpt>
      <trkpt lat="42.293659" lon="-0.447123">
        <ele>1522.2</ele>
        <time>2018-07-22T07:19:45.000Z</time>
      </trkpt>
      <trkpt lat="42.293657" lon="-0.447124">
        <ele>1522.1</ele>
        <time>2018-07-22T07:19:46.000Z</time>
      </trkpt>
      <trkpt lat="42.293655" lon="-0.447125">
        <ele>1522.0</ele>
        <time>2018-07-22T07:19:47.000Z</time>
      </trkpt>
      <trkpt lat="42.293653" lon="-0.447126">
        <ele>1521.9</ele>
        <time>2018-07-22T07:19:48.000Z</time>
      </trkpt>
      <trkpt lat="42.293649" lon="-0.447128">
        <ele>1521.8</ele>
        <time>2018-07-22T07:19:49.000Z</time>
      </trkpt>
      <trkpt lat="42.293642" lon="-0.447136">
        <ele>1521.5</ele>
        <time>2018-07-22T07:19:50.000Z</time>
      </trkpt>
      <trkpt lat="42.293637" lon="-0.447142">
        <ele>1521.2</ele>
        <time>2018-07-22T07:19:51.000Z</time>
      </trkpt>
      <trkpt lat="42.293634" lon="-0.447147">
        <ele>1521.1</ele>
        <time>2018-07-22T07:19:52.000Z</time>
      </trkpt>
      <trkpt lat="42.293631" lon="-0.447152">
        <ele>1521.0</ele>
        <time>2018-07-22T07:19:53.000Z</time>
      </trkpt>
      <trkpt lat="42.293629" lon="-0.447156">
        <ele>1520.9</ele>
        <time>2018-07-22T07:19:54.000Z</time>
      </trkpt>
      <trkpt lat="42.293627" lon="-0.447159">
        <ele>1520.8</ele>
        <time>2018-07-22T07:19:55.000Z</time>
      </trkpt>
      <trkpt lat="42.293626" lon="-0.447161">
        <ele>1520.7</ele>
        <time>2018-07-22T07:19:56.000Z</time>
      </trkpt>
      <trkpt lat="42.293624" lon="-0.447163">
        <ele>1520.6</ele>
        <time>2018-07-22T07:19:57.000Z</time>
      </trkpt>
      <trkpt lat="42.293623" lon="-0.447164">
        <ele>1520.6</ele>
        <time>2018-07-22T07:19:58.000Z</time>
      </trkpt>
      <trkpt lat="42.293622" lon="-0.447167">
        <ele>1520.5</ele>
        <time>2018-07-22T07:19:59.000Z</time>
      </trkpt>
      <trkpt lat="42.293616" lon="-0.44717">
        <ele>1520.3</ele>
        <time>2018-07-22T07:20:00.000Z</time>
      </trkpt>
      <trkpt lat="42.293605" lon="-0.447175">
        <ele>1519.9</ele>
        <time>2018-07-22T07:20:01.000Z</time>
      </trkpt>
      <trkpt lat="42.293597" lon="-0.447179">
        <ele>1519.5</ele>
        <time>2018-07-22T07:20:02.000Z</time>
      </trkpt>
      <trkpt lat="42.293593" lon="-0.44718">
        <ele>1519.4</ele>
        <time>2018-07-22T07:20:03.000Z</time>
      </trkpt>
      <trkpt lat="42.293591" lon="-0.44718">
        <ele>1519.3</ele>
        <time>2018-07-22T07:20:04.000Z</time>
      </trkpt>
      <trkpt lat="42.29359" lon="-0.44718">
        <ele>1519.3</ele>
        <time>2018-07-22T07:20:05.000Z</time>
      </trkpt>
      <trkpt lat="42.293589" lon="-0.44718">
        <ele>1519.2</ele>
        <time>2018-07-22T07:20:06.000Z</time>
      </trkpt>
      <trkpt lat="42.293587" lon="-0.447181">
        <ele>1519.2</ele>
        <time>2018-07-22T07:20:07.000Z</time>
      </trkpt>
      <trkpt lat="42.293585" lon="-0.447182">
        <ele>1519.1</ele>
        <time>2018-07-22T07:20:08.000Z</time>
      </trkpt>
      <trkpt lat="42.293581" lon="-0.447186">
        <ele>1518.9</ele>
        <time>2018-07-22T07:20:09.000Z</time>
      </trkpt>
      <trkpt lat="42.293576" lon="-0.44719">
        <ele>1518.7</ele>
        <time>2018-07-22T07:20:10.000Z</time>
      </trkpt>
      <trkpt lat="42.293569" lon="-0.447197">
        <ele>1518.4</ele>
        <time>2018-07-22T07:20:11.000Z</time>
      </trkpt>
      <trkpt lat="42.293562" lon="-0.447203">
        <ele>1518.1</ele>
        <time>2018-07-22T07:20:12.000Z</time>
      </trkpt>
      <trkpt lat="42.293555" lon="-0.44721">
        <ele>1517.9</ele>
        <time>2018-07-22T07:20:13.000Z</time>
      </trkpt>
      <trkpt lat="42.29355" lon="-0.447215">
        <ele>1517.7</ele>
        <time>2018-07-22T07:20:14.000Z</time>
      </trkpt>
      <trkpt lat="42.293547" lon="-0.447219">
        <ele>1517.5</ele>
        <time>2018-07-22T07:20:15.000Z</time>
      </trkpt>
      <trkpt lat="42.293545" lon="-0.447222">
        <ele>1517.5</ele>
        <time>2018-07-22T07:20:16.000Z</time>
      </trkpt>
      <trkpt lat="42.293544" lon="-0.447224">
        <ele>1517.4</ele>
        <time>2018-07-22T07:20:17.000Z</time>
      </trkpt>
      <trkpt lat="42.293542" lon="-0.447226">
        <ele>1517.3</ele>
        <time>2018-07-22T07:20:18.000Z</time>
      </trkpt>
      <trkpt lat="42.29354" lon="-0.447229">
        <ele>1517.3</ele>
        <time>2018-07-22T07:20:19.000Z</time>
      </trkpt>
      <trkpt lat="42.293538" lon="-0.447232">
        <ele>1517.2</ele>
        <time>2018-07-22T07:20:20.000Z</time>
      </trkpt>
      <trkpt lat="42.293537" lon="-0.447234">
        <ele>1517.1</ele>
        <time>2018-07-22T07:20:21.000Z</time>
      </trkpt>
      <trkpt lat="42.293536" lon="-0.447236">
        <ele>1517.1</ele>
        <time>2018-07-22T07:20:22.000Z</time>
      </trkpt>
      <trkpt lat="42.293533" lon="-0.447239">
        <ele>1517.0</ele>
        <time>2018-07-22T07:20:23.000Z</time>
      </trkpt>
      <trkpt lat="42.293524" lon="-0.447248">
        <ele>1516.6</ele>
        <time>2018-07-22T07:20:24.000Z</time>
      </trkpt>
      <trkpt lat="42.293516" lon="-0.447253">
        <ele>1516.3</ele>
        <time>2018-07-22T07:20:25.000Z</time>
      </trkpt>
      <trkpt lat="42.29351" lon="-0.447255">
        <ele>1516.1</ele>
        <time>2018-07-22T07:20:26.000Z</time>
      </trkpt>
      <trkpt lat="42.293507" lon="-0.447256">
        <ele>1516.0</ele>
        <time>2018-07-22T07:20:27.000Z</time>
      </trkpt>
      <trkpt lat="42.293503" lon="-0.447256">
        <ele>1515.8</ele>
        <time>2018-07-22T07:20:28.000Z</time>
      </trkpt>
      <trkpt lat="42.293499" lon="-0.447256">
        <ele>1515.7</ele>
        <time>2018-07-22T07:20:29.000Z</time>
      </trkpt>
      <trkpt lat="42.293494" lon="-0.447256">
        <ele>1515.5</ele>
        <time>2018-07-22T07:20:30.000Z</time>
      </trkpt>
      <trkpt lat="42.293487" lon="-0.447255">
        <ele>1515.3</ele>
        <time>2018-07-22T07:20:31.000Z</time>
      </trkpt>
      <trkpt lat="42.293478" lon="-0.447251">
        <ele>1514.9</ele>
        <time>2018-07-22T07:20:32.000Z</time>
      </trkpt>
      <trkpt lat="42.293468" lon="-0.447246">
        <ele>1514.6</ele>
        <time>2018-07-22T07:20:33.000Z</time>
      </trkpt>
      <trkpt lat="42.293459" lon="-0.447243">
        <ele>1514.3</ele>
        <time>2018-07-22T07:20:34.000Z</time>
      </trkpt>
      <trkpt lat="42.293451" lon="-0.447243">
        <ele>1514.0</ele>
        <time>2018-07-22T07:20:35.000Z</time>
      </trkpt>
      <trkpt lat="42.293444" lon="-0.447243">
        <ele>1513.7</ele>
        <time>2018-07-22T07:20:36.000Z</time>
      </trkpt>
      <trkpt lat="42.293437" lon="-0.447242">
        <ele>1513.5</ele>
        <time>2018-07-22T07:20:37.000Z</time>
      </trkpt>
      <trkpt lat="42.293431" lon="-0.447238">
        <ele>1513.2</ele>
        <time>2018-07-22T07:20:38.000Z</time>
      </trkpt>
      <trkpt lat="42.293425" lon="-0.447233">
        <ele>1513.0</ele>
        <time>2018-07-22T07:20:39.000Z</time>
      </trkpt>
      <trkpt lat="42.293419" lon="-0.447224">
        <ele>1512.8</ele>
        <time>2018-07-22T07:20:40.000Z</time>
      </trkpt>
      <trkpt lat="42.293413" lon="-0.447214">
        <ele>1512.6</ele>
        <time>2018-07-22T07:20:41.000Z</time>
      </trkpt>
      <trkpt lat="42.293408" lon="-0.447202">
        <ele>1512.4</ele>
        <time>2018-07-22T07:20:42.000Z</time>
      </trkpt>
      <trkpt lat="42.293404" lon="-0.447189">
        <ele>1512.3</ele>
        <time>2018-07-22T07:20:43.000Z</time>
      </trkpt>
      <trkpt lat="42.2934" lon="-0.447175">
        <ele>1512.1</ele>
        <time>2018-07-22T07:20:44.000Z</time>
      </trkpt>
      <trkpt lat="42.293396" lon="-0.447162">
        <ele>1512.0</ele>
        <time>2018-07-22T07:20:45.000Z</time>
      </trkpt>
      <trkpt lat="42.293393" lon="-0.447151">
        <ele>1511.9</ele>
        <time>2018-07-22T07:20:46.000Z</time>
      </trkpt>
      <trkpt lat="42.29339" lon="-0.447142">
        <ele>1511.7</ele>
        <time>2018-07-22T07:20:47.000Z</time>
      </trkpt>
      <trkpt lat="42.293387" lon="-0.447134">
        <ele>1511.6</ele>
        <time>2018-07-22T07:20:48.000Z</time>
      </trkpt>
      <trkpt lat="42.293381" lon="-0.447126">
        <ele>1511.4</ele>
        <time>2018-07-22T07:20:49.000Z</time>
      </trkpt>
      <trkpt lat="42.293373" lon="-0.447116">
        <ele>1511.1</ele>
        <time>2018-07-22T07:20:50.000Z</time>
      </trkpt>
      <trkpt lat="42.293365" lon="-0.447106">
        <ele>1510.8</ele>
        <time>2018-07-22T07:20:51.000Z</time>
      </trkpt>
      <trkpt lat="42.293357" lon="-0.447095">
        <ele>1510.4</ele>
        <time>2018-07-22T07:20:52.000Z</time>
      </trkpt>
      <trkpt lat="42.293352" lon="-0.447084">
        <ele>1510.2</ele>
        <time>2018-07-22T07:20:53.000Z</time>
      </trkpt>
      <trkpt lat="42.293349" lon="-0.447072">
        <ele>1510.1</ele>
        <time>2018-07-22T07:20:54.000Z</time>
      </trkpt>
      <trkpt lat="42.293348" lon="-0.447061">
        <ele>1510.1</ele>
        <time>2018-07-22T07:20:55.000Z</time>
      </trkpt>
      <trkpt lat="42.293348" lon="-0.447049">
        <ele>1510.0</ele>
        <time>2018-07-22T07:20:56.000Z</time>
      </trkpt>
      <trkpt lat="42.293347" lon="-0.447038">
        <ele>1510.0</ele>
        <time>2018-07-22T07:20:57.000Z</time>
      </trkpt>
      <trkpt lat="42.293346" lon="-0.447026">
        <ele>1509.9</ele>
        <time>2018-07-22T07:20:58.000Z</time>
      </trkpt>
      <trkpt lat="42.293343" lon="-0.447014">
        <ele>1509.8</ele>
        <time>2018-07-22T07:20:59.000Z</time>
      </trkpt>
      <trkpt lat="42.29334" lon="-0.447002">
        <ele>1509.7</ele>
        <time>2018-07-22T07:21:00.000Z</time>
      </trkpt>
      <trkpt lat="42.293335" lon="-0.44699">
        <ele>1509.5</ele>
        <time>2018-07-22T07:21:01.000Z</time>
      </trkpt>
      <trkpt lat="42.29333" lon="-0.44698">
        <ele>1509.3</ele>
        <time>2018-07-22T07:21:02.000Z</time>
      </trkpt>
      <trkpt lat="42.293323" lon="-0.446971">
        <ele>1509.1</ele>
        <time>2018-07-22T07:21:03.000Z</time>
      </trkpt>
      <trkpt lat="42.293315" lon="-0.446963">
        <ele>1508.8</ele>
        <time>2018-07-22T07:21:04.000Z</time>
      </trkpt>
      <trkpt lat="42.293307" lon="-0.446956">
        <ele>1508.6</ele>
        <time>2018-07-22T07:21:05.000Z</time>
      </trkpt>
      <trkpt lat="42.293298" lon="-0.446951">
        <ele>1508.3</ele>
        <time>2018-07-22T07:21:06.000Z</time>
      </trkpt>
      <trkpt lat="42.29329" lon="-0.446948">
        <ele>1508.1</ele>
        <time>2018-07-22T07:21:07.000Z</time>
      </trkpt>
      <trkpt lat="42.293282" lon="-0.446946">
        <ele>1507.8</ele>
        <time>2018-07-22T07:21:08.000Z</time>
      </trkpt>
      <trkpt lat="42.293275" lon="-0.446947">
        <ele>1507.6</ele>
        <time>2018-07-22T07:21:09.000Z</time>
      </trkpt>
      <trkpt lat="42.293269" lon="-0.44695">
        <ele>1507.4</ele>
        <time>2018-07-22T07:21:10.000Z</time>
      </trkpt>
      <trkpt lat="42.293264" lon="-0.446954">
        <ele>1507.3</ele>
        <time>2018-07-22T07:21:11.000Z</time>
      </trkpt>
      <trkpt lat="42.293259" lon="-0.446959">
        <ele>1507.2</ele>
        <time>2018-07-22T07:21:12.000Z</time>
      </trkpt>
      <trkpt lat="42.293254" lon="-0.446966">
        <ele>1507.1</ele>
        <time>2018-07-22T07:21:13.000Z</time>
      </trkpt>
      <trkpt lat="42.29325" lon="-0.446973">
        <ele>1507.0</ele>
        <time>2018-07-22T07:21:14.000Z</time>
      </trkpt>
      <trkpt lat="42.293245" lon="-0.446981">
        <ele>1506.9</ele>
        <time>2018-07-22T07:21:15.000Z</time>
      </trkpt>
      <trkpt lat="42.29324" lon="-0.446989">
        <ele>1506.7</ele>
        <time>2018-07-22T07:21:16.000Z</time>
      </trkpt>
      <trkpt lat="42.293236" lon="-0.446996">
        <ele>1506.7</ele>
        <time>2018-07-22T07:21:17.000Z</time>
      </trkpt>
      <trkpt lat="42.293233" lon="-0.447001">
        <ele>1506.6</ele>
        <time>2018-07-22T07:21:18.000Z</time>
      </trkpt>
      <trkpt lat="42.293231" lon="-0.447005">
        <ele>1506.5</ele>
        <time>2018-07-22T07:21:19.000Z</time>
      </trkpt>
      <trkpt lat="42.293229" lon="-0.447008">
        <ele>1506.5</ele>
        <time>2018-07-22T07:21:20.000Z</time>
      </trkpt>
      <trkpt lat="42.293224" lon="-0.447017">
        <ele>1506.4</ele>
        <time>2018-07-22T07:21:21.000Z</time>
      </trkpt>
      <trkpt lat="42.293221" lon="-0.447024">
        <ele>1506.3</ele>
        <time>2018-07-22T07:21:22.000Z</time>
      </trkpt>
      <trkpt lat="42.293218" lon="-0.447028">
        <ele>1506.3</ele>
        <time>2018-07-22T07:21:23.000Z</time>
      </trkpt>
      <trkpt lat="42.293215" lon="-0.447032">
        <ele>1506.2</ele>
        <time>2018-07-22T07:21:24.000Z</time>
      </trkpt>
      <trkpt lat="42.293213" lon="-0.447035">
        <ele>1506.2</ele>
        <time>2018-07-22T07:21:25.000Z</time>
      </trkpt>
      <trkpt lat="42.293212" lon="-0.447037">
        <ele>1506.2</ele>
        <time>2018-07-22T07:21:26.000Z</time>
      </trkpt>
      <trkpt lat="42.29321" lon="-0.447038">
        <ele>1506.1</ele>
        <time>2018-07-22T07:21:27.000Z</time>
      </trkpt>
      <trkpt lat="42.293209" lon="-0.44704">
        <ele>1506.1</ele>
        <time>2018-07-22T07:21:28.000Z</time>
      </trkpt>
      <trkpt lat="42.293208" lon="-0.447041">
        <ele>1506.1</ele>
        <time>2018-07-22T07:21:29.000Z</time>
      </trkpt>
      <trkpt lat="42.293207" lon="-0.447043">
        <ele>1506.1</ele>
        <time>2018-07-22T07:21:30.000Z</time>
      </trkpt>
      <trkpt lat="42.293206" lon="-0.447045">
        <ele>1506.0</ele>
        <time>2018-07-22T07:21:31.000Z</time>
      </trkpt>
      <trkpt lat="42.293203" lon="-0.447048">
        <ele>1506.0</ele>
        <time>2018-07-22T07:21:32.000Z</time>
      </trkpt>
      <trkpt lat="42.293201" lon="-0.44705">
        <ele>1505.9</ele>
        <time>2018-07-22T07:21:33.000Z</time>
      </trkpt>
      <trkpt lat="42.293197" lon="-0.447051">
        <ele>1505.8</ele>
        <time>2018-07-22T07:21:34.000Z</time>
      </trkpt>
      <trkpt lat="42.293192" lon="-0.447052">
        <ele>1505.7</ele>
        <time>2018-07-22T07:21:35.000Z</time>
      </trkpt>
      <trkpt lat="42.293187" lon="-0.447053">
        <ele>1505.6</ele>
        <time>2018-07-22T07:21:36.000Z</time>
      </trkpt>
      <trkpt lat="42.293181" lon="-0.447055">
        <ele>1505.4</ele>
        <time>2018-07-22T07:21:37.000Z</time>
      </trkpt>
      <trkpt lat="42.293175" lon="-0.447057">
        <ele>1505.3</ele>
        <time>2018-07-22T07:21:38.000Z</time>
      </trkpt>
      <trkpt lat="42.293171" lon="-0.44706">
        <ele>1505.2</ele>
        <time>2018-07-22T07:21:39.000Z</time>
      </trkpt>
      <trkpt lat="42.293164" lon="-0.44706">
        <ele>1505.0</ele>
        <time>2018-07-22T07:21:40.000Z</time>
      </trkpt>
      <trkpt lat="42.293157" lon="-0.447058">
        <ele>1504.8</ele>
        <time>2018-07-22T07:21:41.000Z</time>
      </trkpt>
      <trkpt lat="42.293149" lon="-0.447055">
        <ele>1504.6</ele>
        <time>2018-07-22T07:21:42.000Z</time>
      </trkpt>
      <trkpt lat="42.293142" lon="-0.44705">
        <ele>1504.3</ele>
        <time>2018-07-22T07:21:43.000Z</time>
      </trkpt>
      <trkpt lat="42.293134" lon="-0.447044">
        <ele>1504.1</ele>
        <time>2018-07-22T07:21:44.000Z</time>
      </trkpt>
      <trkpt lat="42.293127" lon="-0.447039">
        <ele>1503.9</ele>
        <time>2018-07-22T07:21:45.000Z</time>
      </trkpt>
      <trkpt lat="42.293119" lon="-0.447033">
        <ele>1503.6</ele>
        <time>2018-07-22T07:21:46.000Z</time>
      </trkpt>
      <trkpt lat="42.29311" lon="-0.447028">
        <ele>1503.3</ele>
        <time>2018-07-22T07:21:47.000Z</time>
      </trkpt>
      <trkpt lat="42.293102" lon="-0.447024">
        <ele>1503.1</ele>
        <time>2018-07-22T07:21:48.000Z</time>
      </trkpt>
      <trkpt lat="42.293092" lon="-0.447021">
        <ele>1502.8</ele>
        <time>2018-07-22T07:21:49.000Z</time>
      </trkpt>
      <trkpt lat="42.293082" lon="-0.447019">
        <ele>1502.5</ele>
        <time>2018-07-22T07:21:50.000Z</time>
      </trkpt>
      <trkpt lat="42.293072" lon="-0.447018">
        <ele>1502.2</ele>
        <time>2018-07-22T07:21:51.000Z</time>
      </trkpt>
      <trkpt lat="42.293061" lon="-0.447018">
        <ele>1501.9</ele>
        <time>2018-07-22T07:21:52.000Z</time>
      </trkpt>
      <trkpt lat="42.293051" lon="-0.44702">
        <ele>1501.7</ele>
        <time>2018-07-22T07:21:53.000Z</time>
      </trkpt>
      <trkpt lat="42.293039" lon="-0.447022">
        <ele>1501.3</ele>
        <time>2018-07-22T07:21:54.000Z</time>
      </trkpt>
      <trkpt lat="42.293028" lon="-0.447025">
        <ele>1501.1</ele>
        <time>2018-07-22T07:21:55.000Z</time>
      </trkpt>
      <trkpt lat="42.293016" lon="-0.447029">
        <ele>1500.8</ele>
        <time>2018-07-22T07:21:56.000Z</time>
      </trkpt>
      <trkpt lat="42.293005" lon="-0.447034">
        <ele>1500.5</ele>
        <time>2018-07-22T07:21:57.000Z</time>
      </trkpt>
      <trkpt lat="42.292993" lon="-0.447039">
        <ele>1500.3</ele>
        <time>2018-07-22T07:21:58.000Z</time>
      </trkpt>
      <trkpt lat="42.292981" lon="-0.447044">
        <ele>1500.0</ele>
        <time>2018-07-22T07:21:59.000Z</time>
      </trkpt>
      <trkpt lat="42.292969" lon="-0.44705">
        <ele>1499.7</ele>
        <time>2018-07-22T07:22:00.000Z</time>
      </trkpt>
      <trkpt lat="42.292957" lon="-0.447055">
        <ele>1499.5</ele>
        <time>2018-07-22T07:22:01.000Z</time>
      </trkpt>
      <trkpt lat="42.292945" lon="-0.447061">
        <ele>1499.2</ele>
        <time>2018-07-22T07:22:02.000Z</time>
      </trkpt>
      <trkpt lat="42.292933" lon="-0.447066">
        <ele>1499.0</ele>
        <time>2018-07-22T07:22:03.000Z</time>
      </trkpt>
      <trkpt lat="42.292921" lon="-0.447072">
        <ele>1498.7</ele>
        <time>2018-07-22T07:22:04.000Z</time>
      </trkpt>
      <trkpt lat="42.292909" lon="-0.447077">
        <ele>1498.5</ele>
        <time>2018-07-22T07:22:05.000Z</time>
      </trkpt>
      <trkpt lat="42.292897" lon="-0.447082">
        <ele>1498.2</ele>
        <time>2018-07-22T07:22:06.000Z</time>
      </trkpt>
      <trkpt lat="42.292885" lon="-0.447086">
        <ele>1498.0</ele>
        <time>2018-07-22T07:22:07.000Z</time>
      </trkpt>
      <trkpt lat="42.292873" lon="-0.447091">
        <ele>1497.7</ele>
        <time>2018-07-22T07:22:08.000Z</time>
      </trkpt>
      <trkpt lat="42.292861" lon="-0.447096">
        <ele>1497.5</ele>
        <time>2018-07-22T07:22:09.000Z</time>
      </trkpt>
      <trkpt lat="42.29285" lon="-0.4471">
        <ele>1497.3</ele>
        <time>2018-07-22T07:22:10.000Z</time>
      </trkpt>
      <trkpt lat="42.292838" lon="-0.447105">
        <ele>1497.0</ele>
        <time>2018-07-22T07:22:11.000Z</time>
      </trkpt>
      <trkpt lat="42.292825" lon="-0.44711">
        <ele>1496.8</ele>
        <time>2018-07-22T07:22:12.000Z</time>
      </trkpt>
      <trkpt lat="42.292813" lon="-0.447115">
        <ele>1496.6</ele>
        <time>2018-07-22T07:22:13.000Z</time>
      </trkpt>
      <trkpt lat="42.292801" lon="-0.44712">
        <ele>1496.3</ele>
        <time>2018-07-22T07:22:14.000Z</time>
      </trkpt>
      <trkpt lat="42.292789" lon="-0.447125">
        <ele>1496.1</ele>
        <time>2018-07-22T07:22:15.000Z</time>
      </trkpt>
      <trkpt lat="42.292776" lon="-0.44713">
        <ele>1495.9</ele>
        <time>2018-07-22T07:22:16.000Z</time>
      </trkpt>
      <trkpt lat="42.292764" lon="-0.447135">
        <ele>1495.7</ele>
        <time>2018-07-22T07:22:17.000Z</time>
      </trkpt>
      <trkpt lat="42.292751" lon="-0.447141">
        <ele>1495.5</ele>
        <time>2018-07-22T07:22:18.000Z</time>
      </trkpt>
      <trkpt lat="42.292739" lon="-0.447147">
        <ele>1495.3</ele>
        <time>2018-07-22T07:22:19.000Z</time>
      </trkpt>
      <trkpt lat="42.292727" lon="-0.447152">
        <ele>1495.1</ele>
        <time>2018-07-22T07:22:20.000Z</time>
      </trkpt>
      <trkpt lat="42.292715" lon="-0.447158">
        <ele>1494.9</ele>
        <time>2018-07-22T07:22:21.000Z</time>
      </trkpt>
      <trkpt lat="42.292703" lon="-0.447164">
        <ele>1494.7</ele>
        <time>2018-07-22T07:22:22.000Z</time>
      </trkpt>
      <trkpt lat="42.292691" lon="-0.44717">
        <ele>1494.6</ele>
        <time>2018-07-22T07:22:23.000Z</time>
      </trkpt>
      <trkpt lat="42.292679" lon="-0.447176">
        <ele>1494.4</ele>
        <time>2018-07-22T07:22:24.000Z</time>
      </trkpt>
      <trkpt lat="42.292668" lon="-0.447182">
        <ele>1494.2</ele>
        <time>2018-07-22T07:22:25.000Z</time>
      </trkpt>
      <trkpt lat="42.292657" lon="-0.447188">
        <ele>1494.1</ele>
        <time>2018-07-22T07:22:26.000Z</time>
      </trkpt>
      <trkpt lat="42.292646" lon="-0.447194">
        <ele>1494.0</ele>
        <time>2018-07-22T07:22:27.000Z</time>
      </trkpt>
      <trkpt lat="42.292635" lon="-0.447201">
        <ele>1493.9</ele>
        <time>2018-07-22T07:22:28.000Z</time>
      </trkpt>
      <trkpt lat="42.292625" lon="-0.447207">
        <ele>1493.8</ele>
        <time>2018-07-22T07:22:29.000Z</time>
      </trkpt>
      <trkpt lat="42.292614" lon="-0.447212">
        <ele>1493.6</ele>
        <time>2018-07-22T07:22:30.000Z</time>
      </trkpt>
      <trkpt lat="42.292604" lon="-0.447218">
        <ele>1493.5</ele>
        <time>2018-07-22T07:22:31.000Z</time>
      </trkpt>
      <trkpt lat="42.292594" lon="-0.447224">
        <ele>1493.4</ele>
        <time>2018-07-22T07:22:32.000Z</time>
      </trkpt>
      <trkpt lat="42.292584" lon="-0.447229">
        <ele>1493.3</ele>
        <time>2018-07-22T07:22:33.000Z</time>
      </trkpt>
      <trkpt lat="42.292574" lon="-0.447235">
        <ele>1493.2</ele>
        <time>2018-07-22T07:22:34.000Z</time>
      </trkpt>
      <trkpt lat="42.292564" lon="-0.44724">
        <ele>1493.1</ele>
        <time>2018-07-22T07:22:35.000Z</time>
      </trkpt>
      <trkpt lat="42.292554" lon="-0.447244">
        <ele>1493.0</ele>
        <time>2018-07-22T07:22:36.000Z</time>
      </trkpt>
      <trkpt lat="42.292544" lon="-0.447249">
        <ele>1492.9</ele>
        <time>2018-07-22T07:22:37.000Z</time>
      </trkpt>
      <trkpt lat="42.292536" lon="-0.447253">
        <ele>1492.8</ele>
        <time>2018-07-22T07:22:38.000Z</time>
      </trkpt>
      <trkpt lat="42.292528" lon="-0.447256">
        <ele>1492.7</ele>
        <time>2018-07-22T07:22:39.000Z</time>
      </trkpt>
      <trkpt lat="42.292522" lon="-0.447259">
        <ele>1492.7</ele>
        <time>2018-07-22T07:22:40.000Z</time>
      </trkpt>
      <trkpt lat="42.292519" lon="-0.447261">
        <ele>1492.7</ele>
        <time>2018-07-22T07:22:41.000Z</time>
      </trkpt>
      <trkpt lat="42.292518" lon="-0.447262">
        <ele>1492.7</ele>
        <time>2018-07-22T07:22:42.000Z</time>
      </trkpt>
      <trkpt lat="42.292518" lon="-0.447263">
        <ele>1492.7</ele>
        <time>2018-07-22T07:22:43.000Z</time>
      </trkpt>
      <trkpt lat="42.292519" lon="-0.447264">
        <ele>1492.7</ele>
        <time>2018-07-22T07:22:44.000Z</time>
      </trkpt>
      <trkpt lat="42.292521" lon="-0.447264">
        <ele>1492.8</ele>
        <time>2018-07-22T07:22:45.000Z</time>
      </trkpt>
      <trkpt lat="42.292521" lon="-0.447264">
        <ele>1492.8</ele>
        <time>2018-07-22T07:22:46.000Z</time>
      </trkpt>
      <trkpt lat="42.292521" lon="-0.447265">
        <ele>1492.8</ele>
        <time>2018-07-22T07:22:47.000Z</time>
      </trkpt>
      <trkpt lat="42.292519" lon="-0.447266">
        <ele>1492.8</ele>
        <time>2018-07-22T07:22:48.000Z</time>
      </trkpt>
      <trkpt lat="42.292517" lon="-0.447268">
        <ele>1492.8</ele>
        <time>2018-07-22T07:22:49.000Z</time>
      </trkpt>
      <trkpt lat="42.292515" lon="-0.447271">
        <ele>1492.8</ele>
        <time>2018-07-22T07:22:50.000Z</time>
      </trkpt>
      <trkpt lat="42.292514" lon="-0.447274">
        <ele>1492.9</ele>
        <time>2018-07-22T07:22:51.000Z</time>
      </trkpt>
      <trkpt lat="42.292513" lon="-0.447275">
        <ele>1492.9</ele>
        <time>2018-07-22T07:22:52.000Z</time>
      </trkpt>
      <trkpt lat="42.292513" lon="-0.447274">
        <ele>1492.8</ele>
        <time>2018-07-22T07:22:53.000Z</time>
      </trkpt>
      <trkpt lat="42.292513" lon="-0.447273">
        <ele>1492.8</ele>
        <time>2018-07-22T07:22:54.000Z</time>
      </trkpt>
      <trkpt lat="42.292515" lon="-0.447276">
        <ele>1492.9</ele>
        <time>2018-07-22T07:22:55.000Z</time>
      </trkpt>
      <trkpt lat="42.292517" lon="-0.447285">
        <ele>1493.2</ele>
        <time>2018-07-22T07:22:56.000Z</time>
      </trkpt>
      <trkpt lat="42.292519" lon="-0.447297">
        <ele>1493.5</ele>
        <time>2018-07-22T07:22:57.000Z</time>
      </trkpt>
      <trkpt lat="42.292517" lon="-0.447309">
        <ele>1493.7</ele>
        <time>2018-07-22T07:22:58.000Z</time>
      </trkpt>
      <trkpt lat="42.292512" lon="-0.447321">
        <ele>1493.9</ele>
        <time>2018-07-22T07:22:59.000Z</time>
      </trkpt>
      <trkpt lat="42.292506" lon="-0.447333">
        <ele>1494.1</ele>
        <time>2018-07-22T07:23:00.000Z</time>
      </trkpt>
      <trkpt lat="42.292498" lon="-0.447345">
        <ele>1494.2</ele>
        <time>2018-07-22T07:23:01.000Z</time>
      </trkpt>
      <trkpt lat="42.29249" lon="-0.447357">
        <ele>1494.1</ele>
        <time>2018-07-22T07:23:02.000Z</time>
      </trkpt>
      <trkpt lat="42.292483" lon="-0.44737">
        <ele>1494.2</ele>
        <time>2018-07-22T07:23:03.000Z</time>
      </trkpt>
      <trkpt lat="42.292478" lon="-0.447383">
        <ele>1494.3</ele>
        <time>2018-07-22T07:23:04.000Z</time>
      </trkpt>
      <trkpt lat="42.292473" lon="-0.447396">
        <ele>1494.4</ele>
        <time>2018-07-22T07:23:05.000Z</time>
      </trkpt>
      <trkpt lat="42.292469" lon="-0.447409">
        <ele>1494.5</ele>
        <time>2018-07-22T07:23:06.000Z</time>
      </trkpt>
      <trkpt lat="42.292466" lon="-0.447422">
        <ele>1494.7</ele>
        <time>2018-07-22T07:23:07.000Z</time>
      </trkpt>
      <trkpt lat="42.292463" lon="-0.447435">
        <ele>1494.9</ele>
        <time>2018-07-22T07:23:08.000Z</time>
      </trkpt>
      <trkpt lat="42.292461" lon="-0.447448">
        <ele>1495.2</ele>
        <time>2018-07-22T07:23:09.000Z</time>
      </trkpt>
      <trkpt lat="42.292458" lon="-0.447461">
        <ele>1495.4</ele>
        <time>2018-07-22T07:23:10.000Z</time>
      </trkpt>
      <trkpt lat="42.292455" lon="-0.447473">
        <ele>1495.6</ele>
        <time>2018-07-22T07:23:11.000Z</time>
      </trkpt>
      <trkpt lat="42.292451" lon="-0.447485">
        <ele>1495.7</ele>
        <time>2018-07-22T07:23:12.000Z</time>
      </trkpt>
      <trkpt lat="42.292448" lon="-0.447496">
        <ele>1495.8</ele>
        <time>2018-07-22T07:23:13.000Z</time>
      </trkpt>
      <trkpt lat="42.292445" lon="-0.447508">
        <ele>1495.9</ele>
        <time>2018-07-22T07:23:14.000Z</time>
      </trkpt>
      <trkpt lat="42.292442" lon="-0.447519">
        <ele>1495.9</ele>
        <time>2018-07-22T07:23:15.000Z</time>
      </trkpt>
      <trkpt lat="42.292439" lon="-0.447531">
        <ele>1496.0</ele>
        <time>2018-07-22T07:23:16.000Z</time>
      </trkpt>
      <trkpt lat="42.292436" lon="-0.447542">
        <ele>1496.0</ele>
        <time>2018-07-22T07:23:17.000Z</time>
      </trkpt>
      <trkpt lat="42.292433" lon="-0.447554">
        <ele>1496.0</ele>
        <time>2018-07-22T07:23:18.000Z</time>
      </trkpt>
      <trkpt lat="42.292431" lon="-0.447567">
        <ele>1496.1</ele>
        <time>2018-07-22T07:23:19.000Z</time>
      </trkpt>
      <trkpt lat="42.292428" lon="-0.447581">
        <ele>1496.1</ele>
        <time>2018-07-22T07:23:20.000Z</time>
      </trkpt>
      <trkpt lat="42.292426" lon="-0.447595">
        <ele>1496.2</ele>
        <time>2018-07-22T07:23:21.000Z</time>
      </trkpt>
      <trkpt lat="42.292424" lon="-0.447609">
        <ele>1496.3</ele>
        <time>2018-07-22T07:23:22.000Z</time>
      </trkpt>
      <trkpt lat="42.292421" lon="-0.447623">
        <ele>1496.4</ele>
        <time>2018-07-22T07:23:23.000Z</time>
      </trkpt>
      <trkpt lat="42.292418" lon="-0.447636">
        <ele>1496.5</ele>
        <time>2018-07-22T07:23:24.000Z</time>
      </trkpt>
      <trkpt lat="42.292413" lon="-0.447647">
        <ele>1496.4</ele>
        <time>2018-07-22T07:23:25.000Z</time>
      </trkpt>
      <trkpt lat="42.292407" lon="-0.447657">
        <ele>1496.4</ele>
        <time>2018-07-22T07:23:26.000Z</time>
      </trkpt>
      <trkpt lat="42.2924" lon="-0.447666">
        <ele>1496.2</ele>
        <time>2018-07-22T07:23:27.000Z</time>
      </trkpt>
      <trkpt lat="42.292393" lon="-0.447674">
        <ele>1496.1</ele>
        <time>2018-07-22T07:23:28.000Z</time>
      </trkpt>
      <trkpt lat="42.292385" lon="-0.447681">
        <ele>1495.9</ele>
        <time>2018-07-22T07:23:29.000Z</time>
      </trkpt>
      <trkpt lat="42.292376" lon="-0.447689">
        <ele>1495.7</ele>
        <time>2018-07-22T07:23:30.000Z</time>
      </trkpt>
      <trkpt lat="42.292368" lon="-0.447697">
        <ele>1495.6</ele>
        <time>2018-07-22T07:23:31.000Z</time>
      </trkpt>
      <trkpt lat="42.292361" lon="-0.447707">
        <ele>1495.5</ele>
        <time>2018-07-22T07:23:32.000Z</time>
      </trkpt>
      <trkpt lat="42.292356" lon="-0.447719">
        <ele>1495.5</ele>
        <time>2018-07-22T07:23:33.000Z</time>
      </trkpt>
      <trkpt lat="42.292353" lon="-0.447733">
        <ele>1495.6</ele>
        <time>2018-07-22T07:23:34.000Z</time>
      </trkpt>
      <trkpt lat="42.292352" lon="-0.447747">
        <ele>1495.8</ele>
        <time>2018-07-22T07:23:35.000Z</time>
      </trkpt>
      <trkpt lat="42.292349" lon="-0.44776">
        <ele>1495.9</ele>
        <time>2018-07-22T07:23:36.000Z</time>
      </trkpt>
      <trkpt lat="42.292345" lon="-0.447772">
        <ele>1496.0</ele>
        <time>2018-07-22T07:23:37.000Z</time>
      </trkpt>
      <trkpt lat="42.292339" lon="-0.447782">
        <ele>1496.0</ele>
        <time>2018-07-22T07:23:38.000Z</time>
      </trkpt>
      <trkpt lat="42.292333" lon="-0.447791">
        <ele>1495.9</ele>
        <time>2018-07-22T07:23:39.000Z</time>
      </trkpt>
      <trkpt lat="42.292326" lon="-0.447798">
        <ele>1495.8</ele>
        <time>2018-07-22T07:23:40.000Z</time>
      </trkpt>
      <trkpt lat="42.292319" lon="-0.447803">
        <ele>1495.7</ele>
        <time>2018-07-22T07:23:41.000Z</time>
      </trkpt>
      <trkpt lat="42.292312" lon="-0.447807">
        <ele>1495.6</ele>
        <time>2018-07-22T07:23:42.000Z</time>
      </trkpt>
      <trkpt lat="42.292305" lon="-0.44781">
        <ele>1495.4</ele>
        <time>2018-07-22T07:23:43.000Z</time>
      </trkpt>
      <trkpt lat="42.292298" lon="-0.447812">
        <ele>1495.3</ele>
        <time>2018-07-22T07:23:44.000Z</time>
      </trkpt>
      <trkpt lat="42.29229" lon="-0.447814">
        <ele>1495.1</ele>
        <time>2018-07-22T07:23:45.000Z</time>
      </trkpt>
      <trkpt lat="42.292283" lon="-0.447816">
        <ele>1494.9</ele>
        <time>2018-07-22T07:23:46.000Z</time>
      </trkpt>
      <trkpt lat="42.292276" lon="-0.447818">
        <ele>1494.7</ele>
        <time>2018-07-22T07:23:47.000Z</time>
      </trkpt>
      <trkpt lat="42.292268" lon="-0.44782">
        <ele>1494.6</ele>
        <time>2018-07-22T07:23:48.000Z</time>
      </trkpt>
      <trkpt lat="42.29226" lon="-0.447823">
        <ele>1494.4</ele>
        <time>2018-07-22T07:23:49.000Z</time>
      </trkpt>
      <trkpt lat="42.292252" lon="-0.447827">
        <ele>1494.2</ele>
        <time>2018-07-22T07:23:50.000Z</time>
      </trkpt>
      <trkpt lat="42.292245" lon="-0.447833">
        <ele>1494.2</ele>
        <time>2018-07-22T07:23:51.000Z</time>
      </trkpt>
      <trkpt lat="42.292237" lon="-0.44784">
        <ele>1494.1</ele>
        <time>2018-07-22T07:23:52.000Z</time>
      </trkpt>
      <trkpt lat="42.292229" lon="-0.447848">
        <ele>1494.0</ele>
        <time>2018-07-22T07:23:53.000Z</time>
      </trkpt>
      <trkpt lat="42.292222" lon="-0.447858">
        <ele>1494.0</ele>
        <time>2018-07-22T07:23:54.000Z</time>
      </trkpt>
      <trkpt lat="42.292215" lon="-0.447868">
        <ele>1494.0</ele>
        <time>2018-07-22T07:23:55.000Z</time>
      </trkpt>
      <trkpt lat="42.292209" lon="-0.447879">
        <ele>1494.1</ele>
        <time>2018-07-22T07:23:56.000Z</time>
      </trkpt>
      <trkpt lat="42.292204" lon="-0.447891">
        <ele>1494.2</ele>
        <time>2018-07-22T07:23:57.000Z</time>
      </trkpt>
      <trkpt lat="42.292201" lon="-0.447903">
        <ele>1494.4</ele>
        <time>2018-07-22T07:23:58.000Z</time>
      </trkpt>
      <trkpt lat="42.292198" lon="-0.447915">
        <ele>1494.5</ele>
        <time>2018-07-22T07:23:59.000Z</time>
      </trkpt>
      <trkpt lat="42.292195" lon="-0.447927">
        <ele>1494.7</ele>
        <time>2018-07-22T07:24:00.000Z</time>
      </trkpt>
      <trkpt lat="42.292192" lon="-0.447939">
        <ele>1494.9</ele>
        <time>2018-07-22T07:24:01.000Z</time>
      </trkpt>
      <trkpt lat="42.292189" lon="-0.447951">
        <ele>1495.1</ele>
        <time>2018-07-22T07:24:02.000Z</time>
      </trkpt>
      <trkpt lat="42.292185" lon="-0.447963">
        <ele>1495.2</ele>
        <time>2018-07-22T07:24:03.000Z</time>
      </trkpt>
      <trkpt lat="42.29218" lon="-0.447974">
        <ele>1495.3</ele>
        <time>2018-07-22T07:24:04.000Z</time>
      </trkpt>
      <trkpt lat="42.292174" lon="-0.447984">
        <ele>1495.4</ele>
        <time>2018-07-22T07:24:05.000Z</time>
      </trkpt>
      <trkpt lat="42.292168" lon="-0.447993">
        <ele>1495.5</ele>
        <time>2018-07-22T07:24:06.000Z</time>
      </trkpt>
      <trkpt lat="42.292161" lon="-0.448">
        <ele>1495.5</ele>
        <time>2018-07-22T07:24:07.000Z</time>
      </trkpt>
      <trkpt lat="42.292154" lon="-0.448005">
        <ele>1495.4</ele>
        <time>2018-07-22T07:24:08.000Z</time>
      </trkpt>
      <trkpt lat="42.292147" lon="-0.448008">
        <ele>1495.4</ele>
        <time>2018-07-22T07:24:09.000Z</time>
      </trkpt>
      <trkpt lat="42.292139" lon="-0.448009">
        <ele>1495.2</ele>
        <time>2018-07-22T07:24:10.000Z</time>
      </trkpt>
      <trkpt lat="42.292131" lon="-0.44801">
        <ele>1495.1</ele>
        <time>2018-07-22T07:24:11.000Z</time>
      </trkpt>
      <trkpt lat="42.292122" lon="-0.448011">
        <ele>1494.9</ele>
        <time>2018-07-22T07:24:12.000Z</time>
      </trkpt>
      <trkpt lat="42.292113" lon="-0.448013">
        <ele>1494.7</ele>
        <time>2018-07-22T07:24:13.000Z</time>
      </trkpt>
      <trkpt lat="42.292103" lon="-0.448017">
        <ele>1494.6</ele>
        <time>2018-07-22T07:24:14.000Z</time>
      </trkpt>
      <trkpt lat="42.292092" lon="-0.448023">
        <ele>1494.5</ele>
        <time>2018-07-22T07:24:15.000Z</time>
      </trkpt>
      <trkpt lat="42.292081" lon="-0.44803">
        <ele>1494.5</ele>
        <time>2018-07-22T07:24:16.000Z</time>
      </trkpt>
      <trkpt lat="42.292071" lon="-0.448039">
        <ele>1494.5</ele>
        <time>2018-07-22T07:24:17.000Z</time>
      </trkpt>
      <trkpt lat="42.292062" lon="-0.448048">
        <ele>1494.6</ele>
        <time>2018-07-22T07:24:18.000Z</time>
      </trkpt>
      <trkpt lat="42.292055" lon="-0.448057">
        <ele>1494.6</ele>
        <time>2018-07-22T07:24:19.000Z</time>
      </trkpt>
      <trkpt lat="42.29205" lon="-0.448067">
        <ele>1494.8</ele>
        <time>2018-07-22T07:24:20.000Z</time>
      </trkpt>
      <trkpt lat="42.292046" lon="-0.448077">
        <ele>1495.0</ele>
        <time>2018-07-22T07:24:21.000Z</time>
      </trkpt>
      <trkpt lat="42.292045" lon="-0.448087">
        <ele>1495.2</ele>
        <time>2018-07-22T07:24:22.000Z</time>
      </trkpt>
      <trkpt lat="42.292043" lon="-0.448098">
        <ele>1495.5</ele>
        <time>2018-07-22T07:24:23.000Z</time>
      </trkpt>
      <trkpt lat="42.292042" lon="-0.448108">
        <ele>1495.7</ele>
        <time>2018-07-22T07:24:24.000Z</time>
      </trkpt>
      <trkpt lat="42.292041" lon="-0.448119">
        <ele>1496.0</ele>
        <time>2018-07-22T07:24:25.000Z</time>
      </trkpt>
      <trkpt lat="42.29204" lon="-0.44813">
        <ele>1496.3</ele>
        <time>2018-07-22T07:24:26.000Z</time>
      </trkpt>
      <trkpt lat="42.292038" lon="-0.448141">
        <ele>1496.5</ele>
        <time>2018-07-22T07:24:27.000Z</time>
      </trkpt>
      <trkpt lat="42.292037" lon="-0.448152">
        <ele>1496.8</ele>
        <time>2018-07-22T07:24:28.000Z</time>
      </trkpt>
      <trkpt lat="42.292037" lon="-0.448163">
        <ele>1497.1</ele>
        <time>2018-07-22T07:24:29.000Z</time>
      </trkpt>
      <trkpt lat="42.292037" lon="-0.448175">
        <ele>1497.4</ele>
        <time>2018-07-22T07:24:30.000Z</time>
      </trkpt>
      <trkpt lat="42.292038" lon="-0.448187">
        <ele>1497.7</ele>
        <time>2018-07-22T07:24:31.000Z</time>
      </trkpt>
      <trkpt lat="42.29204" lon="-0.448199">
        <ele>1498.1</ele>
        <time>2018-07-22T07:24:32.000Z</time>
      </trkpt>
      <trkpt lat="42.292043" lon="-0.448212">
        <ele>1498.5</ele>
        <time>2018-07-22T07:24:33.000Z</time>
      </trkpt>
      <trkpt lat="42.292045" lon="-0.448225">
        <ele>1498.8</ele>
        <time>2018-07-22T07:24:34.000Z</time>
      </trkpt>
      <trkpt lat="42.292047" lon="-0.448238">
        <ele>1499.2</ele>
        <time>2018-07-22T07:24:35.000Z</time>
      </trkpt>
      <trkpt lat="42.292047" lon="-0.448252">
        <ele>1499.5</ele>
        <time>2018-07-22T07:24:36.000Z</time>
      </trkpt>
      <trkpt lat="42.292047" lon="-0.448266">
        <ele>1499.9</ele>
        <time>2018-07-22T07:24:37.000Z</time>
      </trkpt>
      <trkpt lat="42.292047" lon="-0.448281">
        <ele>1500.3</ele>
        <time>2018-07-22T07:24:38.000Z</time>
      </trkpt>
      <trkpt lat="42.292046" lon="-0.448296">
        <ele>1500.7</ele>
        <time>2018-07-22T07:24:39.000Z</time>
      </trkpt>
      <trkpt lat="42.292044" lon="-0.448311">
        <ele>1501.0</ele>
        <time>2018-07-22T07:24:40.000Z</time>
      </trkpt>
      <trkpt lat="42.292042" lon="-0.448326">
        <ele>1501.4</ele>
        <time>2018-07-22T07:24:41.000Z</time>
      </trkpt>
      <trkpt lat="42.29204" lon="-0.448342">
        <ele>1501.6</ele>
        <time>2018-07-22T07:24:42.000Z</time>
      </trkpt>
      <trkpt lat="42.292038" lon="-0.448358">
        <ele>1501.7</ele>
        <time>2018-07-22T07:24:43.000Z</time>
      </trkpt>
      <trkpt lat="42.292037" lon="-0.448374">
        <ele>1501.7</ele>
        <time>2018-07-22T07:24:44.000Z</time>
      </trkpt>
      <trkpt lat="42.292035" lon="-0.44839">
        <ele>1501.8</ele>
        <time>2018-07-22T07:24:45.000Z</time>
      </trkpt>
      <trkpt lat="42.292034" lon="-0.448406">
        <ele>1501.9</ele>
        <time>2018-07-22T07:24:46.000Z</time>
      </trkpt>
      <trkpt lat="42.292034" lon="-0.448422">
        <ele>1501.9</ele>
        <time>2018-07-22T07:24:47.000Z</time>
      </trkpt>
      <trkpt lat="42.292034" lon="-0.448438">
        <ele>1502.0</ele>
        <time>2018-07-22T07:24:48.000Z</time>
      </trkpt>
      <trkpt lat="42.292034" lon="-0.448453">
        <ele>1502.1</ele>
        <time>2018-07-22T07:24:49.000Z</time>
      </trkpt>
      <trkpt lat="42.292033" lon="-0.448468">
        <ele>1502.2</ele>
        <time>2018-07-22T07:24:50.000Z</time>
      </trkpt>
      <trkpt lat="42.292031" lon="-0.448483">
        <ele>1502.2</ele>
        <time>2018-07-22T07:24:51.000Z</time>
      </trkpt>
      <trkpt lat="42.292028" lon="-0.448496">
        <ele>1502.3</ele>
        <time>2018-07-22T07:24:52.000Z</time>
      </trkpt>
      <trkpt lat="42.292024" lon="-0.448509">
        <ele>1502.3</ele>
        <time>2018-07-22T07:24:53.000Z</time>
      </trkpt>
      <trkpt lat="42.292018" lon="-0.448521">
        <ele>1502.4</ele>
        <time>2018-07-22T07:24:54.000Z</time>
      </trkpt>
      <trkpt lat="42.292012" lon="-0.448533">
        <ele>1502.4</ele>
        <time>2018-07-22T07:24:55.000Z</time>
      </trkpt>
      <trkpt lat="42.292005" lon="-0.448546">
        <ele>1502.5</ele>
        <time>2018-07-22T07:24:56.000Z</time>
      </trkpt>
      <trkpt lat="42.291998" lon="-0.448558">
        <ele>1502.5</ele>
        <time>2018-07-22T07:24:57.000Z</time>
      </trkpt>
      <trkpt lat="42.291992" lon="-0.448572">
        <ele>1502.6</ele>
        <time>2018-07-22T07:24:58.000Z</time>
      </trkpt>
      <trkpt lat="42.291986" lon="-0.448586">
        <ele>1502.7</ele>
        <time>2018-07-22T07:24:59.000Z</time>
      </trkpt>
      <trkpt lat="42.29198" lon="-0.448599">
        <ele>1502.8</ele>
        <time>2018-07-22T07:25:00.000Z</time>
      </trkpt>
      <trkpt lat="42.291974" lon="-0.44861">
        <ele>1502.9</ele>
        <time>2018-07-22T07:25:01.000Z</time>
      </trkpt>
      <trkpt lat="42.291968" lon="-0.448619">
        <ele>1502.9</ele>
        <time>2018-07-22T07:25:02.000Z</time>
      </trkpt>
      <trkpt lat="42.29196" lon="-0.448625">
        <ele>1503.0</ele>
        <time>2018-07-22T07:25:03.000Z</time>
      </trkpt>
      <trkpt lat="42.291953" lon="-0.448629">
        <ele>1503.0</ele>
        <time>2018-07-22T07:25:04.000Z</time>
      </trkpt>
      <trkpt lat="42.291945" lon="-0.448635">
        <ele>1503.1</ele>
        <time>2018-07-22T07:25:05.000Z</time>
      </trkpt>
      <trkpt lat="42.291937" lon="-0.448643">
        <ele>1503.2</ele>
        <time>2018-07-22T07:25:06.000Z</time>
      </trkpt>
      <trkpt lat="42.29193" lon="-0.448653">
        <ele>1503.3</ele>
        <time>2018-07-22T07:25:07.000Z</time>
      </trkpt>
      <trkpt lat="42.291925" lon="-0.448665">
        <ele>1503.4</ele>
        <time>2018-07-22T07:25:08.000Z</time>
      </trkpt>
      <trkpt lat="42.291921" lon="-0.448678">
        <ele>1503.5</ele>
        <time>2018-07-22T07:25:09.000Z</time>
      </trkpt>
      <trkpt lat="42.291917" lon="-0.448693">
        <ele>1503.6</ele>
        <time>2018-07-22T07:25:10.000Z</time>
      </trkpt>
      <trkpt lat="42.291915" lon="-0.448708">
        <ele>1503.8</ele>
        <time>2018-07-22T07:25:11.000Z</time>
      </trkpt>
      <trkpt lat="42.291912" lon="-0.448724">
        <ele>1503.9</ele>
        <time>2018-07-22T07:25:12.000Z</time>
      </trkpt>
      <trkpt lat="42.291909" lon="-0.448739">
        <ele>1504.1</ele>
        <time>2018-07-22T07:25:13.000Z</time>
      </trkpt>
      <trkpt lat="42.291904" lon="-0.448754">
        <ele>1504.3</ele>
        <time>2018-07-22T07:25:14.000Z</time>
      </trkpt>
      <trkpt lat="42.2919" lon="-0.448769">
        <ele>1504.4</ele>
        <time>2018-07-22T07:25:15.000Z</time>
      </trkpt>
      <trkpt lat="42.291894" lon="-0.448783">
        <ele>1504.6</ele>
        <time>2018-07-22T07:25:16.000Z</time>
      </trkpt>
      <trkpt lat="42.291888" lon="-0.448797">
        <ele>1504.8</ele>
        <time>2018-07-22T07:25:17.000Z</time>
      </trkpt>
      <trkpt lat="42.291882" lon="-0.44881">
        <ele>1505.0</ele>
        <time>2018-07-22T07:25:18.000Z</time>
      </trkpt>
      <trkpt lat="42.291876" lon="-0.448823">
        <ele>1505.1</ele>
        <time>2018-07-22T07:25:19.000Z</time>
      </trkpt>
      <trkpt lat="42.291869" lon="-0.448835">
        <ele>1505.3</ele>
        <time>2018-07-22T07:25:20.000Z</time>
      </trkpt>
      <trkpt lat="42.291863" lon="-0.448847">
        <ele>1505.5</ele>
        <time>2018-07-22T07:25:21.000Z</time>
      </trkpt>
      <trkpt lat="42.291857" lon="-0.448859">
        <ele>1505.7</ele>
        <time>2018-07-22T07:25:22.000Z</time>
      </trkpt>
      <trkpt lat="42.29185" lon="-0.448871">
        <ele>1505.9</ele>
        <time>2018-07-22T07:25:23.000Z</time>
      </trkpt>
      <trkpt lat="42.291844" lon="-0.448882">
        <ele>1506.1</ele>
        <time>2018-07-22T07:25:24.000Z</time>
      </trkpt>
      <trkpt lat="42.291838" lon="-0.448893">
        <ele>1506.3</ele>
        <time>2018-07-22T07:25:25.000Z</time>
      </trkpt>
      <trkpt lat="42.291832" lon="-0.448905">
        <ele>1506.5</ele>
        <time>2018-07-22T07:25:26.000Z</time>
      </trkpt>
      <trkpt lat="42.291827" lon="-0.448916">
        <ele>1506.7</ele>
        <time>2018-07-22T07:25:27.000Z</time>
      </trkpt>
      <trkpt lat="42.291821" lon="-0.448927">
        <ele>1506.9</ele>
        <time>2018-07-22T07:25:28.000Z</time>
      </trkpt>
      <trkpt lat="42.291816" lon="-0.448939">
        <ele>1507.1</ele>
        <time>2018-07-22T07:25:29.000Z</time>
      </trkpt>
      <trkpt lat="42.291811" lon="-0.448951">
        <ele>1507.3</ele>
        <time>2018-07-22T07:25:30.000Z</time>
      </trkpt>
      <trkpt lat="42.291806" lon="-0.448962">
        <ele>1507.5</ele>
        <time>2018-07-22T07:25:31.000Z</time>
      </trkpt>
      <trkpt lat="42.2918" lon="-0.448971">
        <ele>1507.7</ele>
        <time>2018-07-22T07:25:32.000Z</time>
      </trkpt>
      <trkpt lat="42.291793" lon="-0.448977">
        <ele>1507.9</ele>
        <time>2018-07-22T07:25:33.000Z</time>
      </trkpt>
      <trkpt lat="42.291785" lon="-0.448983">
        <ele>1508.1</ele>
        <time>2018-07-22T07:25:34.000Z</time>
      </trkpt>
      <trkpt lat="42.291777" lon="-0.448989">
        <ele>1508.3</ele>
        <time>2018-07-22T07:25:35.000Z</time>
      </trkpt>
      <trkpt lat="42.291771" lon="-0.448996">
        <ele>1508.4</ele>
        <time>2018-07-22T07:25:36.000Z</time>
      </trkpt>
      <trkpt lat="42.291765" lon="-0.449006">
        <ele>1508.7</ele>
        <time>2018-07-22T07:25:37.000Z</time>
      </trkpt>
      <trkpt lat="42.29176" lon="-0.449017">
        <ele>1508.9</ele>
        <time>2018-07-22T07:25:38.000Z</time>
      </trkpt>
      <trkpt lat="42.291755" lon="-0.449028">
        <ele>1509.1</ele>
        <time>2018-07-22T07:25:39.000Z</time>
      </trkpt>
      <trkpt lat="42.29175" lon="-0.44904">
        <ele>1509.4</ele>
        <time>2018-07-22T07:25:40.000Z</time>
      </trkpt>
      <trkpt lat="42.291743" lon="-0.449051">
        <ele>1509.7</ele>
        <time>2018-07-22T07:25:41.000Z</time>
      </trkpt>
      <trkpt lat="42.291736" lon="-0.449062">
        <ele>1510.0</ele>
        <time>2018-07-22T07:25:42.000Z</time>
      </trkpt>
      <trkpt lat="42.291729" lon="-0.449073">
        <ele>1510.3</ele>
        <time>2018-07-22T07:25:43.000Z</time>
      </trkpt>
      <trkpt lat="42.291721" lon="-0.449084">
        <ele>1510.6</ele>
        <time>2018-07-22T07:25:44.000Z</time>
      </trkpt>
      <trkpt lat="42.291715" lon="-0.449094">
        <ele>1510.8</ele>
        <time>2018-07-22T07:25:45.000Z</time>
      </trkpt>
      <trkpt lat="42.291708" lon="-0.449103">
        <ele>1511.1</ele>
        <time>2018-07-22T07:25:46.000Z</time>
      </trkpt>
      <trkpt lat="42.291703" lon="-0.449113">
        <ele>1511.4</ele>
        <time>2018-07-22T07:25:47.000Z</time>
      </trkpt>
      <trkpt lat="42.291698" lon="-0.449123">
        <ele>1511.6</ele>
        <time>2018-07-22T07:25:48.000Z</time>
      </trkpt>
      <trkpt lat="42.291693" lon="-0.449134">
        <ele>1511.9</ele>
        <time>2018-07-22T07:25:49.000Z</time>
      </trkpt>
      <trkpt lat="42.291688" lon="-0.449145">
        <ele>1512.2</ele>
        <time>2018-07-22T07:25:50.000Z</time>
      </trkpt>
      <trkpt lat="42.291682" lon="-0.449156">
        <ele>1512.5</ele>
        <time>2018-07-22T07:25:51.000Z</time>
      </trkpt>
      <trkpt lat="42.291676" lon="-0.449168">
        <ele>1512.8</ele>
        <time>2018-07-22T07:25:52.000Z</time>
      </trkpt>
      <trkpt lat="42.29167" lon="-0.44918">
        <ele>1513.0</ele>
        <time>2018-07-22T07:25:53.000Z</time>
      </trkpt>
      <trkpt lat="42.291664" lon="-0.449192">
        <ele>1513.0</ele>
        <time>2018-07-22T07:25:54.000Z</time>
      </trkpt>
      <trkpt lat="42.291657" lon="-0.449204">
        <ele>1512.8</ele>
        <time>2018-07-22T07:25:55.000Z</time>
      </trkpt>
      <trkpt lat="42.291649" lon="-0.449214">
        <ele>1512.5</ele>
        <time>2018-07-22T07:25:56.000Z</time>
      </trkpt>
      <trkpt lat="42.291642" lon="-0.449224">
        <ele>1512.3</ele>
        <time>2018-07-22T07:25:57.000Z</time>
      </trkpt>
      <trkpt lat="42.291634" lon="-0.449232">
        <ele>1512.0</ele>
        <time>2018-07-22T07:25:58.000Z</time>
      </trkpt>
      <trkpt lat="42.291627" lon="-0.449241">
        <ele>1511.8</ele>
        <time>2018-07-22T07:25:59.000Z</time>
      </trkpt>
      <trkpt lat="42.29162" lon="-0.449251">
        <ele>1511.6</ele>
        <time>2018-07-22T07:26:00.000Z</time>
      </trkpt>
      <trkpt lat="42.291615" lon="-0.449262">
        <ele>1511.4</ele>
        <time>2018-07-22T07:26:01.000Z</time>
      </trkpt>
      <trkpt lat="42.291611" lon="-0.449275">
        <ele>1511.4</ele>
        <time>2018-07-22T07:26:02.000Z</time>
      </trkpt>
      <trkpt lat="42.291608" lon="-0.449289">
        <ele>1511.3</ele>
        <time>2018-07-22T07:26:03.000Z</time>
      </trkpt>
      <trkpt lat="42.291608" lon="-0.449302">
        <ele>1511.4</ele>
        <time>2018-07-22T07:26:04.000Z</time>
      </trkpt>
      <trkpt lat="42.291609" lon="-0.449314">
        <ele>1511.5</ele>
        <time>2018-07-22T07:26:05.000Z</time>
      </trkpt>
      <trkpt lat="42.291612" lon="-0.449325">
        <ele>1511.7</ele>
        <time>2018-07-22T07:26:06.000Z</time>
      </trkpt>
      <trkpt lat="42.291615" lon="-0.449336">
        <ele>1511.8</ele>
        <time>2018-07-22T07:26:07.000Z</time>
      </trkpt>
      <trkpt lat="42.291618" lon="-0.449349">
        <ele>1512.0</ele>
        <time>2018-07-22T07:26:08.000Z</time>
      </trkpt>
      <trkpt lat="42.291619" lon="-0.449363">
        <ele>1512.1</ele>
        <time>2018-07-22T07:26:09.000Z</time>
      </trkpt>
      <trkpt lat="42.291618" lon="-0.449377">
        <ele>1512.1</ele>
        <time>2018-07-22T07:26:10.000Z</time>
      </trkpt>
      <trkpt lat="42.291615" lon="-0.44939">
        <ele>1512.1</ele>
        <time>2018-07-22T07:26:11.000Z</time>
      </trkpt>
      <trkpt lat="42.29161" lon="-0.449404">
        <ele>1512.0</ele>
        <time>2018-07-22T07:26:12.000Z</time>
      </trkpt>
      <trkpt lat="42.291604" lon="-0.449417">
        <ele>1511.9</ele>
        <time>2018-07-22T07:26:13.000Z</time>
      </trkpt>
      <trkpt lat="42.291598" lon="-0.449431">
        <ele>1511.8</ele>
        <time>2018-07-22T07:26:14.000Z</time>
      </trkpt>
      <trkpt lat="42.291592" lon="-0.449444">
        <ele>1511.6</ele>
        <time>2018-07-22T07:26:15.000Z</time>
      </trkpt>
      <trkpt lat="42.291586" lon="-0.449457">
        <ele>1511.5</ele>
        <time>2018-07-22T07:26:16.000Z</time>
      </trkpt>
      <trkpt lat="42.29158" lon="-0.44947">
        <ele>1511.4</ele>
        <time>2018-07-22T07:26:17.000Z</time>
      </trkpt>
      <trkpt lat="42.291573" lon="-0.449483">
        <ele>1511.3</ele>
        <time>2018-07-22T07:26:18.000Z</time>
      </trkpt>
      <trkpt lat="42.291567" lon="-0.449495">
        <ele>1511.2</ele>
        <time>2018-07-22T07:26:19.000Z</time>
      </trkpt>
      <trkpt lat="42.29156" lon="-0.449508">
        <ele>1511.1</ele>
        <time>2018-07-22T07:26:20.000Z</time>
      </trkpt>
      <trkpt lat="42.291554" lon="-0.449521">
        <ele>1511.0</ele>
        <time>2018-07-22T07:26:21.000Z</time>
      </trkpt>
      <trkpt lat="42.291547" lon="-0.449533">
        <ele>1510.8</ele>
        <time>2018-07-22T07:26:22.000Z</time>
      </trkpt>
      <trkpt lat="42.291541" lon="-0.449545">
        <ele>1510.8</ele>
        <time>2018-07-22T07:26:23.000Z</time>
      </trkpt>
      <trkpt lat="42.291535" lon="-0.449557">
        <ele>1510.7</ele>
        <time>2018-07-22T07:26:24.000Z</time>
      </trkpt>
      <trkpt lat="42.291529" lon="-0.449569">
        <ele>1510.6</ele>
        <time>2018-07-22T07:26:25.000Z</time>
      </trkpt>
      <trkpt lat="42.291523" lon="-0.449581">
        <ele>1510.5</ele>
        <time>2018-07-22T07:26:26.000Z</time>
      </trkpt>
      <trkpt lat="42.291517" lon="-0.449594">
        <ele>1510.5</ele>
        <time>2018-07-22T07:26:27.000Z</time>
      </trkpt>
      <trkpt lat="42.291511" lon="-0.449606">
        <ele>1510.4</ele>
        <time>2018-07-22T07:26:28.000Z</time>
      </trkpt>
      <trkpt lat="42.291506" lon="-0.449619">
        <ele>1510.4</ele>
        <time>2018-07-22T07:26:29.000Z</time>
      </trkpt>
      <trkpt lat="42.2915" lon="-0.449632">
        <ele>1510.3</ele>
        <time>2018-07-22T07:26:30.000Z</time>
      </trkpt>
      <trkpt lat="42.291495" lon="-0.449645">
        <ele>1510.3</ele>
        <time>2018-07-22T07:26:31.000Z</time>
      </trkpt>
      <trkpt lat="42.291489" lon="-0.449659">
        <ele>1510.3</ele>
        <time>2018-07-22T07:26:32.000Z</time>
      </trkpt>
      <trkpt lat="42.291484" lon="-0.449673">
        <ele>1510.3</ele>
        <time>2018-07-22T07:26:33.000Z</time>
      </trkpt>
      <trkpt lat="42.291479" lon="-0.449688">
        <ele>1510.3</ele>
        <time>2018-07-22T07:26:34.000Z</time>
      </trkpt>
      <trkpt lat="42.291473" lon="-0.449704">
        <ele>1510.3</ele>
        <time>2018-07-22T07:26:35.000Z</time>
      </trkpt>
      <trkpt lat="42.291468" lon="-0.449719">
        <ele>1510.3</ele>
        <time>2018-07-22T07:26:36.000Z</time>
      </trkpt>
      <trkpt lat="42.291462" lon="-0.449733">
        <ele>1510.3</ele>
        <time>2018-07-22T07:26:37.000Z</time>
      </trkpt>
      <trkpt lat="42.291457" lon="-0.449746">
        <ele>1510.3</ele>
        <time>2018-07-22T07:26:38.000Z</time>
      </trkpt>
      <trkpt lat="42.291451" lon="-0.449758">
        <ele>1510.3</ele>
        <time>2018-07-22T07:26:39.000Z</time>
      </trkpt>
      <trkpt lat="42.291444" lon="-0.449768">
        <ele>1510.2</ele>
        <time>2018-07-22T07:26:40.000Z</time>
      </trkpt>
      <trkpt lat="42.291438" lon="-0.449776">
        <ele>1510.2</ele>
        <time>2018-07-22T07:26:41.000Z</time>
      </trkpt>
      <trkpt lat="42.291431" lon="-0.449784">
        <ele>1510.1</ele>
        <time>2018-07-22T07:26:42.000Z</time>
      </trkpt>
      <trkpt lat="42.291424" lon="-0.449791">
        <ele>1510.0</ele>
        <time>2018-07-22T07:26:43.000Z</time>
      </trkpt>
      <trkpt lat="42.291417" lon="-0.449799">
        <ele>1509.9</ele>
        <time>2018-07-22T07:26:44.000Z</time>
      </trkpt>
      <trkpt lat="42.29141" lon="-0.449808">
        <ele>1509.9</ele>
        <time>2018-07-22T07:26:45.000Z</time>
      </trkpt>
      <trkpt lat="42.291402" lon="-0.449818">
        <ele>1509.8</ele>
        <time>2018-07-22T07:26:46.000Z</time>
      </trkpt>
      <trkpt lat="42.291395" lon="-0.449827">
        <ele>1509.8</ele>
        <time>2018-07-22T07:26:47.000Z</time>
      </trkpt>
      <trkpt lat="42.291387" lon="-0.449837">
        <ele>1509.7</ele>
        <time>2018-07-22T07:26:48.000Z</time>
      </trkpt>
      <trkpt lat="42.291379" lon="-0.449845">
        <ele>1509.7</ele>
        <time>2018-07-22T07:26:49.000Z</time>
      </trkpt>
      <trkpt lat="42.291371" lon="-0.449852">
        <ele>1509.6</ele>
        <time>2018-07-22T07:26:50.000Z</time>
      </trkpt>
      <trkpt lat="42.291363" lon="-0.449857">
        <ele>1509.5</ele>
        <time>2018-07-22T07:26:51.000Z</time>
      </trkpt>
      <trkpt lat="42.291354" lon="-0.44986">
        <ele>1509.4</ele>
        <time>2018-07-22T07:26:52.000Z</time>
      </trkpt>
      <trkpt lat="42.291345" lon="-0.449864">
        <ele>1509.2</ele>
        <time>2018-07-22T07:26:53.000Z</time>
      </trkpt>
      <trkpt lat="42.291336" lon="-0.449867">
        <ele>1509.1</ele>
        <time>2018-07-22T07:26:54.000Z</time>
      </trkpt>
      <trkpt lat="42.291328" lon="-0.449872">
        <ele>1509.0</ele>
        <time>2018-07-22T07:26:55.000Z</time>
      </trkpt>
      <trkpt lat="42.29132" lon="-0.449878">
        <ele>1508.9</ele>
        <time>2018-07-22T07:26:56.000Z</time>
      </trkpt>
      <trkpt lat="42.291312" lon="-0.449886">
        <ele>1508.9</ele>
        <time>2018-07-22T07:26:57.000Z</time>
      </trkpt>
      <trkpt lat="42.291304" lon="-0.449896">
        <ele>1508.9</ele>
        <time>2018-07-22T07:26:58.000Z</time>
      </trkpt>
      <trkpt lat="42.291297" lon="-0.449906">
        <ele>1508.9</ele>
        <time>2018-07-22T07:26:59.000Z</time>
      </trkpt>
      <trkpt lat="42.29129" lon="-0.449917">
        <ele>1508.9</ele>
        <time>2018-07-22T07:27:00.000Z</time>
      </trkpt>
      <trkpt lat="42.291283" lon="-0.449929">
        <ele>1509.0</ele>
        <time>2018-07-22T07:27:01.000Z</time>
      </trkpt>
      <trkpt lat="42.291277" lon="-0.44994">
        <ele>1509.0</ele>
        <time>2018-07-22T07:27:02.000Z</time>
      </trkpt>
      <trkpt lat="42.29127" lon="-0.449951">
        <ele>1509.1</ele>
        <time>2018-07-22T07:27:03.000Z</time>
      </trkpt>
      <trkpt lat="42.291262" lon="-0.449961">
        <ele>1509.1</ele>
        <time>2018-07-22T07:27:04.000Z</time>
      </trkpt>
      <trkpt lat="42.291253" lon="-0.449969">
        <ele>1509.1</ele>
        <time>2018-07-22T07:27:05.000Z</time>
      </trkpt>
      <trkpt lat="42.291244" lon="-0.449975">
        <ele>1509.0</ele>
        <time>2018-07-22T07:27:06.000Z</time>
      </trkpt>
      <trkpt lat="42.291234" lon="-0.449981">
        <ele>1508.9</ele>
        <time>2018-07-22T07:27:07.000Z</time>
      </trkpt>
      <trkpt lat="42.291225" lon="-0.449986">
        <ele>1508.9</ele>
        <time>2018-07-22T07:27:08.000Z</time>
      </trkpt>
      <trkpt lat="42.291215" lon="-0.449992">
        <ele>1508.8</ele>
        <time>2018-07-22T07:27:09.000Z</time>
      </trkpt>
      <trkpt lat="42.291207" lon="-0.449998">
        <ele>1508.8</ele>
        <time>2018-07-22T07:27:10.000Z</time>
      </trkpt>
      <trkpt lat="42.291199" lon="-0.450006">
        <ele>1508.7</ele>
        <time>2018-07-22T07:27:11.000Z</time>
      </trkpt>
      <trkpt lat="42.291192" lon="-0.450015">
        <ele>1508.5</ele>
        <time>2018-07-22T07:27:12.000Z</time>
      </trkpt>
      <trkpt lat="42.291186" lon="-0.450026">
        <ele>1508.3</ele>
        <time>2018-07-22T07:27:13.000Z</time>
      </trkpt>
      <trkpt lat="42.291182" lon="-0.450039">
        <ele>1508.2</ele>
        <time>2018-07-22T07:27:14.000Z</time>
      </trkpt>
      <trkpt lat="42.291178" lon="-0.450053">
        <ele>1508.1</ele>
        <time>2018-07-22T07:27:15.000Z</time>
      </trkpt>
      <trkpt lat="42.291174" lon="-0.450067">
        <ele>1507.9</ele>
        <time>2018-07-22T07:27:16.000Z</time>
      </trkpt>
      <trkpt lat="42.291171" lon="-0.450082">
        <ele>1507.8</ele>
        <time>2018-07-22T07:27:17.000Z</time>
      </trkpt>
      <trkpt lat="42.291167" lon="-0.450095">
        <ele>1507.7</ele>
        <time>2018-07-22T07:27:18.000Z</time>
      </trkpt>
      <trkpt lat="42.291163" lon="-0.450108">
        <ele>1507.5</ele>
        <time>2018-07-22T07:27:19.000Z</time>
      </trkpt>
      <trkpt lat="42.29116" lon="-0.45012">
        <ele>1507.4</ele>
        <time>2018-07-22T07:27:20.000Z</time>
      </trkpt>
      <trkpt lat="42.291156" lon="-0.45013">
        <ele>1507.3</ele>
        <time>2018-07-22T07:27:21.000Z</time>
      </trkpt>
      <trkpt lat="42.291154" lon="-0.450139">
        <ele>1507.2</ele>
        <time>2018-07-22T07:27:22.000Z</time>
      </trkpt>
      <trkpt lat="42.291152" lon="-0.450146">
        <ele>1507.2</ele>
        <time>2018-07-22T07:27:23.000Z</time>
      </trkpt>
      <trkpt lat="42.291152" lon="-0.45015">
        <ele>1507.1</ele>
        <time>2018-07-22T07:27:24.000Z</time>
      </trkpt>
      <trkpt lat="42.291152" lon="-0.450154">
        <ele>1507.1</ele>
        <time>2018-07-22T07:27:25.000Z</time>
      </trkpt>
      <trkpt lat="42.291151" lon="-0.450158">
        <ele>1507.1</ele>
        <time>2018-07-22T07:27:26.000Z</time>
      </trkpt>
      <trkpt lat="42.291149" lon="-0.450164">
        <ele>1507.0</ele>
        <time>2018-07-22T07:27:27.000Z</time>
      </trkpt>
      <trkpt lat="42.291145" lon="-0.450172">
        <ele>1506.9</ele>
        <time>2018-07-22T07:27:28.000Z</time>
      </trkpt>
      <trkpt lat="42.29114" lon="-0.450182">
        <ele>1506.8</ele>
        <time>2018-07-22T07:27:29.000Z</time>
      </trkpt>
      <trkpt lat="42.291133" lon="-0.450193">
        <ele>1506.7</ele>
        <time>2018-07-22T07:27:30.000Z</time>
      </trkpt>
      <trkpt lat="42.291126" lon="-0.450205">
        <ele>1506.5</ele>
        <time>2018-07-22T07:27:31.000Z</time>
      </trkpt>
      <trkpt lat="42.291118" lon="-0.450217">
        <ele>1506.4</ele>
        <time>2018-07-22T07:27:32.000Z</time>
      </trkpt>
      <trkpt lat="42.29111" lon="-0.450231">
        <ele>1506.2</ele>
        <time>2018-07-22T07:27:33.000Z</time>
      </trkpt>
      <trkpt lat="42.291102" lon="-0.450244">
        <ele>1506.1</ele>
        <time>2018-07-22T07:27:34.000Z</time>
      </trkpt>
      <trkpt lat="42.291094" lon="-0.450258">
        <ele>1505.9</ele>
        <time>2018-07-22T07:27:35.000Z</time>
      </trkpt>
      <trkpt lat="42.291086" lon="-0.450271">
        <ele>1505.8</ele>
        <time>2018-07-22T07:27:36.000Z</time>
      </trkpt>
      <trkpt lat="42.291078" lon="-0.450283">
        <ele>1505.6</ele>
        <time>2018-07-22T07:27:37.000Z</time>
      </trkpt>
      <trkpt lat="42.29107" lon="-0.450293">
        <ele>1505.5</ele>
        <time>2018-07-22T07:27:38.000Z</time>
      </trkpt>
      <trkpt lat="42.291061" lon="-0.450302">
        <ele>1505.4</ele>
        <time>2018-07-22T07:27:39.000Z</time>
      </trkpt>
      <trkpt lat="42.291051" lon="-0.450309">
        <ele>1505.2</ele>
        <time>2018-07-22T07:27:40.000Z</time>
      </trkpt>
      <trkpt lat="42.29104" lon="-0.450314">
        <ele>1505.1</ele>
        <time>2018-07-22T07:27:41.000Z</time>
      </trkpt>
      <trkpt lat="42.29103" lon="-0.450317">
        <ele>1505.0</ele>
        <time>2018-07-22T07:27:42.000Z</time>
      </trkpt>
      <trkpt lat="42.291019" lon="-0.45032">
        <ele>1504.9</ele>
        <time>2018-07-22T07:27:43.000Z</time>
      </trkpt>
      <trkpt lat="42.291009" lon="-0.450323">
        <ele>1504.8</ele>
        <time>2018-07-22T07:27:44.000Z</time>
      </trkpt>
      <trkpt lat="42.291" lon="-0.450326">
        <ele>1504.7</ele>
        <time>2018-07-22T07:27:45.000Z</time>
      </trkpt>
      <trkpt lat="42.290992" lon="-0.450329">
        <ele>1504.6</ele>
        <time>2018-07-22T07:27:46.000Z</time>
      </trkpt>
      <trkpt lat="42.290985" lon="-0.450333">
        <ele>1504.5</ele>
        <time>2018-07-22T07:27:47.000Z</time>
      </trkpt>
      <trkpt lat="42.290979" lon="-0.450337">
        <ele>1504.4</ele>
        <time>2018-07-22T07:27:48.000Z</time>
      </trkpt>
      <trkpt lat="42.290973" lon="-0.450342">
        <ele>1504.4</ele>
        <time>2018-07-22T07:27:49.000Z</time>
      </trkpt>
      <trkpt lat="42.290967" lon="-0.450347">
        <ele>1504.3</ele>
        <time>2018-07-22T07:27:50.000Z</time>
      </trkpt>
      <trkpt lat="42.29096" lon="-0.450351">
        <ele>1504.2</ele>
        <time>2018-07-22T07:27:51.000Z</time>
      </trkpt>
      <trkpt lat="42.290952" lon="-0.450354">
        <ele>1504.1</ele>
        <time>2018-07-22T07:27:52.000Z</time>
      </trkpt>
      <trkpt lat="42.290944" lon="-0.450355">
        <ele>1504.0</ele>
        <time>2018-07-22T07:27:53.000Z</time>
      </trkpt>
      <trkpt lat="42.290935" lon="-0.450354">
        <ele>1504.0</ele>
        <time>2018-07-22T07:27:54.000Z</time>
      </trkpt>
      <trkpt lat="42.290926" lon="-0.450352">
        <ele>1503.9</ele>
        <time>2018-07-22T07:27:55.000Z</time>
      </trkpt>
      <trkpt lat="42.290917" lon="-0.450354">
        <ele>1503.8</ele>
        <time>2018-07-22T07:27:56.000Z</time>
      </trkpt>
      <trkpt lat="42.290907" lon="-0.450358">
        <ele>1503.7</ele>
        <time>2018-07-22T07:27:57.000Z</time>
      </trkpt>
      <trkpt lat="42.290898" lon="-0.450365">
        <ele>1503.6</ele>
        <time>2018-07-22T07:27:58.000Z</time>
      </trkpt>
      <trkpt lat="42.29089" lon="-0.450374">
        <ele>1503.5</ele>
        <time>2018-07-22T07:27:59.000Z</time>
      </trkpt>
      <trkpt lat="42.290883" lon="-0.450384">
        <ele>1503.4</ele>
        <time>2018-07-22T07:28:00.000Z</time>
      </trkpt>
      <trkpt lat="42.290879" lon="-0.450396">
        <ele>1503.4</ele>
        <time>2018-07-22T07:28:01.000Z</time>
      </trkpt>
      <trkpt lat="42.290877" lon="-0.450409">
        <ele>1503.4</ele>
        <time>2018-07-22T07:28:02.000Z</time>
      </trkpt>
      <trkpt lat="42.290876" lon="-0.450423">
        <ele>1503.4</ele>
        <time>2018-07-22T07:28:03.000Z</time>
      </trkpt>
      <trkpt lat="42.290878" lon="-0.450437">
        <ele>1503.4</ele>
        <time>2018-07-22T07:28:04.000Z</time>
      </trkpt>
      <trkpt lat="42.29088" lon="-0.450452">
        <ele>1503.4</ele>
        <time>2018-07-22T07:28:05.000Z</time>
      </trkpt>
      <trkpt lat="42.290884" lon="-0.450467">
        <ele>1503.4</ele>
        <time>2018-07-22T07:28:06.000Z</time>
      </trkpt>
      <trkpt lat="42.290889" lon="-0.450483">
        <ele>1503.4</ele>
        <time>2018-07-22T07:28:07.000Z</time>
      </trkpt>
      <trkpt lat="42.290894" lon="-0.450499">
        <ele>1503.4</ele>
        <time>2018-07-22T07:28:08.000Z</time>
      </trkpt>
      <trkpt lat="42.2909" lon="-0.450516">
        <ele>1503.4</ele>
        <time>2018-07-22T07:28:09.000Z</time>
      </trkpt>
      <trkpt lat="42.290906" lon="-0.450532">
        <ele>1503.5</ele>
        <time>2018-07-22T07:28:10.000Z</time>
      </trkpt>
      <trkpt lat="42.290913" lon="-0.450548">
        <ele>1503.5</ele>
        <time>2018-07-22T07:28:11.000Z</time>
      </trkpt>
      <trkpt lat="42.290919" lon="-0.450564">
        <ele>1503.5</ele>
        <time>2018-07-22T07:28:12.000Z</time>
      </trkpt>
      <trkpt lat="42.290925" lon="-0.450579">
        <ele>1503.5</ele>
        <time>2018-07-22T07:28:13.000Z</time>
      </trkpt>
      <trkpt lat="42.290931" lon="-0.450595">
        <ele>1503.5</ele>
        <time>2018-07-22T07:28:14.000Z</time>
      </trkpt>
      <trkpt lat="42.290938" lon="-0.45061">
        <ele>1503.5</ele>
        <time>2018-07-22T07:28:15.000Z</time>
      </trkpt>
      <trkpt lat="42.290944" lon="-0.450625">
        <ele>1503.5</ele>
        <time>2018-07-22T07:28:16.000Z</time>
      </trkpt>
      <trkpt lat="42.29095" lon="-0.45064">
        <ele>1503.5</ele>
        <time>2018-07-22T07:28:17.000Z</time>
      </trkpt>
      <trkpt lat="42.290956" lon="-0.450655">
        <ele>1503.5</ele>
        <time>2018-07-22T07:28:18.000Z</time>
      </trkpt>
      <trkpt lat="42.290962" lon="-0.45067">
        <ele>1503.5</ele>
        <time>2018-07-22T07:28:19.000Z</time>
      </trkpt>
      <trkpt lat="42.290968" lon="-0.450684">
        <ele>1503.5</ele>
        <time>2018-07-22T07:28:20.000Z</time>
      </trkpt>
      <trkpt lat="42.290974" lon="-0.450699">
        <ele>1503.5</ele>
        <time>2018-07-22T07:28:21.000Z</time>
      </trkpt>
      <trkpt lat="42.29098" lon="-0.450714">
        <ele>1503.5</ele>
        <time>2018-07-22T07:28:22.000Z</time>
      </trkpt>
      <trkpt lat="42.290986" lon="-0.450729">
        <ele>1503.5</ele>
        <time>2018-07-22T07:28:23.000Z</time>
      </trkpt>
      <trkpt lat="42.290991" lon="-0.450744">
        <ele>1503.4</ele>
        <time>2018-07-22T07:28:24.000Z</time>
      </trkpt>
      <trkpt lat="42.290993" lon="-0.45076">
        <ele>1503.4</ele>
        <time>2018-07-22T07:28:25.000Z</time>
      </trkpt>
      <trkpt lat="42.290991" lon="-0.450777">
        <ele>1503.3</ele>
        <time>2018-07-22T07:28:26.000Z</time>
      </trkpt>
      <trkpt lat="42.290987" lon="-0.450794">
        <ele>1503.3</ele>
        <time>2018-07-22T07:28:27.000Z</time>
      </trkpt>
      <trkpt lat="42.290982" lon="-0.450811">
        <ele>1503.2</ele>
        <time>2018-07-22T07:28:28.000Z</time>
      </trkpt>
      <trkpt lat="42.290978" lon="-0.450827">
        <ele>1503.2</ele>
        <time>2018-07-22T07:28:29.000Z</time>
      </trkpt>
      <trkpt lat="42.290975" lon="-0.450842">
        <ele>1503.0</ele>
        <time>2018-07-22T07:28:30.000Z</time>
      </trkpt>
      <trkpt lat="42.290975" lon="-0.450857">
        <ele>1502.8</ele>
        <time>2018-07-22T07:28:31.000Z</time>
      </trkpt>
      <trkpt lat="42.290979" lon="-0.45087">
        <ele>1502.6</ele>
        <time>2018-07-22T07:28:32.000Z</time>
      </trkpt>
      <trkpt lat="42.290985" lon="-0.450882">
        <ele>1502.4</ele>
        <time>2018-07-22T07:28:33.000Z</time>
      </trkpt>
      <trkpt lat="42.29099" lon="-0.450891">
        <ele>1502.3</ele>
        <time>2018-07-22T07:28:34.000Z</time>
      </trkpt>
      <trkpt lat="42.290996" lon="-0.450897">
        <ele>1502.2</ele>
        <time>2018-07-22T07:28:35.000Z</time>
      </trkpt>
      <trkpt lat="42.291001" lon="-0.450903">
        <ele>1502.1</ele>
        <time>2018-07-22T07:28:36.000Z</time>
      </trkpt>
      <trkpt lat="42.291006" lon="-0.450908">
        <ele>1502.0</ele>
        <time>2018-07-22T07:28:37.000Z</time>
      </trkpt>
      <trkpt lat="42.29101" lon="-0.450913">
        <ele>1501.9</ele>
        <time>2018-07-22T07:28:38.000Z</time>
      </trkpt>
      <trkpt lat="42.291015" lon="-0.450918">
        <ele>1501.9</ele>
        <time>2018-07-22T07:28:39.000Z</time>
      </trkpt>
      <trkpt lat="42.291019" lon="-0.450925">
        <ele>1501.8</ele>
        <time>2018-07-22T07:28:40.000Z</time>
      </trkpt>
      <trkpt lat="42.291023" lon="-0.450933">
        <ele>1501.6</ele>
        <time>2018-07-22T07:28:41.000Z</time>
      </trkpt>
      <trkpt lat="42.291027" lon="-0.450942">
        <ele>1501.5</ele>
        <time>2018-07-22T07:28:42.000Z</time>
      </trkpt>
      <trkpt lat="42.291031" lon="-0.450951">
        <ele>1501.4</ele>
        <time>2018-07-22T07:28:43.000Z</time>
      </trkpt>
      <trkpt lat="42.291035" lon="-0.45096">
        <ele>1501.2</ele>
        <time>2018-07-22T07:28:44.000Z</time>
      </trkpt>
      <trkpt lat="42.291039" lon="-0.450968">
        <ele>1501.1</ele>
        <time>2018-07-22T07:28:45.000Z</time>
      </trkpt>
      <trkpt lat="42.291044" lon="-0.450976">
        <ele>1501.0</ele>
        <time>2018-07-22T07:28:46.000Z</time>
      </trkpt>
      <trkpt lat="42.291048" lon="-0.450983">
        <ele>1500.9</ele>
        <time>2018-07-22T07:28:47.000Z</time>
      </trkpt>
      <trkpt lat="42.291052" lon="-0.450989">
        <ele>1500.8</ele>
        <time>2018-07-22T07:28:48.000Z</time>
      </trkpt>
      <trkpt lat="42.291056" lon="-0.450996">
        <ele>1500.7</ele>
        <time>2018-07-22T07:28:49.000Z</time>
      </trkpt>
      <trkpt lat="42.29106" lon="-0.451002">
        <ele>1500.6</ele>
        <time>2018-07-22T07:28:50.000Z</time>
      </trkpt>
      <trkpt lat="42.291064" lon="-0.451007">
        <ele>1500.5</ele>
        <time>2018-07-22T07:28:51.000Z</time>
      </trkpt>
      <trkpt lat="42.291067" lon="-0.451012">
        <ele>1500.4</ele>
        <time>2018-07-22T07:28:52.000Z</time>
      </trkpt>
      <trkpt lat="42.291073" lon="-0.451016">
        <ele>1500.4</ele>
        <time>2018-07-22T07:28:53.000Z</time>
      </trkpt>
      <trkpt lat="42.29108" lon="-0.451019">
        <ele>1500.3</ele>
        <time>2018-07-22T07:28:54.000Z</time>
      </trkpt>
      <trkpt lat="42.291088" lon="-0.451022">
        <ele>1500.3</ele>
        <time>2018-07-22T07:28:55.000Z</time>
      </trkpt>
      <trkpt lat="42.291094" lon="-0.451028">
        <ele>1500.2</ele>
        <time>2018-07-22T07:28:56.000Z</time>
      </trkpt>
      <trkpt lat="42.291098" lon="-0.451035">
        <ele>1500.1</ele>
        <time>2018-07-22T07:28:57.000Z</time>
      </trkpt>
      <trkpt lat="42.291101" lon="-0.451045">
        <ele>1499.9</ele>
        <time>2018-07-22T07:28:58.000Z</time>
      </trkpt>
      <trkpt lat="42.291104" lon="-0.451055">
        <ele>1499.8</ele>
        <time>2018-07-22T07:28:59.000Z</time>
      </trkpt>
      <trkpt lat="42.291105" lon="-0.451067">
        <ele>1499.6</ele>
        <time>2018-07-22T07:29:00.000Z</time>
      </trkpt>
      <trkpt lat="42.291106" lon="-0.451079">
        <ele>1499.4</ele>
        <time>2018-07-22T07:29:01.000Z</time>
      </trkpt>
      <trkpt lat="42.291106" lon="-0.451092">
        <ele>1499.2</ele>
        <time>2018-07-22T07:29:02.000Z</time>
      </trkpt>
      <trkpt lat="42.291107" lon="-0.451105">
        <ele>1499.0</ele>
        <time>2018-07-22T07:29:03.000Z</time>
      </trkpt>
      <trkpt lat="42.291107" lon="-0.451118">
        <ele>1498.8</ele>
        <time>2018-07-22T07:29:04.000Z</time>
      </trkpt>
      <trkpt lat="42.291108" lon="-0.451131">
        <ele>1498.6</ele>
        <time>2018-07-22T07:29:05.000Z</time>
      </trkpt>
      <trkpt lat="42.29111" lon="-0.451143">
        <ele>1498.4</ele>
        <time>2018-07-22T07:29:06.000Z</time>
      </trkpt>
      <trkpt lat="42.291112" lon="-0.451155">
        <ele>1498.2</ele>
        <time>2018-07-22T07:29:07.000Z</time>
      </trkpt>
      <trkpt lat="42.291114" lon="-0.451167">
        <ele>1498.0</ele>
        <time>2018-07-22T07:29:08.000Z</time>
      </trkpt>
      <trkpt lat="42.291117" lon="-0.451179">
        <ele>1497.8</ele>
        <time>2018-07-22T07:29:09.000Z</time>
      </trkpt>
      <trkpt lat="42.291119" lon="-0.45119">
        <ele>1497.6</ele>
        <time>2018-07-22T07:29:10.000Z</time>
      </trkpt>
      <trkpt lat="42.291122" lon="-0.451202">
        <ele>1497.4</ele>
        <time>2018-07-22T07:29:11.000Z</time>
      </trkpt>
      <trkpt lat="42.291124" lon="-0.451214">
        <ele>1497.3</ele>
        <time>2018-07-22T07:29:12.000Z</time>
      </trkpt>
      <trkpt lat="42.291125" lon="-0.451227">
        <ele>1497.0</ele>
        <time>2018-07-22T07:29:13.000Z</time>
      </trkpt>
      <trkpt lat="42.291126" lon="-0.45124">
        <ele>1496.8</ele>
        <time>2018-07-22T07:29:14.000Z</time>
      </trkpt>
      <trkpt lat="42.291128" lon="-0.451253">
        <ele>1496.6</ele>
        <time>2018-07-22T07:29:15.000Z</time>
      </trkpt>
      <trkpt lat="42.291129" lon="-0.451266">
        <ele>1496.4</ele>
        <time>2018-07-22T07:29:16.000Z</time>
      </trkpt>
      <trkpt lat="42.291131" lon="-0.451279">
        <ele>1496.2</ele>
        <time>2018-07-22T07:29:17.000Z</time>
      </trkpt>
      <trkpt lat="42.291134" lon="-0.451292">
        <ele>1496.0</ele>
        <time>2018-07-22T07:29:18.000Z</time>
      </trkpt>
      <trkpt lat="42.291137" lon="-0.451304">
        <ele>1495.8</ele>
        <time>2018-07-22T07:29:19.000Z</time>
      </trkpt>
      <trkpt lat="42.291141" lon="-0.451316">
        <ele>1495.6</ele>
        <time>2018-07-22T07:29:20.000Z</time>
      </trkpt>
      <trkpt lat="42.291146" lon="-0.451327">
        <ele>1495.5</ele>
        <time>2018-07-22T07:29:21.000Z</time>
      </trkpt>
      <trkpt lat="42.29115" lon="-0.451338">
        <ele>1495.3</ele>
        <time>2018-07-22T07:29:22.000Z</time>
      </trkpt>
      <trkpt lat="42.291155" lon="-0.451348">
        <ele>1495.1</ele>
        <time>2018-07-22T07:29:23.000Z</time>
      </trkpt>
      <trkpt lat="42.29116" lon="-0.451357">
        <ele>1495.0</ele>
        <time>2018-07-22T07:29:24.000Z</time>
      </trkpt>
      <trkpt lat="42.291164" lon="-0.451367">
        <ele>1494.8</ele>
        <time>2018-07-22T07:29:25.000Z</time>
      </trkpt>
      <trkpt lat="42.291167" lon="-0.451377">
        <ele>1494.7</ele>
        <time>2018-07-22T07:29:26.000Z</time>
      </trkpt>
      <trkpt lat="42.291168" lon="-0.451388">
        <ele>1494.5</ele>
        <time>2018-07-22T07:29:27.000Z</time>
      </trkpt>
      <trkpt lat="42.291167" lon="-0.451401">
        <ele>1494.3</ele>
        <time>2018-07-22T07:29:28.000Z</time>
      </trkpt>
      <trkpt lat="42.291165" lon="-0.451414">
        <ele>1494.1</ele>
        <time>2018-07-22T07:29:29.000Z</time>
      </trkpt>
      <trkpt lat="42.291163" lon="-0.451428">
        <ele>1493.8</ele>
        <time>2018-07-22T07:29:30.000Z</time>
      </trkpt>
      <trkpt lat="42.291161" lon="-0.451441">
        <ele>1493.6</ele>
        <time>2018-07-22T07:29:31.000Z</time>
      </trkpt>
      <trkpt lat="42.291162" lon="-0.451454">
        <ele>1493.4</ele>
        <time>2018-07-22T07:29:32.000Z</time>
      </trkpt>
      <trkpt lat="42.291165" lon="-0.451466">
        <ele>1493.2</ele>
        <time>2018-07-22T07:29:33.000Z</time>
      </trkpt>
      <trkpt lat="42.291171" lon="-0.451476">
        <ele>1493.1</ele>
        <time>2018-07-22T07:29:34.000Z</time>
      </trkpt>
      <trkpt lat="42.291178" lon="-0.451486">
        <ele>1492.9</ele>
        <time>2018-07-22T07:29:35.000Z</time>
      </trkpt>
      <trkpt lat="42.291182" lon="-0.451497">
        <ele>1492.7</ele>
        <time>2018-07-22T07:29:36.000Z</time>
      </trkpt>
      <trkpt lat="42.291182" lon="-0.451509">
        <ele>1492.5</ele>
        <time>2018-07-22T07:29:37.000Z</time>
      </trkpt>
      <trkpt lat="42.291182" lon="-0.451521">
        <ele>1492.3</ele>
        <time>2018-07-22T07:29:38.000Z</time>
      </trkpt>
      <trkpt lat="42.291184" lon="-0.451531">
        <ele>1492.2</ele>
        <time>2018-07-22T07:29:39.000Z</time>
      </trkpt>
      <trkpt lat="42.29119" lon="-0.451541">
        <ele>1492.0</ele>
        <time>2018-07-22T07:29:40.000Z</time>
      </trkpt>
      <trkpt lat="42.291197" lon="-0.45155">
        <ele>1491.9</ele>
        <time>2018-07-22T07:29:41.000Z</time>
      </trkpt>
      <trkpt lat="42.291205" lon="-0.451559">
        <ele>1491.7</ele>
        <time>2018-07-22T07:29:42.000Z</time>
      </trkpt>
      <trkpt lat="42.291213" lon="-0.451569">
        <ele>1491.6</ele>
        <time>2018-07-22T07:29:43.000Z</time>
      </trkpt>
      <trkpt lat="42.291219" lon="-0.451581">
        <ele>1491.4</ele>
        <time>2018-07-22T07:29:44.000Z</time>
      </trkpt>
      <trkpt lat="42.291223" lon="-0.451593">
        <ele>1491.2</ele>
        <time>2018-07-22T07:29:45.000Z</time>
      </trkpt>
      <trkpt lat="42.291226" lon="-0.451607">
        <ele>1491.0</ele>
        <time>2018-07-22T07:29:46.000Z</time>
      </trkpt>
      <trkpt lat="42.291227" lon="-0.451622">
        <ele>1490.7</ele>
        <time>2018-07-22T07:29:47.000Z</time>
      </trkpt>
      <trkpt lat="42.291227" lon="-0.451637">
        <ele>1490.5</ele>
        <time>2018-07-22T07:29:48.000Z</time>
      </trkpt>
      <trkpt lat="42.291227" lon="-0.451653">
        <ele>1490.2</ele>
        <time>2018-07-22T07:29:49.000Z</time>
      </trkpt>
      <trkpt lat="42.291228" lon="-0.451667">
        <ele>1490.0</ele>
        <time>2018-07-22T07:29:50.000Z</time>
      </trkpt>
      <trkpt lat="42.291228" lon="-0.451682">
        <ele>1489.7</ele>
        <time>2018-07-22T07:29:51.000Z</time>
      </trkpt>
      <trkpt lat="42.291227" lon="-0.451696">
        <ele>1489.4</ele>
        <time>2018-07-22T07:29:52.000Z</time>
      </trkpt>
      <trkpt lat="42.291225" lon="-0.45171">
        <ele>1489.1</ele>
        <time>2018-07-22T07:29:53.000Z</time>
      </trkpt>
      <trkpt lat="42.291223" lon="-0.451725">
        <ele>1488.8</ele>
        <time>2018-07-22T07:29:54.000Z</time>
      </trkpt>
      <trkpt lat="42.291223" lon="-0.451739">
        <ele>1488.5</ele>
        <time>2018-07-22T07:29:55.000Z</time>
      </trkpt>
      <trkpt lat="42.291226" lon="-0.451753">
        <ele>1488.2</ele>
        <time>2018-07-22T07:29:56.000Z</time>
      </trkpt>
      <trkpt lat="42.29123" lon="-0.451766">
        <ele>1487.9</ele>
        <time>2018-07-22T07:29:57.000Z</time>
      </trkpt>
      <trkpt lat="42.291236" lon="-0.451779">
        <ele>1487.6</ele>
        <time>2018-07-22T07:29:58.000Z</time>
      </trkpt>
      <trkpt lat="42.291241" lon="-0.451792">
        <ele>1487.4</ele>
        <time>2018-07-22T07:29:59.000Z</time>
      </trkpt>
      <trkpt lat="42.291245" lon="-0.451804">
        <ele>1487.1</ele>
        <time>2018-07-22T07:30:00.000Z</time>
      </trkpt>
      <trkpt lat="42.291246" lon="-0.451815">
        <ele>1486.9</ele>
        <time>2018-07-22T07:30:01.000Z</time>
      </trkpt>
      <trkpt lat="42.291245" lon="-0.451826">
        <ele>1486.6</ele>
        <time>2018-07-22T07:30:02.000Z</time>
      </trkpt>
      <trkpt lat="42.291242" lon="-0.451837">
        <ele>1486.4</ele>
        <time>2018-07-22T07:30:03.000Z</time>
      </trkpt>
      <trkpt lat="42.291238" lon="-0.451848">
        <ele>1486.2</ele>
        <time>2018-07-22T07:30:04.000Z</time>
      </trkpt>
      <trkpt lat="42.291234" lon="-0.451859">
        <ele>1485.9</ele>
        <time>2018-07-22T07:30:05.000Z</time>
      </trkpt>
      <trkpt lat="42.291229" lon="-0.451872">
        <ele>1485.6</ele>
        <time>2018-07-22T07:30:06.000Z</time>
      </trkpt>
      <trkpt lat="42.291224" lon="-0.451885">
        <ele>1485.3</ele>
        <time>2018-07-22T07:30:07.000Z</time>
      </trkpt>
      <trkpt lat="42.29122" lon="-0.451899">
        <ele>1485.0</ele>
        <time>2018-07-22T07:30:08.000Z</time>
      </trkpt>
      <trkpt lat="42.291216" lon="-0.451913">
        <ele>1484.7</ele>
        <time>2018-07-22T07:30:09.000Z</time>
      </trkpt>
      <trkpt lat="42.291214" lon="-0.451926">
        <ele>1484.4</ele>
        <time>2018-07-22T07:30:10.000Z</time>
      </trkpt>
      <trkpt lat="42.291214" lon="-0.451938">
        <ele>1484.2</ele>
        <time>2018-07-22T07:30:11.000Z</time>
      </trkpt>
      <trkpt lat="42.291215" lon="-0.451949">
        <ele>1483.9</ele>
        <time>2018-07-22T07:30:12.000Z</time>
      </trkpt>
      <trkpt lat="42.291217" lon="-0.451958">
        <ele>1483.8</ele>
        <time>2018-07-22T07:30:13.000Z</time>
      </trkpt>
      <trkpt lat="42.29122" lon="-0.451966">
        <ele>1483.6</ele>
        <time>2018-07-22T07:30:14.000Z</time>
      </trkpt>
      <trkpt lat="42.291223" lon="-0.451972">
        <ele>1483.5</ele>
        <time>2018-07-22T07:30:15.000Z</time>
      </trkpt>
      <trkpt lat="42.291227" lon="-0.451977">
        <ele>1483.4</ele>
        <time>2018-07-22T07:30:16.000Z</time>
      </trkpt>
      <trkpt lat="42.29123" lon="-0.451981">
        <ele>1483.3</ele>
        <time>2018-07-22T07:30:17.000Z</time>
      </trkpt>
      <trkpt lat="42.291232" lon="-0.451984">
        <ele>1483.3</ele>
        <time>2018-07-22T07:30:18.000Z</time>
      </trkpt>
      <trkpt lat="42.291233" lon="-0.451987">
        <ele>1483.2</ele>
        <time>2018-07-22T07:30:19.000Z</time>
      </trkpt>
      <trkpt lat="42.291234" lon="-0.451989">
        <ele>1483.2</ele>
        <time>2018-07-22T07:30:20.000Z</time>
      </trkpt>
      <trkpt lat="42.291235" lon="-0.451992">
        <ele>1483.1</ele>
        <time>2018-07-22T07:30:21.000Z</time>
      </trkpt>
      <trkpt lat="42.291236" lon="-0.451996">
        <ele>1483.0</ele>
        <time>2018-07-22T07:30:22.000Z</time>
      </trkpt>
      <trkpt lat="42.291238" lon="-0.452001">
        <ele>1482.9</ele>
        <time>2018-07-22T07:30:23.000Z</time>
      </trkpt>
      <trkpt lat="42.29124" lon="-0.452005">
        <ele>1482.9</ele>
        <time>2018-07-22T07:30:24.000Z</time>
      </trkpt>
      <trkpt lat="42.291242" lon="-0.452008">
        <ele>1482.8</ele>
        <time>2018-07-22T07:30:25.000Z</time>
      </trkpt>
      <trkpt lat="42.291245" lon="-0.452014">
        <ele>1482.7</ele>
        <time>2018-07-22T07:30:26.000Z</time>
      </trkpt>
      <trkpt lat="42.291247" lon="-0.452018">
        <ele>1482.6</ele>
        <time>2018-07-22T07:30:27.000Z</time>
      </trkpt>
      <trkpt lat="42.29125" lon="-0.452025">
        <ele>1482.5</ele>
        <time>2018-07-22T07:30:28.000Z</time>
      </trkpt>
      <trkpt lat="42.291253" lon="-0.45203">
        <ele>1482.4</ele>
        <time>2018-07-22T07:30:29.000Z</time>
      </trkpt>
      <trkpt lat="42.291254" lon="-0.452034">
        <ele>1482.3</ele>
        <time>2018-07-22T07:30:30.000Z</time>
      </trkpt>
      <trkpt lat="42.291255" lon="-0.452037">
        <ele>1482.2</ele>
        <time>2018-07-22T07:30:31.000Z</time>
      </trkpt>
      <trkpt lat="42.291257" lon="-0.45204">
        <ele>1482.2</ele>
        <time>2018-07-22T07:30:32.000Z</time>
      </trkpt>
      <trkpt lat="42.291258" lon="-0.452043">
        <ele>1482.1</ele>
        <time>2018-07-22T07:30:33.000Z</time>
      </trkpt>
      <trkpt lat="42.29126" lon="-0.452047">
        <ele>1482.1</ele>
        <time>2018-07-22T07:30:34.000Z</time>
      </trkpt>
      <trkpt lat="42.291261" lon="-0.452052">
        <ele>1482.0</ele>
        <time>2018-07-22T07:30:35.000Z</time>
      </trkpt>
      <trkpt lat="42.291263" lon="-0.452059">
        <ele>1481.8</ele>
        <time>2018-07-22T07:30:36.000Z</time>
      </trkpt>
      <trkpt lat="42.291265" lon="-0.452069">
        <ele>1481.6</ele>
        <time>2018-07-22T07:30:37.000Z</time>
      </trkpt>
      <trkpt lat="42.29127" lon="-0.452087">
        <ele>1481.3</ele>
        <time>2018-07-22T07:30:38.000Z</time>
      </trkpt>
      <trkpt lat="42.291274" lon="-0.452101">
        <ele>1481.0</ele>
        <time>2018-07-22T07:30:39.000Z</time>
      </trkpt>
      <trkpt lat="42.291276" lon="-0.452112">
        <ele>1480.8</ele>
        <time>2018-07-22T07:30:40.000Z</time>
      </trkpt>
      <trkpt lat="42.291277" lon="-0.45212">
        <ele>1480.6</ele>
        <time>2018-07-22T07:30:41.000Z</time>
      </trkpt>
      <trkpt lat="42.291277" lon="-0.452126">
        <ele>1480.5</ele>
        <time>2018-07-22T07:30:42.000Z</time>
      </trkpt>
      <trkpt lat="42.291278" lon="-0.45213">
        <ele>1480.4</ele>
        <time>2018-07-22T07:30:43.000Z</time>
      </trkpt>
      <trkpt lat="42.291279" lon="-0.452135">
        <ele>1480.3</ele>
        <time>2018-07-22T07:30:44.000Z</time>
      </trkpt>
      <trkpt lat="42.291279" lon="-0.452145">
        <ele>1480.1</ele>
        <time>2018-07-22T07:30:45.000Z</time>
      </trkpt>
      <trkpt lat="42.291278" lon="-0.452163">
        <ele>1479.8</ele>
        <time>2018-07-22T07:30:46.000Z</time>
      </trkpt>
      <trkpt lat="42.291278" lon="-0.452173">
        <ele>1479.6</ele>
        <time>2018-07-22T07:30:47.000Z</time>
      </trkpt>
      <trkpt lat="42.291277" lon="-0.452186">
        <ele>1479.3</ele>
        <time>2018-07-22T07:30:48.000Z</time>
      </trkpt>
      <trkpt lat="42.291277" lon="-0.452201">
        <ele>1479.0</ele>
        <time>2018-07-22T07:30:49.000Z</time>
      </trkpt>
      <trkpt lat="42.291276" lon="-0.452216">
        <ele>1478.6</ele>
        <time>2018-07-22T07:30:50.000Z</time>
      </trkpt>
      <trkpt lat="42.291275" lon="-0.452231">
        <ele>1478.3</ele>
        <time>2018-07-22T07:30:51.000Z</time>
      </trkpt>
      <trkpt lat="42.291273" lon="-0.452246">
        <ele>1478.0</ele>
        <time>2018-07-22T07:30:52.000Z</time>
      </trkpt>
      <trkpt lat="42.29127" lon="-0.45226">
        <ele>1477.7</ele>
        <time>2018-07-22T07:30:53.000Z</time>
      </trkpt>
      <trkpt lat="42.291268" lon="-0.452274">
        <ele>1477.4</ele>
        <time>2018-07-22T07:30:54.000Z</time>
      </trkpt>
      <trkpt lat="42.291267" lon="-0.452287">
        <ele>1477.1</ele>
        <time>2018-07-22T07:30:55.000Z</time>
      </trkpt>
      <trkpt lat="42.291267" lon="-0.4523">
        <ele>1476.8</ele>
        <time>2018-07-22T07:30:56.000Z</time>
      </trkpt>
      <trkpt lat="42.291268" lon="-0.452312">
        <ele>1476.6</ele>
        <time>2018-07-22T07:30:57.000Z</time>
      </trkpt>
      <trkpt lat="42.29127" lon="-0.452324">
        <ele>1476.4</ele>
        <time>2018-07-22T07:30:58.000Z</time>
      </trkpt>
      <trkpt lat="42.291271" lon="-0.452336">
        <ele>1476.1</ele>
        <time>2018-07-22T07:30:59.000Z</time>
      </trkpt>
      <trkpt lat="42.291273" lon="-0.452348">
        <ele>1475.9</ele>
        <time>2018-07-22T07:31:00.000Z</time>
      </trkpt>
      <trkpt lat="42.291275" lon="-0.452361">
        <ele>1475.6</ele>
        <time>2018-07-22T07:31:01.000Z</time>
      </trkpt>
      <trkpt lat="42.291276" lon="-0.452373">
        <ele>1475.4</ele>
        <time>2018-07-22T07:31:02.000Z</time>
      </trkpt>
      <trkpt lat="42.291277" lon="-0.452386">
        <ele>1475.1</ele>
        <time>2018-07-22T07:31:03.000Z</time>
      </trkpt>
      <trkpt lat="42.291277" lon="-0.4524">
        <ele>1474.9</ele>
        <time>2018-07-22T07:31:04.000Z</time>
      </trkpt>
      <trkpt lat="42.291276" lon="-0.452414">
        <ele>1474.6</ele>
        <time>2018-07-22T07:31:05.000Z</time>
      </trkpt>
      <trkpt lat="42.291273" lon="-0.452429">
        <ele>1474.2</ele>
        <time>2018-07-22T07:31:06.000Z</time>
      </trkpt>
      <trkpt lat="42.291269" lon="-0.452445">
        <ele>1473.8</ele>
        <time>2018-07-22T07:31:07.000Z</time>
      </trkpt>
      <trkpt lat="42.291265" lon="-0.452462">
        <ele>1473.5</ele>
        <time>2018-07-22T07:31:08.000Z</time>
      </trkpt>
      <trkpt lat="42.291261" lon="-0.452479">
        <ele>1473.1</ele>
        <time>2018-07-22T07:31:09.000Z</time>
      </trkpt>
      <trkpt lat="42.291256" lon="-0.452496">
        <ele>1472.6</ele>
        <time>2018-07-22T07:31:10.000Z</time>
      </trkpt>
      <trkpt lat="42.291252" lon="-0.452513">
        <ele>1472.3</ele>
        <time>2018-07-22T07:31:11.000Z</time>
      </trkpt>
      <trkpt lat="42.291249" lon="-0.45253">
        <ele>1472.0</ele>
        <time>2018-07-22T07:31:12.000Z</time>
      </trkpt>
      <trkpt lat="42.291246" lon="-0.452547">
        <ele>1471.7</ele>
        <time>2018-07-22T07:31:13.000Z</time>
      </trkpt>
      <trkpt lat="42.291245" lon="-0.452564">
        <ele>1471.4</ele>
        <time>2018-07-22T07:31:14.000Z</time>
      </trkpt>
      <trkpt lat="42.291246" lon="-0.452579">
        <ele>1471.2</ele>
        <time>2018-07-22T07:31:15.000Z</time>
      </trkpt>
      <trkpt lat="42.29125" lon="-0.452594">
        <ele>1471.0</ele>
        <time>2018-07-22T07:31:16.000Z</time>
      </trkpt>
      <trkpt lat="42.291255" lon="-0.452609">
        <ele>1470.9</ele>
        <time>2018-07-22T07:31:17.000Z</time>
      </trkpt>
      <trkpt lat="42.291261" lon="-0.452623">
        <ele>1470.7</ele>
        <time>2018-07-22T07:31:18.000Z</time>
      </trkpt>
      <trkpt lat="42.291266" lon="-0.452638">
        <ele>1470.5</ele>
        <time>2018-07-22T07:31:19.000Z</time>
      </trkpt>
      <trkpt lat="42.291268" lon="-0.452656">
        <ele>1470.3</ele>
        <time>2018-07-22T07:31:20.000Z</time>
      </trkpt>
      <trkpt lat="42.29127" lon="-0.452674">
        <ele>1470.0</ele>
        <time>2018-07-22T07:31:21.000Z</time>
      </trkpt>
      <trkpt lat="42.291272" lon="-0.452691">
        <ele>1469.8</ele>
        <time>2018-07-22T07:31:22.000Z</time>
      </trkpt>
      <trkpt lat="42.291275" lon="-0.452707">
        <ele>1469.6</ele>
        <time>2018-07-22T07:31:23.000Z</time>
      </trkpt>
      <trkpt lat="42.291281" lon="-0.452721">
        <ele>1469.4</ele>
        <time>2018-07-22T07:31:24.000Z</time>
      </trkpt>
      <trkpt lat="42.291287" lon="-0.452734">
        <ele>1469.3</ele>
        <time>2018-07-22T07:31:25.000Z</time>
      </trkpt>
      <trkpt lat="42.291295" lon="-0.452746">
        <ele>1469.2</ele>
        <time>2018-07-22T07:31:26.000Z</time>
      </trkpt>
      <trkpt lat="42.291302" lon="-0.452759">
        <ele>1469.1</ele>
        <time>2018-07-22T07:31:27.000Z</time>
      </trkpt>
      <trkpt lat="42.291309" lon="-0.452771">
        <ele>1469.0</ele>
        <time>2018-07-22T07:31:28.000Z</time>
      </trkpt>
      <trkpt lat="42.291316" lon="-0.452785">
        <ele>1468.8</ele>
        <time>2018-07-22T07:31:29.000Z</time>
      </trkpt>
      <trkpt lat="42.291322" lon="-0.452798">
        <ele>1468.7</ele>
        <time>2018-07-22T07:31:30.000Z</time>
      </trkpt>
      <trkpt lat="42.291327" lon="-0.452813">
        <ele>1468.5</ele>
        <time>2018-07-22T07:31:31.000Z</time>
      </trkpt>
      <trkpt lat="42.291331" lon="-0.452827">
        <ele>1468.3</ele>
        <time>2018-07-22T07:31:32.000Z</time>
      </trkpt>
      <trkpt lat="42.291334" lon="-0.452843">
        <ele>1468.1</ele>
        <time>2018-07-22T07:31:33.000Z</time>
      </trkpt>
      <trkpt lat="42.291336" lon="-0.452858">
        <ele>1467.9</ele>
        <time>2018-07-22T07:31:34.000Z</time>
      </trkpt>
      <trkpt lat="42.291338" lon="-0.452873">
        <ele>1467.7</ele>
        <time>2018-07-22T07:31:35.000Z</time>
      </trkpt>
      <trkpt lat="42.29134" lon="-0.452889">
        <ele>1467.5</ele>
        <time>2018-07-22T07:31:36.000Z</time>
      </trkpt>
      <trkpt lat="42.291341" lon="-0.452904">
        <ele>1467.3</ele>
        <time>2018-07-22T07:31:37.000Z</time>
      </trkpt>
      <trkpt lat="42.291343" lon="-0.452919">
        <ele>1467.1</ele>
        <time>2018-07-22T07:31:38.000Z</time>
      </trkpt>
      <trkpt lat="42.291344" lon="-0.452934">
        <ele>1466.9</ele>
        <time>2018-07-22T07:31:39.000Z</time>
      </trkpt>
      <trkpt lat="42.291346" lon="-0.452948">
        <ele>1466.7</ele>
        <time>2018-07-22T07:31:40.000Z</time>
      </trkpt>
      <trkpt lat="42.291348" lon="-0.452963">
        <ele>1466.5</ele>
        <time>2018-07-22T07:31:41.000Z</time>
      </trkpt>
      <trkpt lat="42.291349" lon="-0.452977">
        <ele>1466.3</ele>
        <time>2018-07-22T07:31:42.000Z</time>
      </trkpt>
      <trkpt lat="42.291351" lon="-0.452991">
        <ele>1466.1</ele>
        <time>2018-07-22T07:31:43.000Z</time>
      </trkpt>
      <trkpt lat="42.291352" lon="-0.453006">
        <ele>1465.9</ele>
        <time>2018-07-22T07:31:44.000Z</time>
      </trkpt>
      <trkpt lat="42.291354" lon="-0.453021">
        <ele>1465.7</ele>
        <time>2018-07-22T07:31:45.000Z</time>
      </trkpt>
      <trkpt lat="42.291355" lon="-0.453036">
        <ele>1465.4</ele>
        <time>2018-07-22T07:31:46.000Z</time>
      </trkpt>
      <trkpt lat="42.291355" lon="-0.453051">
        <ele>1465.2</ele>
        <time>2018-07-22T07:31:47.000Z</time>
      </trkpt>
      <trkpt lat="42.291355" lon="-0.453066">
        <ele>1465.0</ele>
        <time>2018-07-22T07:31:48.000Z</time>
      </trkpt>
      <trkpt lat="42.291355" lon="-0.453082">
        <ele>1464.7</ele>
        <time>2018-07-22T07:31:49.000Z</time>
      </trkpt>
      <trkpt lat="42.291355" lon="-0.453099">
        <ele>1464.5</ele>
        <time>2018-07-22T07:31:50.000Z</time>
      </trkpt>
      <trkpt lat="42.291354" lon="-0.453116">
        <ele>1464.2</ele>
        <time>2018-07-22T07:31:51.000Z</time>
      </trkpt>
      <trkpt lat="42.291353" lon="-0.453132">
        <ele>1463.9</ele>
        <time>2018-07-22T07:31:52.000Z</time>
      </trkpt>
      <trkpt lat="42.291352" lon="-0.453149">
        <ele>1463.7</ele>
        <time>2018-07-22T07:31:53.000Z</time>
      </trkpt>
      <trkpt lat="42.291352" lon="-0.453166">
        <ele>1463.4</ele>
        <time>2018-07-22T07:31:54.000Z</time>
      </trkpt>
      <trkpt lat="42.291351" lon="-0.453182">
        <ele>1463.1</ele>
        <time>2018-07-22T07:31:55.000Z</time>
      </trkpt>
      <trkpt lat="42.291351" lon="-0.453199">
        <ele>1462.9</ele>
        <time>2018-07-22T07:31:56.000Z</time>
      </trkpt>
      <trkpt lat="42.291352" lon="-0.453215">
        <ele>1462.7</ele>
        <time>2018-07-22T07:31:57.000Z</time>
      </trkpt>
      <trkpt lat="42.291353" lon="-0.45323">
        <ele>1462.4</ele>
        <time>2018-07-22T07:31:58.000Z</time>
      </trkpt>
      <trkpt lat="42.291355" lon="-0.453245">
        <ele>1462.2</ele>
        <time>2018-07-22T07:31:59.000Z</time>
      </trkpt>
      <trkpt lat="42.291358" lon="-0.453259">
        <ele>1462.1</ele>
        <time>2018-07-22T07:32:00.000Z</time>
      </trkpt>
      <trkpt lat="42.291362" lon="-0.453272">
        <ele>1461.9</ele>
        <time>2018-07-22T07:32:01.000Z</time>
      </trkpt>
      <trkpt lat="42.291366" lon="-0.453285">
        <ele>1461.8</ele>
        <time>2018-07-22T07:32:02.000Z</time>
      </trkpt>
      <trkpt lat="42.29137" lon="-0.453297">
        <ele>1461.6</ele>
        <time>2018-07-22T07:32:03.000Z</time>
      </trkpt>
      <trkpt lat="42.291374" lon="-0.453308">
        <ele>1461.5</ele>
        <time>2018-07-22T07:32:04.000Z</time>
      </trkpt>
      <trkpt lat="42.291377" lon="-0.453318">
        <ele>1461.4</ele>
        <time>2018-07-22T07:32:05.000Z</time>
      </trkpt>
      <trkpt lat="42.29138" lon="-0.453327">
        <ele>1461.3</ele>
        <time>2018-07-22T07:32:06.000Z</time>
      </trkpt>
      <trkpt lat="42.291382" lon="-0.453336">
        <ele>1461.2</ele>
        <time>2018-07-22T07:32:07.000Z</time>
      </trkpt>
      <trkpt lat="42.291384" lon="-0.453344">
        <ele>1461.3</ele>
        <time>2018-07-22T07:32:08.000Z</time>
      </trkpt>
      <trkpt lat="42.291386" lon="-0.453352">
        <ele>1461.3</ele>
        <time>2018-07-22T07:32:09.000Z</time>
      </trkpt>
      <trkpt lat="42.291387" lon="-0.45336">
        <ele>1461.4</ele>
        <time>2018-07-22T07:32:10.000Z</time>
      </trkpt>
      <trkpt lat="42.291389" lon="-0.453369">
        <ele>1461.4</ele>
        <time>2018-07-22T07:32:11.000Z</time>
      </trkpt>
      <trkpt lat="42.291391" lon="-0.453378">
        <ele>1461.4</ele>
        <time>2018-07-22T07:32:12.000Z</time>
      </trkpt>
      <trkpt lat="42.291393" lon="-0.453388">
        <ele>1461.5</ele>
        <time>2018-07-22T07:32:13.000Z</time>
      </trkpt>
      <trkpt lat="42.291395" lon="-0.453398">
        <ele>1461.5</ele>
        <time>2018-07-22T07:32:14.000Z</time>
      </trkpt>
      <trkpt lat="42.291396" lon="-0.453409">
        <ele>1461.6</ele>
        <time>2018-07-22T07:32:15.000Z</time>
      </trkpt>
      <trkpt lat="42.291396" lon="-0.453421">
        <ele>1461.6</ele>
        <time>2018-07-22T07:32:16.000Z</time>
      </trkpt>
      <trkpt lat="42.291395" lon="-0.453433">
        <ele>1461.6</ele>
        <time>2018-07-22T07:32:17.000Z</time>
      </trkpt>
      <trkpt lat="42.291394" lon="-0.453446">
        <ele>1461.6</ele>
        <time>2018-07-22T07:32:18.000Z</time>
      </trkpt>
      <trkpt lat="42.291393" lon="-0.453459">
        <ele>1461.6</ele>
        <time>2018-07-22T07:32:19.000Z</time>
      </trkpt>
      <trkpt lat="42.291392" lon="-0.453473">
        <ele>1461.6</ele>
        <time>2018-07-22T07:32:20.000Z</time>
      </trkpt>
      <trkpt lat="42.291391" lon="-0.453488">
        <ele>1461.6</ele>
        <time>2018-07-22T07:32:21.000Z</time>
      </trkpt>
      <trkpt lat="42.29139" lon="-0.453502">
        <ele>1461.6</ele>
        <time>2018-07-22T07:32:22.000Z</time>
      </trkpt>
      <trkpt lat="42.29139" lon="-0.453517">
        <ele>1461.6</ele>
        <time>2018-07-22T07:32:23.000Z</time>
      </trkpt>
      <trkpt lat="42.29139" lon="-0.453533">
        <ele>1461.7</ele>
        <time>2018-07-22T07:32:24.000Z</time>
      </trkpt>
      <trkpt lat="42.291389" lon="-0.453548">
        <ele>1461.7</ele>
        <time>2018-07-22T07:32:25.000Z</time>
      </trkpt>
      <trkpt lat="42.291389" lon="-0.453564">
        <ele>1461.7</ele>
        <time>2018-07-22T07:32:26.000Z</time>
      </trkpt>
      <trkpt lat="42.291388" lon="-0.453579">
        <ele>1461.7</ele>
        <time>2018-07-22T07:32:27.000Z</time>
      </trkpt>
      <trkpt lat="42.291388" lon="-0.453595">
        <ele>1461.7</ele>
        <time>2018-07-22T07:32:28.000Z</time>
      </trkpt>
      <trkpt lat="42.291386" lon="-0.45361">
        <ele>1461.7</ele>
        <time>2018-07-22T07:32:29.000Z</time>
      </trkpt>
      <trkpt lat="42.291385" lon="-0.453626">
        <ele>1461.7</ele>
        <time>2018-07-22T07:32:30.000Z</time>
      </trkpt>
      <trkpt lat="42.291383" lon="-0.453641">
        <ele>1461.7</ele>
        <time>2018-07-22T07:32:31.000Z</time>
      </trkpt>
      <trkpt lat="42.29138" lon="-0.453656">
        <ele>1461.7</ele>
        <time>2018-07-22T07:32:32.000Z</time>
      </trkpt>
      <trkpt lat="42.291377" lon="-0.453671">
        <ele>1461.7</ele>
        <time>2018-07-22T07:32:33.000Z</time>
      </trkpt>
      <trkpt lat="42.291374" lon="-0.453686">
        <ele>1461.7</ele>
        <time>2018-07-22T07:32:34.000Z</time>
      </trkpt>
      <trkpt lat="42.291371" lon="-0.453701">
        <ele>1461.6</ele>
        <time>2018-07-22T07:32:35.000Z</time>
      </trkpt>
      <trkpt lat="42.291369" lon="-0.453716">
        <ele>1461.6</ele>
        <time>2018-07-22T07:32:36.000Z</time>
      </trkpt>
      <trkpt lat="42.291368" lon="-0.453731">
        <ele>1461.6</ele>
        <time>2018-07-22T07:32:37.000Z</time>
      </trkpt>
      <trkpt lat="42.291367" lon="-0.453747">
        <ele>1461.6</ele>
        <time>2018-07-22T07:32:38.000Z</time>
      </trkpt>
      <trkpt lat="42.291368" lon="-0.453763">
        <ele>1461.7</ele>
        <time>2018-07-22T07:32:39.000Z</time>
      </trkpt>
      <trkpt lat="42.291369" lon="-0.453779">
        <ele>1461.7</ele>
        <time>2018-07-22T07:32:40.000Z</time>
      </trkpt>
      <trkpt lat="42.291371" lon="-0.453796">
        <ele>1461.8</ele>
        <time>2018-07-22T07:32:41.000Z</time>
      </trkpt>
      <trkpt lat="42.291373" lon="-0.453813">
        <ele>1461.8</ele>
        <time>2018-07-22T07:32:42.000Z</time>
      </trkpt>
      <trkpt lat="42.291375" lon="-0.45383">
        <ele>1461.9</ele>
        <time>2018-07-22T07:32:43.000Z</time>
      </trkpt>
      <trkpt lat="42.291377" lon="-0.453847">
        <ele>1462.0</ele>
        <time>2018-07-22T07:32:44.000Z</time>
      </trkpt>
      <trkpt lat="42.291379" lon="-0.453864">
        <ele>1462.0</ele>
        <time>2018-07-22T07:32:45.000Z</time>
      </trkpt>
      <trkpt lat="42.29138" lon="-0.453881">
        <ele>1462.1</ele>
        <time>2018-07-22T07:32:46.000Z</time>
      </trkpt>
      <trkpt lat="42.291381" lon="-0.453898">
        <ele>1462.1</ele>
        <time>2018-07-22T07:32:47.000Z</time>
      </trkpt>
      <trkpt lat="42.291382" lon="-0.453915">
        <ele>1462.1</ele>
        <time>2018-07-22T07:32:48.000Z</time>
      </trkpt>
      <trkpt lat="42.291382" lon="-0.453932">
        <ele>1462.2</ele>
        <time>2018-07-22T07:32:49.000Z</time>
      </trkpt>
      <trkpt lat="42.291382" lon="-0.453948">
        <ele>1462.2</ele>
        <time>2018-07-22T07:32:50.000Z</time>
      </trkpt>
      <trkpt lat="42.291382" lon="-0.453964">
        <ele>1462.2</ele>
        <time>2018-07-22T07:32:51.000Z</time>
      </trkpt>
      <trkpt lat="42.291381" lon="-0.45398">
        <ele>1462.2</ele>
        <time>2018-07-22T07:32:52.000Z</time>
      </trkpt>
      <trkpt lat="42.29138" lon="-0.453996">
        <ele>1462.2</ele>
        <time>2018-07-22T07:32:53.000Z</time>
      </trkpt>
      <trkpt lat="42.291379" lon="-0.454011">
        <ele>1462.2</ele>
        <time>2018-07-22T07:32:54.000Z</time>
      </trkpt>
      <trkpt lat="42.291378" lon="-0.454027">
        <ele>1462.2</ele>
        <time>2018-07-22T07:32:55.000Z</time>
      </trkpt>
      <trkpt lat="42.291377" lon="-0.454043">
        <ele>1462.3</ele>
        <time>2018-07-22T07:32:56.000Z</time>
      </trkpt>
      <trkpt lat="42.291376" lon="-0.454059">
        <ele>1462.3</ele>
        <time>2018-07-22T07:32:57.000Z</time>
      </trkpt>
      <trkpt lat="42.291375" lon="-0.454074">
        <ele>1462.3</ele>
        <time>2018-07-22T07:32:58.000Z</time>
      </trkpt>
      <trkpt lat="42.291374" lon="-0.454089">
        <ele>1462.3</ele>
        <time>2018-07-22T07:32:59.000Z</time>
      </trkpt>
      <trkpt lat="42.291374" lon="-0.454104">
        <ele>1462.3</ele>
        <time>2018-07-22T07:33:00.000Z</time>
      </trkpt>
      <trkpt lat="42.291373" lon="-0.454119">
        <ele>1462.3</ele>
        <time>2018-07-22T07:33:01.000Z</time>
      </trkpt>
      <trkpt lat="42.291372" lon="-0.454134">
        <ele>1462.3</ele>
        <time>2018-07-22T07:33:02.000Z</time>
      </trkpt>
      <trkpt lat="42.29137" lon="-0.454148">
        <ele>1462.3</ele>
        <time>2018-07-22T07:33:03.000Z</time>
      </trkpt>
      <trkpt lat="42.291368" lon="-0.454161">
        <ele>1462.3</ele>
        <time>2018-07-22T07:33:04.000Z</time>
      </trkpt>
      <trkpt lat="42.291365" lon="-0.454175">
        <ele>1462.2</ele>
        <time>2018-07-22T07:33:05.000Z</time>
      </trkpt>
      <trkpt lat="42.29136" lon="-0.454187">
        <ele>1462.2</ele>
        <time>2018-07-22T07:33:06.000Z</time>
      </trkpt>
      <trkpt lat="42.291355" lon="-0.4542">
        <ele>1462.1</ele>
        <time>2018-07-22T07:33:07.000Z</time>
      </trkpt>
      <trkpt lat="42.29135" lon="-0.454213">
        <ele>1462.1</ele>
        <time>2018-07-22T07:33:08.000Z</time>
      </trkpt>
      <trkpt lat="42.291344" lon="-0.454225">
        <ele>1462.0</ele>
        <time>2018-07-22T07:33:09.000Z</time>
      </trkpt>
      <trkpt lat="42.291339" lon="-0.454238">
        <ele>1461.9</ele>
        <time>2018-07-22T07:33:10.000Z</time>
      </trkpt>
      <trkpt lat="42.291334" lon="-0.45425">
        <ele>1461.9</ele>
        <time>2018-07-22T07:33:11.000Z</time>
      </trkpt>
      <trkpt lat="42.29133" lon="-0.454263">
        <ele>1461.8</ele>
        <time>2018-07-22T07:33:12.000Z</time>
      </trkpt>
      <trkpt lat="42.291326" lon="-0.454276">
        <ele>1461.8</ele>
        <time>2018-07-22T07:33:13.000Z</time>
      </trkpt>
      <trkpt lat="42.291324" lon="-0.45429">
        <ele>1461.8</ele>
        <time>2018-07-22T07:33:14.000Z</time>
      </trkpt>
      <trkpt lat="42.291323" lon="-0.454303">
        <ele>1461.8</ele>
        <time>2018-07-22T07:33:15.000Z</time>
      </trkpt>
      <trkpt lat="42.291323" lon="-0.454318">
        <ele>1461.8</ele>
        <time>2018-07-22T07:33:16.000Z</time>
      </trkpt>
      <trkpt lat="42.291325" lon="-0.454333">
        <ele>1461.9</ele>
        <time>2018-07-22T07:33:17.000Z</time>
      </trkpt>
      <trkpt lat="42.291328" lon="-0.454348">
        <ele>1462.0</ele>
        <time>2018-07-22T07:33:18.000Z</time>
      </trkpt>
      <trkpt lat="42.29133" lon="-0.454363">
        <ele>1462.1</ele>
        <time>2018-07-22T07:33:19.000Z</time>
      </trkpt>
      <trkpt lat="42.291333" lon="-0.454378">
        <ele>1462.2</ele>
        <time>2018-07-22T07:33:20.000Z</time>
      </trkpt>
      <trkpt lat="42.291335" lon="-0.454393">
        <ele>1462.3</ele>
        <time>2018-07-22T07:33:21.000Z</time>
      </trkpt>
      <trkpt lat="42.291337" lon="-0.454407">
        <ele>1462.4</ele>
        <time>2018-07-22T07:33:22.000Z</time>
      </trkpt>
      <trkpt lat="42.291338" lon="-0.454421">
        <ele>1462.4</ele>
        <time>2018-07-22T07:33:23.000Z</time>
      </trkpt>
      <trkpt lat="42.291339" lon="-0.454435">
        <ele>1462.5</ele>
        <time>2018-07-22T07:33:24.000Z</time>
      </trkpt>
      <trkpt lat="42.291341" lon="-0.454448">
        <ele>1462.6</ele>
        <time>2018-07-22T07:33:25.000Z</time>
      </trkpt>
      <trkpt lat="42.291344" lon="-0.454461">
        <ele>1462.7</ele>
        <time>2018-07-22T07:33:26.000Z</time>
      </trkpt>
      <trkpt lat="42.291348" lon="-0.454473">
        <ele>1462.8</ele>
        <time>2018-07-22T07:33:27.000Z</time>
      </trkpt>
      <trkpt lat="42.291353" lon="-0.454486">
        <ele>1462.9</ele>
        <time>2018-07-22T07:33:28.000Z</time>
      </trkpt>
      <trkpt lat="42.291357" lon="-0.454497">
        <ele>1463.1</ele>
        <time>2018-07-22T07:33:29.000Z</time>
      </trkpt>
      <trkpt lat="42.291358" lon="-0.454509">
        <ele>1463.1</ele>
        <time>2018-07-22T07:33:30.000Z</time>
      </trkpt>
      <trkpt lat="42.291358" lon="-0.454522">
        <ele>1463.1</ele>
        <time>2018-07-22T07:33:31.000Z</time>
      </trkpt>
      <trkpt lat="42.291355" lon="-0.454537">
        <ele>1463.1</ele>
        <time>2018-07-22T07:33:32.000Z</time>
      </trkpt>
      <trkpt lat="42.291352" lon="-0.454554">
        <ele>1463.1</ele>
        <time>2018-07-22T07:33:33.000Z</time>
      </trkpt>
      <trkpt lat="42.291349" lon="-0.454572">
        <ele>1463.1</ele>
        <time>2018-07-22T07:33:34.000Z</time>
      </trkpt>
      <trkpt lat="42.291347" lon="-0.45459">
        <ele>1463.1</ele>
        <time>2018-07-22T07:33:35.000Z</time>
      </trkpt>
      <trkpt lat="42.291349" lon="-0.454606">
        <ele>1463.2</ele>
        <time>2018-07-22T07:33:36.000Z</time>
      </trkpt>
      <trkpt lat="42.291352" lon="-0.454621">
        <ele>1463.3</ele>
        <time>2018-07-22T07:33:37.000Z</time>
      </trkpt>
      <trkpt lat="42.291355" lon="-0.454636">
        <ele>1463.4</ele>
        <time>2018-07-22T07:33:38.000Z</time>
      </trkpt>
      <trkpt lat="42.291357" lon="-0.45465">
        <ele>1463.5</ele>
        <time>2018-07-22T07:33:39.000Z</time>
      </trkpt>
      <trkpt lat="42.291359" lon="-0.454664">
        <ele>1463.6</ele>
        <time>2018-07-22T07:33:40.000Z</time>
      </trkpt>
      <trkpt lat="42.29136" lon="-0.454679">
        <ele>1463.7</ele>
        <time>2018-07-22T07:33:41.000Z</time>
      </trkpt>
      <trkpt lat="42.29136" lon="-0.454694">
        <ele>1463.7</ele>
        <time>2018-07-22T07:33:42.000Z</time>
      </trkpt>
      <trkpt lat="42.291361" lon="-0.454711">
        <ele>1463.8</ele>
        <time>2018-07-22T07:33:43.000Z</time>
      </trkpt>
      <trkpt lat="42.291361" lon="-0.454728">
        <ele>1463.8</ele>
        <time>2018-07-22T07:33:44.000Z</time>
      </trkpt>
      <trkpt lat="42.29136" lon="-0.454746">
        <ele>1463.9</ele>
        <time>2018-07-22T07:33:45.000Z</time>
      </trkpt>
      <trkpt lat="42.29136" lon="-0.454764">
        <ele>1463.9</ele>
        <time>2018-07-22T07:33:46.000Z</time>
      </trkpt>
      <trkpt lat="42.291359" lon="-0.454782">
        <ele>1464.0</ele>
        <time>2018-07-22T07:33:47.000Z</time>
      </trkpt>
      <trkpt lat="42.291358" lon="-0.454799">
        <ele>1464.0</ele>
        <time>2018-07-22T07:33:48.000Z</time>
      </trkpt>
      <trkpt lat="42.291358" lon="-0.454817">
        <ele>1464.0</ele>
        <time>2018-07-22T07:33:49.000Z</time>
      </trkpt>
      <trkpt lat="42.291357" lon="-0.454834">
        <ele>1464.1</ele>
        <time>2018-07-22T07:33:50.000Z</time>
      </trkpt>
      <trkpt lat="42.291356" lon="-0.454851">
        <ele>1464.1</ele>
        <time>2018-07-22T07:33:51.000Z</time>
      </trkpt>
      <trkpt lat="42.291356" lon="-0.454867">
        <ele>1464.1</ele>
        <time>2018-07-22T07:33:52.000Z</time>
      </trkpt>
      <trkpt lat="42.291355" lon="-0.454884">
        <ele>1464.2</ele>
        <time>2018-07-22T07:33:53.000Z</time>
      </trkpt>
      <trkpt lat="42.291355" lon="-0.4549">
        <ele>1464.2</ele>
        <time>2018-07-22T07:33:54.000Z</time>
      </trkpt>
      <trkpt lat="42.291355" lon="-0.454916">
        <ele>1464.3</ele>
        <time>2018-07-22T07:33:55.000Z</time>
      </trkpt>
      <trkpt lat="42.291354" lon="-0.454933">
        <ele>1464.3</ele>
        <time>2018-07-22T07:33:56.000Z</time>
      </trkpt>
      <trkpt lat="42.291354" lon="-0.454949">
        <ele>1464.3</ele>
        <time>2018-07-22T07:33:57.000Z</time>
      </trkpt>
      <trkpt lat="42.291354" lon="-0.454964">
        <ele>1464.4</ele>
        <time>2018-07-22T07:33:58.000Z</time>
      </trkpt>
      <trkpt lat="42.291355" lon="-0.45498">
        <ele>1464.5</ele>
        <time>2018-07-22T07:33:59.000Z</time>
      </trkpt>
      <trkpt lat="42.291355" lon="-0.454996">
        <ele>1464.5</ele>
        <time>2018-07-22T07:34:00.000Z</time>
      </trkpt>
      <trkpt lat="42.291355" lon="-0.455012">
        <ele>1464.6</ele>
        <time>2018-07-22T07:34:01.000Z</time>
      </trkpt>
      <trkpt lat="42.291356" lon="-0.455028">
        <ele>1464.7</ele>
        <time>2018-07-22T07:34:02.000Z</time>
      </trkpt>
      <trkpt lat="42.291357" lon="-0.455044">
        <ele>1464.8</ele>
        <time>2018-07-22T07:34:03.000Z</time>
      </trkpt>
      <trkpt lat="42.291358" lon="-0.45506">
        <ele>1464.9</ele>
        <time>2018-07-22T07:34:04.000Z</time>
      </trkpt>
      <trkpt lat="42.291358" lon="-0.455076">
        <ele>1465.0</ele>
        <time>2018-07-22T07:34:05.000Z</time>
      </trkpt>
      <trkpt lat="42.291359" lon="-0.455092">
        <ele>1465.1</ele>
        <time>2018-07-22T07:34:06.000Z</time>
      </trkpt>
      <trkpt lat="42.29136" lon="-0.455108">
        <ele>1465.3</ele>
        <time>2018-07-22T07:34:07.000Z</time>
      </trkpt>
      <trkpt lat="42.291361" lon="-0.455124">
        <ele>1465.4</ele>
        <time>2018-07-22T07:34:08.000Z</time>
      </trkpt>
      <trkpt lat="42.291362" lon="-0.45514">
        <ele>1465.5</ele>
        <time>2018-07-22T07:34:09.000Z</time>
      </trkpt>
      <trkpt lat="42.291363" lon="-0.455157">
        <ele>1465.6</ele>
        <time>2018-07-22T07:34:10.000Z</time>
      </trkpt>
      <trkpt lat="42.291364" lon="-0.455173">
        <ele>1465.7</ele>
        <time>2018-07-22T07:34:11.000Z</time>
      </trkpt>
      <trkpt lat="42.291365" lon="-0.45519">
        <ele>1465.8</ele>
        <time>2018-07-22T07:34:12.000Z</time>
      </trkpt>
      <trkpt lat="42.291366" lon="-0.455206">
        <ele>1466.0</ele>
        <time>2018-07-22T07:34:13.000Z</time>
      </trkpt>
      <trkpt lat="42.291367" lon="-0.455223">
        <ele>1466.1</ele>
        <time>2018-07-22T07:34:14.000Z</time>
      </trkpt>
      <trkpt lat="42.291368" lon="-0.45524">
        <ele>1466.2</ele>
        <time>2018-07-22T07:34:15.000Z</time>
      </trkpt>
      <trkpt lat="42.29137" lon="-0.455257">
        <ele>1466.3</ele>
        <time>2018-07-22T07:34:16.000Z</time>
      </trkpt>
      <trkpt lat="42.291371" lon="-0.455274">
        <ele>1466.5</ele>
        <time>2018-07-22T07:34:17.000Z</time>
      </trkpt>
      <trkpt lat="42.291373" lon="-0.455291">
        <ele>1466.6</ele>
        <time>2018-07-22T07:34:18.000Z</time>
      </trkpt>
      <trkpt lat="42.291375" lon="-0.455307">
        <ele>1466.7</ele>
        <time>2018-07-22T07:34:19.000Z</time>
      </trkpt>
      <trkpt lat="42.291377" lon="-0.455324">
        <ele>1466.9</ele>
        <time>2018-07-22T07:34:20.000Z</time>
      </trkpt>
      <trkpt lat="42.29138" lon="-0.455341">
        <ele>1467.0</ele>
        <time>2018-07-22T07:34:21.000Z</time>
      </trkpt>
      <trkpt lat="42.291383" lon="-0.455358">
        <ele>1467.2</ele>
        <time>2018-07-22T07:34:22.000Z</time>
      </trkpt>
      <trkpt lat="42.291386" lon="-0.455375">
        <ele>1467.4</ele>
        <time>2018-07-22T07:34:23.000Z</time>
      </trkpt>
      <trkpt lat="42.291389" lon="-0.455392">
        <ele>1467.5</ele>
        <time>2018-07-22T07:34:24.000Z</time>
      </trkpt>
      <trkpt lat="42.291392" lon="-0.455409">
        <ele>1467.7</ele>
        <time>2018-07-22T07:34:25.000Z</time>
      </trkpt>
      <trkpt lat="42.291396" lon="-0.455425">
        <ele>1467.9</ele>
        <time>2018-07-22T07:34:26.000Z</time>
      </trkpt>
      <trkpt lat="42.2914" lon="-0.455442">
        <ele>1468.1</ele>
        <time>2018-07-22T07:34:27.000Z</time>
      </trkpt>
      <trkpt lat="42.291404" lon="-0.455458">
        <ele>1468.2</ele>
        <time>2018-07-22T07:34:28.000Z</time>
      </trkpt>
      <trkpt lat="42.291408" lon="-0.455474">
        <ele>1468.4</ele>
        <time>2018-07-22T07:34:29.000Z</time>
      </trkpt>
      <trkpt lat="42.291412" lon="-0.455491">
        <ele>1468.6</ele>
        <time>2018-07-22T07:34:30.000Z</time>
      </trkpt>
      <trkpt lat="42.291417" lon="-0.455507">
        <ele>1468.8</ele>
        <time>2018-07-22T07:34:31.000Z</time>
      </trkpt>
      <trkpt lat="42.291422" lon="-0.455523">
        <ele>1469.0</ele>
        <time>2018-07-22T07:34:32.000Z</time>
      </trkpt>
      <trkpt lat="42.291426" lon="-0.455539">
        <ele>1469.2</ele>
        <time>2018-07-22T07:34:33.000Z</time>
      </trkpt>
      <trkpt lat="42.291431" lon="-0.455555">
        <ele>1469.4</ele>
        <time>2018-07-22T07:34:34.000Z</time>
      </trkpt>
      <trkpt lat="42.291435" lon="-0.455571">
        <ele>1469.6</ele>
        <time>2018-07-22T07:34:35.000Z</time>
      </trkpt>
      <trkpt lat="42.29144" lon="-0.455589">
        <ele>1469.8</ele>
        <time>2018-07-22T07:34:36.000Z</time>
      </trkpt>
      <trkpt lat="42.291444" lon="-0.455607">
        <ele>1470.0</ele>
        <time>2018-07-22T07:34:37.000Z</time>
      </trkpt>
      <trkpt lat="42.291448" lon="-0.455626">
        <ele>1470.2</ele>
        <time>2018-07-22T07:34:38.000Z</time>
      </trkpt>
      <trkpt lat="42.291452" lon="-0.455646">
        <ele>1470.3</ele>
        <time>2018-07-22T07:34:39.000Z</time>
      </trkpt>
      <trkpt lat="42.291455" lon="-0.455665">
        <ele>1470.5</ele>
        <time>2018-07-22T07:34:40.000Z</time>
      </trkpt>
      <trkpt lat="42.291458" lon="-0.455684">
        <ele>1470.7</ele>
        <time>2018-07-22T07:34:41.000Z</time>
      </trkpt>
      <trkpt lat="42.29146" lon="-0.455702">
        <ele>1470.8</ele>
        <time>2018-07-22T07:34:42.000Z</time>
      </trkpt>
      <trkpt lat="42.291461" lon="-0.455719">
        <ele>1470.9</ele>
        <time>2018-07-22T07:34:43.000Z</time>
      </trkpt>
      <trkpt lat="42.291461" lon="-0.455734">
        <ele>1471.0</ele>
        <time>2018-07-22T07:34:44.000Z</time>
      </trkpt>
      <trkpt lat="42.291461" lon="-0.455748">
        <ele>1471.1</ele>
        <time>2018-07-22T07:34:45.000Z</time>
      </trkpt>
      <trkpt lat="42.291461" lon="-0.455762">
        <ele>1471.2</ele>
        <time>2018-07-22T07:34:46.000Z</time>
      </trkpt>
      <trkpt lat="42.29146" lon="-0.455775">
        <ele>1471.2</ele>
        <time>2018-07-22T07:34:47.000Z</time>
      </trkpt>
      <trkpt lat="42.291459" lon="-0.455788">
        <ele>1471.3</ele>
        <time>2018-07-22T07:34:48.000Z</time>
      </trkpt>
      <trkpt lat="42.291458" lon="-0.455801">
        <ele>1471.3</ele>
        <time>2018-07-22T07:34:49.000Z</time>
      </trkpt>
      <trkpt lat="42.291456" lon="-0.455814">
        <ele>1471.3</ele>
        <time>2018-07-22T07:34:50.000Z</time>
      </trkpt>
      <trkpt lat="42.291455" lon="-0.455828">
        <ele>1471.4</ele>
        <time>2018-07-22T07:34:51.000Z</time>
      </trkpt>
      <trkpt lat="42.291454" lon="-0.455841">
        <ele>1471.5</ele>
        <time>2018-07-22T07:34:52.000Z</time>
      </trkpt>
      <trkpt lat="42.291453" lon="-0.455855">
        <ele>1471.5</ele>
        <time>2018-07-22T07:34:53.000Z</time>
      </trkpt>
      <trkpt lat="42.291451" lon="-0.45587">
        <ele>1471.6</ele>
        <time>2018-07-22T07:34:54.000Z</time>
      </trkpt>
      <trkpt lat="42.29145" lon="-0.455884">
        <ele>1471.6</ele>
        <time>2018-07-22T07:34:55.000Z</time>
      </trkpt>
      <trkpt lat="42.291448" lon="-0.455898">
        <ele>1471.7</ele>
        <time>2018-07-22T07:34:56.000Z</time>
      </trkpt>
      <trkpt lat="42.291447" lon="-0.455913">
        <ele>1471.8</ele>
        <time>2018-07-22T07:34:57.000Z</time>
      </trkpt>
      <trkpt lat="42.291445" lon="-0.455927">
        <ele>1471.8</ele>
        <time>2018-07-22T07:34:58.000Z</time>
      </trkpt>
      <trkpt lat="42.291443" lon="-0.455941">
        <ele>1471.8</ele>
        <time>2018-07-22T07:34:59.000Z</time>
      </trkpt>
      <trkpt lat="42.291441" lon="-0.455955">
        <ele>1471.9</ele>
        <time>2018-07-22T07:35:00.000Z</time>
      </trkpt>
      <trkpt lat="42.291439" lon="-0.455969">
        <ele>1471.9</ele>
        <time>2018-07-22T07:35:01.000Z</time>
      </trkpt>
      <trkpt lat="42.291437" lon="-0.455982">
        <ele>1472.0</ele>
        <time>2018-07-22T07:35:02.000Z</time>
      </trkpt>
      <trkpt lat="42.291435" lon="-0.455995">
        <ele>1472.0</ele>
        <time>2018-07-22T07:35:03.000Z</time>
      </trkpt>
      <trkpt lat="42.291432" lon="-0.456008">
        <ele>1472.0</ele>
        <time>2018-07-22T07:35:04.000Z</time>
      </trkpt>
      <trkpt lat="42.291429" lon="-0.45602">
        <ele>1472.1</ele>
        <time>2018-07-22T07:35:05.000Z</time>
      </trkpt>
      <trkpt lat="42.291426" lon="-0.456032">
        <ele>1472.1</ele>
        <time>2018-07-22T07:35:06.000Z</time>
      </trkpt>
      <trkpt lat="42.291423" lon="-0.456044">
        <ele>1472.1</ele>
        <time>2018-07-22T07:35:07.000Z</time>
      </trkpt>
      <trkpt lat="42.29142" lon="-0.456055">
        <ele>1472.1</ele>
        <time>2018-07-22T07:35:08.000Z</time>
      </trkpt>
      <trkpt lat="42.291417" lon="-0.456066">
        <ele>1472.1</ele>
        <time>2018-07-22T07:35:09.000Z</time>
      </trkpt>
      <trkpt lat="42.291414" lon="-0.456077">
        <ele>1472.1</ele>
        <time>2018-07-22T07:35:10.000Z</time>
      </trkpt>
      <trkpt lat="42.291411" lon="-0.456088">
        <ele>1472.1</ele>
        <time>2018-07-22T07:35:11.000Z</time>
      </trkpt>
      <trkpt lat="42.291407" lon="-0.456099">
        <ele>1472.1</ele>
        <time>2018-07-22T07:35:12.000Z</time>
      </trkpt>
      <trkpt lat="42.291404" lon="-0.45611">
        <ele>1472.1</ele>
        <time>2018-07-22T07:35:13.000Z</time>
      </trkpt>
      <trkpt lat="42.291401" lon="-0.456122">
        <ele>1472.1</ele>
        <time>2018-07-22T07:35:14.000Z</time>
      </trkpt>
      <trkpt lat="42.291398" lon="-0.456134">
        <ele>1472.1</ele>
        <time>2018-07-22T07:35:15.000Z</time>
      </trkpt>
      <trkpt lat="42.291395" lon="-0.456146">
        <ele>1472.1</ele>
        <time>2018-07-22T07:35:16.000Z</time>
      </trkpt>
      <trkpt lat="42.291392" lon="-0.456159">
        <ele>1472.2</ele>
        <time>2018-07-22T07:35:17.000Z</time>
      </trkpt>
      <trkpt lat="42.29139" lon="-0.456172">
        <ele>1472.2</ele>
        <time>2018-07-22T07:35:18.000Z</time>
      </trkpt>
      <trkpt lat="42.291388" lon="-0.456185">
        <ele>1472.2</ele>
        <time>2018-07-22T07:35:19.000Z</time>
      </trkpt>
      <trkpt lat="42.291388" lon="-0.456198">
        <ele>1472.3</ele>
        <time>2018-07-22T07:35:20.000Z</time>
      </trkpt>
      <trkpt lat="42.291387" lon="-0.456211">
        <ele>1472.4</ele>
        <time>2018-07-22T07:35:21.000Z</time>
      </trkpt>
      <trkpt lat="42.291388" lon="-0.456224">
        <ele>1472.5</ele>
        <time>2018-07-22T07:35:22.000Z</time>
      </trkpt>
      <trkpt lat="42.291389" lon="-0.456238">
        <ele>1472.6</ele>
        <time>2018-07-22T07:35:23.000Z</time>
      </trkpt>
      <trkpt lat="42.291389" lon="-0.456251">
        <ele>1472.7</ele>
        <time>2018-07-22T07:35:24.000Z</time>
      </trkpt>
      <trkpt lat="42.291389" lon="-0.456264">
        <ele>1472.8</ele>
        <time>2018-07-22T07:35:25.000Z</time>
      </trkpt>
      <trkpt lat="42.291389" lon="-0.456277">
        <ele>1472.8</ele>
        <time>2018-07-22T07:35:26.000Z</time>
      </trkpt>
      <trkpt lat="42.291388" lon="-0.45629">
        <ele>1472.9</ele>
        <time>2018-07-22T07:35:27.000Z</time>
      </trkpt>
      <trkpt lat="42.291387" lon="-0.456303">
        <ele>1473.0</ele>
        <time>2018-07-22T07:35:28.000Z</time>
      </trkpt>
      <trkpt lat="42.291385" lon="-0.456315">
        <ele>1473.0</ele>
        <time>2018-07-22T07:35:29.000Z</time>
      </trkpt>
      <trkpt lat="42.291384" lon="-0.456326">
        <ele>1473.1</ele>
        <time>2018-07-22T07:35:30.000Z</time>
      </trkpt>
      <trkpt lat="42.291382" lon="-0.456337">
        <ele>1473.1</ele>
        <time>2018-07-22T07:35:31.000Z</time>
      </trkpt>
      <trkpt lat="42.29138" lon="-0.456348">
        <ele>1473.1</ele>
        <time>2018-07-22T07:35:32.000Z</time>
      </trkpt>
      <trkpt lat="42.291378" lon="-0.456357">
        <ele>1473.1</ele>
        <time>2018-07-22T07:35:33.000Z</time>
      </trkpt>
      <trkpt lat="42.291375" lon="-0.456367">
        <ele>1473.1</ele>
        <time>2018-07-22T07:35:34.000Z</time>
      </trkpt>
      <trkpt lat="42.291373" lon="-0.456376">
        <ele>1473.1</ele>
        <time>2018-07-22T07:35:35.000Z</time>
      </trkpt>
      <trkpt lat="42.291371" lon="-0.456386">
        <ele>1473.2</ele>
        <time>2018-07-22T07:35:36.000Z</time>
      </trkpt>
      <trkpt lat="42.291369" lon="-0.456396">
        <ele>1473.2</ele>
        <time>2018-07-22T07:35:37.000Z</time>
      </trkpt>
      <trkpt lat="42.291366" lon="-0.456406">
        <ele>1473.2</ele>
        <time>2018-07-22T07:35:38.000Z</time>
      </trkpt>
      <trkpt lat="42.291364" lon="-0.456416">
        <ele>1473.2</ele>
        <time>2018-07-22T07:35:39.000Z</time>
      </trkpt>
      <trkpt lat="42.291362" lon="-0.456427">
        <ele>1473.2</ele>
        <time>2018-07-22T07:35:40.000Z</time>
      </trkpt>
      <trkpt lat="42.291359" lon="-0.456438">
        <ele>1473.3</ele>
        <time>2018-07-22T07:35:41.000Z</time>
      </trkpt>
      <trkpt lat="42.291356" lon="-0.456449">
        <ele>1473.3</ele>
        <time>2018-07-22T07:35:42.000Z</time>
      </trkpt>
      <trkpt lat="42.291354" lon="-0.45646">
        <ele>1473.3</ele>
        <time>2018-07-22T07:35:43.000Z</time>
      </trkpt>
      <trkpt lat="42.291351" lon="-0.456472">
        <ele>1473.3</ele>
        <time>2018-07-22T07:35:44.000Z</time>
      </trkpt>
      <trkpt lat="42.291348" lon="-0.456483">
        <ele>1473.3</ele>
        <time>2018-07-22T07:35:45.000Z</time>
      </trkpt>
      <trkpt lat="42.291345" lon="-0.456494">
        <ele>1473.3</ele>
        <time>2018-07-22T07:35:46.000Z</time>
      </trkpt>
      <trkpt lat="42.291342" lon="-0.456506">
        <ele>1473.3</ele>
        <time>2018-07-22T07:35:47.000Z</time>
      </trkpt>
      <trkpt lat="42.291339" lon="-0.456517">
        <ele>1473.3</ele>
        <time>2018-07-22T07:35:48.000Z</time>
      </trkpt>
      <trkpt lat="42.291336" lon="-0.456528">
        <ele>1473.4</ele>
        <time>2018-07-22T07:35:49.000Z</time>
      </trkpt>
      <trkpt lat="42.291333" lon="-0.456539">
        <ele>1473.4</ele>
        <time>2018-07-22T07:35:50.000Z</time>
      </trkpt>
      <trkpt lat="42.291331" lon="-0.45655">
        <ele>1473.4</ele>
        <time>2018-07-22T07:35:51.000Z</time>
      </trkpt>
      <trkpt lat="42.291328" lon="-0.456561">
        <ele>1473.4</ele>
        <time>2018-07-22T07:35:52.000Z</time>
      </trkpt>
      <trkpt lat="42.291326" lon="-0.456572">
        <ele>1473.4</ele>
        <time>2018-07-22T07:35:53.000Z</time>
      </trkpt>
      <trkpt lat="42.291324" lon="-0.456583">
        <ele>1473.5</ele>
        <time>2018-07-22T07:35:54.000Z</time>
      </trkpt>
      <trkpt lat="42.291323" lon="-0.456595">
        <ele>1473.5</ele>
        <time>2018-07-22T07:35:55.000Z</time>
      </trkpt>
      <trkpt lat="42.291322" lon="-0.456606">
        <ele>1473.6</ele>
        <time>2018-07-22T07:35:56.000Z</time>
      </trkpt>
      <trkpt lat="42.291322" lon="-0.456617">
        <ele>1473.6</ele>
        <time>2018-07-22T07:35:57.000Z</time>
      </trkpt>
      <trkpt lat="42.291323" lon="-0.456628">
        <ele>1473.7</ele>
        <time>2018-07-22T07:35:58.000Z</time>
      </trkpt>
      <trkpt lat="42.291324" lon="-0.45664">
        <ele>1473.8</ele>
        <time>2018-07-22T07:35:59.000Z</time>
      </trkpt>
      <trkpt lat="42.291326" lon="-0.456652">
        <ele>1474.0</ele>
        <time>2018-07-22T07:36:00.000Z</time>
      </trkpt>
      <trkpt lat="42.291329" lon="-0.456663">
        <ele>1474.1</ele>
        <time>2018-07-22T07:36:01.000Z</time>
      </trkpt>
      <trkpt lat="42.291331" lon="-0.456675">
        <ele>1474.3</ele>
        <time>2018-07-22T07:36:02.000Z</time>
      </trkpt>
      <trkpt lat="42.291333" lon="-0.456687">
        <ele>1474.5</ele>
        <time>2018-07-22T07:36:03.000Z</time>
      </trkpt>
      <trkpt lat="42.291335" lon="-0.4567">
        <ele>1474.7</ele>
        <time>2018-07-22T07:36:04.000Z</time>
      </trkpt>
      <trkpt lat="42.291336" lon="-0.456712">
        <ele>1474.9</ele>
        <time>2018-07-22T07:36:05.000Z</time>
      </trkpt>
      <trkpt lat="42.291337" lon="-0.456724">
        <ele>1475.0</ele>
        <time>2018-07-22T07:36:06.000Z</time>
      </trkpt>
      <trkpt lat="42.291337" lon="-0.456736">
        <ele>1475.2</ele>
        <time>2018-07-22T07:36:07.000Z</time>
      </trkpt>
      <trkpt lat="42.291336" lon="-0.456747">
        <ele>1475.3</ele>
        <time>2018-07-22T07:36:08.000Z</time>
      </trkpt>
      <trkpt lat="42.291334" lon="-0.456756">
        <ele>1475.4</ele>
        <time>2018-07-22T07:36:09.000Z</time>
      </trkpt>
      <trkpt lat="42.291331" lon="-0.456764">
        <ele>1475.4</ele>
        <time>2018-07-22T07:36:10.000Z</time>
      </trkpt>
      <trkpt lat="42.291328" lon="-0.456771">
        <ele>1475.5</ele>
        <time>2018-07-22T07:36:11.000Z</time>
      </trkpt>
      <trkpt lat="42.291324" lon="-0.456776">
        <ele>1475.5</ele>
        <time>2018-07-22T07:36:12.000Z</time>
      </trkpt>
      <trkpt lat="42.29132" lon="-0.456781">
        <ele>1475.4</ele>
        <time>2018-07-22T07:36:13.000Z</time>
      </trkpt>
      <trkpt lat="42.291314" lon="-0.456785">
        <ele>1475.4</ele>
        <time>2018-07-22T07:36:14.000Z</time>
      </trkpt>
      <trkpt lat="42.291309" lon="-0.456789">
        <ele>1475.3</ele>
        <time>2018-07-22T07:36:15.000Z</time>
      </trkpt>
      <trkpt lat="42.291302" lon="-0.456793">
        <ele>1475.2</ele>
        <time>2018-07-22T07:36:16.000Z</time>
      </trkpt>
      <trkpt lat="42.291296" lon="-0.456798">
        <ele>1475.2</ele>
        <time>2018-07-22T07:36:17.000Z</time>
      </trkpt>
      <trkpt lat="42.291289" lon="-0.456803">
        <ele>1475.1</ele>
        <time>2018-07-22T07:36:18.000Z</time>
      </trkpt>
      <trkpt lat="42.291282" lon="-0.456808">
        <ele>1475.0</ele>
        <time>2018-07-22T07:36:19.000Z</time>
      </trkpt>
      <trkpt lat="42.291276" lon="-0.456815">
        <ele>1475.0</ele>
        <time>2018-07-22T07:36:20.000Z</time>
      </trkpt>
      <trkpt lat="42.291269" lon="-0.456823">
        <ele>1475.0</ele>
        <time>2018-07-22T07:36:21.000Z</time>
      </trkpt>
      <trkpt lat="42.291264" lon="-0.456831">
        <ele>1475.0</ele>
        <time>2018-07-22T07:36:22.000Z</time>
      </trkpt>
      <trkpt lat="42.291259" lon="-0.456841">
        <ele>1475.0</ele>
        <time>2018-07-22T07:36:23.000Z</time>
      </trkpt>
      <trkpt lat="42.291254" lon="-0.456851">
        <ele>1475.0</ele>
        <time>2018-07-22T07:36:24.000Z</time>
      </trkpt>
      <trkpt lat="42.291249" lon="-0.456862">
        <ele>1475.1</ele>
        <time>2018-07-22T07:36:25.000Z</time>
      </trkpt>
      <trkpt lat="42.291245" lon="-0.456873">
        <ele>1475.1</ele>
        <time>2018-07-22T07:36:26.000Z</time>
      </trkpt>
      <trkpt lat="42.291242" lon="-0.456885">
        <ele>1475.2</ele>
        <time>2018-07-22T07:36:27.000Z</time>
      </trkpt>
      <trkpt lat="42.291238" lon="-0.456898">
        <ele>1475.3</ele>
        <time>2018-07-22T07:36:28.000Z</time>
      </trkpt>
      <trkpt lat="42.291236" lon="-0.456911">
        <ele>1475.4</ele>
        <time>2018-07-22T07:36:29.000Z</time>
      </trkpt>
      <trkpt lat="42.291233" lon="-0.456924">
        <ele>1475.6</ele>
        <time>2018-07-22T07:36:30.000Z</time>
      </trkpt>
      <trkpt lat="42.291231" lon="-0.456937">
        <ele>1475.7</ele>
        <time>2018-07-22T07:36:31.000Z</time>
      </trkpt>
      <trkpt lat="42.29123" lon="-0.45695">
        <ele>1475.8</ele>
        <time>2018-07-22T07:36:32.000Z</time>
      </trkpt>
      <trkpt lat="42.291228" lon="-0.456962">
        <ele>1475.9</ele>
        <time>2018-07-22T07:36:33.000Z</time>
      </trkpt>
      <trkpt lat="42.291227" lon="-0.456975">
        <ele>1476.1</ele>
        <time>2018-07-22T07:36:34.000Z</time>
      </trkpt>
      <trkpt lat="42.291227" lon="-0.456987">
        <ele>1476.3</ele>
        <time>2018-07-22T07:36:35.000Z</time>
      </trkpt>
      <trkpt lat="42.291226" lon="-0.456998">
        <ele>1476.4</ele>
        <time>2018-07-22T07:36:36.000Z</time>
      </trkpt>
      <trkpt lat="42.291226" lon="-0.457009">
        <ele>1476.5</ele>
        <time>2018-07-22T07:36:37.000Z</time>
      </trkpt>
      <trkpt lat="42.291226" lon="-0.457019">
        <ele>1476.7</ele>
        <time>2018-07-22T07:36:38.000Z</time>
      </trkpt>
      <trkpt lat="42.291226" lon="-0.457027">
        <ele>1476.8</ele>
        <time>2018-07-22T07:36:39.000Z</time>
      </trkpt>
      <trkpt lat="42.291226" lon="-0.457035">
        <ele>1476.9</ele>
        <time>2018-07-22T07:36:40.000Z</time>
      </trkpt>
      <trkpt lat="42.291226" lon="-0.457041">
        <ele>1477.0</ele>
        <time>2018-07-22T07:36:41.000Z</time>
      </trkpt>
      <trkpt lat="42.291226" lon="-0.457045">
        <ele>1477.0</ele>
        <time>2018-07-22T07:36:42.000Z</time>
      </trkpt>
      <trkpt lat="42.291226" lon="-0.457048">
        <ele>1477.0</ele>
        <time>2018-07-22T07:36:43.000Z</time>
      </trkpt>
      <trkpt lat="42.291225" lon="-0.45705">
        <ele>1477.0</ele>
        <time>2018-07-22T07:36:44.000Z</time>
      </trkpt>
      <trkpt lat="42.291225" lon="-0.45705">
        <ele>1477.0</ele>
        <time>2018-07-22T07:36:45.000Z</time>
      </trkpt>
      <trkpt lat="42.291225" lon="-0.457051">
        <ele>1477.1</ele>
        <time>2018-07-22T07:36:46.000Z</time>
      </trkpt>
      <trkpt lat="42.291225" lon="-0.45705">
        <ele>1477.0</ele>
        <time>2018-07-22T07:36:47.000Z</time>
      </trkpt>
      <trkpt lat="42.291225" lon="-0.45705">
        <ele>1477.0</ele>
        <time>2018-07-22T07:36:48.000Z</time>
      </trkpt>
      <trkpt lat="42.291225" lon="-0.457049">
        <ele>1477.0</ele>
        <time>2018-07-22T07:36:49.000Z</time>
      </trkpt>
      <trkpt lat="42.291225" lon="-0.457049">
        <ele>1477.0</ele>
        <time>2018-07-22T07:36:50.000Z</time>
      </trkpt>
      <trkpt lat="42.291225" lon="-0.457049">
        <ele>1477.0</ele>
        <time>2018-07-22T07:36:51.000Z</time>
      </trkpt>
      <trkpt lat="42.291224" lon="-0.45705">
        <ele>1477.0</ele>
        <time>2018-07-22T07:36:52.000Z</time>
      </trkpt>
      <trkpt lat="42.291224" lon="-0.457052">
        <ele>1477.1</ele>
        <time>2018-07-22T07:36:53.000Z</time>
      </trkpt>
      <trkpt lat="42.291224" lon="-0.457055">
        <ele>1477.1</ele>
        <time>2018-07-22T07:36:54.000Z</time>
      </trkpt>
      <trkpt lat="42.291224" lon="-0.45706">
        <ele>1477.2</ele>
        <time>2018-07-22T07:36:55.000Z</time>
      </trkpt>
      <trkpt lat="42.291224" lon="-0.457067">
        <ele>1477.3</ele>
        <time>2018-07-22T07:36:56.000Z</time>
      </trkpt>
      <trkpt lat="42.291223" lon="-0.457076">
        <ele>1477.4</ele>
        <time>2018-07-22T07:36:57.000Z</time>
      </trkpt>
      <trkpt lat="42.291222" lon="-0.457087">
        <ele>1477.5</ele>
        <time>2018-07-22T07:36:58.000Z</time>
      </trkpt>
      <trkpt lat="42.291222" lon="-0.457098">
        <ele>1477.6</ele>
        <time>2018-07-22T07:36:59.000Z</time>
      </trkpt>
      <trkpt lat="42.291221" lon="-0.45711">
        <ele>1477.8</ele>
        <time>2018-07-22T07:37:00.000Z</time>
      </trkpt>
      <trkpt lat="42.291221" lon="-0.457122">
        <ele>1477.9</ele>
        <time>2018-07-22T07:37:01.000Z</time>
      </trkpt>
      <trkpt lat="42.291221" lon="-0.457135">
        <ele>1478.1</ele>
        <time>2018-07-22T07:37:02.000Z</time>
      </trkpt>
      <trkpt lat="42.291221" lon="-0.457148">
        <ele>1478.3</ele>
        <time>2018-07-22T07:37:03.000Z</time>
      </trkpt>
      <trkpt lat="42.291222" lon="-0.457161">
        <ele>1478.5</ele>
        <time>2018-07-22T07:37:04.000Z</time>
      </trkpt>
      <trkpt lat="42.291223" lon="-0.457175">
        <ele>1478.7</ele>
        <time>2018-07-22T07:37:05.000Z</time>
      </trkpt>
      <trkpt lat="42.291224" lon="-0.457189">
        <ele>1478.9</ele>
        <time>2018-07-22T07:37:06.000Z</time>
      </trkpt>
      <trkpt lat="42.291226" lon="-0.457203">
        <ele>1479.1</ele>
        <time>2018-07-22T07:37:07.000Z</time>
      </trkpt>
      <trkpt lat="42.291228" lon="-0.457217">
        <ele>1479.3</ele>
        <time>2018-07-22T07:37:08.000Z</time>
      </trkpt>
      <trkpt lat="42.291231" lon="-0.457231">
        <ele>1479.6</ele>
        <time>2018-07-22T07:37:09.000Z</time>
      </trkpt>
      <trkpt lat="42.291233" lon="-0.457246">
        <ele>1479.8</ele>
        <time>2018-07-22T07:37:10.000Z</time>
      </trkpt>
      <trkpt lat="42.291236" lon="-0.457261">
        <ele>1480.1</ele>
        <time>2018-07-22T07:37:11.000Z</time>
      </trkpt>
      <trkpt lat="42.291238" lon="-0.457275">
        <ele>1480.3</ele>
        <time>2018-07-22T07:37:12.000Z</time>
      </trkpt>
      <trkpt lat="42.291241" lon="-0.45729">
        <ele>1480.5</ele>
        <time>2018-07-22T07:37:13.000Z</time>
      </trkpt>
      <trkpt lat="42.291244" lon="-0.457305">
        <ele>1480.8</ele>
        <time>2018-07-22T07:37:14.000Z</time>
      </trkpt>
      <trkpt lat="42.291246" lon="-0.45732">
        <ele>1481.0</ele>
        <time>2018-07-22T07:37:15.000Z</time>
      </trkpt>
      <trkpt lat="42.291249" lon="-0.457335">
        <ele>1481.3</ele>
        <time>2018-07-22T07:37:16.000Z</time>
      </trkpt>
      <trkpt lat="42.291251" lon="-0.45735">
        <ele>1481.5</ele>
        <time>2018-07-22T07:37:17.000Z</time>
      </trkpt>
      <trkpt lat="42.291254" lon="-0.457365">
        <ele>1481.8</ele>
        <time>2018-07-22T07:37:18.000Z</time>
      </trkpt>
      <trkpt lat="42.291256" lon="-0.45738">
        <ele>1482.0</ele>
        <time>2018-07-22T07:37:19.000Z</time>
      </trkpt>
      <trkpt lat="42.291258" lon="-0.457395">
        <ele>1482.3</ele>
        <time>2018-07-22T07:37:20.000Z</time>
      </trkpt>
      <trkpt lat="42.29126" lon="-0.457409">
        <ele>1482.5</ele>
        <time>2018-07-22T07:37:21.000Z</time>
      </trkpt>
      <trkpt lat="42.291261" lon="-0.457422">
        <ele>1482.7</ele>
        <time>2018-07-22T07:37:22.000Z</time>
      </trkpt>
      <trkpt lat="42.291263" lon="-0.457436">
        <ele>1482.9</ele>
        <time>2018-07-22T07:37:23.000Z</time>
      </trkpt>
      <trkpt lat="42.291264" lon="-0.457448">
        <ele>1483.1</ele>
        <time>2018-07-22T07:37:24.000Z</time>
      </trkpt>
      <trkpt lat="42.291265" lon="-0.457461">
        <ele>1483.3</ele>
        <time>2018-07-22T07:37:25.000Z</time>
      </trkpt>
      <trkpt lat="42.291266" lon="-0.457473">
        <ele>1483.5</ele>
        <time>2018-07-22T07:37:26.000Z</time>
      </trkpt>
      <trkpt lat="42.291267" lon="-0.457484">
        <ele>1483.6</ele>
        <time>2018-07-22T07:37:27.000Z</time>
      </trkpt>
      <trkpt lat="42.291268" lon="-0.457496">
        <ele>1483.8</ele>
        <time>2018-07-22T07:37:28.000Z</time>
      </trkpt>
      <trkpt lat="42.291268" lon="-0.457509">
        <ele>1483.9</ele>
        <time>2018-07-22T07:37:29.000Z</time>
      </trkpt>
      <trkpt lat="42.291269" lon="-0.457522">
        <ele>1484.0</ele>
        <time>2018-07-22T07:37:30.000Z</time>
      </trkpt>
      <trkpt lat="42.291269" lon="-0.457536">
        <ele>1484.1</ele>
        <time>2018-07-22T07:37:31.000Z</time>
      </trkpt>
      <trkpt lat="42.29127" lon="-0.457551">
        <ele>1484.1</ele>
        <time>2018-07-22T07:37:32.000Z</time>
      </trkpt>
      <trkpt lat="42.291271" lon="-0.457566">
        <ele>1484.2</ele>
        <time>2018-07-22T07:37:33.000Z</time>
      </trkpt>
      <trkpt lat="42.291272" lon="-0.45758">
        <ele>1484.3</ele>
        <time>2018-07-22T07:37:34.000Z</time>
      </trkpt>
      <trkpt lat="42.291273" lon="-0.457595">
        <ele>1484.4</ele>
        <time>2018-07-22T07:37:35.000Z</time>
      </trkpt>
      <trkpt lat="42.291275" lon="-0.457609">
        <ele>1484.5</ele>
        <time>2018-07-22T07:37:36.000Z</time>
      </trkpt>
      <trkpt lat="42.291277" lon="-0.457623">
        <ele>1484.6</ele>
        <time>2018-07-22T07:37:37.000Z</time>
      </trkpt>
      <trkpt lat="42.29128" lon="-0.457636">
        <ele>1484.7</ele>
        <time>2018-07-22T07:37:38.000Z</time>
      </trkpt>
      <trkpt lat="42.291283" lon="-0.457649">
        <ele>1484.9</ele>
        <time>2018-07-22T07:37:39.000Z</time>
      </trkpt>
      <trkpt lat="42.291285" lon="-0.457663">
        <ele>1485.0</ele>
        <time>2018-07-22T07:37:40.000Z</time>
      </trkpt>
      <trkpt lat="42.291288" lon="-0.457676">
        <ele>1485.1</ele>
        <time>2018-07-22T07:37:41.000Z</time>
      </trkpt>
      <trkpt lat="42.291291" lon="-0.45769">
        <ele>1485.2</ele>
        <time>2018-07-22T07:37:42.000Z</time>
      </trkpt>
      <trkpt lat="42.291293" lon="-0.457705">
        <ele>1485.3</ele>
        <time>2018-07-22T07:37:43.000Z</time>
      </trkpt>
      <trkpt lat="42.291295" lon="-0.457719">
        <ele>1485.4</ele>
        <time>2018-07-22T07:37:44.000Z</time>
      </trkpt>
      <trkpt lat="42.291297" lon="-0.457734">
        <ele>1485.5</ele>
        <time>2018-07-22T07:37:45.000Z</time>
      </trkpt>
      <trkpt lat="42.291298" lon="-0.457749">
        <ele>1485.6</ele>
        <time>2018-07-22T07:37:46.000Z</time>
      </trkpt>
      <trkpt lat="42.291298" lon="-0.457763">
        <ele>1485.7</ele>
        <time>2018-07-22T07:37:47.000Z</time>
      </trkpt>
      <trkpt lat="42.291298" lon="-0.457778">
        <ele>1485.7</ele>
        <time>2018-07-22T07:37:48.000Z</time>
      </trkpt>
      <trkpt lat="42.291297" lon="-0.457792">
        <ele>1485.8</ele>
        <time>2018-07-22T07:37:49.000Z</time>
      </trkpt>
      <trkpt lat="42.291295" lon="-0.457806">
        <ele>1485.8</ele>
        <time>2018-07-22T07:37:50.000Z</time>
      </trkpt>
      <trkpt lat="42.291294" lon="-0.45782">
        <ele>1485.9</ele>
        <time>2018-07-22T07:37:51.000Z</time>
      </trkpt>
      <trkpt lat="42.291291" lon="-0.457834">
        <ele>1485.9</ele>
        <time>2018-07-22T07:37:52.000Z</time>
      </trkpt>
      <trkpt lat="42.291289" lon="-0.457847">
        <ele>1485.9</ele>
        <time>2018-07-22T07:37:53.000Z</time>
      </trkpt>
      <trkpt lat="42.291286" lon="-0.457861">
        <ele>1485.9</ele>
        <time>2018-07-22T07:37:54.000Z</time>
      </trkpt>
      <trkpt lat="42.291283" lon="-0.457875">
        <ele>1485.9</ele>
        <time>2018-07-22T07:37:55.000Z</time>
      </trkpt>
      <trkpt lat="42.29128" lon="-0.457888">
        <ele>1485.9</ele>
        <time>2018-07-22T07:37:56.000Z</time>
      </trkpt>
      <trkpt lat="42.291277" lon="-0.457902">
        <ele>1485.9</ele>
        <time>2018-07-22T07:37:57.000Z</time>
      </trkpt>
      <trkpt lat="42.291275" lon="-0.457915">
        <ele>1485.9</ele>
        <time>2018-07-22T07:37:58.000Z</time>
      </trkpt>
      <trkpt lat="42.291272" lon="-0.457929">
        <ele>1486.0</ele>
        <time>2018-07-22T07:37:59.000Z</time>
      </trkpt>
      <trkpt lat="42.29127" lon="-0.457943">
        <ele>1486.0</ele>
        <time>2018-07-22T07:38:00.000Z</time>
      </trkpt>
      <trkpt lat="42.291267" lon="-0.457956">
        <ele>1486.0</ele>
        <time>2018-07-22T07:38:01.000Z</time>
      </trkpt>
      <trkpt lat="42.291265" lon="-0.45797">
        <ele>1486.0</ele>
        <time>2018-07-22T07:38:02.000Z</time>
      </trkpt>
      <trkpt lat="42.291264" lon="-0.457984">
        <ele>1486.1</ele>
        <time>2018-07-22T07:38:03.000Z</time>
      </trkpt>
      <trkpt lat="42.291262" lon="-0.457997">
        <ele>1486.1</ele>
        <time>2018-07-22T07:38:04.000Z</time>
      </trkpt>
      <trkpt lat="42.29126" lon="-0.458011">
        <ele>1486.1</ele>
        <time>2018-07-22T07:38:05.000Z</time>
      </trkpt>
      <trkpt lat="42.291259" lon="-0.458025">
        <ele>1486.2</ele>
        <time>2018-07-22T07:38:06.000Z</time>
      </trkpt>
      <trkpt lat="42.291256" lon="-0.458039">
        <ele>1486.2</ele>
        <time>2018-07-22T07:38:07.000Z</time>
      </trkpt>
      <trkpt lat="42.291253" lon="-0.458054">
        <ele>1486.2</ele>
        <time>2018-07-22T07:38:08.000Z</time>
      </trkpt>
      <trkpt lat="42.29125" lon="-0.458069">
        <ele>1486.2</ele>
        <time>2018-07-22T07:38:09.000Z</time>
      </trkpt>
      <trkpt lat="42.291247" lon="-0.458084">
        <ele>1486.3</ele>
        <time>2018-07-22T07:38:10.000Z</time>
      </trkpt>
      <trkpt lat="42.291244" lon="-0.458099">
        <ele>1486.3</ele>
        <time>2018-07-22T07:38:11.000Z</time>
      </trkpt>
      <trkpt lat="42.291241" lon="-0.458115">
        <ele>1486.3</ele>
        <time>2018-07-22T07:38:12.000Z</time>
      </trkpt>
      <trkpt lat="42.291238" lon="-0.45813">
        <ele>1486.3</ele>
        <time>2018-07-22T07:38:13.000Z</time>
      </trkpt>
      <trkpt lat="42.291236" lon="-0.458146">
        <ele>1486.4</ele>
        <time>2018-07-22T07:38:14.000Z</time>
      </trkpt>
      <trkpt lat="42.291234" lon="-0.458162">
        <ele>1486.4</ele>
        <time>2018-07-22T07:38:15.000Z</time>
      </trkpt>
      <trkpt lat="42.291232" lon="-0.458177">
        <ele>1486.5</ele>
        <time>2018-07-22T07:38:16.000Z</time>
      </trkpt>
      <trkpt lat="42.29123" lon="-0.458193">
        <ele>1486.5</ele>
        <time>2018-07-22T07:38:17.000Z</time>
      </trkpt>
      <trkpt lat="42.291226" lon="-0.458208">
        <ele>1486.5</ele>
        <time>2018-07-22T07:38:18.000Z</time>
      </trkpt>
      <trkpt lat="42.291221" lon="-0.458222">
        <ele>1486.5</ele>
        <time>2018-07-22T07:38:19.000Z</time>
      </trkpt>
      <trkpt lat="42.291215" lon="-0.458236">
        <ele>1486.5</ele>
        <time>2018-07-22T07:38:20.000Z</time>
      </trkpt>
      <trkpt lat="42.291208" lon="-0.45825">
        <ele>1486.4</ele>
        <time>2018-07-22T07:38:21.000Z</time>
      </trkpt>
      <trkpt lat="42.291202" lon="-0.458264">
        <ele>1486.4</ele>
        <time>2018-07-22T07:38:22.000Z</time>
      </trkpt>
      <trkpt lat="42.291195" lon="-0.458279">
        <ele>1486.4</ele>
        <time>2018-07-22T07:38:23.000Z</time>
      </trkpt>
      <trkpt lat="42.29119" lon="-0.458293">
        <ele>1486.4</ele>
        <time>2018-07-22T07:38:24.000Z</time>
      </trkpt>
      <trkpt lat="42.291187" lon="-0.458309">
        <ele>1486.4</ele>
        <time>2018-07-22T07:38:25.000Z</time>
      </trkpt>
      <trkpt lat="42.291184" lon="-0.458325">
        <ele>1486.4</ele>
        <time>2018-07-22T07:38:26.000Z</time>
      </trkpt>
      <trkpt lat="42.291183" lon="-0.458341">
        <ele>1486.5</ele>
        <time>2018-07-22T07:38:27.000Z</time>
      </trkpt>
      <trkpt lat="42.291182" lon="-0.458357">
        <ele>1486.7</ele>
        <time>2018-07-22T07:38:28.000Z</time>
      </trkpt>
      <trkpt lat="42.291181" lon="-0.458373">
        <ele>1486.9</ele>
        <time>2018-07-22T07:38:29.000Z</time>
      </trkpt>
      <trkpt lat="42.29118" lon="-0.458389">
        <ele>1487.0</ele>
        <time>2018-07-22T07:38:30.000Z</time>
      </trkpt>
      <trkpt lat="42.291178" lon="-0.458405">
        <ele>1487.2</ele>
        <time>2018-07-22T07:38:31.000Z</time>
      </trkpt>
      <trkpt lat="42.291176" lon="-0.45842">
        <ele>1487.3</ele>
        <time>2018-07-22T07:38:32.000Z</time>
      </trkpt>
      <trkpt lat="42.291174" lon="-0.458435">
        <ele>1487.4</ele>
        <time>2018-07-22T07:38:33.000Z</time>
      </trkpt>
      <trkpt lat="42.291172" lon="-0.45845">
        <ele>1487.6</ele>
        <time>2018-07-22T07:38:34.000Z</time>
      </trkpt>
      <trkpt lat="42.29117" lon="-0.458465">
        <ele>1487.7</ele>
        <time>2018-07-22T07:38:35.000Z</time>
      </trkpt>
      <trkpt lat="42.291167" lon="-0.458479">
        <ele>1487.8</ele>
        <time>2018-07-22T07:38:36.000Z</time>
      </trkpt>
      <trkpt lat="42.291165" lon="-0.458494">
        <ele>1488.0</ele>
        <time>2018-07-22T07:38:37.000Z</time>
      </trkpt>
      <trkpt lat="42.291162" lon="-0.458508">
        <ele>1488.1</ele>
        <time>2018-07-22T07:38:38.000Z</time>
      </trkpt>
      <trkpt lat="42.291159" lon="-0.458521">
        <ele>1488.2</ele>
        <time>2018-07-22T07:38:39.000Z</time>
      </trkpt>
      <trkpt lat="42.291156" lon="-0.458535">
        <ele>1488.3</ele>
        <time>2018-07-22T07:38:40.000Z</time>
      </trkpt>
      <trkpt lat="42.291153" lon="-0.458549">
        <ele>1488.4</ele>
        <time>2018-07-22T07:38:41.000Z</time>
      </trkpt>
      <trkpt lat="42.291149" lon="-0.458562">
        <ele>1488.5</ele>
        <time>2018-07-22T07:38:42.000Z</time>
      </trkpt>
      <trkpt lat="42.291146" lon="-0.458575">
        <ele>1488.6</ele>
        <time>2018-07-22T07:38:43.000Z</time>
      </trkpt>
      <trkpt lat="42.291143" lon="-0.458588">
        <ele>1488.7</ele>
        <time>2018-07-22T07:38:44.000Z</time>
      </trkpt>
      <trkpt lat="42.291139" lon="-0.458601">
        <ele>1488.9</ele>
        <time>2018-07-22T07:38:45.000Z</time>
      </trkpt>
      <trkpt lat="42.291136" lon="-0.458614">
        <ele>1489.0</ele>
        <time>2018-07-22T07:38:46.000Z</time>
      </trkpt>
      <trkpt lat="42.291132" lon="-0.458627">
        <ele>1489.1</ele>
        <time>2018-07-22T07:38:47.000Z</time>
      </trkpt>
      <trkpt lat="42.291129" lon="-0.458639">
        <ele>1489.2</ele>
        <time>2018-07-22T07:38:48.000Z</time>
      </trkpt>
      <trkpt lat="42.291125" lon="-0.458652">
        <ele>1489.3</ele>
        <time>2018-07-22T07:38:49.000Z</time>
      </trkpt>
      <trkpt lat="42.291122" lon="-0.458665">
        <ele>1489.4</ele>
        <time>2018-07-22T07:38:50.000Z</time>
      </trkpt>
      <trkpt lat="42.291118" lon="-0.458678">
        <ele>1489.5</ele>
        <time>2018-07-22T07:38:51.000Z</time>
      </trkpt>
      <trkpt lat="42.291115" lon="-0.458691">
        <ele>1489.7</ele>
        <time>2018-07-22T07:38:52.000Z</time>
      </trkpt>
      <trkpt lat="42.291112" lon="-0.458704">
        <ele>1489.8</ele>
        <time>2018-07-22T07:38:53.000Z</time>
      </trkpt>
      <trkpt lat="42.291108" lon="-0.458717">
        <ele>1489.9</ele>
        <time>2018-07-22T07:38:54.000Z</time>
      </trkpt>
      <trkpt lat="42.291105" lon="-0.45873">
        <ele>1490.0</ele>
        <time>2018-07-22T07:38:55.000Z</time>
      </trkpt>
      <trkpt lat="42.291102" lon="-0.458743">
        <ele>1490.2</ele>
        <time>2018-07-22T07:38:56.000Z</time>
      </trkpt>
      <trkpt lat="42.291099" lon="-0.458757">
        <ele>1490.3</ele>
        <time>2018-07-22T07:38:57.000Z</time>
      </trkpt>
      <trkpt lat="42.291095" lon="-0.45877">
        <ele>1490.4</ele>
        <time>2018-07-22T07:38:58.000Z</time>
      </trkpt>
      <trkpt lat="42.291092" lon="-0.458783">
        <ele>1490.6</ele>
        <time>2018-07-22T07:38:59.000Z</time>
      </trkpt>
      <trkpt lat="42.291088" lon="-0.458797">
        <ele>1490.7</ele>
        <time>2018-07-22T07:39:00.000Z</time>
      </trkpt>
      <trkpt lat="42.291084" lon="-0.458811">
        <ele>1490.9</ele>
        <time>2018-07-22T07:39:01.000Z</time>
      </trkpt>
      <trkpt lat="42.29108" lon="-0.458824">
        <ele>1491.0</ele>
        <time>2018-07-22T07:39:02.000Z</time>
      </trkpt>
      <trkpt lat="42.291075" lon="-0.458838">
        <ele>1491.1</ele>
        <time>2018-07-22T07:39:03.000Z</time>
      </trkpt>
      <trkpt lat="42.291071" lon="-0.458852">
        <ele>1491.3</ele>
        <time>2018-07-22T07:39:04.000Z</time>
      </trkpt>
      <trkpt lat="42.291066" lon="-0.458866">
        <ele>1491.4</ele>
        <time>2018-07-22T07:39:05.000Z</time>
      </trkpt>
      <trkpt lat="42.291061" lon="-0.45888">
        <ele>1491.6</ele>
        <time>2018-07-22T07:39:06.000Z</time>
      </trkpt>
      <trkpt lat="42.291056" lon="-0.458894">
        <ele>1491.7</ele>
        <time>2018-07-22T07:39:07.000Z</time>
      </trkpt>
      <trkpt lat="42.291051" lon="-0.458908">
        <ele>1491.9</ele>
        <time>2018-07-22T07:39:08.000Z</time>
      </trkpt>
      <trkpt lat="42.291045" lon="-0.458922">
        <ele>1492.0</ele>
        <time>2018-07-22T07:39:09.000Z</time>
      </trkpt>
      <trkpt lat="42.29104" lon="-0.458936">
        <ele>1492.2</ele>
        <time>2018-07-22T07:39:10.000Z</time>
      </trkpt>
      <trkpt lat="42.291034" lon="-0.458949">
        <ele>1492.3</ele>
        <time>2018-07-22T07:39:11.000Z</time>
      </trkpt>
      <trkpt lat="42.291028" lon="-0.458963">
        <ele>1492.5</ele>
        <time>2018-07-22T07:39:12.000Z</time>
      </trkpt>
      <trkpt lat="42.291023" lon="-0.458977">
        <ele>1492.7</ele>
        <time>2018-07-22T07:39:13.000Z</time>
      </trkpt>
      <trkpt lat="42.291017" lon="-0.45899">
        <ele>1492.8</ele>
        <time>2018-07-22T07:39:14.000Z</time>
      </trkpt>
      <trkpt lat="42.291011" lon="-0.459003">
        <ele>1493.0</ele>
        <time>2018-07-22T07:39:15.000Z</time>
      </trkpt>
      <trkpt lat="42.291006" lon="-0.459017">
        <ele>1493.1</ele>
        <time>2018-07-22T07:39:16.000Z</time>
      </trkpt>
      <trkpt lat="42.291" lon="-0.45903">
        <ele>1493.3</ele>
        <time>2018-07-22T07:39:17.000Z</time>
      </trkpt>
      <trkpt lat="42.290994" lon="-0.459043">
        <ele>1493.5</ele>
        <time>2018-07-22T07:39:18.000Z</time>
      </trkpt>
      <trkpt lat="42.290989" lon="-0.459056">
        <ele>1493.6</ele>
        <time>2018-07-22T07:39:19.000Z</time>
      </trkpt>
      <trkpt lat="42.290983" lon="-0.459069">
        <ele>1493.8</ele>
        <time>2018-07-22T07:39:20.000Z</time>
      </trkpt>
      <trkpt lat="42.290978" lon="-0.459081">
        <ele>1493.9</ele>
        <time>2018-07-22T07:39:21.000Z</time>
      </trkpt>
      <trkpt lat="42.290973" lon="-0.459094">
        <ele>1494.1</ele>
        <time>2018-07-22T07:39:22.000Z</time>
      </trkpt>
      <trkpt lat="42.290968" lon="-0.459106">
        <ele>1494.3</ele>
        <time>2018-07-22T07:39:23.000Z</time>
      </trkpt>
      <trkpt lat="42.290963" lon="-0.459119">
        <ele>1494.5</ele>
        <time>2018-07-22T07:39:24.000Z</time>
      </trkpt>
      <trkpt lat="42.290959" lon="-0.459131">
        <ele>1494.6</ele>
        <time>2018-07-22T07:39:25.000Z</time>
      </trkpt>
      <trkpt lat="42.290954" lon="-0.459144">
        <ele>1494.8</ele>
        <time>2018-07-22T07:39:26.000Z</time>
      </trkpt>
      <trkpt lat="42.29095" lon="-0.459156">
        <ele>1495.0</ele>
        <time>2018-07-22T07:39:27.000Z</time>
      </trkpt>
      <trkpt lat="42.290946" lon="-0.459169">
        <ele>1495.2</ele>
        <time>2018-07-22T07:39:28.000Z</time>
      </trkpt>
      <trkpt lat="42.290942" lon="-0.459181">
        <ele>1495.3</ele>
        <time>2018-07-22T07:39:29.000Z</time>
      </trkpt>
      <trkpt lat="42.290938" lon="-0.459194">
        <ele>1495.5</ele>
        <time>2018-07-22T07:39:30.000Z</time>
      </trkpt>
      <trkpt lat="42.290934" lon="-0.459206">
        <ele>1495.7</ele>
        <time>2018-07-22T07:39:31.000Z</time>
      </trkpt>
      <trkpt lat="42.29093" lon="-0.459219">
        <ele>1495.9</ele>
        <time>2018-07-22T07:39:32.000Z</time>
      </trkpt>
      <trkpt lat="42.290925" lon="-0.459232">
        <ele>1496.1</ele>
        <time>2018-07-22T07:39:33.000Z</time>
      </trkpt>
      <trkpt lat="42.290921" lon="-0.459246">
        <ele>1496.4</ele>
        <time>2018-07-22T07:39:34.000Z</time>
      </trkpt>
      <trkpt lat="42.290917" lon="-0.459259">
        <ele>1496.6</ele>
        <time>2018-07-22T07:39:35.000Z</time>
      </trkpt>
      <trkpt lat="42.290913" lon="-0.459272">
        <ele>1496.8</ele>
        <time>2018-07-22T07:39:36.000Z</time>
      </trkpt>
      <trkpt lat="42.29091" lon="-0.459281">
        <ele>1496.9</ele>
        <time>2018-07-22T07:39:37.000Z</time>
      </trkpt>
      <trkpt lat="42.290908" lon="-0.459288">
        <ele>1497.0</ele>
        <time>2018-07-22T07:39:38.000Z</time>
      </trkpt>
      <trkpt lat="42.290907" lon="-0.459292">
        <ele>1497.1</ele>
        <time>2018-07-22T07:39:39.000Z</time>
      </trkpt>
      <trkpt lat="42.290906" lon="-0.459294">
        <ele>1497.1</ele>
        <time>2018-07-22T07:39:40.000Z</time>
      </trkpt>
      <trkpt lat="42.290906" lon="-0.459296">
        <ele>1497.2</ele>
        <time>2018-07-22T07:39:41.000Z</time>
      </trkpt>
      <trkpt lat="42.290906" lon="-0.459297">
        <ele>1497.2</ele>
        <time>2018-07-22T07:39:42.000Z</time>
      </trkpt>
      <trkpt lat="42.290905" lon="-0.459298">
        <ele>1497.2</ele>
        <time>2018-07-22T07:39:43.000Z</time>
      </trkpt>
      <trkpt lat="42.290905" lon="-0.459299">
        <ele>1497.2</ele>
        <time>2018-07-22T07:39:44.000Z</time>
      </trkpt>
      <trkpt lat="42.290905" lon="-0.459299">
        <ele>1497.2</ele>
        <time>2018-07-22T07:39:45.000Z</time>
      </trkpt>
      <trkpt lat="42.290905" lon="-0.4593">
        <ele>1497.2</ele>
        <time>2018-07-22T07:39:46.000Z</time>
      </trkpt>
      <trkpt lat="42.290905" lon="-0.4593">
        <ele>1497.2</ele>
        <time>2018-07-22T07:39:47.000Z</time>
      </trkpt>
      <trkpt lat="42.290905" lon="-0.4593">
        <ele>1497.2</ele>
        <time>2018-07-22T07:39:48.000Z</time>
      </trkpt>
      <trkpt lat="42.290905" lon="-0.4593">
        <ele>1497.2</ele>
        <time>2018-07-22T07:39:49.000Z</time>
      </trkpt>
      <trkpt lat="42.290905" lon="-0.4593">
        <ele>1497.2</ele>
        <time>2018-07-22T07:39:50.000Z</time>
      </trkpt>
      <trkpt lat="42.290905" lon="-0.459299">
        <ele>1497.2</ele>
        <time>2018-07-22T07:39:51.000Z</time>
      </trkpt>
      <trkpt lat="42.290906" lon="-0.459299">
        <ele>1497.2</ele>
        <time>2018-07-22T07:39:52.000Z</time>
      </trkpt>
      <trkpt lat="42.290906" lon="-0.459299">
        <ele>1497.2</ele>
        <time>2018-07-22T07:39:53.000Z</time>
      </trkpt>
      <trkpt lat="42.290905" lon="-0.459301">
        <ele>1497.3</ele>
        <time>2018-07-22T07:39:54.000Z</time>
      </trkpt>
      <trkpt lat="42.290903" lon="-0.459306">
        <ele>1497.3</ele>
        <time>2018-07-22T07:39:55.000Z</time>
      </trkpt>
      <trkpt lat="42.2909" lon="-0.459313">
        <ele>1497.5</ele>
        <time>2018-07-22T07:39:56.000Z</time>
      </trkpt>
      <trkpt lat="42.290897" lon="-0.459322">
        <ele>1497.6</ele>
        <time>2018-07-22T07:39:57.000Z</time>
      </trkpt>
      <trkpt lat="42.290893" lon="-0.459332">
        <ele>1497.8</ele>
        <time>2018-07-22T07:39:58.000Z</time>
      </trkpt>
      <trkpt lat="42.29089" lon="-0.459343">
        <ele>1498.0</ele>
        <time>2018-07-22T07:39:59.000Z</time>
      </trkpt>
      <trkpt lat="42.290886" lon="-0.459355">
        <ele>1498.2</ele>
        <time>2018-07-22T07:40:00.000Z</time>
      </trkpt>
      <trkpt lat="42.290882" lon="-0.459367">
        <ele>1498.4</ele>
        <time>2018-07-22T07:40:01.000Z</time>
      </trkpt>
      <trkpt lat="42.290878" lon="-0.45938">
        <ele>1498.6</ele>
        <time>2018-07-22T07:40:02.000Z</time>
      </trkpt>
      <trkpt lat="42.290875" lon="-0.459393">
        <ele>1498.9</ele>
        <time>2018-07-22T07:40:03.000Z</time>
      </trkpt>
      <trkpt lat="42.290871" lon="-0.459407">
        <ele>1499.1</ele>
        <time>2018-07-22T07:40:04.000Z</time>
      </trkpt>
      <trkpt lat="42.290868" lon="-0.45942">
        <ele>1499.4</ele>
        <time>2018-07-22T07:40:05.000Z</time>
      </trkpt>
      <trkpt lat="42.290865" lon="-0.459434">
        <ele>1499.6</ele>
        <time>2018-07-22T07:40:06.000Z</time>
      </trkpt>
      <trkpt lat="42.290862" lon="-0.459448">
        <ele>1499.9</ele>
        <time>2018-07-22T07:40:07.000Z</time>
      </trkpt>
      <trkpt lat="42.290859" lon="-0.459461">
        <ele>1500.1</ele>
        <time>2018-07-22T07:40:08.000Z</time>
      </trkpt>
      <trkpt lat="42.290855" lon="-0.459475">
        <ele>1500.4</ele>
        <time>2018-07-22T07:40:09.000Z</time>
      </trkpt>
      <trkpt lat="42.290852" lon="-0.459488">
        <ele>1500.7</ele>
        <time>2018-07-22T07:40:10.000Z</time>
      </trkpt>
      <trkpt lat="42.290848" lon="-0.459502">
        <ele>1500.9</ele>
        <time>2018-07-22T07:40:11.000Z</time>
      </trkpt>
      <trkpt lat="42.290845" lon="-0.459515">
        <ele>1501.2</ele>
        <time>2018-07-22T07:40:12.000Z</time>
      </trkpt>
      <trkpt lat="42.290841" lon="-0.459529">
        <ele>1501.5</ele>
        <time>2018-07-22T07:40:13.000Z</time>
      </trkpt>
      <trkpt lat="42.290838" lon="-0.459542">
        <ele>1501.7</ele>
        <time>2018-07-22T07:40:14.000Z</time>
      </trkpt>
      <trkpt lat="42.290834" lon="-0.459556">
        <ele>1502.0</ele>
        <time>2018-07-22T07:40:15.000Z</time>
      </trkpt>
      <trkpt lat="42.290831" lon="-0.45957">
        <ele>1502.2</ele>
        <time>2018-07-22T07:40:16.000Z</time>
      </trkpt>
      <trkpt lat="42.290828" lon="-0.459583">
        <ele>1502.3</ele>
        <time>2018-07-22T07:40:17.000Z</time>
      </trkpt>
      <trkpt lat="42.290825" lon="-0.459597">
        <ele>1502.4</ele>
        <time>2018-07-22T07:40:18.000Z</time>
      </trkpt>
      <trkpt lat="42.290821" lon="-0.459611">
        <ele>1502.5</ele>
        <time>2018-07-22T07:40:19.000Z</time>
      </trkpt>
      <trkpt lat="42.290818" lon="-0.459625">
        <ele>1502.7</ele>
        <time>2018-07-22T07:40:20.000Z</time>
      </trkpt>
      <trkpt lat="42.290816" lon="-0.459639">
        <ele>1502.9</ele>
        <time>2018-07-22T07:40:21.000Z</time>
      </trkpt>
      <trkpt lat="42.290813" lon="-0.459653">
        <ele>1503.0</ele>
        <time>2018-07-22T07:40:22.000Z</time>
      </trkpt>
      <trkpt lat="42.29081" lon="-0.459667">
        <ele>1503.1</ele>
        <time>2018-07-22T07:40:23.000Z</time>
      </trkpt>
      <trkpt lat="42.290807" lon="-0.45968">
        <ele>1503.3</ele>
        <time>2018-07-22T07:40:24.000Z</time>
      </trkpt>
      <trkpt lat="42.290804" lon="-0.459694">
        <ele>1503.4</ele>
        <time>2018-07-22T07:40:25.000Z</time>
      </trkpt>
      <trkpt lat="42.290802" lon="-0.459708">
        <ele>1503.6</ele>
        <time>2018-07-22T07:40:26.000Z</time>
      </trkpt>
      <trkpt lat="42.290799" lon="-0.459721">
        <ele>1503.7</ele>
        <time>2018-07-22T07:40:27.000Z</time>
      </trkpt>
      <trkpt lat="42.290796" lon="-0.459735">
        <ele>1503.9</ele>
        <time>2018-07-22T07:40:28.000Z</time>
      </trkpt>
      <trkpt lat="42.290793" lon="-0.459748">
        <ele>1504.0</ele>
        <time>2018-07-22T07:40:29.000Z</time>
      </trkpt>
      <trkpt lat="42.29079" lon="-0.459761">
        <ele>1504.1</ele>
        <time>2018-07-22T07:40:30.000Z</time>
      </trkpt>
      <trkpt lat="42.290787" lon="-0.459774">
        <ele>1504.2</ele>
        <time>2018-07-22T07:40:31.000Z</time>
      </trkpt>
      <trkpt lat="42.290784" lon="-0.459787">
        <ele>1504.4</ele>
        <time>2018-07-22T07:40:32.000Z</time>
      </trkpt>
      <trkpt lat="42.290781" lon="-0.4598">
        <ele>1504.5</ele>
        <time>2018-07-22T07:40:33.000Z</time>
      </trkpt>
      <trkpt lat="42.290778" lon="-0.459813">
        <ele>1504.6</ele>
        <time>2018-07-22T07:40:34.000Z</time>
      </trkpt>
      <trkpt lat="42.290775" lon="-0.459827">
        <ele>1504.8</ele>
        <time>2018-07-22T07:40:35.000Z</time>
      </trkpt>
      <trkpt lat="42.290772" lon="-0.45984">
        <ele>1504.9</ele>
        <time>2018-07-22T07:40:36.000Z</time>
      </trkpt>
      <trkpt lat="42.290769" lon="-0.459853">
        <ele>1505.0</ele>
        <time>2018-07-22T07:40:37.000Z</time>
      </trkpt>
      <trkpt lat="42.290766" lon="-0.459867">
        <ele>1505.2</ele>
        <time>2018-07-22T07:40:38.000Z</time>
      </trkpt>
      <trkpt lat="42.290763" lon="-0.45988">
        <ele>1505.3</ele>
        <time>2018-07-22T07:40:39.000Z</time>
      </trkpt>
      <trkpt lat="42.29076" lon="-0.459894">
        <ele>1505.5</ele>
        <time>2018-07-22T07:40:40.000Z</time>
      </trkpt>
      <trkpt lat="42.290757" lon="-0.459908">
        <ele>1505.6</ele>
        <time>2018-07-22T07:40:41.000Z</time>
      </trkpt>
      <trkpt lat="42.290754" lon="-0.459922">
        <ele>1505.8</ele>
        <time>2018-07-22T07:40:42.000Z</time>
      </trkpt>
      <trkpt lat="42.290751" lon="-0.459937">
        <ele>1506.0</ele>
        <time>2018-07-22T07:40:43.000Z</time>
      </trkpt>
      <trkpt lat="42.290749" lon="-0.459951">
        <ele>1506.2</ele>
        <time>2018-07-22T07:40:44.000Z</time>
      </trkpt>
      <trkpt lat="42.290746" lon="-0.459965">
        <ele>1506.3</ele>
        <time>2018-07-22T07:40:45.000Z</time>
      </trkpt>
      <trkpt lat="42.290744" lon="-0.459979">
        <ele>1506.5</ele>
        <time>2018-07-22T07:40:46.000Z</time>
      </trkpt>
      <trkpt lat="42.290741" lon="-0.459993">
        <ele>1506.7</ele>
        <time>2018-07-22T07:40:47.000Z</time>
      </trkpt>
      <trkpt lat="42.290739" lon="-0.460007">
        <ele>1506.8</ele>
        <time>2018-07-22T07:40:48.000Z</time>
      </trkpt>
      <trkpt lat="42.290737" lon="-0.460021">
        <ele>1506.8</ele>
        <time>2018-07-22T07:40:49.000Z</time>
      </trkpt>
      <trkpt lat="42.290735" lon="-0.460036">
        <ele>1506.9</ele>
        <time>2018-07-22T07:40:50.000Z</time>
      </trkpt>
      <trkpt lat="42.290732" lon="-0.460051">
        <ele>1507.0</ele>
        <time>2018-07-22T07:40:51.000Z</time>
      </trkpt>
      <trkpt lat="42.29073" lon="-0.460066">
        <ele>1507.0</ele>
        <time>2018-07-22T07:40:52.000Z</time>
      </trkpt>
      <trkpt lat="42.290727" lon="-0.460082">
        <ele>1507.1</ele>
        <time>2018-07-22T07:40:53.000Z</time>
      </trkpt>
      <trkpt lat="42.290725" lon="-0.460097">
        <ele>1507.2</ele>
        <time>2018-07-22T07:40:54.000Z</time>
      </trkpt>
      <trkpt lat="42.290722" lon="-0.460113">
        <ele>1507.2</ele>
        <time>2018-07-22T07:40:55.000Z</time>
      </trkpt>
      <trkpt lat="42.290719" lon="-0.460129">
        <ele>1507.3</ele>
        <time>2018-07-22T07:40:56.000Z</time>
      </trkpt>
      <trkpt lat="42.290717" lon="-0.460146">
        <ele>1507.4</ele>
        <time>2018-07-22T07:40:57.000Z</time>
      </trkpt>
      <trkpt lat="42.290714" lon="-0.460162">
        <ele>1507.4</ele>
        <time>2018-07-22T07:40:58.000Z</time>
      </trkpt>
      <trkpt lat="42.290712" lon="-0.460178">
        <ele>1507.5</ele>
        <time>2018-07-22T07:40:59.000Z</time>
      </trkpt>
      <trkpt lat="42.29071" lon="-0.460194">
        <ele>1507.6</ele>
        <time>2018-07-22T07:41:00.000Z</time>
      </trkpt>
      <trkpt lat="42.290708" lon="-0.46021">
        <ele>1507.7</ele>
        <time>2018-07-22T07:41:01.000Z</time>
      </trkpt>
      <trkpt lat="42.290706" lon="-0.460225">
        <ele>1507.7</ele>
        <time>2018-07-22T07:41:02.000Z</time>
      </trkpt>
      <trkpt lat="42.290704" lon="-0.460241">
        <ele>1507.8</ele>
        <time>2018-07-22T07:41:03.000Z</time>
      </trkpt>
      <trkpt lat="42.290702" lon="-0.460256">
        <ele>1507.9</ele>
        <time>2018-07-22T07:41:04.000Z</time>
      </trkpt>
      <trkpt lat="42.2907" lon="-0.460272">
        <ele>1508.0</ele>
        <time>2018-07-22T07:41:05.000Z</time>
      </trkpt>
      <trkpt lat="42.290698" lon="-0.460287">
        <ele>1508.0</ele>
        <time>2018-07-22T07:41:06.000Z</time>
      </trkpt>
      <trkpt lat="42.290697" lon="-0.460302">
        <ele>1508.2</ele>
        <time>2018-07-22T07:41:07.000Z</time>
      </trkpt>
      <trkpt lat="42.290695" lon="-0.460317">
        <ele>1508.2</ele>
        <time>2018-07-22T07:41:08.000Z</time>
      </trkpt>
      <trkpt lat="42.290693" lon="-0.460332">
        <ele>1508.3</ele>
        <time>2018-07-22T07:41:09.000Z</time>
      </trkpt>
      <trkpt lat="42.290692" lon="-0.460347">
        <ele>1508.4</ele>
        <time>2018-07-22T07:41:10.000Z</time>
      </trkpt>
      <trkpt lat="42.29069" lon="-0.460362">
        <ele>1508.5</ele>
        <time>2018-07-22T07:41:11.000Z</time>
      </trkpt>
      <trkpt lat="42.290688" lon="-0.460377">
        <ele>1508.6</ele>
        <time>2018-07-22T07:41:12.000Z</time>
      </trkpt>
      <trkpt lat="42.290686" lon="-0.460392">
        <ele>1508.6</ele>
        <time>2018-07-22T07:41:13.000Z</time>
      </trkpt>
      <trkpt lat="42.290685" lon="-0.460406">
        <ele>1508.7</ele>
        <time>2018-07-22T07:41:14.000Z</time>
      </trkpt>
      <trkpt lat="42.290683" lon="-0.460421">
        <ele>1508.8</ele>
        <time>2018-07-22T07:41:15.000Z</time>
      </trkpt>
      <trkpt lat="42.290682" lon="-0.460436">
        <ele>1508.9</ele>
        <time>2018-07-22T07:41:16.000Z</time>
      </trkpt>
      <trkpt lat="42.290681" lon="-0.460452">
        <ele>1509.0</ele>
        <time>2018-07-22T07:41:17.000Z</time>
      </trkpt>
      <trkpt lat="42.290681" lon="-0.460467">
        <ele>1509.2</ele>
        <time>2018-07-22T07:41:18.000Z</time>
      </trkpt>
      <trkpt lat="42.29068" lon="-0.460483">
        <ele>1509.3</ele>
        <time>2018-07-22T07:41:19.000Z</time>
      </trkpt>
      <trkpt lat="42.29068" lon="-0.460499">
        <ele>1509.5</ele>
        <time>2018-07-22T07:41:20.000Z</time>
      </trkpt>
      <trkpt lat="42.29068" lon="-0.460515">
        <ele>1509.6</ele>
        <time>2018-07-22T07:41:21.000Z</time>
      </trkpt>
      <trkpt lat="42.29068" lon="-0.460531">
        <ele>1509.8</ele>
        <time>2018-07-22T07:41:22.000Z</time>
      </trkpt>
      <trkpt lat="42.29068" lon="-0.460547">
        <ele>1509.9</ele>
        <time>2018-07-22T07:41:23.000Z</time>
      </trkpt>
      <trkpt lat="42.290679" lon="-0.460562">
        <ele>1510.0</ele>
        <time>2018-07-22T07:41:24.000Z</time>
      </trkpt>
      <trkpt lat="42.290678" lon="-0.460578">
        <ele>1510.1</ele>
        <time>2018-07-22T07:41:25.000Z</time>
      </trkpt>
      <trkpt lat="42.290678" lon="-0.460593">
        <ele>1510.3</ele>
        <time>2018-07-22T07:41:26.000Z</time>
      </trkpt>
      <trkpt lat="42.290677" lon="-0.460608">
        <ele>1510.4</ele>
        <time>2018-07-22T07:41:27.000Z</time>
      </trkpt>
      <trkpt lat="42.290676" lon="-0.460623">
        <ele>1510.5</ele>
        <time>2018-07-22T07:41:28.000Z</time>
      </trkpt>
      <trkpt lat="42.290675" lon="-0.460638">
        <ele>1510.6</ele>
        <time>2018-07-22T07:41:29.000Z</time>
      </trkpt>
      <trkpt lat="42.290673" lon="-0.460652">
        <ele>1510.7</ele>
        <time>2018-07-22T07:41:30.000Z</time>
      </trkpt>
      <trkpt lat="42.290672" lon="-0.460667">
        <ele>1510.8</ele>
        <time>2018-07-22T07:41:31.000Z</time>
      </trkpt>
      <trkpt lat="42.290671" lon="-0.460681">
        <ele>1510.9</ele>
        <time>2018-07-22T07:41:32.000Z</time>
      </trkpt>
      <trkpt lat="42.29067" lon="-0.460695">
        <ele>1511.0</ele>
        <time>2018-07-22T07:41:33.000Z</time>
      </trkpt>
      <trkpt lat="42.290668" lon="-0.460709">
        <ele>1511.1</ele>
        <time>2018-07-22T07:41:34.000Z</time>
      </trkpt>
      <trkpt lat="42.290667" lon="-0.460722">
        <ele>1511.1</ele>
        <time>2018-07-22T07:41:35.000Z</time>
      </trkpt>
      <trkpt lat="42.290666" lon="-0.460736">
        <ele>1511.2</ele>
        <time>2018-07-22T07:41:36.000Z</time>
      </trkpt>
      <trkpt lat="42.290665" lon="-0.46075">
        <ele>1511.3</ele>
        <time>2018-07-22T07:41:37.000Z</time>
      </trkpt>
      <trkpt lat="42.290664" lon="-0.460764">
        <ele>1511.4</ele>
        <time>2018-07-22T07:41:38.000Z</time>
      </trkpt>
      <trkpt lat="42.290663" lon="-0.460778">
        <ele>1511.5</ele>
        <time>2018-07-22T07:41:39.000Z</time>
      </trkpt>
      <trkpt lat="42.290663" lon="-0.460792">
        <ele>1511.7</ele>
        <time>2018-07-22T07:41:40.000Z</time>
      </trkpt>
      <trkpt lat="42.290662" lon="-0.460807">
        <ele>1511.8</ele>
        <time>2018-07-22T07:41:41.000Z</time>
      </trkpt>
      <trkpt lat="42.290662" lon="-0.460822">
        <ele>1511.9</ele>
        <time>2018-07-22T07:41:42.000Z</time>
      </trkpt>
      <trkpt lat="42.290662" lon="-0.460837">
        <ele>1512.0</ele>
        <time>2018-07-22T07:41:43.000Z</time>
      </trkpt>
      <trkpt lat="42.290661" lon="-0.460852">
        <ele>1512.1</ele>
        <time>2018-07-22T07:41:44.000Z</time>
      </trkpt>
      <trkpt lat="42.290661" lon="-0.460868">
        <ele>1512.1</ele>
        <time>2018-07-22T07:41:45.000Z</time>
      </trkpt>
      <trkpt lat="42.29066" lon="-0.460883">
        <ele>1512.1</ele>
        <time>2018-07-22T07:41:46.000Z</time>
      </trkpt>
      <trkpt lat="42.290659" lon="-0.460899">
        <ele>1512.1</ele>
        <time>2018-07-22T07:41:47.000Z</time>
      </trkpt>
      <trkpt lat="42.290658" lon="-0.460915">
        <ele>1512.1</ele>
        <time>2018-07-22T07:41:48.000Z</time>
      </trkpt>
      <trkpt lat="42.290657" lon="-0.460931">
        <ele>1512.1</ele>
        <time>2018-07-22T07:41:49.000Z</time>
      </trkpt>
      <trkpt lat="42.290656" lon="-0.460946">
        <ele>1512.1</ele>
        <time>2018-07-22T07:41:50.000Z</time>
      </trkpt>
      <trkpt lat="42.290654" lon="-0.460962">
        <ele>1512.1</ele>
        <time>2018-07-22T07:41:51.000Z</time>
      </trkpt>
      <trkpt lat="42.290653" lon="-0.460978">
        <ele>1512.1</ele>
        <time>2018-07-22T07:41:52.000Z</time>
      </trkpt>
      <trkpt lat="42.290651" lon="-0.460995">
        <ele>1512.1</ele>
        <time>2018-07-22T07:41:53.000Z</time>
      </trkpt>
      <trkpt lat="42.290649" lon="-0.461011">
        <ele>1512.1</ele>
        <time>2018-07-22T07:41:54.000Z</time>
      </trkpt>
      <trkpt lat="42.290648" lon="-0.461027">
        <ele>1512.1</ele>
        <time>2018-07-22T07:41:55.000Z</time>
      </trkpt>
      <trkpt lat="42.290646" lon="-0.461043">
        <ele>1512.1</ele>
        <time>2018-07-22T07:41:56.000Z</time>
      </trkpt>
      <trkpt lat="42.290644" lon="-0.46106">
        <ele>1512.1</ele>
        <time>2018-07-22T07:41:57.000Z</time>
      </trkpt>
      <trkpt lat="42.290642" lon="-0.461076">
        <ele>1512.1</ele>
        <time>2018-07-22T07:41:58.000Z</time>
      </trkpt>
      <trkpt lat="42.29064" lon="-0.461093">
        <ele>1512.1</ele>
        <time>2018-07-22T07:41:59.000Z</time>
      </trkpt>
      <trkpt lat="42.290639" lon="-0.461109">
        <ele>1512.1</ele>
        <time>2018-07-22T07:42:00.000Z</time>
      </trkpt>
      <trkpt lat="42.290637" lon="-0.461126">
        <ele>1512.1</ele>
        <time>2018-07-22T07:42:01.000Z</time>
      </trkpt>
      <trkpt lat="42.290635" lon="-0.461142">
        <ele>1512.1</ele>
        <time>2018-07-22T07:42:02.000Z</time>
      </trkpt>
      <trkpt lat="42.290633" lon="-0.461159">
        <ele>1512.1</ele>
        <time>2018-07-22T07:42:03.000Z</time>
      </trkpt>
      <trkpt lat="42.290632" lon="-0.461176">
        <ele>1512.1</ele>
        <time>2018-07-22T07:42:04.000Z</time>
      </trkpt>
      <trkpt lat="42.29063" lon="-0.461193">
        <ele>1512.1</ele>
        <time>2018-07-22T07:42:05.000Z</time>
      </trkpt>
      <trkpt lat="42.290629" lon="-0.461209">
        <ele>1512.1</ele>
        <time>2018-07-22T07:42:06.000Z</time>
      </trkpt>
      <trkpt lat="42.290627" lon="-0.461226">
        <ele>1512.1</ele>
        <time>2018-07-22T07:42:07.000Z</time>
      </trkpt>
      <trkpt lat="42.290626" lon="-0.461243">
        <ele>1512.1</ele>
        <time>2018-07-22T07:42:08.000Z</time>
      </trkpt>
      <trkpt lat="42.290625" lon="-0.46126">
        <ele>1512.2</ele>
        <time>2018-07-22T07:42:09.000Z</time>
      </trkpt>
      <trkpt lat="42.290624" lon="-0.461277">
        <ele>1512.2</ele>
        <time>2018-07-22T07:42:10.000Z</time>
      </trkpt>
      <trkpt lat="42.290622" lon="-0.461294">
        <ele>1512.2</ele>
        <time>2018-07-22T07:42:11.000Z</time>
      </trkpt>
      <trkpt lat="42.290621" lon="-0.461311">
        <ele>1512.2</ele>
        <time>2018-07-22T07:42:12.000Z</time>
      </trkpt>
      <trkpt lat="42.29062" lon="-0.461328">
        <ele>1512.2</ele>
        <time>2018-07-22T07:42:13.000Z</time>
      </trkpt>
      <trkpt lat="42.290619" lon="-0.461345">
        <ele>1512.3</ele>
        <time>2018-07-22T07:42:14.000Z</time>
      </trkpt>
      <trkpt lat="42.290618" lon="-0.461362">
        <ele>1512.3</ele>
        <time>2018-07-22T07:42:15.000Z</time>
      </trkpt>
      <trkpt lat="42.290618" lon="-0.461379">
        <ele>1512.4</ele>
        <time>2018-07-22T07:42:16.000Z</time>
      </trkpt>
      <trkpt lat="42.290617" lon="-0.461396">
        <ele>1512.4</ele>
        <time>2018-07-22T07:42:17.000Z</time>
      </trkpt>
      <trkpt lat="42.290616" lon="-0.461414">
        <ele>1512.4</ele>
        <time>2018-07-22T07:42:18.000Z</time>
      </trkpt>
      <trkpt lat="42.290615" lon="-0.461431">
        <ele>1512.5</ele>
        <time>2018-07-22T07:42:19.000Z</time>
      </trkpt>
      <trkpt lat="42.290614" lon="-0.461448">
        <ele>1512.5</ele>
        <time>2018-07-22T07:42:20.000Z</time>
      </trkpt>
      <trkpt lat="42.290613" lon="-0.461465">
        <ele>1512.5</ele>
        <time>2018-07-22T07:42:21.000Z</time>
      </trkpt>
      <trkpt lat="42.290611" lon="-0.461483">
        <ele>1512.6</ele>
        <time>2018-07-22T07:42:22.000Z</time>
      </trkpt>
      <trkpt lat="42.29061" lon="-0.4615">
        <ele>1512.6</ele>
        <time>2018-07-22T07:42:23.000Z</time>
      </trkpt>
      <trkpt lat="42.290608" lon="-0.461517">
        <ele>1512.6</ele>
        <time>2018-07-22T07:42:24.000Z</time>
      </trkpt>
      <trkpt lat="42.290607" lon="-0.461535">
        <ele>1512.6</ele>
        <time>2018-07-22T07:42:25.000Z</time>
      </trkpt>
      <trkpt lat="42.290605" lon="-0.461552">
        <ele>1512.7</ele>
        <time>2018-07-22T07:42:26.000Z</time>
      </trkpt>
      <trkpt lat="42.290603" lon="-0.461569">
        <ele>1512.7</ele>
        <time>2018-07-22T07:42:27.000Z</time>
      </trkpt>
      <trkpt lat="42.2906" lon="-0.461586">
        <ele>1512.7</ele>
        <time>2018-07-22T07:42:28.000Z</time>
      </trkpt>
      <trkpt lat="42.290598" lon="-0.461603">
        <ele>1512.7</ele>
        <time>2018-07-22T07:42:29.000Z</time>
      </trkpt>
      <trkpt lat="42.290595" lon="-0.46162">
        <ele>1512.7</ele>
        <time>2018-07-22T07:42:30.000Z</time>
      </trkpt>
      <trkpt lat="42.290592" lon="-0.461637">
        <ele>1512.7</ele>
        <time>2018-07-22T07:42:31.000Z</time>
      </trkpt>
      <trkpt lat="42.290589" lon="-0.461654">
        <ele>1512.7</ele>
        <time>2018-07-22T07:42:32.000Z</time>
      </trkpt>
      <trkpt lat="42.290586" lon="-0.46167">
        <ele>1512.7</ele>
        <time>2018-07-22T07:42:33.000Z</time>
      </trkpt>
      <trkpt lat="42.290583" lon="-0.461687">
        <ele>1512.8</ele>
        <time>2018-07-22T07:42:34.000Z</time>
      </trkpt>
      <trkpt lat="42.29058" lon="-0.461703">
        <ele>1512.9</ele>
        <time>2018-07-22T07:42:35.000Z</time>
      </trkpt>
      <trkpt lat="42.290577" lon="-0.461719">
        <ele>1513.0</ele>
        <time>2018-07-22T07:42:36.000Z</time>
      </trkpt>
      <trkpt lat="42.290574" lon="-0.461735">
        <ele>1513.1</ele>
        <time>2018-07-22T07:42:37.000Z</time>
      </trkpt>
      <trkpt lat="42.290572" lon="-0.461751">
        <ele>1513.2</ele>
        <time>2018-07-22T07:42:38.000Z</time>
      </trkpt>
      <trkpt lat="42.290569" lon="-0.461767">
        <ele>1513.3</ele>
        <time>2018-07-22T07:42:39.000Z</time>
      </trkpt>
      <trkpt lat="42.290567" lon="-0.461782">
        <ele>1513.4</ele>
        <time>2018-07-22T07:42:40.000Z</time>
      </trkpt>
      <trkpt lat="42.290565" lon="-0.461797">
        <ele>1513.5</ele>
        <time>2018-07-22T07:42:41.000Z</time>
      </trkpt>
      <trkpt lat="42.290563" lon="-0.461812">
        <ele>1513.7</ele>
        <time>2018-07-22T07:42:42.000Z</time>
      </trkpt>
      <trkpt lat="42.290562" lon="-0.461827">
        <ele>1513.8</ele>
        <time>2018-07-22T07:42:43.000Z</time>
      </trkpt>
      <trkpt lat="42.29056" lon="-0.461842">
        <ele>1513.9</ele>
        <time>2018-07-22T07:42:44.000Z</time>
      </trkpt>
      <trkpt lat="42.290559" lon="-0.461857">
        <ele>1514.0</ele>
        <time>2018-07-22T07:42:45.000Z</time>
      </trkpt>
      <trkpt lat="42.290557" lon="-0.461872">
        <ele>1514.2</ele>
        <time>2018-07-22T07:42:46.000Z</time>
      </trkpt>
      <trkpt lat="42.290556" lon="-0.461887">
        <ele>1514.3</ele>
        <time>2018-07-22T07:42:47.000Z</time>
      </trkpt>
      <trkpt lat="42.290554" lon="-0.461901">
        <ele>1514.4</ele>
        <time>2018-07-22T07:42:48.000Z</time>
      </trkpt>
      <trkpt lat="42.290553" lon="-0.461916">
        <ele>1514.5</ele>
        <time>2018-07-22T07:42:49.000Z</time>
      </trkpt>
      <trkpt lat="42.290552" lon="-0.461931">
        <ele>1514.7</ele>
        <time>2018-07-22T07:42:50.000Z</time>
      </trkpt>
      <trkpt lat="42.29055" lon="-0.461946">
        <ele>1514.8</ele>
        <time>2018-07-22T07:42:51.000Z</time>
      </trkpt>
      <trkpt lat="42.290549" lon="-0.461961">
        <ele>1515.0</ele>
        <time>2018-07-22T07:42:52.000Z</time>
      </trkpt>
      <trkpt lat="42.290548" lon="-0.461976">
        <ele>1515.1</ele>
        <time>2018-07-22T07:42:53.000Z</time>
      </trkpt>
      <trkpt lat="42.290546" lon="-0.461991">
        <ele>1515.2</ele>
        <time>2018-07-22T07:42:54.000Z</time>
      </trkpt>
      <trkpt lat="42.290544" lon="-0.462007">
        <ele>1515.4</ele>
        <time>2018-07-22T07:42:55.000Z</time>
      </trkpt>
      <trkpt lat="42.290543" lon="-0.462022">
        <ele>1515.5</ele>
        <time>2018-07-22T07:42:56.000Z</time>
      </trkpt>
      <trkpt lat="42.290541" lon="-0.462037">
        <ele>1515.6</ele>
        <time>2018-07-22T07:42:57.000Z</time>
      </trkpt>
      <trkpt lat="42.290539" lon="-0.462052">
        <ele>1515.8</ele>
        <time>2018-07-22T07:42:58.000Z</time>
      </trkpt>
      <trkpt lat="42.290536" lon="-0.462067">
        <ele>1515.9</ele>
        <time>2018-07-22T07:42:59.000Z</time>
      </trkpt>
      <trkpt lat="42.290534" lon="-0.462083">
        <ele>1516.0</ele>
        <time>2018-07-22T07:43:00.000Z</time>
      </trkpt>
      <trkpt lat="42.290531" lon="-0.462098">
        <ele>1516.1</ele>
        <time>2018-07-22T07:43:01.000Z</time>
      </trkpt>
      <trkpt lat="42.290529" lon="-0.462113">
        <ele>1516.3</ele>
        <time>2018-07-22T07:43:02.000Z</time>
      </trkpt>
      <trkpt lat="42.290526" lon="-0.462128">
        <ele>1516.4</ele>
        <time>2018-07-22T07:43:03.000Z</time>
      </trkpt>
      <trkpt lat="42.290523" lon="-0.462143">
        <ele>1516.5</ele>
        <time>2018-07-22T07:43:04.000Z</time>
      </trkpt>
      <trkpt lat="42.29052" lon="-0.462158">
        <ele>1516.6</ele>
        <time>2018-07-22T07:43:05.000Z</time>
      </trkpt>
      <trkpt lat="42.290518" lon="-0.462174">
        <ele>1516.8</ele>
        <time>2018-07-22T07:43:06.000Z</time>
      </trkpt>
      <trkpt lat="42.290515" lon="-0.462189">
        <ele>1516.9</ele>
        <time>2018-07-22T07:43:07.000Z</time>
      </trkpt>
      <trkpt lat="42.290512" lon="-0.462204">
        <ele>1517.0</ele>
        <time>2018-07-22T07:43:08.000Z</time>
      </trkpt>
      <trkpt lat="42.29051" lon="-0.46222">
        <ele>1517.2</ele>
        <time>2018-07-22T07:43:09.000Z</time>
      </trkpt>
      <trkpt lat="42.290508" lon="-0.462235">
        <ele>1517.3</ele>
        <time>2018-07-22T07:43:10.000Z</time>
      </trkpt>
      <trkpt lat="42.290507" lon="-0.462251">
        <ele>1517.5</ele>
        <time>2018-07-22T07:43:11.000Z</time>
      </trkpt>
      <trkpt lat="42.290506" lon="-0.462267">
        <ele>1517.6</ele>
        <time>2018-07-22T07:43:12.000Z</time>
      </trkpt>
      <trkpt lat="42.290505" lon="-0.462282">
        <ele>1517.8</ele>
        <time>2018-07-22T07:43:13.000Z</time>
      </trkpt>
      <trkpt lat="42.290504" lon="-0.462298">
        <ele>1518.0</ele>
        <time>2018-07-22T07:43:14.000Z</time>
      </trkpt>
      <trkpt lat="42.290504" lon="-0.462314">
        <ele>1518.1</ele>
        <time>2018-07-22T07:43:15.000Z</time>
      </trkpt>
      <trkpt lat="42.290504" lon="-0.46233">
        <ele>1518.3</ele>
        <time>2018-07-22T07:43:16.000Z</time>
      </trkpt>
      <trkpt lat="42.290504" lon="-0.462346">
        <ele>1518.5</ele>
        <time>2018-07-22T07:43:17.000Z</time>
      </trkpt>
      <trkpt lat="42.290505" lon="-0.462362">
        <ele>1518.7</ele>
        <time>2018-07-22T07:43:18.000Z</time>
      </trkpt>
      <trkpt lat="42.290506" lon="-0.462378">
        <ele>1518.9</ele>
        <time>2018-07-22T07:43:19.000Z</time>
      </trkpt>
      <trkpt lat="42.290507" lon="-0.462394">
        <ele>1519.1</ele>
        <time>2018-07-22T07:43:20.000Z</time>
      </trkpt>
      <trkpt lat="42.290508" lon="-0.46241">
        <ele>1519.3</ele>
        <time>2018-07-22T07:43:21.000Z</time>
      </trkpt>
      <trkpt lat="42.29051" lon="-0.462426">
        <ele>1519.5</ele>
        <time>2018-07-22T07:43:22.000Z</time>
      </trkpt>
      <trkpt lat="42.290512" lon="-0.462442">
        <ele>1519.7</ele>
        <time>2018-07-22T07:43:23.000Z</time>
      </trkpt>
      <trkpt lat="42.290514" lon="-0.462458">
        <ele>1519.9</ele>
        <time>2018-07-22T07:43:24.000Z</time>
      </trkpt>
      <trkpt lat="42.290517" lon="-0.462474">
        <ele>1520.1</ele>
        <time>2018-07-22T07:43:25.000Z</time>
      </trkpt>
      <trkpt lat="42.290519" lon="-0.46249">
        <ele>1520.2</ele>
        <time>2018-07-22T07:43:26.000Z</time>
      </trkpt>
      <trkpt lat="42.290522" lon="-0.462506">
        <ele>1520.4</ele>
        <time>2018-07-22T07:43:27.000Z</time>
      </trkpt>
      <trkpt lat="42.290525" lon="-0.462522">
        <ele>1520.6</ele>
        <time>2018-07-22T07:43:28.000Z</time>
      </trkpt>
      <trkpt lat="42.290528" lon="-0.462538">
        <ele>1520.7</ele>
        <time>2018-07-22T07:43:29.000Z</time>
      </trkpt>
      <trkpt lat="42.290531" lon="-0.462554">
        <ele>1520.8</ele>
        <time>2018-07-22T07:43:30.000Z</time>
      </trkpt>
      <trkpt lat="42.290534" lon="-0.46257">
        <ele>1520.9</ele>
        <time>2018-07-22T07:43:31.000Z</time>
      </trkpt>
      <trkpt lat="42.290537" lon="-0.462586">
        <ele>1521.1</ele>
        <time>2018-07-22T07:43:32.000Z</time>
      </trkpt>
      <trkpt lat="42.29054" lon="-0.462603">
        <ele>1521.2</ele>
        <time>2018-07-22T07:43:33.000Z</time>
      </trkpt>
      <trkpt lat="42.290543" lon="-0.462619">
        <ele>1521.3</ele>
        <time>2018-07-22T07:43:34.000Z</time>
      </trkpt>
      <trkpt lat="42.290546" lon="-0.462636">
        <ele>1521.5</ele>
        <time>2018-07-22T07:43:35.000Z</time>
      </trkpt>
      <trkpt lat="42.290548" lon="-0.462652">
        <ele>1521.6</ele>
        <time>2018-07-22T07:43:36.000Z</time>
      </trkpt>
      <trkpt lat="42.29055" lon="-0.462669">
        <ele>1521.7</ele>
        <time>2018-07-22T07:43:37.000Z</time>
      </trkpt>
      <trkpt lat="42.290552" lon="-0.462685">
        <ele>1521.8</ele>
        <time>2018-07-22T07:43:38.000Z</time>
      </trkpt>
      <trkpt lat="42.290554" lon="-0.462702">
        <ele>1521.9</ele>
        <time>2018-07-22T07:43:39.000Z</time>
      </trkpt>
      <trkpt lat="42.290555" lon="-0.462719">
        <ele>1522.1</ele>
        <time>2018-07-22T07:43:40.000Z</time>
      </trkpt>
      <trkpt lat="42.290556" lon="-0.462736">
        <ele>1522.2</ele>
        <time>2018-07-22T07:43:41.000Z</time>
      </trkpt>
      <trkpt lat="42.290556" lon="-0.462753">
        <ele>1522.3</ele>
        <time>2018-07-22T07:43:42.000Z</time>
      </trkpt>
      <trkpt lat="42.290555" lon="-0.46277">
        <ele>1522.4</ele>
        <time>2018-07-22T07:43:43.000Z</time>
      </trkpt>
      <trkpt lat="42.290554" lon="-0.462787">
        <ele>1522.5</ele>
        <time>2018-07-22T07:43:44.000Z</time>
      </trkpt>
      <trkpt lat="42.290552" lon="-0.462804">
        <ele>1522.6</ele>
        <time>2018-07-22T07:43:45.000Z</time>
      </trkpt>
      <trkpt lat="42.29055" lon="-0.462821">
        <ele>1522.7</ele>
        <time>2018-07-22T07:43:46.000Z</time>
      </trkpt>
      <trkpt lat="42.290548" lon="-0.462838">
        <ele>1522.8</ele>
        <time>2018-07-22T07:43:47.000Z</time>
      </trkpt>
      <trkpt lat="42.290546" lon="-0.462854">
        <ele>1522.9</ele>
        <time>2018-07-22T07:43:48.000Z</time>
      </trkpt>
      <trkpt lat="42.290545" lon="-0.462869">
        <ele>1522.9</ele>
        <time>2018-07-22T07:43:49.000Z</time>
      </trkpt>
      <trkpt lat="42.290544" lon="-0.462883">
        <ele>1523.0</ele>
        <time>2018-07-22T07:43:50.000Z</time>
      </trkpt>
      <trkpt lat="42.290543" lon="-0.462898">
        <ele>1523.1</ele>
        <time>2018-07-22T07:43:51.000Z</time>
      </trkpt>
      <trkpt lat="42.290542" lon="-0.462912">
        <ele>1523.2</ele>
        <time>2018-07-22T07:43:52.000Z</time>
      </trkpt>
      <trkpt lat="42.290541" lon="-0.462927">
        <ele>1523.3</ele>
        <time>2018-07-22T07:43:53.000Z</time>
      </trkpt>
      <trkpt lat="42.290541" lon="-0.462942">
        <ele>1523.4</ele>
        <time>2018-07-22T07:43:54.000Z</time>
      </trkpt>
      <trkpt lat="42.29054" lon="-0.462957">
        <ele>1523.5</ele>
        <time>2018-07-22T07:43:55.000Z</time>
      </trkpt>
      <trkpt lat="42.290539" lon="-0.462973">
        <ele>1523.6</ele>
        <time>2018-07-22T07:43:56.000Z</time>
      </trkpt>
      <trkpt lat="42.290538" lon="-0.462989">
        <ele>1523.7</ele>
        <time>2018-07-22T07:43:57.000Z</time>
      </trkpt>
      <trkpt lat="42.290537" lon="-0.463004">
        <ele>1523.7</ele>
        <time>2018-07-22T07:43:58.000Z</time>
      </trkpt>
      <trkpt lat="42.290536" lon="-0.463019">
        <ele>1523.8</ele>
        <time>2018-07-22T07:43:59.000Z</time>
      </trkpt>
      <trkpt lat="42.290536" lon="-0.463033">
        <ele>1523.9</ele>
        <time>2018-07-22T07:44:00.000Z</time>
      </trkpt>
      <trkpt lat="42.290535" lon="-0.463047">
        <ele>1524.0</ele>
        <time>2018-07-22T07:44:01.000Z</time>
      </trkpt>
      <trkpt lat="42.290534" lon="-0.46306">
        <ele>1524.1</ele>
        <time>2018-07-22T07:44:02.000Z</time>
      </trkpt>
      <trkpt lat="42.290534" lon="-0.463073">
        <ele>1524.2</ele>
        <time>2018-07-22T07:44:03.000Z</time>
      </trkpt>
      <trkpt lat="42.290535" lon="-0.463087">
        <ele>1524.3</ele>
        <time>2018-07-22T07:44:04.000Z</time>
      </trkpt>
      <trkpt lat="42.290536" lon="-0.463101">
        <ele>1524.4</ele>
        <time>2018-07-22T07:44:05.000Z</time>
      </trkpt>
      <trkpt lat="42.290538" lon="-0.463116">
        <ele>1524.5</ele>
        <time>2018-07-22T07:44:06.000Z</time>
      </trkpt>
      <trkpt lat="42.29054" lon="-0.463131">
        <ele>1524.6</ele>
        <time>2018-07-22T07:44:07.000Z</time>
      </trkpt>
      <trkpt lat="42.290542" lon="-0.463146">
        <ele>1524.7</ele>
        <time>2018-07-22T07:44:08.000Z</time>
      </trkpt>
      <trkpt lat="42.290545" lon="-0.463161">
        <ele>1524.8</ele>
        <time>2018-07-22T07:44:09.000Z</time>
      </trkpt>
      <trkpt lat="42.290549" lon="-0.463175">
        <ele>1524.9</ele>
        <time>2018-07-22T07:44:10.000Z</time>
      </trkpt>
      <trkpt lat="42.290552" lon="-0.463189">
        <ele>1525.0</ele>
        <time>2018-07-22T07:44:11.000Z</time>
      </trkpt>
      <trkpt lat="42.290556" lon="-0.463202">
        <ele>1525.2</ele>
        <time>2018-07-22T07:44:12.000Z</time>
      </trkpt>
      <trkpt lat="42.290559" lon="-0.463212">
        <ele>1525.2</ele>
        <time>2018-07-22T07:44:13.000Z</time>
      </trkpt>
      <trkpt lat="42.290562" lon="-0.463219">
        <ele>1525.3</ele>
        <time>2018-07-22T07:44:14.000Z</time>
      </trkpt>
      <trkpt lat="42.290564" lon="-0.463222">
        <ele>1525.3</ele>
        <time>2018-07-22T07:44:15.000Z</time>
      </trkpt>
      <trkpt lat="42.290564" lon="-0.46322">
        <ele>1525.3</ele>
        <time>2018-07-22T07:44:16.000Z</time>
      </trkpt>
      <trkpt lat="42.290563" lon="-0.463215">
        <ele>1525.3</ele>
        <time>2018-07-22T07:44:17.000Z</time>
      </trkpt>
      <trkpt lat="42.290562" lon="-0.463207">
        <ele>1525.2</ele>
        <time>2018-07-22T07:44:18.000Z</time>
      </trkpt>
      <trkpt lat="42.29056" lon="-0.463198">
        <ele>1525.2</ele>
        <time>2018-07-22T07:44:19.000Z</time>
      </trkpt>
      <trkpt lat="42.290558" lon="-0.463189">
        <ele>1525.1</ele>
        <time>2018-07-22T07:44:20.000Z</time>
      </trkpt>
      <trkpt lat="42.290556" lon="-0.463181">
        <ele>1525.0</ele>
        <time>2018-07-22T07:44:21.000Z</time>
      </trkpt>
      <trkpt lat="42.290554" lon="-0.463176">
        <ele>1525.0</ele>
        <time>2018-07-22T07:44:22.000Z</time>
      </trkpt>
      <trkpt lat="42.290552" lon="-0.463172">
        <ele>1524.9</ele>
        <time>2018-07-22T07:44:23.000Z</time>
      </trkpt>
      <trkpt lat="42.29055" lon="-0.463171">
        <ele>1524.9</ele>
        <time>2018-07-22T07:44:24.000Z</time>
      </trkpt>
      <trkpt lat="42.290549" lon="-0.46317">
        <ele>1524.9</ele>
        <time>2018-07-22T07:44:25.000Z</time>
      </trkpt>
      <trkpt lat="42.290548" lon="-0.46317">
        <ele>1524.9</ele>
        <time>2018-07-22T07:44:26.000Z</time>
      </trkpt>
      <trkpt lat="42.290547" lon="-0.46317">
        <ele>1524.9</ele>
        <time>2018-07-22T07:44:27.000Z</time>
      </trkpt>
      <trkpt lat="42.290547" lon="-0.463169">
        <ele>1524.9</ele>
        <time>2018-07-22T07:44:28.000Z</time>
      </trkpt>
      <trkpt lat="42.290546" lon="-0.463169">
        <ele>1524.9</ele>
        <time>2018-07-22T07:44:29.000Z</time>
      </trkpt>
      <trkpt lat="42.290546" lon="-0.463169">
        <ele>1524.9</ele>
        <time>2018-07-22T07:44:30.000Z</time>
      </trkpt>
      <trkpt lat="42.290546" lon="-0.463169">
        <ele>1524.9</ele>
        <time>2018-07-22T07:44:31.000Z</time>
      </trkpt>
      <trkpt lat="42.290546" lon="-0.463169">
        <ele>1524.9</ele>
        <time>2018-07-22T07:44:32.000Z</time>
      </trkpt>
      <trkpt lat="42.290546" lon="-0.463169">
        <ele>1524.9</ele>
        <time>2018-07-22T07:44:33.000Z</time>
      </trkpt>
      <trkpt lat="42.290546" lon="-0.463169">
        <ele>1524.9</ele>
        <time>2018-07-22T07:44:34.000Z</time>
      </trkpt>
      <trkpt lat="42.290546" lon="-0.463169">
        <ele>1524.9</ele>
        <time>2018-07-22T07:44:35.000Z</time>
      </trkpt>
      <trkpt lat="42.290546" lon="-0.463169">
        <ele>1524.9</ele>
        <time>2018-07-22T07:44:36.000Z</time>
      </trkpt>
      <trkpt lat="42.290546" lon="-0.463169">
        <ele>1524.9</ele>
        <time>2018-07-22T07:44:37.000Z</time>
      </trkpt>
      <trkpt lat="42.290547" lon="-0.463169">
        <ele>1524.9</ele>
        <time>2018-07-22T07:44:38.000Z</time>
      </trkpt>
      <trkpt lat="42.290547" lon="-0.463169">
        <ele>1524.9</ele>
        <time>2018-07-22T07:44:39.000Z</time>
      </trkpt>
      <trkpt lat="42.290547" lon="-0.463169">
        <ele>1524.9</ele>
        <time>2018-07-22T07:44:40.000Z</time>
      </trkpt>
      <trkpt lat="42.290547" lon="-0.463169">
        <ele>1524.9</ele>
        <time>2018-07-22T07:44:41.000Z</time>
      </trkpt>
      <trkpt lat="42.290547" lon="-0.463169">
        <ele>1524.9</ele>
        <time>2018-07-22T07:44:42.000Z</time>
      </trkpt>
      <trkpt lat="42.290547" lon="-0.463169">
        <ele>1524.9</ele>
        <time>2018-07-22T07:44:43.000Z</time>
      </trkpt>
      <trkpt lat="42.290547" lon="-0.463169">
        <ele>1524.9</ele>
        <time>2018-07-22T07:44:44.000Z</time>
      </trkpt>
      <trkpt lat="42.290547" lon="-0.463169">
        <ele>1524.9</ele>
        <time>2018-07-22T07:44:45.000Z</time>
      </trkpt>
      <trkpt lat="42.290547" lon="-0.463169">
        <ele>1524.9</ele>
        <time>2018-07-22T07:44:46.000Z</time>
      </trkpt>
      <trkpt lat="42.290547" lon="-0.463169">
        <ele>1524.9</ele>
        <time>2018-07-22T07:44:47.000Z</time>
      </trkpt>
      <trkpt lat="42.290547" lon="-0.463169">
        <ele>1524.9</ele>
        <time>2018-07-22T07:44:48.000Z</time>
      </trkpt>
      <trkpt lat="42.290547" lon="-0.463169">
        <ele>1524.9</ele>
        <time>2018-07-22T07:44:49.000Z</time>
      </trkpt>
      <trkpt lat="42.290547" lon="-0.463169">
        <ele>1524.9</ele>
        <time>2018-07-22T07:44:50.000Z</time>
      </trkpt>
      <trkpt lat="42.290547" lon="-0.463169">
        <ele>1524.9</ele>
        <time>2018-07-22T07:44:51.000Z</time>
      </trkpt>
      <trkpt lat="42.290547" lon="-0.463169">
        <ele>1524.9</ele>
        <time>2018-07-22T07:44:52.000Z</time>
      </trkpt>
      <trkpt lat="42.290547" lon="-0.463169">
        <ele>1524.9</ele>
        <time>2018-07-22T07:44:53.000Z</time>
      </trkpt>
      <trkpt lat="42.290547" lon="-0.463169">
        <ele>1524.9</ele>
        <time>2018-07-22T07:44:54.000Z</time>
      </trkpt>
      <trkpt lat="42.290548" lon="-0.46317">
        <ele>1524.9</ele>
        <time>2018-07-22T07:44:55.000Z</time>
      </trkpt>
      <trkpt lat="42.290548" lon="-0.463171">
        <ele>1524.9</ele>
        <time>2018-07-22T07:44:56.000Z</time>
      </trkpt>
      <trkpt lat="42.290548" lon="-0.463172">
        <ele>1524.9</ele>
        <time>2018-07-22T07:44:57.000Z</time>
      </trkpt>
      <trkpt lat="42.290549" lon="-0.463173">
        <ele>1524.9</ele>
        <time>2018-07-22T07:44:58.000Z</time>
      </trkpt>
      <trkpt lat="42.290549" lon="-0.463175">
        <ele>1524.9</ele>
        <time>2018-07-22T07:44:59.000Z</time>
      </trkpt>
      <trkpt lat="42.29055" lon="-0.463178">
        <ele>1525.0</ele>
        <time>2018-07-22T07:45:00.000Z</time>
      </trkpt>
      <trkpt lat="42.290551" lon="-0.46318">
        <ele>1525.0</ele>
        <time>2018-07-22T07:45:01.000Z</time>
      </trkpt>
      <trkpt lat="42.290551" lon="-0.463182">
        <ele>1525.0</ele>
        <time>2018-07-22T07:45:02.000Z</time>
      </trkpt>
      <trkpt lat="42.290552" lon="-0.463183">
        <ele>1525.0</ele>
        <time>2018-07-22T07:45:03.000Z</time>
      </trkpt>
      <trkpt lat="42.290552" lon="-0.463183">
        <ele>1525.0</ele>
        <time>2018-07-22T07:45:04.000Z</time>
      </trkpt>
      <trkpt lat="42.290552" lon="-0.463181">
        <ele>1525.0</ele>
        <time>2018-07-22T07:45:05.000Z</time>
      </trkpt>
      <trkpt lat="42.290551" lon="-0.463178">
        <ele>1525.0</ele>
        <time>2018-07-22T07:45:06.000Z</time>
      </trkpt>
      <trkpt lat="42.290551" lon="-0.463174">
        <ele>1524.9</ele>
        <time>2018-07-22T07:45:07.000Z</time>
      </trkpt>
      <trkpt lat="42.290551" lon="-0.46317">
        <ele>1524.9</ele>
        <time>2018-07-22T07:45:08.000Z</time>
      </trkpt>
      <trkpt lat="42.29055" lon="-0.463165">
        <ele>1524.9</ele>
        <time>2018-07-22T07:45:09.000Z</time>
      </trkpt>
      <trkpt lat="42.29055" lon="-0.463161">
        <ele>1524.9</ele>
        <time>2018-07-22T07:45:10.000Z</time>
      </trkpt>
      <trkpt lat="42.29055" lon="-0.463158">
        <ele>1524.8</ele>
        <time>2018-07-22T07:45:11.000Z</time>
      </trkpt>
      <trkpt lat="42.29055" lon="-0.463156">
        <ele>1524.8</ele>
        <time>2018-07-22T07:45:12.000Z</time>
      </trkpt>
      <trkpt lat="42.29055" lon="-0.463154">
        <ele>1524.8</ele>
        <time>2018-07-22T07:45:13.000Z</time>
      </trkpt>
      <trkpt lat="42.29055" lon="-0.463153">
        <ele>1524.8</ele>
        <time>2018-07-22T07:45:14.000Z</time>
      </trkpt>
      <trkpt lat="42.290551" lon="-0.463153">
        <ele>1524.8</ele>
        <time>2018-07-22T07:45:15.000Z</time>
      </trkpt>
      <trkpt lat="42.290551" lon="-0.463152">
        <ele>1524.8</ele>
        <time>2018-07-22T07:45:16.000Z</time>
      </trkpt>
      <trkpt lat="42.290551" lon="-0.463153">
        <ele>1524.8</ele>
        <time>2018-07-22T07:45:17.000Z</time>
      </trkpt>
      <trkpt lat="42.290551" lon="-0.463153">
        <ele>1524.8</ele>
        <time>2018-07-22T07:45:18.000Z</time>
      </trkpt>
      <trkpt lat="42.290551" lon="-0.463153">
        <ele>1524.8</ele>
        <time>2018-07-22T07:45:19.000Z</time>
      </trkpt>
      <trkpt lat="42.290551" lon="-0.463154">
        <ele>1524.8</ele>
        <time>2018-07-22T07:45:20.000Z</time>
      </trkpt>
      <trkpt lat="42.290551" lon="-0.463154">
        <ele>1524.8</ele>
        <time>2018-07-22T07:45:21.000Z</time>
      </trkpt>
      <trkpt lat="42.290551" lon="-0.463154">
        <ele>1524.8</ele>
        <time>2018-07-22T07:45:22.000Z</time>
      </trkpt>
      <trkpt lat="42.290551" lon="-0.463153">
        <ele>1524.8</ele>
        <time>2018-07-22T07:45:23.000Z</time>
      </trkpt>
      <trkpt lat="42.290552" lon="-0.463153">
        <ele>1524.8</ele>
        <time>2018-07-22T07:45:24.000Z</time>
      </trkpt>
      <trkpt lat="42.290554" lon="-0.463155">
        <ele>1524.8</ele>
        <time>2018-07-22T07:45:25.000Z</time>
      </trkpt>
      <trkpt lat="42.290556" lon="-0.46316">
        <ele>1524.9</ele>
        <time>2018-07-22T07:45:26.000Z</time>
      </trkpt>
      <trkpt lat="42.290559" lon="-0.46317">
        <ele>1525.0</ele>
        <time>2018-07-22T07:45:27.000Z</time>
      </trkpt>
      <trkpt lat="42.290562" lon="-0.463183">
        <ele>1525.1</ele>
        <time>2018-07-22T07:45:28.000Z</time>
      </trkpt>
      <trkpt lat="42.290563" lon="-0.463197">
        <ele>1525.2</ele>
        <time>2018-07-22T07:45:29.000Z</time>
      </trkpt>
      <trkpt lat="42.290563" lon="-0.463211">
        <ele>1525.3</ele>
        <time>2018-07-22T07:45:30.000Z</time>
      </trkpt>
      <trkpt lat="42.29056" lon="-0.463222">
        <ele>1525.3</ele>
        <time>2018-07-22T07:45:31.000Z</time>
      </trkpt>
      <trkpt lat="42.290554" lon="-0.463229">
        <ele>1525.3</ele>
        <time>2018-07-22T07:45:32.000Z</time>
      </trkpt>
      <trkpt lat="42.290546" lon="-0.463233">
        <ele>1525.3</ele>
        <time>2018-07-22T07:45:33.000Z</time>
      </trkpt>
      <trkpt lat="42.290535" lon="-0.463235">
        <ele>1525.2</ele>
        <time>2018-07-22T07:45:34.000Z</time>
      </trkpt>
      <trkpt lat="42.290524" lon="-0.463235">
        <ele>1525.1</ele>
        <time>2018-07-22T07:45:35.000Z</time>
      </trkpt>
      <trkpt lat="42.290512" lon="-0.463236">
        <ele>1525.1</ele>
        <time>2018-07-22T07:45:36.000Z</time>
      </trkpt>
      <trkpt lat="42.2905" lon="-0.463238">
        <ele>1525.0</ele>
        <time>2018-07-22T07:45:37.000Z</time>
      </trkpt>
      <trkpt lat="42.29049" lon="-0.463242">
        <ele>1524.9</ele>
        <time>2018-07-22T07:45:38.000Z</time>
      </trkpt>
      <trkpt lat="42.290481" lon="-0.463248">
        <ele>1524.9</ele>
        <time>2018-07-22T07:45:39.000Z</time>
      </trkpt>
      <trkpt lat="42.290472" lon="-0.463254">
        <ele>1524.9</ele>
        <time>2018-07-22T07:45:40.000Z</time>
      </trkpt>
      <trkpt lat="42.290463" lon="-0.463261">
        <ele>1524.9</ele>
        <time>2018-07-22T07:45:41.000Z</time>
      </trkpt>
      <trkpt lat="42.290455" lon="-0.463267">
        <ele>1524.8</ele>
        <time>2018-07-22T07:45:42.000Z</time>
      </trkpt>
      <trkpt lat="42.290445" lon="-0.463272">
        <ele>1524.8</ele>
        <time>2018-07-22T07:45:43.000Z</time>
      </trkpt>
      <trkpt lat="42.290436" lon="-0.463275">
        <ele>1524.8</ele>
        <time>2018-07-22T07:45:44.000Z</time>
      </trkpt>
      <trkpt lat="42.290426" lon="-0.463278">
        <ele>1524.7</ele>
        <time>2018-07-22T07:45:45.000Z</time>
      </trkpt>
      <trkpt lat="42.290415" lon="-0.463279">
        <ele>1524.6</ele>
        <time>2018-07-22T07:45:46.000Z</time>
      </trkpt>
      <trkpt lat="42.290405" lon="-0.463279">
        <ele>1524.6</ele>
        <time>2018-07-22T07:45:47.000Z</time>
      </trkpt>
      <trkpt lat="42.290395" lon="-0.463279">
        <ele>1524.5</ele>
        <time>2018-07-22T07:45:48.000Z</time>
      </trkpt>
      <trkpt lat="42.290386" lon="-0.463278">
        <ele>1524.4</ele>
        <time>2018-07-22T07:45:49.000Z</time>
      </trkpt>
      <trkpt lat="42.290376" lon="-0.463276">
        <ele>1524.3</ele>
        <time>2018-07-22T07:45:50.000Z</time>
      </trkpt>
      <trkpt lat="42.290367" lon="-0.463275">
        <ele>1524.3</ele>
        <time>2018-07-22T07:45:51.000Z</time>
      </trkpt>
      <trkpt lat="42.290359" lon="-0.463273">
        <ele>1524.2</ele>
        <time>2018-07-22T07:45:52.000Z</time>
      </trkpt>
      <trkpt lat="42.290352" lon="-0.463271">
        <ele>1524.1</ele>
        <time>2018-07-22T07:45:53.000Z</time>
      </trkpt>
      <trkpt lat="42.290346" lon="-0.46327">
        <ele>1524.1</ele>
        <time>2018-07-22T07:45:54.000Z</time>
      </trkpt>
      <trkpt lat="42.29034" lon="-0.463269">
        <ele>1524.0</ele>
        <time>2018-07-22T07:45:55.000Z</time>
      </trkpt>
      <trkpt lat="42.290336" lon="-0.463268">
        <ele>1524.0</ele>
        <time>2018-07-22T07:45:56.000Z</time>
      </trkpt>
      <trkpt lat="42.290332" lon="-0.463267">
        <ele>1523.9</ele>
        <time>2018-07-22T07:45:57.000Z</time>
      </trkpt>
      <trkpt lat="42.290329" lon="-0.463266">
        <ele>1523.9</ele>
        <time>2018-07-22T07:45:58.000Z</time>
      </trkpt>
      <trkpt lat="42.290326" lon="-0.463266">
        <ele>1523.9</ele>
        <time>2018-07-22T07:45:59.000Z</time>
      </trkpt>
      <trkpt lat="42.290324" lon="-0.463265">
        <ele>1523.9</ele>
        <time>2018-07-22T07:46:00.000Z</time>
      </trkpt>
      <trkpt lat="42.290322" lon="-0.463265">
        <ele>1523.9</ele>
        <time>2018-07-22T07:46:01.000Z</time>
      </trkpt>
      <trkpt lat="42.290321" lon="-0.463265">
        <ele>1523.9</ele>
        <time>2018-07-22T07:46:02.000Z</time>
      </trkpt>
      <trkpt lat="42.29032" lon="-0.463264">
        <ele>1523.8</ele>
        <time>2018-07-22T07:46:03.000Z</time>
      </trkpt>
      <trkpt lat="42.290319" lon="-0.463264">
        <ele>1523.8</ele>
        <time>2018-07-22T07:46:04.000Z</time>
      </trkpt>
      <trkpt lat="42.290318" lon="-0.463264">
        <ele>1523.8</ele>
        <time>2018-07-22T07:46:05.000Z</time>
      </trkpt>
      <trkpt lat="42.290318" lon="-0.463264">
        <ele>1523.8</ele>
        <time>2018-07-22T07:46:06.000Z</time>
      </trkpt>
      <trkpt lat="42.290317" lon="-0.463264">
        <ele>1523.8</ele>
        <time>2018-07-22T07:46:07.000Z</time>
      </trkpt>
      <trkpt lat="42.290317" lon="-0.463264">
        <ele>1523.8</ele>
        <time>2018-07-22T07:46:08.000Z</time>
      </trkpt>
      <trkpt lat="42.290317" lon="-0.463264">
        <ele>1523.8</ele>
        <time>2018-07-22T07:46:09.000Z</time>
      </trkpt>
      <trkpt lat="42.290317" lon="-0.463264">
        <ele>1523.8</ele>
        <time>2018-07-22T07:46:10.000Z</time>
      </trkpt>
      <trkpt lat="42.290317" lon="-0.463264">
        <ele>1523.8</ele>
        <time>2018-07-22T07:46:11.000Z</time>
      </trkpt>
      <trkpt lat="42.290317" lon="-0.463264">
        <ele>1523.8</ele>
        <time>2018-07-22T07:46:12.000Z</time>
      </trkpt>
      <trkpt lat="42.290317" lon="-0.463264">
        <ele>1523.8</ele>
        <time>2018-07-22T07:46:13.000Z</time>
      </trkpt>
      <trkpt lat="42.290317" lon="-0.463264">
        <ele>1523.8</ele>
        <time>2018-07-22T07:46:14.000Z</time>
      </trkpt>
      <trkpt lat="42.290317" lon="-0.463264">
        <ele>1523.8</ele>
        <time>2018-07-22T07:46:15.000Z</time>
      </trkpt>
      <trkpt lat="42.290317" lon="-0.463264">
        <ele>1523.8</ele>
        <time>2018-07-22T07:46:16.000Z</time>
      </trkpt>
      <trkpt lat="42.290317" lon="-0.463264">
        <ele>1523.8</ele>
        <time>2018-07-22T07:46:17.000Z</time>
      </trkpt>
      <trkpt lat="42.290316" lon="-0.463264">
        <ele>1523.8</ele>
        <time>2018-07-22T07:46:18.000Z</time>
      </trkpt>
      <trkpt lat="42.290316" lon="-0.463263">
        <ele>1523.8</ele>
        <time>2018-07-22T07:46:19.000Z</time>
      </trkpt>
      <trkpt lat="42.290316" lon="-0.463263">
        <ele>1523.8</ele>
        <time>2018-07-22T07:46:20.000Z</time>
      </trkpt>
      <trkpt lat="42.290316" lon="-0.463263">
        <ele>1523.8</ele>
        <time>2018-07-22T07:46:21.000Z</time>
      </trkpt>
      <trkpt lat="42.290315" lon="-0.463263">
        <ele>1523.8</ele>
        <time>2018-07-22T07:46:22.000Z</time>
      </trkpt>
      <trkpt lat="42.290314" lon="-0.463263">
        <ele>1523.8</ele>
        <time>2018-07-22T07:46:23.000Z</time>
      </trkpt>
      <trkpt lat="42.290314" lon="-0.463263">
        <ele>1523.8</ele>
        <time>2018-07-22T07:46:24.000Z</time>
      </trkpt>
      <trkpt lat="42.290313" lon="-0.463262">
        <ele>1523.8</ele>
        <time>2018-07-22T07:46:25.000Z</time>
      </trkpt>
      <trkpt lat="42.290312" lon="-0.463262">
        <ele>1523.8</ele>
        <time>2018-07-22T07:46:26.000Z</time>
      </trkpt>
      <trkpt lat="42.29031" lon="-0.463262">
        <ele>1523.8</ele>
        <time>2018-07-22T07:46:27.000Z</time>
      </trkpt>
      <trkpt lat="42.290309" lon="-0.463261">
        <ele>1523.7</ele>
        <time>2018-07-22T07:46:28.000Z</time>
      </trkpt>
      <trkpt lat="42.290307" lon="-0.463261">
        <ele>1523.7</ele>
        <time>2018-07-22T07:46:29.000Z</time>
      </trkpt>
      <trkpt lat="42.290306" lon="-0.463261">
        <ele>1523.7</ele>
        <time>2018-07-22T07:46:30.000Z</time>
      </trkpt>
      <trkpt lat="42.290304" lon="-0.46326">
        <ele>1523.7</ele>
        <time>2018-07-22T07:46:31.000Z</time>
      </trkpt>
      <trkpt lat="42.290302" lon="-0.46326">
        <ele>1523.7</ele>
        <time>2018-07-22T07:46:32.000Z</time>
      </trkpt>
      <trkpt lat="42.290301" lon="-0.463259">
        <ele>1523.7</ele>
        <time>2018-07-22T07:46:33.000Z</time>
      </trkpt>
      <trkpt lat="42.290299" lon="-0.463258">
        <ele>1523.6</ele>
        <time>2018-07-22T07:46:34.000Z</time>
      </trkpt>
      <trkpt lat="42.290297" lon="-0.463256">
        <ele>1523.6</ele>
        <time>2018-07-22T07:46:35.000Z</time>
      </trkpt>
      <trkpt lat="42.290294" lon="-0.463256">
        <ele>1523.6</ele>
        <time>2018-07-22T07:46:36.000Z</time>
      </trkpt>
      <trkpt lat="42.290295" lon="-0.463266">
        <ele>1523.7</ele>
        <time>2018-07-22T07:46:37.000Z</time>
      </trkpt>
      <trkpt lat="42.2903" lon="-0.463273">
        <ele>1523.8</ele>
        <time>2018-07-22T07:46:38.000Z</time>
      </trkpt>
      <trkpt lat="42.290308" lon="-0.463275">
        <ele>1523.8</ele>
        <time>2018-07-22T07:46:39.000Z</time>
      </trkpt>
      <trkpt lat="42.290316" lon="-0.463275">
        <ele>1523.9</ele>
        <time>2018-07-22T07:46:40.000Z</time>
      </trkpt>
      <trkpt lat="42.290321" lon="-0.463274">
        <ele>1523.9</ele>
        <time>2018-07-22T07:46:41.000Z</time>
      </trkpt>
      <trkpt lat="42.290323" lon="-0.463272">
        <ele>1523.9</ele>
        <time>2018-07-22T07:46:42.000Z</time>
      </trkpt>
      <trkpt lat="42.290325" lon="-0.46327">
        <ele>1523.9</ele>
        <time>2018-07-22T07:46:43.000Z</time>
      </trkpt>
      <trkpt lat="42.290325" lon="-0.463269">
        <ele>1523.9</ele>
        <time>2018-07-22T07:46:44.000Z</time>
      </trkpt>
      <trkpt lat="42.290326" lon="-0.463269">
        <ele>1523.9</ele>
        <time>2018-07-22T07:46:45.000Z</time>
      </trkpt>
      <trkpt lat="42.290326" lon="-0.463268">
        <ele>1523.9</ele>
        <time>2018-07-22T07:46:46.000Z</time>
      </trkpt>
      <trkpt lat="42.290326" lon="-0.463268">
        <ele>1523.9</ele>
        <time>2018-07-22T07:46:47.000Z</time>
      </trkpt>
      <trkpt lat="42.290326" lon="-0.463268">
        <ele>1523.9</ele>
        <time>2018-07-22T07:46:48.000Z</time>
      </trkpt>
      <trkpt lat="42.290326" lon="-0.463268">
        <ele>1523.9</ele>
        <time>2018-07-22T07:46:49.000Z</time>
      </trkpt>
      <trkpt lat="42.290326" lon="-0.463268">
        <ele>1523.9</ele>
        <time>2018-07-22T07:46:50.000Z</time>
      </trkpt>
      <trkpt lat="42.290326" lon="-0.463268">
        <ele>1523.9</ele>
        <time>2018-07-22T07:46:51.000Z</time>
      </trkpt>
      <trkpt lat="42.290326" lon="-0.463268">
        <ele>1523.9</ele>
        <time>2018-07-22T07:46:52.000Z</time>
      </trkpt>
      <trkpt lat="42.290326" lon="-0.463268">
        <ele>1523.9</ele>
        <time>2018-07-22T07:46:53.000Z</time>
      </trkpt>
      <trkpt lat="42.290326" lon="-0.463268">
        <ele>1523.9</ele>
        <time>2018-07-22T07:46:54.000Z</time>
      </trkpt>
      <trkpt lat="42.290326" lon="-0.463268">
        <ele>1523.9</ele>
        <time>2018-07-22T07:46:55.000Z</time>
      </trkpt>
      <trkpt lat="42.290326" lon="-0.463268">
        <ele>1523.9</ele>
        <time>2018-07-22T07:46:56.000Z</time>
      </trkpt>
      <trkpt lat="42.290326" lon="-0.463268">
        <ele>1523.9</ele>
        <time>2018-07-22T07:46:57.000Z</time>
      </trkpt>
      <trkpt lat="42.290326" lon="-0.463268">
        <ele>1523.9</ele>
        <time>2018-07-22T07:46:58.000Z</time>
      </trkpt>
      <trkpt lat="42.290326" lon="-0.463268">
        <ele>1523.9</ele>
        <time>2018-07-22T07:46:59.000Z</time>
      </trkpt>
      <trkpt lat="42.290326" lon="-0.463268">
        <ele>1523.9</ele>
        <time>2018-07-22T07:47:00.000Z</time>
      </trkpt>
      <trkpt lat="42.290326" lon="-0.463268">
        <ele>1523.9</ele>
        <time>2018-07-22T07:47:01.000Z</time>
      </trkpt>
      <trkpt lat="42.290326" lon="-0.463268">
        <ele>1523.9</ele>
        <time>2018-07-22T07:47:02.000Z</time>
      </trkpt>
      <trkpt lat="42.290326" lon="-0.463268">
        <ele>1523.9</ele>
        <time>2018-07-22T07:47:03.000Z</time>
      </trkpt>
      <trkpt lat="42.290326" lon="-0.463268">
        <ele>1523.9</ele>
        <time>2018-07-22T07:47:04.000Z</time>
      </trkpt>
      <trkpt lat="42.290326" lon="-0.463268">
        <ele>1523.9</ele>
        <time>2018-07-22T07:47:05.000Z</time>
      </trkpt>
      <trkpt lat="42.290326" lon="-0.463268">
        <ele>1523.9</ele>
        <time>2018-07-22T07:47:06.000Z</time>
      </trkpt>
      <trkpt lat="42.290326" lon="-0.463268">
        <ele>1523.9</ele>
        <time>2018-07-22T07:47:07.000Z</time>
      </trkpt>
      <trkpt lat="42.290326" lon="-0.463268">
        <ele>1523.9</ele>
        <time>2018-07-22T07:47:08.000Z</time>
      </trkpt>
      <trkpt lat="42.290326" lon="-0.463268">
        <ele>1523.9</ele>
        <time>2018-07-22T07:47:09.000Z</time>
      </trkpt>
      <trkpt lat="42.290326" lon="-0.463268">
        <ele>1523.9</ele>
        <time>2018-07-22T07:47:10.000Z</time>
      </trkpt>
      <trkpt lat="42.290326" lon="-0.463268">
        <ele>1523.9</ele>
        <time>2018-07-22T07:47:11.000Z</time>
      </trkpt>
      <trkpt lat="42.290326" lon="-0.463268">
        <ele>1523.9</ele>
        <time>2018-07-22T07:47:12.000Z</time>
      </trkpt>
      <trkpt lat="42.290326" lon="-0.463268">
        <ele>1523.9</ele>
        <time>2018-07-22T07:47:13.000Z</time>
      </trkpt>
      <trkpt lat="42.290326" lon="-0.463268">
        <ele>1523.9</ele>
        <time>2018-07-22T07:47:14.000Z</time>
      </trkpt>
      <trkpt lat="42.290326" lon="-0.463268">
        <ele>1523.9</ele>
        <time>2018-07-22T07:47:15.000Z</time>
      </trkpt>
      <trkpt lat="42.290326" lon="-0.463268">
        <ele>1523.9</ele>
        <time>2018-07-22T07:47:16.000Z</time>
      </trkpt>
      <trkpt lat="42.290326" lon="-0.463268">
        <ele>1523.9</ele>
        <time>2018-07-22T07:47:17.000Z</time>
      </trkpt>
      <trkpt lat="42.290326" lon="-0.463268">
        <ele>1523.9</ele>
        <time>2018-07-22T07:47:18.000Z</time>
      </trkpt>
      <trkpt lat="42.290326" lon="-0.463268">
        <ele>1523.9</ele>
        <time>2018-07-22T07:47:19.000Z</time>
      </trkpt>
      <trkpt lat="42.290326" lon="-0.463268">
        <ele>1523.9</ele>
        <time>2018-07-22T07:47:20.000Z</time>
      </trkpt>
      <trkpt lat="42.290326" lon="-0.463268">
        <ele>1523.9</ele>
        <time>2018-07-22T07:47:21.000Z</time>
      </trkpt>
      <trkpt lat="42.290326" lon="-0.463268">
        <ele>1523.9</ele>
        <time>2018-07-22T07:47:22.000Z</time>
      </trkpt>
      <trkpt lat="42.290326" lon="-0.463268">
        <ele>1523.9</ele>
        <time>2018-07-22T07:47:23.000Z</time>
      </trkpt>
      <trkpt lat="42.290327" lon="-0.463268">
        <ele>1523.9</ele>
        <time>2018-07-22T07:47:24.000Z</time>
      </trkpt>
      <trkpt lat="42.290327" lon="-0.463269">
        <ele>1523.9</ele>
        <time>2018-07-22T07:47:25.000Z</time>
      </trkpt>
      <trkpt lat="42.290326" lon="-0.463268">
        <ele>1523.9</ele>
        <time>2018-07-22T07:47:26.000Z</time>
      </trkpt>
      <trkpt lat="42.290324" lon="-0.463266">
        <ele>1523.9</ele>
        <time>2018-07-22T07:47:27.000Z</time>
      </trkpt>
      <trkpt lat="42.290321" lon="-0.463264">
        <ele>1523.8</ele>
        <time>2018-07-22T07:47:28.000Z</time>
      </trkpt>
      <trkpt lat="42.290318" lon="-0.463261">
        <ele>1523.8</ele>
        <time>2018-07-22T07:47:29.000Z</time>
      </trkpt>
      <trkpt lat="42.290316" lon="-0.46326">
        <ele>1523.8</ele>
        <time>2018-07-22T07:47:30.000Z</time>
      </trkpt>
      <trkpt lat="42.290315" lon="-0.463259">
        <ele>1523.8</ele>
        <time>2018-07-22T07:47:31.000Z</time>
      </trkpt>
      <trkpt lat="42.290314" lon="-0.463259">
        <ele>1523.8</ele>
        <time>2018-07-22T07:47:32.000Z</time>
      </trkpt>
      <trkpt lat="42.290313" lon="-0.463259">
        <ele>1523.8</ele>
        <time>2018-07-22T07:47:33.000Z</time>
      </trkpt>
      <trkpt lat="42.290312" lon="-0.463259">
        <ele>1523.7</ele>
        <time>2018-07-22T07:47:34.000Z</time>
      </trkpt>
      <trkpt lat="42.290312" lon="-0.463259">
        <ele>1523.7</ele>
        <time>2018-07-22T07:47:35.000Z</time>
      </trkpt>
      <trkpt lat="42.290312" lon="-0.463259">
        <ele>1523.7</ele>
        <time>2018-07-22T07:47:36.000Z</time>
      </trkpt>
      <trkpt lat="42.290312" lon="-0.463259">
        <ele>1523.7</ele>
        <time>2018-07-22T07:47:37.000Z</time>
      </trkpt>
      <trkpt lat="42.290312" lon="-0.463259">
        <ele>1523.7</ele>
        <time>2018-07-22T07:47:38.000Z</time>
      </trkpt>
      <trkpt lat="42.290312" lon="-0.46326">
        <ele>1523.8</ele>
        <time>2018-07-22T07:47:39.000Z</time>
      </trkpt>
      <trkpt lat="42.290312" lon="-0.46326">
        <ele>1523.8</ele>
        <time>2018-07-22T07:47:40.000Z</time>
      </trkpt>
      <trkpt lat="42.290312" lon="-0.46326">
        <ele>1523.8</ele>
        <time>2018-07-22T07:47:41.000Z</time>
      </trkpt>
      <trkpt lat="42.290312" lon="-0.46326">
        <ele>1523.8</ele>
        <time>2018-07-22T07:47:42.000Z</time>
      </trkpt>
      <trkpt lat="42.290312" lon="-0.46326">
        <ele>1523.8</ele>
        <time>2018-07-22T07:47:43.000Z</time>
      </trkpt>
      <trkpt lat="42.290312" lon="-0.46326">
        <ele>1523.8</ele>
        <time>2018-07-22T07:47:44.000Z</time>
      </trkpt>
      <trkpt lat="42.290312" lon="-0.46326">
        <ele>1523.8</ele>
        <time>2018-07-22T07:47:45.000Z</time>
      </trkpt>
      <trkpt lat="42.290312" lon="-0.46326">
        <ele>1523.8</ele>
        <time>2018-07-22T07:47:46.000Z</time>
      </trkpt>
      <trkpt lat="42.290311" lon="-0.46326">
        <ele>1523.7</ele>
        <time>2018-07-22T07:47:47.000Z</time>
      </trkpt>
      <trkpt lat="42.290311" lon="-0.46326">
        <ele>1523.7</ele>
        <time>2018-07-22T07:47:48.000Z</time>
      </trkpt>
      <trkpt lat="42.290311" lon="-0.463259">
        <ele>1523.7</ele>
        <time>2018-07-22T07:47:49.000Z</time>
      </trkpt>
      <trkpt lat="42.290311" lon="-0.463259">
        <ele>1523.7</ele>
        <time>2018-07-22T07:47:50.000Z</time>
      </trkpt>
      <trkpt lat="42.29031" lon="-0.463259">
        <ele>1523.7</ele>
        <time>2018-07-22T07:47:51.000Z</time>
      </trkpt>
      <trkpt lat="42.29031" lon="-0.463259">
        <ele>1523.7</ele>
        <time>2018-07-22T07:47:52.000Z</time>
      </trkpt>
      <trkpt lat="42.29031" lon="-0.463259">
        <ele>1523.7</ele>
        <time>2018-07-22T07:47:53.000Z</time>
      </trkpt>
      <trkpt lat="42.29031" lon="-0.463259">
        <ele>1523.7</ele>
        <time>2018-07-22T07:47:54.000Z</time>
      </trkpt>
      <trkpt lat="42.29031" lon="-0.463258">
        <ele>1523.7</ele>
        <time>2018-07-22T07:47:55.000Z</time>
      </trkpt>
      <trkpt lat="42.29031" lon="-0.463258">
        <ele>1523.7</ele>
        <time>2018-07-22T07:47:56.000Z</time>
      </trkpt>
      <trkpt lat="42.29031" lon="-0.463258">
        <ele>1523.7</ele>
        <time>2018-07-22T07:47:57.000Z</time>
      </trkpt>
      <trkpt lat="42.290309" lon="-0.463258">
        <ele>1523.7</ele>
        <time>2018-07-22T07:47:58.000Z</time>
      </trkpt>
      <trkpt lat="42.290309" lon="-0.463258">
        <ele>1523.7</ele>
        <time>2018-07-22T07:47:59.000Z</time>
      </trkpt>
      <trkpt lat="42.290309" lon="-0.463258">
        <ele>1523.7</ele>
        <time>2018-07-22T07:48:00.000Z</time>
      </trkpt>
      <trkpt lat="42.290309" lon="-0.463258">
        <ele>1523.7</ele>
        <time>2018-07-22T07:48:01.000Z</time>
      </trkpt>
      <trkpt lat="42.290309" lon="-0.463258">
        <ele>1523.7</ele>
        <time>2018-07-22T07:48:02.000Z</time>
      </trkpt>
      <trkpt lat="42.290309" lon="-0.463258">
        <ele>1523.7</ele>
        <time>2018-07-22T07:48:03.000Z</time>
      </trkpt>
      <trkpt lat="42.290309" lon="-0.463258">
        <ele>1523.7</ele>
        <time>2018-07-22T07:48:04.000Z</time>
      </trkpt>
      <trkpt lat="42.290309" lon="-0.463258">
        <ele>1523.7</ele>
        <time>2018-07-22T07:48:05.000Z</time>
      </trkpt>
      <trkpt lat="42.290309" lon="-0.463258">
        <ele>1523.7</ele>
        <time>2018-07-22T07:48:06.000Z</time>
      </trkpt>
      <trkpt lat="42.29031" lon="-0.463258">
        <ele>1523.7</ele>
        <time>2018-07-22T07:48:07.000Z</time>
      </trkpt>
      <trkpt lat="42.29031" lon="-0.463258">
        <ele>1523.7</ele>
        <time>2018-07-22T07:48:08.000Z</time>
      </trkpt>
      <trkpt lat="42.290309" lon="-0.463258">
        <ele>1523.7</ele>
        <time>2018-07-22T07:48:09.000Z</time>
      </trkpt>
      <trkpt lat="42.290308" lon="-0.463257">
        <ele>1523.7</ele>
        <time>2018-07-22T07:48:10.000Z</time>
      </trkpt>
      <trkpt lat="42.290307" lon="-0.463256">
        <ele>1523.7</ele>
        <time>2018-07-22T07:48:11.000Z</time>
      </trkpt>
      <trkpt lat="42.290307" lon="-0.463259">
        <ele>1523.7</ele>
        <time>2018-07-22T07:48:12.000Z</time>
      </trkpt>
      <trkpt lat="42.290309" lon="-0.463266">
        <ele>1523.8</ele>
        <time>2018-07-22T07:48:13.000Z</time>
      </trkpt>
      <trkpt lat="42.290311" lon="-0.463276">
        <ele>1523.9</ele>
        <time>2018-07-22T07:48:14.000Z</time>
      </trkpt>
      <trkpt lat="42.290314" lon="-0.463289">
        <ele>1524.0</ele>
        <time>2018-07-22T07:48:15.000Z</time>
      </trkpt>
      <trkpt lat="42.290316" lon="-0.463303">
        <ele>1524.1</ele>
        <time>2018-07-22T07:48:16.000Z</time>
      </trkpt>
      <trkpt lat="42.290318" lon="-0.463319">
        <ele>1524.2</ele>
        <time>2018-07-22T07:48:17.000Z</time>
      </trkpt>
      <trkpt lat="42.290319" lon="-0.463335">
        <ele>1524.3</ele>
        <time>2018-07-22T07:48:18.000Z</time>
      </trkpt>
      <trkpt lat="42.29032" lon="-0.463351">
        <ele>1524.2</ele>
        <time>2018-07-22T07:48:19.000Z</time>
      </trkpt>
      <trkpt lat="42.290321" lon="-0.463366">
        <ele>1524.1</ele>
        <time>2018-07-22T07:48:20.000Z</time>
      </trkpt>
      <trkpt lat="42.290321" lon="-0.46338">
        <ele>1524.1</ele>
        <time>2018-07-22T07:48:21.000Z</time>
      </trkpt>
      <trkpt lat="42.29032" lon="-0.463394">
        <ele>1524.0</ele>
        <time>2018-07-22T07:48:22.000Z</time>
      </trkpt>
      <trkpt lat="42.29032" lon="-0.463407">
        <ele>1523.9</ele>
        <time>2018-07-22T07:48:23.000Z</time>
      </trkpt>
      <trkpt lat="42.290319" lon="-0.46342">
        <ele>1523.8</ele>
        <time>2018-07-22T07:48:24.000Z</time>
      </trkpt>
      <trkpt lat="42.290318" lon="-0.463432">
        <ele>1523.8</ele>
        <time>2018-07-22T07:48:25.000Z</time>
      </trkpt>
      <trkpt lat="42.290316" lon="-0.463444">
        <ele>1523.7</ele>
        <time>2018-07-22T07:48:26.000Z</time>
      </trkpt>
      <trkpt lat="42.290315" lon="-0.463456">
        <ele>1523.6</ele>
        <time>2018-07-22T07:48:27.000Z</time>
      </trkpt>
      <trkpt lat="42.290315" lon="-0.463468">
        <ele>1523.6</ele>
        <time>2018-07-22T07:48:28.000Z</time>
      </trkpt>
      <trkpt lat="42.290314" lon="-0.463479">
        <ele>1523.5</ele>
        <time>2018-07-22T07:48:29.000Z</time>
      </trkpt>
      <trkpt lat="42.290315" lon="-0.463491">
        <ele>1523.4</ele>
        <time>2018-07-22T07:48:30.000Z</time>
      </trkpt>
      <trkpt lat="42.290316" lon="-0.463501">
        <ele>1523.4</ele>
        <time>2018-07-22T07:48:31.000Z</time>
      </trkpt>
      <trkpt lat="42.290318" lon="-0.463511">
        <ele>1523.4</ele>
        <time>2018-07-22T07:48:32.000Z</time>
      </trkpt>
      <trkpt lat="42.290321" lon="-0.463521">
        <ele>1523.3</ele>
        <time>2018-07-22T07:48:33.000Z</time>
      </trkpt>
      <trkpt lat="42.290324" lon="-0.463531">
        <ele>1523.3</ele>
        <time>2018-07-22T07:48:34.000Z</time>
      </trkpt>
      <trkpt lat="42.290327" lon="-0.463542">
        <ele>1523.3</ele>
        <time>2018-07-22T07:48:35.000Z</time>
      </trkpt>
      <trkpt lat="42.290329" lon="-0.463553">
        <ele>1523.2</ele>
        <time>2018-07-22T07:48:36.000Z</time>
      </trkpt>
      <trkpt lat="42.29033" lon="-0.463566">
        <ele>1523.1</ele>
        <time>2018-07-22T07:48:37.000Z</time>
      </trkpt>
      <trkpt lat="42.29033" lon="-0.463579">
        <ele>1523.1</ele>
        <time>2018-07-22T07:48:38.000Z</time>
      </trkpt>
      <trkpt lat="42.29033" lon="-0.463593">
        <ele>1523.0</ele>
        <time>2018-07-22T07:48:39.000Z</time>
      </trkpt>
      <trkpt lat="42.290329" lon="-0.463605">
        <ele>1522.9</ele>
        <time>2018-07-22T07:48:40.000Z</time>
      </trkpt>
      <trkpt lat="42.290328" lon="-0.463615">
        <ele>1522.9</ele>
        <time>2018-07-22T07:48:41.000Z</time>
      </trkpt>
      <trkpt lat="42.290327" lon="-0.463623">
        <ele>1522.8</ele>
        <time>2018-07-22T07:48:42.000Z</time>
      </trkpt>
      <trkpt lat="42.290326" lon="-0.463627">
        <ele>1522.8</ele>
        <time>2018-07-22T07:48:43.000Z</time>
      </trkpt>
      <trkpt lat="42.290325" lon="-0.463629">
        <ele>1522.8</ele>
        <time>2018-07-22T07:48:44.000Z</time>
      </trkpt>
      <trkpt lat="42.290325" lon="-0.46363">
        <ele>1522.8</ele>
        <time>2018-07-22T07:48:45.000Z</time>
      </trkpt>
      <trkpt lat="42.290325" lon="-0.463631">
        <ele>1522.8</ele>
        <time>2018-07-22T07:48:46.000Z</time>
      </trkpt>
      <trkpt lat="42.290325" lon="-0.463633">
        <ele>1522.8</ele>
        <time>2018-07-22T07:48:47.000Z</time>
      </trkpt>
      <trkpt lat="42.290324" lon="-0.463636">
        <ele>1522.7</ele>
        <time>2018-07-22T07:48:48.000Z</time>
      </trkpt>
      <trkpt lat="42.290324" lon="-0.463639">
        <ele>1522.7</ele>
        <time>2018-07-22T07:48:49.000Z</time>
      </trkpt>
      <trkpt lat="42.290323" lon="-0.463641">
        <ele>1522.7</ele>
        <time>2018-07-22T07:48:50.000Z</time>
      </trkpt>
      <trkpt lat="42.290322" lon="-0.463643">
        <ele>1522.7</ele>
        <time>2018-07-22T07:48:51.000Z</time>
      </trkpt>
      <trkpt lat="42.290321" lon="-0.463646">
        <ele>1522.7</ele>
        <time>2018-07-22T07:48:52.000Z</time>
      </trkpt>
      <trkpt lat="42.290321" lon="-0.463655">
        <ele>1522.6</ele>
        <time>2018-07-22T07:48:53.000Z</time>
      </trkpt>
      <trkpt lat="42.290326" lon="-0.463668">
        <ele>1522.6</ele>
        <time>2018-07-22T07:48:54.000Z</time>
      </trkpt>
      <trkpt lat="42.290328" lon="-0.463677">
        <ele>1522.5</ele>
        <time>2018-07-22T07:48:55.000Z</time>
      </trkpt>
      <trkpt lat="42.290332" lon="-0.463684">
        <ele>1522.5</ele>
        <time>2018-07-22T07:48:56.000Z</time>
      </trkpt>
      <trkpt lat="42.290337" lon="-0.463691">
        <ele>1522.5</ele>
        <time>2018-07-22T07:48:57.000Z</time>
      </trkpt>
      <trkpt lat="42.290341" lon="-0.463699">
        <ele>1522.5</ele>
        <time>2018-07-22T07:48:58.000Z</time>
      </trkpt>
      <trkpt lat="42.290344" lon="-0.463708">
        <ele>1522.5</ele>
        <time>2018-07-22T07:48:59.000Z</time>
      </trkpt>
      <trkpt lat="42.290345" lon="-0.463719">
        <ele>1522.4</ele>
        <time>2018-07-22T07:49:00.000Z</time>
      </trkpt>
      <trkpt lat="42.290346" lon="-0.46373">
        <ele>1522.4</ele>
        <time>2018-07-22T07:49:01.000Z</time>
      </trkpt>
      <trkpt lat="42.290346" lon="-0.463742">
        <ele>1522.3</ele>
        <time>2018-07-22T07:49:02.000Z</time>
      </trkpt>
      <trkpt lat="42.290345" lon="-0.463753">
        <ele>1522.3</ele>
        <time>2018-07-22T07:49:03.000Z</time>
      </trkpt>
      <trkpt lat="42.290344" lon="-0.463763">
        <ele>1522.2</ele>
        <time>2018-07-22T07:49:04.000Z</time>
      </trkpt>
      <trkpt lat="42.290343" lon="-0.463773">
        <ele>1522.1</ele>
        <time>2018-07-22T07:49:05.000Z</time>
      </trkpt>
      <trkpt lat="42.290342" lon="-0.463783">
        <ele>1522.1</ele>
        <time>2018-07-22T07:49:06.000Z</time>
      </trkpt>
      <trkpt lat="42.290341" lon="-0.463792">
        <ele>1522.0</ele>
        <time>2018-07-22T07:49:07.000Z</time>
      </trkpt>
      <trkpt lat="42.290341" lon="-0.4638">
        <ele>1522.0</ele>
        <time>2018-07-22T07:49:08.000Z</time>
      </trkpt>
      <trkpt lat="42.290341" lon="-0.463809">
        <ele>1521.9</ele>
        <time>2018-07-22T07:49:09.000Z</time>
      </trkpt>
      <trkpt lat="42.290342" lon="-0.463817">
        <ele>1521.9</ele>
        <time>2018-07-22T07:49:10.000Z</time>
      </trkpt>
      <trkpt lat="42.290343" lon="-0.463824">
        <ele>1521.9</ele>
        <time>2018-07-22T07:49:11.000Z</time>
      </trkpt>
      <trkpt lat="42.290345" lon="-0.463831">
        <ele>1521.8</ele>
        <time>2018-07-22T07:49:12.000Z</time>
      </trkpt>
      <trkpt lat="42.290346" lon="-0.463836">
        <ele>1521.8</ele>
        <time>2018-07-22T07:49:13.000Z</time>
      </trkpt>
      <trkpt lat="42.290347" lon="-0.463839">
        <ele>1521.8</ele>
        <time>2018-07-22T07:49:14.000Z</time>
      </trkpt>
      <trkpt lat="42.290347" lon="-0.463841">
        <ele>1521.8</ele>
        <time>2018-07-22T07:49:15.000Z</time>
      </trkpt>
      <trkpt lat="42.290347" lon="-0.463841">
        <ele>1521.8</ele>
        <time>2018-07-22T07:49:16.000Z</time>
      </trkpt>
      <trkpt lat="42.290346" lon="-0.463841">
        <ele>1521.8</ele>
        <time>2018-07-22T07:49:17.000Z</time>
      </trkpt>
      <trkpt lat="42.290346" lon="-0.46384">
        <ele>1521.8</ele>
        <time>2018-07-22T07:49:18.000Z</time>
      </trkpt>
      <trkpt lat="42.290345" lon="-0.46384">
        <ele>1521.8</ele>
        <time>2018-07-22T07:49:19.000Z</time>
      </trkpt>
      <trkpt lat="42.290344" lon="-0.463841">
        <ele>1521.8</ele>
        <time>2018-07-22T07:49:20.000Z</time>
      </trkpt>
      <trkpt lat="42.290344" lon="-0.463842">
        <ele>1521.8</ele>
        <time>2018-07-22T07:49:21.000Z</time>
      </trkpt>
      <trkpt lat="42.290344" lon="-0.463844">
        <ele>1521.8</ele>
        <time>2018-07-22T07:49:22.000Z</time>
      </trkpt>
      <trkpt lat="42.290343" lon="-0.463846">
        <ele>1521.8</ele>
        <time>2018-07-22T07:49:23.000Z</time>
      </trkpt>
      <trkpt lat="42.290342" lon="-0.463848">
        <ele>1521.7</ele>
        <time>2018-07-22T07:49:24.000Z</time>
      </trkpt>
      <trkpt lat="42.290342" lon="-0.463849">
        <ele>1521.7</ele>
        <time>2018-07-22T07:49:25.000Z</time>
      </trkpt>
      <trkpt lat="42.290339" lon="-0.46385">
        <ele>1521.7</ele>
        <time>2018-07-22T07:49:26.000Z</time>
      </trkpt>
      <trkpt lat="42.290332" lon="-0.463851">
        <ele>1521.7</ele>
        <time>2018-07-22T07:49:27.000Z</time>
      </trkpt>
      <trkpt lat="42.290325" lon="-0.463846">
        <ele>1521.6</ele>
        <time>2018-07-22T07:49:28.000Z</time>
      </trkpt>
      <trkpt lat="42.290319" lon="-0.463843">
        <ele>1521.6</ele>
        <time>2018-07-22T07:49:29.000Z</time>
      </trkpt>
      <trkpt lat="42.290313" lon="-0.463842">
        <ele>1521.6</ele>
        <time>2018-07-22T07:49:30.000Z</time>
      </trkpt>
      <trkpt lat="42.290309" lon="-0.463842">
        <ele>1521.6</ele>
        <time>2018-07-22T07:49:31.000Z</time>
      </trkpt>
      <trkpt lat="42.290306" lon="-0.463842">
        <ele>1521.5</ele>
        <time>2018-07-22T07:49:32.000Z</time>
      </trkpt>
      <trkpt lat="42.290303" lon="-0.463843">
        <ele>1521.5</ele>
        <time>2018-07-22T07:49:33.000Z</time>
      </trkpt>
      <trkpt lat="42.290301" lon="-0.463843">
        <ele>1521.5</ele>
        <time>2018-07-22T07:49:34.000Z</time>
      </trkpt>
      <trkpt lat="42.290298" lon="-0.463843">
        <ele>1521.5</ele>
        <time>2018-07-22T07:49:35.000Z</time>
      </trkpt>
      <trkpt lat="42.290296" lon="-0.463843">
        <ele>1521.5</ele>
        <time>2018-07-22T07:49:36.000Z</time>
      </trkpt>
      <trkpt lat="42.290295" lon="-0.463843">
        <ele>1521.5</ele>
        <time>2018-07-22T07:49:37.000Z</time>
      </trkpt>
      <trkpt lat="42.290293" lon="-0.463843">
        <ele>1521.4</ele>
        <time>2018-07-22T07:49:38.000Z</time>
      </trkpt>
      <trkpt lat="42.290291" lon="-0.463843">
        <ele>1521.4</ele>
        <time>2018-07-22T07:49:39.000Z</time>
      </trkpt>
      <trkpt lat="42.29029" lon="-0.463843">
        <ele>1521.4</ele>
        <time>2018-07-22T07:49:40.000Z</time>
      </trkpt>
      <trkpt lat="42.29029" lon="-0.463843">
        <ele>1521.4</ele>
        <time>2018-07-22T07:49:41.000Z</time>
      </trkpt>
      <trkpt lat="42.290289" lon="-0.463843">
        <ele>1521.4</ele>
        <time>2018-07-22T07:49:42.000Z</time>
      </trkpt>
      <trkpt lat="42.290288" lon="-0.463843">
        <ele>1521.4</ele>
        <time>2018-07-22T07:49:43.000Z</time>
      </trkpt>
      <trkpt lat="42.290286" lon="-0.463843">
        <ele>1521.4</ele>
        <time>2018-07-22T07:49:44.000Z</time>
      </trkpt>
      <trkpt lat="42.290284" lon="-0.463843">
        <ele>1521.4</ele>
        <time>2018-07-22T07:49:45.000Z</time>
      </trkpt>
      <trkpt lat="42.29028" lon="-0.463843">
        <ele>1521.4</ele>
        <time>2018-07-22T07:49:46.000Z</time>
      </trkpt>
      <trkpt lat="42.290276" lon="-0.463844">
        <ele>1521.3</ele>
        <time>2018-07-22T07:49:47.000Z</time>
      </trkpt>
      <trkpt lat="42.290274" lon="-0.463844">
        <ele>1521.3</ele>
        <time>2018-07-22T07:49:48.000Z</time>
      </trkpt>
      <trkpt lat="42.290269" lon="-0.463845">
        <ele>1521.3</ele>
        <time>2018-07-22T07:49:49.000Z</time>
      </trkpt>
      <trkpt lat="42.290266" lon="-0.463845">
        <ele>1521.3</ele>
        <time>2018-07-22T07:49:50.000Z</time>
      </trkpt>
      <trkpt lat="42.290262" lon="-0.463846">
        <ele>1521.2</ele>
        <time>2018-07-22T07:49:51.000Z</time>
      </trkpt>
      <trkpt lat="42.290259" lon="-0.463847">
        <ele>1521.2</ele>
        <time>2018-07-22T07:49:52.000Z</time>
      </trkpt>
      <trkpt lat="42.290257" lon="-0.463848">
        <ele>1521.2</ele>
        <time>2018-07-22T07:49:53.000Z</time>
      </trkpt>
      <trkpt lat="42.290255" lon="-0.463849">
        <ele>1521.2</ele>
        <time>2018-07-22T07:49:54.000Z</time>
      </trkpt>
      <trkpt lat="42.290252" lon="-0.463851">
        <ele>1521.1</ele>
        <time>2018-07-22T07:49:55.000Z</time>
      </trkpt>
      <trkpt lat="42.290249" lon="-0.463856">
        <ele>1521.1</ele>
        <time>2018-07-22T07:49:56.000Z</time>
      </trkpt>
      <trkpt lat="42.290247" lon="-0.463863">
        <ele>1521.0</ele>
        <time>2018-07-22T07:49:57.000Z</time>
      </trkpt>
      <trkpt lat="42.290246" lon="-0.463868">
        <ele>1521.0</ele>
        <time>2018-07-22T07:49:58.000Z</time>
      </trkpt>
      <trkpt lat="42.290245" lon="-0.463871">
        <ele>1521.0</ele>
        <time>2018-07-22T07:49:59.000Z</time>
      </trkpt>
      <trkpt lat="42.290244" lon="-0.463874">
        <ele>1521.0</ele>
        <time>2018-07-22T07:50:00.000Z</time>
      </trkpt>
      <trkpt lat="42.290243" lon="-0.463875">
        <ele>1521.0</ele>
        <time>2018-07-22T07:50:01.000Z</time>
      </trkpt>
      <trkpt lat="42.290243" lon="-0.463875">
        <ele>1521.0</ele>
        <time>2018-07-22T07:50:02.000Z</time>
      </trkpt>
      <trkpt lat="42.290243" lon="-0.463876">
        <ele>1521.0</ele>
        <time>2018-07-22T07:50:03.000Z</time>
      </trkpt>
      <trkpt lat="42.290243" lon="-0.463877">
        <ele>1520.9</ele>
        <time>2018-07-22T07:50:04.000Z</time>
      </trkpt>
      <trkpt lat="42.290243" lon="-0.463878">
        <ele>1520.9</ele>
        <time>2018-07-22T07:50:05.000Z</time>
      </trkpt>
      <trkpt lat="42.290242" lon="-0.463879">
        <ele>1520.9</ele>
        <time>2018-07-22T07:50:06.000Z</time>
      </trkpt>
      <trkpt lat="42.290241" lon="-0.46388">
        <ele>1520.9</ele>
        <time>2018-07-22T07:50:07.000Z</time>
      </trkpt>
      <trkpt lat="42.29024" lon="-0.463883">
        <ele>1520.9</ele>
        <time>2018-07-22T07:50:08.000Z</time>
      </trkpt>
      <trkpt lat="42.290237" lon="-0.463885">
        <ele>1520.9</ele>
        <time>2018-07-22T07:50:09.000Z</time>
      </trkpt>
      <trkpt lat="42.290232" lon="-0.463883">
        <ele>1520.8</ele>
        <time>2018-07-22T07:50:10.000Z</time>
      </trkpt>
      <trkpt lat="42.290225" lon="-0.463877">
        <ele>1520.8</ele>
        <time>2018-07-22T07:50:11.000Z</time>
      </trkpt>
      <trkpt lat="42.290221" lon="-0.463873">
        <ele>1520.8</ele>
        <time>2018-07-22T07:50:12.000Z</time>
      </trkpt>
      <trkpt lat="42.290218" lon="-0.463871">
        <ele>1520.8</ele>
        <time>2018-07-22T07:50:13.000Z</time>
      </trkpt>
      <trkpt lat="42.290215" lon="-0.46387">
        <ele>1520.8</ele>
        <time>2018-07-22T07:50:14.000Z</time>
      </trkpt>
      <trkpt lat="42.290213" lon="-0.463868">
        <ele>1520.8</ele>
        <time>2018-07-22T07:50:15.000Z</time>
      </trkpt>
      <trkpt lat="42.290211" lon="-0.463867">
        <ele>1520.8</ele>
        <time>2018-07-22T07:50:16.000Z</time>
      </trkpt>
      <trkpt lat="42.29021" lon="-0.463866">
        <ele>1520.8</ele>
        <time>2018-07-22T07:50:17.000Z</time>
      </trkpt>
      <trkpt lat="42.290208" lon="-0.463865">
        <ele>1520.8</ele>
        <time>2018-07-22T07:50:18.000Z</time>
      </trkpt>
      <trkpt lat="42.290207" lon="-0.463864">
        <ele>1520.8</ele>
        <time>2018-07-22T07:50:19.000Z</time>
      </trkpt>
      <trkpt lat="42.290206" lon="-0.463864">
        <ele>1520.8</ele>
        <time>2018-07-22T07:50:20.000Z</time>
      </trkpt>
      <trkpt lat="42.290205" lon="-0.463863">
        <ele>1520.8</ele>
        <time>2018-07-22T07:50:21.000Z</time>
      </trkpt>
      <trkpt lat="42.290203" lon="-0.463862">
        <ele>1520.8</ele>
        <time>2018-07-22T07:50:22.000Z</time>
      </trkpt>
      <trkpt lat="42.290202" lon="-0.463861">
        <ele>1520.8</ele>
        <time>2018-07-22T07:50:23.000Z</time>
      </trkpt>
      <trkpt lat="42.290201" lon="-0.46386">
        <ele>1520.8</ele>
        <time>2018-07-22T07:50:24.000Z</time>
      </trkpt>
      <trkpt lat="42.290199" lon="-0.46386">
        <ele>1520.8</ele>
        <time>2018-07-22T07:50:25.000Z</time>
      </trkpt>
      <trkpt lat="42.290197" lon="-0.463859">
        <ele>1520.7</ele>
        <time>2018-07-22T07:50:26.000Z</time>
      </trkpt>
      <trkpt lat="42.290196" lon="-0.463858">
        <ele>1520.7</ele>
        <time>2018-07-22T07:50:27.000Z</time>
      </trkpt>
      <trkpt lat="42.290193" lon="-0.463857">
        <ele>1520.7</ele>
        <time>2018-07-22T07:50:28.000Z</time>
      </trkpt>
      <trkpt lat="42.290187" lon="-0.463853">
        <ele>1520.7</ele>
        <time>2018-07-22T07:50:29.000Z</time>
      </trkpt>
      <trkpt lat="42.290181" lon="-0.46385">
        <ele>1520.7</ele>
        <time>2018-07-22T07:50:30.000Z</time>
      </trkpt>
      <trkpt lat="42.290175" lon="-0.463848">
        <ele>1520.7</ele>
        <time>2018-07-22T07:50:31.000Z</time>
      </trkpt>
      <trkpt lat="42.290169" lon="-0.463847">
        <ele>1520.6</ele>
        <time>2018-07-22T07:50:32.000Z</time>
      </trkpt>
      <trkpt lat="42.290163" lon="-0.463844">
        <ele>1520.6</ele>
        <time>2018-07-22T07:50:33.000Z</time>
      </trkpt>
      <trkpt lat="42.290157" lon="-0.463841">
        <ele>1520.6</ele>
        <time>2018-07-22T07:50:34.000Z</time>
      </trkpt>
      <trkpt lat="42.290152" lon="-0.463836">
        <ele>1520.6</ele>
        <time>2018-07-22T07:50:35.000Z</time>
      </trkpt>
      <trkpt lat="42.290147" lon="-0.46383">
        <ele>1520.6</ele>
        <time>2018-07-22T07:50:36.000Z</time>
      </trkpt>
      <trkpt lat="42.290142" lon="-0.463823">
        <ele>1520.6</ele>
        <time>2018-07-22T07:50:37.000Z</time>
      </trkpt>
      <trkpt lat="42.290137" lon="-0.463815">
        <ele>1520.6</ele>
        <time>2018-07-22T07:50:38.000Z</time>
      </trkpt>
      <trkpt lat="42.290132" lon="-0.463809">
        <ele>1520.6</ele>
        <time>2018-07-22T07:50:39.000Z</time>
      </trkpt>
      <trkpt lat="42.290127" lon="-0.463803">
        <ele>1520.6</ele>
        <time>2018-07-22T07:50:40.000Z</time>
      </trkpt>
      <trkpt lat="42.290121" lon="-0.4638">
        <ele>1520.5</ele>
        <time>2018-07-22T07:50:41.000Z</time>
      </trkpt>
      <trkpt lat="42.290115" lon="-0.4638">
        <ele>1520.5</ele>
        <time>2018-07-22T07:50:42.000Z</time>
      </trkpt>
      <trkpt lat="42.29011" lon="-0.463802">
        <ele>1520.5</ele>
        <time>2018-07-22T07:50:43.000Z</time>
      </trkpt>
      <trkpt lat="42.290105" lon="-0.463804">
        <ele>1520.4</ele>
        <time>2018-07-22T07:50:44.000Z</time>
      </trkpt>
      <trkpt lat="42.290103" lon="-0.463805">
        <ele>1520.4</ele>
        <time>2018-07-22T07:50:45.000Z</time>
      </trkpt>
      <trkpt lat="42.290101" lon="-0.463806">
        <ele>1520.4</ele>
        <time>2018-07-22T07:50:46.000Z</time>
      </trkpt>
      <trkpt lat="42.2901" lon="-0.463807">
        <ele>1520.4</ele>
        <time>2018-07-22T07:50:47.000Z</time>
      </trkpt>
      <trkpt lat="42.290098" lon="-0.463808">
        <ele>1520.4</ele>
        <time>2018-07-22T07:50:48.000Z</time>
      </trkpt>
      <trkpt lat="42.290097" lon="-0.463809">
        <ele>1520.3</ele>
        <time>2018-07-22T07:50:49.000Z</time>
      </trkpt>
      <trkpt lat="42.290096" lon="-0.463809">
        <ele>1520.3</ele>
        <time>2018-07-22T07:50:50.000Z</time>
      </trkpt>
      <trkpt lat="42.290095" lon="-0.46381">
        <ele>1520.3</ele>
        <time>2018-07-22T07:50:51.000Z</time>
      </trkpt>
      <trkpt lat="42.290093" lon="-0.46381">
        <ele>1520.3</ele>
        <time>2018-07-22T07:50:52.000Z</time>
      </trkpt>
      <trkpt lat="42.290092" lon="-0.463811">
        <ele>1520.3</ele>
        <time>2018-07-22T07:50:53.000Z</time>
      </trkpt>
      <trkpt lat="42.290091" lon="-0.463811">
        <ele>1520.3</ele>
        <time>2018-07-22T07:50:54.000Z</time>
      </trkpt>
      <trkpt lat="42.29009" lon="-0.463812">
        <ele>1520.3</ele>
        <time>2018-07-22T07:50:55.000Z</time>
      </trkpt>
      <trkpt lat="42.290089" lon="-0.463812">
        <ele>1520.3</ele>
        <time>2018-07-22T07:50:56.000Z</time>
      </trkpt>
      <trkpt lat="42.290087" lon="-0.463812">
        <ele>1520.3</ele>
        <time>2018-07-22T07:50:57.000Z</time>
      </trkpt>
      <trkpt lat="42.290086" lon="-0.463813">
        <ele>1520.3</ele>
        <time>2018-07-22T07:50:58.000Z</time>
      </trkpt>
      <trkpt lat="42.290085" lon="-0.463813">
        <ele>1520.3</ele>
        <time>2018-07-22T07:50:59.000Z</time>
      </trkpt>
      <trkpt lat="42.290084" lon="-0.463813">
        <ele>1520.2</ele>
        <time>2018-07-22T07:51:00.000Z</time>
      </trkpt>
      <trkpt lat="42.290083" lon="-0.463813">
        <ele>1520.2</ele>
        <time>2018-07-22T07:51:01.000Z</time>
      </trkpt>
      <trkpt lat="42.290083" lon="-0.463813">
        <ele>1520.2</ele>
        <time>2018-07-22T07:51:02.000Z</time>
      </trkpt>
      <trkpt lat="42.290082" lon="-0.463813">
        <ele>1520.2</ele>
        <time>2018-07-22T07:51:03.000Z</time>
      </trkpt>
      <trkpt lat="42.290081" lon="-0.463814">
        <ele>1520.2</ele>
        <time>2018-07-22T07:51:04.000Z</time>
      </trkpt>
      <trkpt lat="42.29008" lon="-0.463814">
        <ele>1520.2</ele>
        <time>2018-07-22T07:51:05.000Z</time>
      </trkpt>
      <trkpt lat="42.290079" lon="-0.463814">
        <ele>1520.2</ele>
        <time>2018-07-22T07:51:06.000Z</time>
      </trkpt>
      <trkpt lat="42.290079" lon="-0.463814">
        <ele>1520.2</ele>
        <time>2018-07-22T07:51:07.000Z</time>
      </trkpt>
      <trkpt lat="42.290078" lon="-0.463814">
        <ele>1520.2</ele>
        <time>2018-07-22T07:51:08.000Z</time>
      </trkpt>
      <trkpt lat="42.290078" lon="-0.463814">
        <ele>1520.2</ele>
        <time>2018-07-22T07:51:09.000Z</time>
      </trkpt>
      <trkpt lat="42.290077" lon="-0.463814">
        <ele>1520.2</ele>
        <time>2018-07-22T07:51:10.000Z</time>
      </trkpt>
      <trkpt lat="42.290076" lon="-0.463814">
        <ele>1520.2</ele>
        <time>2018-07-22T07:51:11.000Z</time>
      </trkpt>
      <trkpt lat="42.290076" lon="-0.463814">
        <ele>1520.2</ele>
        <time>2018-07-22T07:51:12.000Z</time>
      </trkpt>
      <trkpt lat="42.290075" lon="-0.463814">
        <ele>1520.2</ele>
        <time>2018-07-22T07:51:13.000Z</time>
      </trkpt>
      <trkpt lat="42.290074" lon="-0.463815">
        <ele>1520.2</ele>
        <time>2018-07-22T07:51:14.000Z</time>
      </trkpt>
      <trkpt lat="42.290073" lon="-0.463815">
        <ele>1520.2</ele>
        <time>2018-07-22T07:51:15.000Z</time>
      </trkpt>
      <trkpt lat="42.290072" lon="-0.463815">
        <ele>1520.2</ele>
        <time>2018-07-22T07:51:16.000Z</time>
      </trkpt>
      <trkpt lat="42.290071" lon="-0.463816">
        <ele>1520.1</ele>
        <time>2018-07-22T07:51:17.000Z</time>
      </trkpt>
      <trkpt lat="42.29007" lon="-0.463817">
        <ele>1520.1</ele>
        <time>2018-07-22T07:51:18.000Z</time>
      </trkpt>
      <trkpt lat="42.290068" lon="-0.463817">
        <ele>1520.1</ele>
        <time>2018-07-22T07:51:19.000Z</time>
      </trkpt>
      <trkpt lat="42.290063" lon="-0.463819">
        <ele>1520.1</ele>
        <time>2018-07-22T07:51:20.000Z</time>
      </trkpt>
      <trkpt lat="42.290057" lon="-0.463822">
        <ele>1520.0</ele>
        <time>2018-07-22T07:51:21.000Z</time>
      </trkpt>
      <trkpt lat="42.29005" lon="-0.463825">
        <ele>1520.0</ele>
        <time>2018-07-22T07:51:22.000Z</time>
      </trkpt>
      <trkpt lat="42.290046" lon="-0.463828">
        <ele>1519.9</ele>
        <time>2018-07-22T07:51:23.000Z</time>
      </trkpt>
      <trkpt lat="42.290043" lon="-0.463831">
        <ele>1519.9</ele>
        <time>2018-07-22T07:51:24.000Z</time>
      </trkpt>
      <trkpt lat="42.29004" lon="-0.463833">
        <ele>1519.9</ele>
        <time>2018-07-22T07:51:25.000Z</time>
      </trkpt>
      <trkpt lat="42.290039" lon="-0.463834">
        <ele>1519.8</ele>
        <time>2018-07-22T07:51:26.000Z</time>
      </trkpt>
      <trkpt lat="42.290038" lon="-0.463835">
        <ele>1519.8</ele>
        <time>2018-07-22T07:51:27.000Z</time>
      </trkpt>
      <trkpt lat="42.290037" lon="-0.463836">
        <ele>1519.8</ele>
        <time>2018-07-22T07:51:28.000Z</time>
      </trkpt>
      <trkpt lat="42.290036" lon="-0.463836">
        <ele>1519.8</ele>
        <time>2018-07-22T07:51:29.000Z</time>
      </trkpt>
      <trkpt lat="42.290036" lon="-0.463836">
        <ele>1519.8</ele>
        <time>2018-07-22T07:51:30.000Z</time>
      </trkpt>
      <trkpt lat="42.290035" lon="-0.463837">
        <ele>1519.8</ele>
        <time>2018-07-22T07:51:31.000Z</time>
      </trkpt>
      <trkpt lat="42.290035" lon="-0.463837">
        <ele>1519.8</ele>
        <time>2018-07-22T07:51:32.000Z</time>
      </trkpt>
      <trkpt lat="42.290034" lon="-0.463838">
        <ele>1519.8</ele>
        <time>2018-07-22T07:51:33.000Z</time>
      </trkpt>
      <trkpt lat="42.290033" lon="-0.463838">
        <ele>1519.8</ele>
        <time>2018-07-22T07:51:34.000Z</time>
      </trkpt>
      <trkpt lat="42.290033" lon="-0.463839">
        <ele>1519.8</ele>
        <time>2018-07-22T07:51:35.000Z</time>
      </trkpt>
      <trkpt lat="42.290032" lon="-0.46384">
        <ele>1519.8</ele>
        <time>2018-07-22T07:51:36.000Z</time>
      </trkpt>
      <trkpt lat="42.290031" lon="-0.463841">
        <ele>1519.8</ele>
        <time>2018-07-22T07:51:37.000Z</time>
      </trkpt>
      <trkpt lat="42.29003" lon="-0.463842">
        <ele>1519.8</ele>
        <time>2018-07-22T07:51:38.000Z</time>
      </trkpt>
      <trkpt lat="42.290028" lon="-0.463843">
        <ele>1519.7</ele>
        <time>2018-07-22T07:51:39.000Z</time>
      </trkpt>
      <trkpt lat="42.290027" lon="-0.463845">
        <ele>1519.7</ele>
        <time>2018-07-22T07:51:40.000Z</time>
      </trkpt>
      <trkpt lat="42.290024" lon="-0.463846">
        <ele>1519.7</ele>
        <time>2018-07-22T07:51:41.000Z</time>
      </trkpt>
      <trkpt lat="42.290023" lon="-0.463848">
        <ele>1519.7</ele>
        <time>2018-07-22T07:51:42.000Z</time>
      </trkpt>
      <trkpt lat="42.290021" lon="-0.463849">
        <ele>1519.7</ele>
        <time>2018-07-22T07:51:43.000Z</time>
      </trkpt>
      <trkpt lat="42.290021" lon="-0.46385">
        <ele>1519.7</ele>
        <time>2018-07-22T07:51:44.000Z</time>
      </trkpt>
      <trkpt lat="42.290018" lon="-0.463852">
        <ele>1519.6</ele>
        <time>2018-07-22T07:51:45.000Z</time>
      </trkpt>
      <trkpt lat="42.290014" lon="-0.463856">
        <ele>1519.6</ele>
        <time>2018-07-22T07:51:46.000Z</time>
      </trkpt>
      <trkpt lat="42.29001" lon="-0.46386">
        <ele>1519.5</ele>
        <time>2018-07-22T07:51:47.000Z</time>
      </trkpt>
      <trkpt lat="42.290007" lon="-0.463863">
        <ele>1519.5</ele>
        <time>2018-07-22T07:51:48.000Z</time>
      </trkpt>
      <trkpt lat="42.290005" lon="-0.463864">
        <ele>1519.5</ele>
        <time>2018-07-22T07:51:49.000Z</time>
      </trkpt>
      <trkpt lat="42.290003" lon="-0.463866">
        <ele>1519.5</ele>
        <time>2018-07-22T07:51:50.000Z</time>
      </trkpt>
      <trkpt lat="42.29" lon="-0.463869">
        <ele>1519.4</ele>
        <time>2018-07-22T07:51:51.000Z</time>
      </trkpt>
      <trkpt lat="42.289998" lon="-0.46387">
        <ele>1519.4</ele>
        <time>2018-07-22T07:51:52.000Z</time>
      </trkpt>
      <trkpt lat="42.289996" lon="-0.463872">
        <ele>1519.3</ele>
        <time>2018-07-22T07:51:53.000Z</time>
      </trkpt>
      <trkpt lat="42.289995" lon="-0.463873">
        <ele>1519.3</ele>
        <time>2018-07-22T07:51:54.000Z</time>
      </trkpt>
      <trkpt lat="42.289993" lon="-0.463875">
        <ele>1519.3</ele>
        <time>2018-07-22T07:51:55.000Z</time>
      </trkpt>
      <trkpt lat="42.289991" lon="-0.463877">
        <ele>1519.2</ele>
        <time>2018-07-22T07:51:56.000Z</time>
      </trkpt>
      <trkpt lat="42.289988" lon="-0.46388">
        <ele>1519.1</ele>
        <time>2018-07-22T07:51:57.000Z</time>
      </trkpt>
      <trkpt lat="42.289985" lon="-0.463881">
        <ele>1519.1</ele>
        <time>2018-07-22T07:51:58.000Z</time>
      </trkpt>
      <trkpt lat="42.28998" lon="-0.463872">
        <ele>1519.0</ele>
        <time>2018-07-22T07:51:59.000Z</time>
      </trkpt>
      <trkpt lat="42.289977" lon="-0.463864">
        <ele>1519.0</ele>
        <time>2018-07-22T07:52:00.000Z</time>
      </trkpt>
      <trkpt lat="42.289974" lon="-0.463859">
        <ele>1518.9</ele>
        <time>2018-07-22T07:52:01.000Z</time>
      </trkpt>
      <trkpt lat="42.28997" lon="-0.463856">
        <ele>1518.9</ele>
        <time>2018-07-22T07:52:02.000Z</time>
      </trkpt>
      <trkpt lat="42.289968" lon="-0.463854">
        <ele>1518.8</ele>
        <time>2018-07-22T07:52:03.000Z</time>
      </trkpt>
      <trkpt lat="42.289966" lon="-0.463852">
        <ele>1518.8</ele>
        <time>2018-07-22T07:52:04.000Z</time>
      </trkpt>
      <trkpt lat="42.289964" lon="-0.463851">
        <ele>1518.8</ele>
        <time>2018-07-22T07:52:05.000Z</time>
      </trkpt>
      <trkpt lat="42.289962" lon="-0.463849">
        <ele>1518.7</ele>
        <time>2018-07-22T07:52:06.000Z</time>
      </trkpt>
      <trkpt lat="42.289961" lon="-0.463848">
        <ele>1518.7</ele>
        <time>2018-07-22T07:52:07.000Z</time>
      </trkpt>
      <trkpt lat="42.28996" lon="-0.463846">
        <ele>1518.7</ele>
        <time>2018-07-22T07:52:08.000Z</time>
      </trkpt>
      <trkpt lat="42.289958" lon="-0.463844">
        <ele>1518.7</ele>
        <time>2018-07-22T07:52:09.000Z</time>
      </trkpt>
      <trkpt lat="42.289956" lon="-0.463842">
        <ele>1518.6</ele>
        <time>2018-07-22T07:52:10.000Z</time>
      </trkpt>
      <trkpt lat="42.289945" lon="-0.463844">
        <ele>1518.4</ele>
        <time>2018-07-22T07:52:11.000Z</time>
      </trkpt>
      <trkpt lat="42.289937" lon="-0.463846">
        <ele>1518.2</ele>
        <time>2018-07-22T07:52:12.000Z</time>
      </trkpt>
      <trkpt lat="42.289932" lon="-0.463849">
        <ele>1518.1</ele>
        <time>2018-07-22T07:52:13.000Z</time>
      </trkpt>
      <trkpt lat="42.289929" lon="-0.463851">
        <ele>1518.0</ele>
        <time>2018-07-22T07:52:14.000Z</time>
      </trkpt>
      <trkpt lat="42.289927" lon="-0.463852">
        <ele>1518.0</ele>
        <time>2018-07-22T07:52:15.000Z</time>
      </trkpt>
      <trkpt lat="42.289924" lon="-0.463853">
        <ele>1517.9</ele>
        <time>2018-07-22T07:52:16.000Z</time>
      </trkpt>
      <trkpt lat="42.289922" lon="-0.463854">
        <ele>1517.9</ele>
        <time>2018-07-22T07:52:17.000Z</time>
      </trkpt>
      <trkpt lat="42.28992" lon="-0.463855">
        <ele>1517.8</ele>
        <time>2018-07-22T07:52:18.000Z</time>
      </trkpt>
      <trkpt lat="42.289918" lon="-0.463856">
        <ele>1517.8</ele>
        <time>2018-07-22T07:52:19.000Z</time>
      </trkpt>
      <trkpt lat="42.289915" lon="-0.463857">
        <ele>1517.7</ele>
        <time>2018-07-22T07:52:20.000Z</time>
      </trkpt>
      <trkpt lat="42.289913" lon="-0.463858">
        <ele>1517.7</ele>
        <time>2018-07-22T07:52:21.000Z</time>
      </trkpt>
      <trkpt lat="42.28991" lon="-0.463859">
        <ele>1517.6</ele>
        <time>2018-07-22T07:52:22.000Z</time>
      </trkpt>
      <trkpt lat="42.289906" lon="-0.46386">
        <ele>1517.5</ele>
        <time>2018-07-22T07:52:23.000Z</time>
      </trkpt>
      <trkpt lat="42.289901" lon="-0.463863">
        <ele>1517.4</ele>
        <time>2018-07-22T07:52:24.000Z</time>
      </trkpt>
      <trkpt lat="42.289892" lon="-0.46387">
        <ele>1517.2</ele>
        <time>2018-07-22T07:52:25.000Z</time>
      </trkpt>
      <trkpt lat="42.289885" lon="-0.463876">
        <ele>1517.0</ele>
        <time>2018-07-22T07:52:26.000Z</time>
      </trkpt>
      <trkpt lat="42.289877" lon="-0.463883">
        <ele>1516.8</ele>
        <time>2018-07-22T07:52:27.000Z</time>
      </trkpt>
      <trkpt lat="42.289871" lon="-0.46389">
        <ele>1516.7</ele>
        <time>2018-07-22T07:52:28.000Z</time>
      </trkpt>
      <trkpt lat="42.289868" lon="-0.463898">
        <ele>1516.6</ele>
        <time>2018-07-22T07:52:29.000Z</time>
      </trkpt>
      <trkpt lat="42.289864" lon="-0.463904">
        <ele>1516.5</ele>
        <time>2018-07-22T07:52:30.000Z</time>
      </trkpt>
      <trkpt lat="42.289859" lon="-0.463911">
        <ele>1516.4</ele>
        <time>2018-07-22T07:52:31.000Z</time>
      </trkpt>
      <trkpt lat="42.289855" lon="-0.463917">
        <ele>1516.3</ele>
        <time>2018-07-22T07:52:32.000Z</time>
      </trkpt>
      <trkpt lat="42.28985" lon="-0.463922">
        <ele>1516.2</ele>
        <time>2018-07-22T07:52:33.000Z</time>
      </trkpt>
      <trkpt lat="42.289844" lon="-0.463928">
        <ele>1516.0</ele>
        <time>2018-07-22T07:52:34.000Z</time>
      </trkpt>
      <trkpt lat="42.289839" lon="-0.463934">
        <ele>1515.9</ele>
        <time>2018-07-22T07:52:35.000Z</time>
      </trkpt>
      <trkpt lat="42.289833" lon="-0.46394">
        <ele>1515.8</ele>
        <time>2018-07-22T07:52:36.000Z</time>
      </trkpt>
      <trkpt lat="42.289827" lon="-0.463946">
        <ele>1515.7</ele>
        <time>2018-07-22T07:52:37.000Z</time>
      </trkpt>
      <trkpt lat="42.289822" lon="-0.463952">
        <ele>1515.5</ele>
        <time>2018-07-22T07:52:38.000Z</time>
      </trkpt>
      <trkpt lat="42.289816" lon="-0.463959">
        <ele>1515.4</ele>
        <time>2018-07-22T07:52:39.000Z</time>
      </trkpt>
      <trkpt lat="42.289811" lon="-0.463966">
        <ele>1515.3</ele>
        <time>2018-07-22T07:52:40.000Z</time>
      </trkpt>
      <trkpt lat="42.289806" lon="-0.463973">
        <ele>1515.2</ele>
        <time>2018-07-22T07:52:41.000Z</time>
      </trkpt>
      <trkpt lat="42.289801" lon="-0.46398">
        <ele>1515.1</ele>
        <time>2018-07-22T07:52:42.000Z</time>
      </trkpt>
      <trkpt lat="42.289797" lon="-0.463987">
        <ele>1515.0</ele>
        <time>2018-07-22T07:52:43.000Z</time>
      </trkpt>
      <trkpt lat="42.289793" lon="-0.463993">
        <ele>1514.9</ele>
        <time>2018-07-22T07:52:44.000Z</time>
      </trkpt>
      <trkpt lat="42.289789" lon="-0.463997">
        <ele>1514.8</ele>
        <time>2018-07-22T07:52:45.000Z</time>
      </trkpt>
      <trkpt lat="42.289786" lon="-0.464">
        <ele>1514.7</ele>
        <time>2018-07-22T07:52:46.000Z</time>
      </trkpt>
      <trkpt lat="42.289783" lon="-0.464002">
        <ele>1514.7</ele>
        <time>2018-07-22T07:52:47.000Z</time>
      </trkpt>
      <trkpt lat="42.289781" lon="-0.464003">
        <ele>1514.6</ele>
        <time>2018-07-22T07:52:48.000Z</time>
      </trkpt>
      <trkpt lat="42.28978" lon="-0.464005">
        <ele>1514.6</ele>
        <time>2018-07-22T07:52:49.000Z</time>
      </trkpt>
      <trkpt lat="42.289776" lon="-0.464009">
        <ele>1514.5</ele>
        <time>2018-07-22T07:52:50.000Z</time>
      </trkpt>
      <trkpt lat="42.28977" lon="-0.464016">
        <ele>1514.4</ele>
        <time>2018-07-22T07:52:51.000Z</time>
      </trkpt>
      <trkpt lat="42.289767" lon="-0.464026">
        <ele>1514.3</ele>
        <time>2018-07-22T07:52:52.000Z</time>
      </trkpt>
      <trkpt lat="42.289768" lon="-0.464039">
        <ele>1514.3</ele>
        <time>2018-07-22T07:52:53.000Z</time>
      </trkpt>
      <trkpt lat="42.289772" lon="-0.464051">
        <ele>1514.4</ele>
        <time>2018-07-22T07:52:54.000Z</time>
      </trkpt>
      <trkpt lat="42.289778" lon="-0.46406">
        <ele>1514.5</ele>
        <time>2018-07-22T07:52:55.000Z</time>
      </trkpt>
      <trkpt lat="42.289785" lon="-0.464069">
        <ele>1514.6</ele>
        <time>2018-07-22T07:52:56.000Z</time>
      </trkpt>
      <trkpt lat="42.289792" lon="-0.464078">
        <ele>1514.7</ele>
        <time>2018-07-22T07:52:57.000Z</time>
      </trkpt>
      <trkpt lat="42.289799" lon="-0.464089">
        <ele>1514.8</ele>
        <time>2018-07-22T07:52:58.000Z</time>
      </trkpt>
      <trkpt lat="42.289805" lon="-0.4641">
        <ele>1514.9</ele>
        <time>2018-07-22T07:52:59.000Z</time>
      </trkpt>
      <trkpt lat="42.289811" lon="-0.464113">
        <ele>1515.0</ele>
        <time>2018-07-22T07:53:00.000Z</time>
      </trkpt>
      <trkpt lat="42.289817" lon="-0.464126">
        <ele>1515.0</ele>
        <time>2018-07-22T07:53:01.000Z</time>
      </trkpt>
      <trkpt lat="42.289823" lon="-0.464139">
        <ele>1515.1</ele>
        <time>2018-07-22T07:53:02.000Z</time>
      </trkpt>
      <trkpt lat="42.289828" lon="-0.464152">
        <ele>1515.1</ele>
        <time>2018-07-22T07:53:03.000Z</time>
      </trkpt>
      <trkpt lat="42.289834" lon="-0.464165">
        <ele>1515.2</ele>
        <time>2018-07-22T07:53:04.000Z</time>
      </trkpt>
      <trkpt lat="42.289839" lon="-0.464178">
        <ele>1515.1</ele>
        <time>2018-07-22T07:53:05.000Z</time>
      </trkpt>
      <trkpt lat="42.289843" lon="-0.464191">
        <ele>1515.0</ele>
        <time>2018-07-22T07:53:06.000Z</time>
      </trkpt>
      <trkpt lat="42.289848" lon="-0.464202">
        <ele>1514.9</ele>
        <time>2018-07-22T07:53:07.000Z</time>
      </trkpt>
      <trkpt lat="42.289852" lon="-0.464212">
        <ele>1514.8</ele>
        <time>2018-07-22T07:53:08.000Z</time>
      </trkpt>
      <trkpt lat="42.289856" lon="-0.464221">
        <ele>1514.7</ele>
        <time>2018-07-22T07:53:09.000Z</time>
      </trkpt>
      <trkpt lat="42.289859" lon="-0.464228">
        <ele>1514.6</ele>
        <time>2018-07-22T07:53:10.000Z</time>
      </trkpt>
      <trkpt lat="42.28986" lon="-0.464232">
        <ele>1514.6</ele>
        <time>2018-07-22T07:53:11.000Z</time>
      </trkpt>
      <trkpt lat="42.289861" lon="-0.464236">
        <ele>1514.5</ele>
        <time>2018-07-22T07:53:12.000Z</time>
      </trkpt>
      <trkpt lat="42.289859" lon="-0.464243">
        <ele>1514.4</ele>
        <time>2018-07-22T07:53:13.000Z</time>
      </trkpt>
      <trkpt lat="42.289855" lon="-0.464255">
        <ele>1514.1</ele>
        <time>2018-07-22T07:53:14.000Z</time>
      </trkpt>
      <trkpt lat="42.28985" lon="-0.464269">
        <ele>1513.8</ele>
        <time>2018-07-22T07:53:15.000Z</time>
      </trkpt>
      <trkpt lat="42.289847" lon="-0.464282">
        <ele>1513.5</ele>
        <time>2018-07-22T07:53:16.000Z</time>
      </trkpt>
      <trkpt lat="42.289847" lon="-0.464289">
        <ele>1513.4</ele>
        <time>2018-07-22T07:53:17.000Z</time>
      </trkpt>
      <trkpt lat="42.28985" lon="-0.464292">
        <ele>1513.4</ele>
        <time>2018-07-22T07:53:18.000Z</time>
      </trkpt>
      <trkpt lat="42.289852" lon="-0.464295">
        <ele>1513.4</ele>
        <time>2018-07-22T07:53:19.000Z</time>
      </trkpt>
      <trkpt lat="42.289854" lon="-0.464297">
        <ele>1513.4</ele>
        <time>2018-07-22T07:53:20.000Z</time>
      </trkpt>
      <trkpt lat="42.289856" lon="-0.464299">
        <ele>1513.4</ele>
        <time>2018-07-22T07:53:21.000Z</time>
      </trkpt>
      <trkpt lat="42.289857" lon="-0.4643">
        <ele>1513.4</ele>
        <time>2018-07-22T07:53:22.000Z</time>
      </trkpt>
      <trkpt lat="42.289857" lon="-0.464301">
        <ele>1513.4</ele>
        <time>2018-07-22T07:53:23.000Z</time>
      </trkpt>
      <trkpt lat="42.289858" lon="-0.464302">
        <ele>1513.4</ele>
        <time>2018-07-22T07:53:24.000Z</time>
      </trkpt>
      <trkpt lat="42.289858" lon="-0.464303">
        <ele>1513.4</ele>
        <time>2018-07-22T07:53:25.000Z</time>
      </trkpt>
      <trkpt lat="42.289858" lon="-0.464303">
        <ele>1513.4</ele>
        <time>2018-07-22T07:53:26.000Z</time>
      </trkpt>
      <trkpt lat="42.289858" lon="-0.464304">
        <ele>1513.4</ele>
        <time>2018-07-22T07:53:27.000Z</time>
      </trkpt>
      <trkpt lat="42.289858" lon="-0.464304">
        <ele>1513.4</ele>
        <time>2018-07-22T07:53:28.000Z</time>
      </trkpt>
      <trkpt lat="42.289858" lon="-0.464304">
        <ele>1513.4</ele>
        <time>2018-07-22T07:53:29.000Z</time>
      </trkpt>
      <trkpt lat="42.289859" lon="-0.464304">
        <ele>1513.4</ele>
        <time>2018-07-22T07:53:30.000Z</time>
      </trkpt>
      <trkpt lat="42.289859" lon="-0.464304">
        <ele>1513.4</ele>
        <time>2018-07-22T07:53:31.000Z</time>
      </trkpt>
      <trkpt lat="42.289859" lon="-0.464304">
        <ele>1513.4</ele>
        <time>2018-07-22T07:53:32.000Z</time>
      </trkpt>
      <trkpt lat="42.289859" lon="-0.464305">
        <ele>1513.4</ele>
        <time>2018-07-22T07:53:33.000Z</time>
      </trkpt>
      <trkpt lat="42.28986" lon="-0.464305">
        <ele>1513.4</ele>
        <time>2018-07-22T07:53:34.000Z</time>
      </trkpt>
      <trkpt lat="42.28986" lon="-0.464305">
        <ele>1513.4</ele>
        <time>2018-07-22T07:53:35.000Z</time>
      </trkpt>
      <trkpt lat="42.28986" lon="-0.464305">
        <ele>1513.4</ele>
        <time>2018-07-22T07:53:36.000Z</time>
      </trkpt>
      <trkpt lat="42.289861" lon="-0.464305">
        <ele>1513.4</ele>
        <time>2018-07-22T07:53:37.000Z</time>
      </trkpt>
      <trkpt lat="42.289863" lon="-0.464305">
        <ele>1513.4</ele>
        <time>2018-07-22T07:53:38.000Z</time>
      </trkpt>
      <trkpt lat="42.289865" lon="-0.464307">
        <ele>1513.4</ele>
        <time>2018-07-22T07:53:39.000Z</time>
      </trkpt>
      <trkpt lat="42.289869" lon="-0.464311">
        <ele>1513.4</ele>
        <time>2018-07-22T07:53:40.000Z</time>
      </trkpt>
      <trkpt lat="42.289874" lon="-0.464318">
        <ele>1513.4</ele>
        <time>2018-07-22T07:53:41.000Z</time>
      </trkpt>
      <trkpt lat="42.28988" lon="-0.464328">
        <ele>1513.3</ele>
        <time>2018-07-22T07:53:42.000Z</time>
      </trkpt>
      <trkpt lat="42.289887" lon="-0.464339">
        <ele>1513.3</ele>
        <time>2018-07-22T07:53:43.000Z</time>
      </trkpt>
      <trkpt lat="42.289896" lon="-0.46435">
        <ele>1513.2</ele>
        <time>2018-07-22T07:53:44.000Z</time>
      </trkpt>
      <trkpt lat="42.289905" lon="-0.46436">
        <ele>1513.2</ele>
        <time>2018-07-22T07:53:45.000Z</time>
      </trkpt>
      <trkpt lat="42.289915" lon="-0.464371">
        <ele>1513.2</ele>
        <time>2018-07-22T07:53:46.000Z</time>
      </trkpt>
      <trkpt lat="42.289924" lon="-0.464382">
        <ele>1513.2</ele>
        <time>2018-07-22T07:53:47.000Z</time>
      </trkpt>
      <trkpt lat="42.289933" lon="-0.464393">
        <ele>1513.1</ele>
        <time>2018-07-22T07:53:48.000Z</time>
      </trkpt>
      <trkpt lat="42.289941" lon="-0.464405">
        <ele>1513.0</ele>
        <time>2018-07-22T07:53:49.000Z</time>
      </trkpt>
      <trkpt lat="42.289949" lon="-0.464418">
        <ele>1513.0</ele>
        <time>2018-07-22T07:53:50.000Z</time>
      </trkpt>
      <trkpt lat="42.289957" lon="-0.464431">
        <ele>1512.9</ele>
        <time>2018-07-22T07:53:51.000Z</time>
      </trkpt>
      <trkpt lat="42.289966" lon="-0.464444">
        <ele>1512.8</ele>
        <time>2018-07-22T07:53:52.000Z</time>
      </trkpt>
      <trkpt lat="42.289974" lon="-0.464457">
        <ele>1512.7</ele>
        <time>2018-07-22T07:53:53.000Z</time>
      </trkpt>
      <trkpt lat="42.289983" lon="-0.464471">
        <ele>1512.6</ele>
        <time>2018-07-22T07:53:54.000Z</time>
      </trkpt>
      <trkpt lat="42.289991" lon="-0.464486">
        <ele>1512.5</ele>
        <time>2018-07-22T07:53:55.000Z</time>
      </trkpt>
      <trkpt lat="42.289998" lon="-0.4645">
        <ele>1512.4</ele>
        <time>2018-07-22T07:53:56.000Z</time>
      </trkpt>
      <trkpt lat="42.290006" lon="-0.464515">
        <ele>1512.2</ele>
        <time>2018-07-22T07:53:57.000Z</time>
      </trkpt>
      <trkpt lat="42.290012" lon="-0.46453">
        <ele>1512.0</ele>
        <time>2018-07-22T07:53:58.000Z</time>
      </trkpt>
      <trkpt lat="42.290019" lon="-0.464545">
        <ele>1511.8</ele>
        <time>2018-07-22T07:53:59.000Z</time>
      </trkpt>
      <trkpt lat="42.290027" lon="-0.46456">
        <ele>1511.7</ele>
        <time>2018-07-22T07:54:00.000Z</time>
      </trkpt>
      <trkpt lat="42.290035" lon="-0.464576">
        <ele>1511.5</ele>
        <time>2018-07-22T07:54:01.000Z</time>
      </trkpt>
      <trkpt lat="42.290044" lon="-0.464592">
        <ele>1511.3</ele>
        <time>2018-07-22T07:54:02.000Z</time>
      </trkpt>
      <trkpt lat="42.290052" lon="-0.464608">
        <ele>1511.2</ele>
        <time>2018-07-22T07:54:03.000Z</time>
      </trkpt>
      <trkpt lat="42.29006" lon="-0.464624">
        <ele>1511.0</ele>
        <time>2018-07-22T07:54:04.000Z</time>
      </trkpt>
      <trkpt lat="42.290066" lon="-0.464641">
        <ele>1510.8</ele>
        <time>2018-07-22T07:54:05.000Z</time>
      </trkpt>
      <trkpt lat="42.290072" lon="-0.464656">
        <ele>1510.6</ele>
        <time>2018-07-22T07:54:06.000Z</time>
      </trkpt>
      <trkpt lat="42.290078" lon="-0.464671">
        <ele>1510.4</ele>
        <time>2018-07-22T07:54:07.000Z</time>
      </trkpt>
      <trkpt lat="42.290084" lon="-0.464685">
        <ele>1510.3</ele>
        <time>2018-07-22T07:54:08.000Z</time>
      </trkpt>
      <trkpt lat="42.290092" lon="-0.464698">
        <ele>1510.2</ele>
        <time>2018-07-22T07:54:09.000Z</time>
      </trkpt>
      <trkpt lat="42.2901" lon="-0.46471">
        <ele>1510.1</ele>
        <time>2018-07-22T07:54:10.000Z</time>
      </trkpt>
      <trkpt lat="42.290108" lon="-0.464722">
        <ele>1510.0</ele>
        <time>2018-07-22T07:54:11.000Z</time>
      </trkpt>
      <trkpt lat="42.290116" lon="-0.464735">
        <ele>1509.9</ele>
        <time>2018-07-22T07:54:12.000Z</time>
      </trkpt>
      <trkpt lat="42.290122" lon="-0.464748">
        <ele>1509.8</ele>
        <time>2018-07-22T07:54:13.000Z</time>
      </trkpt>
      <trkpt lat="42.290128" lon="-0.464763">
        <ele>1509.6</ele>
        <time>2018-07-22T07:54:14.000Z</time>
      </trkpt>
      <trkpt lat="42.290133" lon="-0.464777">
        <ele>1509.5</ele>
        <time>2018-07-22T07:54:15.000Z</time>
      </trkpt>
      <trkpt lat="42.290138" lon="-0.464793">
        <ele>1509.3</ele>
        <time>2018-07-22T07:54:16.000Z</time>
      </trkpt>
      <trkpt lat="42.290144" lon="-0.464808">
        <ele>1509.2</ele>
        <time>2018-07-22T07:54:17.000Z</time>
      </trkpt>
      <trkpt lat="42.29015" lon="-0.464824">
        <ele>1509.0</ele>
        <time>2018-07-22T07:54:18.000Z</time>
      </trkpt>
      <trkpt lat="42.290157" lon="-0.46484">
        <ele>1508.8</ele>
        <time>2018-07-22T07:54:19.000Z</time>
      </trkpt>
      <trkpt lat="42.290164" lon="-0.464856">
        <ele>1508.7</ele>
        <time>2018-07-22T07:54:20.000Z</time>
      </trkpt>
      <trkpt lat="42.290172" lon="-0.464872">
        <ele>1508.6</ele>
        <time>2018-07-22T07:54:21.000Z</time>
      </trkpt>
      <trkpt lat="42.29018" lon="-0.464888">
        <ele>1508.5</ele>
        <time>2018-07-22T07:54:22.000Z</time>
      </trkpt>
      <trkpt lat="42.290187" lon="-0.464903">
        <ele>1508.3</ele>
        <time>2018-07-22T07:54:23.000Z</time>
      </trkpt>
      <trkpt lat="42.290194" lon="-0.464917">
        <ele>1508.2</ele>
        <time>2018-07-22T07:54:24.000Z</time>
      </trkpt>
      <trkpt lat="42.2902" lon="-0.464931">
        <ele>1508.1</ele>
        <time>2018-07-22T07:54:25.000Z</time>
      </trkpt>
      <trkpt lat="42.290206" lon="-0.464944">
        <ele>1508.0</ele>
        <time>2018-07-22T07:54:26.000Z</time>
      </trkpt>
      <trkpt lat="42.290212" lon="-0.464957">
        <ele>1507.9</ele>
        <time>2018-07-22T07:54:27.000Z</time>
      </trkpt>
      <trkpt lat="42.290219" lon="-0.464971">
        <ele>1507.8</ele>
        <time>2018-07-22T07:54:28.000Z</time>
      </trkpt>
      <trkpt lat="42.290226" lon="-0.464984">
        <ele>1507.8</ele>
        <time>2018-07-22T07:54:29.000Z</time>
      </trkpt>
      <trkpt lat="42.290234" lon="-0.464997">
        <ele>1507.7</ele>
        <time>2018-07-22T07:54:30.000Z</time>
      </trkpt>
      <trkpt lat="42.290243" lon="-0.465011">
        <ele>1507.6</ele>
        <time>2018-07-22T07:54:31.000Z</time>
      </trkpt>
      <trkpt lat="42.290252" lon="-0.465025">
        <ele>1507.4</ele>
        <time>2018-07-22T07:54:32.000Z</time>
      </trkpt>
      <trkpt lat="42.290262" lon="-0.465039">
        <ele>1507.3</ele>
        <time>2018-07-22T07:54:33.000Z</time>
      </trkpt>
      <trkpt lat="42.290271" lon="-0.465053">
        <ele>1507.2</ele>
        <time>2018-07-22T07:54:34.000Z</time>
      </trkpt>
      <trkpt lat="42.29028" lon="-0.465067">
        <ele>1507.1</ele>
        <time>2018-07-22T07:54:35.000Z</time>
      </trkpt>
      <trkpt lat="42.290288" lon="-0.465081">
        <ele>1506.9</ele>
        <time>2018-07-22T07:54:36.000Z</time>
      </trkpt>
      <trkpt lat="42.290297" lon="-0.465096">
        <ele>1506.8</ele>
        <time>2018-07-22T07:54:37.000Z</time>
      </trkpt>
      <trkpt lat="42.290305" lon="-0.46511">
        <ele>1506.6</ele>
        <time>2018-07-22T07:54:38.000Z</time>
      </trkpt>
      <trkpt lat="42.290313" lon="-0.465125">
        <ele>1506.5</ele>
        <time>2018-07-22T07:54:39.000Z</time>
      </trkpt>
      <trkpt lat="42.290321" lon="-0.465139">
        <ele>1506.4</ele>
        <time>2018-07-22T07:54:40.000Z</time>
      </trkpt>
      <trkpt lat="42.290328" lon="-0.465153">
        <ele>1506.2</ele>
        <time>2018-07-22T07:54:41.000Z</time>
      </trkpt>
      <trkpt lat="42.290336" lon="-0.465167">
        <ele>1506.1</ele>
        <time>2018-07-22T07:54:42.000Z</time>
      </trkpt>
      <trkpt lat="42.290343" lon="-0.465181">
        <ele>1505.9</ele>
        <time>2018-07-22T07:54:43.000Z</time>
      </trkpt>
      <trkpt lat="42.290351" lon="-0.465195">
        <ele>1505.8</ele>
        <time>2018-07-22T07:54:44.000Z</time>
      </trkpt>
      <trkpt lat="42.290358" lon="-0.465208">
        <ele>1505.7</ele>
        <time>2018-07-22T07:54:45.000Z</time>
      </trkpt>
      <trkpt lat="42.290366" lon="-0.465221">
        <ele>1505.6</ele>
        <time>2018-07-22T07:54:46.000Z</time>
      </trkpt>
      <trkpt lat="42.290373" lon="-0.465234">
        <ele>1505.5</ele>
        <time>2018-07-22T07:54:47.000Z</time>
      </trkpt>
      <trkpt lat="42.29038" lon="-0.465247">
        <ele>1505.4</ele>
        <time>2018-07-22T07:54:48.000Z</time>
      </trkpt>
      <trkpt lat="42.290388" lon="-0.46526">
        <ele>1505.3</ele>
        <time>2018-07-22T07:54:49.000Z</time>
      </trkpt>
      <trkpt lat="42.290395" lon="-0.465273">
        <ele>1505.2</ele>
        <time>2018-07-22T07:54:50.000Z</time>
      </trkpt>
      <trkpt lat="42.290403" lon="-0.465286">
        <ele>1505.1</ele>
        <time>2018-07-22T07:54:51.000Z</time>
      </trkpt>
      <trkpt lat="42.29041" lon="-0.4653">
        <ele>1505.0</ele>
        <time>2018-07-22T07:54:52.000Z</time>
      </trkpt>
      <trkpt lat="42.290417" lon="-0.465314">
        <ele>1504.9</ele>
        <time>2018-07-22T07:54:53.000Z</time>
      </trkpt>
      <trkpt lat="42.290424" lon="-0.465328">
        <ele>1504.7</ele>
        <time>2018-07-22T07:54:54.000Z</time>
      </trkpt>
      <trkpt lat="42.290432" lon="-0.465343">
        <ele>1504.6</ele>
        <time>2018-07-22T07:54:55.000Z</time>
      </trkpt>
      <trkpt lat="42.290439" lon="-0.465358">
        <ele>1504.5</ele>
        <time>2018-07-22T07:54:56.000Z</time>
      </trkpt>
      <trkpt lat="42.290446" lon="-0.465373">
        <ele>1504.4</ele>
        <time>2018-07-22T07:54:57.000Z</time>
      </trkpt>
      <trkpt lat="42.290453" lon="-0.465388">
        <ele>1504.2</ele>
        <time>2018-07-22T07:54:58.000Z</time>
      </trkpt>
      <trkpt lat="42.29046" lon="-0.465402">
        <ele>1504.1</ele>
        <time>2018-07-22T07:54:59.000Z</time>
      </trkpt>
      <trkpt lat="42.290467" lon="-0.465415">
        <ele>1504.1</ele>
        <time>2018-07-22T07:55:00.000Z</time>
      </trkpt>
      <trkpt lat="42.290474" lon="-0.465427">
        <ele>1504.0</ele>
        <time>2018-07-22T07:55:01.000Z</time>
      </trkpt>
      <trkpt lat="42.290482" lon="-0.465437">
        <ele>1504.0</ele>
        <time>2018-07-22T07:55:02.000Z</time>
      </trkpt>
      <trkpt lat="42.290489" lon="-0.465446">
        <ele>1504.0</ele>
        <time>2018-07-22T07:55:03.000Z</time>
      </trkpt>
      <trkpt lat="42.290496" lon="-0.465454">
        <ele>1504.0</ele>
        <time>2018-07-22T07:55:04.000Z</time>
      </trkpt>
      <trkpt lat="42.290502" lon="-0.465463">
        <ele>1504.0</ele>
        <time>2018-07-22T07:55:05.000Z</time>
      </trkpt>
      <trkpt lat="42.290508" lon="-0.465473">
        <ele>1503.9</ele>
        <time>2018-07-22T07:55:06.000Z</time>
      </trkpt>
      <trkpt lat="42.290513" lon="-0.465485">
        <ele>1503.8</ele>
        <time>2018-07-22T07:55:07.000Z</time>
      </trkpt>
      <trkpt lat="42.290516" lon="-0.465498">
        <ele>1503.7</ele>
        <time>2018-07-22T07:55:08.000Z</time>
      </trkpt>
      <trkpt lat="42.29052" lon="-0.465512">
        <ele>1503.5</ele>
        <time>2018-07-22T07:55:09.000Z</time>
      </trkpt>
      <trkpt lat="42.290524" lon="-0.465528">
        <ele>1503.3</ele>
        <time>2018-07-22T07:55:10.000Z</time>
      </trkpt>
      <trkpt lat="42.290528" lon="-0.465543">
        <ele>1503.2</ele>
        <time>2018-07-22T07:55:11.000Z</time>
      </trkpt>
      <trkpt lat="42.290533" lon="-0.465559">
        <ele>1503.0</ele>
        <time>2018-07-22T07:55:12.000Z</time>
      </trkpt>
      <trkpt lat="42.290539" lon="-0.465575">
        <ele>1502.9</ele>
        <time>2018-07-22T07:55:13.000Z</time>
      </trkpt>
      <trkpt lat="42.290545" lon="-0.46559">
        <ele>1502.8</ele>
        <time>2018-07-22T07:55:14.000Z</time>
      </trkpt>
      <trkpt lat="42.290552" lon="-0.465606">
        <ele>1502.6</ele>
        <time>2018-07-22T07:55:15.000Z</time>
      </trkpt>
      <trkpt lat="42.29056" lon="-0.465621">
        <ele>1502.6</ele>
        <time>2018-07-22T07:55:16.000Z</time>
      </trkpt>
      <trkpt lat="42.290567" lon="-0.465637">
        <ele>1502.5</ele>
        <time>2018-07-22T07:55:17.000Z</time>
      </trkpt>
      <trkpt lat="42.290575" lon="-0.465654">
        <ele>1502.4</ele>
        <time>2018-07-22T07:55:18.000Z</time>
      </trkpt>
      <trkpt lat="42.290581" lon="-0.465671">
        <ele>1502.3</ele>
        <time>2018-07-22T07:55:19.000Z</time>
      </trkpt>
      <trkpt lat="42.290587" lon="-0.465688">
        <ele>1502.1</ele>
        <time>2018-07-22T07:55:20.000Z</time>
      </trkpt>
      <trkpt lat="42.290592" lon="-0.465705">
        <ele>1502.0</ele>
        <time>2018-07-22T07:55:21.000Z</time>
      </trkpt>
      <trkpt lat="42.290595" lon="-0.465722">
        <ele>1501.8</ele>
        <time>2018-07-22T07:55:22.000Z</time>
      </trkpt>
      <trkpt lat="42.290598" lon="-0.465739">
        <ele>1501.6</ele>
        <time>2018-07-22T07:55:23.000Z</time>
      </trkpt>
      <trkpt lat="42.290599" lon="-0.465756">
        <ele>1501.3</ele>
        <time>2018-07-22T07:55:24.000Z</time>
      </trkpt>
      <trkpt lat="42.290599" lon="-0.465772">
        <ele>1501.1</ele>
        <time>2018-07-22T07:55:25.000Z</time>
      </trkpt>
      <trkpt lat="42.290599" lon="-0.465787">
        <ele>1500.8</ele>
        <time>2018-07-22T07:55:26.000Z</time>
      </trkpt>
      <trkpt lat="42.290599" lon="-0.465801">
        <ele>1500.6</ele>
        <time>2018-07-22T07:55:27.000Z</time>
      </trkpt>
      <trkpt lat="42.290599" lon="-0.465814">
        <ele>1500.4</ele>
        <time>2018-07-22T07:55:28.000Z</time>
      </trkpt>
      <trkpt lat="42.290599" lon="-0.465826">
        <ele>1500.2</ele>
        <time>2018-07-22T07:55:29.000Z</time>
      </trkpt>
      <trkpt lat="42.2906" lon="-0.465838">
        <ele>1500.0</ele>
        <time>2018-07-22T07:55:30.000Z</time>
      </trkpt>
      <trkpt lat="42.2906" lon="-0.465849">
        <ele>1499.8</ele>
        <time>2018-07-22T07:55:31.000Z</time>
      </trkpt>
      <trkpt lat="42.290601" lon="-0.46586">
        <ele>1499.7</ele>
        <time>2018-07-22T07:55:32.000Z</time>
      </trkpt>
      <trkpt lat="42.290603" lon="-0.465871">
        <ele>1499.5</ele>
        <time>2018-07-22T07:55:33.000Z</time>
      </trkpt>
      <trkpt lat="42.290604" lon="-0.465882">
        <ele>1499.3</ele>
        <time>2018-07-22T07:55:34.000Z</time>
      </trkpt>
      <trkpt lat="42.290605" lon="-0.465893">
        <ele>1499.2</ele>
        <time>2018-07-22T07:55:35.000Z</time>
      </trkpt>
      <trkpt lat="42.290607" lon="-0.465905">
        <ele>1499.0</ele>
        <time>2018-07-22T07:55:36.000Z</time>
      </trkpt>
      <trkpt lat="42.290608" lon="-0.465917">
        <ele>1498.8</ele>
        <time>2018-07-22T07:55:37.000Z</time>
      </trkpt>
      <trkpt lat="42.29061" lon="-0.46593">
        <ele>1498.6</ele>
        <time>2018-07-22T07:55:38.000Z</time>
      </trkpt>
      <trkpt lat="42.290612" lon="-0.465945">
        <ele>1498.4</ele>
        <time>2018-07-22T07:55:39.000Z</time>
      </trkpt>
      <trkpt lat="42.290613" lon="-0.465959">
        <ele>1498.2</ele>
        <time>2018-07-22T07:55:40.000Z</time>
      </trkpt>
      <trkpt lat="42.290615" lon="-0.465974">
        <ele>1497.9</ele>
        <time>2018-07-22T07:55:41.000Z</time>
      </trkpt>
      <trkpt lat="42.290616" lon="-0.465988">
        <ele>1497.7</ele>
        <time>2018-07-22T07:55:42.000Z</time>
      </trkpt>
      <trkpt lat="42.290618" lon="-0.466">
        <ele>1497.6</ele>
        <time>2018-07-22T07:55:43.000Z</time>
      </trkpt>
      <trkpt lat="42.290619" lon="-0.46601">
        <ele>1497.4</ele>
        <time>2018-07-22T07:55:44.000Z</time>
      </trkpt>
      <trkpt lat="42.290619" lon="-0.466017">
        <ele>1497.3</ele>
        <time>2018-07-22T07:55:45.000Z</time>
      </trkpt>
      <trkpt lat="42.29062" lon="-0.466022">
        <ele>1497.2</ele>
        <time>2018-07-22T07:55:46.000Z</time>
      </trkpt>
      <trkpt lat="42.29062" lon="-0.466026">
        <ele>1497.1</ele>
        <time>2018-07-22T07:55:47.000Z</time>
      </trkpt>
      <trkpt lat="42.29062" lon="-0.466027">
        <ele>1497.1</ele>
        <time>2018-07-22T07:55:48.000Z</time>
      </trkpt>
      <trkpt lat="42.29062" lon="-0.466028">
        <ele>1497.1</ele>
        <time>2018-07-22T07:55:49.000Z</time>
      </trkpt>
      <trkpt lat="42.29062" lon="-0.466029">
        <ele>1497.1</ele>
        <time>2018-07-22T07:55:50.000Z</time>
      </trkpt>
      <trkpt lat="42.29062" lon="-0.466029">
        <ele>1497.1</ele>
        <time>2018-07-22T07:55:51.000Z</time>
      </trkpt>
      <trkpt lat="42.29062" lon="-0.466029">
        <ele>1497.1</ele>
        <time>2018-07-22T07:55:52.000Z</time>
      </trkpt>
      <trkpt lat="42.29062" lon="-0.466029">
        <ele>1497.1</ele>
        <time>2018-07-22T07:55:53.000Z</time>
      </trkpt>
      <trkpt lat="42.29062" lon="-0.466029">
        <ele>1497.1</ele>
        <time>2018-07-22T07:55:54.000Z</time>
      </trkpt>
      <trkpt lat="42.29062" lon="-0.466029">
        <ele>1497.1</ele>
        <time>2018-07-22T07:55:55.000Z</time>
      </trkpt>
      <trkpt lat="42.29062" lon="-0.466029">
        <ele>1497.1</ele>
        <time>2018-07-22T07:55:56.000Z</time>
      </trkpt>
      <trkpt lat="42.29062" lon="-0.466029">
        <ele>1497.1</ele>
        <time>2018-07-22T07:55:57.000Z</time>
      </trkpt>
      <trkpt lat="42.29062" lon="-0.46603">
        <ele>1497.1</ele>
        <time>2018-07-22T07:55:58.000Z</time>
      </trkpt>
      <trkpt lat="42.29062" lon="-0.466031">
        <ele>1497.0</ele>
        <time>2018-07-22T07:55:59.000Z</time>
      </trkpt>
      <trkpt lat="42.290621" lon="-0.466033">
        <ele>1497.0</ele>
        <time>2018-07-22T07:56:00.000Z</time>
      </trkpt>
      <trkpt lat="42.290621" lon="-0.466036">
        <ele>1497.0</ele>
        <time>2018-07-22T07:56:01.000Z</time>
      </trkpt>
      <trkpt lat="42.290621" lon="-0.466039">
        <ele>1496.9</ele>
        <time>2018-07-22T07:56:02.000Z</time>
      </trkpt>
      <trkpt lat="42.290621" lon="-0.466043">
        <ele>1496.9</ele>
        <time>2018-07-22T07:56:03.000Z</time>
      </trkpt>
      <trkpt lat="42.290621" lon="-0.466047">
        <ele>1496.8</ele>
        <time>2018-07-22T07:56:04.000Z</time>
      </trkpt>
      <trkpt lat="42.290621" lon="-0.466051">
        <ele>1496.7</ele>
        <time>2018-07-22T07:56:05.000Z</time>
      </trkpt>
      <trkpt lat="42.290621" lon="-0.466054">
        <ele>1496.7</ele>
        <time>2018-07-22T07:56:06.000Z</time>
      </trkpt>
      <trkpt lat="42.290622" lon="-0.466058">
        <ele>1496.6</ele>
        <time>2018-07-22T07:56:07.000Z</time>
      </trkpt>
      <trkpt lat="42.290622" lon="-0.466061">
        <ele>1496.6</ele>
        <time>2018-07-22T07:56:08.000Z</time>
      </trkpt>
      <trkpt lat="42.290622" lon="-0.466063">
        <ele>1496.5</ele>
        <time>2018-07-22T07:56:09.000Z</time>
      </trkpt>
      <trkpt lat="42.290622" lon="-0.466065">
        <ele>1496.5</ele>
        <time>2018-07-22T07:56:10.000Z</time>
      </trkpt>
      <trkpt lat="42.290622" lon="-0.466066">
        <ele>1496.5</ele>
        <time>2018-07-22T07:56:11.000Z</time>
      </trkpt>
      <trkpt lat="42.290622" lon="-0.466066">
        <ele>1496.5</ele>
        <time>2018-07-22T07:56:12.000Z</time>
      </trkpt>
      <trkpt lat="42.290622" lon="-0.466068">
        <ele>1496.4</ele>
        <time>2018-07-22T07:56:13.000Z</time>
      </trkpt>
      <trkpt lat="42.290623" lon="-0.466074">
        <ele>1496.4</ele>
        <time>2018-07-22T07:56:14.000Z</time>
      </trkpt>
      <trkpt lat="42.290623" lon="-0.466082">
        <ele>1496.2</ele>
        <time>2018-07-22T07:56:15.000Z</time>
      </trkpt>
      <trkpt lat="42.290624" lon="-0.46609">
        <ele>1496.1</ele>
        <time>2018-07-22T07:56:16.000Z</time>
      </trkpt>
      <trkpt lat="42.290624" lon="-0.466098">
        <ele>1496.0</ele>
        <time>2018-07-22T07:56:17.000Z</time>
      </trkpt>
      <trkpt lat="42.290624" lon="-0.466107">
        <ele>1495.8</ele>
        <time>2018-07-22T07:56:18.000Z</time>
      </trkpt>
      <trkpt lat="42.290625" lon="-0.466116">
        <ele>1495.7</ele>
        <time>2018-07-22T07:56:19.000Z</time>
      </trkpt>
      <trkpt lat="42.290625" lon="-0.466125">
        <ele>1495.5</ele>
        <time>2018-07-22T07:56:20.000Z</time>
      </trkpt>
      <trkpt lat="42.290625" lon="-0.466135">
        <ele>1495.3</ele>
        <time>2018-07-22T07:56:21.000Z</time>
      </trkpt>
      <trkpt lat="42.290625" lon="-0.466145">
        <ele>1495.1</ele>
        <time>2018-07-22T07:56:22.000Z</time>
      </trkpt>
      <trkpt lat="42.290625" lon="-0.466156">
        <ele>1494.9</ele>
        <time>2018-07-22T07:56:23.000Z</time>
      </trkpt>
      <trkpt lat="42.290624" lon="-0.466165">
        <ele>1494.7</ele>
        <time>2018-07-22T07:56:24.000Z</time>
      </trkpt>
      <trkpt lat="42.290623" lon="-0.466175">
        <ele>1494.5</ele>
        <time>2018-07-22T07:56:25.000Z</time>
      </trkpt>
      <trkpt lat="42.290623" lon="-0.466183">
        <ele>1494.4</ele>
        <time>2018-07-22T07:56:26.000Z</time>
      </trkpt>
      <trkpt lat="42.290622" lon="-0.466189">
        <ele>1494.3</ele>
        <time>2018-07-22T07:56:27.000Z</time>
      </trkpt>
      <trkpt lat="42.290621" lon="-0.466194">
        <ele>1494.1</ele>
        <time>2018-07-22T07:56:28.000Z</time>
      </trkpt>
      <trkpt lat="42.290621" lon="-0.466197">
        <ele>1494.1</ele>
        <time>2018-07-22T07:56:29.000Z</time>
      </trkpt>
      <trkpt lat="42.290621" lon="-0.466199">
        <ele>1494.0</ele>
        <time>2018-07-22T07:56:30.000Z</time>
      </trkpt>
      <trkpt lat="42.290621" lon="-0.466199">
        <ele>1494.0</ele>
        <time>2018-07-22T07:56:31.000Z</time>
      </trkpt>
      <trkpt lat="42.290621" lon="-0.466199">
        <ele>1494.0</ele>
        <time>2018-07-22T07:56:32.000Z</time>
      </trkpt>
      <trkpt lat="42.290621" lon="-0.466198">
        <ele>1494.1</ele>
        <time>2018-07-22T07:56:33.000Z</time>
      </trkpt>
      <trkpt lat="42.290621" lon="-0.466197">
        <ele>1494.1</ele>
        <time>2018-07-22T07:56:34.000Z</time>
      </trkpt>
      <trkpt lat="42.290622" lon="-0.466196">
        <ele>1494.1</ele>
        <time>2018-07-22T07:56:35.000Z</time>
      </trkpt>
      <trkpt lat="42.290622" lon="-0.466196">
        <ele>1494.1</ele>
        <time>2018-07-22T07:56:36.000Z</time>
      </trkpt>
      <trkpt lat="42.290622" lon="-0.466196">
        <ele>1494.1</ele>
        <time>2018-07-22T07:56:37.000Z</time>
      </trkpt>
      <trkpt lat="42.290622" lon="-0.466196">
        <ele>1494.1</ele>
        <time>2018-07-22T07:56:38.000Z</time>
      </trkpt>
      <trkpt lat="42.290622" lon="-0.466197">
        <ele>1494.1</ele>
        <time>2018-07-22T07:56:39.000Z</time>
      </trkpt>
      <trkpt lat="42.290622" lon="-0.466197">
        <ele>1494.1</ele>
        <time>2018-07-22T07:56:40.000Z</time>
      </trkpt>
      <trkpt lat="42.290622" lon="-0.466198">
        <ele>1494.1</ele>
        <time>2018-07-22T07:56:41.000Z</time>
      </trkpt>
      <trkpt lat="42.290622" lon="-0.466199">
        <ele>1494.1</ele>
        <time>2018-07-22T07:56:42.000Z</time>
      </trkpt>
      <trkpt lat="42.290622" lon="-0.4662">
        <ele>1494.1</ele>
        <time>2018-07-22T07:56:43.000Z</time>
      </trkpt>
      <trkpt lat="42.290622" lon="-0.466202">
        <ele>1494.0</ele>
        <time>2018-07-22T07:56:44.000Z</time>
      </trkpt>
      <trkpt lat="42.290622" lon="-0.466204">
        <ele>1494.0</ele>
        <time>2018-07-22T07:56:45.000Z</time>
      </trkpt>
      <trkpt lat="42.290622" lon="-0.466208">
        <ele>1493.9</ele>
        <time>2018-07-22T07:56:46.000Z</time>
      </trkpt>
      <trkpt lat="42.290622" lon="-0.466214">
        <ele>1493.8</ele>
        <time>2018-07-22T07:56:47.000Z</time>
      </trkpt>
      <trkpt lat="42.290622" lon="-0.466224">
        <ele>1493.6</ele>
        <time>2018-07-22T07:56:48.000Z</time>
      </trkpt>
      <trkpt lat="42.290622" lon="-0.466236">
        <ele>1493.4</ele>
        <time>2018-07-22T07:56:49.000Z</time>
      </trkpt>
      <trkpt lat="42.290621" lon="-0.46625">
        <ele>1493.1</ele>
        <time>2018-07-22T07:56:50.000Z</time>
      </trkpt>
      <trkpt lat="42.29062" lon="-0.466264">
        <ele>1492.8</ele>
        <time>2018-07-22T07:56:51.000Z</time>
      </trkpt>
      <trkpt lat="42.290618" lon="-0.466279">
        <ele>1492.5</ele>
        <time>2018-07-22T07:56:52.000Z</time>
      </trkpt>
      <trkpt lat="42.290617" lon="-0.466294">
        <ele>1492.2</ele>
        <time>2018-07-22T07:56:53.000Z</time>
      </trkpt>
      <trkpt lat="42.290617" lon="-0.466309">
        <ele>1491.9</ele>
        <time>2018-07-22T07:56:54.000Z</time>
      </trkpt>
      <trkpt lat="42.290617" lon="-0.466324">
        <ele>1491.6</ele>
        <time>2018-07-22T07:56:55.000Z</time>
      </trkpt>
      <trkpt lat="42.290617" lon="-0.466338">
        <ele>1491.4</ele>
        <time>2018-07-22T07:56:56.000Z</time>
      </trkpt>
      <trkpt lat="42.290618" lon="-0.466352">
        <ele>1491.2</ele>
        <time>2018-07-22T07:56:57.000Z</time>
      </trkpt>
      <trkpt lat="42.29062" lon="-0.466367">
        <ele>1491.0</ele>
        <time>2018-07-22T07:56:58.000Z</time>
      </trkpt>
      <trkpt lat="42.290623" lon="-0.466381">
        <ele>1490.8</ele>
        <time>2018-07-22T07:56:59.000Z</time>
      </trkpt>
      <trkpt lat="42.290626" lon="-0.466396">
        <ele>1490.7</ele>
        <time>2018-07-22T07:57:00.000Z</time>
      </trkpt>
      <trkpt lat="42.29063" lon="-0.466412">
        <ele>1490.5</ele>
        <time>2018-07-22T07:57:01.000Z</time>
      </trkpt>
      <trkpt lat="42.290634" lon="-0.466427">
        <ele>1490.4</ele>
        <time>2018-07-22T07:57:02.000Z</time>
      </trkpt>
      <trkpt lat="42.290639" lon="-0.466443">
        <ele>1490.3</ele>
        <time>2018-07-22T07:57:03.000Z</time>
      </trkpt>
      <trkpt lat="42.290643" lon="-0.466458">
        <ele>1490.2</ele>
        <time>2018-07-22T07:57:04.000Z</time>
      </trkpt>
      <trkpt lat="42.290647" lon="-0.466473">
        <ele>1490.0</ele>
        <time>2018-07-22T07:57:05.000Z</time>
      </trkpt>
      <trkpt lat="42.290651" lon="-0.466488">
        <ele>1489.9</ele>
        <time>2018-07-22T07:57:06.000Z</time>
      </trkpt>
      <trkpt lat="42.290653" lon="-0.466502">
        <ele>1489.7</ele>
        <time>2018-07-22T07:57:07.000Z</time>
      </trkpt>
      <trkpt lat="42.290656" lon="-0.466516">
        <ele>1489.6</ele>
        <time>2018-07-22T07:57:08.000Z</time>
      </trkpt>
      <trkpt lat="42.290657" lon="-0.466529">
        <ele>1489.4</ele>
        <time>2018-07-22T07:57:09.000Z</time>
      </trkpt>
      <trkpt lat="42.290659" lon="-0.466542">
        <ele>1489.3</ele>
        <time>2018-07-22T07:57:10.000Z</time>
      </trkpt>
      <trkpt lat="42.29066" lon="-0.466554">
        <ele>1489.1</ele>
        <time>2018-07-22T07:57:11.000Z</time>
      </trkpt>
      <trkpt lat="42.29066" lon="-0.466566">
        <ele>1488.9</ele>
        <time>2018-07-22T07:57:12.000Z</time>
      </trkpt>
      <trkpt lat="42.29066" lon="-0.466577">
        <ele>1488.7</ele>
        <time>2018-07-22T07:57:13.000Z</time>
      </trkpt>
      <trkpt lat="42.29066" lon="-0.466588">
        <ele>1488.5</ele>
        <time>2018-07-22T07:57:14.000Z</time>
      </trkpt>
      <trkpt lat="42.29066" lon="-0.466596">
        <ele>1488.4</ele>
        <time>2018-07-22T07:57:15.000Z</time>
      </trkpt>
      <trkpt lat="42.29066" lon="-0.466604">
        <ele>1488.2</ele>
        <time>2018-07-22T07:57:16.000Z</time>
      </trkpt>
      <trkpt lat="42.29066" lon="-0.466609">
        <ele>1488.1</ele>
        <time>2018-07-22T07:57:17.000Z</time>
      </trkpt>
      <trkpt lat="42.29066" lon="-0.466613">
        <ele>1488.1</ele>
        <time>2018-07-22T07:57:18.000Z</time>
      </trkpt>
      <trkpt lat="42.290659" lon="-0.466616">
        <ele>1488.0</ele>
        <time>2018-07-22T07:57:19.000Z</time>
      </trkpt>
      <trkpt lat="42.290659" lon="-0.466618">
        <ele>1487.9</ele>
        <time>2018-07-22T07:57:20.000Z</time>
      </trkpt>
      <trkpt lat="42.290659" lon="-0.466619">
        <ele>1487.9</ele>
        <time>2018-07-22T07:57:21.000Z</time>
      </trkpt>
      <trkpt lat="42.290658" lon="-0.46662">
        <ele>1487.9</ele>
        <time>2018-07-22T07:57:22.000Z</time>
      </trkpt>
      <trkpt lat="42.290658" lon="-0.46662">
        <ele>1487.9</ele>
        <time>2018-07-22T07:57:23.000Z</time>
      </trkpt>
      <trkpt lat="42.290658" lon="-0.46662">
        <ele>1487.9</ele>
        <time>2018-07-22T07:57:24.000Z</time>
      </trkpt>
      <trkpt lat="42.290658" lon="-0.466621">
        <ele>1487.9</ele>
        <time>2018-07-22T07:57:25.000Z</time>
      </trkpt>
      <trkpt lat="42.290658" lon="-0.466621">
        <ele>1487.9</ele>
        <time>2018-07-22T07:57:26.000Z</time>
      </trkpt>
      <trkpt lat="42.290658" lon="-0.466621">
        <ele>1487.9</ele>
        <time>2018-07-22T07:57:27.000Z</time>
      </trkpt>
      <trkpt lat="42.290658" lon="-0.466622">
        <ele>1487.8</ele>
        <time>2018-07-22T07:57:28.000Z</time>
      </trkpt>
      <trkpt lat="42.290658" lon="-0.466623">
        <ele>1487.8</ele>
        <time>2018-07-22T07:57:29.000Z</time>
      </trkpt>
      <trkpt lat="42.290658" lon="-0.466624">
        <ele>1487.8</ele>
        <time>2018-07-22T07:57:30.000Z</time>
      </trkpt>
      <trkpt lat="42.290658" lon="-0.466625">
        <ele>1487.8</ele>
        <time>2018-07-22T07:57:31.000Z</time>
      </trkpt>
      <trkpt lat="42.290657" lon="-0.466626">
        <ele>1487.7</ele>
        <time>2018-07-22T07:57:32.000Z</time>
      </trkpt>
      <trkpt lat="42.290657" lon="-0.466627">
        <ele>1487.7</ele>
        <time>2018-07-22T07:57:33.000Z</time>
      </trkpt>
      <trkpt lat="42.290657" lon="-0.466628">
        <ele>1487.7</ele>
        <time>2018-07-22T07:57:34.000Z</time>
      </trkpt>
      <trkpt lat="42.290657" lon="-0.466629">
        <ele>1487.7</ele>
        <time>2018-07-22T07:57:35.000Z</time>
      </trkpt>
      <trkpt lat="42.290657" lon="-0.46663">
        <ele>1487.7</ele>
        <time>2018-07-22T07:57:36.000Z</time>
      </trkpt>
      <trkpt lat="42.290657" lon="-0.46663">
        <ele>1487.7</ele>
        <time>2018-07-22T07:57:37.000Z</time>
      </trkpt>
      <trkpt lat="42.290657" lon="-0.46663">
        <ele>1487.7</ele>
        <time>2018-07-22T07:57:38.000Z</time>
      </trkpt>
      <trkpt lat="42.290658" lon="-0.466629">
        <ele>1487.7</ele>
        <time>2018-07-22T07:57:39.000Z</time>
      </trkpt>
      <trkpt lat="42.290658" lon="-0.466628">
        <ele>1487.7</ele>
        <time>2018-07-22T07:57:40.000Z</time>
      </trkpt>
      <trkpt lat="42.290659" lon="-0.466629">
        <ele>1487.8</ele>
        <time>2018-07-22T07:57:41.000Z</time>
      </trkpt>
      <trkpt lat="42.290658" lon="-0.46663">
        <ele>1487.7</ele>
        <time>2018-07-22T07:57:42.000Z</time>
      </trkpt>
      <trkpt lat="42.290657" lon="-0.466633">
        <ele>1487.6</ele>
        <time>2018-07-22T07:57:43.000Z</time>
      </trkpt>
      <trkpt lat="42.290655" lon="-0.466638">
        <ele>1487.4</ele>
        <time>2018-07-22T07:57:44.000Z</time>
      </trkpt>
      <trkpt lat="42.290652" lon="-0.466647">
        <ele>1487.2</ele>
        <time>2018-07-22T07:57:45.000Z</time>
      </trkpt>
      <trkpt lat="42.290648" lon="-0.466657">
        <ele>1486.8</ele>
        <time>2018-07-22T07:57:46.000Z</time>
      </trkpt>
      <trkpt lat="42.290644" lon="-0.46667">
        <ele>1486.4</ele>
        <time>2018-07-22T07:57:47.000Z</time>
      </trkpt>
      <trkpt lat="42.29064" lon="-0.466684">
        <ele>1485.9</ele>
        <time>2018-07-22T07:57:48.000Z</time>
      </trkpt>
      <trkpt lat="42.290638" lon="-0.466699">
        <ele>1485.5</ele>
        <time>2018-07-22T07:57:49.000Z</time>
      </trkpt>
      <trkpt lat="42.290636" lon="-0.466715">
        <ele>1485.1</ele>
        <time>2018-07-22T07:57:50.000Z</time>
      </trkpt>
      <trkpt lat="42.290636" lon="-0.466731">
        <ele>1484.7</ele>
        <time>2018-07-22T07:57:51.000Z</time>
      </trkpt>
      <trkpt lat="42.290638" lon="-0.466747">
        <ele>1484.4</ele>
        <time>2018-07-22T07:57:52.000Z</time>
      </trkpt>
      <trkpt lat="42.290641" lon="-0.466764">
        <ele>1484.1</ele>
        <time>2018-07-22T07:57:53.000Z</time>
      </trkpt>
      <trkpt lat="42.290645" lon="-0.46678">
        <ele>1483.9</ele>
        <time>2018-07-22T07:57:54.000Z</time>
      </trkpt>
      <trkpt lat="42.290651" lon="-0.466795">
        <ele>1483.8</ele>
        <time>2018-07-22T07:57:55.000Z</time>
      </trkpt>
      <trkpt lat="42.290658" lon="-0.46681">
        <ele>1483.7</ele>
        <time>2018-07-22T07:57:56.000Z</time>
      </trkpt>
      <trkpt lat="42.290667" lon="-0.466823">
        <ele>1483.8</ele>
        <time>2018-07-22T07:57:57.000Z</time>
      </trkpt>
      <trkpt lat="42.290677" lon="-0.466834">
        <ele>1483.9</ele>
        <time>2018-07-22T07:57:58.000Z</time>
      </trkpt>
      <trkpt lat="42.290688" lon="-0.466843">
        <ele>1484.2</ele>
        <time>2018-07-22T07:57:59.000Z</time>
      </trkpt>
      <trkpt lat="42.2907" lon="-0.466849">
        <ele>1484.5</ele>
        <time>2018-07-22T07:58:00.000Z</time>
      </trkpt>
      <trkpt lat="42.290713" lon="-0.466853">
        <ele>1484.9</ele>
        <time>2018-07-22T07:58:01.000Z</time>
      </trkpt>
      <trkpt lat="42.290725" lon="-0.466856">
        <ele>1485.3</ele>
        <time>2018-07-22T07:58:02.000Z</time>
      </trkpt>
      <trkpt lat="42.290736" lon="-0.466862">
        <ele>1485.6</ele>
        <time>2018-07-22T07:58:03.000Z</time>
      </trkpt>
      <trkpt lat="42.290745" lon="-0.466874">
        <ele>1485.7</ele>
        <time>2018-07-22T07:58:04.000Z</time>
      </trkpt>
      <trkpt lat="42.290752" lon="-0.46689">
        <ele>1485.6</ele>
        <time>2018-07-22T07:58:05.000Z</time>
      </trkpt>
      <trkpt lat="42.290758" lon="-0.466907">
        <ele>1485.5</ele>
        <time>2018-07-22T07:58:06.000Z</time>
      </trkpt>
      <trkpt lat="42.290765" lon="-0.466923">
        <ele>1485.4</ele>
        <time>2018-07-22T07:58:07.000Z</time>
      </trkpt>
      <trkpt lat="42.290772" lon="-0.466938">
        <ele>1485.3</ele>
        <time>2018-07-22T07:58:08.000Z</time>
      </trkpt>
      <trkpt lat="42.29078" lon="-0.466951">
        <ele>1485.4</ele>
        <time>2018-07-22T07:58:09.000Z</time>
      </trkpt>
      <trkpt lat="42.290788" lon="-0.466964">
        <ele>1485.4</ele>
        <time>2018-07-22T07:58:10.000Z</time>
      </trkpt>
      <trkpt lat="42.290796" lon="-0.466976">
        <ele>1485.4</ele>
        <time>2018-07-22T07:58:11.000Z</time>
      </trkpt>
      <trkpt lat="42.290804" lon="-0.466988">
        <ele>1485.5</ele>
        <time>2018-07-22T07:58:12.000Z</time>
      </trkpt>
      <trkpt lat="42.290811" lon="-0.466999">
        <ele>1485.5</ele>
        <time>2018-07-22T07:58:13.000Z</time>
      </trkpt>
      <trkpt lat="42.290818" lon="-0.46701">
        <ele>1485.5</ele>
        <time>2018-07-22T07:58:14.000Z</time>
      </trkpt>
      <trkpt lat="42.290823" lon="-0.46702">
        <ele>1485.5</ele>
        <time>2018-07-22T07:58:15.000Z</time>
      </trkpt>
      <trkpt lat="42.290827" lon="-0.467029">
        <ele>1485.5</ele>
        <time>2018-07-22T07:58:16.000Z</time>
      </trkpt>
      <trkpt lat="42.290829" lon="-0.467037">
        <ele>1485.4</ele>
        <time>2018-07-22T07:58:17.000Z</time>
      </trkpt>
      <trkpt lat="42.29083" lon="-0.467045">
        <ele>1485.2</ele>
        <time>2018-07-22T07:58:18.000Z</time>
      </trkpt>
      <trkpt lat="42.29083" lon="-0.467052">
        <ele>1485.1</ele>
        <time>2018-07-22T07:58:19.000Z</time>
      </trkpt>
      <trkpt lat="42.290829" lon="-0.467061">
        <ele>1484.8</ele>
        <time>2018-07-22T07:58:20.000Z</time>
      </trkpt>
      <trkpt lat="42.29083" lon="-0.467071">
        <ele>1484.6</ele>
        <time>2018-07-22T07:58:21.000Z</time>
      </trkpt>
      <trkpt lat="42.290831" lon="-0.467083">
        <ele>1484.4</ele>
        <time>2018-07-22T07:58:22.000Z</time>
      </trkpt>
      <trkpt lat="42.290833" lon="-0.467096">
        <ele>1484.2</ele>
        <time>2018-07-22T07:58:23.000Z</time>
      </trkpt>
      <trkpt lat="42.290836" lon="-0.46711">
        <ele>1484.0</ele>
        <time>2018-07-22T07:58:24.000Z</time>
      </trkpt>
      <trkpt lat="42.29084" lon="-0.467123">
        <ele>1483.8</ele>
        <time>2018-07-22T07:58:25.000Z</time>
      </trkpt>
      <trkpt lat="42.290844" lon="-0.467135">
        <ele>1483.6</ele>
        <time>2018-07-22T07:58:26.000Z</time>
      </trkpt>
      <trkpt lat="42.290848" lon="-0.467144">
        <ele>1483.6</ele>
        <time>2018-07-22T07:58:27.000Z</time>
      </trkpt>
      <trkpt lat="42.290852" lon="-0.467151">
        <ele>1483.5</ele>
        <time>2018-07-22T07:58:28.000Z</time>
      </trkpt>
      <trkpt lat="42.290856" lon="-0.467159">
        <ele>1483.5</ele>
        <time>2018-07-22T07:58:29.000Z</time>
      </trkpt>
      <trkpt lat="42.290862" lon="-0.467169">
        <ele>1483.4</ele>
        <time>2018-07-22T07:58:30.000Z</time>
      </trkpt>
      <trkpt lat="42.290869" lon="-0.467183">
        <ele>1483.3</ele>
        <time>2018-07-22T07:58:31.000Z</time>
      </trkpt>
      <trkpt lat="42.290875" lon="-0.467201">
        <ele>1483.1</ele>
        <time>2018-07-22T07:58:32.000Z</time>
      </trkpt>
      <trkpt lat="42.290881" lon="-0.467218">
        <ele>1482.9</ele>
        <time>2018-07-22T07:58:33.000Z</time>
      </trkpt>
      <trkpt lat="42.290886" lon="-0.467234">
        <ele>1482.7</ele>
        <time>2018-07-22T07:58:34.000Z</time>
      </trkpt>
      <trkpt lat="42.29089" lon="-0.46725">
        <ele>1482.5</ele>
        <time>2018-07-22T07:58:35.000Z</time>
      </trkpt>
      <trkpt lat="42.290894" lon="-0.467265">
        <ele>1482.3</ele>
        <time>2018-07-22T07:58:36.000Z</time>
      </trkpt>
      <trkpt lat="42.290898" lon="-0.46728">
        <ele>1482.1</ele>
        <time>2018-07-22T07:58:37.000Z</time>
      </trkpt>
      <trkpt lat="42.290902" lon="-0.467294">
        <ele>1481.9</ele>
        <time>2018-07-22T07:58:38.000Z</time>
      </trkpt>
      <trkpt lat="42.290907" lon="-0.467307">
        <ele>1481.8</ele>
        <time>2018-07-22T07:58:39.000Z</time>
      </trkpt>
      <trkpt lat="42.290913" lon="-0.46732">
        <ele>1481.7</ele>
        <time>2018-07-22T07:58:40.000Z</time>
      </trkpt>
      <trkpt lat="42.290919" lon="-0.467333">
        <ele>1481.6</ele>
        <time>2018-07-22T07:58:41.000Z</time>
      </trkpt>
      <trkpt lat="42.290925" lon="-0.467347">
        <ele>1481.5</ele>
        <time>2018-07-22T07:58:42.000Z</time>
      </trkpt>
      <trkpt lat="42.290932" lon="-0.46736">
        <ele>1481.5</ele>
        <time>2018-07-22T07:58:43.000Z</time>
      </trkpt>
      <trkpt lat="42.290938" lon="-0.467374">
        <ele>1481.4</ele>
        <time>2018-07-22T07:58:44.000Z</time>
      </trkpt>
      <trkpt lat="42.290945" lon="-0.467388">
        <ele>1481.4</ele>
        <time>2018-07-22T07:58:45.000Z</time>
      </trkpt>
      <trkpt lat="42.290951" lon="-0.467403">
        <ele>1481.3</ele>
        <time>2018-07-22T07:58:46.000Z</time>
      </trkpt>
      <trkpt lat="42.290957" lon="-0.467418">
        <ele>1481.1</ele>
        <time>2018-07-22T07:58:47.000Z</time>
      </trkpt>
      <trkpt lat="42.290963" lon="-0.467434">
        <ele>1481.0</ele>
        <time>2018-07-22T07:58:48.000Z</time>
      </trkpt>
      <trkpt lat="42.29097" lon="-0.46745">
        <ele>1480.9</ele>
        <time>2018-07-22T07:58:49.000Z</time>
      </trkpt>
      <trkpt lat="42.290976" lon="-0.467466">
        <ele>1480.8</ele>
        <time>2018-07-22T07:58:50.000Z</time>
      </trkpt>
      <trkpt lat="42.290982" lon="-0.467483">
        <ele>1480.7</ele>
        <time>2018-07-22T07:58:51.000Z</time>
      </trkpt>
      <trkpt lat="42.290989" lon="-0.4675">
        <ele>1480.6</ele>
        <time>2018-07-22T07:58:52.000Z</time>
      </trkpt>
      <trkpt lat="42.290995" lon="-0.467517">
        <ele>1480.4</ele>
        <time>2018-07-22T07:58:53.000Z</time>
      </trkpt>
      <trkpt lat="42.291002" lon="-0.467534">
        <ele>1480.3</ele>
        <time>2018-07-22T07:58:54.000Z</time>
      </trkpt>
      <trkpt lat="42.291009" lon="-0.467552">
        <ele>1480.2</ele>
        <time>2018-07-22T07:58:55.000Z</time>
      </trkpt>
      <trkpt lat="42.291016" lon="-0.46757">
        <ele>1480.0</ele>
        <time>2018-07-22T07:58:56.000Z</time>
      </trkpt>
      <trkpt lat="42.291023" lon="-0.467588">
        <ele>1479.9</ele>
        <time>2018-07-22T07:58:57.000Z</time>
      </trkpt>
      <trkpt lat="42.29103" lon="-0.467607">
        <ele>1479.7</ele>
        <time>2018-07-22T07:58:58.000Z</time>
      </trkpt>
      <trkpt lat="42.291037" lon="-0.467625">
        <ele>1479.6</ele>
        <time>2018-07-22T07:58:59.000Z</time>
      </trkpt>
      <trkpt lat="42.291044" lon="-0.467643">
        <ele>1479.5</ele>
        <time>2018-07-22T07:59:00.000Z</time>
      </trkpt>
      <trkpt lat="42.29105" lon="-0.467661">
        <ele>1479.3</ele>
        <time>2018-07-22T07:59:01.000Z</time>
      </trkpt>
      <trkpt lat="42.291057" lon="-0.467679">
        <ele>1479.1</ele>
        <time>2018-07-22T07:59:02.000Z</time>
      </trkpt>
      <trkpt lat="42.291063" lon="-0.467698">
        <ele>1478.9</ele>
        <time>2018-07-22T07:59:03.000Z</time>
      </trkpt>
      <trkpt lat="42.29107" lon="-0.467717">
        <ele>1478.8</ele>
        <time>2018-07-22T07:59:04.000Z</time>
      </trkpt>
      <trkpt lat="42.291077" lon="-0.467736">
        <ele>1478.6</ele>
        <time>2018-07-22T07:59:05.000Z</time>
      </trkpt>
      <trkpt lat="42.291084" lon="-0.467757">
        <ele>1478.4</ele>
        <time>2018-07-22T07:59:06.000Z</time>
      </trkpt>
      <trkpt lat="42.291092" lon="-0.467777">
        <ele>1478.2</ele>
        <time>2018-07-22T07:59:07.000Z</time>
      </trkpt>
      <trkpt lat="42.2911" lon="-0.467798">
        <ele>1478.0</ele>
        <time>2018-07-22T07:59:08.000Z</time>
      </trkpt>
      <trkpt lat="42.291108" lon="-0.467819">
        <ele>1477.9</ele>
        <time>2018-07-22T07:59:09.000Z</time>
      </trkpt>
      <trkpt lat="42.291116" lon="-0.467839">
        <ele>1477.7</ele>
        <time>2018-07-22T07:59:10.000Z</time>
      </trkpt>
      <trkpt lat="42.291125" lon="-0.467857">
        <ele>1477.6</ele>
        <time>2018-07-22T07:59:11.000Z</time>
      </trkpt>
      <trkpt lat="42.291134" lon="-0.467875">
        <ele>1477.6</ele>
        <time>2018-07-22T07:59:12.000Z</time>
      </trkpt>
      <trkpt lat="42.291143" lon="-0.467892">
        <ele>1477.5</ele>
        <time>2018-07-22T07:59:13.000Z</time>
      </trkpt>
      <trkpt lat="42.291152" lon="-0.467909">
        <ele>1477.4</ele>
        <time>2018-07-22T07:59:14.000Z</time>
      </trkpt>
      <trkpt lat="42.29116" lon="-0.467926">
        <ele>1477.4</ele>
        <time>2018-07-22T07:59:15.000Z</time>
      </trkpt>
      <trkpt lat="42.291168" lon="-0.467943">
        <ele>1477.3</ele>
        <time>2018-07-22T07:59:16.000Z</time>
      </trkpt>
      <trkpt lat="42.291174" lon="-0.467961">
        <ele>1477.1</ele>
        <time>2018-07-22T07:59:17.000Z</time>
      </trkpt>
      <trkpt lat="42.29118" lon="-0.46798">
        <ele>1476.9</ele>
        <time>2018-07-22T07:59:18.000Z</time>
      </trkpt>
      <trkpt lat="42.291186" lon="-0.467999">
        <ele>1476.7</ele>
        <time>2018-07-22T07:59:19.000Z</time>
      </trkpt>
      <trkpt lat="42.29119" lon="-0.468019">
        <ele>1476.4</ele>
        <time>2018-07-22T07:59:20.000Z</time>
      </trkpt>
      <trkpt lat="42.291195" lon="-0.468039">
        <ele>1476.1</ele>
        <time>2018-07-22T07:59:21.000Z</time>
      </trkpt>
      <trkpt lat="42.291199" lon="-0.46806">
        <ele>1475.8</ele>
        <time>2018-07-22T07:59:22.000Z</time>
      </trkpt>
      <trkpt lat="42.291203" lon="-0.46808">
        <ele>1475.5</ele>
        <time>2018-07-22T07:59:23.000Z</time>
      </trkpt>
      <trkpt lat="42.291206" lon="-0.468101">
        <ele>1475.1</ele>
        <time>2018-07-22T07:59:24.000Z</time>
      </trkpt>
      <trkpt lat="42.29121" lon="-0.468121">
        <ele>1474.8</ele>
        <time>2018-07-22T07:59:25.000Z</time>
      </trkpt>
      <trkpt lat="42.291214" lon="-0.468141">
        <ele>1474.5</ele>
        <time>2018-07-22T07:59:26.000Z</time>
      </trkpt>
      <trkpt lat="42.291219" lon="-0.46816">
        <ele>1474.3</ele>
        <time>2018-07-22T07:59:27.000Z</time>
      </trkpt>
      <trkpt lat="42.291223" lon="-0.468179">
        <ele>1474.0</ele>
        <time>2018-07-22T07:59:28.000Z</time>
      </trkpt>
      <trkpt lat="42.291229" lon="-0.468197">
        <ele>1473.8</ele>
        <time>2018-07-22T07:59:29.000Z</time>
      </trkpt>
      <trkpt lat="42.291234" lon="-0.468215">
        <ele>1473.6</ele>
        <time>2018-07-22T07:59:30.000Z</time>
      </trkpt>
      <trkpt lat="42.29124" lon="-0.468232">
        <ele>1473.4</ele>
        <time>2018-07-22T07:59:31.000Z</time>
      </trkpt>
      <trkpt lat="42.291247" lon="-0.468249">
        <ele>1473.3</ele>
        <time>2018-07-22T07:59:32.000Z</time>
      </trkpt>
      <trkpt lat="42.291254" lon="-0.468265">
        <ele>1473.2</ele>
        <time>2018-07-22T07:59:33.000Z</time>
      </trkpt>
      <trkpt lat="42.291262" lon="-0.468281">
        <ele>1473.1</ele>
        <time>2018-07-22T07:59:34.000Z</time>
      </trkpt>
      <trkpt lat="42.29127" lon="-0.468296">
        <ele>1473.0</ele>
        <time>2018-07-22T07:59:35.000Z</time>
      </trkpt>
      <trkpt lat="42.291279" lon="-0.468311">
        <ele>1473.0</ele>
        <time>2018-07-22T07:59:36.000Z</time>
      </trkpt>
      <trkpt lat="42.291289" lon="-0.468326">
        <ele>1473.0</ele>
        <time>2018-07-22T07:59:37.000Z</time>
      </trkpt>
      <trkpt lat="42.291299" lon="-0.468341">
        <ele>1473.1</ele>
        <time>2018-07-22T07:59:38.000Z</time>
      </trkpt>
      <trkpt lat="42.29131" lon="-0.468355">
        <ele>1473.2</ele>
        <time>2018-07-22T07:59:39.000Z</time>
      </trkpt>
      <trkpt lat="42.291321" lon="-0.46837">
        <ele>1473.4</ele>
        <time>2018-07-22T07:59:40.000Z</time>
      </trkpt>
      <trkpt lat="42.291332" lon="-0.468384">
        <ele>1473.5</ele>
        <time>2018-07-22T07:59:41.000Z</time>
      </trkpt>
      <trkpt lat="42.291344" lon="-0.468398">
        <ele>1473.7</ele>
        <time>2018-07-22T07:59:42.000Z</time>
      </trkpt>
      <trkpt lat="42.291355" lon="-0.468413">
        <ele>1473.8</ele>
        <time>2018-07-22T07:59:43.000Z</time>
      </trkpt>
      <trkpt lat="42.291367" lon="-0.468428">
        <ele>1474.0</ele>
        <time>2018-07-22T07:59:44.000Z</time>
      </trkpt>
      <trkpt lat="42.291377" lon="-0.468443">
        <ele>1474.0</ele>
        <time>2018-07-22T07:59:45.000Z</time>
      </trkpt>
      <trkpt lat="42.291387" lon="-0.468459">
        <ele>1474.1</ele>
        <time>2018-07-22T07:59:46.000Z</time>
      </trkpt>
      <trkpt lat="42.291396" lon="-0.468475">
        <ele>1474.1</ele>
        <time>2018-07-22T07:59:47.000Z</time>
      </trkpt>
      <trkpt lat="42.291404" lon="-0.468492">
        <ele>1474.1</ele>
        <time>2018-07-22T07:59:48.000Z</time>
      </trkpt>
      <trkpt lat="42.291411" lon="-0.46851">
        <ele>1474.0</ele>
        <time>2018-07-22T07:59:49.000Z</time>
      </trkpt>
      <trkpt lat="42.291417" lon="-0.468528">
        <ele>1473.9</ele>
        <time>2018-07-22T07:59:50.000Z</time>
      </trkpt>
      <trkpt lat="42.291422" lon="-0.468547">
        <ele>1473.8</ele>
        <time>2018-07-22T07:59:51.000Z</time>
      </trkpt>
      <trkpt lat="42.291427" lon="-0.468567">
        <ele>1473.6</ele>
        <time>2018-07-22T07:59:52.000Z</time>
      </trkpt>
      <trkpt lat="42.291431" lon="-0.468587">
        <ele>1473.4</ele>
        <time>2018-07-22T07:59:53.000Z</time>
      </trkpt>
      <trkpt lat="42.291435" lon="-0.468608">
        <ele>1473.1</ele>
        <time>2018-07-22T07:59:54.000Z</time>
      </trkpt>
      <trkpt lat="42.29144" lon="-0.468629">
        <ele>1472.9</ele>
        <time>2018-07-22T07:59:55.000Z</time>
      </trkpt>
      <trkpt lat="42.291445" lon="-0.46865">
        <ele>1472.7</ele>
        <time>2018-07-22T07:59:56.000Z</time>
      </trkpt>
      <trkpt lat="42.29145" lon="-0.468672">
        <ele>1472.5</ele>
        <time>2018-07-22T07:59:57.000Z</time>
      </trkpt>
      <trkpt lat="42.291456" lon="-0.468693">
        <ele>1472.3</ele>
        <time>2018-07-22T07:59:58.000Z</time>
      </trkpt>
      <trkpt lat="42.291462" lon="-0.468714">
        <ele>1472.1</ele>
        <time>2018-07-22T07:59:59.000Z</time>
      </trkpt>
      <trkpt lat="42.29147" lon="-0.468734">
        <ele>1472.0</ele>
        <time>2018-07-22T08:00:00.000Z</time>
      </trkpt>
      <trkpt lat="42.291479" lon="-0.468753">
        <ele>1472.0</ele>
        <time>2018-07-22T08:00:01.000Z</time>
      </trkpt>
      <trkpt lat="42.291488" lon="-0.46877">
        <ele>1472.0</ele>
        <time>2018-07-22T08:00:02.000Z</time>
      </trkpt>
      <trkpt lat="42.291498" lon="-0.468784">
        <ele>1472.0</ele>
        <time>2018-07-22T08:00:03.000Z</time>
      </trkpt>
      <trkpt lat="42.291509" lon="-0.468796">
        <ele>1472.2</ele>
        <time>2018-07-22T08:00:04.000Z</time>
      </trkpt>
      <trkpt lat="42.29152" lon="-0.468808">
        <ele>1472.3</ele>
        <time>2018-07-22T08:00:05.000Z</time>
      </trkpt>
      <trkpt lat="42.291531" lon="-0.46882">
        <ele>1472.4</ele>
        <time>2018-07-22T08:00:06.000Z</time>
      </trkpt>
      <trkpt lat="42.291542" lon="-0.468831">
        <ele>1472.6</ele>
        <time>2018-07-22T08:00:07.000Z</time>
      </trkpt>
      <trkpt lat="42.291553" lon="-0.468844">
        <ele>1472.7</ele>
        <time>2018-07-22T08:00:08.000Z</time>
      </trkpt>
      <trkpt lat="42.291563" lon="-0.468856">
        <ele>1472.7</ele>
        <time>2018-07-22T08:00:09.000Z</time>
      </trkpt>
      <trkpt lat="42.291574" lon="-0.468868">
        <ele>1472.9</ele>
        <time>2018-07-22T08:00:10.000Z</time>
      </trkpt>
      <trkpt lat="42.291585" lon="-0.46888">
        <ele>1473.0</ele>
        <time>2018-07-22T08:00:11.000Z</time>
      </trkpt>
      <trkpt lat="42.291596" lon="-0.468892">
        <ele>1473.1</ele>
        <time>2018-07-22T08:00:12.000Z</time>
      </trkpt>
      <trkpt lat="42.291607" lon="-0.468904">
        <ele>1473.2</ele>
        <time>2018-07-22T08:00:13.000Z</time>
      </trkpt>
      <trkpt lat="42.291618" lon="-0.468916">
        <ele>1473.3</ele>
        <time>2018-07-22T08:00:14.000Z</time>
      </trkpt>
      <trkpt lat="42.291629" lon="-0.468927">
        <ele>1473.5</ele>
        <time>2018-07-22T08:00:15.000Z</time>
      </trkpt>
      <trkpt lat="42.29164" lon="-0.468939">
        <ele>1473.6</ele>
        <time>2018-07-22T08:00:16.000Z</time>
      </trkpt>
      <trkpt lat="42.291652" lon="-0.46895">
        <ele>1473.7</ele>
        <time>2018-07-22T08:00:17.000Z</time>
      </trkpt>
      <trkpt lat="42.291663" lon="-0.468962">
        <ele>1473.8</ele>
        <time>2018-07-22T08:00:18.000Z</time>
      </trkpt>
      <trkpt lat="42.291674" lon="-0.468973">
        <ele>1473.9</ele>
        <time>2018-07-22T08:00:19.000Z</time>
      </trkpt>
      <trkpt lat="42.291685" lon="-0.468983">
        <ele>1473.9</ele>
        <time>2018-07-22T08:00:20.000Z</time>
      </trkpt>
      <trkpt lat="42.291696" lon="-0.468994">
        <ele>1474.0</ele>
        <time>2018-07-22T08:00:21.000Z</time>
      </trkpt>
      <trkpt lat="42.291707" lon="-0.469004">
        <ele>1474.0</ele>
        <time>2018-07-22T08:00:22.000Z</time>
      </trkpt>
      <trkpt lat="42.291718" lon="-0.469014">
        <ele>1474.1</ele>
        <time>2018-07-22T08:00:23.000Z</time>
      </trkpt>
      <trkpt lat="42.291728" lon="-0.469024">
        <ele>1474.1</ele>
        <time>2018-07-22T08:00:24.000Z</time>
      </trkpt>
      <trkpt lat="42.291739" lon="-0.469033">
        <ele>1474.2</ele>
        <time>2018-07-22T08:00:25.000Z</time>
      </trkpt>
      <trkpt lat="42.291749" lon="-0.469043">
        <ele>1474.2</ele>
        <time>2018-07-22T08:00:26.000Z</time>
      </trkpt>
      <trkpt lat="42.291759" lon="-0.469053">
        <ele>1474.2</ele>
        <time>2018-07-22T08:00:27.000Z</time>
      </trkpt>
      <trkpt lat="42.291769" lon="-0.469064">
        <ele>1474.2</ele>
        <time>2018-07-22T08:00:28.000Z</time>
      </trkpt>
      <trkpt lat="42.291779" lon="-0.469074">
        <ele>1474.3</ele>
        <time>2018-07-22T08:00:29.000Z</time>
      </trkpt>
      <trkpt lat="42.291788" lon="-0.469086">
        <ele>1474.3</ele>
        <time>2018-07-22T08:00:30.000Z</time>
      </trkpt>
      <trkpt lat="42.291797" lon="-0.469097">
        <ele>1474.3</ele>
        <time>2018-07-22T08:00:31.000Z</time>
      </trkpt>
      <trkpt lat="42.291806" lon="-0.46911">
        <ele>1474.2</ele>
        <time>2018-07-22T08:00:32.000Z</time>
      </trkpt>
      <trkpt lat="42.291814" lon="-0.469122">
        <ele>1474.2</ele>
        <time>2018-07-22T08:00:33.000Z</time>
      </trkpt>
      <trkpt lat="42.291822" lon="-0.469135">
        <ele>1474.1</ele>
        <time>2018-07-22T08:00:34.000Z</time>
      </trkpt>
      <trkpt lat="42.29183" lon="-0.469147">
        <ele>1474.1</ele>
        <time>2018-07-22T08:00:35.000Z</time>
      </trkpt>
      <trkpt lat="42.291838" lon="-0.469158">
        <ele>1474.1</ele>
        <time>2018-07-22T08:00:36.000Z</time>
      </trkpt>
      <trkpt lat="42.291846" lon="-0.469168">
        <ele>1474.1</ele>
        <time>2018-07-22T08:00:37.000Z</time>
      </trkpt>
      <trkpt lat="42.291854" lon="-0.469176">
        <ele>1474.1</ele>
        <time>2018-07-22T08:00:38.000Z</time>
      </trkpt>
      <trkpt lat="42.291861" lon="-0.469184">
        <ele>1474.2</ele>
        <time>2018-07-22T08:00:39.000Z</time>
      </trkpt>
      <trkpt lat="42.291869" lon="-0.469191">
        <ele>1474.2</ele>
        <time>2018-07-22T08:00:40.000Z</time>
      </trkpt>
      <trkpt lat="42.291877" lon="-0.4692">
        <ele>1474.3</ele>
        <time>2018-07-22T08:00:41.000Z</time>
      </trkpt>
      <trkpt lat="42.291884" lon="-0.469209">
        <ele>1474.3</ele>
        <time>2018-07-22T08:00:42.000Z</time>
      </trkpt>
      <trkpt lat="42.291891" lon="-0.469221">
        <ele>1474.3</ele>
        <time>2018-07-22T08:00:43.000Z</time>
      </trkpt>
      <trkpt lat="42.291897" lon="-0.469235">
        <ele>1474.2</ele>
        <time>2018-07-22T08:00:44.000Z</time>
      </trkpt>
      <trkpt lat="42.291903" lon="-0.469249">
        <ele>1474.2</ele>
        <time>2018-07-22T08:00:45.000Z</time>
      </trkpt>
      <trkpt lat="42.291909" lon="-0.469265">
        <ele>1474.1</ele>
        <time>2018-07-22T08:00:46.000Z</time>
      </trkpt>
      <trkpt lat="42.291915" lon="-0.46928">
        <ele>1474.0</ele>
        <time>2018-07-22T08:00:47.000Z</time>
      </trkpt>
      <trkpt lat="42.291921" lon="-0.469295">
        <ele>1473.9</ele>
        <time>2018-07-22T08:00:48.000Z</time>
      </trkpt>
      <trkpt lat="42.291926" lon="-0.469309">
        <ele>1473.8</ele>
        <time>2018-07-22T08:00:49.000Z</time>
      </trkpt>
      <trkpt lat="42.291932" lon="-0.469323">
        <ele>1473.7</ele>
        <time>2018-07-22T08:00:50.000Z</time>
      </trkpt>
      <trkpt lat="42.291937" lon="-0.469336">
        <ele>1473.7</ele>
        <time>2018-07-22T08:00:51.000Z</time>
      </trkpt>
      <trkpt lat="42.291942" lon="-0.469348">
        <ele>1473.6</ele>
        <time>2018-07-22T08:00:52.000Z</time>
      </trkpt>
      <trkpt lat="42.291948" lon="-0.469361">
        <ele>1473.5</ele>
        <time>2018-07-22T08:00:53.000Z</time>
      </trkpt>
      <trkpt lat="42.291953" lon="-0.469374">
        <ele>1473.5</ele>
        <time>2018-07-22T08:00:54.000Z</time>
      </trkpt>
      <trkpt lat="42.291958" lon="-0.469387">
        <ele>1473.4</ele>
        <time>2018-07-22T08:00:55.000Z</time>
      </trkpt>
      <trkpt lat="42.291963" lon="-0.469401">
        <ele>1473.3</ele>
        <time>2018-07-22T08:00:56.000Z</time>
      </trkpt>
      <trkpt lat="42.291968" lon="-0.469415">
        <ele>1473.2</ele>
        <time>2018-07-22T08:00:57.000Z</time>
      </trkpt>
      <trkpt lat="42.291971" lon="-0.469429">
        <ele>1473.1</ele>
        <time>2018-07-22T08:00:58.000Z</time>
      </trkpt>
      <trkpt lat="42.291974" lon="-0.469444">
        <ele>1472.9</ele>
        <time>2018-07-22T08:00:59.000Z</time>
      </trkpt>
      <trkpt lat="42.291976" lon="-0.469459">
        <ele>1472.8</ele>
        <time>2018-07-22T08:01:00.000Z</time>
      </trkpt>
      <trkpt lat="42.291977" lon="-0.469474">
        <ele>1472.6</ele>
        <time>2018-07-22T08:01:01.000Z</time>
      </trkpt>
      <trkpt lat="42.291979" lon="-0.46949">
        <ele>1472.4</ele>
        <time>2018-07-22T08:01:02.000Z</time>
      </trkpt>
      <trkpt lat="42.291982" lon="-0.469505">
        <ele>1472.2</ele>
        <time>2018-07-22T08:01:03.000Z</time>
      </trkpt>
      <trkpt lat="42.291986" lon="-0.46952">
        <ele>1472.1</ele>
        <time>2018-07-22T08:01:04.000Z</time>
      </trkpt>
      <trkpt lat="42.291992" lon="-0.469535">
        <ele>1472.0</ele>
        <time>2018-07-22T08:01:05.000Z</time>
      </trkpt>
      <trkpt lat="42.292" lon="-0.46955">
        <ele>1472.0</ele>
        <time>2018-07-22T08:01:06.000Z</time>
      </trkpt>
      <trkpt lat="42.292008" lon="-0.469565">
        <ele>1472.0</ele>
        <time>2018-07-22T08:01:07.000Z</time>
      </trkpt>
      <trkpt lat="42.292016" lon="-0.46958">
        <ele>1471.9</ele>
        <time>2018-07-22T08:01:08.000Z</time>
      </trkpt>
      <trkpt lat="42.292022" lon="-0.469595">
        <ele>1471.9</ele>
        <time>2018-07-22T08:01:09.000Z</time>
      </trkpt>
      <trkpt lat="42.292026" lon="-0.469611">
        <ele>1471.7</ele>
        <time>2018-07-22T08:01:10.000Z</time>
      </trkpt>
      <trkpt lat="42.292029" lon="-0.469627">
        <ele>1471.6</ele>
        <time>2018-07-22T08:01:11.000Z</time>
      </trkpt>
      <trkpt lat="42.29203" lon="-0.469644">
        <ele>1471.3</ele>
        <time>2018-07-22T08:01:12.000Z</time>
      </trkpt>
      <trkpt lat="42.29203" lon="-0.46966">
        <ele>1471.1</ele>
        <time>2018-07-22T08:01:13.000Z</time>
      </trkpt>
      <trkpt lat="42.292031" lon="-0.469677">
        <ele>1470.9</ele>
        <time>2018-07-22T08:01:14.000Z</time>
      </trkpt>
      <trkpt lat="42.292032" lon="-0.469694">
        <ele>1470.7</ele>
        <time>2018-07-22T08:01:15.000Z</time>
      </trkpt>
      <trkpt lat="42.292034" lon="-0.469711">
        <ele>1470.5</ele>
        <time>2018-07-22T08:01:16.000Z</time>
      </trkpt>
      <trkpt lat="42.292036" lon="-0.469727">
        <ele>1470.3</ele>
        <time>2018-07-22T08:01:17.000Z</time>
      </trkpt>
      <trkpt lat="42.29204" lon="-0.469744">
        <ele>1470.1</ele>
        <time>2018-07-22T08:01:18.000Z</time>
      </trkpt>
      <trkpt lat="42.292044" lon="-0.46976">
        <ele>1470.0</ele>
        <time>2018-07-22T08:01:19.000Z</time>
      </trkpt>
      <trkpt lat="42.292048" lon="-0.469776">
        <ele>1469.9</ele>
        <time>2018-07-22T08:01:20.000Z</time>
      </trkpt>
      <trkpt lat="42.292054" lon="-0.469792">
        <ele>1469.8</ele>
        <time>2018-07-22T08:01:21.000Z</time>
      </trkpt>
      <trkpt lat="42.29206" lon="-0.469807">
        <ele>1469.7</ele>
        <time>2018-07-22T08:01:22.000Z</time>
      </trkpt>
      <trkpt lat="42.292066" lon="-0.469823">
        <ele>1469.6</ele>
        <time>2018-07-22T08:01:23.000Z</time>
      </trkpt>
      <trkpt lat="42.292071" lon="-0.469839">
        <ele>1469.5</ele>
        <time>2018-07-22T08:01:24.000Z</time>
      </trkpt>
      <trkpt lat="42.292075" lon="-0.469856">
        <ele>1469.4</ele>
        <time>2018-07-22T08:01:25.000Z</time>
      </trkpt>
      <trkpt lat="42.292077" lon="-0.469874">
        <ele>1469.2</ele>
        <time>2018-07-22T08:01:26.000Z</time>
      </trkpt>
      <trkpt lat="42.292078" lon="-0.469894">
        <ele>1468.9</ele>
        <time>2018-07-22T08:01:27.000Z</time>
      </trkpt>
      <trkpt lat="42.292078" lon="-0.469914">
        <ele>1468.6</ele>
        <time>2018-07-22T08:01:28.000Z</time>
      </trkpt>
      <trkpt lat="42.292078" lon="-0.469934">
        <ele>1468.3</ele>
        <time>2018-07-22T08:01:29.000Z</time>
      </trkpt>
      <trkpt lat="42.292077" lon="-0.469955">
        <ele>1468.0</ele>
        <time>2018-07-22T08:01:30.000Z</time>
      </trkpt>
      <trkpt lat="42.292077" lon="-0.469975">
        <ele>1467.7</ele>
        <time>2018-07-22T08:01:31.000Z</time>
      </trkpt>
      <trkpt lat="42.292078" lon="-0.469996">
        <ele>1467.4</ele>
        <time>2018-07-22T08:01:32.000Z</time>
      </trkpt>
      <trkpt lat="42.29208" lon="-0.470015">
        <ele>1467.2</ele>
        <time>2018-07-22T08:01:33.000Z</time>
      </trkpt>
      <trkpt lat="42.292082" lon="-0.470035">
        <ele>1466.9</ele>
        <time>2018-07-22T08:01:34.000Z</time>
      </trkpt>
      <trkpt lat="42.292084" lon="-0.470054">
        <ele>1466.6</ele>
        <time>2018-07-22T08:01:35.000Z</time>
      </trkpt>
      <trkpt lat="42.292087" lon="-0.470073">
        <ele>1466.3</ele>
        <time>2018-07-22T08:01:36.000Z</time>
      </trkpt>
      <trkpt lat="42.29209" lon="-0.470091">
        <ele>1466.1</ele>
        <time>2018-07-22T08:01:37.000Z</time>
      </trkpt>
      <trkpt lat="42.292093" lon="-0.470109">
        <ele>1465.8</ele>
        <time>2018-07-22T08:01:38.000Z</time>
      </trkpt>
      <trkpt lat="42.292096" lon="-0.470127">
        <ele>1465.6</ele>
        <time>2018-07-22T08:01:39.000Z</time>
      </trkpt>
      <trkpt lat="42.292099" lon="-0.470146">
        <ele>1465.3</ele>
        <time>2018-07-22T08:01:40.000Z</time>
      </trkpt>
      <trkpt lat="42.292102" lon="-0.470166">
        <ele>1465.1</ele>
        <time>2018-07-22T08:01:41.000Z</time>
      </trkpt>
      <trkpt lat="42.292105" lon="-0.470187">
        <ele>1464.8</ele>
        <time>2018-07-22T08:01:42.000Z</time>
      </trkpt>
      <trkpt lat="42.292108" lon="-0.47021">
        <ele>1464.4</ele>
        <time>2018-07-22T08:01:43.000Z</time>
      </trkpt>
      <trkpt lat="42.292111" lon="-0.470235">
        <ele>1464.1</ele>
        <time>2018-07-22T08:01:44.000Z</time>
      </trkpt>
      <trkpt lat="42.292113" lon="-0.47026">
        <ele>1463.7</ele>
        <time>2018-07-22T08:01:45.000Z</time>
      </trkpt>
      <trkpt lat="42.292115" lon="-0.470285">
        <ele>1463.3</ele>
        <time>2018-07-22T08:01:46.000Z</time>
      </trkpt>
      <trkpt lat="42.292117" lon="-0.470311">
        <ele>1462.9</ele>
        <time>2018-07-22T08:01:47.000Z</time>
      </trkpt>
      <trkpt lat="42.292118" lon="-0.470335">
        <ele>1462.5</ele>
        <time>2018-07-22T08:01:48.000Z</time>
      </trkpt>
      <trkpt lat="42.292119" lon="-0.470358">
        <ele>1462.1</ele>
        <time>2018-07-22T08:01:49.000Z</time>
      </trkpt>
      <trkpt lat="42.29212" lon="-0.470381">
        <ele>1461.7</ele>
        <time>2018-07-22T08:01:50.000Z</time>
      </trkpt>
      <trkpt lat="42.29212" lon="-0.470402">
        <ele>1461.4</ele>
        <time>2018-07-22T08:01:51.000Z</time>
      </trkpt>
      <trkpt lat="42.292119" lon="-0.470423">
        <ele>1461.0</ele>
        <time>2018-07-22T08:01:52.000Z</time>
      </trkpt>
      <trkpt lat="42.292119" lon="-0.470443">
        <ele>1460.6</ele>
        <time>2018-07-22T08:01:53.000Z</time>
      </trkpt>
      <trkpt lat="42.292118" lon="-0.470463">
        <ele>1460.2</ele>
        <time>2018-07-22T08:01:54.000Z</time>
      </trkpt>
      <trkpt lat="42.292117" lon="-0.470481">
        <ele>1459.9</ele>
        <time>2018-07-22T08:01:55.000Z</time>
      </trkpt>
      <trkpt lat="42.292115" lon="-0.470499">
        <ele>1459.5</ele>
        <time>2018-07-22T08:01:56.000Z</time>
      </trkpt>
      <trkpt lat="42.292114" lon="-0.470517">
        <ele>1459.2</ele>
        <time>2018-07-22T08:01:57.000Z</time>
      </trkpt>
      <trkpt lat="42.292112" lon="-0.470533">
        <ele>1458.9</ele>
        <time>2018-07-22T08:01:58.000Z</time>
      </trkpt>
      <trkpt lat="42.292111" lon="-0.470549">
        <ele>1458.6</ele>
        <time>2018-07-22T08:01:59.000Z</time>
      </trkpt>
      <trkpt lat="42.29211" lon="-0.470566">
        <ele>1458.3</ele>
        <time>2018-07-22T08:02:00.000Z</time>
      </trkpt>
      <trkpt lat="42.29211" lon="-0.470583">
        <ele>1458.0</ele>
        <time>2018-07-22T08:02:01.000Z</time>
      </trkpt>
      <trkpt lat="42.292113" lon="-0.470602">
        <ele>1457.7</ele>
        <time>2018-07-22T08:02:02.000Z</time>
      </trkpt>
      <trkpt lat="42.292116" lon="-0.470623">
        <ele>1457.4</ele>
        <time>2018-07-22T08:02:03.000Z</time>
      </trkpt>
      <trkpt lat="42.292121" lon="-0.470645">
        <ele>1457.1</ele>
        <time>2018-07-22T08:02:04.000Z</time>
      </trkpt>
      <trkpt lat="42.292126" lon="-0.470669">
        <ele>1456.8</ele>
        <time>2018-07-22T08:02:05.000Z</time>
      </trkpt>
      <trkpt lat="42.292129" lon="-0.470692">
        <ele>1456.5</ele>
        <time>2018-07-22T08:02:06.000Z</time>
      </trkpt>
      <trkpt lat="42.292132" lon="-0.470715">
        <ele>1456.1</ele>
        <time>2018-07-22T08:02:07.000Z</time>
      </trkpt>
      <trkpt lat="42.292132" lon="-0.470736">
        <ele>1455.8</ele>
        <time>2018-07-22T08:02:08.000Z</time>
      </trkpt>
      <trkpt lat="42.292132" lon="-0.470756">
        <ele>1455.4</ele>
        <time>2018-07-22T08:02:09.000Z</time>
      </trkpt>
      <trkpt lat="42.292132" lon="-0.470776">
        <ele>1455.1</ele>
        <time>2018-07-22T08:02:10.000Z</time>
      </trkpt>
      <trkpt lat="42.292132" lon="-0.470795">
        <ele>1454.7</ele>
        <time>2018-07-22T08:02:11.000Z</time>
      </trkpt>
      <trkpt lat="42.292134" lon="-0.470813">
        <ele>1454.5</ele>
        <time>2018-07-22T08:02:12.000Z</time>
      </trkpt>
      <trkpt lat="42.292136" lon="-0.470831">
        <ele>1454.2</ele>
        <time>2018-07-22T08:02:13.000Z</time>
      </trkpt>
      <trkpt lat="42.292138" lon="-0.470849">
        <ele>1453.9</ele>
        <time>2018-07-22T08:02:14.000Z</time>
      </trkpt>
      <trkpt lat="42.29214" lon="-0.470867">
        <ele>1453.7</ele>
        <time>2018-07-22T08:02:15.000Z</time>
      </trkpt>
      <trkpt lat="42.292143" lon="-0.470884">
        <ele>1453.5</ele>
        <time>2018-07-22T08:02:16.000Z</time>
      </trkpt>
      <trkpt lat="42.292145" lon="-0.470901">
        <ele>1453.2</ele>
        <time>2018-07-22T08:02:17.000Z</time>
      </trkpt>
      <trkpt lat="42.292148" lon="-0.470919">
        <ele>1453.0</ele>
        <time>2018-07-22T08:02:18.000Z</time>
      </trkpt>
      <trkpt lat="42.29215" lon="-0.470936">
        <ele>1452.7</ele>
        <time>2018-07-22T08:02:19.000Z</time>
      </trkpt>
      <trkpt lat="42.292153" lon="-0.470953">
        <ele>1452.5</ele>
        <time>2018-07-22T08:02:20.000Z</time>
      </trkpt>
      <trkpt lat="42.292154" lon="-0.47097">
        <ele>1452.3</ele>
        <time>2018-07-22T08:02:21.000Z</time>
      </trkpt>
      <trkpt lat="42.292156" lon="-0.470988">
        <ele>1452.0</ele>
        <time>2018-07-22T08:02:22.000Z</time>
      </trkpt>
      <trkpt lat="42.292157" lon="-0.471005">
        <ele>1451.8</ele>
        <time>2018-07-22T08:02:23.000Z</time>
      </trkpt>
      <trkpt lat="42.292158" lon="-0.471023">
        <ele>1451.5</ele>
        <time>2018-07-22T08:02:24.000Z</time>
      </trkpt>
      <trkpt lat="42.292159" lon="-0.471041">
        <ele>1451.2</ele>
        <time>2018-07-22T08:02:25.000Z</time>
      </trkpt>
      <trkpt lat="42.292161" lon="-0.471059">
        <ele>1450.9</ele>
        <time>2018-07-22T08:02:26.000Z</time>
      </trkpt>
      <trkpt lat="42.292162" lon="-0.471076">
        <ele>1450.7</ele>
        <time>2018-07-22T08:02:27.000Z</time>
      </trkpt>
      <trkpt lat="42.292164" lon="-0.471095">
        <ele>1450.4</ele>
        <time>2018-07-22T08:02:28.000Z</time>
      </trkpt>
      <trkpt lat="42.292167" lon="-0.471113">
        <ele>1450.2</ele>
        <time>2018-07-22T08:02:29.000Z</time>
      </trkpt>
      <trkpt lat="42.29217" lon="-0.471131">
        <ele>1449.9</ele>
        <time>2018-07-22T08:02:30.000Z</time>
      </trkpt>
      <trkpt lat="42.292174" lon="-0.47115">
        <ele>1449.7</ele>
        <time>2018-07-22T08:02:31.000Z</time>
      </trkpt>
      <trkpt lat="42.292179" lon="-0.471168">
        <ele>1449.5</ele>
        <time>2018-07-22T08:02:32.000Z</time>
      </trkpt>
      <trkpt lat="42.292184" lon="-0.471187">
        <ele>1449.3</ele>
        <time>2018-07-22T08:02:33.000Z</time>
      </trkpt>
      <trkpt lat="42.292189" lon="-0.471206">
        <ele>1449.1</ele>
        <time>2018-07-22T08:02:34.000Z</time>
      </trkpt>
      <trkpt lat="42.292194" lon="-0.471224">
        <ele>1448.9</ele>
        <time>2018-07-22T08:02:35.000Z</time>
      </trkpt>
      <trkpt lat="42.292199" lon="-0.471242">
        <ele>1448.7</ele>
        <time>2018-07-22T08:02:36.000Z</time>
      </trkpt>
      <trkpt lat="42.292203" lon="-0.471259">
        <ele>1448.5</ele>
        <time>2018-07-22T08:02:37.000Z</time>
      </trkpt>
      <trkpt lat="42.292206" lon="-0.471277">
        <ele>1448.2</ele>
        <time>2018-07-22T08:02:38.000Z</time>
      </trkpt>
      <trkpt lat="42.292209" lon="-0.471294">
        <ele>1448.0</ele>
        <time>2018-07-22T08:02:39.000Z</time>
      </trkpt>
      <trkpt lat="42.292212" lon="-0.471311">
        <ele>1447.8</ele>
        <time>2018-07-22T08:02:40.000Z</time>
      </trkpt>
      <trkpt lat="42.292215" lon="-0.471328">
        <ele>1447.5</ele>
        <time>2018-07-22T08:02:41.000Z</time>
      </trkpt>
      <trkpt lat="42.292219" lon="-0.471346">
        <ele>1447.3</ele>
        <time>2018-07-22T08:02:42.000Z</time>
      </trkpt>
      <trkpt lat="42.292223" lon="-0.471365">
        <ele>1447.1</ele>
        <time>2018-07-22T08:02:43.000Z</time>
      </trkpt>
      <trkpt lat="42.292228" lon="-0.471383">
        <ele>1446.9</ele>
        <time>2018-07-22T08:02:44.000Z</time>
      </trkpt>
      <trkpt lat="42.292233" lon="-0.471402">
        <ele>1446.7</ele>
        <time>2018-07-22T08:02:45.000Z</time>
      </trkpt>
      <trkpt lat="42.292239" lon="-0.471421">
        <ele>1446.4</ele>
        <time>2018-07-22T08:02:46.000Z</time>
      </trkpt>
      <trkpt lat="42.292245" lon="-0.47144">
        <ele>1446.2</ele>
        <time>2018-07-22T08:02:47.000Z</time>
      </trkpt>
      <trkpt lat="42.292251" lon="-0.471459">
        <ele>1446.0</ele>
        <time>2018-07-22T08:02:48.000Z</time>
      </trkpt>
      <trkpt lat="42.292257" lon="-0.471478">
        <ele>1445.8</ele>
        <time>2018-07-22T08:02:49.000Z</time>
      </trkpt>
      <trkpt lat="42.292263" lon="-0.471496">
        <ele>1445.6</ele>
        <time>2018-07-22T08:02:50.000Z</time>
      </trkpt>
      <trkpt lat="42.292269" lon="-0.471514">
        <ele>1445.4</ele>
        <time>2018-07-22T08:02:51.000Z</time>
      </trkpt>
      <trkpt lat="42.292275" lon="-0.471532">
        <ele>1445.2</ele>
        <time>2018-07-22T08:02:52.000Z</time>
      </trkpt>
      <trkpt lat="42.292282" lon="-0.471549">
        <ele>1445.1</ele>
        <time>2018-07-22T08:02:53.000Z</time>
      </trkpt>
      <trkpt lat="42.292288" lon="-0.471565">
        <ele>1444.9</ele>
        <time>2018-07-22T08:02:54.000Z</time>
      </trkpt>
      <trkpt lat="42.292294" lon="-0.471581">
        <ele>1444.8</ele>
        <time>2018-07-22T08:02:55.000Z</time>
      </trkpt>
      <trkpt lat="42.2923" lon="-0.471597">
        <ele>1444.6</ele>
        <time>2018-07-22T08:02:56.000Z</time>
      </trkpt>
      <trkpt lat="42.292307" lon="-0.471613">
        <ele>1444.4</ele>
        <time>2018-07-22T08:02:57.000Z</time>
      </trkpt>
      <trkpt lat="42.292314" lon="-0.471629">
        <ele>1444.3</ele>
        <time>2018-07-22T08:02:58.000Z</time>
      </trkpt>
      <trkpt lat="42.292322" lon="-0.471645">
        <ele>1444.2</ele>
        <time>2018-07-22T08:02:59.000Z</time>
      </trkpt>
      <trkpt lat="42.29233" lon="-0.471661">
        <ele>1444.0</ele>
        <time>2018-07-22T08:03:00.000Z</time>
      </trkpt>
      <trkpt lat="42.292339" lon="-0.471676">
        <ele>1443.9</ele>
        <time>2018-07-22T08:03:01.000Z</time>
      </trkpt>
      <trkpt lat="42.292348" lon="-0.471692">
        <ele>1443.8</ele>
        <time>2018-07-22T08:03:02.000Z</time>
      </trkpt>
      <trkpt lat="42.292357" lon="-0.471707">
        <ele>1443.7</ele>
        <time>2018-07-22T08:03:03.000Z</time>
      </trkpt>
      <trkpt lat="42.292366" lon="-0.471722">
        <ele>1443.5</ele>
        <time>2018-07-22T08:03:04.000Z</time>
      </trkpt>
      <trkpt lat="42.292376" lon="-0.471737">
        <ele>1443.4</ele>
        <time>2018-07-22T08:03:05.000Z</time>
      </trkpt>
      <trkpt lat="42.292385" lon="-0.471751">
        <ele>1443.3</ele>
        <time>2018-07-22T08:03:06.000Z</time>
      </trkpt>
      <trkpt lat="42.292395" lon="-0.471765">
        <ele>1443.2</ele>
        <time>2018-07-22T08:03:07.000Z</time>
      </trkpt>
      <trkpt lat="42.292405" lon="-0.471778">
        <ele>1443.2</ele>
        <time>2018-07-22T08:03:08.000Z</time>
      </trkpt>
      <trkpt lat="42.292415" lon="-0.471791">
        <ele>1443.1</ele>
        <time>2018-07-22T08:03:09.000Z</time>
      </trkpt>
      <trkpt lat="42.292425" lon="-0.471804">
        <ele>1443.0</ele>
        <time>2018-07-22T08:03:10.000Z</time>
      </trkpt>
      <trkpt lat="42.292435" lon="-0.471817">
        <ele>1443.0</ele>
        <time>2018-07-22T08:03:11.000Z</time>
      </trkpt>
      <trkpt lat="42.292445" lon="-0.47183">
        <ele>1442.9</ele>
        <time>2018-07-22T08:03:12.000Z</time>
      </trkpt>
      <trkpt lat="42.292456" lon="-0.471842">
        <ele>1442.9</ele>
        <time>2018-07-22T08:03:13.000Z</time>
      </trkpt>
      <trkpt lat="42.292466" lon="-0.471855">
        <ele>1442.8</ele>
        <time>2018-07-22T08:03:14.000Z</time>
      </trkpt>
      <trkpt lat="42.292477" lon="-0.471867">
        <ele>1442.7</ele>
        <time>2018-07-22T08:03:15.000Z</time>
      </trkpt>
      <trkpt lat="42.292488" lon="-0.47188">
        <ele>1442.7</ele>
        <time>2018-07-22T08:03:16.000Z</time>
      </trkpt>
      <trkpt lat="42.292499" lon="-0.471892">
        <ele>1442.7</ele>
        <time>2018-07-22T08:03:17.000Z</time>
      </trkpt>
      <trkpt lat="42.29251" lon="-0.471904">
        <ele>1442.7</ele>
        <time>2018-07-22T08:03:18.000Z</time>
      </trkpt>
      <trkpt lat="42.292522" lon="-0.471916">
        <ele>1442.7</ele>
        <time>2018-07-22T08:03:19.000Z</time>
      </trkpt>
      <trkpt lat="42.292534" lon="-0.471928">
        <ele>1442.7</ele>
        <time>2018-07-22T08:03:20.000Z</time>
      </trkpt>
      <trkpt lat="42.292545" lon="-0.471939">
        <ele>1442.7</ele>
        <time>2018-07-22T08:03:21.000Z</time>
      </trkpt>
      <trkpt lat="42.292557" lon="-0.471951">
        <ele>1442.8</ele>
        <time>2018-07-22T08:03:22.000Z</time>
      </trkpt>
      <trkpt lat="42.292569" lon="-0.471962">
        <ele>1442.8</ele>
        <time>2018-07-22T08:03:23.000Z</time>
      </trkpt>
      <trkpt lat="42.29258" lon="-0.471975">
        <ele>1442.8</ele>
        <time>2018-07-22T08:03:24.000Z</time>
      </trkpt>
      <trkpt lat="42.29259" lon="-0.471987">
        <ele>1442.8</ele>
        <time>2018-07-22T08:03:25.000Z</time>
      </trkpt>
      <trkpt lat="42.2926" lon="-0.472001">
        <ele>1442.7</ele>
        <time>2018-07-22T08:03:26.000Z</time>
      </trkpt>
      <trkpt lat="42.29261" lon="-0.472015">
        <ele>1442.7</ele>
        <time>2018-07-22T08:03:27.000Z</time>
      </trkpt>
      <trkpt lat="42.292619" lon="-0.472029">
        <ele>1442.6</ele>
        <time>2018-07-22T08:03:28.000Z</time>
      </trkpt>
      <trkpt lat="42.292628" lon="-0.472043">
        <ele>1442.5</ele>
        <time>2018-07-22T08:03:29.000Z</time>
      </trkpt>
      <trkpt lat="42.292637" lon="-0.472058">
        <ele>1442.4</ele>
        <time>2018-07-22T08:03:30.000Z</time>
      </trkpt>
      <trkpt lat="42.292647" lon="-0.472073">
        <ele>1442.4</ele>
        <time>2018-07-22T08:03:31.000Z</time>
      </trkpt>
      <trkpt lat="42.292656" lon="-0.472088">
        <ele>1442.3</ele>
        <time>2018-07-22T08:03:32.000Z</time>
      </trkpt>
      <trkpt lat="42.292664" lon="-0.472103">
        <ele>1442.2</ele>
        <time>2018-07-22T08:03:33.000Z</time>
      </trkpt>
      <trkpt lat="42.292673" lon="-0.472118">
        <ele>1442.1</ele>
        <time>2018-07-22T08:03:34.000Z</time>
      </trkpt>
      <trkpt lat="42.29268" lon="-0.472133">
        <ele>1441.9</ele>
        <time>2018-07-22T08:03:35.000Z</time>
      </trkpt>
      <trkpt lat="42.292687" lon="-0.472148">
        <ele>1441.8</ele>
        <time>2018-07-22T08:03:36.000Z</time>
      </trkpt>
      <trkpt lat="42.292693" lon="-0.472163">
        <ele>1441.6</ele>
        <time>2018-07-22T08:03:37.000Z</time>
      </trkpt>
      <trkpt lat="42.292698" lon="-0.472179">
        <ele>1441.4</ele>
        <time>2018-07-22T08:03:38.000Z</time>
      </trkpt>
      <trkpt lat="42.292703" lon="-0.472195">
        <ele>1441.2</ele>
        <time>2018-07-22T08:03:39.000Z</time>
      </trkpt>
      <trkpt lat="42.292707" lon="-0.472211">
        <ele>1441.0</ele>
        <time>2018-07-22T08:03:40.000Z</time>
      </trkpt>
      <trkpt lat="42.292711" lon="-0.472229">
        <ele>1440.8</ele>
        <time>2018-07-22T08:03:41.000Z</time>
      </trkpt>
      <trkpt lat="42.292715" lon="-0.472247">
        <ele>1440.5</ele>
        <time>2018-07-22T08:03:42.000Z</time>
      </trkpt>
      <trkpt lat="42.292718" lon="-0.472266">
        <ele>1440.2</ele>
        <time>2018-07-22T08:03:43.000Z</time>
      </trkpt>
      <trkpt lat="42.292721" lon="-0.472286">
        <ele>1439.9</ele>
        <time>2018-07-22T08:03:44.000Z</time>
      </trkpt>
      <trkpt lat="42.292724" lon="-0.472305">
        <ele>1439.6</ele>
        <time>2018-07-22T08:03:45.000Z</time>
      </trkpt>
      <trkpt lat="42.292727" lon="-0.472325">
        <ele>1439.3</ele>
        <time>2018-07-22T08:03:46.000Z</time>
      </trkpt>
      <trkpt lat="42.29273" lon="-0.472344">
        <ele>1439.0</ele>
        <time>2018-07-22T08:03:47.000Z</time>
      </trkpt>
      <trkpt lat="42.292734" lon="-0.472363">
        <ele>1438.7</ele>
        <time>2018-07-22T08:03:48.000Z</time>
      </trkpt>
      <trkpt lat="42.292738" lon="-0.472382">
        <ele>1438.4</ele>
        <time>2018-07-22T08:03:49.000Z</time>
      </trkpt>
      <trkpt lat="42.292742" lon="-0.4724">
        <ele>1438.1</ele>
        <time>2018-07-22T08:03:50.000Z</time>
      </trkpt>
      <trkpt lat="42.292748" lon="-0.472418">
        <ele>1437.9</ele>
        <time>2018-07-22T08:03:51.000Z</time>
      </trkpt>
      <trkpt lat="42.292754" lon="-0.472435">
        <ele>1437.7</ele>
        <time>2018-07-22T08:03:52.000Z</time>
      </trkpt>
      <trkpt lat="42.292761" lon="-0.472452">
        <ele>1437.6</ele>
        <time>2018-07-22T08:03:53.000Z</time>
      </trkpt>
      <trkpt lat="42.292769" lon="-0.472469">
        <ele>1437.4</ele>
        <time>2018-07-22T08:03:54.000Z</time>
      </trkpt>
      <trkpt lat="42.292777" lon="-0.472486">
        <ele>1437.3</ele>
        <time>2018-07-22T08:03:55.000Z</time>
      </trkpt>
      <trkpt lat="42.292785" lon="-0.472502">
        <ele>1437.1</ele>
        <time>2018-07-22T08:03:56.000Z</time>
      </trkpt>
      <trkpt lat="42.292794" lon="-0.472518">
        <ele>1437.0</ele>
        <time>2018-07-22T08:03:57.000Z</time>
      </trkpt>
      <trkpt lat="42.292802" lon="-0.472534">
        <ele>1436.9</ele>
        <time>2018-07-22T08:03:58.000Z</time>
      </trkpt>
      <trkpt lat="42.29281" lon="-0.47255">
        <ele>1436.8</ele>
        <time>2018-07-22T08:03:59.000Z</time>
      </trkpt>
      <trkpt lat="42.292818" lon="-0.472566">
        <ele>1436.7</ele>
        <time>2018-07-22T08:04:00.000Z</time>
      </trkpt>
      <trkpt lat="42.292825" lon="-0.472582">
        <ele>1436.6</ele>
        <time>2018-07-22T08:04:01.000Z</time>
      </trkpt>
      <trkpt lat="42.292833" lon="-0.472598">
        <ele>1436.5</ele>
        <time>2018-07-22T08:04:02.000Z</time>
      </trkpt>
      <trkpt lat="42.292841" lon="-0.472614">
        <ele>1436.3</ele>
        <time>2018-07-22T08:04:03.000Z</time>
      </trkpt>
      <trkpt lat="42.292848" lon="-0.47263">
        <ele>1436.2</ele>
        <time>2018-07-22T08:04:04.000Z</time>
      </trkpt>
      <trkpt lat="42.292856" lon="-0.472645">
        <ele>1436.1</ele>
        <time>2018-07-22T08:04:05.000Z</time>
      </trkpt>
      <trkpt lat="42.292864" lon="-0.472661">
        <ele>1436.0</ele>
        <time>2018-07-22T08:04:06.000Z</time>
      </trkpt>
      <trkpt lat="42.292872" lon="-0.472677">
        <ele>1435.9</ele>
        <time>2018-07-22T08:04:07.000Z</time>
      </trkpt>
      <trkpt lat="42.29288" lon="-0.472693">
        <ele>1435.8</ele>
        <time>2018-07-22T08:04:08.000Z</time>
      </trkpt>
      <trkpt lat="42.292888" lon="-0.472709">
        <ele>1435.6</ele>
        <time>2018-07-22T08:04:09.000Z</time>
      </trkpt>
      <trkpt lat="42.292897" lon="-0.472725">
        <ele>1435.5</ele>
        <time>2018-07-22T08:04:10.000Z</time>
      </trkpt>
      <trkpt lat="42.292906" lon="-0.47274">
        <ele>1435.5</ele>
        <time>2018-07-22T08:04:11.000Z</time>
      </trkpt>
      <trkpt lat="42.292914" lon="-0.472756">
        <ele>1435.3</ele>
        <time>2018-07-22T08:04:12.000Z</time>
      </trkpt>
      <trkpt lat="42.292923" lon="-0.472772">
        <ele>1435.2</ele>
        <time>2018-07-22T08:04:13.000Z</time>
      </trkpt>
      <trkpt lat="42.292932" lon="-0.472788">
        <ele>1435.1</ele>
        <time>2018-07-22T08:04:14.000Z</time>
      </trkpt>
      <trkpt lat="42.292941" lon="-0.472803">
        <ele>1435.1</ele>
        <time>2018-07-22T08:04:15.000Z</time>
      </trkpt>
      <trkpt lat="42.29295" lon="-0.472819">
        <ele>1434.9</ele>
        <time>2018-07-22T08:04:16.000Z</time>
      </trkpt>
      <trkpt lat="42.292959" lon="-0.472834">
        <ele>1434.9</ele>
        <time>2018-07-22T08:04:17.000Z</time>
      </trkpt>
      <trkpt lat="42.292968" lon="-0.47285">
        <ele>1434.8</ele>
        <time>2018-07-22T08:04:18.000Z</time>
      </trkpt>
      <trkpt lat="42.292977" lon="-0.472865">
        <ele>1434.7</ele>
        <time>2018-07-22T08:04:19.000Z</time>
      </trkpt>
      <trkpt lat="42.292986" lon="-0.47288">
        <ele>1434.6</ele>
        <time>2018-07-22T08:04:20.000Z</time>
      </trkpt>
      <trkpt lat="42.292995" lon="-0.472895">
        <ele>1434.5</ele>
        <time>2018-07-22T08:04:21.000Z</time>
      </trkpt>
      <trkpt lat="42.293004" lon="-0.47291">
        <ele>1434.4</ele>
        <time>2018-07-22T08:04:22.000Z</time>
      </trkpt>
      <trkpt lat="42.293013" lon="-0.472925">
        <ele>1434.3</ele>
        <time>2018-07-22T08:04:23.000Z</time>
      </trkpt>
      <trkpt lat="42.293022" lon="-0.472939">
        <ele>1434.2</ele>
        <time>2018-07-22T08:04:24.000Z</time>
      </trkpt>
      <trkpt lat="42.293032" lon="-0.472954">
        <ele>1434.2</ele>
        <time>2018-07-22T08:04:25.000Z</time>
      </trkpt>
      <trkpt lat="42.293041" lon="-0.472968">
        <ele>1434.1</ele>
        <time>2018-07-22T08:04:26.000Z</time>
      </trkpt>
      <trkpt lat="42.29305" lon="-0.472982">
        <ele>1434.0</ele>
        <time>2018-07-22T08:04:27.000Z</time>
      </trkpt>
      <trkpt lat="42.29306" lon="-0.472995">
        <ele>1434.0</ele>
        <time>2018-07-22T08:04:28.000Z</time>
      </trkpt>
      <trkpt lat="42.29307" lon="-0.473009">
        <ele>1433.9</ele>
        <time>2018-07-22T08:04:29.000Z</time>
      </trkpt>
      <trkpt lat="42.29308" lon="-0.473022">
        <ele>1433.9</ele>
        <time>2018-07-22T08:04:30.000Z</time>
      </trkpt>
      <trkpt lat="42.29309" lon="-0.473035">
        <ele>1433.8</ele>
        <time>2018-07-22T08:04:31.000Z</time>
      </trkpt>
      <trkpt lat="42.2931" lon="-0.473047">
        <ele>1433.8</ele>
        <time>2018-07-22T08:04:32.000Z</time>
      </trkpt>
      <trkpt lat="42.293111" lon="-0.47306">
        <ele>1433.8</ele>
        <time>2018-07-22T08:04:33.000Z</time>
      </trkpt>
      <trkpt lat="42.293121" lon="-0.473073">
        <ele>1433.8</ele>
        <time>2018-07-22T08:04:34.000Z</time>
      </trkpt>
      <trkpt lat="42.293132" lon="-0.473085">
        <ele>1433.8</ele>
        <time>2018-07-22T08:04:35.000Z</time>
      </trkpt>
      <trkpt lat="42.293143" lon="-0.473098">
        <ele>1433.7</ele>
        <time>2018-07-22T08:04:36.000Z</time>
      </trkpt>
      <trkpt lat="42.293154" lon="-0.47311">
        <ele>1433.7</ele>
        <time>2018-07-22T08:04:37.000Z</time>
      </trkpt>
      <trkpt lat="42.293165" lon="-0.473123">
        <ele>1433.7</ele>
        <time>2018-07-22T08:04:38.000Z</time>
      </trkpt>
      <trkpt lat="42.293176" lon="-0.473136">
        <ele>1433.7</ele>
        <time>2018-07-22T08:04:39.000Z</time>
      </trkpt>
      <trkpt lat="42.293187" lon="-0.473149">
        <ele>1433.7</ele>
        <time>2018-07-22T08:04:40.000Z</time>
      </trkpt>
      <trkpt lat="42.293198" lon="-0.473162">
        <ele>1433.6</ele>
        <time>2018-07-22T08:04:41.000Z</time>
      </trkpt>
      <trkpt lat="42.293209" lon="-0.473175">
        <ele>1433.6</ele>
        <time>2018-07-22T08:04:42.000Z</time>
      </trkpt>
      <trkpt lat="42.29322" lon="-0.473189">
        <ele>1433.5</ele>
        <time>2018-07-22T08:04:43.000Z</time>
      </trkpt>
      <trkpt lat="42.29323" lon="-0.473203">
        <ele>1433.5</ele>
        <time>2018-07-22T08:04:44.000Z</time>
      </trkpt>
      <trkpt lat="42.293241" lon="-0.473217">
        <ele>1433.4</ele>
        <time>2018-07-22T08:04:45.000Z</time>
      </trkpt>
      <trkpt lat="42.293251" lon="-0.473232">
        <ele>1433.3</ele>
        <time>2018-07-22T08:04:46.000Z</time>
      </trkpt>
      <trkpt lat="42.29326" lon="-0.473246">
        <ele>1433.3</ele>
        <time>2018-07-22T08:04:47.000Z</time>
      </trkpt>
      <trkpt lat="42.293269" lon="-0.473262">
        <ele>1433.1</ele>
        <time>2018-07-22T08:04:48.000Z</time>
      </trkpt>
      <trkpt lat="42.293277" lon="-0.473277">
        <ele>1433.0</ele>
        <time>2018-07-22T08:04:49.000Z</time>
      </trkpt>
      <trkpt lat="42.293285" lon="-0.473293">
        <ele>1432.8</ele>
        <time>2018-07-22T08:04:50.000Z</time>
      </trkpt>
      <trkpt lat="42.293292" lon="-0.473309">
        <ele>1432.7</ele>
        <time>2018-07-22T08:04:51.000Z</time>
      </trkpt>
      <trkpt lat="42.293298" lon="-0.473326">
        <ele>1432.5</ele>
        <time>2018-07-22T08:04:52.000Z</time>
      </trkpt>
      <trkpt lat="42.293303" lon="-0.473343">
        <ele>1432.2</ele>
        <time>2018-07-22T08:04:53.000Z</time>
      </trkpt>
      <trkpt lat="42.293308" lon="-0.47336">
        <ele>1432.0</ele>
        <time>2018-07-22T08:04:54.000Z</time>
      </trkpt>
      <trkpt lat="42.293312" lon="-0.473378">
        <ele>1431.7</ele>
        <time>2018-07-22T08:04:55.000Z</time>
      </trkpt>
      <trkpt lat="42.293316" lon="-0.473395">
        <ele>1431.5</ele>
        <time>2018-07-22T08:04:56.000Z</time>
      </trkpt>
      <trkpt lat="42.293319" lon="-0.473413">
        <ele>1431.2</ele>
        <time>2018-07-22T08:04:57.000Z</time>
      </trkpt>
      <trkpt lat="42.293321" lon="-0.473431">
        <ele>1430.9</ele>
        <time>2018-07-22T08:04:58.000Z</time>
      </trkpt>
      <trkpt lat="42.293324" lon="-0.473448">
        <ele>1430.6</ele>
        <time>2018-07-22T08:04:59.000Z</time>
      </trkpt>
      <trkpt lat="42.293326" lon="-0.473466">
        <ele>1430.3</ele>
        <time>2018-07-22T08:05:00.000Z</time>
      </trkpt>
      <trkpt lat="42.293327" lon="-0.473483">
        <ele>1430.0</ele>
        <time>2018-07-22T08:05:01.000Z</time>
      </trkpt>
      <trkpt lat="42.293329" lon="-0.4735">
        <ele>1429.7</ele>
        <time>2018-07-22T08:05:02.000Z</time>
      </trkpt>
      <trkpt lat="42.293331" lon="-0.473516">
        <ele>1429.4</ele>
        <time>2018-07-22T08:05:03.000Z</time>
      </trkpt>
      <trkpt lat="42.293333" lon="-0.473532">
        <ele>1429.2</ele>
        <time>2018-07-22T08:05:04.000Z</time>
      </trkpt>
      <trkpt lat="42.293334" lon="-0.473548">
        <ele>1428.9</ele>
        <time>2018-07-22T08:05:05.000Z</time>
      </trkpt>
      <trkpt lat="42.293336" lon="-0.473563">
        <ele>1428.6</ele>
        <time>2018-07-22T08:05:06.000Z</time>
      </trkpt>
      <trkpt lat="42.293339" lon="-0.473578">
        <ele>1428.4</ele>
        <time>2018-07-22T08:05:07.000Z</time>
      </trkpt>
      <trkpt lat="42.293342" lon="-0.473592">
        <ele>1428.2</ele>
        <time>2018-07-22T08:05:08.000Z</time>
      </trkpt>
      <trkpt lat="42.293345" lon="-0.473604">
        <ele>1428.0</ele>
        <time>2018-07-22T08:05:09.000Z</time>
      </trkpt>
      <trkpt lat="42.293347" lon="-0.473614">
        <ele>1427.9</ele>
        <time>2018-07-22T08:05:10.000Z</time>
      </trkpt>
      <trkpt lat="42.293349" lon="-0.473622">
        <ele>1427.7</ele>
        <time>2018-07-22T08:05:11.000Z</time>
      </trkpt>
      <trkpt lat="42.293351" lon="-0.473634">
        <ele>1427.5</ele>
        <time>2018-07-22T08:05:12.000Z</time>
      </trkpt>
      <trkpt lat="42.293353" lon="-0.473651">
        <ele>1427.3</ele>
        <time>2018-07-22T08:05:13.000Z</time>
      </trkpt>
      <trkpt lat="42.293356" lon="-0.473668">
        <ele>1427.0</ele>
        <time>2018-07-22T08:05:14.000Z</time>
      </trkpt>
      <trkpt lat="42.293359" lon="-0.473684">
        <ele>1426.7</ele>
        <time>2018-07-22T08:05:15.000Z</time>
      </trkpt>
      <trkpt lat="42.293363" lon="-0.473701">
        <ele>1426.5</ele>
        <time>2018-07-22T08:05:16.000Z</time>
      </trkpt>
      <trkpt lat="42.293366" lon="-0.473718">
        <ele>1426.2</ele>
        <time>2018-07-22T08:05:17.000Z</time>
      </trkpt>
      <trkpt lat="42.293369" lon="-0.473734">
        <ele>1426.0</ele>
        <time>2018-07-22T08:05:18.000Z</time>
      </trkpt>
      <trkpt lat="42.293373" lon="-0.47375">
        <ele>1425.7</ele>
        <time>2018-07-22T08:05:19.000Z</time>
      </trkpt>
      <trkpt lat="42.293376" lon="-0.473766">
        <ele>1425.5</ele>
        <time>2018-07-22T08:05:20.000Z</time>
      </trkpt>
      <trkpt lat="42.293379" lon="-0.473782">
        <ele>1425.2</ele>
        <time>2018-07-22T08:05:21.000Z</time>
      </trkpt>
      <trkpt lat="42.293382" lon="-0.473798">
        <ele>1425.0</ele>
        <time>2018-07-22T08:05:22.000Z</time>
      </trkpt>
      <trkpt lat="42.293385" lon="-0.473814">
        <ele>1424.7</ele>
        <time>2018-07-22T08:05:23.000Z</time>
      </trkpt>
      <trkpt lat="42.293387" lon="-0.473829">
        <ele>1424.5</ele>
        <time>2018-07-22T08:05:24.000Z</time>
      </trkpt>
      <trkpt lat="42.293389" lon="-0.473844">
        <ele>1424.3</ele>
        <time>2018-07-22T08:05:25.000Z</time>
      </trkpt>
      <trkpt lat="42.293391" lon="-0.473859">
        <ele>1424.0</ele>
        <time>2018-07-22T08:05:26.000Z</time>
      </trkpt>
      <trkpt lat="42.293393" lon="-0.473874">
        <ele>1423.8</ele>
        <time>2018-07-22T08:05:27.000Z</time>
      </trkpt>
      <trkpt lat="42.293395" lon="-0.473889">
        <ele>1423.5</ele>
        <time>2018-07-22T08:05:28.000Z</time>
      </trkpt>
      <trkpt lat="42.293397" lon="-0.473904">
        <ele>1423.3</ele>
        <time>2018-07-22T08:05:29.000Z</time>
      </trkpt>
      <trkpt lat="42.293399" lon="-0.473919">
        <ele>1423.0</ele>
        <time>2018-07-22T08:05:30.000Z</time>
      </trkpt>
      <trkpt lat="42.293402" lon="-0.473934">
        <ele>1422.8</ele>
        <time>2018-07-22T08:05:31.000Z</time>
      </trkpt>
      <trkpt lat="42.293405" lon="-0.473949">
        <ele>1422.6</ele>
        <time>2018-07-22T08:05:32.000Z</time>
      </trkpt>
      <trkpt lat="42.293407" lon="-0.473964">
        <ele>1422.3</ele>
        <time>2018-07-22T08:05:33.000Z</time>
      </trkpt>
      <trkpt lat="42.29341" lon="-0.473979">
        <ele>1422.1</ele>
        <time>2018-07-22T08:05:34.000Z</time>
      </trkpt>
      <trkpt lat="42.293412" lon="-0.473994">
        <ele>1421.9</ele>
        <time>2018-07-22T08:05:35.000Z</time>
      </trkpt>
      <trkpt lat="42.293414" lon="-0.474009">
        <ele>1421.6</ele>
        <time>2018-07-22T08:05:36.000Z</time>
      </trkpt>
      <trkpt lat="42.293415" lon="-0.474024">
        <ele>1421.4</ele>
        <time>2018-07-22T08:05:37.000Z</time>
      </trkpt>
      <trkpt lat="42.293417" lon="-0.474038">
        <ele>1421.1</ele>
        <time>2018-07-22T08:05:38.000Z</time>
      </trkpt>
      <trkpt lat="42.293418" lon="-0.474053">
        <ele>1420.9</ele>
        <time>2018-07-22T08:05:39.000Z</time>
      </trkpt>
      <trkpt lat="42.293418" lon="-0.474068">
        <ele>1420.6</ele>
        <time>2018-07-22T08:05:40.000Z</time>
      </trkpt>
      <trkpt lat="42.293419" lon="-0.474082">
        <ele>1420.3</ele>
        <time>2018-07-22T08:05:41.000Z</time>
      </trkpt>
      <trkpt lat="42.293419" lon="-0.474097">
        <ele>1420.1</ele>
        <time>2018-07-22T08:05:42.000Z</time>
      </trkpt>
      <trkpt lat="42.29342" lon="-0.474112">
        <ele>1419.8</ele>
        <time>2018-07-22T08:05:43.000Z</time>
      </trkpt>
      <trkpt lat="42.29342" lon="-0.474127">
        <ele>1419.5</ele>
        <time>2018-07-22T08:05:44.000Z</time>
      </trkpt>
      <trkpt lat="42.29342" lon="-0.474143">
        <ele>1419.2</ele>
        <time>2018-07-22T08:05:45.000Z</time>
      </trkpt>
      <trkpt lat="42.29342" lon="-0.474158">
        <ele>1418.9</ele>
        <time>2018-07-22T08:05:46.000Z</time>
      </trkpt>
      <trkpt lat="42.29342" lon="-0.474174">
        <ele>1418.7</ele>
        <time>2018-07-22T08:05:47.000Z</time>
      </trkpt>
      <trkpt lat="42.29342" lon="-0.47419">
        <ele>1418.4</ele>
        <time>2018-07-22T08:05:48.000Z</time>
      </trkpt>
      <trkpt lat="42.29342" lon="-0.474207">
        <ele>1418.1</ele>
        <time>2018-07-22T08:05:49.000Z</time>
      </trkpt>
      <trkpt lat="42.293421" lon="-0.474224">
        <ele>1417.9</ele>
        <time>2018-07-22T08:05:50.000Z</time>
      </trkpt>
      <trkpt lat="42.293421" lon="-0.47424">
        <ele>1417.6</ele>
        <time>2018-07-22T08:05:51.000Z</time>
      </trkpt>
      <trkpt lat="42.293421" lon="-0.474257">
        <ele>1417.4</ele>
        <time>2018-07-22T08:05:52.000Z</time>
      </trkpt>
      <trkpt lat="42.293421" lon="-0.474274">
        <ele>1417.1</ele>
        <time>2018-07-22T08:05:53.000Z</time>
      </trkpt>
      <trkpt lat="42.293422" lon="-0.474291">
        <ele>1416.8</ele>
        <time>2018-07-22T08:05:54.000Z</time>
      </trkpt>
      <trkpt lat="42.293423" lon="-0.474308">
        <ele>1416.6</ele>
        <time>2018-07-22T08:05:55.000Z</time>
      </trkpt>
      <trkpt lat="42.293423" lon="-0.474326">
        <ele>1416.3</ele>
        <time>2018-07-22T08:05:56.000Z</time>
      </trkpt>
      <trkpt lat="42.293424" lon="-0.474343">
        <ele>1416.1</ele>
        <time>2018-07-22T08:05:57.000Z</time>
      </trkpt>
      <trkpt lat="42.293426" lon="-0.47436">
        <ele>1415.8</ele>
        <time>2018-07-22T08:05:58.000Z</time>
      </trkpt>
      <trkpt lat="42.293427" lon="-0.474377">
        <ele>1415.6</ele>
        <time>2018-07-22T08:05:59.000Z</time>
      </trkpt>
      <trkpt lat="42.293428" lon="-0.474394">
        <ele>1415.3</ele>
        <time>2018-07-22T08:06:00.000Z</time>
      </trkpt>
      <trkpt lat="42.29343" lon="-0.47441">
        <ele>1415.1</ele>
        <time>2018-07-22T08:06:01.000Z</time>
      </trkpt>
      <trkpt lat="42.293432" lon="-0.474427">
        <ele>1414.9</ele>
        <time>2018-07-22T08:06:02.000Z</time>
      </trkpt>
      <trkpt lat="42.293433" lon="-0.474443">
        <ele>1414.6</ele>
        <time>2018-07-22T08:06:03.000Z</time>
      </trkpt>
      <trkpt lat="42.293435" lon="-0.474459">
        <ele>1414.4</ele>
        <time>2018-07-22T08:06:04.000Z</time>
      </trkpt>
      <trkpt lat="42.293437" lon="-0.474475">
        <ele>1414.2</ele>
        <time>2018-07-22T08:06:05.000Z</time>
      </trkpt>
      <trkpt lat="42.293439" lon="-0.47449">
        <ele>1414.0</ele>
        <time>2018-07-22T08:06:06.000Z</time>
      </trkpt>
      <trkpt lat="42.29344" lon="-0.474504">
        <ele>1413.8</ele>
        <time>2018-07-22T08:06:07.000Z</time>
      </trkpt>
      <trkpt lat="42.293442" lon="-0.474519">
        <ele>1413.6</ele>
        <time>2018-07-22T08:06:08.000Z</time>
      </trkpt>
      <trkpt lat="42.293444" lon="-0.474533">
        <ele>1413.4</ele>
        <time>2018-07-22T08:06:09.000Z</time>
      </trkpt>
      <trkpt lat="42.293445" lon="-0.474546">
        <ele>1413.2</ele>
        <time>2018-07-22T08:06:10.000Z</time>
      </trkpt>
      <trkpt lat="42.293447" lon="-0.474559">
        <ele>1413.1</ele>
        <time>2018-07-22T08:06:11.000Z</time>
      </trkpt>
      <trkpt lat="42.293448" lon="-0.474572">
        <ele>1412.9</ele>
        <time>2018-07-22T08:06:12.000Z</time>
      </trkpt>
      <trkpt lat="42.293448" lon="-0.474584">
        <ele>1412.7</ele>
        <time>2018-07-22T08:06:13.000Z</time>
      </trkpt>
      <trkpt lat="42.293449" lon="-0.474596">
        <ele>1412.5</ele>
        <time>2018-07-22T08:06:14.000Z</time>
      </trkpt>
      <trkpt lat="42.293449" lon="-0.474608">
        <ele>1412.3</ele>
        <time>2018-07-22T08:06:15.000Z</time>
      </trkpt>
      <trkpt lat="42.293448" lon="-0.474619">
        <ele>1412.1</ele>
        <time>2018-07-22T08:06:16.000Z</time>
      </trkpt>
      <trkpt lat="42.293447" lon="-0.474631">
        <ele>1411.9</ele>
        <time>2018-07-22T08:06:17.000Z</time>
      </trkpt>
      <trkpt lat="42.293446" lon="-0.474642">
        <ele>1411.7</ele>
        <time>2018-07-22T08:06:18.000Z</time>
      </trkpt>
      <trkpt lat="42.293443" lon="-0.474653">
        <ele>1411.5</ele>
        <time>2018-07-22T08:06:19.000Z</time>
      </trkpt>
      <trkpt lat="42.29344" lon="-0.474664">
        <ele>1411.3</ele>
        <time>2018-07-22T08:06:20.000Z</time>
      </trkpt>
      <trkpt lat="42.293436" lon="-0.474676">
        <ele>1411.0</ele>
        <time>2018-07-22T08:06:21.000Z</time>
      </trkpt>
      <trkpt lat="42.293431" lon="-0.474687">
        <ele>1410.7</ele>
        <time>2018-07-22T08:06:22.000Z</time>
      </trkpt>
      <trkpt lat="42.293425" lon="-0.4747">
        <ele>1410.4</ele>
        <time>2018-07-22T08:06:23.000Z</time>
      </trkpt>
      <trkpt lat="42.293417" lon="-0.474713">
        <ele>1410.1</ele>
        <time>2018-07-22T08:06:24.000Z</time>
      </trkpt>
      <trkpt lat="42.293409" lon="-0.474726">
        <ele>1409.7</ele>
        <time>2018-07-22T08:06:25.000Z</time>
      </trkpt>
      <trkpt lat="42.293401" lon="-0.474738">
        <ele>1409.4</ele>
        <time>2018-07-22T08:06:26.000Z</time>
      </trkpt>
      <trkpt lat="42.293394" lon="-0.474748">
        <ele>1409.1</ele>
        <time>2018-07-22T08:06:27.000Z</time>
      </trkpt>
      <trkpt lat="42.293388" lon="-0.474757">
        <ele>1408.8</ele>
        <time>2018-07-22T08:06:28.000Z</time>
      </trkpt>
      <trkpt lat="42.293384" lon="-0.474762">
        <ele>1408.7</ele>
        <time>2018-07-22T08:06:29.000Z</time>
      </trkpt>
      <trkpt lat="42.293381" lon="-0.474765">
        <ele>1408.6</ele>
        <time>2018-07-22T08:06:30.000Z</time>
      </trkpt>
      <trkpt lat="42.29338" lon="-0.474767">
        <ele>1408.5</ele>
        <time>2018-07-22T08:06:31.000Z</time>
      </trkpt>
      <trkpt lat="42.29338" lon="-0.474767">
        <ele>1408.5</ele>
        <time>2018-07-22T08:06:32.000Z</time>
      </trkpt>
      <trkpt lat="42.29338" lon="-0.474766">
        <ele>1408.5</ele>
        <time>2018-07-22T08:06:33.000Z</time>
      </trkpt>
      <trkpt lat="42.293381" lon="-0.474766">
        <ele>1408.5</ele>
        <time>2018-07-22T08:06:34.000Z</time>
      </trkpt>
      <trkpt lat="42.293381" lon="-0.474766">
        <ele>1408.5</ele>
        <time>2018-07-22T08:06:35.000Z</time>
      </trkpt>
      <trkpt lat="42.293381" lon="-0.474766">
        <ele>1408.5</ele>
        <time>2018-07-22T08:06:36.000Z</time>
      </trkpt>
      <trkpt lat="42.29338" lon="-0.474766">
        <ele>1408.5</ele>
        <time>2018-07-22T08:06:37.000Z</time>
      </trkpt>
      <trkpt lat="42.293381" lon="-0.474766">
        <ele>1408.5</ele>
        <time>2018-07-22T08:06:38.000Z</time>
      </trkpt>
      <trkpt lat="42.293381" lon="-0.474765">
        <ele>1408.6</ele>
        <time>2018-07-22T08:06:39.000Z</time>
      </trkpt>
      <trkpt lat="42.293382" lon="-0.474764">
        <ele>1408.6</ele>
        <time>2018-07-22T08:06:40.000Z</time>
      </trkpt>
      <trkpt lat="42.293381" lon="-0.474764">
        <ele>1408.6</ele>
        <time>2018-07-22T08:06:41.000Z</time>
      </trkpt>
      <trkpt lat="42.293379" lon="-0.474767">
        <ele>1408.5</ele>
        <time>2018-07-22T08:06:42.000Z</time>
      </trkpt>
      <trkpt lat="42.293375" lon="-0.474772">
        <ele>1408.3</ele>
        <time>2018-07-22T08:06:43.000Z</time>
      </trkpt>
      <trkpt lat="42.293368" lon="-0.474781">
        <ele>1408.1</ele>
        <time>2018-07-22T08:06:44.000Z</time>
      </trkpt>
      <trkpt lat="42.29336" lon="-0.474792">
        <ele>1407.7</ele>
        <time>2018-07-22T08:06:45.000Z</time>
      </trkpt>
      <trkpt lat="42.293353" lon="-0.474804">
        <ele>1407.4</ele>
        <time>2018-07-22T08:06:46.000Z</time>
      </trkpt>
      <trkpt lat="42.293347" lon="-0.474816">
        <ele>1407.1</ele>
        <time>2018-07-22T08:06:47.000Z</time>
      </trkpt>
      <trkpt lat="42.29334" lon="-0.474828">
        <ele>1406.8</ele>
        <time>2018-07-22T08:06:48.000Z</time>
      </trkpt>
      <trkpt lat="42.293334" lon="-0.474841">
        <ele>1406.5</ele>
        <time>2018-07-22T08:06:49.000Z</time>
      </trkpt>
      <trkpt lat="42.293328" lon="-0.474853">
        <ele>1406.2</ele>
        <time>2018-07-22T08:06:50.000Z</time>
      </trkpt>
      <trkpt lat="42.293322" lon="-0.474866">
        <ele>1405.9</ele>
        <time>2018-07-22T08:06:51.000Z</time>
      </trkpt>
      <trkpt lat="42.293315" lon="-0.474878">
        <ele>1405.6</ele>
        <time>2018-07-22T08:06:52.000Z</time>
      </trkpt>
      <trkpt lat="42.293309" lon="-0.47489">
        <ele>1405.3</ele>
        <time>2018-07-22T08:06:53.000Z</time>
      </trkpt>
      <trkpt lat="42.293302" lon="-0.474902">
        <ele>1405.0</ele>
        <time>2018-07-22T08:06:54.000Z</time>
      </trkpt>
      <trkpt lat="42.293296" lon="-0.474913">
        <ele>1404.7</ele>
        <time>2018-07-22T08:06:55.000Z</time>
      </trkpt>
      <trkpt lat="42.293289" lon="-0.474924">
        <ele>1404.4</ele>
        <time>2018-07-22T08:06:56.000Z</time>
      </trkpt>
      <trkpt lat="42.293283" lon="-0.474935">
        <ele>1404.2</ele>
        <time>2018-07-22T08:06:57.000Z</time>
      </trkpt>
      <trkpt lat="42.293276" lon="-0.474946">
        <ele>1403.9</ele>
        <time>2018-07-22T08:06:58.000Z</time>
      </trkpt>
      <trkpt lat="42.293269" lon="-0.474956">
        <ele>1403.6</ele>
        <time>2018-07-22T08:06:59.000Z</time>
      </trkpt>
      <trkpt lat="42.293263" lon="-0.474966">
        <ele>1403.3</ele>
        <time>2018-07-22T08:07:00.000Z</time>
      </trkpt>
      <trkpt lat="42.293256" lon="-0.474976">
        <ele>1403.1</ele>
        <time>2018-07-22T08:07:01.000Z</time>
      </trkpt>
      <trkpt lat="42.293249" lon="-0.474986">
        <ele>1402.8</ele>
        <time>2018-07-22T08:07:02.000Z</time>
      </trkpt>
      <trkpt lat="42.293242" lon="-0.474995">
        <ele>1402.5</ele>
        <time>2018-07-22T08:07:03.000Z</time>
      </trkpt>
      <trkpt lat="42.293236" lon="-0.475004">
        <ele>1402.3</ele>
        <time>2018-07-22T08:07:04.000Z</time>
      </trkpt>
      <trkpt lat="42.293229" lon="-0.475012">
        <ele>1402.1</ele>
        <time>2018-07-22T08:07:05.000Z</time>
      </trkpt>
      <trkpt lat="42.293223" lon="-0.475021">
        <ele>1401.9</ele>
        <time>2018-07-22T08:07:06.000Z</time>
      </trkpt>
      <trkpt lat="42.293217" lon="-0.475029">
        <ele>1401.7</ele>
        <time>2018-07-22T08:07:07.000Z</time>
      </trkpt>
      <trkpt lat="42.293211" lon="-0.475037">
        <ele>1401.5</ele>
        <time>2018-07-22T08:07:08.000Z</time>
      </trkpt>
      <trkpt lat="42.293206" lon="-0.475045">
        <ele>1401.3</ele>
        <time>2018-07-22T08:07:09.000Z</time>
      </trkpt>
      <trkpt lat="42.293201" lon="-0.475052">
        <ele>1401.1</ele>
        <time>2018-07-22T08:07:10.000Z</time>
      </trkpt>
      <trkpt lat="42.293196" lon="-0.47506">
        <ele>1400.9</ele>
        <time>2018-07-22T08:07:11.000Z</time>
      </trkpt>
      <trkpt lat="42.293192" lon="-0.475067">
        <ele>1400.8</ele>
        <time>2018-07-22T08:07:12.000Z</time>
      </trkpt>
      <trkpt lat="42.293188" lon="-0.475075">
        <ele>1400.6</ele>
        <time>2018-07-22T08:07:13.000Z</time>
      </trkpt>
      <trkpt lat="42.293184" lon="-0.475082">
        <ele>1400.4</ele>
        <time>2018-07-22T08:07:14.000Z</time>
      </trkpt>
      <trkpt lat="42.293181" lon="-0.47509">
        <ele>1400.3</ele>
        <time>2018-07-22T08:07:15.000Z</time>
      </trkpt>
      <trkpt lat="42.293178" lon="-0.475097">
        <ele>1400.1</ele>
        <time>2018-07-22T08:07:16.000Z</time>
      </trkpt>
      <trkpt lat="42.293174" lon="-0.475105">
        <ele>1400.0</ele>
        <time>2018-07-22T08:07:17.000Z</time>
      </trkpt>
      <trkpt lat="42.293171" lon="-0.475112">
        <ele>1399.8</ele>
        <time>2018-07-22T08:07:18.000Z</time>
      </trkpt>
      <trkpt lat="42.293167" lon="-0.47512">
        <ele>1399.7</ele>
        <time>2018-07-22T08:07:19.000Z</time>
      </trkpt>
      <trkpt lat="42.293164" lon="-0.475127">
        <ele>1399.5</ele>
        <time>2018-07-22T08:07:20.000Z</time>
      </trkpt>
      <trkpt lat="42.293159" lon="-0.475135">
        <ele>1399.3</ele>
        <time>2018-07-22T08:07:21.000Z</time>
      </trkpt>
      <trkpt lat="42.293155" lon="-0.475143">
        <ele>1399.2</ele>
        <time>2018-07-22T08:07:22.000Z</time>
      </trkpt>
      <trkpt lat="42.29315" lon="-0.475151">
        <ele>1399.0</ele>
        <time>2018-07-22T08:07:23.000Z</time>
      </trkpt>
      <trkpt lat="42.293144" lon="-0.47516">
        <ele>1398.8</ele>
        <time>2018-07-22T08:07:24.000Z</time>
      </trkpt>
      <trkpt lat="42.293138" lon="-0.475168">
        <ele>1398.5</ele>
        <time>2018-07-22T08:07:25.000Z</time>
      </trkpt>
      <trkpt lat="42.293132" lon="-0.475177">
        <ele>1398.3</ele>
        <time>2018-07-22T08:07:26.000Z</time>
      </trkpt>
      <trkpt lat="42.293126" lon="-0.475186">
        <ele>1398.1</ele>
        <time>2018-07-22T08:07:27.000Z</time>
      </trkpt>
      <trkpt lat="42.293119" lon="-0.475195">
        <ele>1397.9</ele>
        <time>2018-07-22T08:07:28.000Z</time>
      </trkpt>
      <trkpt lat="42.293113" lon="-0.475204">
        <ele>1397.7</ele>
        <time>2018-07-22T08:07:29.000Z</time>
      </trkpt>
      <trkpt lat="42.293106" lon="-0.475214">
        <ele>1397.4</ele>
        <time>2018-07-22T08:07:30.000Z</time>
      </trkpt>
      <trkpt lat="42.293099" lon="-0.475223">
        <ele>1397.2</ele>
        <time>2018-07-22T08:07:31.000Z</time>
      </trkpt>
      <trkpt lat="42.293093" lon="-0.475233">
        <ele>1397.0</ele>
        <time>2018-07-22T08:07:32.000Z</time>
      </trkpt>
      <trkpt lat="42.293087" lon="-0.475243">
        <ele>1396.7</ele>
        <time>2018-07-22T08:07:33.000Z</time>
      </trkpt>
      <trkpt lat="42.293081" lon="-0.475253">
        <ele>1396.5</ele>
        <time>2018-07-22T08:07:34.000Z</time>
      </trkpt>
      <trkpt lat="42.293075" lon="-0.475263">
        <ele>1396.3</ele>
        <time>2018-07-22T08:07:35.000Z</time>
      </trkpt>
      <trkpt lat="42.29307" lon="-0.475273">
        <ele>1396.1</ele>
        <time>2018-07-22T08:07:36.000Z</time>
      </trkpt>
      <trkpt lat="42.293065" lon="-0.475283">
        <ele>1395.9</ele>
        <time>2018-07-22T08:07:37.000Z</time>
      </trkpt>
      <trkpt lat="42.293059" lon="-0.475293">
        <ele>1395.6</ele>
        <time>2018-07-22T08:07:38.000Z</time>
      </trkpt>
      <trkpt lat="42.293054" lon="-0.475304">
        <ele>1395.4</ele>
        <time>2018-07-22T08:07:39.000Z</time>
      </trkpt>
      <trkpt lat="42.293048" lon="-0.475314">
        <ele>1395.2</ele>
        <time>2018-07-22T08:07:40.000Z</time>
      </trkpt>
      <trkpt lat="42.293042" lon="-0.475325">
        <ele>1395.0</ele>
        <time>2018-07-22T08:07:41.000Z</time>
      </trkpt>
      <trkpt lat="42.293036" lon="-0.475336">
        <ele>1394.7</ele>
        <time>2018-07-22T08:07:42.000Z</time>
      </trkpt>
      <trkpt lat="42.29303" lon="-0.475347">
        <ele>1394.5</ele>
        <time>2018-07-22T08:07:43.000Z</time>
      </trkpt>
      <trkpt lat="42.293023" lon="-0.475358">
        <ele>1394.2</ele>
        <time>2018-07-22T08:07:44.000Z</time>
      </trkpt>
      <trkpt lat="42.293016" lon="-0.47537">
        <ele>1394.0</ele>
        <time>2018-07-22T08:07:45.000Z</time>
      </trkpt>
      <trkpt lat="42.293008" lon="-0.475382">
        <ele>1393.7</ele>
        <time>2018-07-22T08:07:46.000Z</time>
      </trkpt>
      <trkpt lat="42.293" lon="-0.475393">
        <ele>1393.4</ele>
        <time>2018-07-22T08:07:47.000Z</time>
      </trkpt>
      <trkpt lat="42.292992" lon="-0.475405">
        <ele>1393.1</ele>
        <time>2018-07-22T08:07:48.000Z</time>
      </trkpt>
      <trkpt lat="42.292983" lon="-0.475417">
        <ele>1392.8</ele>
        <time>2018-07-22T08:07:49.000Z</time>
      </trkpt>
      <trkpt lat="42.292975" lon="-0.47543">
        <ele>1392.5</ele>
        <time>2018-07-22T08:07:50.000Z</time>
      </trkpt>
      <trkpt lat="42.292967" lon="-0.475442">
        <ele>1392.2</ele>
        <time>2018-07-22T08:07:51.000Z</time>
      </trkpt>
      <trkpt lat="42.292958" lon="-0.475454">
        <ele>1391.9</ele>
        <time>2018-07-22T08:07:52.000Z</time>
      </trkpt>
      <trkpt lat="42.29295" lon="-0.475466">
        <ele>1391.7</ele>
        <time>2018-07-22T08:07:53.000Z</time>
      </trkpt>
      <trkpt lat="42.292942" lon="-0.475478">
        <ele>1391.4</ele>
        <time>2018-07-22T08:07:54.000Z</time>
      </trkpt>
      <trkpt lat="42.292935" lon="-0.47549">
        <ele>1391.1</ele>
        <time>2018-07-22T08:07:55.000Z</time>
      </trkpt>
      <trkpt lat="42.292928" lon="-0.475502">
        <ele>1390.9</ele>
        <time>2018-07-22T08:07:56.000Z</time>
      </trkpt>
      <trkpt lat="42.292921" lon="-0.475513">
        <ele>1390.6</ele>
        <time>2018-07-22T08:07:57.000Z</time>
      </trkpt>
      <trkpt lat="42.292915" lon="-0.475525">
        <ele>1390.4</ele>
        <time>2018-07-22T08:07:58.000Z</time>
      </trkpt>
      <trkpt lat="42.292909" lon="-0.475536">
        <ele>1390.1</ele>
        <time>2018-07-22T08:07:59.000Z</time>
      </trkpt>
      <trkpt lat="42.292904" lon="-0.475547">
        <ele>1389.9</ele>
        <time>2018-07-22T08:08:00.000Z</time>
      </trkpt>
      <trkpt lat="42.292899" lon="-0.475558">
        <ele>1389.7</ele>
        <time>2018-07-22T08:08:01.000Z</time>
      </trkpt>
      <trkpt lat="42.292893" lon="-0.475569">
        <ele>1389.5</ele>
        <time>2018-07-22T08:08:02.000Z</time>
      </trkpt>
      <trkpt lat="42.292888" lon="-0.475579">
        <ele>1389.2</ele>
        <time>2018-07-22T08:08:03.000Z</time>
      </trkpt>
      <trkpt lat="42.292883" lon="-0.475589">
        <ele>1389.0</ele>
        <time>2018-07-22T08:08:04.000Z</time>
      </trkpt>
      <trkpt lat="42.292879" lon="-0.475599">
        <ele>1388.9</ele>
        <time>2018-07-22T08:08:05.000Z</time>
      </trkpt>
      <trkpt lat="42.292874" lon="-0.475608">
        <ele>1388.7</ele>
        <time>2018-07-22T08:08:06.000Z</time>
      </trkpt>
      <trkpt lat="42.292869" lon="-0.475617">
        <ele>1388.5</ele>
        <time>2018-07-22T08:08:07.000Z</time>
      </trkpt>
      <trkpt lat="42.292864" lon="-0.475626">
        <ele>1388.3</ele>
        <time>2018-07-22T08:08:08.000Z</time>
      </trkpt>
      <trkpt lat="42.292859" lon="-0.475634">
        <ele>1388.1</ele>
        <time>2018-07-22T08:08:09.000Z</time>
      </trkpt>
      <trkpt lat="42.292854" lon="-0.475642">
        <ele>1387.9</ele>
        <time>2018-07-22T08:08:10.000Z</time>
      </trkpt>
      <trkpt lat="42.292849" lon="-0.47565">
        <ele>1387.7</ele>
        <time>2018-07-22T08:08:11.000Z</time>
      </trkpt>
      <trkpt lat="42.292844" lon="-0.475658">
        <ele>1387.6</ele>
        <time>2018-07-22T08:08:12.000Z</time>
      </trkpt>
      <trkpt lat="42.292838" lon="-0.475665">
        <ele>1387.4</ele>
        <time>2018-07-22T08:08:13.000Z</time>
      </trkpt>
      <trkpt lat="42.292833" lon="-0.475672">
        <ele>1387.2</ele>
        <time>2018-07-22T08:08:14.000Z</time>
      </trkpt>
      <trkpt lat="42.292828" lon="-0.47568">
        <ele>1387.0</ele>
        <time>2018-07-22T08:08:15.000Z</time>
      </trkpt>
      <trkpt lat="42.292822" lon="-0.475687">
        <ele>1386.8</ele>
        <time>2018-07-22T08:08:16.000Z</time>
      </trkpt>
      <trkpt lat="42.292817" lon="-0.475695">
        <ele>1386.7</ele>
        <time>2018-07-22T08:08:17.000Z</time>
      </trkpt>
      <trkpt lat="42.292811" lon="-0.475702">
        <ele>1386.5</ele>
        <time>2018-07-22T08:08:18.000Z</time>
      </trkpt>
      <trkpt lat="42.292806" lon="-0.47571">
        <ele>1386.3</ele>
        <time>2018-07-22T08:08:19.000Z</time>
      </trkpt>
      <trkpt lat="42.2928" lon="-0.475717">
        <ele>1386.1</ele>
        <time>2018-07-22T08:08:20.000Z</time>
      </trkpt>
      <trkpt lat="42.292794" lon="-0.475725">
        <ele>1385.9</ele>
        <time>2018-07-22T08:08:21.000Z</time>
      </trkpt>
      <trkpt lat="42.292788" lon="-0.475733">
        <ele>1385.7</ele>
        <time>2018-07-22T08:08:22.000Z</time>
      </trkpt>
      <trkpt lat="42.292783" lon="-0.475741">
        <ele>1385.6</ele>
        <time>2018-07-22T08:08:23.000Z</time>
      </trkpt>
      <trkpt lat="42.292777" lon="-0.47575">
        <ele>1385.4</ele>
        <time>2018-07-22T08:08:24.000Z</time>
      </trkpt>
      <trkpt lat="42.292771" lon="-0.475758">
        <ele>1385.2</ele>
        <time>2018-07-22T08:08:25.000Z</time>
      </trkpt>
      <trkpt lat="42.292766" lon="-0.475767">
        <ele>1385.0</ele>
        <time>2018-07-22T08:08:26.000Z</time>
      </trkpt>
      <trkpt lat="42.29276" lon="-0.475776">
        <ele>1384.8</ele>
        <time>2018-07-22T08:08:27.000Z</time>
      </trkpt>
      <trkpt lat="42.292755" lon="-0.475785">
        <ele>1384.6</ele>
        <time>2018-07-22T08:08:28.000Z</time>
      </trkpt>
      <trkpt lat="42.292749" lon="-0.475794">
        <ele>1384.4</ele>
        <time>2018-07-22T08:08:29.000Z</time>
      </trkpt>
      <trkpt lat="42.292744" lon="-0.475804">
        <ele>1384.2</ele>
        <time>2018-07-22T08:08:30.000Z</time>
      </trkpt>
      <trkpt lat="42.292739" lon="-0.475814">
        <ele>1384.0</ele>
        <time>2018-07-22T08:08:31.000Z</time>
      </trkpt>
      <trkpt lat="42.292734" lon="-0.475823">
        <ele>1383.8</ele>
        <time>2018-07-22T08:08:32.000Z</time>
      </trkpt>
      <trkpt lat="42.292729" lon="-0.475832">
        <ele>1383.6</ele>
        <time>2018-07-22T08:08:33.000Z</time>
      </trkpt>
      <trkpt lat="42.292724" lon="-0.475842">
        <ele>1383.4</ele>
        <time>2018-07-22T08:08:34.000Z</time>
      </trkpt>
      <trkpt lat="42.292719" lon="-0.475851">
        <ele>1383.2</ele>
        <time>2018-07-22T08:08:35.000Z</time>
      </trkpt>
      <trkpt lat="42.292714" lon="-0.47586">
        <ele>1383.1</ele>
        <time>2018-07-22T08:08:36.000Z</time>
      </trkpt>
      <trkpt lat="42.29271" lon="-0.475868">
        <ele>1382.9</ele>
        <time>2018-07-22T08:08:37.000Z</time>
      </trkpt>
      <trkpt lat="42.292705" lon="-0.475876">
        <ele>1382.8</ele>
        <time>2018-07-22T08:08:38.000Z</time>
      </trkpt>
      <trkpt lat="42.2927" lon="-0.475884">
        <ele>1382.6</ele>
        <time>2018-07-22T08:08:39.000Z</time>
      </trkpt>
      <trkpt lat="42.292696" lon="-0.475891">
        <ele>1382.5</ele>
        <time>2018-07-22T08:08:40.000Z</time>
      </trkpt>
      <trkpt lat="42.292691" lon="-0.475898">
        <ele>1382.3</ele>
        <time>2018-07-22T08:08:41.000Z</time>
      </trkpt>
      <trkpt lat="42.292687" lon="-0.475905">
        <ele>1382.2</ele>
        <time>2018-07-22T08:08:42.000Z</time>
      </trkpt>
      <trkpt lat="42.292682" lon="-0.475911">
        <ele>1382.1</ele>
        <time>2018-07-22T08:08:43.000Z</time>
      </trkpt>
      <trkpt lat="42.292678" lon="-0.475917">
        <ele>1381.9</ele>
        <time>2018-07-22T08:08:44.000Z</time>
      </trkpt>
      <trkpt lat="42.292674" lon="-0.475924">
        <ele>1381.8</ele>
        <time>2018-07-22T08:08:45.000Z</time>
      </trkpt>
      <trkpt lat="42.29267" lon="-0.47593">
        <ele>1381.7</ele>
        <time>2018-07-22T08:08:46.000Z</time>
      </trkpt>
      <trkpt lat="42.292666" lon="-0.475937">
        <ele>1381.5</ele>
        <time>2018-07-22T08:08:47.000Z</time>
      </trkpt>
      <trkpt lat="42.292662" lon="-0.475944">
        <ele>1381.4</ele>
        <time>2018-07-22T08:08:48.000Z</time>
      </trkpt>
      <trkpt lat="42.292658" lon="-0.475951">
        <ele>1381.3</ele>
        <time>2018-07-22T08:08:49.000Z</time>
      </trkpt>
      <trkpt lat="42.292654" lon="-0.475958">
        <ele>1381.2</ele>
        <time>2018-07-22T08:08:50.000Z</time>
      </trkpt>
      <trkpt lat="42.292651" lon="-0.475966">
        <ele>1381.0</ele>
        <time>2018-07-22T08:08:51.000Z</time>
      </trkpt>
      <trkpt lat="42.292647" lon="-0.475973">
        <ele>1380.9</ele>
        <time>2018-07-22T08:08:52.000Z</time>
      </trkpt>
      <trkpt lat="42.292644" lon="-0.47598">
        <ele>1380.8</ele>
        <time>2018-07-22T08:08:53.000Z</time>
      </trkpt>
      <trkpt lat="42.292641" lon="-0.475986">
        <ele>1380.7</ele>
        <time>2018-07-22T08:08:54.000Z</time>
      </trkpt>
      <trkpt lat="42.292639" lon="-0.475991">
        <ele>1380.6</ele>
        <time>2018-07-22T08:08:55.000Z</time>
      </trkpt>
      <trkpt lat="42.292637" lon="-0.475995">
        <ele>1380.5</ele>
        <time>2018-07-22T08:08:56.000Z</time>
      </trkpt>
      <trkpt lat="42.292634" lon="-0.476">
        <ele>1380.4</ele>
        <time>2018-07-22T08:08:57.000Z</time>
      </trkpt>
      <trkpt lat="42.292629" lon="-0.476008">
        <ele>1380.3</ele>
        <time>2018-07-22T08:08:58.000Z</time>
      </trkpt>
      <trkpt lat="42.292623" lon="-0.476016">
        <ele>1380.1</ele>
        <time>2018-07-22T08:08:59.000Z</time>
      </trkpt>
      <trkpt lat="42.292617" lon="-0.476024">
        <ele>1379.9</ele>
        <time>2018-07-22T08:09:00.000Z</time>
      </trkpt>
      <trkpt lat="42.292612" lon="-0.476033">
        <ele>1379.8</ele>
        <time>2018-07-22T08:09:01.000Z</time>
      </trkpt>
      <trkpt lat="42.292606" lon="-0.476043">
        <ele>1379.6</ele>
        <time>2018-07-22T08:09:02.000Z</time>
      </trkpt>
      <trkpt lat="42.292601" lon="-0.476053">
        <ele>1379.4</ele>
        <time>2018-07-22T08:09:03.000Z</time>
      </trkpt>
      <trkpt lat="42.292597" lon="-0.476064">
        <ele>1379.2</ele>
        <time>2018-07-22T08:09:04.000Z</time>
      </trkpt>
      <trkpt lat="42.292593" lon="-0.476076">
        <ele>1379.1</ele>
        <time>2018-07-22T08:09:05.000Z</time>
      </trkpt>
      <trkpt lat="42.29259" lon="-0.476088">
        <ele>1378.9</ele>
        <time>2018-07-22T08:09:06.000Z</time>
      </trkpt>
      <trkpt lat="42.292588" lon="-0.476102">
        <ele>1378.7</ele>
        <time>2018-07-22T08:09:07.000Z</time>
      </trkpt>
      <trkpt lat="42.292588" lon="-0.476116">
        <ele>1378.6</ele>
        <time>2018-07-22T08:09:08.000Z</time>
      </trkpt>
      <trkpt lat="42.292588" lon="-0.47613">
        <ele>1378.4</ele>
        <time>2018-07-22T08:09:09.000Z</time>
      </trkpt>
      <trkpt lat="42.292588" lon="-0.476145">
        <ele>1378.3</ele>
        <time>2018-07-22T08:09:10.000Z</time>
      </trkpt>
      <trkpt lat="42.29259" lon="-0.47616">
        <ele>1378.2</ele>
        <time>2018-07-22T08:09:11.000Z</time>
      </trkpt>
      <trkpt lat="42.292592" lon="-0.476174">
        <ele>1378.1</ele>
        <time>2018-07-22T08:09:12.000Z</time>
      </trkpt>
      <trkpt lat="42.292595" lon="-0.476188">
        <ele>1378.0</ele>
        <time>2018-07-22T08:09:13.000Z</time>
      </trkpt>
      <trkpt lat="42.292598" lon="-0.476201">
        <ele>1377.9</ele>
        <time>2018-07-22T08:09:14.000Z</time>
      </trkpt>
      <trkpt lat="42.292602" lon="-0.476213">
        <ele>1377.8</ele>
        <time>2018-07-22T08:09:15.000Z</time>
      </trkpt>
      <trkpt lat="42.292606" lon="-0.476225">
        <ele>1377.8</ele>
        <time>2018-07-22T08:09:16.000Z</time>
      </trkpt>
      <trkpt lat="42.29261" lon="-0.476237">
        <ele>1377.7</ele>
        <time>2018-07-22T08:09:17.000Z</time>
      </trkpt>
      <trkpt lat="42.292615" lon="-0.476247">
        <ele>1377.7</ele>
        <time>2018-07-22T08:09:18.000Z</time>
      </trkpt>
      <trkpt lat="42.29262" lon="-0.476257">
        <ele>1377.7</ele>
        <time>2018-07-22T08:09:19.000Z</time>
      </trkpt>
      <trkpt lat="42.292625" lon="-0.476266">
        <ele>1377.6</ele>
        <time>2018-07-22T08:09:20.000Z</time>
      </trkpt>
      <trkpt lat="42.29263" lon="-0.476274">
        <ele>1377.6</ele>
        <time>2018-07-22T08:09:21.000Z</time>
      </trkpt>
      <trkpt lat="42.292636" lon="-0.476281">
        <ele>1377.6</ele>
        <time>2018-07-22T08:09:22.000Z</time>
      </trkpt>
      <trkpt lat="42.292641" lon="-0.476287">
        <ele>1377.7</ele>
        <time>2018-07-22T08:09:23.000Z</time>
      </trkpt>
      <trkpt lat="42.292647" lon="-0.476293">
        <ele>1377.7</ele>
        <time>2018-07-22T08:09:24.000Z</time>
      </trkpt>
      <trkpt lat="42.292653" lon="-0.476297">
        <ele>1377.7</ele>
        <time>2018-07-22T08:09:25.000Z</time>
      </trkpt>
      <trkpt lat="42.292659" lon="-0.476302">
        <ele>1377.8</ele>
        <time>2018-07-22T08:09:26.000Z</time>
      </trkpt>
      <trkpt lat="42.292666" lon="-0.476307">
        <ele>1377.8</ele>
        <time>2018-07-22T08:09:27.000Z</time>
      </trkpt>
      <trkpt lat="42.292673" lon="-0.476312">
        <ele>1377.9</ele>
        <time>2018-07-22T08:09:28.000Z</time>
      </trkpt>
      <trkpt lat="42.292681" lon="-0.476318">
        <ele>1377.9</ele>
        <time>2018-07-22T08:09:29.000Z</time>
      </trkpt>
      <trkpt lat="42.292689" lon="-0.476324">
        <ele>1378.0</ele>
        <time>2018-07-22T08:09:30.000Z</time>
      </trkpt>
      <trkpt lat="42.292697" lon="-0.476331">
        <ele>1378.0</ele>
        <time>2018-07-22T08:09:31.000Z</time>
      </trkpt>
      <trkpt lat="42.292704" lon="-0.476338">
        <ele>1378.0</ele>
        <time>2018-07-22T08:09:32.000Z</time>
      </trkpt>
      <trkpt lat="42.292709" lon="-0.476345">
        <ele>1378.0</ele>
        <time>2018-07-22T08:09:33.000Z</time>
      </trkpt>
      <trkpt lat="42.292712" lon="-0.476353">
        <ele>1378.0</ele>
        <time>2018-07-22T08:09:34.000Z</time>
      </trkpt>
      <trkpt lat="42.292713" lon="-0.476359">
        <ele>1378.0</ele>
        <time>2018-07-22T08:09:35.000Z</time>
      </trkpt>
      <trkpt lat="42.292713" lon="-0.476366">
        <ele>1377.9</ele>
        <time>2018-07-22T08:09:36.000Z</time>
      </trkpt>
      <trkpt lat="42.292712" lon="-0.476372">
        <ele>1377.8</ele>
        <time>2018-07-22T08:09:37.000Z</time>
      </trkpt>
      <trkpt lat="42.29271" lon="-0.476377">
        <ele>1377.7</ele>
        <time>2018-07-22T08:09:38.000Z</time>
      </trkpt>
      <trkpt lat="42.292708" lon="-0.476381">
        <ele>1377.7</ele>
        <time>2018-07-22T08:09:39.000Z</time>
      </trkpt>
      <trkpt lat="42.292706" lon="-0.476385">
        <ele>1377.6</ele>
        <time>2018-07-22T08:09:40.000Z</time>
      </trkpt>
      <trkpt lat="42.292704" lon="-0.476387">
        <ele>1377.5</ele>
        <time>2018-07-22T08:09:41.000Z</time>
      </trkpt>
      <trkpt lat="42.292703" lon="-0.476388">
        <ele>1377.5</ele>
        <time>2018-07-22T08:09:42.000Z</time>
      </trkpt>
      <trkpt lat="42.292702" lon="-0.476389">
        <ele>1377.5</ele>
        <time>2018-07-22T08:09:43.000Z</time>
      </trkpt>
      <trkpt lat="42.292701" lon="-0.476389">
        <ele>1377.5</ele>
        <time>2018-07-22T08:09:44.000Z</time>
      </trkpt>
      <trkpt lat="42.292701" lon="-0.476389">
        <ele>1377.5</ele>
        <time>2018-07-22T08:13:22.000Z</time>
      </trkpt>
      <trkpt lat="42.292701" lon="-0.47639">
        <ele>1377.5</ele>
        <time>2018-07-22T08:13:23.000Z</time>
      </trkpt>
      <trkpt lat="42.292699" lon="-0.476391">
        <ele>1377.4</ele>
        <time>2018-07-22T08:13:24.000Z</time>
      </trkpt>
      <trkpt lat="42.292699" lon="-0.476385">
        <ele>1377.5</ele>
        <time>2018-07-22T08:13:25.000Z</time>
      </trkpt>
      <trkpt lat="42.292701" lon="-0.476374">
        <ele>1377.6</ele>
        <time>2018-07-22T08:13:26.000Z</time>
      </trkpt>
      <trkpt lat="42.292702" lon="-0.476363">
        <ele>1377.8</ele>
        <time>2018-07-22T08:13:27.000Z</time>
      </trkpt>
      <trkpt lat="42.292704" lon="-0.476352">
        <ele>1377.9</ele>
        <time>2018-07-22T08:13:28.000Z</time>
      </trkpt>
      <trkpt lat="42.292704" lon="-0.476341">
        <ele>1378.0</ele>
        <time>2018-07-22T08:13:29.000Z</time>
      </trkpt>
      <trkpt lat="42.292703" lon="-0.476332">
        <ele>1378.1</ele>
        <time>2018-07-22T08:13:30.000Z</time>
      </trkpt>
      <trkpt lat="42.292702" lon="-0.476322">
        <ele>1378.2</ele>
        <time>2018-07-22T08:13:31.000Z</time>
      </trkpt>
      <trkpt lat="42.292699" lon="-0.476313">
        <ele>1378.2</ele>
        <time>2018-07-22T08:13:32.000Z</time>
      </trkpt>
      <trkpt lat="42.292694" lon="-0.476305">
        <ele>1378.2</ele>
        <time>2018-07-22T08:13:33.000Z</time>
      </trkpt>
      <trkpt lat="42.292689" lon="-0.476297">
        <ele>1378.2</ele>
        <time>2018-07-22T08:13:34.000Z</time>
      </trkpt>
      <trkpt lat="42.292683" lon="-0.476289">
        <ele>1378.2</ele>
        <time>2018-07-22T08:13:35.000Z</time>
      </trkpt>
      <trkpt lat="42.292676" lon="-0.47628">
        <ele>1378.2</ele>
        <time>2018-07-22T08:13:36.000Z</time>
      </trkpt>
      <trkpt lat="42.292669" lon="-0.476272">
        <ele>1378.2</ele>
        <time>2018-07-22T08:13:37.000Z</time>
      </trkpt>
      <trkpt lat="42.292661" lon="-0.476263">
        <ele>1378.2</ele>
        <time>2018-07-22T08:13:38.000Z</time>
      </trkpt>
      <trkpt lat="42.292654" lon="-0.476254">
        <ele>1378.2</ele>
        <time>2018-07-22T08:13:39.000Z</time>
      </trkpt>
      <trkpt lat="42.292647" lon="-0.476243">
        <ele>1378.2</ele>
        <time>2018-07-22T08:13:40.000Z</time>
      </trkpt>
      <trkpt lat="42.292641" lon="-0.476233">
        <ele>1378.2</ele>
        <time>2018-07-22T08:13:41.000Z</time>
      </trkpt>
      <trkpt lat="42.292635" lon="-0.476221">
        <ele>1378.2</ele>
        <time>2018-07-22T08:13:42.000Z</time>
      </trkpt>
      <trkpt lat="42.29263" lon="-0.476208">
        <ele>1378.3</ele>
        <time>2018-07-22T08:13:43.000Z</time>
      </trkpt>
      <trkpt lat="42.292625" lon="-0.476194">
        <ele>1378.4</ele>
        <time>2018-07-22T08:13:44.000Z</time>
      </trkpt>
      <trkpt lat="42.292622" lon="-0.476179">
        <ele>1378.5</ele>
        <time>2018-07-22T08:13:45.000Z</time>
      </trkpt>
      <trkpt lat="42.292618" lon="-0.476165">
        <ele>1378.5</ele>
        <time>2018-07-22T08:13:46.000Z</time>
      </trkpt>
      <trkpt lat="42.292615" lon="-0.47615">
        <ele>1378.6</ele>
        <time>2018-07-22T08:13:47.000Z</time>
      </trkpt>
      <trkpt lat="42.292611" lon="-0.476136">
        <ele>1378.7</ele>
        <time>2018-07-22T08:13:48.000Z</time>
      </trkpt>
      <trkpt lat="42.292607" lon="-0.476122">
        <ele>1378.8</ele>
        <time>2018-07-22T08:13:49.000Z</time>
      </trkpt>
      <trkpt lat="42.292603" lon="-0.47611">
        <ele>1378.9</ele>
        <time>2018-07-22T08:13:50.000Z</time>
      </trkpt>
      <trkpt lat="42.292598" lon="-0.4761">
        <ele>1378.9</ele>
        <time>2018-07-22T08:13:51.000Z</time>
      </trkpt>
      <trkpt lat="42.292592" lon="-0.476093">
        <ele>1378.9</ele>
        <time>2018-07-22T08:13:52.000Z</time>
      </trkpt>
      <trkpt lat="42.292585" lon="-0.47609">
        <ele>1378.8</ele>
        <time>2018-07-22T08:13:53.000Z</time>
      </trkpt>
      <trkpt lat="42.292577" lon="-0.476091">
        <ele>1378.7</ele>
        <time>2018-07-22T08:13:54.000Z</time>
      </trkpt>
      <trkpt lat="42.292569" lon="-0.476095">
        <ele>1378.5</ele>
        <time>2018-07-22T08:13:55.000Z</time>
      </trkpt>
      <trkpt lat="42.292559" lon="-0.476103">
        <ele>1378.3</ele>
        <time>2018-07-22T08:13:56.000Z</time>
      </trkpt>
      <trkpt lat="42.29255" lon="-0.476112">
        <ele>1378.1</ele>
        <time>2018-07-22T08:13:57.000Z</time>
      </trkpt>
      <trkpt lat="42.29254" lon="-0.476123">
        <ele>1377.8</ele>
        <time>2018-07-22T08:13:58.000Z</time>
      </trkpt>
      <trkpt lat="42.292531" lon="-0.476134">
        <ele>1377.6</ele>
        <time>2018-07-22T08:13:59.000Z</time>
      </trkpt>
      <trkpt lat="42.292522" lon="-0.476144">
        <ele>1377.3</ele>
        <time>2018-07-22T08:14:00.000Z</time>
      </trkpt>
      <trkpt lat="42.292514" lon="-0.476154">
        <ele>1377.1</ele>
        <time>2018-07-22T08:14:01.000Z</time>
      </trkpt>
      <trkpt lat="42.292507" lon="-0.476162">
        <ele>1376.9</ele>
        <time>2018-07-22T08:14:02.000Z</time>
      </trkpt>
      <trkpt lat="42.292502" lon="-0.476169">
        <ele>1376.8</ele>
        <time>2018-07-22T08:14:03.000Z</time>
      </trkpt>
      <trkpt lat="42.292498" lon="-0.476174">
        <ele>1376.7</ele>
        <time>2018-07-22T08:14:04.000Z</time>
      </trkpt>
      <trkpt lat="42.292496" lon="-0.476177">
        <ele>1376.7</ele>
        <time>2018-07-22T08:14:05.000Z</time>
      </trkpt>
      <trkpt lat="42.292495" lon="-0.476178">
        <ele>1376.6</ele>
        <time>2018-07-22T08:14:06.000Z</time>
      </trkpt>
      <trkpt lat="42.292495" lon="-0.476179">
        <ele>1376.6</ele>
        <time>2018-07-22T08:14:07.000Z</time>
      </trkpt>
      <trkpt lat="42.292495" lon="-0.476179">
        <ele>1376.6</ele>
        <time>2018-07-22T08:14:08.000Z</time>
      </trkpt>
      <trkpt lat="42.292493" lon="-0.476181">
        <ele>1376.6</ele>
        <time>2018-07-22T08:14:09.000Z</time>
      </trkpt>
      <trkpt lat="42.292488" lon="-0.476187">
        <ele>1376.5</ele>
        <time>2018-07-22T08:14:10.000Z</time>
      </trkpt>
      <trkpt lat="42.29248" lon="-0.476197">
        <ele>1376.3</ele>
        <time>2018-07-22T08:14:11.000Z</time>
      </trkpt>
      <trkpt lat="42.29247" lon="-0.47621">
        <ele>1376.1</ele>
        <time>2018-07-22T08:14:12.000Z</time>
      </trkpt>
      <trkpt lat="42.292461" lon="-0.476224">
        <ele>1375.9</ele>
        <time>2018-07-22T08:14:13.000Z</time>
      </trkpt>
      <trkpt lat="42.292455" lon="-0.476238">
        <ele>1375.7</ele>
        <time>2018-07-22T08:14:14.000Z</time>
      </trkpt>
      <trkpt lat="42.292451" lon="-0.476251">
        <ele>1375.6</ele>
        <time>2018-07-22T08:14:15.000Z</time>
      </trkpt>
      <trkpt lat="42.292448" lon="-0.476264">
        <ele>1375.4</ele>
        <time>2018-07-22T08:14:16.000Z</time>
      </trkpt>
      <trkpt lat="42.292445" lon="-0.476277">
        <ele>1375.3</ele>
        <time>2018-07-22T08:14:17.000Z</time>
      </trkpt>
      <trkpt lat="42.292442" lon="-0.47629">
        <ele>1375.1</ele>
        <time>2018-07-22T08:14:18.000Z</time>
      </trkpt>
      <trkpt lat="42.292439" lon="-0.476303">
        <ele>1375.0</ele>
        <time>2018-07-22T08:14:19.000Z</time>
      </trkpt>
      <trkpt lat="42.292435" lon="-0.476316">
        <ele>1374.9</ele>
        <time>2018-07-22T08:14:20.000Z</time>
      </trkpt>
      <trkpt lat="42.292431" lon="-0.476328">
        <ele>1374.7</ele>
        <time>2018-07-22T08:14:21.000Z</time>
      </trkpt>
      <trkpt lat="42.292425" lon="-0.476341">
        <ele>1374.6</ele>
        <time>2018-07-22T08:14:22.000Z</time>
      </trkpt>
      <trkpt lat="42.292419" lon="-0.476353">
        <ele>1374.4</ele>
        <time>2018-07-22T08:14:23.000Z</time>
      </trkpt>
      <trkpt lat="42.292413" lon="-0.476366">
        <ele>1374.2</ele>
        <time>2018-07-22T08:14:24.000Z</time>
      </trkpt>
      <trkpt lat="42.292406" lon="-0.476379">
        <ele>1374.1</ele>
        <time>2018-07-22T08:14:25.000Z</time>
      </trkpt>
      <trkpt lat="42.292399" lon="-0.476392">
        <ele>1373.9</ele>
        <time>2018-07-22T08:14:26.000Z</time>
      </trkpt>
      <trkpt lat="42.292393" lon="-0.476406">
        <ele>1373.7</ele>
        <time>2018-07-22T08:14:27.000Z</time>
      </trkpt>
      <trkpt lat="42.292386" lon="-0.476419">
        <ele>1373.6</ele>
        <time>2018-07-22T08:14:28.000Z</time>
      </trkpt>
      <trkpt lat="42.29238" lon="-0.476431">
        <ele>1373.4</ele>
        <time>2018-07-22T08:14:29.000Z</time>
      </trkpt>
      <trkpt lat="42.292372" lon="-0.476441">
        <ele>1373.3</ele>
        <time>2018-07-22T08:14:30.000Z</time>
      </trkpt>
      <trkpt lat="42.292364" lon="-0.476451">
        <ele>1373.2</ele>
        <time>2018-07-22T08:14:31.000Z</time>
      </trkpt>
      <trkpt lat="42.292356" lon="-0.476465">
        <ele>1373.0</ele>
        <time>2018-07-22T08:14:32.000Z</time>
      </trkpt>
      <trkpt lat="42.292348" lon="-0.476483">
        <ele>1372.8</ele>
        <time>2018-07-22T08:14:33.000Z</time>
      </trkpt>
      <trkpt lat="42.292339" lon="-0.476504">
        <ele>1372.6</ele>
        <time>2018-07-22T08:14:34.000Z</time>
      </trkpt>
      <trkpt lat="42.292329" lon="-0.476528">
        <ele>1372.3</ele>
        <time>2018-07-22T08:14:35.000Z</time>
      </trkpt>
      <trkpt lat="42.292319" lon="-0.476553">
        <ele>1372.0</ele>
        <time>2018-07-22T08:14:36.000Z</time>
      </trkpt>
      <trkpt lat="42.292314" lon="-0.476577">
        <ele>1371.8</ele>
        <time>2018-07-22T08:14:37.000Z</time>
      </trkpt>
      <trkpt lat="42.292319" lon="-0.4766">
        <ele>1371.7</ele>
        <time>2018-07-22T08:14:38.000Z</time>
      </trkpt>
      <trkpt lat="42.29233" lon="-0.476621">
        <ele>1371.6</ele>
        <time>2018-07-22T08:14:39.000Z</time>
      </trkpt>
      <trkpt lat="42.29234" lon="-0.47664">
        <ele>1371.5</ele>
        <time>2018-07-22T08:14:40.000Z</time>
      </trkpt>
      <trkpt lat="42.292347" lon="-0.476656">
        <ele>1371.4</ele>
        <time>2018-07-22T08:14:41.000Z</time>
      </trkpt>
      <trkpt lat="42.292349" lon="-0.476669">
        <ele>1371.3</ele>
        <time>2018-07-22T08:14:42.000Z</time>
      </trkpt>
      <trkpt lat="42.292348" lon="-0.476678">
        <ele>1371.3</ele>
        <time>2018-07-22T08:14:43.000Z</time>
      </trkpt>
      <trkpt lat="42.292343" lon="-0.476684">
        <ele>1371.3</ele>
        <time>2018-07-22T08:14:44.000Z</time>
      </trkpt>
      <trkpt lat="42.292338" lon="-0.476689">
        <ele>1371.3</ele>
        <time>2018-07-22T08:14:45.000Z</time>
      </trkpt>
      <trkpt lat="42.292336" lon="-0.476696">
        <ele>1371.3</ele>
        <time>2018-07-22T08:14:46.000Z</time>
      </trkpt>
      <trkpt lat="42.292338" lon="-0.476706">
        <ele>1371.3</ele>
        <time>2018-07-22T08:14:47.000Z</time>
      </trkpt>
      <trkpt lat="42.292342" lon="-0.47672">
        <ele>1371.4</ele>
        <time>2018-07-22T08:14:48.000Z</time>
      </trkpt>
      <trkpt lat="42.292343" lon="-0.476736">
        <ele>1371.4</ele>
        <time>2018-07-22T08:14:49.000Z</time>
      </trkpt>
      <trkpt lat="42.292339" lon="-0.476752">
        <ele>1371.5</ele>
        <time>2018-07-22T08:14:50.000Z</time>
      </trkpt>
      <trkpt lat="42.292334" lon="-0.476766">
        <ele>1371.5</ele>
        <time>2018-07-22T08:14:51.000Z</time>
      </trkpt>
      <trkpt lat="42.292326" lon="-0.476775">
        <ele>1371.4</ele>
        <time>2018-07-22T08:14:52.000Z</time>
      </trkpt>
      <trkpt lat="42.292315" lon="-0.476784">
        <ele>1371.4</ele>
        <time>2018-07-22T08:14:53.000Z</time>
      </trkpt>
      <trkpt lat="42.292301" lon="-0.476794">
        <ele>1371.3</ele>
        <time>2018-07-22T08:14:54.000Z</time>
      </trkpt>
      <trkpt lat="42.292284" lon="-0.476807">
        <ele>1371.2</ele>
        <time>2018-07-22T08:14:55.000Z</time>
      </trkpt>
      <trkpt lat="42.292267" lon="-0.476821">
        <ele>1371.2</ele>
        <time>2018-07-22T08:14:56.000Z</time>
      </trkpt>
      <trkpt lat="42.292248" lon="-0.476837">
        <ele>1371.1</ele>
        <time>2018-07-22T08:14:57.000Z</time>
      </trkpt>
      <trkpt lat="42.29223" lon="-0.476853">
        <ele>1370.9</ele>
        <time>2018-07-22T08:14:58.000Z</time>
      </trkpt>
      <trkpt lat="42.292214" lon="-0.476869">
        <ele>1370.8</ele>
        <time>2018-07-22T08:14:59.000Z</time>
      </trkpt>
      <trkpt lat="42.2922" lon="-0.476884">
        <ele>1370.8</ele>
        <time>2018-07-22T08:15:00.000Z</time>
      </trkpt>
      <trkpt lat="42.292189" lon="-0.476897">
        <ele>1370.7</ele>
        <time>2018-07-22T08:15:01.000Z</time>
      </trkpt>
      <trkpt lat="42.29218" lon="-0.476908">
        <ele>1370.6</ele>
        <time>2018-07-22T08:15:02.000Z</time>
      </trkpt>
      <trkpt lat="42.292174" lon="-0.476918">
        <ele>1370.6</ele>
        <time>2018-07-22T08:15:03.000Z</time>
      </trkpt>
      <trkpt lat="42.292168" lon="-0.476927">
        <ele>1370.5</ele>
        <time>2018-07-22T08:15:04.000Z</time>
      </trkpt>
      <trkpt lat="42.292161" lon="-0.476936">
        <ele>1370.5</ele>
        <time>2018-07-22T08:15:05.000Z</time>
      </trkpt>
      <trkpt lat="42.292152" lon="-0.476945">
        <ele>1370.4</ele>
        <time>2018-07-22T08:15:06.000Z</time>
      </trkpt>
      <trkpt lat="42.292137" lon="-0.476955">
        <ele>1370.3</ele>
        <time>2018-07-22T08:15:07.000Z</time>
      </trkpt>
      <trkpt lat="42.292118" lon="-0.476964">
        <ele>1370.1</ele>
        <time>2018-07-22T08:15:08.000Z</time>
      </trkpt>
      <trkpt lat="42.292097" lon="-0.476974">
        <ele>1369.9</ele>
        <time>2018-07-22T08:15:09.000Z</time>
      </trkpt>
      <trkpt lat="42.292078" lon="-0.476982">
        <ele>1369.8</ele>
        <time>2018-07-22T08:15:10.000Z</time>
      </trkpt>
      <trkpt lat="42.29206" lon="-0.47699">
        <ele>1369.6</ele>
        <time>2018-07-22T08:15:11.000Z</time>
      </trkpt>
      <trkpt lat="42.292044" lon="-0.476998">
        <ele>1369.4</ele>
        <time>2018-07-22T08:15:12.000Z</time>
      </trkpt>
      <trkpt lat="42.29203" lon="-0.477006">
        <ele>1369.3</ele>
        <time>2018-07-22T08:15:13.000Z</time>
      </trkpt>
      <trkpt lat="42.292016" lon="-0.477015">
        <ele>1369.2</ele>
        <time>2018-07-22T08:15:14.000Z</time>
      </trkpt>
      <trkpt lat="42.292004" lon="-0.477026">
        <ele>1369.0</ele>
        <time>2018-07-22T08:15:15.000Z</time>
      </trkpt>
      <trkpt lat="42.291992" lon="-0.477038">
        <ele>1368.9</ele>
        <time>2018-07-22T08:15:16.000Z</time>
      </trkpt>
      <trkpt lat="42.291981" lon="-0.477051">
        <ele>1368.8</ele>
        <time>2018-07-22T08:15:17.000Z</time>
      </trkpt>
      <trkpt lat="42.29197" lon="-0.477066">
        <ele>1368.6</ele>
        <time>2018-07-22T08:15:18.000Z</time>
      </trkpt>
      <trkpt lat="42.291959" lon="-0.477081">
        <ele>1368.5</ele>
        <time>2018-07-22T08:15:19.000Z</time>
      </trkpt>
      <trkpt lat="42.291948" lon="-0.477096">
        <ele>1368.3</ele>
        <time>2018-07-22T08:15:20.000Z</time>
      </trkpt>
      <trkpt lat="42.291937" lon="-0.47711">
        <ele>1368.2</ele>
        <time>2018-07-22T08:15:21.000Z</time>
      </trkpt>
      <trkpt lat="42.291926" lon="-0.477123">
        <ele>1368.0</ele>
        <time>2018-07-22T08:15:22.000Z</time>
      </trkpt>
      <trkpt lat="42.291914" lon="-0.477136">
        <ele>1367.9</ele>
        <time>2018-07-22T08:15:23.000Z</time>
      </trkpt>
      <trkpt lat="42.291903" lon="-0.477149">
        <ele>1367.7</ele>
        <time>2018-07-22T08:15:24.000Z</time>
      </trkpt>
      <trkpt lat="42.291891" lon="-0.477161">
        <ele>1367.5</ele>
        <time>2018-07-22T08:15:25.000Z</time>
      </trkpt>
      <trkpt lat="42.29188" lon="-0.477172">
        <ele>1367.4</ele>
        <time>2018-07-22T08:15:26.000Z</time>
      </trkpt>
      <trkpt lat="42.291868" lon="-0.477184">
        <ele>1367.2</ele>
        <time>2018-07-22T08:15:27.000Z</time>
      </trkpt>
      <trkpt lat="42.291857" lon="-0.477195">
        <ele>1367.0</ele>
        <time>2018-07-22T08:15:28.000Z</time>
      </trkpt>
      <trkpt lat="42.291846" lon="-0.477206">
        <ele>1366.9</ele>
        <time>2018-07-22T08:15:29.000Z</time>
      </trkpt>
      <trkpt lat="42.291835" lon="-0.477216">
        <ele>1366.7</ele>
        <time>2018-07-22T08:15:30.000Z</time>
      </trkpt>
      <trkpt lat="42.291825" lon="-0.477227">
        <ele>1366.5</ele>
        <time>2018-07-22T08:15:31.000Z</time>
      </trkpt>
      <trkpt lat="42.291815" lon="-0.477238">
        <ele>1366.4</ele>
        <time>2018-07-22T08:15:32.000Z</time>
      </trkpt>
      <trkpt lat="42.291805" lon="-0.477249">
        <ele>1366.2</ele>
        <time>2018-07-22T08:15:33.000Z</time>
      </trkpt>
      <trkpt lat="42.291795" lon="-0.47726">
        <ele>1366.0</ele>
        <time>2018-07-22T08:15:34.000Z</time>
      </trkpt>
      <trkpt lat="42.291786" lon="-0.477271">
        <ele>1365.9</ele>
        <time>2018-07-22T08:15:35.000Z</time>
      </trkpt>
      <trkpt lat="42.291776" lon="-0.477282">
        <ele>1365.7</ele>
        <time>2018-07-22T08:15:36.000Z</time>
      </trkpt>
      <trkpt lat="42.291767" lon="-0.477293">
        <ele>1365.5</ele>
        <time>2018-07-22T08:15:37.000Z</time>
      </trkpt>
      <trkpt lat="42.291758" lon="-0.477304">
        <ele>1365.4</ele>
        <time>2018-07-22T08:15:38.000Z</time>
      </trkpt>
      <trkpt lat="42.291749" lon="-0.477315">
        <ele>1365.2</ele>
        <time>2018-07-22T08:15:39.000Z</time>
      </trkpt>
      <trkpt lat="42.291739" lon="-0.477327">
        <ele>1365.0</ele>
        <time>2018-07-22T08:15:40.000Z</time>
      </trkpt>
      <trkpt lat="42.29173" lon="-0.477338">
        <ele>1364.8</ele>
        <time>2018-07-22T08:15:41.000Z</time>
      </trkpt>
      <trkpt lat="42.29172" lon="-0.47735">
        <ele>1364.6</ele>
        <time>2018-07-22T08:15:42.000Z</time>
      </trkpt>
      <trkpt lat="42.29171" lon="-0.477361">
        <ele>1364.4</ele>
        <time>2018-07-22T08:15:43.000Z</time>
      </trkpt>
      <trkpt lat="42.2917" lon="-0.477373">
        <ele>1364.2</ele>
        <time>2018-07-22T08:15:44.000Z</time>
      </trkpt>
      <trkpt lat="42.29169" lon="-0.477386">
        <ele>1364.0</ele>
        <time>2018-07-22T08:15:45.000Z</time>
      </trkpt>
      <trkpt lat="42.29168" lon="-0.477399">
        <ele>1363.8</ele>
        <time>2018-07-22T08:15:46.000Z</time>
      </trkpt>
      <trkpt lat="42.29167" lon="-0.477412">
        <ele>1363.6</ele>
        <time>2018-07-22T08:15:47.000Z</time>
      </trkpt>
      <trkpt lat="42.29166" lon="-0.477426">
        <ele>1363.4</ele>
        <time>2018-07-22T08:15:48.000Z</time>
      </trkpt>
      <trkpt lat="42.29165" lon="-0.477441">
        <ele>1363.2</ele>
        <time>2018-07-22T08:15:49.000Z</time>
      </trkpt>
      <trkpt lat="42.291639" lon="-0.477456">
        <ele>1363.0</ele>
        <time>2018-07-22T08:15:50.000Z</time>
      </trkpt>
      <trkpt lat="42.291629" lon="-0.477473">
        <ele>1362.8</ele>
        <time>2018-07-22T08:15:51.000Z</time>
      </trkpt>
      <trkpt lat="42.291619" lon="-0.47749">
        <ele>1362.6</ele>
        <time>2018-07-22T08:15:52.000Z</time>
      </trkpt>
      <trkpt lat="42.291606" lon="-0.477511">
        <ele>1362.4</ele>
        <time>2018-07-22T08:15:53.000Z</time>
      </trkpt>
      <trkpt lat="42.291596" lon="-0.477527">
        <ele>1362.3</ele>
        <time>2018-07-22T08:15:54.000Z</time>
      </trkpt>
      <trkpt lat="42.291581" lon="-0.477549">
        <ele>1362.2</ele>
        <time>2018-07-22T08:15:55.000Z</time>
      </trkpt>
      <trkpt lat="42.291378" lon="-0.477763">
        <ele>1360.4</ele>
        <time>2018-07-22T08:15:56.000Z</time>
      </trkpt>
      <trkpt lat="42.291165" lon="-0.477986">
        <ele>1358.9</ele>
        <time>2018-07-22T08:15:57.000Z</time>
      </trkpt>
      <trkpt lat="42.290943" lon="-0.478194">
        <ele>1357.5</ele>
        <time>2018-07-22T08:18:04.000Z</time>
      </trkpt>
      <trkpt lat="42.290927" lon="-0.47819">
        <ele>1357.4</ele>
        <time>2018-07-22T08:18:05.000Z</time>
      </trkpt>
      <trkpt lat="42.290692" lon="-0.47837">
        <ele>1359.2</ele>
        <time>2018-07-22T08:18:06.000Z</time>
      </trkpt>
      <trkpt lat="42.290578" lon="-0.478449">
        <ele>1361.7</ele>
        <time>2018-07-22T08:18:07.000Z</time>
      </trkpt>
      <trkpt lat="42.290544" lon="-0.47846">
        <ele>1362.3</ele>
        <time>2018-07-22T08:18:08.000Z</time>
      </trkpt>
      <trkpt lat="42.290529" lon="-0.478454">
        <ele>1362.4</ele>
        <time>2018-07-22T08:18:09.000Z</time>
      </trkpt>
      <trkpt lat="42.290516" lon="-0.478446">
        <ele>1362.5</ele>
        <time>2018-07-22T08:18:10.000Z</time>
      </trkpt>
      <trkpt lat="42.290501" lon="-0.478437">
        <ele>1362.6</ele>
        <time>2018-07-22T08:18:11.000Z</time>
      </trkpt>
      <trkpt lat="42.290485" lon="-0.478429">
        <ele>1362.6</ele>
        <time>2018-07-22T08:18:12.000Z</time>
      </trkpt>
      <trkpt lat="42.29047" lon="-0.478421">
        <ele>1362.7</ele>
        <time>2018-07-22T08:18:13.000Z</time>
      </trkpt>
      <trkpt lat="42.290454" lon="-0.478414">
        <ele>1362.8</ele>
        <time>2018-07-22T08:18:14.000Z</time>
      </trkpt>
      <trkpt lat="42.29044" lon="-0.478408">
        <ele>1362.9</ele>
        <time>2018-07-22T08:18:15.000Z</time>
      </trkpt>
      <trkpt lat="42.290427" lon="-0.478402">
        <ele>1363.0</ele>
        <time>2018-07-22T08:18:16.000Z</time>
      </trkpt>
      <trkpt lat="42.290417" lon="-0.478397">
        <ele>1363.0</ele>
        <time>2018-07-22T08:18:17.000Z</time>
      </trkpt>
      <trkpt lat="42.290407" lon="-0.478394">
        <ele>1363.1</ele>
        <time>2018-07-22T08:18:18.000Z</time>
      </trkpt>
      <trkpt lat="42.2904" lon="-0.478392">
        <ele>1363.2</ele>
        <time>2018-07-22T08:18:19.000Z</time>
      </trkpt>
      <trkpt lat="42.290393" lon="-0.478391">
        <ele>1363.2</ele>
        <time>2018-07-22T08:18:20.000Z</time>
      </trkpt>
      <trkpt lat="42.290387" lon="-0.478392">
        <ele>1363.3</ele>
        <time>2018-07-22T08:18:21.000Z</time>
      </trkpt>
      <trkpt lat="42.290378" lon="-0.478391">
        <ele>1363.4</ele>
        <time>2018-07-22T08:18:22.000Z</time>
      </trkpt>
      <trkpt lat="42.290362" lon="-0.478388">
        <ele>1363.6</ele>
        <time>2018-07-22T08:18:23.000Z</time>
      </trkpt>
      <trkpt lat="42.290347" lon="-0.478386">
        <ele>1363.7</ele>
        <time>2018-07-22T08:18:24.000Z</time>
      </trkpt>
      <trkpt lat="42.290332" lon="-0.478384">
        <ele>1363.9</ele>
        <time>2018-07-22T08:18:25.000Z</time>
      </trkpt>
      <trkpt lat="42.290314" lon="-0.478379">
        <ele>1364.0</ele>
        <time>2018-07-22T08:18:26.000Z</time>
      </trkpt>
      <trkpt lat="42.290293" lon="-0.47837">
        <ele>1364.1</ele>
        <time>2018-07-22T08:18:27.000Z</time>
      </trkpt>
      <trkpt lat="42.290272" lon="-0.478359">
        <ele>1364.2</ele>
        <time>2018-07-22T08:18:28.000Z</time>
      </trkpt>
      <trkpt lat="42.290252" lon="-0.478348">
        <ele>1364.2</ele>
        <time>2018-07-22T08:18:29.000Z</time>
      </trkpt>
      <trkpt lat="42.290232" lon="-0.478338">
        <ele>1364.3</ele>
        <time>2018-07-22T08:18:30.000Z</time>
      </trkpt>
      <trkpt lat="42.290215" lon="-0.478328">
        <ele>1364.4</ele>
        <time>2018-07-22T08:18:31.000Z</time>
      </trkpt>
      <trkpt lat="42.2902" lon="-0.478321">
        <ele>1364.4</ele>
        <time>2018-07-22T08:18:32.000Z</time>
      </trkpt>
      <trkpt lat="42.290187" lon="-0.478315">
        <ele>1364.5</ele>
        <time>2018-07-22T08:18:33.000Z</time>
      </trkpt>
      <trkpt lat="42.290177" lon="-0.478311">
        <ele>1364.6</ele>
        <time>2018-07-22T08:18:34.000Z</time>
      </trkpt>
      <trkpt lat="42.290168" lon="-0.478309">
        <ele>1364.7</ele>
        <time>2018-07-22T08:18:35.000Z</time>
      </trkpt>
      <trkpt lat="42.290162" lon="-0.478309">
        <ele>1364.7</ele>
        <time>2018-07-22T08:18:36.000Z</time>
      </trkpt>
      <trkpt lat="42.290157" lon="-0.47831">
        <ele>1364.8</ele>
        <time>2018-07-22T08:18:37.000Z</time>
      </trkpt>
      <trkpt lat="42.290151" lon="-0.47831">
        <ele>1364.9</ele>
        <time>2018-07-22T08:18:38.000Z</time>
      </trkpt>
      <trkpt lat="42.290143" lon="-0.478309">
        <ele>1365.0</ele>
        <time>2018-07-22T08:18:39.000Z</time>
      </trkpt>
      <trkpt lat="42.29013" lon="-0.478305">
        <ele>1365.1</ele>
        <time>2018-07-22T08:18:40.000Z</time>
      </trkpt>
      <trkpt lat="42.290115" lon="-0.4783">
        <ele>1365.2</ele>
        <time>2018-07-22T08:18:41.000Z</time>
      </trkpt>
      <trkpt lat="42.2901" lon="-0.478297">
        <ele>1365.3</ele>
        <time>2018-07-22T08:18:42.000Z</time>
      </trkpt>
      <trkpt lat="42.290085" lon="-0.478295">
        <ele>1365.4</ele>
        <time>2018-07-22T08:18:43.000Z</time>
      </trkpt>
      <trkpt lat="42.290071" lon="-0.478294">
        <ele>1365.6</ele>
        <time>2018-07-22T08:18:44.000Z</time>
      </trkpt>
      <trkpt lat="42.290057" lon="-0.478293">
        <ele>1365.7</ele>
        <time>2018-07-22T08:18:45.000Z</time>
      </trkpt>
      <trkpt lat="42.290043" lon="-0.478293">
        <ele>1365.9</ele>
        <time>2018-07-22T08:18:46.000Z</time>
      </trkpt>
      <trkpt lat="42.290029" lon="-0.478292">
        <ele>1366.0</ele>
        <time>2018-07-22T08:18:47.000Z</time>
      </trkpt>
      <trkpt lat="42.290015" lon="-0.478289">
        <ele>1366.1</ele>
        <time>2018-07-22T08:18:48.000Z</time>
      </trkpt>
      <trkpt lat="42.290001" lon="-0.478286">
        <ele>1366.3</ele>
        <time>2018-07-22T08:18:49.000Z</time>
      </trkpt>
      <trkpt lat="42.289986" lon="-0.478283">
        <ele>1366.4</ele>
        <time>2018-07-22T08:18:50.000Z</time>
      </trkpt>
      <trkpt lat="42.289971" lon="-0.47828">
        <ele>1366.6</ele>
        <time>2018-07-22T08:18:51.000Z</time>
      </trkpt>
      <trkpt lat="42.289957" lon="-0.478277">
        <ele>1366.8</ele>
        <time>2018-07-22T08:18:52.000Z</time>
      </trkpt>
      <trkpt lat="42.289943" lon="-0.478276">
        <ele>1367.0</ele>
        <time>2018-07-22T08:18:53.000Z</time>
      </trkpt>
      <trkpt lat="42.289929" lon="-0.478275">
        <ele>1367.2</ele>
        <time>2018-07-22T08:18:54.000Z</time>
      </trkpt>
      <trkpt lat="42.289915" lon="-0.478275">
        <ele>1367.4</ele>
        <time>2018-07-22T08:18:55.000Z</time>
      </trkpt>
      <trkpt lat="42.289902" lon="-0.478276">
        <ele>1367.6</ele>
        <time>2018-07-22T08:18:56.000Z</time>
      </trkpt>
      <trkpt lat="42.289889" lon="-0.478278">
        <ele>1367.9</ele>
        <time>2018-07-22T08:18:57.000Z</time>
      </trkpt>
      <trkpt lat="42.289876" lon="-0.47828">
        <ele>1368.1</ele>
        <time>2018-07-22T08:18:58.000Z</time>
      </trkpt>
      <trkpt lat="42.289863" lon="-0.478283">
        <ele>1368.4</ele>
        <time>2018-07-22T08:18:59.000Z</time>
      </trkpt>
      <trkpt lat="42.289851" lon="-0.478286">
        <ele>1368.6</ele>
        <time>2018-07-22T08:19:00.000Z</time>
      </trkpt>
      <trkpt lat="42.289839" lon="-0.478289">
        <ele>1368.9</ele>
        <time>2018-07-22T08:19:01.000Z</time>
      </trkpt>
      <trkpt lat="42.289827" lon="-0.478292">
        <ele>1369.1</ele>
        <time>2018-07-22T08:19:02.000Z</time>
      </trkpt>
      <trkpt lat="42.289815" lon="-0.478294">
        <ele>1369.4</ele>
        <time>2018-07-22T08:19:03.000Z</time>
      </trkpt>
      <trkpt lat="42.289803" lon="-0.478297">
        <ele>1369.6</ele>
        <time>2018-07-22T08:19:04.000Z</time>
      </trkpt>
      <trkpt lat="42.289791" lon="-0.478299">
        <ele>1369.8</ele>
        <time>2018-07-22T08:19:05.000Z</time>
      </trkpt>
      <trkpt lat="42.289778" lon="-0.478301">
        <ele>1370.1</ele>
        <time>2018-07-22T08:19:06.000Z</time>
      </trkpt>
      <trkpt lat="42.289763" lon="-0.478302">
        <ele>1370.4</ele>
        <time>2018-07-22T08:19:07.000Z</time>
      </trkpt>
      <trkpt lat="42.289748" lon="-0.478301">
        <ele>1370.6</ele>
        <time>2018-07-22T08:19:08.000Z</time>
      </trkpt>
      <trkpt lat="42.289734" lon="-0.478299">
        <ele>1370.8</ele>
        <time>2018-07-22T08:19:09.000Z</time>
      </trkpt>
      <trkpt lat="42.289722" lon="-0.478295">
        <ele>1370.9</ele>
        <time>2018-07-22T08:19:10.000Z</time>
      </trkpt>
      <trkpt lat="42.28971" lon="-0.478289">
        <ele>1370.9</ele>
        <time>2018-07-22T08:19:11.000Z</time>
      </trkpt>
      <trkpt lat="42.2897" lon="-0.478282">
        <ele>1371.0</ele>
        <time>2018-07-22T08:19:12.000Z</time>
      </trkpt>
      <trkpt lat="42.28969" lon="-0.478274">
        <ele>1370.9</ele>
        <time>2018-07-22T08:19:13.000Z</time>
      </trkpt>
      <trkpt lat="42.28968" lon="-0.478266">
        <ele>1370.9</ele>
        <time>2018-07-22T08:19:14.000Z</time>
      </trkpt>
      <trkpt lat="42.289669" lon="-0.478258">
        <ele>1370.9</ele>
        <time>2018-07-22T08:19:15.000Z</time>
      </trkpt>
      <trkpt lat="42.289658" lon="-0.478249">
        <ele>1370.9</ele>
        <time>2018-07-22T08:19:16.000Z</time>
      </trkpt>
      <trkpt lat="42.289647" lon="-0.478241">
        <ele>1370.9</ele>
        <time>2018-07-22T08:19:17.000Z</time>
      </trkpt>
      <trkpt lat="42.289635" lon="-0.478232">
        <ele>1370.9</ele>
        <time>2018-07-22T08:19:18.000Z</time>
      </trkpt>
      <trkpt lat="42.289623" lon="-0.478222">
        <ele>1370.8</ele>
        <time>2018-07-22T08:19:19.000Z</time>
      </trkpt>
      <trkpt lat="42.28961" lon="-0.478212">
        <ele>1370.8</ele>
        <time>2018-07-22T08:19:20.000Z</time>
      </trkpt>
      <trkpt lat="42.289597" lon="-0.478201">
        <ele>1370.7</ele>
        <time>2018-07-22T08:19:21.000Z</time>
      </trkpt>
      <trkpt lat="42.289583" lon="-0.478189">
        <ele>1370.6</ele>
        <time>2018-07-22T08:19:22.000Z</time>
      </trkpt>
      <trkpt lat="42.28957" lon="-0.478177">
        <ele>1370.5</ele>
        <time>2018-07-22T08:19:23.000Z</time>
      </trkpt>
      <trkpt lat="42.289556" lon="-0.478167">
        <ele>1370.5</ele>
        <time>2018-07-22T08:19:24.000Z</time>
      </trkpt>
      <trkpt lat="42.289542" lon="-0.478157">
        <ele>1370.4</ele>
        <time>2018-07-22T08:19:25.000Z</time>
      </trkpt>
      <trkpt lat="42.289529" lon="-0.478148">
        <ele>1370.4</ele>
        <time>2018-07-22T08:19:26.000Z</time>
      </trkpt>
      <trkpt lat="42.289516" lon="-0.478142">
        <ele>1370.4</ele>
        <time>2018-07-22T08:19:27.000Z</time>
      </trkpt>
      <trkpt lat="42.289503" lon="-0.478136">
        <ele>1370.4</ele>
        <time>2018-07-22T08:19:28.000Z</time>
      </trkpt>
      <trkpt lat="42.28949" lon="-0.478132">
        <ele>1370.5</ele>
        <time>2018-07-22T08:19:29.000Z</time>
      </trkpt>
      <trkpt lat="42.289478" lon="-0.478128">
        <ele>1370.6</ele>
        <time>2018-07-22T08:19:30.000Z</time>
      </trkpt>
      <trkpt lat="42.289466" lon="-0.478125">
        <ele>1370.6</ele>
        <time>2018-07-22T08:19:31.000Z</time>
      </trkpt>
      <trkpt lat="42.289454" lon="-0.478122">
        <ele>1370.7</ele>
        <time>2018-07-22T08:19:32.000Z</time>
      </trkpt>
      <trkpt lat="42.289443" lon="-0.47812">
        <ele>1370.8</ele>
        <time>2018-07-22T08:19:33.000Z</time>
      </trkpt>
      <trkpt lat="42.289432" lon="-0.478117">
        <ele>1370.9</ele>
        <time>2018-07-22T08:19:34.000Z</time>
      </trkpt>
      <trkpt lat="42.289421" lon="-0.478114">
        <ele>1370.9</ele>
        <time>2018-07-22T08:19:35.000Z</time>
      </trkpt>
      <trkpt lat="42.289411" lon="-0.47811">
        <ele>1370.9</ele>
        <time>2018-07-22T08:19:36.000Z</time>
      </trkpt>
      <trkpt lat="42.2894" lon="-0.478106">
        <ele>1371.0</ele>
        <time>2018-07-22T08:19:37.000Z</time>
      </trkpt>
      <trkpt lat="42.289389" lon="-0.478101">
        <ele>1371.0</ele>
        <time>2018-07-22T08:19:38.000Z</time>
      </trkpt>
      <trkpt lat="42.289377" lon="-0.478097">
        <ele>1371.0</ele>
        <time>2018-07-22T08:19:39.000Z</time>
      </trkpt>
      <trkpt lat="42.289363" lon="-0.478093">
        <ele>1371.1</ele>
        <time>2018-07-22T08:19:40.000Z</time>
      </trkpt>
      <trkpt lat="42.289347" lon="-0.478089">
        <ele>1371.2</ele>
        <time>2018-07-22T08:19:41.000Z</time>
      </trkpt>
      <trkpt lat="42.289333" lon="-0.478086">
        <ele>1371.3</ele>
        <time>2018-07-22T08:19:42.000Z</time>
      </trkpt>
      <trkpt lat="42.289319" lon="-0.478082">
        <ele>1371.3</ele>
        <time>2018-07-22T08:19:43.000Z</time>
      </trkpt>
      <trkpt lat="42.289306" lon="-0.478079">
        <ele>1371.4</ele>
        <time>2018-07-22T08:19:44.000Z</time>
      </trkpt>
      <trkpt lat="42.289295" lon="-0.478076">
        <ele>1371.4</ele>
        <time>2018-07-22T08:19:45.000Z</time>
      </trkpt>
      <trkpt lat="42.289283" lon="-0.478072">
        <ele>1371.5</ele>
        <time>2018-07-22T08:19:46.000Z</time>
      </trkpt>
      <trkpt lat="42.289272" lon="-0.478068">
        <ele>1371.5</ele>
        <time>2018-07-22T08:19:47.000Z</time>
      </trkpt>
      <trkpt lat="42.28926" lon="-0.478063">
        <ele>1371.5</ele>
        <time>2018-07-22T08:19:48.000Z</time>
      </trkpt>
      <trkpt lat="42.289248" lon="-0.478058">
        <ele>1371.5</ele>
        <time>2018-07-22T08:19:49.000Z</time>
      </trkpt>
      <trkpt lat="42.289236" lon="-0.478052">
        <ele>1371.4</ele>
        <time>2018-07-22T08:19:50.000Z</time>
      </trkpt>
      <trkpt lat="42.289224" lon="-0.478046">
        <ele>1371.4</ele>
        <time>2018-07-22T08:19:51.000Z</time>
      </trkpt>
      <trkpt lat="42.289211" lon="-0.478039">
        <ele>1371.3</ele>
        <time>2018-07-22T08:19:52.000Z</time>
      </trkpt>
      <trkpt lat="42.289198" lon="-0.478033">
        <ele>1371.3</ele>
        <time>2018-07-22T08:19:53.000Z</time>
      </trkpt>
      <trkpt lat="42.289185" lon="-0.478025">
        <ele>1371.2</ele>
        <time>2018-07-22T08:19:54.000Z</time>
      </trkpt>
      <trkpt lat="42.289173" lon="-0.478018">
        <ele>1371.1</ele>
        <time>2018-07-22T08:19:55.000Z</time>
      </trkpt>
      <trkpt lat="42.28916" lon="-0.47801">
        <ele>1371.0</ele>
        <time>2018-07-22T08:19:56.000Z</time>
      </trkpt>
      <trkpt lat="42.289147" lon="-0.478003">
        <ele>1371.1</ele>
        <time>2018-07-22T08:19:57.000Z</time>
      </trkpt>
      <trkpt lat="42.289134" lon="-0.477995">
        <ele>1371.1</ele>
        <time>2018-07-22T08:19:58.000Z</time>
      </trkpt>
      <trkpt lat="42.289122" lon="-0.477987">
        <ele>1371.1</ele>
        <time>2018-07-22T08:19:59.000Z</time>
      </trkpt>
      <trkpt lat="42.289109" lon="-0.477979">
        <ele>1371.1</ele>
        <time>2018-07-22T08:20:00.000Z</time>
      </trkpt>
      <trkpt lat="42.289097" lon="-0.47797">
        <ele>1371.0</ele>
        <time>2018-07-22T08:20:01.000Z</time>
      </trkpt>
      <trkpt lat="42.289085" lon="-0.477962">
        <ele>1371.0</ele>
        <time>2018-07-22T08:20:02.000Z</time>
      </trkpt>
      <trkpt lat="42.289073" lon="-0.477954">
        <ele>1371.0</ele>
        <time>2018-07-22T08:20:03.000Z</time>
      </trkpt>
      <trkpt lat="42.289061" lon="-0.477945">
        <ele>1371.0</ele>
        <time>2018-07-22T08:20:04.000Z</time>
      </trkpt>
      <trkpt lat="42.289049" lon="-0.477937">
        <ele>1371.0</ele>
        <time>2018-07-22T08:20:05.000Z</time>
      </trkpt>
      <trkpt lat="42.289038" lon="-0.477928">
        <ele>1370.9</ele>
        <time>2018-07-22T08:20:06.000Z</time>
      </trkpt>
      <trkpt lat="42.289027" lon="-0.47792">
        <ele>1370.9</ele>
        <time>2018-07-22T08:20:07.000Z</time>
      </trkpt>
      <trkpt lat="42.289017" lon="-0.477912">
        <ele>1370.8</ele>
        <time>2018-07-22T08:20:08.000Z</time>
      </trkpt>
      <trkpt lat="42.289006" lon="-0.477903">
        <ele>1370.8</ele>
        <time>2018-07-22T08:20:09.000Z</time>
      </trkpt>
      <trkpt lat="42.288996" lon="-0.477895">
        <ele>1370.7</ele>
        <time>2018-07-22T08:20:10.000Z</time>
      </trkpt>
      <trkpt lat="42.288983" lon="-0.477888">
        <ele>1370.7</ele>
        <time>2018-07-22T08:20:11.000Z</time>
      </trkpt>
      <trkpt lat="42.288969" lon="-0.477882">
        <ele>1370.8</ele>
        <time>2018-07-22T08:20:12.000Z</time>
      </trkpt>
      <trkpt lat="42.288955" lon="-0.477878">
        <ele>1371.0</ele>
        <time>2018-07-22T08:20:13.000Z</time>
      </trkpt>
      <trkpt lat="42.288942" lon="-0.477876">
        <ele>1371.2</ele>
        <time>2018-07-22T08:20:14.000Z</time>
      </trkpt>
      <trkpt lat="42.28893" lon="-0.477878">
        <ele>1371.5</ele>
        <time>2018-07-22T08:20:15.000Z</time>
      </trkpt>
      <trkpt lat="42.288922" lon="-0.477883">
        <ele>1371.8</ele>
        <time>2018-07-22T08:20:16.000Z</time>
      </trkpt>
      <trkpt lat="42.288916" lon="-0.47789">
        <ele>1372.1</ele>
        <time>2018-07-22T08:20:17.000Z</time>
      </trkpt>
      <trkpt lat="42.288912" lon="-0.477899">
        <ele>1372.5</ele>
        <time>2018-07-22T08:20:18.000Z</time>
      </trkpt>
      <trkpt lat="42.28891" lon="-0.477909">
        <ele>1372.8</ele>
        <time>2018-07-22T08:20:19.000Z</time>
      </trkpt>
      <trkpt lat="42.28891" lon="-0.477919">
        <ele>1373.2</ele>
        <time>2018-07-22T08:20:20.000Z</time>
      </trkpt>
      <trkpt lat="42.288912" lon="-0.47793">
        <ele>1373.5</ele>
        <time>2018-07-22T08:20:21.000Z</time>
      </trkpt>
      <trkpt lat="42.288915" lon="-0.47794">
        <ele>1373.7</ele>
        <time>2018-07-22T08:20:22.000Z</time>
      </trkpt>
      <trkpt lat="42.28892" lon="-0.477951">
        <ele>1373.9</ele>
        <time>2018-07-22T08:20:23.000Z</time>
      </trkpt>
      <trkpt lat="42.288925" lon="-0.477962">
        <ele>1374.2</ele>
        <time>2018-07-22T08:20:24.000Z</time>
      </trkpt>
      <trkpt lat="42.288931" lon="-0.477972">
        <ele>1374.4</ele>
        <time>2018-07-22T08:20:25.000Z</time>
      </trkpt>
      <trkpt lat="42.288938" lon="-0.477982">
        <ele>1374.5</ele>
        <time>2018-07-22T08:20:26.000Z</time>
      </trkpt>
      <trkpt lat="42.288945" lon="-0.477992">
        <ele>1374.7</ele>
        <time>2018-07-22T08:20:27.000Z</time>
      </trkpt>
      <trkpt lat="42.288952" lon="-0.478001">
        <ele>1374.9</ele>
        <time>2018-07-22T08:20:28.000Z</time>
      </trkpt>
      <trkpt lat="42.28896" lon="-0.47801">
        <ele>1375.0</ele>
        <time>2018-07-22T08:20:29.000Z</time>
      </trkpt>
      <trkpt lat="42.288966" lon="-0.478018">
        <ele>1375.1</ele>
        <time>2018-07-22T08:20:30.000Z</time>
      </trkpt>
      <trkpt lat="42.288973" lon="-0.478026">
        <ele>1375.2</ele>
        <time>2018-07-22T08:20:31.000Z</time>
      </trkpt>
      <trkpt lat="42.288979" lon="-0.478033">
        <ele>1375.3</ele>
        <time>2018-07-22T08:20:32.000Z</time>
      </trkpt>
      <trkpt lat="42.288984" lon="-0.478039">
        <ele>1375.4</ele>
        <time>2018-07-22T08:20:33.000Z</time>
      </trkpt>
      <trkpt lat="42.288989" lon="-0.478045">
        <ele>1375.5</ele>
        <time>2018-07-22T08:20:34.000Z</time>
      </trkpt>
      <trkpt lat="42.288993" lon="-0.47805">
        <ele>1375.6</ele>
        <time>2018-07-22T08:20:35.000Z</time>
      </trkpt>
      <trkpt lat="42.288997" lon="-0.478055">
        <ele>1375.6</ele>
        <time>2018-07-22T08:20:36.000Z</time>
      </trkpt>
      <trkpt lat="42.288999" lon="-0.478058">
        <ele>1375.7</ele>
        <time>2018-07-22T08:20:37.000Z</time>
      </trkpt>
      <trkpt lat="42.289001" lon="-0.478061">
        <ele>1375.7</ele>
        <time>2018-07-22T08:20:38.000Z</time>
      </trkpt>
      <trkpt lat="42.289002" lon="-0.478064">
        <ele>1375.8</ele>
        <time>2018-07-22T08:20:39.000Z</time>
      </trkpt>
      <trkpt lat="42.289003" lon="-0.478065">
        <ele>1375.8</ele>
        <time>2018-07-22T08:20:40.000Z</time>
      </trkpt>
      <trkpt lat="42.289002" lon="-0.478066">
        <ele>1375.9</ele>
        <time>2018-07-22T08:20:41.000Z</time>
      </trkpt>
      <trkpt lat="42.289" lon="-0.478066">
        <ele>1375.9</ele>
        <time>2018-07-22T08:22:28.000Z</time>
      </trkpt>
      <trkpt lat="42.288998" lon="-0.478065">
        <ele>1375.9</ele>
        <time>2018-07-22T08:22:29.000Z</time>
      </trkpt>
      <trkpt lat="42.288995" lon="-0.478064">
        <ele>1376.0</ele>
        <time>2018-07-22T08:22:30.000Z</time>
      </trkpt>
      <trkpt lat="42.288992" lon="-0.478063">
        <ele>1376.0</ele>
        <time>2018-07-22T08:22:31.000Z</time>
      </trkpt>
      <trkpt lat="42.28899" lon="-0.478062">
        <ele>1376.0</ele>
        <time>2018-07-22T08:22:32.000Z</time>
      </trkpt>
      <trkpt lat="42.288988" lon="-0.478062">
        <ele>1376.0</ele>
        <time>2018-07-22T08:22:33.000Z</time>
      </trkpt>
      <trkpt lat="42.288986" lon="-0.478062">
        <ele>1376.1</ele>
        <time>2018-07-22T08:22:34.000Z</time>
      </trkpt>
      <trkpt lat="42.288985" lon="-0.478063">
        <ele>1376.1</ele>
        <time>2018-07-22T08:22:35.000Z</time>
      </trkpt>
      <trkpt lat="42.288985" lon="-0.478064">
        <ele>1376.2</ele>
        <time>2018-07-22T08:22:36.000Z</time>
      </trkpt>
      <trkpt lat="42.288984" lon="-0.478064">
        <ele>1376.2</ele>
        <time>2018-07-22T08:22:37.000Z</time>
      </trkpt>
      <trkpt lat="42.288984" lon="-0.478065">
        <ele>1376.2</ele>
        <time>2018-07-22T08:22:38.000Z</time>
      </trkpt>
      <trkpt lat="42.288983" lon="-0.478066">
        <ele>1376.3</ele>
        <time>2018-07-22T08:22:39.000Z</time>
      </trkpt>
      <trkpt lat="42.28898" lon="-0.478065">
        <ele>1376.3</ele>
        <time>2018-07-22T08:22:40.000Z</time>
      </trkpt>
      <trkpt lat="42.288975" lon="-0.478065">
        <ele>1376.4</ele>
        <time>2018-07-22T08:22:41.000Z</time>
      </trkpt>
      <trkpt lat="42.288968" lon="-0.478063">
        <ele>1376.5</ele>
        <time>2018-07-22T08:22:42.000Z</time>
      </trkpt>
      <trkpt lat="42.288958" lon="-0.478061">
        <ele>1376.6</ele>
        <time>2018-07-22T08:22:43.000Z</time>
      </trkpt>
      <trkpt lat="42.288947" lon="-0.478059">
        <ele>1376.7</ele>
        <time>2018-07-22T08:22:44.000Z</time>
      </trkpt>
      <trkpt lat="42.288938" lon="-0.478059">
        <ele>1376.9</ele>
        <time>2018-07-22T08:22:45.000Z</time>
      </trkpt>
      <trkpt lat="42.288929" lon="-0.478062">
        <ele>1377.2</ele>
        <time>2018-07-22T08:22:46.000Z</time>
      </trkpt>
      <trkpt lat="42.288922" lon="-0.478065">
        <ele>1377.4</ele>
        <time>2018-07-22T08:22:47.000Z</time>
      </trkpt>
      <trkpt lat="42.288915" lon="-0.478068">
        <ele>1377.6</ele>
        <time>2018-07-22T08:22:48.000Z</time>
      </trkpt>
      <trkpt lat="42.28891" lon="-0.478071">
        <ele>1377.8</ele>
        <time>2018-07-22T08:22:49.000Z</time>
      </trkpt>
      <trkpt lat="42.288906" lon="-0.478071">
        <ele>1377.9</ele>
        <time>2018-07-22T08:22:50.000Z</time>
      </trkpt>
      <trkpt lat="42.288903" lon="-0.478071">
        <ele>1378.0</ele>
        <time>2018-07-22T08:22:51.000Z</time>
      </trkpt>
      <trkpt lat="42.288898" lon="-0.478071">
        <ele>1378.1</ele>
        <time>2018-07-22T08:22:52.000Z</time>
      </trkpt>
      <trkpt lat="42.28889" lon="-0.478073">
        <ele>1378.3</ele>
        <time>2018-07-22T08:22:53.000Z</time>
      </trkpt>
      <trkpt lat="42.288883" lon="-0.478076">
        <ele>1378.5</ele>
        <time>2018-07-22T08:22:54.000Z</time>
      </trkpt>
      <trkpt lat="42.288876" lon="-0.478076">
        <ele>1378.7</ele>
        <time>2018-07-22T08:22:55.000Z</time>
      </trkpt>
      <trkpt lat="42.288871" lon="-0.478077">
        <ele>1378.8</ele>
        <time>2018-07-22T08:22:56.000Z</time>
      </trkpt>
      <trkpt lat="42.288867" lon="-0.478077">
        <ele>1378.9</ele>
        <time>2018-07-22T08:22:57.000Z</time>
      </trkpt>
      <trkpt lat="42.288864" lon="-0.478077">
        <ele>1378.9</ele>
        <time>2018-07-22T08:22:58.000Z</time>
      </trkpt>
      <trkpt lat="42.288861" lon="-0.478077">
        <ele>1379.0</ele>
        <time>2018-07-22T08:22:59.000Z</time>
      </trkpt>
      <trkpt lat="42.288859" lon="-0.478077">
        <ele>1379.0</ele>
        <time>2018-07-22T08:23:00.000Z</time>
      </trkpt>
      <trkpt lat="42.288856" lon="-0.478077">
        <ele>1379.1</ele>
        <time>2018-07-22T08:23:01.000Z</time>
      </trkpt>
      <trkpt lat="42.288853" lon="-0.478078">
        <ele>1379.2</ele>
        <time>2018-07-22T08:23:02.000Z</time>
      </trkpt>
      <trkpt lat="42.288848" lon="-0.478077">
        <ele>1379.2</ele>
        <time>2018-07-22T08:23:03.000Z</time>
      </trkpt>
      <trkpt lat="42.288838" lon="-0.478075">
        <ele>1379.4</ele>
        <time>2018-07-22T08:23:04.000Z</time>
      </trkpt>
      <trkpt lat="42.28883" lon="-0.47807">
        <ele>1379.4</ele>
        <time>2018-07-22T08:23:05.000Z</time>
      </trkpt>
      <trkpt lat="42.288822" lon="-0.478065">
        <ele>1379.4</ele>
        <time>2018-07-22T08:23:06.000Z</time>
      </trkpt>
      <trkpt lat="42.288813" lon="-0.478061">
        <ele>1379.4</ele>
        <time>2018-07-22T08:23:07.000Z</time>
      </trkpt>
      <trkpt lat="42.288805" lon="-0.478058">
        <ele>1379.5</ele>
        <time>2018-07-22T08:23:08.000Z</time>
      </trkpt>
      <trkpt lat="42.288796" lon="-0.478057">
        <ele>1379.6</ele>
        <time>2018-07-22T08:23:09.000Z</time>
      </trkpt>
      <trkpt lat="42.288789" lon="-0.478056">
        <ele>1379.7</ele>
        <time>2018-07-22T08:23:10.000Z</time>
      </trkpt>
      <trkpt lat="42.288782" lon="-0.478057">
        <ele>1379.9</ele>
        <time>2018-07-22T08:23:11.000Z</time>
      </trkpt>
      <trkpt lat="42.288776" lon="-0.478058">
        <ele>1380.1</ele>
        <time>2018-07-22T08:23:12.000Z</time>
      </trkpt>
      <trkpt lat="42.288772" lon="-0.47806">
        <ele>1380.2</ele>
        <time>2018-07-22T08:23:13.000Z</time>
      </trkpt>
      <trkpt lat="42.288768" lon="-0.478062">
        <ele>1380.3</ele>
        <time>2018-07-22T08:23:14.000Z</time>
      </trkpt>
      <trkpt lat="42.288765" lon="-0.478064">
        <ele>1380.5</ele>
        <time>2018-07-22T08:23:15.000Z</time>
      </trkpt>
      <trkpt lat="42.288763" lon="-0.478065">
        <ele>1380.5</ele>
        <time>2018-07-22T08:23:16.000Z</time>
      </trkpt>
      <trkpt lat="42.288761" lon="-0.478066">
        <ele>1380.6</ele>
        <time>2018-07-22T08:23:17.000Z</time>
      </trkpt>
      <trkpt lat="42.28876" lon="-0.478066">
        <ele>1380.6</ele>
        <time>2018-07-22T08:23:18.000Z</time>
      </trkpt>
      <trkpt lat="42.288759" lon="-0.478065">
        <ele>1380.6</ele>
        <time>2018-07-22T08:23:19.000Z</time>
      </trkpt>
      <trkpt lat="42.288758" lon="-0.478065">
        <ele>1380.6</ele>
        <time>2018-07-22T08:23:20.000Z</time>
      </trkpt>
      <trkpt lat="42.288755" lon="-0.478065">
        <ele>1380.7</ele>
        <time>2018-07-22T08:23:21.000Z</time>
      </trkpt>
      <trkpt lat="42.288752" lon="-0.478066">
        <ele>1380.8</ele>
        <time>2018-07-22T08:23:22.000Z</time>
      </trkpt>
      <trkpt lat="42.288748" lon="-0.478066">
        <ele>1380.9</ele>
        <time>2018-07-22T08:23:23.000Z</time>
      </trkpt>
      <trkpt lat="42.288744" lon="-0.478064">
        <ele>1380.9</ele>
        <time>2018-07-22T08:23:24.000Z</time>
      </trkpt>
      <trkpt lat="42.288734" lon="-0.478062">
        <ele>1381.0</ele>
        <time>2018-07-22T08:23:25.000Z</time>
      </trkpt>
      <trkpt lat="42.288726" lon="-0.47806">
        <ele>1381.1</ele>
        <time>2018-07-22T08:23:26.000Z</time>
      </trkpt>
      <trkpt lat="42.288718" lon="-0.47806">
        <ele>1381.3</ele>
        <time>2018-07-22T08:23:27.000Z</time>
      </trkpt>
      <trkpt lat="42.28871" lon="-0.478059">
        <ele>1381.4</ele>
        <time>2018-07-22T08:23:28.000Z</time>
      </trkpt>
      <trkpt lat="42.288704" lon="-0.478058">
        <ele>1381.5</ele>
        <time>2018-07-22T08:23:29.000Z</time>
      </trkpt>
      <trkpt lat="42.288699" lon="-0.478057">
        <ele>1381.5</ele>
        <time>2018-07-22T08:23:30.000Z</time>
      </trkpt>
      <trkpt lat="42.288695" lon="-0.478056">
        <ele>1381.6</ele>
        <time>2018-07-22T08:23:31.000Z</time>
      </trkpt>
      <trkpt lat="42.288691" lon="-0.478056">
        <ele>1381.7</ele>
        <time>2018-07-22T08:23:32.000Z</time>
      </trkpt>
      <trkpt lat="42.288688" lon="-0.478056">
        <ele>1381.7</ele>
        <time>2018-07-22T08:23:33.000Z</time>
      </trkpt>
      <trkpt lat="42.288685" lon="-0.478057">
        <ele>1381.8</ele>
        <time>2018-07-22T08:23:34.000Z</time>
      </trkpt>
      <trkpt lat="42.288682" lon="-0.478058">
        <ele>1381.9</ele>
        <time>2018-07-22T08:23:35.000Z</time>
      </trkpt>
      <trkpt lat="42.288678" lon="-0.478059">
        <ele>1382.0</ele>
        <time>2018-07-22T08:23:36.000Z</time>
      </trkpt>
      <trkpt lat="42.288671" lon="-0.478062">
        <ele>1382.2</ele>
        <time>2018-07-22T08:23:37.000Z</time>
      </trkpt>
      <trkpt lat="42.288665" lon="-0.478063">
        <ele>1382.4</ele>
        <time>2018-07-22T08:23:38.000Z</time>
      </trkpt>
      <trkpt lat="42.28866" lon="-0.478064">
        <ele>1382.5</ele>
        <time>2018-07-22T08:23:39.000Z</time>
      </trkpt>
      <trkpt lat="42.288656" lon="-0.478065">
        <ele>1382.6</ele>
        <time>2018-07-22T08:23:40.000Z</time>
      </trkpt>
      <trkpt lat="42.288652" lon="-0.478065">
        <ele>1382.7</ele>
        <time>2018-07-22T08:23:41.000Z</time>
      </trkpt>
      <trkpt lat="42.288649" lon="-0.478066">
        <ele>1382.8</ele>
        <time>2018-07-22T08:23:42.000Z</time>
      </trkpt>
      <trkpt lat="42.288646" lon="-0.478067">
        <ele>1382.9</ele>
        <time>2018-07-22T08:23:43.000Z</time>
      </trkpt>
      <trkpt lat="42.288644" lon="-0.478067">
        <ele>1382.9</ele>
        <time>2018-07-22T08:23:44.000Z</time>
      </trkpt>
      <trkpt lat="42.288642" lon="-0.478068">
        <ele>1383.0</ele>
        <time>2018-07-22T08:23:45.000Z</time>
      </trkpt>
      <trkpt lat="42.28864" lon="-0.478068">
        <ele>1383.0</ele>
        <time>2018-07-22T08:23:46.000Z</time>
      </trkpt>
      <trkpt lat="42.288638" lon="-0.478069">
        <ele>1383.1</ele>
        <time>2018-07-22T08:23:47.000Z</time>
      </trkpt>
      <trkpt lat="42.288637" lon="-0.478069">
        <ele>1383.1</ele>
        <time>2018-07-22T08:23:48.000Z</time>
      </trkpt>
      <trkpt lat="42.288634" lon="-0.47807">
        <ele>1383.2</ele>
        <time>2018-07-22T08:23:49.000Z</time>
      </trkpt>
      <trkpt lat="42.288632" lon="-0.47807">
        <ele>1383.3</ele>
        <time>2018-07-22T08:23:50.000Z</time>
      </trkpt>
      <trkpt lat="42.288628" lon="-0.47807">
        <ele>1383.3</ele>
        <time>2018-07-22T08:23:51.000Z</time>
      </trkpt>
      <trkpt lat="42.288624" lon="-0.47807">
        <ele>1383.4</ele>
        <time>2018-07-22T08:23:52.000Z</time>
      </trkpt>
      <trkpt lat="42.288615" lon="-0.478073">
        <ele>1383.7</ele>
        <time>2018-07-22T08:23:53.000Z</time>
      </trkpt>
      <trkpt lat="42.288611" lon="-0.478075">
        <ele>1383.8</ele>
        <time>2018-07-22T08:23:54.000Z</time>
      </trkpt>
      <trkpt lat="42.288608" lon="-0.478077">
        <ele>1383.9</ele>
        <time>2018-07-22T08:23:55.000Z</time>
      </trkpt>
      <trkpt lat="42.288605" lon="-0.478079">
        <ele>1384.1</ele>
        <time>2018-07-22T08:23:56.000Z</time>
      </trkpt>
      <trkpt lat="42.288602" lon="-0.47808">
        <ele>1384.1</ele>
        <time>2018-07-22T08:23:57.000Z</time>
      </trkpt>
      <trkpt lat="42.288599" lon="-0.478081">
        <ele>1384.2</ele>
        <time>2018-07-22T08:23:58.000Z</time>
      </trkpt>
      <trkpt lat="42.288596" lon="-0.478083">
        <ele>1384.4</ele>
        <time>2018-07-22T08:23:59.000Z</time>
      </trkpt>
      <trkpt lat="42.288594" lon="-0.478084">
        <ele>1384.4</ele>
        <time>2018-07-22T08:24:00.000Z</time>
      </trkpt>
      <trkpt lat="42.288592" lon="-0.478084">
        <ele>1384.5</ele>
        <time>2018-07-22T08:24:01.000Z</time>
      </trkpt>
      <trkpt lat="42.28859" lon="-0.478085">
        <ele>1384.5</ele>
        <time>2018-07-22T08:24:02.000Z</time>
      </trkpt>
      <trkpt lat="42.288588" lon="-0.478086">
        <ele>1384.6</ele>
        <time>2018-07-22T08:24:03.000Z</time>
      </trkpt>
      <trkpt lat="42.288587" lon="-0.478086">
        <ele>1384.6</ele>
        <time>2018-07-22T08:24:04.000Z</time>
      </trkpt>
      <trkpt lat="42.288586" lon="-0.478087">
        <ele>1384.7</ele>
        <time>2018-07-22T08:24:05.000Z</time>
      </trkpt>
      <trkpt lat="42.288585" lon="-0.478087">
        <ele>1384.7</ele>
        <time>2018-07-22T08:24:06.000Z</time>
      </trkpt>
      <trkpt lat="42.288584" lon="-0.478088">
        <ele>1384.7</ele>
        <time>2018-07-22T08:24:07.000Z</time>
      </trkpt>
      <trkpt lat="42.288582" lon="-0.478089">
        <ele>1384.8</ele>
        <time>2018-07-22T08:24:08.000Z</time>
      </trkpt>
      <trkpt lat="42.288581" lon="-0.478089">
        <ele>1384.8</ele>
        <time>2018-07-22T08:24:09.000Z</time>
      </trkpt>
      <trkpt lat="42.288579" lon="-0.47809">
        <ele>1384.9</ele>
        <time>2018-07-22T08:24:10.000Z</time>
      </trkpt>
      <trkpt lat="42.288574" lon="-0.47809">
        <ele>1385.0</ele>
        <time>2018-07-22T08:24:11.000Z</time>
      </trkpt>
      <trkpt lat="42.288565" lon="-0.47809">
        <ele>1385.2</ele>
        <time>2018-07-22T08:24:12.000Z</time>
      </trkpt>
      <trkpt lat="42.288558" lon="-0.478088">
        <ele>1385.2</ele>
        <time>2018-07-22T08:24:13.000Z</time>
      </trkpt>
      <trkpt lat="42.288553" lon="-0.478085">
        <ele>1385.3</ele>
        <time>2018-07-22T08:24:14.000Z</time>
      </trkpt>
      <trkpt lat="42.288546" lon="-0.478083">
        <ele>1385.3</ele>
        <time>2018-07-22T08:24:15.000Z</time>
      </trkpt>
      <trkpt lat="42.288538" lon="-0.478082">
        <ele>1385.5</ele>
        <time>2018-07-22T08:24:16.000Z</time>
      </trkpt>
      <trkpt lat="42.288531" lon="-0.478081">
        <ele>1385.6</ele>
        <time>2018-07-22T08:24:17.000Z</time>
      </trkpt>
      <trkpt lat="42.288526" lon="-0.47808">
        <ele>1385.6</ele>
        <time>2018-07-22T08:24:18.000Z</time>
      </trkpt>
      <trkpt lat="42.288522" lon="-0.478079">
        <ele>1385.7</ele>
        <time>2018-07-22T08:24:19.000Z</time>
      </trkpt>
      <trkpt lat="42.288519" lon="-0.478079">
        <ele>1385.7</ele>
        <time>2018-07-22T08:24:20.000Z</time>
      </trkpt>
      <trkpt lat="42.288516" lon="-0.478078">
        <ele>1385.8</ele>
        <time>2018-07-22T08:24:21.000Z</time>
      </trkpt>
      <trkpt lat="42.288514" lon="-0.478077">
        <ele>1385.8</ele>
        <time>2018-07-22T08:24:22.000Z</time>
      </trkpt>
      <trkpt lat="42.288512" lon="-0.478077">
        <ele>1385.8</ele>
        <time>2018-07-22T08:24:23.000Z</time>
      </trkpt>
      <trkpt lat="42.28851" lon="-0.478076">
        <ele>1385.8</ele>
        <time>2018-07-22T08:24:24.000Z</time>
      </trkpt>
      <trkpt lat="42.288508" lon="-0.478076">
        <ele>1385.9</ele>
        <time>2018-07-22T08:24:25.000Z</time>
      </trkpt>
      <trkpt lat="42.288506" lon="-0.478076">
        <ele>1385.9</ele>
        <time>2018-07-22T08:24:26.000Z</time>
      </trkpt>
      <trkpt lat="42.288503" lon="-0.478076">
        <ele>1386.0</ele>
        <time>2018-07-22T08:24:27.000Z</time>
      </trkpt>
      <trkpt lat="42.288499" lon="-0.478076">
        <ele>1386.0</ele>
        <time>2018-07-22T08:24:28.000Z</time>
      </trkpt>
      <trkpt lat="42.288492" lon="-0.478076">
        <ele>1386.2</ele>
        <time>2018-07-22T08:24:29.000Z</time>
      </trkpt>
      <trkpt lat="42.288483" lon="-0.478078">
        <ele>1386.4</ele>
        <time>2018-07-22T08:24:30.000Z</time>
      </trkpt>
      <trkpt lat="42.288476" lon="-0.47808">
        <ele>1386.6</ele>
        <time>2018-07-22T08:24:31.000Z</time>
      </trkpt>
      <trkpt lat="42.288471" lon="-0.478081">
        <ele>1386.7</ele>
        <time>2018-07-22T08:24:32.000Z</time>
      </trkpt>
      <trkpt lat="42.288468" lon="-0.478081">
        <ele>1386.8</ele>
        <time>2018-07-22T08:24:33.000Z</time>
      </trkpt>
      <trkpt lat="42.288465" lon="-0.478082">
        <ele>1386.9</ele>
        <time>2018-07-22T08:24:34.000Z</time>
      </trkpt>
      <trkpt lat="42.288462" lon="-0.478083">
        <ele>1387.0</ele>
        <time>2018-07-22T08:24:35.000Z</time>
      </trkpt>
      <trkpt lat="42.28846" lon="-0.478083">
        <ele>1387.0</ele>
        <time>2018-07-22T08:24:36.000Z</time>
      </trkpt>
      <trkpt lat="42.288459" lon="-0.478083">
        <ele>1387.0</ele>
        <time>2018-07-22T08:24:37.000Z</time>
      </trkpt>
      <trkpt lat="42.288457" lon="-0.478083">
        <ele>1387.1</ele>
        <time>2018-07-22T08:24:38.000Z</time>
      </trkpt>
      <trkpt lat="42.288455" lon="-0.478084">
        <ele>1387.1</ele>
        <time>2018-07-22T08:24:39.000Z</time>
      </trkpt>
      <trkpt lat="42.288452" lon="-0.478084">
        <ele>1387.2</ele>
        <time>2018-07-22T08:24:40.000Z</time>
      </trkpt>
      <trkpt lat="42.288449" lon="-0.478085">
        <ele>1387.3</ele>
        <time>2018-07-22T08:24:41.000Z</time>
      </trkpt>
      <trkpt lat="42.288445" lon="-0.478086">
        <ele>1387.4</ele>
        <time>2018-07-22T08:24:42.000Z</time>
      </trkpt>
      <trkpt lat="42.28844" lon="-0.478088">
        <ele>1387.6</ele>
        <time>2018-07-22T08:24:43.000Z</time>
      </trkpt>
      <trkpt lat="42.288434" lon="-0.47809">
        <ele>1387.7</ele>
        <time>2018-07-22T08:24:44.000Z</time>
      </trkpt>
      <trkpt lat="42.288426" lon="-0.478094">
        <ele>1388.0</ele>
        <time>2018-07-22T08:24:45.000Z</time>
      </trkpt>
      <trkpt lat="42.288421" lon="-0.478096">
        <ele>1388.2</ele>
        <time>2018-07-22T08:24:46.000Z</time>
      </trkpt>
      <trkpt lat="42.288418" lon="-0.478096">
        <ele>1388.2</ele>
        <time>2018-07-22T08:24:47.000Z</time>
      </trkpt>
      <trkpt lat="42.288415" lon="-0.478097">
        <ele>1388.3</ele>
        <time>2018-07-22T08:24:48.000Z</time>
      </trkpt>
      <trkpt lat="42.288413" lon="-0.478097">
        <ele>1388.4</ele>
        <time>2018-07-22T08:24:49.000Z</time>
      </trkpt>
      <trkpt lat="42.288411" lon="-0.478097">
        <ele>1388.4</ele>
        <time>2018-07-22T08:24:50.000Z</time>
      </trkpt>
      <trkpt lat="42.288409" lon="-0.478097">
        <ele>1388.4</ele>
        <time>2018-07-22T08:24:51.000Z</time>
      </trkpt>
      <trkpt lat="42.288407" lon="-0.478097">
        <ele>1388.5</ele>
        <time>2018-07-22T08:24:52.000Z</time>
      </trkpt>
      <trkpt lat="42.288405" lon="-0.478098">
        <ele>1388.5</ele>
        <time>2018-07-22T08:24:53.000Z</time>
      </trkpt>
      <trkpt lat="42.288402" lon="-0.478098">
        <ele>1388.6</ele>
        <time>2018-07-22T08:24:54.000Z</time>
      </trkpt>
      <trkpt lat="42.288399" lon="-0.478099">
        <ele>1388.7</ele>
        <time>2018-07-22T08:24:55.000Z</time>
      </trkpt>
      <trkpt lat="42.288396" lon="-0.478099">
        <ele>1388.7</ele>
        <time>2018-07-22T08:24:56.000Z</time>
      </trkpt>
      <trkpt lat="42.288394" lon="-0.4781">
        <ele>1388.8</ele>
        <time>2018-07-22T08:24:57.000Z</time>
      </trkpt>
      <trkpt lat="42.288392" lon="-0.4781">
        <ele>1388.9</ele>
        <time>2018-07-22T08:24:58.000Z</time>
      </trkpt>
      <trkpt lat="42.288388" lon="-0.478101">
        <ele>1389.0</ele>
        <time>2018-07-22T08:24:59.000Z</time>
      </trkpt>
      <trkpt lat="42.288382" lon="-0.478102">
        <ele>1389.1</ele>
        <time>2018-07-22T08:25:00.000Z</time>
      </trkpt>
      <trkpt lat="42.288378" lon="-0.478104">
        <ele>1389.2</ele>
        <time>2018-07-22T08:25:01.000Z</time>
      </trkpt>
      <trkpt lat="42.288375" lon="-0.478106">
        <ele>1389.4</ele>
        <time>2018-07-22T08:25:02.000Z</time>
      </trkpt>
      <trkpt lat="42.288373" lon="-0.478108">
        <ele>1389.5</ele>
        <time>2018-07-22T08:25:03.000Z</time>
      </trkpt>
      <trkpt lat="42.288371" lon="-0.478109">
        <ele>1389.5</ele>
        <time>2018-07-22T08:25:04.000Z</time>
      </trkpt>
      <trkpt lat="42.28837" lon="-0.47811">
        <ele>1389.6</ele>
        <time>2018-07-22T08:25:05.000Z</time>
      </trkpt>
      <trkpt lat="42.288369" lon="-0.478111">
        <ele>1389.6</ele>
        <time>2018-07-22T08:25:06.000Z</time>
      </trkpt>
      <trkpt lat="42.288368" lon="-0.478111">
        <ele>1389.7</ele>
        <time>2018-07-22T08:25:07.000Z</time>
      </trkpt>
      <trkpt lat="42.288367" lon="-0.478112">
        <ele>1389.7</ele>
        <time>2018-07-22T08:25:08.000Z</time>
      </trkpt>
      <trkpt lat="42.288366" lon="-0.478112">
        <ele>1389.7</ele>
        <time>2018-07-22T08:25:09.000Z</time>
      </trkpt>
      <trkpt lat="42.288365" lon="-0.478113">
        <ele>1389.8</ele>
        <time>2018-07-22T08:25:10.000Z</time>
      </trkpt>
      <trkpt lat="42.288364" lon="-0.478113">
        <ele>1389.8</ele>
        <time>2018-07-22T08:25:11.000Z</time>
      </trkpt>
      <trkpt lat="42.288363" lon="-0.478114">
        <ele>1389.8</ele>
        <time>2018-07-22T08:25:12.000Z</time>
      </trkpt>
      <trkpt lat="42.288362" lon="-0.478114">
        <ele>1389.9</ele>
        <time>2018-07-22T08:25:13.000Z</time>
      </trkpt>
      <trkpt lat="42.288361" lon="-0.478115">
        <ele>1389.9</ele>
        <time>2018-07-22T08:25:14.000Z</time>
      </trkpt>
      <trkpt lat="42.28836" lon="-0.478115">
        <ele>1389.9</ele>
        <time>2018-07-22T08:25:15.000Z</time>
      </trkpt>
      <trkpt lat="42.288359" lon="-0.478116">
        <ele>1390.0</ele>
        <time>2018-07-22T08:25:16.000Z</time>
      </trkpt>
      <trkpt lat="42.288358" lon="-0.478116">
        <ele>1390.0</ele>
        <time>2018-07-22T08:25:17.000Z</time>
      </trkpt>
      <trkpt lat="42.288357" lon="-0.478116">
        <ele>1390.0</ele>
        <time>2018-07-22T08:25:18.000Z</time>
      </trkpt>
      <trkpt lat="42.288356" lon="-0.478117">
        <ele>1390.1</ele>
        <time>2018-07-22T08:25:19.000Z</time>
      </trkpt>
      <trkpt lat="42.288355" lon="-0.478117">
        <ele>1390.1</ele>
        <time>2018-07-22T08:25:20.000Z</time>
      </trkpt>
      <trkpt lat="42.288354" lon="-0.478118">
        <ele>1390.1</ele>
        <time>2018-07-22T08:25:21.000Z</time>
      </trkpt>
      <trkpt lat="42.288353" lon="-0.478118">
        <ele>1390.2</ele>
        <time>2018-07-22T08:25:22.000Z</time>
      </trkpt>
      <trkpt lat="42.288353" lon="-0.478118">
        <ele>1390.2</ele>
        <time>2018-07-22T08:25:23.000Z</time>
      </trkpt>
      <trkpt lat="42.288352" lon="-0.478119">
        <ele>1390.2</ele>
        <time>2018-07-22T08:25:24.000Z</time>
      </trkpt>
      <trkpt lat="42.288352" lon="-0.478119">
        <ele>1390.2</ele>
        <time>2018-07-22T08:25:25.000Z</time>
      </trkpt>
      <trkpt lat="42.288352" lon="-0.478119">
        <ele>1390.2</ele>
        <time>2018-07-22T08:25:26.000Z</time>
      </trkpt>
      <trkpt lat="42.288351" lon="-0.478119">
        <ele>1390.2</ele>
        <time>2018-07-22T08:25:27.000Z</time>
      </trkpt>
      <trkpt lat="42.288351" lon="-0.478119">
        <ele>1390.2</ele>
        <time>2018-07-22T08:25:28.000Z</time>
      </trkpt>
      <trkpt lat="42.288349" lon="-0.47812">
        <ele>1390.3</ele>
        <time>2018-07-22T08:25:29.000Z</time>
      </trkpt>
      <trkpt lat="42.288346" lon="-0.478122">
        <ele>1390.4</ele>
        <time>2018-07-22T08:25:30.000Z</time>
      </trkpt>
      <trkpt lat="42.288341" lon="-0.478125">
        <ele>1390.6</ele>
        <time>2018-07-22T08:25:31.000Z</time>
      </trkpt>
      <trkpt lat="42.288335" lon="-0.47813">
        <ele>1390.9</ele>
        <time>2018-07-22T08:25:32.000Z</time>
      </trkpt>
      <trkpt lat="42.288331" lon="-0.478133">
        <ele>1391.0</ele>
        <time>2018-07-22T08:25:33.000Z</time>
      </trkpt>
      <trkpt lat="42.288326" lon="-0.478137">
        <ele>1391.0</ele>
        <time>2018-07-22T08:25:34.000Z</time>
      </trkpt>
      <trkpt lat="42.288323" lon="-0.478139">
        <ele>1391.1</ele>
        <time>2018-07-22T08:25:35.000Z</time>
      </trkpt>
      <trkpt lat="42.288322" lon="-0.47814">
        <ele>1391.1</ele>
        <time>2018-07-22T08:25:36.000Z</time>
      </trkpt>
      <trkpt lat="42.288322" lon="-0.47814">
        <ele>1391.1</ele>
        <time>2018-07-22T08:25:37.000Z</time>
      </trkpt>
      <trkpt lat="42.288321" lon="-0.47814">
        <ele>1391.1</ele>
        <time>2018-07-22T08:25:38.000Z</time>
      </trkpt>
      <trkpt lat="42.288321" lon="-0.47814">
        <ele>1391.1</ele>
        <time>2018-07-22T08:25:39.000Z</time>
      </trkpt>
      <trkpt lat="42.28832" lon="-0.478141">
        <ele>1391.1</ele>
        <time>2018-07-22T08:25:40.000Z</time>
      </trkpt>
      <trkpt lat="42.28832" lon="-0.478141">
        <ele>1391.1</ele>
        <time>2018-07-22T08:25:41.000Z</time>
      </trkpt>
      <trkpt lat="42.288319" lon="-0.478141">
        <ele>1391.1</ele>
        <time>2018-07-22T08:25:42.000Z</time>
      </trkpt>
      <trkpt lat="42.288318" lon="-0.478142">
        <ele>1391.1</ele>
        <time>2018-07-22T08:25:43.000Z</time>
      </trkpt>
      <trkpt lat="42.288318" lon="-0.478142">
        <ele>1391.1</ele>
        <time>2018-07-22T08:25:44.000Z</time>
      </trkpt>
      <trkpt lat="42.288317" lon="-0.478143">
        <ele>1391.1</ele>
        <time>2018-07-22T08:25:45.000Z</time>
      </trkpt>
      <trkpt lat="42.288317" lon="-0.478143">
        <ele>1391.1</ele>
        <time>2018-07-22T08:25:46.000Z</time>
      </trkpt>
      <trkpt lat="42.288316" lon="-0.478143">
        <ele>1391.1</ele>
        <time>2018-07-22T08:25:47.000Z</time>
      </trkpt>
      <trkpt lat="42.288316" lon="-0.478143">
        <ele>1391.1</ele>
        <time>2018-07-22T08:25:48.000Z</time>
      </trkpt>
      <trkpt lat="42.288316" lon="-0.478143">
        <ele>1391.1</ele>
        <time>2018-07-22T08:25:49.000Z</time>
      </trkpt>
      <trkpt lat="42.288315" lon="-0.478143">
        <ele>1391.1</ele>
        <time>2018-07-22T08:25:50.000Z</time>
      </trkpt>
      <trkpt lat="42.288313" lon="-0.478144">
        <ele>1391.1</ele>
        <time>2018-07-22T08:25:51.000Z</time>
      </trkpt>
      <trkpt lat="42.28831" lon="-0.478145">
        <ele>1391.1</ele>
        <time>2018-07-22T08:25:52.000Z</time>
      </trkpt>
      <trkpt lat="42.288304" lon="-0.478147">
        <ele>1391.1</ele>
        <time>2018-07-22T08:25:53.000Z</time>
      </trkpt>
      <trkpt lat="42.288297" lon="-0.478151">
        <ele>1391.1</ele>
        <time>2018-07-22T08:25:54.000Z</time>
      </trkpt>
      <trkpt lat="42.28829" lon="-0.47816">
        <ele>1391.3</ele>
        <time>2018-07-22T08:25:55.000Z</time>
      </trkpt>
      <trkpt lat="42.288287" lon="-0.47817">
        <ele>1391.6</ele>
        <time>2018-07-22T08:25:56.000Z</time>
      </trkpt>
      <trkpt lat="42.288285" lon="-0.478181">
        <ele>1391.9</ele>
        <time>2018-07-22T08:25:57.000Z</time>
      </trkpt>
      <trkpt lat="42.288285" lon="-0.478192">
        <ele>1392.2</ele>
        <time>2018-07-22T08:25:58.000Z</time>
      </trkpt>
      <trkpt lat="42.288286" lon="-0.478201">
        <ele>1392.5</ele>
        <time>2018-07-22T08:25:59.000Z</time>
      </trkpt>
      <trkpt lat="42.288289" lon="-0.478208">
        <ele>1392.7</ele>
        <time>2018-07-22T08:26:00.000Z</time>
      </trkpt>
      <trkpt lat="42.288291" lon="-0.478213">
        <ele>1392.9</ele>
        <time>2018-07-22T08:26:01.000Z</time>
      </trkpt>
      <trkpt lat="42.288293" lon="-0.478216">
        <ele>1393.0</ele>
        <time>2018-07-22T08:26:02.000Z</time>
      </trkpt>
      <trkpt lat="42.288294" lon="-0.478218">
        <ele>1393.1</ele>
        <time>2018-07-22T08:26:03.000Z</time>
      </trkpt>
      <trkpt lat="42.288294" lon="-0.47822">
        <ele>1393.1</ele>
        <time>2018-07-22T08:26:04.000Z</time>
      </trkpt>
      <trkpt lat="42.288292" lon="-0.478223">
        <ele>1393.2</ele>
        <time>2018-07-22T08:26:05.000Z</time>
      </trkpt>
      <trkpt lat="42.288289" lon="-0.47823">
        <ele>1393.4</ele>
        <time>2018-07-22T08:26:06.000Z</time>
      </trkpt>
      <trkpt lat="42.288286" lon="-0.478241">
        <ele>1393.7</ele>
        <time>2018-07-22T08:26:07.000Z</time>
      </trkpt>
      <trkpt lat="42.288282" lon="-0.478255">
        <ele>1394.0</ele>
        <time>2018-07-22T08:26:08.000Z</time>
      </trkpt>
      <trkpt lat="42.288278" lon="-0.478269">
        <ele>1394.4</ele>
        <time>2018-07-22T08:26:09.000Z</time>
      </trkpt>
      <trkpt lat="42.288273" lon="-0.478279">
        <ele>1394.7</ele>
        <time>2018-07-22T08:26:10.000Z</time>
      </trkpt>
      <trkpt lat="42.288268" lon="-0.478286">
        <ele>1394.8</ele>
        <time>2018-07-22T08:26:11.000Z</time>
      </trkpt>
      <trkpt lat="42.288263" lon="-0.478292">
        <ele>1394.9</ele>
        <time>2018-07-22T08:26:12.000Z</time>
      </trkpt>
      <trkpt lat="42.288256" lon="-0.478297">
        <ele>1395.0</ele>
        <time>2018-07-22T08:26:13.000Z</time>
      </trkpt>
      <trkpt lat="42.28825" lon="-0.478303">
        <ele>1395.1</ele>
        <time>2018-07-22T08:26:14.000Z</time>
      </trkpt>
      <trkpt lat="42.288243" lon="-0.478311">
        <ele>1395.3</ele>
        <time>2018-07-22T08:26:15.000Z</time>
      </trkpt>
      <trkpt lat="42.288236" lon="-0.478319">
        <ele>1395.4</ele>
        <time>2018-07-22T08:26:16.000Z</time>
      </trkpt>
      <trkpt lat="42.288229" lon="-0.478329">
        <ele>1395.6</ele>
        <time>2018-07-22T08:26:17.000Z</time>
      </trkpt>
      <trkpt lat="42.288222" lon="-0.47834">
        <ele>1395.8</ele>
        <time>2018-07-22T08:26:18.000Z</time>
      </trkpt>
      <trkpt lat="42.288216" lon="-0.478351">
        <ele>1395.9</ele>
        <time>2018-07-22T08:26:19.000Z</time>
      </trkpt>
      <trkpt lat="42.288212" lon="-0.478361">
        <ele>1396.1</ele>
        <time>2018-07-22T08:26:20.000Z</time>
      </trkpt>
      <trkpt lat="42.288208" lon="-0.478372">
        <ele>1396.2</ele>
        <time>2018-07-22T08:26:21.000Z</time>
      </trkpt>
      <trkpt lat="42.288205" lon="-0.478382">
        <ele>1396.4</ele>
        <time>2018-07-22T08:26:22.000Z</time>
      </trkpt>
      <trkpt lat="42.288202" lon="-0.478392">
        <ele>1396.5</ele>
        <time>2018-07-22T08:26:23.000Z</time>
      </trkpt>
      <trkpt lat="42.288199" lon="-0.478403">
        <ele>1396.7</ele>
        <time>2018-07-22T08:26:24.000Z</time>
      </trkpt>
      <trkpt lat="42.288195" lon="-0.478413">
        <ele>1396.9</ele>
        <time>2018-07-22T08:26:25.000Z</time>
      </trkpt>
      <trkpt lat="42.288191" lon="-0.478424">
        <ele>1397.0</ele>
        <time>2018-07-22T08:26:26.000Z</time>
      </trkpt>
      <trkpt lat="42.288185" lon="-0.478435">
        <ele>1397.2</ele>
        <time>2018-07-22T08:26:27.000Z</time>
      </trkpt>
      <trkpt lat="42.288179" lon="-0.478445">
        <ele>1397.3</ele>
        <time>2018-07-22T08:26:28.000Z</time>
      </trkpt>
      <trkpt lat="42.288173" lon="-0.478455">
        <ele>1397.4</ele>
        <time>2018-07-22T08:26:29.000Z</time>
      </trkpt>
      <trkpt lat="42.288166" lon="-0.478465">
        <ele>1397.5</ele>
        <time>2018-07-22T08:26:30.000Z</time>
      </trkpt>
      <trkpt lat="42.288159" lon="-0.478474">
        <ele>1397.6</ele>
        <time>2018-07-22T08:26:31.000Z</time>
      </trkpt>
      <trkpt lat="42.288153" lon="-0.478481">
        <ele>1397.6</ele>
        <time>2018-07-22T08:26:32.000Z</time>
      </trkpt>
      <trkpt lat="42.288146" lon="-0.478488">
        <ele>1397.7</ele>
        <time>2018-07-22T08:26:33.000Z</time>
      </trkpt>
      <trkpt lat="42.28814" lon="-0.478495">
        <ele>1397.7</ele>
        <time>2018-07-22T08:26:34.000Z</time>
      </trkpt>
      <trkpt lat="42.288133" lon="-0.478501">
        <ele>1397.8</ele>
        <time>2018-07-22T08:26:35.000Z</time>
      </trkpt>
      <trkpt lat="42.288125" lon="-0.478508">
        <ele>1397.8</ele>
        <time>2018-07-22T08:26:36.000Z</time>
      </trkpt>
      <trkpt lat="42.288116" lon="-0.478515">
        <ele>1397.8</ele>
        <time>2018-07-22T08:26:37.000Z</time>
      </trkpt>
      <trkpt lat="42.288107" lon="-0.478522">
        <ele>1397.8</ele>
        <time>2018-07-22T08:26:38.000Z</time>
      </trkpt>
      <trkpt lat="42.288098" lon="-0.478531">
        <ele>1397.9</ele>
        <time>2018-07-22T08:26:39.000Z</time>
      </trkpt>
      <trkpt lat="42.288089" lon="-0.478539">
        <ele>1397.9</ele>
        <time>2018-07-22T08:26:40.000Z</time>
      </trkpt>
      <trkpt lat="42.28808" lon="-0.478549">
        <ele>1398.0</ele>
        <time>2018-07-22T08:26:41.000Z</time>
      </trkpt>
      <trkpt lat="42.288072" lon="-0.478559">
        <ele>1398.1</ele>
        <time>2018-07-22T08:26:42.000Z</time>
      </trkpt>
      <trkpt lat="42.288064" lon="-0.47857">
        <ele>1398.2</ele>
        <time>2018-07-22T08:26:43.000Z</time>
      </trkpt>
      <trkpt lat="42.288057" lon="-0.478582">
        <ele>1398.4</ele>
        <time>2018-07-22T08:26:44.000Z</time>
      </trkpt>
      <trkpt lat="42.28805" lon="-0.478593">
        <ele>1398.5</ele>
        <time>2018-07-22T08:26:45.000Z</time>
      </trkpt>
      <trkpt lat="42.288043" lon="-0.478604">
        <ele>1398.6</ele>
        <time>2018-07-22T08:26:46.000Z</time>
      </trkpt>
      <trkpt lat="42.288035" lon="-0.478615">
        <ele>1398.7</ele>
        <time>2018-07-22T08:26:47.000Z</time>
      </trkpt>
      <trkpt lat="42.288026" lon="-0.478625">
        <ele>1398.8</ele>
        <time>2018-07-22T08:26:48.000Z</time>
      </trkpt>
      <trkpt lat="42.288017" lon="-0.478634">
        <ele>1398.8</ele>
        <time>2018-07-22T08:26:49.000Z</time>
      </trkpt>
      <trkpt lat="42.288009" lon="-0.478643">
        <ele>1398.9</ele>
        <time>2018-07-22T08:26:50.000Z</time>
      </trkpt>
      <trkpt lat="42.288001" lon="-0.47865">
        <ele>1398.9</ele>
        <time>2018-07-22T08:26:51.000Z</time>
      </trkpt>
      <trkpt lat="42.287994" lon="-0.478658">
        <ele>1399.0</ele>
        <time>2018-07-22T08:26:52.000Z</time>
      </trkpt>
      <trkpt lat="42.287987" lon="-0.478666">
        <ele>1399.1</ele>
        <time>2018-07-22T08:26:53.000Z</time>
      </trkpt>
      <trkpt lat="42.287978" lon="-0.478674">
        <ele>1399.1</ele>
        <time>2018-07-22T08:26:54.000Z</time>
      </trkpt>
      <trkpt lat="42.287969" lon="-0.478684">
        <ele>1399.2</ele>
        <time>2018-07-22T08:26:55.000Z</time>
      </trkpt>
      <trkpt lat="42.28796" lon="-0.478694">
        <ele>1399.3</ele>
        <time>2018-07-22T08:26:56.000Z</time>
      </trkpt>
      <trkpt lat="42.287951" lon="-0.478705">
        <ele>1399.3</ele>
        <time>2018-07-22T08:26:57.000Z</time>
      </trkpt>
      <trkpt lat="42.287943" lon="-0.478717">
        <ele>1399.5</ele>
        <time>2018-07-22T08:26:58.000Z</time>
      </trkpt>
      <trkpt lat="42.287935" lon="-0.47873">
        <ele>1399.6</ele>
        <time>2018-07-22T08:26:59.000Z</time>
      </trkpt>
      <trkpt lat="42.287928" lon="-0.478744">
        <ele>1399.8</ele>
        <time>2018-07-22T08:27:00.000Z</time>
      </trkpt>
      <trkpt lat="42.287922" lon="-0.478758">
        <ele>1400.0</ele>
        <time>2018-07-22T08:27:01.000Z</time>
      </trkpt>
      <trkpt lat="42.287917" lon="-0.478772">
        <ele>1400.2</ele>
        <time>2018-07-22T08:27:02.000Z</time>
      </trkpt>
      <trkpt lat="42.287912" lon="-0.478786">
        <ele>1400.4</ele>
        <time>2018-07-22T08:27:03.000Z</time>
      </trkpt>
      <trkpt lat="42.287908" lon="-0.4788">
        <ele>1400.6</ele>
        <time>2018-07-22T08:27:04.000Z</time>
      </trkpt>
      <trkpt lat="42.287904" lon="-0.478813">
        <ele>1400.8</ele>
        <time>2018-07-22T08:27:05.000Z</time>
      </trkpt>
      <trkpt lat="42.287901" lon="-0.478826">
        <ele>1401.0</ele>
        <time>2018-07-22T08:27:06.000Z</time>
      </trkpt>
      <trkpt lat="42.287897" lon="-0.478838">
        <ele>1401.1</ele>
        <time>2018-07-22T08:27:07.000Z</time>
      </trkpt>
      <trkpt lat="42.287894" lon="-0.478851">
        <ele>1401.3</ele>
        <time>2018-07-22T08:27:08.000Z</time>
      </trkpt>
      <trkpt lat="42.28789" lon="-0.478864">
        <ele>1401.5</ele>
        <time>2018-07-22T08:27:09.000Z</time>
      </trkpt>
      <trkpt lat="42.287886" lon="-0.478879">
        <ele>1401.8</ele>
        <time>2018-07-22T08:27:10.000Z</time>
      </trkpt>
      <trkpt lat="42.287882" lon="-0.478893">
        <ele>1402.0</ele>
        <time>2018-07-22T08:27:11.000Z</time>
      </trkpt>
      <trkpt lat="42.287878" lon="-0.478908">
        <ele>1402.2</ele>
        <time>2018-07-22T08:27:12.000Z</time>
      </trkpt>
      <trkpt lat="42.287873" lon="-0.478923">
        <ele>1402.4</ele>
        <time>2018-07-22T08:27:13.000Z</time>
      </trkpt>
      <trkpt lat="42.287869" lon="-0.478936">
        <ele>1402.6</ele>
        <time>2018-07-22T08:27:14.000Z</time>
      </trkpt>
      <trkpt lat="42.287865" lon="-0.478949">
        <ele>1402.8</ele>
        <time>2018-07-22T08:27:15.000Z</time>
      </trkpt>
      <trkpt lat="42.287862" lon="-0.478961">
        <ele>1403.0</ele>
        <time>2018-07-22T08:27:16.000Z</time>
      </trkpt>
      <trkpt lat="42.287858" lon="-0.478971">
        <ele>1403.1</ele>
        <time>2018-07-22T08:27:17.000Z</time>
      </trkpt>
      <trkpt lat="42.287854" lon="-0.47898">
        <ele>1403.2</ele>
        <time>2018-07-22T08:27:18.000Z</time>
      </trkpt>
      <trkpt lat="42.287849" lon="-0.47899">
        <ele>1403.3</ele>
        <time>2018-07-22T08:27:19.000Z</time>
      </trkpt>
      <trkpt lat="42.287843" lon="-0.478999">
        <ele>1403.4</ele>
        <time>2018-07-22T08:27:20.000Z</time>
      </trkpt>
      <trkpt lat="42.287835" lon="-0.479008">
        <ele>1403.5</ele>
        <time>2018-07-22T08:27:21.000Z</time>
      </trkpt>
      <trkpt lat="42.287827" lon="-0.479017">
        <ele>1403.6</ele>
        <time>2018-07-22T08:27:22.000Z</time>
      </trkpt>
      <trkpt lat="42.28782" lon="-0.479028">
        <ele>1403.7</ele>
        <time>2018-07-22T08:27:23.000Z</time>
      </trkpt>
      <trkpt lat="42.287814" lon="-0.479039">
        <ele>1403.8</ele>
        <time>2018-07-22T08:27:24.000Z</time>
      </trkpt>
      <trkpt lat="42.28781" lon="-0.479051">
        <ele>1404.0</ele>
        <time>2018-07-22T08:27:25.000Z</time>
      </trkpt>
      <trkpt lat="42.287809" lon="-0.479065">
        <ele>1404.2</ele>
        <time>2018-07-22T08:27:26.000Z</time>
      </trkpt>
      <trkpt lat="42.287808" lon="-0.479078">
        <ele>1404.4</ele>
        <time>2018-07-22T08:27:27.000Z</time>
      </trkpt>
      <trkpt lat="42.287805" lon="-0.479089">
        <ele>1404.6</ele>
        <time>2018-07-22T08:27:28.000Z</time>
      </trkpt>
      <trkpt lat="42.287798" lon="-0.479098">
        <ele>1404.7</ele>
        <time>2018-07-22T08:27:29.000Z</time>
      </trkpt>
      <trkpt lat="42.287788" lon="-0.479109">
        <ele>1404.7</ele>
        <time>2018-07-22T08:27:30.000Z</time>
      </trkpt>
      <trkpt lat="42.28778" lon="-0.479122">
        <ele>1404.9</ele>
        <time>2018-07-22T08:27:31.000Z</time>
      </trkpt>
      <trkpt lat="42.287773" lon="-0.479139">
        <ele>1405.1</ele>
        <time>2018-07-22T08:27:32.000Z</time>
      </trkpt>
      <trkpt lat="42.287766" lon="-0.479154">
        <ele>1405.3</ele>
        <time>2018-07-22T08:27:33.000Z</time>
      </trkpt>
      <trkpt lat="42.287759" lon="-0.479168">
        <ele>1405.4</ele>
        <time>2018-07-22T08:27:34.000Z</time>
      </trkpt>
      <trkpt lat="42.287752" lon="-0.479179">
        <ele>1405.4</ele>
        <time>2018-07-22T08:27:35.000Z</time>
      </trkpt>
      <trkpt lat="42.287744" lon="-0.47919">
        <ele>1405.3</ele>
        <time>2018-07-22T08:27:36.000Z</time>
      </trkpt>
      <trkpt lat="42.287733" lon="-0.479201">
        <ele>1405.3</ele>
        <time>2018-07-22T08:27:37.000Z</time>
      </trkpt>
      <trkpt lat="42.287723" lon="-0.479213">
        <ele>1405.2</ele>
        <time>2018-07-22T08:27:38.000Z</time>
      </trkpt>
      <trkpt lat="42.287714" lon="-0.479226">
        <ele>1405.1</ele>
        <time>2018-07-22T08:27:39.000Z</time>
      </trkpt>
      <trkpt lat="42.287708" lon="-0.479241">
        <ele>1405.1</ele>
        <time>2018-07-22T08:27:40.000Z</time>
      </trkpt>
      <trkpt lat="42.287704" lon="-0.479257">
        <ele>1405.2</ele>
        <time>2018-07-22T08:27:41.000Z</time>
      </trkpt>
      <trkpt lat="42.287699" lon="-0.479272">
        <ele>1405.2</ele>
        <time>2018-07-22T08:27:42.000Z</time>
      </trkpt>
      <trkpt lat="42.287692" lon="-0.479286">
        <ele>1405.2</ele>
        <time>2018-07-22T08:27:43.000Z</time>
      </trkpt>
      <trkpt lat="42.287685" lon="-0.4793">
        <ele>1405.2</ele>
        <time>2018-07-22T08:27:44.000Z</time>
      </trkpt>
      <trkpt lat="42.287677" lon="-0.479314">
        <ele>1405.2</ele>
        <time>2018-07-22T08:27:45.000Z</time>
      </trkpt>
      <trkpt lat="42.287669" lon="-0.479328">
        <ele>1405.2</ele>
        <time>2018-07-22T08:27:46.000Z</time>
      </trkpt>
      <trkpt lat="42.28766" lon="-0.479342">
        <ele>1405.1</ele>
        <time>2018-07-22T08:27:47.000Z</time>
      </trkpt>
      <trkpt lat="42.287652" lon="-0.479357">
        <ele>1405.1</ele>
        <time>2018-07-22T08:27:48.000Z</time>
      </trkpt>
      <trkpt lat="42.287644" lon="-0.479372">
        <ele>1405.1</ele>
        <time>2018-07-22T08:27:49.000Z</time>
      </trkpt>
      <trkpt lat="42.287636" lon="-0.479387">
        <ele>1405.1</ele>
        <time>2018-07-22T08:27:50.000Z</time>
      </trkpt>
      <trkpt lat="42.287628" lon="-0.479401">
        <ele>1405.1</ele>
        <time>2018-07-22T08:27:51.000Z</time>
      </trkpt>
      <trkpt lat="42.28762" lon="-0.479415">
        <ele>1405.1</ele>
        <time>2018-07-22T08:27:52.000Z</time>
      </trkpt>
      <trkpt lat="42.287613" lon="-0.479428">
        <ele>1405.1</ele>
        <time>2018-07-22T08:27:53.000Z</time>
      </trkpt>
      <trkpt lat="42.287606" lon="-0.479441">
        <ele>1405.1</ele>
        <time>2018-07-22T08:27:54.000Z</time>
      </trkpt>
      <trkpt lat="42.287598" lon="-0.479453">
        <ele>1405.1</ele>
        <time>2018-07-22T08:27:55.000Z</time>
      </trkpt>
      <trkpt lat="42.287592" lon="-0.479466">
        <ele>1405.1</ele>
        <time>2018-07-22T08:27:56.000Z</time>
      </trkpt>
      <trkpt lat="42.287585" lon="-0.479479">
        <ele>1405.1</ele>
        <time>2018-07-22T08:27:57.000Z</time>
      </trkpt>
      <trkpt lat="42.287579" lon="-0.479492">
        <ele>1405.2</ele>
        <time>2018-07-22T08:27:58.000Z</time>
      </trkpt>
      <trkpt lat="42.287572" lon="-0.479507">
        <ele>1405.2</ele>
        <time>2018-07-22T08:27:59.000Z</time>
      </trkpt>
      <trkpt lat="42.287566" lon="-0.479522">
        <ele>1405.2</ele>
        <time>2018-07-22T08:28:00.000Z</time>
      </trkpt>
      <trkpt lat="42.28756" lon="-0.479536">
        <ele>1405.3</ele>
        <time>2018-07-22T08:28:01.000Z</time>
      </trkpt>
      <trkpt lat="42.287553" lon="-0.479548">
        <ele>1405.3</ele>
        <time>2018-07-22T08:28:02.000Z</time>
      </trkpt>
      <trkpt lat="42.287546" lon="-0.479556">
        <ele>1405.3</ele>
        <time>2018-07-22T08:28:03.000Z</time>
      </trkpt>
      <trkpt lat="42.287537" lon="-0.47956">
        <ele>1405.2</ele>
        <time>2018-07-22T08:28:04.000Z</time>
      </trkpt>
      <trkpt lat="42.287529" lon="-0.479563">
        <ele>1405.1</ele>
        <time>2018-07-22T08:28:05.000Z</time>
      </trkpt>
      <trkpt lat="42.287521" lon="-0.479568">
        <ele>1405.1</ele>
        <time>2018-07-22T08:28:06.000Z</time>
      </trkpt>
      <trkpt lat="42.287514" lon="-0.479577">
        <ele>1405.1</ele>
        <time>2018-07-22T08:28:07.000Z</time>
      </trkpt>
      <trkpt lat="42.287508" lon="-0.479588">
        <ele>1405.1</ele>
        <time>2018-07-22T08:28:08.000Z</time>
      </trkpt>
      <trkpt lat="42.287503" lon="-0.479601">
        <ele>1405.2</ele>
        <time>2018-07-22T08:28:09.000Z</time>
      </trkpt>
      <trkpt lat="42.287501" lon="-0.479613">
        <ele>1405.2</ele>
        <time>2018-07-22T08:28:10.000Z</time>
      </trkpt>
      <trkpt lat="42.2875" lon="-0.479625">
        <ele>1405.3</ele>
        <time>2018-07-22T08:28:11.000Z</time>
      </trkpt>
      <trkpt lat="42.287499" lon="-0.479635">
        <ele>1405.4</ele>
        <time>2018-07-22T08:28:12.000Z</time>
      </trkpt>
      <trkpt lat="42.287498" lon="-0.479644">
        <ele>1405.5</ele>
        <time>2018-07-22T08:28:13.000Z</time>
      </trkpt>
      <trkpt lat="42.287497" lon="-0.479652">
        <ele>1405.6</ele>
        <time>2018-07-22T08:28:14.000Z</time>
      </trkpt>
      <trkpt lat="42.287494" lon="-0.47966">
        <ele>1405.7</ele>
        <time>2018-07-22T08:28:15.000Z</time>
      </trkpt>
      <trkpt lat="42.28749" lon="-0.479666">
        <ele>1405.8</ele>
        <time>2018-07-22T08:28:16.000Z</time>
      </trkpt>
      <trkpt lat="42.287486" lon="-0.479673">
        <ele>1405.9</ele>
        <time>2018-07-22T08:28:17.000Z</time>
      </trkpt>
      <trkpt lat="42.287482" lon="-0.47968">
        <ele>1406.1</ele>
        <time>2018-07-22T08:28:18.000Z</time>
      </trkpt>
      <trkpt lat="42.287478" lon="-0.479688">
        <ele>1406.2</ele>
        <time>2018-07-22T08:28:19.000Z</time>
      </trkpt>
      <trkpt lat="42.287477" lon="-0.479698">
        <ele>1406.3</ele>
        <time>2018-07-22T08:28:20.000Z</time>
      </trkpt>
      <trkpt lat="42.287477" lon="-0.47971">
        <ele>1406.4</ele>
        <time>2018-07-22T08:28:21.000Z</time>
      </trkpt>
      <trkpt lat="42.287478" lon="-0.479723">
        <ele>1406.5</ele>
        <time>2018-07-22T08:28:22.000Z</time>
      </trkpt>
      <trkpt lat="42.28748" lon="-0.479738">
        <ele>1406.5</ele>
        <time>2018-07-22T08:28:23.000Z</time>
      </trkpt>
      <trkpt lat="42.287482" lon="-0.479753">
        <ele>1406.6</ele>
        <time>2018-07-22T08:28:24.000Z</time>
      </trkpt>
      <trkpt lat="42.287483" lon="-0.479769">
        <ele>1406.7</ele>
        <time>2018-07-22T08:28:25.000Z</time>
      </trkpt>
      <trkpt lat="42.287483" lon="-0.479784">
        <ele>1406.8</ele>
        <time>2018-07-22T08:28:26.000Z</time>
      </trkpt>
      <trkpt lat="42.287482" lon="-0.479799">
        <ele>1406.9</ele>
        <time>2018-07-22T08:28:27.000Z</time>
      </trkpt>
      <trkpt lat="42.287479" lon="-0.479814">
        <ele>1407.1</ele>
        <time>2018-07-22T08:28:28.000Z</time>
      </trkpt>
      <trkpt lat="42.287475" lon="-0.479829">
        <ele>1407.3</ele>
        <time>2018-07-22T08:28:29.000Z</time>
      </trkpt>
      <trkpt lat="42.287469" lon="-0.479844">
        <ele>1407.5</ele>
        <time>2018-07-22T08:28:30.000Z</time>
      </trkpt>
      <trkpt lat="42.287464" lon="-0.47986">
        <ele>1407.8</ele>
        <time>2018-07-22T08:28:31.000Z</time>
      </trkpt>
      <trkpt lat="42.287458" lon="-0.479877">
        <ele>1408.0</ele>
        <time>2018-07-22T08:28:32.000Z</time>
      </trkpt>
      <trkpt lat="42.287453" lon="-0.479893">
        <ele>1408.3</ele>
        <time>2018-07-22T08:28:33.000Z</time>
      </trkpt>
      <trkpt lat="42.287449" lon="-0.47991">
        <ele>1408.5</ele>
        <time>2018-07-22T08:28:34.000Z</time>
      </trkpt>
      <trkpt lat="42.287446" lon="-0.479927">
        <ele>1408.7</ele>
        <time>2018-07-22T08:28:35.000Z</time>
      </trkpt>
      <trkpt lat="42.287444" lon="-0.479943">
        <ele>1408.8</ele>
        <time>2018-07-22T08:28:36.000Z</time>
      </trkpt>
      <trkpt lat="42.287441" lon="-0.479959">
        <ele>1409.0</ele>
        <time>2018-07-22T08:28:37.000Z</time>
      </trkpt>
      <trkpt lat="42.287437" lon="-0.479975">
        <ele>1409.2</ele>
        <time>2018-07-22T08:28:38.000Z</time>
      </trkpt>
      <trkpt lat="42.287432" lon="-0.47999">
        <ele>1409.5</ele>
        <time>2018-07-22T08:28:39.000Z</time>
      </trkpt>
      <trkpt lat="42.287427" lon="-0.480004">
        <ele>1409.6</ele>
        <time>2018-07-22T08:28:40.000Z</time>
      </trkpt>
      <trkpt lat="42.28742" lon="-0.480018">
        <ele>1409.6</ele>
        <time>2018-07-22T08:28:41.000Z</time>
      </trkpt>
      <trkpt lat="42.287413" lon="-0.480031">
        <ele>1409.7</ele>
        <time>2018-07-22T08:28:42.000Z</time>
      </trkpt>
      <trkpt lat="42.287406" lon="-0.480043">
        <ele>1409.7</ele>
        <time>2018-07-22T08:28:43.000Z</time>
      </trkpt>
      <trkpt lat="42.287398" lon="-0.480054">
        <ele>1409.8</ele>
        <time>2018-07-22T08:28:44.000Z</time>
      </trkpt>
      <trkpt lat="42.28739" lon="-0.480065">
        <ele>1409.8</ele>
        <time>2018-07-22T08:28:45.000Z</time>
      </trkpt>
      <trkpt lat="42.287382" lon="-0.480074">
        <ele>1409.9</ele>
        <time>2018-07-22T08:28:46.000Z</time>
      </trkpt>
      <trkpt lat="42.287375" lon="-0.480083">
        <ele>1410.0</ele>
        <time>2018-07-22T08:28:47.000Z</time>
      </trkpt>
      <trkpt lat="42.287367" lon="-0.48009">
        <ele>1410.1</ele>
        <time>2018-07-22T08:28:48.000Z</time>
      </trkpt>
      <trkpt lat="42.28736" lon="-0.480097">
        <ele>1410.2</ele>
        <time>2018-07-22T08:28:49.000Z</time>
      </trkpt>
      <trkpt lat="42.287353" lon="-0.480102">
        <ele>1410.3</ele>
        <time>2018-07-22T08:28:50.000Z</time>
      </trkpt>
      <trkpt lat="42.287345" lon="-0.480105">
        <ele>1410.5</ele>
        <time>2018-07-22T08:28:51.000Z</time>
      </trkpt>
      <trkpt lat="42.287338" lon="-0.480107">
        <ele>1410.6</ele>
        <time>2018-07-22T08:28:52.000Z</time>
      </trkpt>
      <trkpt lat="42.287331" lon="-0.480107">
        <ele>1410.8</ele>
        <time>2018-07-22T08:28:53.000Z</time>
      </trkpt>
      <trkpt lat="42.287325" lon="-0.480107">
        <ele>1410.9</ele>
        <time>2018-07-22T08:28:54.000Z</time>
      </trkpt>
      <trkpt lat="42.287322" lon="-0.480106">
        <ele>1411.0</ele>
        <time>2018-07-22T08:28:55.000Z</time>
      </trkpt>
      <trkpt lat="42.287318" lon="-0.480106">
        <ele>1411.1</ele>
        <time>2018-07-22T08:28:56.000Z</time>
      </trkpt>
      <trkpt lat="42.28731" lon="-0.480107">
        <ele>1411.3</ele>
        <time>2018-07-22T08:28:57.000Z</time>
      </trkpt>
      <trkpt lat="42.287303" lon="-0.480107">
        <ele>1411.4</ele>
        <time>2018-07-22T08:28:58.000Z</time>
      </trkpt>
      <trkpt lat="42.2873" lon="-0.480106">
        <ele>1411.5</ele>
        <time>2018-07-22T08:28:59.000Z</time>
      </trkpt>
      <trkpt lat="42.287299" lon="-0.480105">
        <ele>1411.5</ele>
        <time>2018-07-22T08:29:00.000Z</time>
      </trkpt>
      <trkpt lat="42.287298" lon="-0.480104">
        <ele>1411.6</ele>
        <time>2018-07-22T08:29:01.000Z</time>
      </trkpt>
      <trkpt lat="42.287297" lon="-0.480104">
        <ele>1411.6</ele>
        <time>2018-07-22T08:29:02.000Z</time>
      </trkpt>
      <trkpt lat="42.287297" lon="-0.480104">
        <ele>1411.6</ele>
        <time>2018-07-22T08:29:03.000Z</time>
      </trkpt>
      <trkpt lat="42.287296" lon="-0.480104">
        <ele>1411.6</ele>
        <time>2018-07-22T08:29:04.000Z</time>
      </trkpt>
      <trkpt lat="42.287296" lon="-0.480103">
        <ele>1411.6</ele>
        <time>2018-07-22T08:29:05.000Z</time>
      </trkpt>
      <trkpt lat="42.287295" lon="-0.480103">
        <ele>1411.7</ele>
        <time>2018-07-22T08:29:06.000Z</time>
      </trkpt>
      <trkpt lat="42.287295" lon="-0.480103">
        <ele>1411.7</ele>
        <time>2018-07-22T08:29:07.000Z</time>
      </trkpt>
      <trkpt lat="42.287294" lon="-0.480103">
        <ele>1411.7</ele>
        <time>2018-07-22T08:29:08.000Z</time>
      </trkpt>
      <trkpt lat="42.287294" lon="-0.480103">
        <ele>1411.7</ele>
        <time>2018-07-22T08:29:09.000Z</time>
      </trkpt>
      <trkpt lat="42.287294" lon="-0.480102">
        <ele>1411.7</ele>
        <time>2018-07-22T08:29:10.000Z</time>
      </trkpt>
      <trkpt lat="42.287294" lon="-0.480102">
        <ele>1411.7</ele>
        <time>2018-07-22T08:29:11.000Z</time>
      </trkpt>
      <trkpt lat="42.287293" lon="-0.480102">
        <ele>1411.7</ele>
        <time>2018-07-22T08:29:12.000Z</time>
      </trkpt>
      <trkpt lat="42.287293" lon="-0.480102">
        <ele>1411.7</ele>
        <time>2018-07-22T08:29:13.000Z</time>
      </trkpt>
      <trkpt lat="42.287293" lon="-0.480102">
        <ele>1411.7</ele>
        <time>2018-07-22T08:29:14.000Z</time>
      </trkpt>
      <trkpt lat="42.287293" lon="-0.480102">
        <ele>1411.7</ele>
        <time>2018-07-22T08:29:15.000Z</time>
      </trkpt>
      <trkpt lat="42.287293" lon="-0.480102">
        <ele>1411.7</ele>
        <time>2018-07-22T08:29:16.000Z</time>
      </trkpt>
      <trkpt lat="42.287293" lon="-0.480102">
        <ele>1411.7</ele>
        <time>2018-07-22T08:29:17.000Z</time>
      </trkpt>
      <trkpt lat="42.287293" lon="-0.480102">
        <ele>1411.7</ele>
        <time>2018-07-22T08:29:18.000Z</time>
      </trkpt>
      <trkpt lat="42.287293" lon="-0.480102">
        <ele>1411.7</ele>
        <time>2018-07-22T08:29:19.000Z</time>
      </trkpt>
      <trkpt lat="42.287293" lon="-0.480102">
        <ele>1411.7</ele>
        <time>2018-07-22T08:29:20.000Z</time>
      </trkpt>
      <trkpt lat="42.287293" lon="-0.480102">
        <ele>1411.7</ele>
        <time>2018-07-22T08:29:21.000Z</time>
      </trkpt>
      <trkpt lat="42.287293" lon="-0.480102">
        <ele>1411.7</ele>
        <time>2018-07-22T08:29:22.000Z</time>
      </trkpt>
      <trkpt lat="42.287293" lon="-0.480101">
        <ele>1411.7</ele>
        <time>2018-07-22T08:29:23.000Z</time>
      </trkpt>
      <trkpt lat="42.287293" lon="-0.480101">
        <ele>1411.7</ele>
        <time>2018-07-22T08:29:24.000Z</time>
      </trkpt>
      <trkpt lat="42.287293" lon="-0.480101">
        <ele>1411.7</ele>
        <time>2018-07-22T08:29:25.000Z</time>
      </trkpt>
      <trkpt lat="42.287292" lon="-0.480101">
        <ele>1411.7</ele>
        <time>2018-07-22T08:29:26.000Z</time>
      </trkpt>
      <trkpt lat="42.287292" lon="-0.480101">
        <ele>1411.7</ele>
        <time>2018-07-22T08:29:27.000Z</time>
      </trkpt>
      <trkpt lat="42.287291" lon="-0.480101">
        <ele>1411.8</ele>
        <time>2018-07-22T08:29:28.000Z</time>
      </trkpt>
      <trkpt lat="42.287291" lon="-0.480101">
        <ele>1411.8</ele>
        <time>2018-07-22T08:29:29.000Z</time>
      </trkpt>
      <trkpt lat="42.28729" lon="-0.480101">
        <ele>1411.8</ele>
        <time>2018-07-22T08:29:30.000Z</time>
      </trkpt>
      <trkpt lat="42.287289" lon="-0.4801">
        <ele>1411.8</ele>
        <time>2018-07-22T08:29:31.000Z</time>
      </trkpt>
      <trkpt lat="42.287288" lon="-0.4801">
        <ele>1411.8</ele>
        <time>2018-07-22T08:29:32.000Z</time>
      </trkpt>
      <trkpt lat="42.287286" lon="-0.4801">
        <ele>1411.9</ele>
        <time>2018-07-22T08:29:33.000Z</time>
      </trkpt>
      <trkpt lat="42.287283" lon="-0.4801">
        <ele>1412.0</ele>
        <time>2018-07-22T08:29:34.000Z</time>
      </trkpt>
      <trkpt lat="42.28728" lon="-0.480099">
        <ele>1412.0</ele>
        <time>2018-07-22T08:29:35.000Z</time>
      </trkpt>
      <trkpt lat="42.287276" lon="-0.480098">
        <ele>1412.1</ele>
        <time>2018-07-22T08:29:36.000Z</time>
      </trkpt>
      <trkpt lat="42.287266" lon="-0.480095">
        <ele>1412.4</ele>
        <time>2018-07-22T08:29:37.000Z</time>
      </trkpt>
      <trkpt lat="42.28726" lon="-0.480093">
        <ele>1412.6</ele>
        <time>2018-07-22T08:29:38.000Z</time>
      </trkpt>
      <trkpt lat="42.287254" lon="-0.480092">
        <ele>1412.7</ele>
        <time>2018-07-22T08:29:39.000Z</time>
      </trkpt>
      <trkpt lat="42.287248" lon="-0.480088">
        <ele>1412.9</ele>
        <time>2018-07-22T08:29:40.000Z</time>
      </trkpt>
      <trkpt lat="42.287241" lon="-0.480084">
        <ele>1413.1</ele>
        <time>2018-07-22T08:29:41.000Z</time>
      </trkpt>
      <trkpt lat="42.287234" lon="-0.48008">
        <ele>1413.3</ele>
        <time>2018-07-22T08:29:42.000Z</time>
      </trkpt>
      <trkpt lat="42.287225" lon="-0.480076">
        <ele>1413.5</ele>
        <time>2018-07-22T08:29:43.000Z</time>
      </trkpt>
      <trkpt lat="42.287216" lon="-0.480073">
        <ele>1413.8</ele>
        <time>2018-07-22T08:29:44.000Z</time>
      </trkpt>
      <trkpt lat="42.287206" lon="-0.480071">
        <ele>1414.0</ele>
        <time>2018-07-22T08:29:45.000Z</time>
      </trkpt>
      <trkpt lat="42.287197" lon="-0.480068">
        <ele>1414.3</ele>
        <time>2018-07-22T08:29:46.000Z</time>
      </trkpt>
      <trkpt lat="42.287188" lon="-0.480066">
        <ele>1414.5</ele>
        <time>2018-07-22T08:29:47.000Z</time>
      </trkpt>
      <trkpt lat="42.287179" lon="-0.480064">
        <ele>1414.7</ele>
        <time>2018-07-22T08:29:48.000Z</time>
      </trkpt>
      <trkpt lat="42.287171" lon="-0.480062">
        <ele>1414.9</ele>
        <time>2018-07-22T08:29:49.000Z</time>
      </trkpt>
      <trkpt lat="42.287164" lon="-0.48006">
        <ele>1415.1</ele>
        <time>2018-07-22T08:29:50.000Z</time>
      </trkpt>
      <trkpt lat="42.287159" lon="-0.480058">
        <ele>1415.2</ele>
        <time>2018-07-22T08:29:51.000Z</time>
      </trkpt>
      <trkpt lat="42.287155" lon="-0.480056">
        <ele>1415.3</ele>
        <time>2018-07-22T08:29:52.000Z</time>
      </trkpt>
      <trkpt lat="42.287153" lon="-0.480053">
        <ele>1415.4</ele>
        <time>2018-07-22T08:29:53.000Z</time>
      </trkpt>
      <trkpt lat="42.287151" lon="-0.480052">
        <ele>1415.5</ele>
        <time>2018-07-22T08:29:54.000Z</time>
      </trkpt>
      <trkpt lat="42.287149" lon="-0.480051">
        <ele>1415.5</ele>
        <time>2018-07-22T08:29:55.000Z</time>
      </trkpt>
      <trkpt lat="42.287144" lon="-0.480052">
        <ele>1415.6</ele>
        <time>2018-07-22T08:29:56.000Z</time>
      </trkpt>
      <trkpt lat="42.287139" lon="-0.480055">
        <ele>1415.7</ele>
        <time>2018-07-22T08:29:57.000Z</time>
      </trkpt>
      <trkpt lat="42.287134" lon="-0.480058">
        <ele>1415.8</ele>
        <time>2018-07-22T08:29:58.000Z</time>
      </trkpt>
      <trkpt lat="42.287131" lon="-0.480059">
        <ele>1415.9</ele>
        <time>2018-07-22T08:29:59.000Z</time>
      </trkpt>
      <trkpt lat="42.287129" lon="-0.480061">
        <ele>1415.9</ele>
        <time>2018-07-22T08:30:00.000Z</time>
      </trkpt>
      <trkpt lat="42.287128" lon="-0.480061">
        <ele>1415.9</ele>
        <time>2018-07-22T08:30:01.000Z</time>
      </trkpt>
      <trkpt lat="42.287127" lon="-0.480061">
        <ele>1415.9</ele>
        <time>2018-07-22T08:30:02.000Z</time>
      </trkpt>
      <trkpt lat="42.287127" lon="-0.480062">
        <ele>1415.9</ele>
        <time>2018-07-22T08:30:03.000Z</time>
      </trkpt>
      <trkpt lat="42.287126" lon="-0.480062">
        <ele>1416.0</ele>
        <time>2018-07-22T08:30:04.000Z</time>
      </trkpt>
      <trkpt lat="42.287125" lon="-0.480063">
        <ele>1416.0</ele>
        <time>2018-07-22T08:30:05.000Z</time>
      </trkpt>
      <trkpt lat="42.287124" lon="-0.480064">
        <ele>1416.0</ele>
        <time>2018-07-22T08:30:06.000Z</time>
      </trkpt>
      <trkpt lat="42.287123" lon="-0.480065">
        <ele>1416.0</ele>
        <time>2018-07-22T08:30:07.000Z</time>
      </trkpt>
      <trkpt lat="42.287122" lon="-0.480066">
        <ele>1416.0</ele>
        <time>2018-07-22T08:30:08.000Z</time>
      </trkpt>
      <trkpt lat="42.28712" lon="-0.480067">
        <ele>1416.1</ele>
        <time>2018-07-22T08:30:09.000Z</time>
      </trkpt>
      <trkpt lat="42.287118" lon="-0.480069">
        <ele>1416.1</ele>
        <time>2018-07-22T08:30:10.000Z</time>
      </trkpt>
      <trkpt lat="42.287116" lon="-0.48007">
        <ele>1416.1</ele>
        <time>2018-07-22T08:30:11.000Z</time>
      </trkpt>
      <trkpt lat="42.287114" lon="-0.480072">
        <ele>1416.1</ele>
        <time>2018-07-22T08:30:12.000Z</time>
      </trkpt>
      <trkpt lat="42.287112" lon="-0.480074">
        <ele>1416.2</ele>
        <time>2018-07-22T08:30:13.000Z</time>
      </trkpt>
      <trkpt lat="42.28711" lon="-0.480076">
        <ele>1416.2</ele>
        <time>2018-07-22T08:30:14.000Z</time>
      </trkpt>
      <trkpt lat="42.287107" lon="-0.480078">
        <ele>1416.3</ele>
        <time>2018-07-22T08:30:15.000Z</time>
      </trkpt>
      <trkpt lat="42.287104" lon="-0.480081">
        <ele>1416.3</ele>
        <time>2018-07-22T08:30:16.000Z</time>
      </trkpt>
      <trkpt lat="42.2871" lon="-0.480084">
        <ele>1416.4</ele>
        <time>2018-07-22T08:30:17.000Z</time>
      </trkpt>
      <trkpt lat="42.287096" lon="-0.480086">
        <ele>1416.4</ele>
        <time>2018-07-22T08:30:18.000Z</time>
      </trkpt>
      <trkpt lat="42.287091" lon="-0.480088">
        <ele>1416.5</ele>
        <time>2018-07-22T08:30:19.000Z</time>
      </trkpt>
      <trkpt lat="42.287088" lon="-0.480089">
        <ele>1416.6</ele>
        <time>2018-07-22T08:30:20.000Z</time>
      </trkpt>
      <trkpt lat="42.287085" lon="-0.48009">
        <ele>1416.7</ele>
        <time>2018-07-22T08:30:21.000Z</time>
      </trkpt>
      <trkpt lat="42.287083" lon="-0.480091">
        <ele>1416.7</ele>
        <time>2018-07-22T08:30:22.000Z</time>
      </trkpt>
      <trkpt lat="42.287081" lon="-0.480091">
        <ele>1416.7</ele>
        <time>2018-07-22T08:30:23.000Z</time>
      </trkpt>
      <trkpt lat="42.287079" lon="-0.480092">
        <ele>1416.8</ele>
        <time>2018-07-22T08:30:24.000Z</time>
      </trkpt>
      <trkpt lat="42.287076" lon="-0.480093">
        <ele>1416.8</ele>
        <time>2018-07-22T08:30:25.000Z</time>
      </trkpt>
      <trkpt lat="42.287074" lon="-0.480094">
        <ele>1416.9</ele>
        <time>2018-07-22T08:30:26.000Z</time>
      </trkpt>
      <trkpt lat="42.287072" lon="-0.480095">
        <ele>1416.9</ele>
        <time>2018-07-22T08:30:27.000Z</time>
      </trkpt>
      <trkpt lat="42.28707" lon="-0.480096">
        <ele>1416.9</ele>
        <time>2018-07-22T08:30:28.000Z</time>
      </trkpt>
      <trkpt lat="42.287069" lon="-0.480096">
        <ele>1417.0</ele>
        <time>2018-07-22T08:30:29.000Z</time>
      </trkpt>
      <trkpt lat="42.287068" lon="-0.480097">
        <ele>1417.0</ele>
        <time>2018-07-22T08:30:30.000Z</time>
      </trkpt>
      <trkpt lat="42.287067" lon="-0.480097">
        <ele>1417.0</ele>
        <time>2018-07-22T08:30:31.000Z</time>
      </trkpt>
      <trkpt lat="42.287063" lon="-0.480099">
        <ele>1417.1</ele>
        <time>2018-07-22T08:30:32.000Z</time>
      </trkpt>
      <trkpt lat="42.287062" lon="-0.480099">
        <ele>1417.1</ele>
        <time>2018-07-22T08:30:33.000Z</time>
      </trkpt>
      <trkpt lat="42.287062" lon="-0.480099">
        <ele>1417.1</ele>
        <time>2018-07-22T08:30:34.000Z</time>
      </trkpt>
      <trkpt lat="42.28706" lon="-0.4801">
        <ele>1417.1</ele>
        <time>2018-07-22T08:30:35.000Z</time>
      </trkpt>
      <trkpt lat="42.287058" lon="-0.4801">
        <ele>1417.2</ele>
        <time>2018-07-22T08:30:36.000Z</time>
      </trkpt>
      <trkpt lat="42.287056" lon="-0.480102">
        <ele>1417.2</ele>
        <time>2018-07-22T08:30:37.000Z</time>
      </trkpt>
      <trkpt lat="42.287053" lon="-0.480103">
        <ele>1417.3</ele>
        <time>2018-07-22T08:30:38.000Z</time>
      </trkpt>
      <trkpt lat="42.28705" lon="-0.480104">
        <ele>1417.3</ele>
        <time>2018-07-22T08:30:39.000Z</time>
      </trkpt>
      <trkpt lat="42.287048" lon="-0.480105">
        <ele>1417.4</ele>
        <time>2018-07-22T08:30:40.000Z</time>
      </trkpt>
      <trkpt lat="42.287046" lon="-0.480107">
        <ele>1417.4</ele>
        <time>2018-07-22T08:30:41.000Z</time>
      </trkpt>
      <trkpt lat="42.287044" lon="-0.480108">
        <ele>1417.4</ele>
        <time>2018-07-22T08:30:42.000Z</time>
      </trkpt>
      <trkpt lat="42.28704" lon="-0.48011">
        <ele>1417.5</ele>
        <time>2018-07-22T08:30:43.000Z</time>
      </trkpt>
      <trkpt lat="42.287032" lon="-0.480114">
        <ele>1417.7</ele>
        <time>2018-07-22T08:30:44.000Z</time>
      </trkpt>
      <trkpt lat="42.287026" lon="-0.480116">
        <ele>1417.8</ele>
        <time>2018-07-22T08:30:45.000Z</time>
      </trkpt>
      <trkpt lat="42.28702" lon="-0.480118">
        <ele>1417.9</ele>
        <time>2018-07-22T08:30:46.000Z</time>
      </trkpt>
      <trkpt lat="42.287016" lon="-0.48012">
        <ele>1418.0</ele>
        <time>2018-07-22T08:30:47.000Z</time>
      </trkpt>
      <trkpt lat="42.287013" lon="-0.480121">
        <ele>1418.1</ele>
        <time>2018-07-22T08:30:48.000Z</time>
      </trkpt>
      <trkpt lat="42.28701" lon="-0.480121">
        <ele>1418.1</ele>
        <time>2018-07-22T08:30:49.000Z</time>
      </trkpt>
      <trkpt lat="42.287008" lon="-0.480122">
        <ele>1418.2</ele>
        <time>2018-07-22T08:30:50.000Z</time>
      </trkpt>
      <trkpt lat="42.287007" lon="-0.480122">
        <ele>1418.2</ele>
        <time>2018-07-22T08:30:51.000Z</time>
      </trkpt>
      <trkpt lat="42.287006" lon="-0.480123">
        <ele>1418.2</ele>
        <time>2018-07-22T08:30:52.000Z</time>
      </trkpt>
      <trkpt lat="42.287005" lon="-0.480123">
        <ele>1418.2</ele>
        <time>2018-07-22T08:30:53.000Z</time>
      </trkpt>
      <trkpt lat="42.287005" lon="-0.480123">
        <ele>1418.2</ele>
        <time>2018-07-22T08:30:54.000Z</time>
      </trkpt>
      <trkpt lat="42.287005" lon="-0.480123">
        <ele>1418.2</ele>
        <time>2018-07-22T08:30:55.000Z</time>
      </trkpt>
      <trkpt lat="42.287004" lon="-0.480123">
        <ele>1418.2</ele>
        <time>2018-07-22T08:30:56.000Z</time>
      </trkpt>
      <trkpt lat="42.287002" lon="-0.480124">
        <ele>1418.3</ele>
        <time>2018-07-22T08:30:57.000Z</time>
      </trkpt>
      <trkpt lat="42.287" lon="-0.480125">
        <ele>1418.3</ele>
        <time>2018-07-22T08:30:58.000Z</time>
      </trkpt>
      <trkpt lat="42.286996" lon="-0.480125">
        <ele>1418.4</ele>
        <time>2018-07-22T08:30:59.000Z</time>
      </trkpt>
      <trkpt lat="42.286991" lon="-0.480125">
        <ele>1418.5</ele>
        <time>2018-07-22T08:31:00.000Z</time>
      </trkpt>
      <trkpt lat="42.286984" lon="-0.480125">
        <ele>1418.7</ele>
        <time>2018-07-22T08:31:01.000Z</time>
      </trkpt>
      <trkpt lat="42.286974" lon="-0.48013">
        <ele>1418.9</ele>
        <time>2018-07-22T08:31:02.000Z</time>
      </trkpt>
      <trkpt lat="42.286965" lon="-0.480135">
        <ele>1419.1</ele>
        <time>2018-07-22T08:31:03.000Z</time>
      </trkpt>
      <trkpt lat="42.28696" lon="-0.480139">
        <ele>1419.1</ele>
        <time>2018-07-22T08:31:04.000Z</time>
      </trkpt>
      <trkpt lat="42.286956" lon="-0.480142">
        <ele>1419.2</ele>
        <time>2018-07-22T08:31:05.000Z</time>
      </trkpt>
      <trkpt lat="42.286954" lon="-0.480144">
        <ele>1419.2</ele>
        <time>2018-07-22T08:31:06.000Z</time>
      </trkpt>
      <trkpt lat="42.286952" lon="-0.480147">
        <ele>1419.3</ele>
        <time>2018-07-22T08:31:07.000Z</time>
      </trkpt>
      <trkpt lat="42.286951" lon="-0.480149">
        <ele>1419.3</ele>
        <time>2018-07-22T08:31:08.000Z</time>
      </trkpt>
      <trkpt lat="42.286949" lon="-0.480151">
        <ele>1419.3</ele>
        <time>2018-07-22T08:31:09.000Z</time>
      </trkpt>
      <trkpt lat="42.286948" lon="-0.480154">
        <ele>1419.3</ele>
        <time>2018-07-22T08:31:10.000Z</time>
      </trkpt>
      <trkpt lat="42.286945" lon="-0.480159">
        <ele>1419.3</ele>
        <time>2018-07-22T08:31:11.000Z</time>
      </trkpt>
      <trkpt lat="42.286942" lon="-0.480167">
        <ele>1419.3</ele>
        <time>2018-07-22T08:31:12.000Z</time>
      </trkpt>
      <trkpt lat="42.286938" lon="-0.480174">
        <ele>1419.4</ele>
        <time>2018-07-22T08:31:13.000Z</time>
      </trkpt>
      <trkpt lat="42.286933" lon="-0.480179">
        <ele>1419.4</ele>
        <time>2018-07-22T08:31:14.000Z</time>
      </trkpt>
      <trkpt lat="42.286926" lon="-0.480183">
        <ele>1419.6</ele>
        <time>2018-07-22T08:31:15.000Z</time>
      </trkpt>
      <trkpt lat="42.28692" lon="-0.480186">
        <ele>1419.7</ele>
        <time>2018-07-22T08:31:16.000Z</time>
      </trkpt>
      <trkpt lat="42.286913" lon="-0.480187">
        <ele>1419.8</ele>
        <time>2018-07-22T08:31:17.000Z</time>
      </trkpt>
      <trkpt lat="42.286906" lon="-0.480187">
        <ele>1420.0</ele>
        <time>2018-07-22T08:31:18.000Z</time>
      </trkpt>
      <trkpt lat="42.2869" lon="-0.480184">
        <ele>1420.2</ele>
        <time>2018-07-22T08:31:19.000Z</time>
      </trkpt>
      <trkpt lat="42.286897" lon="-0.480183">
        <ele>1420.2</ele>
        <time>2018-07-22T08:31:20.000Z</time>
      </trkpt>
      <trkpt lat="42.286895" lon="-0.480182">
        <ele>1420.3</ele>
        <time>2018-07-22T08:31:21.000Z</time>
      </trkpt>
      <trkpt lat="42.28689" lon="-0.480181">
        <ele>1420.4</ele>
        <time>2018-07-22T08:31:22.000Z</time>
      </trkpt>
      <trkpt lat="42.286882" lon="-0.48018">
        <ele>1420.6</ele>
        <time>2018-07-22T08:31:23.000Z</time>
      </trkpt>
      <trkpt lat="42.286875" lon="-0.480181">
        <ele>1420.8</ele>
        <time>2018-07-22T08:31:24.000Z</time>
      </trkpt>
      <trkpt lat="42.286869" lon="-0.480184">
        <ele>1420.9</ele>
        <time>2018-07-22T08:31:25.000Z</time>
      </trkpt>
      <trkpt lat="42.286863" lon="-0.480189">
        <ele>1421.0</ele>
        <time>2018-07-22T08:31:26.000Z</time>
      </trkpt>
      <trkpt lat="42.286857" lon="-0.480195">
        <ele>1421.1</ele>
        <time>2018-07-22T08:31:27.000Z</time>
      </trkpt>
      <trkpt lat="42.286852" lon="-0.480201">
        <ele>1421.2</ele>
        <time>2018-07-22T08:31:28.000Z</time>
      </trkpt>
      <trkpt lat="42.286847" lon="-0.480207">
        <ele>1421.2</ele>
        <time>2018-07-22T08:31:29.000Z</time>
      </trkpt>
      <trkpt lat="42.286841" lon="-0.480213">
        <ele>1421.3</ele>
        <time>2018-07-22T08:31:30.000Z</time>
      </trkpt>
      <trkpt lat="42.286835" lon="-0.480217">
        <ele>1421.4</ele>
        <time>2018-07-22T08:31:31.000Z</time>
      </trkpt>
      <trkpt lat="42.286829" lon="-0.480221">
        <ele>1421.6</ele>
        <time>2018-07-22T08:31:32.000Z</time>
      </trkpt>
      <trkpt lat="42.286823" lon="-0.480223">
        <ele>1421.7</ele>
        <time>2018-07-22T08:31:33.000Z</time>
      </trkpt>
      <trkpt lat="42.286817" lon="-0.480225">
        <ele>1421.8</ele>
        <time>2018-07-22T08:31:34.000Z</time>
      </trkpt>
      <trkpt lat="42.28681" lon="-0.480225">
        <ele>1422.0</ele>
        <time>2018-07-22T08:31:35.000Z</time>
      </trkpt>
      <trkpt lat="42.286803" lon="-0.480225">
        <ele>1422.1</ele>
        <time>2018-07-22T08:31:36.000Z</time>
      </trkpt>
      <trkpt lat="42.286796" lon="-0.480225">
        <ele>1422.3</ele>
        <time>2018-07-22T08:31:37.000Z</time>
      </trkpt>
      <trkpt lat="42.286789" lon="-0.480225">
        <ele>1422.5</ele>
        <time>2018-07-22T08:31:38.000Z</time>
      </trkpt>
      <trkpt lat="42.286782" lon="-0.480227">
        <ele>1422.6</ele>
        <time>2018-07-22T08:31:39.000Z</time>
      </trkpt>
      <trkpt lat="42.286775" lon="-0.480232">
        <ele>1422.8</ele>
        <time>2018-07-22T08:31:40.000Z</time>
      </trkpt>
      <trkpt lat="42.28677" lon="-0.48024">
        <ele>1422.8</ele>
        <time>2018-07-22T08:31:41.000Z</time>
      </trkpt>
      <trkpt lat="42.286765" lon="-0.48025">
        <ele>1422.9</ele>
        <time>2018-07-22T08:31:42.000Z</time>
      </trkpt>
      <trkpt lat="42.286761" lon="-0.480261">
        <ele>1422.9</ele>
        <time>2018-07-22T08:31:43.000Z</time>
      </trkpt>
      <trkpt lat="42.286758" lon="-0.480271">
        <ele>1422.9</ele>
        <time>2018-07-22T08:31:44.000Z</time>
      </trkpt>
      <trkpt lat="42.286756" lon="-0.480278">
        <ele>1422.9</ele>
        <time>2018-07-22T08:31:45.000Z</time>
      </trkpt>
      <trkpt lat="42.286755" lon="-0.480283">
        <ele>1422.8</ele>
        <time>2018-07-22T08:31:46.000Z</time>
      </trkpt>
      <trkpt lat="42.286754" lon="-0.480285">
        <ele>1422.8</ele>
        <time>2018-07-22T08:31:47.000Z</time>
      </trkpt>
      <trkpt lat="42.286753" lon="-0.480286">
        <ele>1422.9</ele>
        <time>2018-07-22T08:31:48.000Z</time>
      </trkpt>
      <trkpt lat="42.286751" lon="-0.480287">
        <ele>1422.9</ele>
        <time>2018-07-22T08:31:49.000Z</time>
      </trkpt>
      <trkpt lat="42.286746" lon="-0.480289">
        <ele>1423.0</ele>
        <time>2018-07-22T08:31:50.000Z</time>
      </trkpt>
      <trkpt lat="42.286739" lon="-0.480292">
        <ele>1423.2</ele>
        <time>2018-07-22T08:31:51.000Z</time>
      </trkpt>
      <trkpt lat="42.28673" lon="-0.480297">
        <ele>1423.3</ele>
        <time>2018-07-22T08:31:52.000Z</time>
      </trkpt>
      <trkpt lat="42.28672" lon="-0.480303">
        <ele>1423.5</ele>
        <time>2018-07-22T08:31:53.000Z</time>
      </trkpt>
      <trkpt lat="42.286709" lon="-0.480307">
        <ele>1423.8</ele>
        <time>2018-07-22T08:31:54.000Z</time>
      </trkpt>
      <trkpt lat="42.286698" lon="-0.48031">
        <ele>1424.0</ele>
        <time>2018-07-22T08:31:55.000Z</time>
      </trkpt>
      <trkpt lat="42.286688" lon="-0.48031">
        <ele>1424.3</ele>
        <time>2018-07-22T08:31:56.000Z</time>
      </trkpt>
      <trkpt lat="42.28668" lon="-0.480308">
        <ele>1424.5</ele>
        <time>2018-07-22T08:31:57.000Z</time>
      </trkpt>
      <trkpt lat="42.286673" lon="-0.480303">
        <ele>1424.7</ele>
        <time>2018-07-22T08:31:58.000Z</time>
      </trkpt>
      <trkpt lat="42.286667" lon="-0.480299">
        <ele>1424.8</ele>
        <time>2018-07-22T08:31:59.000Z</time>
      </trkpt>
      <trkpt lat="42.28666" lon="-0.480298">
        <ele>1425.2</ele>
        <time>2018-07-22T08:32:00.000Z</time>
      </trkpt>
      <trkpt lat="42.286654" lon="-0.480298">
        <ele>1425.5</ele>
        <time>2018-07-22T08:32:01.000Z</time>
      </trkpt>
      <trkpt lat="42.286649" lon="-0.480301">
        <ele>1425.7</ele>
        <time>2018-07-22T08:32:02.000Z</time>
      </trkpt>
      <trkpt lat="42.286644" lon="-0.480305">
        <ele>1425.9</ele>
        <time>2018-07-22T08:32:03.000Z</time>
      </trkpt>
      <trkpt lat="42.28664" lon="-0.48031">
        <ele>1426.1</ele>
        <time>2018-07-22T08:32:04.000Z</time>
      </trkpt>
      <trkpt lat="42.286637" lon="-0.480314">
        <ele>1426.2</ele>
        <time>2018-07-22T08:32:05.000Z</time>
      </trkpt>
      <trkpt lat="42.286635" lon="-0.480318">
        <ele>1426.3</ele>
        <time>2018-07-22T08:32:06.000Z</time>
      </trkpt>
      <trkpt lat="42.286633" lon="-0.48032">
        <ele>1426.3</ele>
        <time>2018-07-22T08:32:07.000Z</time>
      </trkpt>
      <trkpt lat="42.286632" lon="-0.480321">
        <ele>1426.4</ele>
        <time>2018-07-22T08:32:08.000Z</time>
      </trkpt>
      <trkpt lat="42.286628" lon="-0.48032">
        <ele>1426.6</ele>
        <time>2018-07-22T08:32:09.000Z</time>
      </trkpt>
      <trkpt lat="42.286621" lon="-0.48032">
        <ele>1426.9</ele>
        <time>2018-07-22T08:32:10.000Z</time>
      </trkpt>
      <trkpt lat="42.286614" lon="-0.48032">
        <ele>1427.3</ele>
        <time>2018-07-22T08:32:11.000Z</time>
      </trkpt>
      <trkpt lat="42.286609" lon="-0.480319">
        <ele>1427.5</ele>
        <time>2018-07-22T08:32:12.000Z</time>
      </trkpt>
      <trkpt lat="42.286605" lon="-0.480319">
        <ele>1427.7</ele>
        <time>2018-07-22T08:32:13.000Z</time>
      </trkpt>
      <trkpt lat="42.286601" lon="-0.480319">
        <ele>1427.9</ele>
        <time>2018-07-22T08:32:14.000Z</time>
      </trkpt>
      <trkpt lat="42.286599" lon="-0.48032">
        <ele>1428.0</ele>
        <time>2018-07-22T08:32:15.000Z</time>
      </trkpt>
      <trkpt lat="42.286596" lon="-0.48032">
        <ele>1428.1</ele>
        <time>2018-07-22T08:32:16.000Z</time>
      </trkpt>
      <trkpt lat="42.286594" lon="-0.480321">
        <ele>1428.2</ele>
        <time>2018-07-22T08:32:17.000Z</time>
      </trkpt>
      <trkpt lat="42.286591" lon="-0.480321">
        <ele>1428.4</ele>
        <time>2018-07-22T08:32:18.000Z</time>
      </trkpt>
      <trkpt lat="42.286589" lon="-0.480322">
        <ele>1428.5</ele>
        <time>2018-07-22T08:32:19.000Z</time>
      </trkpt>
      <trkpt lat="42.286587" lon="-0.480322">
        <ele>1428.6</ele>
        <time>2018-07-22T08:32:20.000Z</time>
      </trkpt>
      <trkpt lat="42.286583" lon="-0.480323">
        <ele>1428.7</ele>
        <time>2018-07-22T08:32:21.000Z</time>
      </trkpt>
      <trkpt lat="42.286578" lon="-0.480323">
        <ele>1429.0</ele>
        <time>2018-07-22T08:32:22.000Z</time>
      </trkpt>
      <trkpt lat="42.286572" lon="-0.480324">
        <ele>1429.3</ele>
        <time>2018-07-22T08:32:23.000Z</time>
      </trkpt>
      <trkpt lat="42.286567" lon="-0.480326">
        <ele>1429.5</ele>
        <time>2018-07-22T08:32:24.000Z</time>
      </trkpt>
      <trkpt lat="42.286562" lon="-0.480332">
        <ele>1429.7</ele>
        <time>2018-07-22T08:32:25.000Z</time>
      </trkpt>
      <trkpt lat="42.286558" lon="-0.480338">
        <ele>1429.9</ele>
        <time>2018-07-22T08:32:26.000Z</time>
      </trkpt>
      <trkpt lat="42.286554" lon="-0.480346">
        <ele>1430.0</ele>
        <time>2018-07-22T08:32:27.000Z</time>
      </trkpt>
      <trkpt lat="42.28655" lon="-0.480354">
        <ele>1430.1</ele>
        <time>2018-07-22T08:32:28.000Z</time>
      </trkpt>
      <trkpt lat="42.286546" lon="-0.480362">
        <ele>1430.3</ele>
        <time>2018-07-22T08:32:29.000Z</time>
      </trkpt>
      <trkpt lat="42.28654" lon="-0.480369">
        <ele>1430.5</ele>
        <time>2018-07-22T08:32:30.000Z</time>
      </trkpt>
      <trkpt lat="42.286534" lon="-0.480376">
        <ele>1430.8</ele>
        <time>2018-07-22T08:32:31.000Z</time>
      </trkpt>
      <trkpt lat="42.286528" lon="-0.480381">
        <ele>1431.1</ele>
        <time>2018-07-22T08:32:32.000Z</time>
      </trkpt>
      <trkpt lat="42.286521" lon="-0.480386">
        <ele>1431.4</ele>
        <time>2018-07-22T08:32:33.000Z</time>
      </trkpt>
      <trkpt lat="42.286515" lon="-0.48039">
        <ele>1431.6</ele>
        <time>2018-07-22T08:32:34.000Z</time>
      </trkpt>
      <trkpt lat="42.286509" lon="-0.480394">
        <ele>1431.9</ele>
        <time>2018-07-22T08:32:35.000Z</time>
      </trkpt>
      <trkpt lat="42.286503" lon="-0.480397">
        <ele>1432.2</ele>
        <time>2018-07-22T08:32:36.000Z</time>
      </trkpt>
      <trkpt lat="42.286498" lon="-0.4804">
        <ele>1432.4</ele>
        <time>2018-07-22T08:32:37.000Z</time>
      </trkpt>
      <trkpt lat="42.286494" lon="-0.480402">
        <ele>1432.6</ele>
        <time>2018-07-22T08:32:38.000Z</time>
      </trkpt>
      <trkpt lat="42.286489" lon="-0.480405">
        <ele>1432.8</ele>
        <time>2018-07-22T08:32:39.000Z</time>
      </trkpt>
      <trkpt lat="42.286485" lon="-0.480407">
        <ele>1433.0</ele>
        <time>2018-07-22T08:32:40.000Z</time>
      </trkpt>
      <trkpt lat="42.286482" lon="-0.480409">
        <ele>1433.1</ele>
        <time>2018-07-22T08:32:41.000Z</time>
      </trkpt>
      <trkpt lat="42.286479" lon="-0.480411">
        <ele>1433.3</ele>
        <time>2018-07-22T08:32:42.000Z</time>
      </trkpt>
      <trkpt lat="42.286477" lon="-0.480412">
        <ele>1433.4</ele>
        <time>2018-07-22T08:32:43.000Z</time>
      </trkpt>
      <trkpt lat="42.286475" lon="-0.480414">
        <ele>1433.4</ele>
        <time>2018-07-22T08:32:44.000Z</time>
      </trkpt>
      <trkpt lat="42.286473" lon="-0.480416">
        <ele>1433.5</ele>
        <time>2018-07-22T08:32:45.000Z</time>
      </trkpt>
      <trkpt lat="42.286472" lon="-0.480418">
        <ele>1433.6</ele>
        <time>2018-07-22T08:32:46.000Z</time>
      </trkpt>
      <trkpt lat="42.286471" lon="-0.480421">
        <ele>1433.6</ele>
        <time>2018-07-22T08:32:47.000Z</time>
      </trkpt>
      <trkpt lat="42.28647" lon="-0.480423">
        <ele>1433.6</ele>
        <time>2018-07-22T08:32:48.000Z</time>
      </trkpt>
      <trkpt lat="42.286468" lon="-0.480425">
        <ele>1433.7</ele>
        <time>2018-07-22T08:32:49.000Z</time>
      </trkpt>
      <trkpt lat="42.286467" lon="-0.480428">
        <ele>1433.8</ele>
        <time>2018-07-22T08:32:50.000Z</time>
      </trkpt>
      <trkpt lat="42.286465" lon="-0.48043">
        <ele>1433.8</ele>
        <time>2018-07-22T08:32:51.000Z</time>
      </trkpt>
      <trkpt lat="42.286461" lon="-0.480432">
        <ele>1434.0</ele>
        <time>2018-07-22T08:32:52.000Z</time>
      </trkpt>
      <trkpt lat="42.286451" lon="-0.48042">
        <ele>1434.6</ele>
        <time>2018-07-22T08:32:53.000Z</time>
      </trkpt>
      <trkpt lat="42.286443" lon="-0.480414">
        <ele>1435.0</ele>
        <time>2018-07-22T08:32:54.000Z</time>
      </trkpt>
      <trkpt lat="42.286438" lon="-0.480411">
        <ele>1435.3</ele>
        <time>2018-07-22T08:32:55.000Z</time>
      </trkpt>
      <trkpt lat="42.286435" lon="-0.480409">
        <ele>1435.4</ele>
        <time>2018-07-22T08:32:56.000Z</time>
      </trkpt>
      <trkpt lat="42.286433" lon="-0.480408">
        <ele>1435.5</ele>
        <time>2018-07-22T08:32:57.000Z</time>
      </trkpt>
      <trkpt lat="42.286432" lon="-0.480407">
        <ele>1435.6</ele>
        <time>2018-07-22T08:32:58.000Z</time>
      </trkpt>
      <trkpt lat="42.28643" lon="-0.480406">
        <ele>1435.7</ele>
        <time>2018-07-22T08:32:59.000Z</time>
      </trkpt>
      <trkpt lat="42.286428" lon="-0.480405">
        <ele>1435.8</ele>
        <time>2018-07-22T08:33:00.000Z</time>
      </trkpt>
      <trkpt lat="42.286426" lon="-0.480404">
        <ele>1435.9</ele>
        <time>2018-07-22T08:33:01.000Z</time>
      </trkpt>
      <trkpt lat="42.286425" lon="-0.480404">
        <ele>1436.0</ele>
        <time>2018-07-22T08:33:02.000Z</time>
      </trkpt>
      <trkpt lat="42.286423" lon="-0.480403">
        <ele>1436.1</ele>
        <time>2018-07-22T08:33:03.000Z</time>
      </trkpt>
      <trkpt lat="42.286421" lon="-0.480402">
        <ele>1436.2</ele>
        <time>2018-07-22T08:33:04.000Z</time>
      </trkpt>
      <trkpt lat="42.286418" lon="-0.480401">
        <ele>1436.3</ele>
        <time>2018-07-22T08:33:05.000Z</time>
      </trkpt>
      <trkpt lat="42.286416" lon="-0.4804">
        <ele>1436.4</ele>
        <time>2018-07-22T08:33:06.000Z</time>
      </trkpt>
      <trkpt lat="42.286413" lon="-0.480398">
        <ele>1436.6</ele>
        <time>2018-07-22T08:33:07.000Z</time>
      </trkpt>
      <trkpt lat="42.28641" lon="-0.480397">
        <ele>1436.7</ele>
        <time>2018-07-22T08:33:08.000Z</time>
      </trkpt>
      <trkpt lat="42.286407" lon="-0.480396">
        <ele>1436.9</ele>
        <time>2018-07-22T08:33:09.000Z</time>
      </trkpt>
      <trkpt lat="42.286406" lon="-0.480396">
        <ele>1436.9</ele>
        <time>2018-07-22T08:33:10.000Z</time>
      </trkpt>
      <trkpt lat="42.286403" lon="-0.480394">
        <ele>1437.1</ele>
        <time>2018-07-22T08:33:11.000Z</time>
      </trkpt>
      <trkpt lat="42.286398" lon="-0.480393">
        <ele>1437.4</ele>
        <time>2018-07-22T08:33:12.000Z</time>
      </trkpt>
      <trkpt lat="42.286394" lon="-0.480392">
        <ele>1437.6</ele>
        <time>2018-07-22T08:33:13.000Z</time>
      </trkpt>
      <trkpt lat="42.28639" lon="-0.480391">
        <ele>1437.8</ele>
        <time>2018-07-22T08:33:14.000Z</time>
      </trkpt>
      <trkpt lat="42.286386" lon="-0.48039">
        <ele>1438.0</ele>
        <time>2018-07-22T08:33:15.000Z</time>
      </trkpt>
      <trkpt lat="42.286384" lon="-0.48039">
        <ele>1438.1</ele>
        <time>2018-07-22T08:33:16.000Z</time>
      </trkpt>
      <trkpt lat="42.286381" lon="-0.480389">
        <ele>1438.2</ele>
        <time>2018-07-22T08:33:17.000Z</time>
      </trkpt>
      <trkpt lat="42.286379" lon="-0.480388">
        <ele>1438.3</ele>
        <time>2018-07-22T08:33:18.000Z</time>
      </trkpt>
      <trkpt lat="42.286377" lon="-0.480388">
        <ele>1438.4</ele>
        <time>2018-07-22T08:33:19.000Z</time>
      </trkpt>
      <trkpt lat="42.286375" lon="-0.480388">
        <ele>1438.5</ele>
        <time>2018-07-22T08:33:20.000Z</time>
      </trkpt>
      <trkpt lat="42.286373" lon="-0.480387">
        <ele>1438.6</ele>
        <time>2018-07-22T08:33:21.000Z</time>
      </trkpt>
      <trkpt lat="42.28637" lon="-0.480387">
        <ele>1438.8</ele>
        <time>2018-07-22T08:33:22.000Z</time>
      </trkpt>
      <trkpt lat="42.286368" lon="-0.480386">
        <ele>1438.9</ele>
        <time>2018-07-22T08:33:23.000Z</time>
      </trkpt>
      <trkpt lat="42.286365" lon="-0.480386">
        <ele>1439.0</ele>
        <time>2018-07-22T08:33:24.000Z</time>
      </trkpt>
      <trkpt lat="42.286361" lon="-0.480386">
        <ele>1439.2</ele>
        <time>2018-07-22T08:33:25.000Z</time>
      </trkpt>
      <trkpt lat="42.286355" lon="-0.480388">
        <ele>1439.5</ele>
        <time>2018-07-22T08:33:26.000Z</time>
      </trkpt>
      <trkpt lat="42.286347" lon="-0.48039">
        <ele>1439.9</ele>
        <time>2018-07-22T08:33:27.000Z</time>
      </trkpt>
      <trkpt lat="42.286345" lon="-0.480391">
        <ele>1440.0</ele>
        <time>2018-07-22T08:33:28.000Z</time>
      </trkpt>
      <trkpt lat="42.286343" lon="-0.480391">
        <ele>1440.1</ele>
        <time>2018-07-22T08:33:29.000Z</time>
      </trkpt>
      <trkpt lat="42.286342" lon="-0.480391">
        <ele>1440.1</ele>
        <time>2018-07-22T08:33:30.000Z</time>
      </trkpt>
      <trkpt lat="42.28634" lon="-0.480392">
        <ele>1440.2</ele>
        <time>2018-07-22T08:33:31.000Z</time>
      </trkpt>
      <trkpt lat="42.286338" lon="-0.480392">
        <ele>1440.3</ele>
        <time>2018-07-22T08:33:32.000Z</time>
      </trkpt>
      <trkpt lat="42.286335" lon="-0.480393">
        <ele>1440.4</ele>
        <time>2018-07-22T08:33:33.000Z</time>
      </trkpt>
      <trkpt lat="42.286333" lon="-0.480394">
        <ele>1440.5</ele>
        <time>2018-07-22T08:33:34.000Z</time>
      </trkpt>
      <trkpt lat="42.28633" lon="-0.480394">
        <ele>1440.7</ele>
        <time>2018-07-22T08:33:35.000Z</time>
      </trkpt>
      <trkpt lat="42.286328" lon="-0.480395">
        <ele>1440.8</ele>
        <time>2018-07-22T08:33:36.000Z</time>
      </trkpt>
      <trkpt lat="42.286325" lon="-0.480396">
        <ele>1440.9</ele>
        <time>2018-07-22T08:33:37.000Z</time>
      </trkpt>
      <trkpt lat="42.286322" lon="-0.480397">
        <ele>1441.1</ele>
        <time>2018-07-22T08:33:38.000Z</time>
      </trkpt>
      <trkpt lat="42.28632" lon="-0.480397">
        <ele>1441.2</ele>
        <time>2018-07-22T08:33:39.000Z</time>
      </trkpt>
      <trkpt lat="42.286317" lon="-0.480398">
        <ele>1441.3</ele>
        <time>2018-07-22T08:33:40.000Z</time>
      </trkpt>
      <trkpt lat="42.286314" lon="-0.480399">
        <ele>1441.4</ele>
        <time>2018-07-22T08:33:41.000Z</time>
      </trkpt>
      <trkpt lat="42.286312" lon="-0.480399">
        <ele>1441.5</ele>
        <time>2018-07-22T08:33:42.000Z</time>
      </trkpt>
      <trkpt lat="42.28631" lon="-0.4804">
        <ele>1441.6</ele>
        <time>2018-07-22T08:33:43.000Z</time>
      </trkpt>
      <trkpt lat="42.286308" lon="-0.4804">
        <ele>1441.7</ele>
        <time>2018-07-22T08:33:44.000Z</time>
      </trkpt>
      <trkpt lat="42.286305" lon="-0.480403">
        <ele>1441.9</ele>
        <time>2018-07-22T08:33:45.000Z</time>
      </trkpt>
      <trkpt lat="42.286296" lon="-0.480407">
        <ele>1442.3</ele>
        <time>2018-07-22T08:33:46.000Z</time>
      </trkpt>
      <trkpt lat="42.28629" lon="-0.480409">
        <ele>1442.6</ele>
        <time>2018-07-22T08:33:47.000Z</time>
      </trkpt>
      <trkpt lat="42.286285" lon="-0.480411">
        <ele>1442.8</ele>
        <time>2018-07-22T08:33:48.000Z</time>
      </trkpt>
      <trkpt lat="42.286281" lon="-0.480413">
        <ele>1443.0</ele>
        <time>2018-07-22T08:33:49.000Z</time>
      </trkpt>
      <trkpt lat="42.286279" lon="-0.480413">
        <ele>1443.1</ele>
        <time>2018-07-22T08:33:50.000Z</time>
      </trkpt>
      <trkpt lat="42.286276" lon="-0.480414">
        <ele>1443.2</ele>
        <time>2018-07-22T08:33:51.000Z</time>
      </trkpt>
      <trkpt lat="42.286274" lon="-0.480415">
        <ele>1443.3</ele>
        <time>2018-07-22T08:33:52.000Z</time>
      </trkpt>
      <trkpt lat="42.286271" lon="-0.480416">
        <ele>1443.5</ele>
        <time>2018-07-22T08:33:53.000Z</time>
      </trkpt>
      <trkpt lat="42.286269" lon="-0.480417">
        <ele>1443.6</ele>
        <time>2018-07-22T08:33:54.000Z</time>
      </trkpt>
      <trkpt lat="42.286266" lon="-0.480418">
        <ele>1443.7</ele>
        <time>2018-07-22T08:33:55.000Z</time>
      </trkpt>
      <trkpt lat="42.286264" lon="-0.480419">
        <ele>1443.8</ele>
        <time>2018-07-22T08:33:56.000Z</time>
      </trkpt>
      <trkpt lat="42.286262" lon="-0.48042">
        <ele>1443.9</ele>
        <time>2018-07-22T08:33:57.000Z</time>
      </trkpt>
      <trkpt lat="42.286261" lon="-0.48042">
        <ele>1443.9</ele>
        <time>2018-07-22T08:33:58.000Z</time>
      </trkpt>
      <trkpt lat="42.286258" lon="-0.480422">
        <ele>1444.1</ele>
        <time>2018-07-22T08:33:59.000Z</time>
      </trkpt>
      <trkpt lat="42.286246" lon="-0.480429">
        <ele>1444.6</ele>
        <time>2018-07-22T08:34:00.000Z</time>
      </trkpt>
      <trkpt lat="42.286239" lon="-0.480434">
        <ele>1445.0</ele>
        <time>2018-07-22T08:34:01.000Z</time>
      </trkpt>
      <trkpt lat="42.286235" lon="-0.480437">
        <ele>1445.1</ele>
        <time>2018-07-22T08:34:02.000Z</time>
      </trkpt>
      <trkpt lat="42.286233" lon="-0.480438">
        <ele>1445.2</ele>
        <time>2018-07-22T08:34:03.000Z</time>
      </trkpt>
      <trkpt lat="42.286231" lon="-0.48044">
        <ele>1445.3</ele>
        <time>2018-07-22T08:34:04.000Z</time>
      </trkpt>
      <trkpt lat="42.28623" lon="-0.48044">
        <ele>1445.4</ele>
        <time>2018-07-22T08:34:05.000Z</time>
      </trkpt>
      <trkpt lat="42.286229" lon="-0.480441">
        <ele>1445.4</ele>
        <time>2018-07-22T08:34:06.000Z</time>
      </trkpt>
      <trkpt lat="42.286228" lon="-0.480442">
        <ele>1445.5</ele>
        <time>2018-07-22T08:34:07.000Z</time>
      </trkpt>
      <trkpt lat="42.286227" lon="-0.480443">
        <ele>1445.5</ele>
        <time>2018-07-22T08:34:08.000Z</time>
      </trkpt>
      <trkpt lat="42.286225" lon="-0.480444">
        <ele>1445.6</ele>
        <time>2018-07-22T08:34:09.000Z</time>
      </trkpt>
      <trkpt lat="42.286222" lon="-0.480446">
        <ele>1445.7</ele>
        <time>2018-07-22T08:34:10.000Z</time>
      </trkpt>
      <trkpt lat="42.28622" lon="-0.480448">
        <ele>1445.8</ele>
        <time>2018-07-22T08:34:11.000Z</time>
      </trkpt>
      <trkpt lat="42.286217" lon="-0.480449">
        <ele>1446.0</ele>
        <time>2018-07-22T08:34:12.000Z</time>
      </trkpt>
      <trkpt lat="42.286215" lon="-0.48045">
        <ele>1446.1</ele>
        <time>2018-07-22T08:34:13.000Z</time>
      </trkpt>
      <trkpt lat="42.286213" lon="-0.480452">
        <ele>1446.2</ele>
        <time>2018-07-22T08:34:14.000Z</time>
      </trkpt>
      <trkpt lat="42.286206" lon="-0.480458">
        <ele>1446.5</ele>
        <time>2018-07-22T08:34:15.000Z</time>
      </trkpt>
      <trkpt lat="42.286196" lon="-0.480461">
        <ele>1447.0</ele>
        <time>2018-07-22T08:34:16.000Z</time>
      </trkpt>
      <trkpt lat="42.286188" lon="-0.480461">
        <ele>1447.4</ele>
        <time>2018-07-22T08:34:17.000Z</time>
      </trkpt>
      <trkpt lat="42.286183" lon="-0.480461">
        <ele>1447.6</ele>
        <time>2018-07-22T08:34:18.000Z</time>
      </trkpt>
      <trkpt lat="42.28618" lon="-0.480461">
        <ele>1447.7</ele>
        <time>2018-07-22T08:34:19.000Z</time>
      </trkpt>
      <trkpt lat="42.286179" lon="-0.480462">
        <ele>1447.8</ele>
        <time>2018-07-22T08:34:20.000Z</time>
      </trkpt>
      <trkpt lat="42.286178" lon="-0.480462">
        <ele>1447.8</ele>
        <time>2018-07-22T08:34:21.000Z</time>
      </trkpt>
      <trkpt lat="42.286177" lon="-0.480462">
        <ele>1447.9</ele>
        <time>2018-07-22T08:34:22.000Z</time>
      </trkpt>
      <trkpt lat="42.286177" lon="-0.480463">
        <ele>1447.9</ele>
        <time>2018-07-22T08:34:23.000Z</time>
      </trkpt>
      <trkpt lat="42.286175" lon="-0.480463">
        <ele>1448.0</ele>
        <time>2018-07-22T08:34:24.000Z</time>
      </trkpt>
      <trkpt lat="42.286173" lon="-0.480463">
        <ele>1448.1</ele>
        <time>2018-07-22T08:34:25.000Z</time>
      </trkpt>
      <trkpt lat="42.286171" lon="-0.480464">
        <ele>1448.2</ele>
        <time>2018-07-22T08:34:26.000Z</time>
      </trkpt>
      <trkpt lat="42.286169" lon="-0.480464">
        <ele>1448.3</ele>
        <time>2018-07-22T08:34:27.000Z</time>
      </trkpt>
      <trkpt lat="42.286166" lon="-0.480465">
        <ele>1448.4</ele>
        <time>2018-07-22T08:34:28.000Z</time>
      </trkpt>
      <trkpt lat="42.286164" lon="-0.480465">
        <ele>1448.5</ele>
        <time>2018-07-22T08:34:29.000Z</time>
      </trkpt>
      <trkpt lat="42.286161" lon="-0.480466">
        <ele>1448.7</ele>
        <time>2018-07-22T08:34:30.000Z</time>
      </trkpt>
      <trkpt lat="42.286159" lon="-0.480466">
        <ele>1448.8</ele>
        <time>2018-07-22T08:34:31.000Z</time>
      </trkpt>
      <trkpt lat="42.286157" lon="-0.480467">
        <ele>1448.9</ele>
        <time>2018-07-22T08:34:32.000Z</time>
      </trkpt>
      <trkpt lat="42.286155" lon="-0.480467">
        <ele>1449.0</ele>
        <time>2018-07-22T08:34:33.000Z</time>
      </trkpt>
      <trkpt lat="42.286151" lon="-0.480471">
        <ele>1449.1</ele>
        <time>2018-07-22T08:34:34.000Z</time>
      </trkpt>
      <trkpt lat="42.286144" lon="-0.480478">
        <ele>1449.5</ele>
        <time>2018-07-22T08:34:35.000Z</time>
      </trkpt>
      <trkpt lat="42.28614" lon="-0.48048">
        <ele>1449.6</ele>
        <time>2018-07-22T08:34:36.000Z</time>
      </trkpt>
      <trkpt lat="42.286135" lon="-0.480484">
        <ele>1449.9</ele>
        <time>2018-07-22T08:34:37.000Z</time>
      </trkpt>
      <trkpt lat="42.286131" lon="-0.480488">
        <ele>1450.1</ele>
        <time>2018-07-22T08:34:38.000Z</time>
      </trkpt>
      <trkpt lat="42.286128" lon="-0.480491">
        <ele>1450.2</ele>
        <time>2018-07-22T08:34:39.000Z</time>
      </trkpt>
      <trkpt lat="42.286127" lon="-0.480493">
        <ele>1450.2</ele>
        <time>2018-07-22T08:34:40.000Z</time>
      </trkpt>
      <trkpt lat="42.286125" lon="-0.480495">
        <ele>1450.3</ele>
        <time>2018-07-22T08:34:41.000Z</time>
      </trkpt>
      <trkpt lat="42.286123" lon="-0.480497">
        <ele>1450.4</ele>
        <time>2018-07-22T08:34:42.000Z</time>
      </trkpt>
      <trkpt lat="42.286121" lon="-0.480499">
        <ele>1450.5</ele>
        <time>2018-07-22T08:34:43.000Z</time>
      </trkpt>
      <trkpt lat="42.286118" lon="-0.4805">
        <ele>1450.7</ele>
        <time>2018-07-22T08:34:44.000Z</time>
      </trkpt>
      <trkpt lat="42.286116" lon="-0.480502">
        <ele>1450.7</ele>
        <time>2018-07-22T08:34:45.000Z</time>
      </trkpt>
      <trkpt lat="42.286114" lon="-0.480504">
        <ele>1450.8</ele>
        <time>2018-07-22T08:34:46.000Z</time>
      </trkpt>
      <trkpt lat="42.286112" lon="-0.480506">
        <ele>1450.9</ele>
        <time>2018-07-22T08:34:47.000Z</time>
      </trkpt>
      <trkpt lat="42.28611" lon="-0.480507">
        <ele>1451.0</ele>
        <time>2018-07-22T08:34:48.000Z</time>
      </trkpt>
      <trkpt lat="42.286108" lon="-0.48051">
        <ele>1451.1</ele>
        <time>2018-07-22T08:34:49.000Z</time>
      </trkpt>
      <trkpt lat="42.286103" lon="-0.480515">
        <ele>1451.3</ele>
        <time>2018-07-22T08:34:50.000Z</time>
      </trkpt>
      <trkpt lat="42.286098" lon="-0.480521">
        <ele>1451.6</ele>
        <time>2018-07-22T08:34:51.000Z</time>
      </trkpt>
      <trkpt lat="42.286094" lon="-0.480526">
        <ele>1451.7</ele>
        <time>2018-07-22T08:34:52.000Z</time>
      </trkpt>
      <trkpt lat="42.286092" lon="-0.480529">
        <ele>1451.8</ele>
        <time>2018-07-22T08:34:53.000Z</time>
      </trkpt>
      <trkpt lat="42.28609" lon="-0.480532">
        <ele>1451.9</ele>
        <time>2018-07-22T08:34:54.000Z</time>
      </trkpt>
      <trkpt lat="42.286089" lon="-0.480534">
        <ele>1452.0</ele>
        <time>2018-07-22T08:34:55.000Z</time>
      </trkpt>
      <trkpt lat="42.286087" lon="-0.480535">
        <ele>1452.1</ele>
        <time>2018-07-22T08:34:56.000Z</time>
      </trkpt>
      <trkpt lat="42.286086" lon="-0.480537">
        <ele>1452.1</ele>
        <time>2018-07-22T08:34:57.000Z</time>
      </trkpt>
      <trkpt lat="42.286085" lon="-0.480538">
        <ele>1452.2</ele>
        <time>2018-07-22T08:34:58.000Z</time>
      </trkpt>
      <trkpt lat="42.286084" lon="-0.480539">
        <ele>1452.2</ele>
        <time>2018-07-22T08:34:59.000Z</time>
      </trkpt>
      <trkpt lat="42.286083" lon="-0.48054">
        <ele>1452.2</ele>
        <time>2018-07-22T08:35:00.000Z</time>
      </trkpt>
      <trkpt lat="42.286081" lon="-0.480541">
        <ele>1452.3</ele>
        <time>2018-07-22T08:35:01.000Z</time>
      </trkpt>
      <trkpt lat="42.28608" lon="-0.480543">
        <ele>1452.4</ele>
        <time>2018-07-22T08:35:02.000Z</time>
      </trkpt>
      <trkpt lat="42.286079" lon="-0.480544">
        <ele>1452.4</ele>
        <time>2018-07-22T08:35:03.000Z</time>
      </trkpt>
      <trkpt lat="42.286077" lon="-0.480546">
        <ele>1452.5</ele>
        <time>2018-07-22T08:35:04.000Z</time>
      </trkpt>
      <trkpt lat="42.286076" lon="-0.480548">
        <ele>1452.6</ele>
        <time>2018-07-22T08:35:05.000Z</time>
      </trkpt>
      <trkpt lat="42.286073" lon="-0.48055">
        <ele>1452.7</ele>
        <time>2018-07-22T08:35:06.000Z</time>
      </trkpt>
      <trkpt lat="42.286072" lon="-0.480552">
        <ele>1452.7</ele>
        <time>2018-07-22T08:35:07.000Z</time>
      </trkpt>
      <trkpt lat="42.28607" lon="-0.480553">
        <ele>1452.8</ele>
        <time>2018-07-22T08:35:08.000Z</time>
      </trkpt>
      <trkpt lat="42.286062" lon="-0.480556">
        <ele>1453.2</ele>
        <time>2018-07-22T08:35:09.000Z</time>
      </trkpt>
      <trkpt lat="42.286055" lon="-0.480556">
        <ele>1453.6</ele>
        <time>2018-07-22T08:35:10.000Z</time>
      </trkpt>
      <trkpt lat="42.28605" lon="-0.480555">
        <ele>1453.8</ele>
        <time>2018-07-22T08:35:11.000Z</time>
      </trkpt>
      <trkpt lat="42.286045" lon="-0.480551">
        <ele>1454.1</ele>
        <time>2018-07-22T08:35:12.000Z</time>
      </trkpt>
      <trkpt lat="42.286041" lon="-0.480548">
        <ele>1454.3</ele>
        <time>2018-07-22T08:35:13.000Z</time>
      </trkpt>
      <trkpt lat="42.286038" lon="-0.480545">
        <ele>1454.5</ele>
        <time>2018-07-22T08:35:14.000Z</time>
      </trkpt>
      <trkpt lat="42.286036" lon="-0.480544">
        <ele>1454.6</ele>
        <time>2018-07-22T08:35:15.000Z</time>
      </trkpt>
      <trkpt lat="42.286034" lon="-0.480542">
        <ele>1454.7</ele>
        <time>2018-07-22T08:35:16.000Z</time>
      </trkpt>
      <trkpt lat="42.286032" lon="-0.480541">
        <ele>1454.8</ele>
        <time>2018-07-22T08:35:17.000Z</time>
      </trkpt>
      <trkpt lat="42.28603" lon="-0.48054">
        <ele>1454.9</ele>
        <time>2018-07-22T08:35:18.000Z</time>
      </trkpt>
      <trkpt lat="42.286027" lon="-0.480538">
        <ele>1455.0</ele>
        <time>2018-07-22T08:35:19.000Z</time>
      </trkpt>
      <trkpt lat="42.286025" lon="-0.480536">
        <ele>1455.2</ele>
        <time>2018-07-22T08:35:20.000Z</time>
      </trkpt>
      <trkpt lat="42.286023" lon="-0.480535">
        <ele>1455.3</ele>
        <time>2018-07-22T08:35:21.000Z</time>
      </trkpt>
      <trkpt lat="42.286021" lon="-0.480534">
        <ele>1455.4</ele>
        <time>2018-07-22T08:35:22.000Z</time>
      </trkpt>
      <trkpt lat="42.286019" lon="-0.480533">
        <ele>1455.5</ele>
        <time>2018-07-22T08:35:23.000Z</time>
      </trkpt>
      <trkpt lat="42.286018" lon="-0.480532">
        <ele>1455.5</ele>
        <time>2018-07-22T08:35:24.000Z</time>
      </trkpt>
      <trkpt lat="42.286014" lon="-0.480529">
        <ele>1455.7</ele>
        <time>2018-07-22T08:35:25.000Z</time>
      </trkpt>
      <trkpt lat="42.28601" lon="-0.480527">
        <ele>1455.9</ele>
        <time>2018-07-22T08:35:26.000Z</time>
      </trkpt>
      <trkpt lat="42.286007" lon="-0.480524">
        <ele>1456.1</ele>
        <time>2018-07-22T08:35:27.000Z</time>
      </trkpt>
      <trkpt lat="42.286004" lon="-0.480522">
        <ele>1456.2</ele>
        <time>2018-07-22T08:35:28.000Z</time>
      </trkpt>
      <trkpt lat="42.286001" lon="-0.480519">
        <ele>1456.4</ele>
        <time>2018-07-22T08:35:29.000Z</time>
      </trkpt>
      <trkpt lat="42.285999" lon="-0.480518">
        <ele>1456.5</ele>
        <time>2018-07-22T08:35:30.000Z</time>
      </trkpt>
      <trkpt lat="42.285996" lon="-0.480516">
        <ele>1456.7</ele>
        <time>2018-07-22T08:35:31.000Z</time>
      </trkpt>
      <trkpt lat="42.285994" lon="-0.480515">
        <ele>1456.8</ele>
        <time>2018-07-22T08:35:32.000Z</time>
      </trkpt>
      <trkpt lat="42.285991" lon="-0.480515">
        <ele>1456.9</ele>
        <time>2018-07-22T08:35:33.000Z</time>
      </trkpt>
      <trkpt lat="42.285989" lon="-0.480514">
        <ele>1457.0</ele>
        <time>2018-07-22T08:35:34.000Z</time>
      </trkpt>
      <trkpt lat="42.285986" lon="-0.480514">
        <ele>1457.2</ele>
        <time>2018-07-22T08:35:35.000Z</time>
      </trkpt>
      <trkpt lat="42.285983" lon="-0.480513">
        <ele>1457.3</ele>
        <time>2018-07-22T08:35:36.000Z</time>
      </trkpt>
      <trkpt lat="42.285979" lon="-0.480512">
        <ele>1457.5</ele>
        <time>2018-07-22T08:35:37.000Z</time>
      </trkpt>
      <trkpt lat="42.285976" lon="-0.480514">
        <ele>1457.7</ele>
        <time>2018-07-22T08:35:38.000Z</time>
      </trkpt>
      <trkpt lat="42.285972" lon="-0.480517">
        <ele>1457.9</ele>
        <time>2018-07-22T08:35:39.000Z</time>
      </trkpt>
      <trkpt lat="42.285969" lon="-0.480519">
        <ele>1458.0</ele>
        <time>2018-07-22T08:35:40.000Z</time>
      </trkpt>
      <trkpt lat="42.285967" lon="-0.480521">
        <ele>1458.1</ele>
        <time>2018-07-22T08:35:41.000Z</time>
      </trkpt>
      <trkpt lat="42.285964" lon="-0.480523">
        <ele>1458.2</ele>
        <time>2018-07-22T08:35:42.000Z</time>
      </trkpt>
      <trkpt lat="42.285962" lon="-0.480524">
        <ele>1458.3</ele>
        <time>2018-07-22T08:35:43.000Z</time>
      </trkpt>
      <trkpt lat="42.28596" lon="-0.480524">
        <ele>1458.4</ele>
        <time>2018-07-22T08:35:44.000Z</time>
      </trkpt>
      <trkpt lat="42.285958" lon="-0.480525">
        <ele>1458.5</ele>
        <time>2018-07-22T08:35:45.000Z</time>
      </trkpt>
      <trkpt lat="42.285957" lon="-0.480526">
        <ele>1458.6</ele>
        <time>2018-07-22T08:35:46.000Z</time>
      </trkpt>
      <trkpt lat="42.285955" lon="-0.480527">
        <ele>1458.7</ele>
        <time>2018-07-22T08:35:47.000Z</time>
      </trkpt>
      <trkpt lat="42.285953" lon="-0.480528">
        <ele>1458.8</ele>
        <time>2018-07-22T08:35:48.000Z</time>
      </trkpt>
      <trkpt lat="42.285951" lon="-0.480531">
        <ele>1458.9</ele>
        <time>2018-07-22T08:35:49.000Z</time>
      </trkpt>
      <trkpt lat="42.285948" lon="-0.480533">
        <ele>1459.0</ele>
        <time>2018-07-22T08:35:50.000Z</time>
      </trkpt>
      <trkpt lat="42.285945" lon="-0.480537">
        <ele>1459.1</ele>
        <time>2018-07-22T08:35:51.000Z</time>
      </trkpt>
      <trkpt lat="42.285941" lon="-0.480541">
        <ele>1459.3</ele>
        <time>2018-07-22T08:35:52.000Z</time>
      </trkpt>
      <trkpt lat="42.285936" lon="-0.480545">
        <ele>1459.6</ele>
        <time>2018-07-22T08:35:53.000Z</time>
      </trkpt>
      <trkpt lat="42.285932" lon="-0.480547">
        <ele>1459.8</ele>
        <time>2018-07-22T08:35:54.000Z</time>
      </trkpt>
      <trkpt lat="42.285928" lon="-0.480548">
        <ele>1460.0</ele>
        <time>2018-07-22T08:35:55.000Z</time>
      </trkpt>
      <trkpt lat="42.285925" lon="-0.480548">
        <ele>1460.1</ele>
        <time>2018-07-22T08:35:56.000Z</time>
      </trkpt>
      <trkpt lat="42.285923" lon="-0.480549">
        <ele>1460.2</ele>
        <time>2018-07-22T08:35:57.000Z</time>
      </trkpt>
      <trkpt lat="42.285921" lon="-0.48055">
        <ele>1460.3</ele>
        <time>2018-07-22T08:35:58.000Z</time>
      </trkpt>
      <trkpt lat="42.285919" lon="-0.480551">
        <ele>1460.4</ele>
        <time>2018-07-22T08:35:59.000Z</time>
      </trkpt>
      <trkpt lat="42.285918" lon="-0.480551">
        <ele>1460.4</ele>
        <time>2018-07-22T08:36:00.000Z</time>
      </trkpt>
      <trkpt lat="42.285916" lon="-0.480552">
        <ele>1460.5</ele>
        <time>2018-07-22T08:36:01.000Z</time>
      </trkpt>
      <trkpt lat="42.285915" lon="-0.480552">
        <ele>1460.6</ele>
        <time>2018-07-22T08:36:02.000Z</time>
      </trkpt>
      <trkpt lat="42.285913" lon="-0.480552">
        <ele>1460.7</ele>
        <time>2018-07-22T08:36:03.000Z</time>
      </trkpt>
      <trkpt lat="42.285911" lon="-0.480552">
        <ele>1460.8</ele>
        <time>2018-07-22T08:36:04.000Z</time>
      </trkpt>
      <trkpt lat="42.285909" lon="-0.480552">
        <ele>1460.9</ele>
        <time>2018-07-22T08:36:05.000Z</time>
      </trkpt>
      <trkpt lat="42.285907" lon="-0.480554">
        <ele>1461.0</ele>
        <time>2018-07-22T08:36:06.000Z</time>
      </trkpt>
      <trkpt lat="42.285904" lon="-0.480556">
        <ele>1461.1</ele>
        <time>2018-07-22T08:36:07.000Z</time>
      </trkpt>
      <trkpt lat="42.2859" lon="-0.480562">
        <ele>1461.3</ele>
        <time>2018-07-22T08:36:08.000Z</time>
      </trkpt>
      <trkpt lat="42.285894" lon="-0.480571">
        <ele>1461.6</ele>
        <time>2018-07-22T08:36:09.000Z</time>
      </trkpt>
      <trkpt lat="42.285888" lon="-0.480583">
        <ele>1461.9</ele>
        <time>2018-07-22T08:36:10.000Z</time>
      </trkpt>
      <trkpt lat="42.285883" lon="-0.480588">
        <ele>1462.1</ele>
        <time>2018-07-22T08:36:11.000Z</time>
      </trkpt>
      <trkpt lat="42.285879" lon="-0.48059">
        <ele>1462.3</ele>
        <time>2018-07-22T08:36:12.000Z</time>
      </trkpt>
      <trkpt lat="42.285875" lon="-0.480592">
        <ele>1462.5</ele>
        <time>2018-07-22T08:36:13.000Z</time>
      </trkpt>
      <trkpt lat="42.285873" lon="-0.480593">
        <ele>1462.6</ele>
        <time>2018-07-22T08:36:14.000Z</time>
      </trkpt>
      <trkpt lat="42.28587" lon="-0.480594">
        <ele>1462.7</ele>
        <time>2018-07-22T08:36:15.000Z</time>
      </trkpt>
      <trkpt lat="42.285868" lon="-0.480594">
        <ele>1462.8</ele>
        <time>2018-07-22T08:36:16.000Z</time>
      </trkpt>
      <trkpt lat="42.285866" lon="-0.480594">
        <ele>1462.9</ele>
        <time>2018-07-22T08:36:17.000Z</time>
      </trkpt>
      <trkpt lat="42.285864" lon="-0.480595">
        <ele>1463.0</ele>
        <time>2018-07-22T08:36:18.000Z</time>
      </trkpt>
      <trkpt lat="42.285861" lon="-0.480596">
        <ele>1463.2</ele>
        <time>2018-07-22T08:36:19.000Z</time>
      </trkpt>
      <trkpt lat="42.285859" lon="-0.480596">
        <ele>1463.3</ele>
        <time>2018-07-22T08:36:20.000Z</time>
      </trkpt>
      <trkpt lat="42.285857" lon="-0.480597">
        <ele>1463.4</ele>
        <time>2018-07-22T08:36:21.000Z</time>
      </trkpt>
      <trkpt lat="42.285855" lon="-0.480597">
        <ele>1463.5</ele>
        <time>2018-07-22T08:36:22.000Z</time>
      </trkpt>
      <trkpt lat="42.285854" lon="-0.480597">
        <ele>1463.5</ele>
        <time>2018-07-22T08:36:23.000Z</time>
      </trkpt>
      <trkpt lat="42.285851" lon="-0.480598">
        <ele>1463.7</ele>
        <time>2018-07-22T08:36:24.000Z</time>
      </trkpt>
      <trkpt lat="42.285846" lon="-0.480601">
        <ele>1463.9</ele>
        <time>2018-07-22T08:36:25.000Z</time>
      </trkpt>
      <trkpt lat="42.285838" lon="-0.480605">
        <ele>1464.3</ele>
        <time>2018-07-22T08:36:26.000Z</time>
      </trkpt>
      <trkpt lat="42.285833" lon="-0.480608">
        <ele>1464.6</ele>
        <time>2018-07-22T08:36:27.000Z</time>
      </trkpt>
      <trkpt lat="42.285829" lon="-0.480611">
        <ele>1464.7</ele>
        <time>2018-07-22T08:36:28.000Z</time>
      </trkpt>
      <trkpt lat="42.285825" lon="-0.480613">
        <ele>1464.9</ele>
        <time>2018-07-22T08:36:29.000Z</time>
      </trkpt>
      <trkpt lat="42.285823" lon="-0.480615">
        <ele>1465.0</ele>
        <time>2018-07-22T08:36:30.000Z</time>
      </trkpt>
      <trkpt lat="42.285821" lon="-0.480616">
        <ele>1465.1</ele>
        <time>2018-07-22T08:36:31.000Z</time>
      </trkpt>
      <trkpt lat="42.285819" lon="-0.480617">
        <ele>1465.2</ele>
        <time>2018-07-22T08:36:32.000Z</time>
      </trkpt>
      <trkpt lat="42.285817" lon="-0.480618">
        <ele>1465.3</ele>
        <time>2018-07-22T08:36:33.000Z</time>
      </trkpt>
      <trkpt lat="42.285816" lon="-0.480619">
        <ele>1465.3</ele>
        <time>2018-07-22T08:36:34.000Z</time>
      </trkpt>
      <trkpt lat="42.285814" lon="-0.48062">
        <ele>1465.4</ele>
        <time>2018-07-22T08:36:35.000Z</time>
      </trkpt>
      <trkpt lat="42.285812" lon="-0.480621">
        <ele>1465.5</ele>
        <time>2018-07-22T08:36:36.000Z</time>
      </trkpt>
      <trkpt lat="42.285811" lon="-0.480622">
        <ele>1465.6</ele>
        <time>2018-07-22T08:36:37.000Z</time>
      </trkpt>
      <trkpt lat="42.285809" lon="-0.480623">
        <ele>1465.7</ele>
        <time>2018-07-22T08:36:38.000Z</time>
      </trkpt>
      <trkpt lat="42.285806" lon="-0.480624">
        <ele>1465.8</ele>
        <time>2018-07-22T08:36:39.000Z</time>
      </trkpt>
      <trkpt lat="42.285803" lon="-0.480625">
        <ele>1465.9</ele>
        <time>2018-07-22T08:36:40.000Z</time>
      </trkpt>
      <trkpt lat="42.285798" lon="-0.480628">
        <ele>1466.2</ele>
        <time>2018-07-22T08:36:41.000Z</time>
      </trkpt>
      <trkpt lat="42.285789" lon="-0.480631">
        <ele>1466.6</ele>
        <time>2018-07-22T08:36:42.000Z</time>
      </trkpt>
      <trkpt lat="42.285783" lon="-0.480633">
        <ele>1466.9</ele>
        <time>2018-07-22T08:36:43.000Z</time>
      </trkpt>
      <trkpt lat="42.285778" lon="-0.480635">
        <ele>1467.1</ele>
        <time>2018-07-22T08:36:44.000Z</time>
      </trkpt>
      <trkpt lat="42.285775" lon="-0.480636">
        <ele>1467.3</ele>
        <time>2018-07-22T08:36:45.000Z</time>
      </trkpt>
      <trkpt lat="42.285771" lon="-0.480637">
        <ele>1467.5</ele>
        <time>2018-07-22T08:36:46.000Z</time>
      </trkpt>
      <trkpt lat="42.285768" lon="-0.480639">
        <ele>1467.6</ele>
        <time>2018-07-22T08:36:47.000Z</time>
      </trkpt>
      <trkpt lat="42.285765" lon="-0.48064">
        <ele>1467.7</ele>
        <time>2018-07-22T08:36:48.000Z</time>
      </trkpt>
      <trkpt lat="42.285763" lon="-0.48064">
        <ele>1467.8</ele>
        <time>2018-07-22T08:36:49.000Z</time>
      </trkpt>
      <trkpt lat="42.28576" lon="-0.480641">
        <ele>1468.0</ele>
        <time>2018-07-22T08:36:50.000Z</time>
      </trkpt>
      <trkpt lat="42.285758" lon="-0.480641">
        <ele>1468.1</ele>
        <time>2018-07-22T08:36:51.000Z</time>
      </trkpt>
      <trkpt lat="42.285756" lon="-0.480642">
        <ele>1468.2</ele>
        <time>2018-07-22T08:36:52.000Z</time>
      </trkpt>
      <trkpt lat="42.285754" lon="-0.480642">
        <ele>1468.3</ele>
        <time>2018-07-22T08:36:53.000Z</time>
      </trkpt>
      <trkpt lat="42.285753" lon="-0.480642">
        <ele>1468.3</ele>
        <time>2018-07-22T08:36:54.000Z</time>
      </trkpt>
      <trkpt lat="42.285751" lon="-0.480642">
        <ele>1468.4</ele>
        <time>2018-07-22T08:36:55.000Z</time>
      </trkpt>
      <trkpt lat="42.28575" lon="-0.480641">
        <ele>1468.5</ele>
        <time>2018-07-22T08:36:56.000Z</time>
      </trkpt>
      <trkpt lat="42.285749" lon="-0.480641">
        <ele>1468.5</ele>
        <time>2018-07-22T08:36:57.000Z</time>
      </trkpt>
      <trkpt lat="42.285747" lon="-0.480641">
        <ele>1468.6</ele>
        <time>2018-07-22T08:36:58.000Z</time>
      </trkpt>
      <trkpt lat="42.285746" lon="-0.480641">
        <ele>1468.7</ele>
        <time>2018-07-22T08:36:59.000Z</time>
      </trkpt>
      <trkpt lat="42.285744" lon="-0.480641">
        <ele>1468.7</ele>
        <time>2018-07-22T08:37:00.000Z</time>
      </trkpt>
      <trkpt lat="42.285743" lon="-0.480641">
        <ele>1468.8</ele>
        <time>2018-07-22T08:37:01.000Z</time>
      </trkpt>
      <trkpt lat="42.285742" lon="-0.480642">
        <ele>1468.8</ele>
        <time>2018-07-22T08:37:02.000Z</time>
      </trkpt>
      <trkpt lat="42.285741" lon="-0.480642">
        <ele>1468.9</ele>
        <time>2018-07-22T08:37:03.000Z</time>
      </trkpt>
      <trkpt lat="42.28574" lon="-0.480642">
        <ele>1468.9</ele>
        <time>2018-07-22T08:37:04.000Z</time>
      </trkpt>
      <trkpt lat="42.285738" lon="-0.480643">
        <ele>1469.0</ele>
        <time>2018-07-22T08:37:05.000Z</time>
      </trkpt>
      <trkpt lat="42.285735" lon="-0.480643">
        <ele>1469.2</ele>
        <time>2018-07-22T08:37:06.000Z</time>
      </trkpt>
      <trkpt lat="42.285731" lon="-0.480643">
        <ele>1469.4</ele>
        <time>2018-07-22T08:37:07.000Z</time>
      </trkpt>
      <trkpt lat="42.285728" lon="-0.480643">
        <ele>1469.5</ele>
        <time>2018-07-22T08:37:08.000Z</time>
      </trkpt>
      <trkpt lat="42.285726" lon="-0.480643">
        <ele>1469.6</ele>
        <time>2018-07-22T08:37:09.000Z</time>
      </trkpt>
      <trkpt lat="42.285724" lon="-0.480643">
        <ele>1469.7</ele>
        <time>2018-07-22T08:37:10.000Z</time>
      </trkpt>
      <trkpt lat="42.285723" lon="-0.480644">
        <ele>1469.8</ele>
        <time>2018-07-22T08:37:11.000Z</time>
      </trkpt>
      <trkpt lat="42.285722" lon="-0.480644">
        <ele>1469.8</ele>
        <time>2018-07-22T08:37:12.000Z</time>
      </trkpt>
      <trkpt lat="42.285722" lon="-0.480644">
        <ele>1469.8</ele>
        <time>2018-07-22T08:37:13.000Z</time>
      </trkpt>
      <trkpt lat="42.285721" lon="-0.480644">
        <ele>1469.9</ele>
        <time>2018-07-22T08:37:14.000Z</time>
      </trkpt>
      <trkpt lat="42.28572" lon="-0.480644">
        <ele>1469.9</ele>
        <time>2018-07-22T08:37:15.000Z</time>
      </trkpt>
      <trkpt lat="42.285719" lon="-0.480644">
        <ele>1469.9</ele>
        <time>2018-07-22T08:37:16.000Z</time>
      </trkpt>
      <trkpt lat="42.285718" lon="-0.480644">
        <ele>1470.0</ele>
        <time>2018-07-22T08:37:17.000Z</time>
      </trkpt>
      <trkpt lat="42.285718" lon="-0.480644">
        <ele>1470.0</ele>
        <time>2018-07-22T08:37:18.000Z</time>
      </trkpt>
      <trkpt lat="42.285717" lon="-0.480644">
        <ele>1470.0</ele>
        <time>2018-07-22T08:37:19.000Z</time>
      </trkpt>
      <trkpt lat="42.285716" lon="-0.480645">
        <ele>1470.1</ele>
        <time>2018-07-22T08:37:20.000Z</time>
      </trkpt>
      <trkpt lat="42.285715" lon="-0.480645">
        <ele>1470.1</ele>
        <time>2018-07-22T08:37:21.000Z</time>
      </trkpt>
      <trkpt lat="42.285713" lon="-0.480645">
        <ele>1470.2</ele>
        <time>2018-07-22T08:37:22.000Z</time>
      </trkpt>
      <trkpt lat="42.285712" lon="-0.480646">
        <ele>1470.3</ele>
        <time>2018-07-22T08:37:23.000Z</time>
      </trkpt>
      <trkpt lat="42.28571" lon="-0.480647">
        <ele>1470.4</ele>
        <time>2018-07-22T08:37:24.000Z</time>
      </trkpt>
      <trkpt lat="42.285708" lon="-0.480647">
        <ele>1470.5</ele>
        <time>2018-07-22T08:37:25.000Z</time>
      </trkpt>
      <trkpt lat="42.285705" lon="-0.480648">
        <ele>1470.6</ele>
        <time>2018-07-22T08:37:26.000Z</time>
      </trkpt>
      <trkpt lat="42.285702" lon="-0.480649">
        <ele>1470.8</ele>
        <time>2018-07-22T08:37:27.000Z</time>
      </trkpt>
      <trkpt lat="42.285699" lon="-0.480651">
        <ele>1470.9</ele>
        <time>2018-07-22T08:37:28.000Z</time>
      </trkpt>
      <trkpt lat="42.285697" lon="-0.480651">
        <ele>1471.0</ele>
        <time>2018-07-22T08:37:29.000Z</time>
      </trkpt>
      <trkpt lat="42.285694" lon="-0.480653">
        <ele>1471.2</ele>
        <time>2018-07-22T08:37:30.000Z</time>
      </trkpt>
      <trkpt lat="42.285691" lon="-0.480654">
        <ele>1471.3</ele>
        <time>2018-07-22T08:37:31.000Z</time>
      </trkpt>
      <trkpt lat="42.285689" lon="-0.480655">
        <ele>1471.4</ele>
        <time>2018-07-22T08:37:32.000Z</time>
      </trkpt>
      <trkpt lat="42.285687" lon="-0.480656">
        <ele>1471.5</ele>
        <time>2018-07-22T08:37:33.000Z</time>
      </trkpt>
      <trkpt lat="42.285685" lon="-0.480657">
        <ele>1471.6</ele>
        <time>2018-07-22T08:37:34.000Z</time>
      </trkpt>
      <trkpt lat="42.285682" lon="-0.480658">
        <ele>1471.7</ele>
        <time>2018-07-22T08:37:35.000Z</time>
      </trkpt>
      <trkpt lat="42.28568" lon="-0.480659">
        <ele>1471.8</ele>
        <time>2018-07-22T08:37:36.000Z</time>
      </trkpt>
      <trkpt lat="42.285677" lon="-0.48066">
        <ele>1472.0</ele>
        <time>2018-07-22T08:37:37.000Z</time>
      </trkpt>
      <trkpt lat="42.285675" lon="-0.480661">
        <ele>1472.1</ele>
        <time>2018-07-22T08:37:38.000Z</time>
      </trkpt>
      <trkpt lat="42.285673" lon="-0.480662">
        <ele>1472.2</ele>
        <time>2018-07-22T08:37:39.000Z</time>
      </trkpt>
      <trkpt lat="42.285671" lon="-0.480663">
        <ele>1472.3</ele>
        <time>2018-07-22T08:37:40.000Z</time>
      </trkpt>
      <trkpt lat="42.285669" lon="-0.480664">
        <ele>1472.4</ele>
        <time>2018-07-22T08:37:41.000Z</time>
      </trkpt>
      <trkpt lat="42.285668" lon="-0.480664">
        <ele>1472.4</ele>
        <time>2018-07-22T08:37:42.000Z</time>
      </trkpt>
      <trkpt lat="42.285666" lon="-0.480665">
        <ele>1472.5</ele>
        <time>2018-07-22T08:37:43.000Z</time>
      </trkpt>
      <trkpt lat="42.285666" lon="-0.480665">
        <ele>1472.5</ele>
        <time>2018-07-22T08:37:44.000Z</time>
      </trkpt>
      <trkpt lat="42.285665" lon="-0.480665">
        <ele>1472.6</ele>
        <time>2018-07-22T08:37:45.000Z</time>
      </trkpt>
      <trkpt lat="42.285665" lon="-0.480665">
        <ele>1472.6</ele>
        <time>2018-07-22T08:37:46.000Z</time>
      </trkpt>
      <trkpt lat="42.285665" lon="-0.480665">
        <ele>1472.6</ele>
        <time>2018-07-22T08:37:47.000Z</time>
      </trkpt>
      <trkpt lat="42.285664" lon="-0.480666">
        <ele>1472.6</ele>
        <time>2018-07-22T08:37:48.000Z</time>
      </trkpt>
      <trkpt lat="42.285664" lon="-0.480666">
        <ele>1472.6</ele>
        <time>2018-07-22T08:37:49.000Z</time>
      </trkpt>
      <trkpt lat="42.285663" lon="-0.480667">
        <ele>1472.7</ele>
        <time>2018-07-22T08:37:50.000Z</time>
      </trkpt>
      <trkpt lat="42.285663" lon="-0.480667">
        <ele>1472.7</ele>
        <time>2018-07-22T08:37:51.000Z</time>
      </trkpt>
      <trkpt lat="42.285661" lon="-0.480669">
        <ele>1472.8</ele>
        <time>2018-07-22T08:37:52.000Z</time>
      </trkpt>
      <trkpt lat="42.285653" lon="-0.480674">
        <ele>1473.1</ele>
        <time>2018-07-22T08:37:53.000Z</time>
      </trkpt>
      <trkpt lat="42.285646" lon="-0.480678">
        <ele>1473.5</ele>
        <time>2018-07-22T08:37:54.000Z</time>
      </trkpt>
      <trkpt lat="42.28564" lon="-0.480681">
        <ele>1473.8</ele>
        <time>2018-07-22T08:37:55.000Z</time>
      </trkpt>
      <trkpt lat="42.285636" lon="-0.480683">
        <ele>1474.0</ele>
        <time>2018-07-22T08:37:56.000Z</time>
      </trkpt>
      <trkpt lat="42.285633" lon="-0.480684">
        <ele>1474.1</ele>
        <time>2018-07-22T08:37:57.000Z</time>
      </trkpt>
      <trkpt lat="42.285631" lon="-0.480686">
        <ele>1474.2</ele>
        <time>2018-07-22T08:37:58.000Z</time>
      </trkpt>
      <trkpt lat="42.285628" lon="-0.480687">
        <ele>1474.4</ele>
        <time>2018-07-22T08:37:59.000Z</time>
      </trkpt>
      <trkpt lat="42.285626" lon="-0.480688">
        <ele>1474.5</ele>
        <time>2018-07-22T08:38:00.000Z</time>
      </trkpt>
      <trkpt lat="42.285624" lon="-0.480689">
        <ele>1474.6</ele>
        <time>2018-07-22T08:38:01.000Z</time>
      </trkpt>
      <trkpt lat="42.285622" lon="-0.48069">
        <ele>1474.7</ele>
        <time>2018-07-22T08:38:02.000Z</time>
      </trkpt>
      <trkpt lat="42.285619" lon="-0.480691">
        <ele>1474.8</ele>
        <time>2018-07-22T08:38:03.000Z</time>
      </trkpt>
      <trkpt lat="42.285617" lon="-0.480692">
        <ele>1474.9</ele>
        <time>2018-07-22T08:38:04.000Z</time>
      </trkpt>
      <trkpt lat="42.285615" lon="-0.480693">
        <ele>1475.0</ele>
        <time>2018-07-22T08:38:05.000Z</time>
      </trkpt>
      <trkpt lat="42.285613" lon="-0.480694">
        <ele>1475.1</ele>
        <time>2018-07-22T08:38:06.000Z</time>
      </trkpt>
      <trkpt lat="42.28561" lon="-0.480694">
        <ele>1475.3</ele>
        <time>2018-07-22T08:38:07.000Z</time>
      </trkpt>
      <trkpt lat="42.285608" lon="-0.480695">
        <ele>1475.4</ele>
        <time>2018-07-22T08:38:08.000Z</time>
      </trkpt>
      <trkpt lat="42.285606" lon="-0.480696">
        <ele>1475.5</ele>
        <time>2018-07-22T08:38:09.000Z</time>
      </trkpt>
      <trkpt lat="42.285604" lon="-0.480697">
        <ele>1475.6</ele>
        <time>2018-07-22T08:38:10.000Z</time>
      </trkpt>
      <trkpt lat="42.285602" lon="-0.480698">
        <ele>1475.7</ele>
        <time>2018-07-22T08:38:11.000Z</time>
      </trkpt>
      <trkpt lat="42.2856" lon="-0.480699">
        <ele>1475.8</ele>
        <time>2018-07-22T08:38:12.000Z</time>
      </trkpt>
      <trkpt lat="42.285598" lon="-0.480699">
        <ele>1475.9</ele>
        <time>2018-07-22T08:38:13.000Z</time>
      </trkpt>
      <trkpt lat="42.285595" lon="-0.4807">
        <ele>1476.0</ele>
        <time>2018-07-22T08:38:14.000Z</time>
      </trkpt>
      <trkpt lat="42.285591" lon="-0.480702">
        <ele>1476.2</ele>
        <time>2018-07-22T08:38:15.000Z</time>
      </trkpt>
      <trkpt lat="42.285585" lon="-0.4807">
        <ele>1476.5</ele>
        <time>2018-07-22T08:38:16.000Z</time>
      </trkpt>
      <trkpt lat="42.285579" lon="-0.480697">
        <ele>1476.8</ele>
        <time>2018-07-22T08:38:17.000Z</time>
      </trkpt>
      <trkpt lat="42.285574" lon="-0.480694">
        <ele>1477.0</ele>
        <time>2018-07-22T08:38:18.000Z</time>
      </trkpt>
      <trkpt lat="42.285571" lon="-0.48069">
        <ele>1477.2</ele>
        <time>2018-07-22T08:38:19.000Z</time>
      </trkpt>
      <trkpt lat="42.285568" lon="-0.480686">
        <ele>1477.3</ele>
        <time>2018-07-22T08:38:20.000Z</time>
      </trkpt>
      <trkpt lat="42.285566" lon="-0.480683">
        <ele>1477.4</ele>
        <time>2018-07-22T08:38:21.000Z</time>
      </trkpt>
      <trkpt lat="42.285564" lon="-0.48068">
        <ele>1477.5</ele>
        <time>2018-07-22T08:38:22.000Z</time>
      </trkpt>
      <trkpt lat="42.285562" lon="-0.480677">
        <ele>1477.6</ele>
        <time>2018-07-22T08:38:23.000Z</time>
      </trkpt>
      <trkpt lat="42.285561" lon="-0.480675">
        <ele>1477.6</ele>
        <time>2018-07-22T08:38:24.000Z</time>
      </trkpt>
      <trkpt lat="42.285559" lon="-0.480674">
        <ele>1477.7</ele>
        <time>2018-07-22T08:38:25.000Z</time>
      </trkpt>
      <trkpt lat="42.285557" lon="-0.480673">
        <ele>1477.8</ele>
        <time>2018-07-22T08:38:26.000Z</time>
      </trkpt>
      <trkpt lat="42.285556" lon="-0.480671">
        <ele>1477.9</ele>
        <time>2018-07-22T08:38:27.000Z</time>
      </trkpt>
      <trkpt lat="42.285554" lon="-0.48067">
        <ele>1478.0</ele>
        <time>2018-07-22T08:38:28.000Z</time>
      </trkpt>
      <trkpt lat="42.285553" lon="-0.480669">
        <ele>1478.0</ele>
        <time>2018-07-22T08:38:29.000Z</time>
      </trkpt>
      <trkpt lat="42.285552" lon="-0.480668">
        <ele>1478.0</ele>
        <time>2018-07-22T08:38:30.000Z</time>
      </trkpt>
      <trkpt lat="42.28555" lon="-0.480667">
        <ele>1478.1</ele>
        <time>2018-07-22T08:38:31.000Z</time>
      </trkpt>
      <trkpt lat="42.285549" lon="-0.480665">
        <ele>1478.2</ele>
        <time>2018-07-22T08:38:32.000Z</time>
      </trkpt>
      <trkpt lat="42.285547" lon="-0.480664">
        <ele>1478.3</ele>
        <time>2018-07-22T08:38:33.000Z</time>
      </trkpt>
      <trkpt lat="42.285544" lon="-0.480661">
        <ele>1478.4</ele>
        <time>2018-07-22T08:38:34.000Z</time>
      </trkpt>
      <trkpt lat="42.285541" lon="-0.480658">
        <ele>1478.5</ele>
        <time>2018-07-22T08:38:35.000Z</time>
      </trkpt>
      <trkpt lat="42.285538" lon="-0.480656">
        <ele>1478.7</ele>
        <time>2018-07-22T08:38:36.000Z</time>
      </trkpt>
      <trkpt lat="42.285535" lon="-0.480653">
        <ele>1478.8</ele>
        <time>2018-07-22T08:38:37.000Z</time>
      </trkpt>
      <trkpt lat="42.285533" lon="-0.480652">
        <ele>1478.9</ele>
        <time>2018-07-22T08:38:38.000Z</time>
      </trkpt>
      <trkpt lat="42.285531" lon="-0.48065">
        <ele>1479.0</ele>
        <time>2018-07-22T08:38:39.000Z</time>
      </trkpt>
      <trkpt lat="42.285529" lon="-0.48065">
        <ele>1479.1</ele>
        <time>2018-07-22T08:38:40.000Z</time>
      </trkpt>
      <trkpt lat="42.285529" lon="-0.480649">
        <ele>1479.1</ele>
        <time>2018-07-22T08:38:41.000Z</time>
      </trkpt>
      <trkpt lat="42.285528" lon="-0.480649">
        <ele>1479.1</ele>
        <time>2018-07-22T08:38:42.000Z</time>
      </trkpt>
      <trkpt lat="42.285528" lon="-0.480649">
        <ele>1479.1</ele>
        <time>2018-07-22T08:38:43.000Z</time>
      </trkpt>
      <trkpt lat="42.285528" lon="-0.480649">
        <ele>1479.1</ele>
        <time>2018-07-22T08:38:44.000Z</time>
      </trkpt>
      <trkpt lat="42.285528" lon="-0.480649">
        <ele>1479.1</ele>
        <time>2018-07-22T08:38:45.000Z</time>
      </trkpt>
      <trkpt lat="42.285527" lon="-0.480649">
        <ele>1479.2</ele>
        <time>2018-07-22T08:38:46.000Z</time>
      </trkpt>
      <trkpt lat="42.285527" lon="-0.480649">
        <ele>1479.2</ele>
        <time>2018-07-22T08:38:47.000Z</time>
      </trkpt>
      <trkpt lat="42.285526" lon="-0.480648">
        <ele>1479.2</ele>
        <time>2018-07-22T08:38:48.000Z</time>
      </trkpt>
      <trkpt lat="42.285526" lon="-0.480648">
        <ele>1479.2</ele>
        <time>2018-07-22T08:38:49.000Z</time>
      </trkpt>
      <trkpt lat="42.285525" lon="-0.480648">
        <ele>1479.3</ele>
        <time>2018-07-22T08:38:50.000Z</time>
      </trkpt>
      <trkpt lat="42.285524" lon="-0.480647">
        <ele>1479.3</ele>
        <time>2018-07-22T08:38:51.000Z</time>
      </trkpt>
      <trkpt lat="42.285523" lon="-0.480647">
        <ele>1479.4</ele>
        <time>2018-07-22T08:38:52.000Z</time>
      </trkpt>
      <trkpt lat="42.285521" lon="-0.480647">
        <ele>1479.5</ele>
        <time>2018-07-22T08:38:53.000Z</time>
      </trkpt>
      <trkpt lat="42.28552" lon="-0.480647">
        <ele>1479.5</ele>
        <time>2018-07-22T08:38:54.000Z</time>
      </trkpt>
      <trkpt lat="42.285519" lon="-0.480647">
        <ele>1479.6</ele>
        <time>2018-07-22T08:38:55.000Z</time>
      </trkpt>
      <trkpt lat="42.285517" lon="-0.480646">
        <ele>1479.7</ele>
        <time>2018-07-22T08:38:56.000Z</time>
      </trkpt>
      <trkpt lat="42.285515" lon="-0.480646">
        <ele>1479.8</ele>
        <time>2018-07-22T08:38:57.000Z</time>
      </trkpt>
      <trkpt lat="42.285513" lon="-0.480646">
        <ele>1479.9</ele>
        <time>2018-07-22T08:38:58.000Z</time>
      </trkpt>
      <trkpt lat="42.285512" lon="-0.480645">
        <ele>1479.9</ele>
        <time>2018-07-22T08:38:59.000Z</time>
      </trkpt>
      <trkpt lat="42.28551" lon="-0.480645">
        <ele>1480.0</ele>
        <time>2018-07-22T08:39:00.000Z</time>
      </trkpt>
      <trkpt lat="42.285507" lon="-0.480647">
        <ele>1480.1</ele>
        <time>2018-07-22T08:39:01.000Z</time>
      </trkpt>
      <trkpt lat="42.285502" lon="-0.480653">
        <ele>1480.4</ele>
        <time>2018-07-22T08:39:02.000Z</time>
      </trkpt>
      <trkpt lat="42.285497" lon="-0.480657">
        <ele>1480.7</ele>
        <time>2018-07-22T08:39:03.000Z</time>
      </trkpt>
      <trkpt lat="42.285493" lon="-0.480658">
        <ele>1480.9</ele>
        <time>2018-07-22T08:39:04.000Z</time>
      </trkpt>
      <trkpt lat="42.285489" lon="-0.480658">
        <ele>1481.1</ele>
        <time>2018-07-22T08:39:05.000Z</time>
      </trkpt>
      <trkpt lat="42.285487" lon="-0.48066">
        <ele>1481.2</ele>
        <time>2018-07-22T08:39:06.000Z</time>
      </trkpt>
      <trkpt lat="42.285484" lon="-0.480661">
        <ele>1481.3</ele>
        <time>2018-07-22T08:39:07.000Z</time>
      </trkpt>
      <trkpt lat="42.285482" lon="-0.480662">
        <ele>1481.4</ele>
        <time>2018-07-22T08:39:08.000Z</time>
      </trkpt>
      <trkpt lat="42.285481" lon="-0.480663">
        <ele>1481.5</ele>
        <time>2018-07-22T08:39:09.000Z</time>
      </trkpt>
      <trkpt lat="42.285479" lon="-0.480663">
        <ele>1481.6</ele>
        <time>2018-07-22T08:39:10.000Z</time>
      </trkpt>
      <trkpt lat="42.285477" lon="-0.480662">
        <ele>1481.7</ele>
        <time>2018-07-22T08:39:11.000Z</time>
      </trkpt>
      <trkpt lat="42.285476" lon="-0.480662">
        <ele>1481.7</ele>
        <time>2018-07-22T08:39:12.000Z</time>
      </trkpt>
      <trkpt lat="42.285473" lon="-0.480664">
        <ele>1481.9</ele>
        <time>2018-07-22T08:39:13.000Z</time>
      </trkpt>
      <trkpt lat="42.285471" lon="-0.480668">
        <ele>1482.0</ele>
        <time>2018-07-22T08:39:14.000Z</time>
      </trkpt>
      <trkpt lat="42.285467" lon="-0.480677">
        <ele>1482.2</ele>
        <time>2018-07-22T08:39:15.000Z</time>
      </trkpt>
      <trkpt lat="42.285464" lon="-0.480689">
        <ele>1482.4</ele>
        <time>2018-07-22T08:39:16.000Z</time>
      </trkpt>
      <trkpt lat="42.285466" lon="-0.480692">
        <ele>1482.3</ele>
        <time>2018-07-22T08:39:17.000Z</time>
      </trkpt>
      <trkpt lat="42.285466" lon="-0.480694">
        <ele>1482.3</ele>
        <time>2018-07-22T08:39:18.000Z</time>
      </trkpt>
      <trkpt lat="42.285466" lon="-0.480696">
        <ele>1482.3</ele>
        <time>2018-07-22T08:39:19.000Z</time>
      </trkpt>
      <trkpt lat="42.285467" lon="-0.480699">
        <ele>1482.3</ele>
        <time>2018-07-22T08:39:20.000Z</time>
      </trkpt>
      <trkpt lat="42.285469" lon="-0.480701">
        <ele>1482.2</ele>
        <time>2018-07-22T08:39:21.000Z</time>
      </trkpt>
      <trkpt lat="42.28547" lon="-0.480704">
        <ele>1482.2</ele>
        <time>2018-07-22T08:39:22.000Z</time>
      </trkpt>
      <trkpt lat="42.28547" lon="-0.480706">
        <ele>1482.2</ele>
        <time>2018-07-22T08:39:23.000Z</time>
      </trkpt>
      <trkpt lat="42.285469" lon="-0.480708">
        <ele>1482.2</ele>
        <time>2018-07-22T08:39:24.000Z</time>
      </trkpt>
      <trkpt lat="42.285469" lon="-0.480711">
        <ele>1482.3</ele>
        <time>2018-07-22T08:39:25.000Z</time>
      </trkpt>
      <trkpt lat="42.285468" lon="-0.480713">
        <ele>1482.3</ele>
        <time>2018-07-22T08:39:26.000Z</time>
      </trkpt>
      <trkpt lat="42.285465" lon="-0.480716">
        <ele>1482.5</ele>
        <time>2018-07-22T08:39:27.000Z</time>
      </trkpt>
      <trkpt lat="42.285454" lon="-0.480725">
        <ele>1483.1</ele>
        <time>2018-07-22T08:39:28.000Z</time>
      </trkpt>
      <trkpt lat="42.285445" lon="-0.480731">
        <ele>1483.5</ele>
        <time>2018-07-22T08:39:29.000Z</time>
      </trkpt>
      <trkpt lat="42.285439" lon="-0.480735">
        <ele>1483.9</ele>
        <time>2018-07-22T08:39:30.000Z</time>
      </trkpt>
      <trkpt lat="42.285434" lon="-0.480738">
        <ele>1484.1</ele>
        <time>2018-07-22T08:39:31.000Z</time>
      </trkpt>
      <trkpt lat="42.285431" lon="-0.48074">
        <ele>1484.3</ele>
        <time>2018-07-22T08:39:32.000Z</time>
      </trkpt>
      <trkpt lat="42.285429" lon="-0.480741">
        <ele>1484.4</ele>
        <time>2018-07-22T08:39:33.000Z</time>
      </trkpt>
      <trkpt lat="42.285428" lon="-0.480742">
        <ele>1484.4</ele>
        <time>2018-07-22T08:39:34.000Z</time>
      </trkpt>
      <trkpt lat="42.285427" lon="-0.480743">
        <ele>1484.5</ele>
        <time>2018-07-22T08:39:35.000Z</time>
      </trkpt>
      <trkpt lat="42.285427" lon="-0.480744">
        <ele>1484.5</ele>
        <time>2018-07-22T08:39:36.000Z</time>
      </trkpt>
      <trkpt lat="42.285426" lon="-0.480745">
        <ele>1484.6</ele>
        <time>2018-07-22T08:39:37.000Z</time>
      </trkpt>
      <trkpt lat="42.285424" lon="-0.480746">
        <ele>1484.7</ele>
        <time>2018-07-22T08:39:38.000Z</time>
      </trkpt>
      <trkpt lat="42.285422" lon="-0.480748">
        <ele>1484.8</ele>
        <time>2018-07-22T08:39:39.000Z</time>
      </trkpt>
      <trkpt lat="42.285421" lon="-0.480749">
        <ele>1484.8</ele>
        <time>2018-07-22T08:39:40.000Z</time>
      </trkpt>
      <trkpt lat="42.285419" lon="-0.480751">
        <ele>1484.9</ele>
        <time>2018-07-22T08:39:41.000Z</time>
      </trkpt>
      <trkpt lat="42.285417" lon="-0.480752">
        <ele>1485.0</ele>
        <time>2018-07-22T08:39:42.000Z</time>
      </trkpt>
      <trkpt lat="42.285415" lon="-0.480754">
        <ele>1485.2</ele>
        <time>2018-07-22T08:39:43.000Z</time>
      </trkpt>
      <trkpt lat="42.285412" lon="-0.480756">
        <ele>1485.3</ele>
        <time>2018-07-22T08:39:44.000Z</time>
      </trkpt>
      <trkpt lat="42.285404" lon="-0.48076">
        <ele>1485.7</ele>
        <time>2018-07-22T08:39:45.000Z</time>
      </trkpt>
      <trkpt lat="42.2854" lon="-0.480763">
        <ele>1486.0</ele>
        <time>2018-07-22T08:39:46.000Z</time>
      </trkpt>
      <trkpt lat="42.285397" lon="-0.480766">
        <ele>1486.1</ele>
        <time>2018-07-22T08:39:47.000Z</time>
      </trkpt>
      <trkpt lat="42.285393" lon="-0.480769">
        <ele>1486.3</ele>
        <time>2018-07-22T08:39:48.000Z</time>
      </trkpt>
      <trkpt lat="42.28539" lon="-0.480771">
        <ele>1486.5</ele>
        <time>2018-07-22T08:39:49.000Z</time>
      </trkpt>
      <trkpt lat="42.285387" lon="-0.480773">
        <ele>1486.7</ele>
        <time>2018-07-22T08:39:50.000Z</time>
      </trkpt>
      <trkpt lat="42.285385" lon="-0.480775">
        <ele>1486.8</ele>
        <time>2018-07-22T08:39:51.000Z</time>
      </trkpt>
      <trkpt lat="42.285382" lon="-0.480777">
        <ele>1486.9</ele>
        <time>2018-07-22T08:39:52.000Z</time>
      </trkpt>
      <trkpt lat="42.28538" lon="-0.480778">
        <ele>1487.1</ele>
        <time>2018-07-22T08:39:53.000Z</time>
      </trkpt>
      <trkpt lat="42.285379" lon="-0.48078">
        <ele>1487.1</ele>
        <time>2018-07-22T08:39:54.000Z</time>
      </trkpt>
      <trkpt lat="42.285377" lon="-0.480781">
        <ele>1487.2</ele>
        <time>2018-07-22T08:39:55.000Z</time>
      </trkpt>
      <trkpt lat="42.285376" lon="-0.480783">
        <ele>1487.3</ele>
        <time>2018-07-22T08:39:56.000Z</time>
      </trkpt>
      <trkpt lat="42.285374" lon="-0.480784">
        <ele>1487.4</ele>
        <time>2018-07-22T08:39:57.000Z</time>
      </trkpt>
      <trkpt lat="42.285371" lon="-0.480786">
        <ele>1487.6</ele>
        <time>2018-07-22T08:39:58.000Z</time>
      </trkpt>
      <trkpt lat="42.285368" lon="-0.480788">
        <ele>1487.7</ele>
        <time>2018-07-22T08:39:59.000Z</time>
      </trkpt>
      <trkpt lat="42.285364" lon="-0.480789">
        <ele>1487.9</ele>
        <time>2018-07-22T08:40:00.000Z</time>
      </trkpt>
      <trkpt lat="42.285363" lon="-0.48079">
        <ele>1488.0</ele>
        <time>2018-07-22T08:40:01.000Z</time>
      </trkpt>
      <trkpt lat="42.28536" lon="-0.480791">
        <ele>1488.2</ele>
        <time>2018-07-22T08:40:02.000Z</time>
      </trkpt>
      <trkpt lat="42.285356" lon="-0.480793">
        <ele>1488.4</ele>
        <time>2018-07-22T08:40:03.000Z</time>
      </trkpt>
      <trkpt lat="42.285352" lon="-0.480796">
        <ele>1488.6</ele>
        <time>2018-07-22T08:40:04.000Z</time>
      </trkpt>
      <trkpt lat="42.285348" lon="-0.480798">
        <ele>1488.8</ele>
        <time>2018-07-22T08:40:05.000Z</time>
      </trkpt>
      <trkpt lat="42.285346" lon="-0.4808">
        <ele>1488.9</ele>
        <time>2018-07-22T08:40:06.000Z</time>
      </trkpt>
      <trkpt lat="42.285344" lon="-0.480802">
        <ele>1489.0</ele>
        <time>2018-07-22T08:40:07.000Z</time>
      </trkpt>
      <trkpt lat="42.285342" lon="-0.480803">
        <ele>1489.1</ele>
        <time>2018-07-22T08:40:08.000Z</time>
      </trkpt>
      <trkpt lat="42.285341" lon="-0.480804">
        <ele>1489.2</ele>
        <time>2018-07-22T08:40:09.000Z</time>
      </trkpt>
      <trkpt lat="42.28534" lon="-0.480805">
        <ele>1489.3</ele>
        <time>2018-07-22T08:40:10.000Z</time>
      </trkpt>
      <trkpt lat="42.285339" lon="-0.480806">
        <ele>1489.3</ele>
        <time>2018-07-22T08:40:11.000Z</time>
      </trkpt>
      <trkpt lat="42.285338" lon="-0.480807">
        <ele>1489.4</ele>
        <time>2018-07-22T08:40:12.000Z</time>
      </trkpt>
      <trkpt lat="42.285337" lon="-0.480807">
        <ele>1489.4</ele>
        <time>2018-07-22T08:40:13.000Z</time>
      </trkpt>
      <trkpt lat="42.285336" lon="-0.480808">
        <ele>1489.5</ele>
        <time>2018-07-22T08:40:14.000Z</time>
      </trkpt>
      <trkpt lat="42.285335" lon="-0.480808">
        <ele>1489.5</ele>
        <time>2018-07-22T08:40:15.000Z</time>
      </trkpt>
      <trkpt lat="42.285334" lon="-0.480809">
        <ele>1489.6</ele>
        <time>2018-07-22T08:40:16.000Z</time>
      </trkpt>
      <trkpt lat="42.285332" lon="-0.48081">
        <ele>1489.7</ele>
        <time>2018-07-22T08:40:17.000Z</time>
      </trkpt>
      <trkpt lat="42.285331" lon="-0.48081">
        <ele>1489.8</ele>
        <time>2018-07-22T08:40:18.000Z</time>
      </trkpt>
      <trkpt lat="42.28533" lon="-0.480811">
        <ele>1489.8</ele>
        <time>2018-07-22T08:40:19.000Z</time>
      </trkpt>
      <trkpt lat="42.285329" lon="-0.480812">
        <ele>1489.9</ele>
        <time>2018-07-22T08:40:20.000Z</time>
      </trkpt>
      <trkpt lat="42.285327" lon="-0.480813">
        <ele>1490.0</ele>
        <time>2018-07-22T08:40:21.000Z</time>
      </trkpt>
      <trkpt lat="42.285326" lon="-0.480814">
        <ele>1490.0</ele>
        <time>2018-07-22T08:40:22.000Z</time>
      </trkpt>
      <trkpt lat="42.285324" lon="-0.480816">
        <ele>1490.2</ele>
        <time>2018-07-22T08:40:23.000Z</time>
      </trkpt>
      <trkpt lat="42.285321" lon="-0.480817">
        <ele>1490.3</ele>
        <time>2018-07-22T08:40:24.000Z</time>
      </trkpt>
      <trkpt lat="42.285316" lon="-0.480819">
        <ele>1490.6</ele>
        <time>2018-07-22T08:40:25.000Z</time>
      </trkpt>
      <trkpt lat="42.28531" lon="-0.480818">
        <ele>1490.9</ele>
        <time>2018-07-22T08:40:26.000Z</time>
      </trkpt>
      <trkpt lat="42.285306" lon="-0.480817">
        <ele>1491.1</ele>
        <time>2018-07-22T08:40:27.000Z</time>
      </trkpt>
      <trkpt lat="42.285301" lon="-0.480816">
        <ele>1491.3</ele>
        <time>2018-07-22T08:40:28.000Z</time>
      </trkpt>
      <trkpt lat="42.285298" lon="-0.480815">
        <ele>1491.5</ele>
        <time>2018-07-22T08:40:29.000Z</time>
      </trkpt>
      <trkpt lat="42.285295" lon="-0.480814">
        <ele>1491.6</ele>
        <time>2018-07-22T08:40:30.000Z</time>
      </trkpt>
      <trkpt lat="42.285293" lon="-0.480814">
        <ele>1491.7</ele>
        <time>2018-07-22T08:40:31.000Z</time>
      </trkpt>
      <trkpt lat="42.285291" lon="-0.480814">
        <ele>1491.8</ele>
        <time>2018-07-22T08:40:32.000Z</time>
      </trkpt>
      <trkpt lat="42.285289" lon="-0.480813">
        <ele>1491.9</ele>
        <time>2018-07-22T08:40:33.000Z</time>
      </trkpt>
      <trkpt lat="42.285288" lon="-0.480813">
        <ele>1492.0</ele>
        <time>2018-07-22T08:40:34.000Z</time>
      </trkpt>
      <trkpt lat="42.285287" lon="-0.480813">
        <ele>1492.0</ele>
        <time>2018-07-22T08:40:35.000Z</time>
      </trkpt>
      <trkpt lat="42.285287" lon="-0.480813">
        <ele>1492.0</ele>
        <time>2018-07-22T08:40:36.000Z</time>
      </trkpt>
      <trkpt lat="42.285286" lon="-0.480813">
        <ele>1492.1</ele>
        <time>2018-07-22T08:40:37.000Z</time>
      </trkpt>
      <trkpt lat="42.285286" lon="-0.480813">
        <ele>1492.1</ele>
        <time>2018-07-22T08:40:38.000Z</time>
      </trkpt>
      <trkpt lat="42.285286" lon="-0.480813">
        <ele>1492.1</ele>
        <time>2018-07-22T08:40:39.000Z</time>
      </trkpt>
      <trkpt lat="42.285285" lon="-0.480813">
        <ele>1492.1</ele>
        <time>2018-07-22T08:40:40.000Z</time>
      </trkpt>
      <trkpt lat="42.285285" lon="-0.480813">
        <ele>1492.1</ele>
        <time>2018-07-22T08:40:41.000Z</time>
      </trkpt>
      <trkpt lat="42.285284" lon="-0.480813">
        <ele>1492.2</ele>
        <time>2018-07-22T08:40:42.000Z</time>
      </trkpt>
      <trkpt lat="42.285283" lon="-0.480813">
        <ele>1492.2</ele>
        <time>2018-07-22T08:40:43.000Z</time>
      </trkpt>
      <trkpt lat="42.285282" lon="-0.480813">
        <ele>1492.3</ele>
        <time>2018-07-22T08:40:44.000Z</time>
      </trkpt>
      <trkpt lat="42.285281" lon="-0.480812">
        <ele>1492.3</ele>
        <time>2018-07-22T08:40:45.000Z</time>
      </trkpt>
      <trkpt lat="42.28528" lon="-0.480812">
        <ele>1492.4</ele>
        <time>2018-07-22T08:40:46.000Z</time>
      </trkpt>
      <trkpt lat="42.285278" lon="-0.480812">
        <ele>1492.5</ele>
        <time>2018-07-22T08:40:47.000Z</time>
      </trkpt>
      <trkpt lat="42.285276" lon="-0.480813">
        <ele>1492.6</ele>
        <time>2018-07-22T08:40:48.000Z</time>
      </trkpt>
      <trkpt lat="42.285275" lon="-0.480813">
        <ele>1492.6</ele>
        <time>2018-07-22T08:40:49.000Z</time>
      </trkpt>
      <trkpt lat="42.285275" lon="-0.480813">
        <ele>1492.6</ele>
        <time>2018-07-22T08:40:50.000Z</time>
      </trkpt>
      <trkpt lat="42.285267" lon="-0.480813">
        <ele>1493.1</ele>
        <time>2018-07-22T08:40:51.000Z</time>
      </trkpt>
      <trkpt lat="42.285264" lon="-0.480814">
        <ele>1493.2</ele>
        <time>2018-07-22T08:40:52.000Z</time>
      </trkpt>
      <trkpt lat="42.285261" lon="-0.480813">
        <ele>1493.4</ele>
        <time>2018-07-22T08:40:53.000Z</time>
      </trkpt>
      <trkpt lat="42.285259" lon="-0.480813">
        <ele>1493.5</ele>
        <time>2018-07-22T08:40:54.000Z</time>
      </trkpt>
      <trkpt lat="42.285257" lon="-0.480813">
        <ele>1493.6</ele>
        <time>2018-07-22T08:40:55.000Z</time>
      </trkpt>
      <trkpt lat="42.285255" lon="-0.480813">
        <ele>1493.7</ele>
        <time>2018-07-22T08:40:56.000Z</time>
      </trkpt>
      <trkpt lat="42.285253" lon="-0.480813">
        <ele>1493.8</ele>
        <time>2018-07-22T08:40:57.000Z</time>
      </trkpt>
      <trkpt lat="42.285251" lon="-0.480812">
        <ele>1493.9</ele>
        <time>2018-07-22T08:40:58.000Z</time>
      </trkpt>
      <trkpt lat="42.285249" lon="-0.480812">
        <ele>1494.0</ele>
        <time>2018-07-22T08:40:59.000Z</time>
      </trkpt>
      <trkpt lat="42.285248" lon="-0.480812">
        <ele>1494.0</ele>
        <time>2018-07-22T08:41:00.000Z</time>
      </trkpt>
      <trkpt lat="42.285246" lon="-0.480812">
        <ele>1494.1</ele>
        <time>2018-07-22T08:41:01.000Z</time>
      </trkpt>
      <trkpt lat="42.285245" lon="-0.480811">
        <ele>1494.2</ele>
        <time>2018-07-22T08:41:02.000Z</time>
      </trkpt>
      <trkpt lat="42.285244" lon="-0.480811">
        <ele>1494.2</ele>
        <time>2018-07-22T08:41:03.000Z</time>
      </trkpt>
      <trkpt lat="42.285243" lon="-0.480811">
        <ele>1494.3</ele>
        <time>2018-07-22T08:41:04.000Z</time>
      </trkpt>
      <trkpt lat="42.285242" lon="-0.480811">
        <ele>1494.3</ele>
        <time>2018-07-22T08:41:05.000Z</time>
      </trkpt>
      <trkpt lat="42.285241" lon="-0.480811">
        <ele>1494.4</ele>
        <time>2018-07-22T08:41:06.000Z</time>
      </trkpt>
      <trkpt lat="42.28524" lon="-0.480811">
        <ele>1494.4</ele>
        <time>2018-07-22T08:41:07.000Z</time>
      </trkpt>
      <trkpt lat="42.285239" lon="-0.480811">
        <ele>1494.5</ele>
        <time>2018-07-22T08:41:08.000Z</time>
      </trkpt>
      <trkpt lat="42.285238" lon="-0.480811">
        <ele>1494.5</ele>
        <time>2018-07-22T08:41:09.000Z</time>
      </trkpt>
      <trkpt lat="42.285237" lon="-0.480811">
        <ele>1494.6</ele>
        <time>2018-07-22T08:41:10.000Z</time>
      </trkpt>
      <trkpt lat="42.285236" lon="-0.480811">
        <ele>1494.6</ele>
        <time>2018-07-22T08:41:11.000Z</time>
      </trkpt>
      <trkpt lat="42.285235" lon="-0.48081">
        <ele>1494.7</ele>
        <time>2018-07-22T08:41:12.000Z</time>
      </trkpt>
      <trkpt lat="42.285233" lon="-0.48081">
        <ele>1494.8</ele>
        <time>2018-07-22T08:41:13.000Z</time>
      </trkpt>
      <trkpt lat="42.285229" lon="-0.480809">
        <ele>1495.0</ele>
        <time>2018-07-22T08:41:14.000Z</time>
      </trkpt>
      <trkpt lat="42.285224" lon="-0.480809">
        <ele>1495.2</ele>
        <time>2018-07-22T08:41:15.000Z</time>
      </trkpt>
      <trkpt lat="42.285218" lon="-0.480809">
        <ele>1495.5</ele>
        <time>2018-07-22T08:41:16.000Z</time>
      </trkpt>
      <trkpt lat="42.285215" lon="-0.480809">
        <ele>1495.7</ele>
        <time>2018-07-22T08:41:17.000Z</time>
      </trkpt>
      <trkpt lat="42.285211" lon="-0.480808">
        <ele>1495.9</ele>
        <time>2018-07-22T08:41:18.000Z</time>
      </trkpt>
      <trkpt lat="42.285208" lon="-0.480808">
        <ele>1496.0</ele>
        <time>2018-07-22T08:41:19.000Z</time>
      </trkpt>
      <trkpt lat="42.285205" lon="-0.480808">
        <ele>1496.2</ele>
        <time>2018-07-22T08:41:20.000Z</time>
      </trkpt>
      <trkpt lat="42.285203" lon="-0.480808">
        <ele>1496.3</ele>
        <time>2018-07-22T08:41:21.000Z</time>
      </trkpt>
      <trkpt lat="42.285201" lon="-0.480808">
        <ele>1496.4</ele>
        <time>2018-07-22T08:41:22.000Z</time>
      </trkpt>
      <trkpt lat="42.285199" lon="-0.480808">
        <ele>1496.5</ele>
        <time>2018-07-22T08:41:23.000Z</time>
      </trkpt>
      <trkpt lat="42.285197" lon="-0.480808">
        <ele>1496.6</ele>
        <time>2018-07-22T08:41:24.000Z</time>
      </trkpt>
      <trkpt lat="42.285196" lon="-0.480808">
        <ele>1496.6</ele>
        <time>2018-07-22T08:41:25.000Z</time>
      </trkpt>
      <trkpt lat="42.285194" lon="-0.480808">
        <ele>1496.7</ele>
        <time>2018-07-22T08:41:26.000Z</time>
      </trkpt>
      <trkpt lat="42.285192" lon="-0.480808">
        <ele>1496.8</ele>
        <time>2018-07-22T08:41:27.000Z</time>
      </trkpt>
      <trkpt lat="42.28519" lon="-0.480808">
        <ele>1497.0</ele>
        <time>2018-07-22T08:41:28.000Z</time>
      </trkpt>
      <trkpt lat="42.285187" lon="-0.480808">
        <ele>1497.1</ele>
        <time>2018-07-22T08:41:29.000Z</time>
      </trkpt>
      <trkpt lat="42.285183" lon="-0.480808">
        <ele>1497.3</ele>
        <time>2018-07-22T08:41:30.000Z</time>
      </trkpt>
      <trkpt lat="42.285178" lon="-0.48081">
        <ele>1497.6</ele>
        <time>2018-07-22T08:41:31.000Z</time>
      </trkpt>
      <trkpt lat="42.28517" lon="-0.480815">
        <ele>1498.0</ele>
        <time>2018-07-22T08:41:32.000Z</time>
      </trkpt>
      <trkpt lat="42.285164" lon="-0.48082">
        <ele>1498.4</ele>
        <time>2018-07-22T08:41:33.000Z</time>
      </trkpt>
      <trkpt lat="42.28516" lon="-0.480823">
        <ele>1498.6</ele>
        <time>2018-07-22T08:41:34.000Z</time>
      </trkpt>
      <trkpt lat="42.285157" lon="-0.480826">
        <ele>1498.8</ele>
        <time>2018-07-22T08:41:35.000Z</time>
      </trkpt>
      <trkpt lat="42.285156" lon="-0.480828">
        <ele>1498.9</ele>
        <time>2018-07-22T08:41:36.000Z</time>
      </trkpt>
      <trkpt lat="42.285154" lon="-0.480829">
        <ele>1499.0</ele>
        <time>2018-07-22T08:41:37.000Z</time>
      </trkpt>
      <trkpt lat="42.285152" lon="-0.480831">
        <ele>1499.1</ele>
        <time>2018-07-22T08:41:38.000Z</time>
      </trkpt>
      <trkpt lat="42.285151" lon="-0.480832">
        <ele>1499.2</ele>
        <time>2018-07-22T08:41:39.000Z</time>
      </trkpt>
      <trkpt lat="42.285149" lon="-0.480834">
        <ele>1499.3</ele>
        <time>2018-07-22T08:41:40.000Z</time>
      </trkpt>
      <trkpt lat="42.285147" lon="-0.480835">
        <ele>1499.4</ele>
        <time>2018-07-22T08:41:41.000Z</time>
      </trkpt>
      <trkpt lat="42.285146" lon="-0.480836">
        <ele>1499.4</ele>
        <time>2018-07-22T08:41:42.000Z</time>
      </trkpt>
      <trkpt lat="42.285144" lon="-0.480838">
        <ele>1499.4</ele>
        <time>2018-07-22T08:41:43.000Z</time>
      </trkpt>
      <trkpt lat="42.285143" lon="-0.480839">
        <ele>1499.4</ele>
        <time>2018-07-22T08:41:44.000Z</time>
      </trkpt>
      <trkpt lat="42.285141" lon="-0.480839">
        <ele>1499.5</ele>
        <time>2018-07-22T08:41:45.000Z</time>
      </trkpt>
      <trkpt lat="42.28514" lon="-0.48084">
        <ele>1499.5</ele>
        <time>2018-07-22T08:41:46.000Z</time>
      </trkpt>
      <trkpt lat="42.285139" lon="-0.480841">
        <ele>1499.5</ele>
        <time>2018-07-22T08:41:47.000Z</time>
      </trkpt>
      <trkpt lat="42.285138" lon="-0.480841">
        <ele>1499.6</ele>
        <time>2018-07-22T08:41:48.000Z</time>
      </trkpt>
      <trkpt lat="42.285138" lon="-0.480841">
        <ele>1499.6</ele>
        <time>2018-07-22T08:41:49.000Z</time>
      </trkpt>
      <trkpt lat="42.285137" lon="-0.480841">
        <ele>1499.7</ele>
        <time>2018-07-22T08:41:50.000Z</time>
      </trkpt>
      <trkpt lat="42.285136" lon="-0.480842">
        <ele>1499.7</ele>
        <time>2018-07-22T08:41:51.000Z</time>
      </trkpt>
      <trkpt lat="42.285135" lon="-0.480842">
        <ele>1499.7</ele>
        <time>2018-07-22T08:41:52.000Z</time>
      </trkpt>
      <trkpt lat="42.285134" lon="-0.480844">
        <ele>1499.7</ele>
        <time>2018-07-22T08:41:53.000Z</time>
      </trkpt>
      <trkpt lat="42.285132" lon="-0.480845">
        <ele>1499.8</ele>
        <time>2018-07-22T08:41:54.000Z</time>
      </trkpt>
      <trkpt lat="42.28513" lon="-0.480846">
        <ele>1499.8</ele>
        <time>2018-07-22T08:41:55.000Z</time>
      </trkpt>
      <trkpt lat="42.285123" lon="-0.480846">
        <ele>1500.2</ele>
        <time>2018-07-22T08:41:56.000Z</time>
      </trkpt>
      <trkpt lat="42.285117" lon="-0.480846">
        <ele>1500.5</ele>
        <time>2018-07-22T08:41:57.000Z</time>
      </trkpt>
      <trkpt lat="42.285111" lon="-0.480844">
        <ele>1500.9</ele>
        <time>2018-07-22T08:41:58.000Z</time>
      </trkpt>
      <trkpt lat="42.285107" lon="-0.480841">
        <ele>1501.2</ele>
        <time>2018-07-22T08:41:59.000Z</time>
      </trkpt>
      <trkpt lat="42.285104" lon="-0.48084">
        <ele>1501.4</ele>
        <time>2018-07-22T08:42:00.000Z</time>
      </trkpt>
      <trkpt lat="42.285101" lon="-0.480839">
        <ele>1501.6</ele>
        <time>2018-07-22T08:42:01.000Z</time>
      </trkpt>
      <trkpt lat="42.2851" lon="-0.480838">
        <ele>1501.7</ele>
        <time>2018-07-22T08:42:02.000Z</time>
      </trkpt>
      <trkpt lat="42.285098" lon="-0.480837">
        <ele>1501.8</ele>
        <time>2018-07-22T08:42:03.000Z</time>
      </trkpt>
      <trkpt lat="42.285097" lon="-0.480837">
        <ele>1501.9</ele>
        <time>2018-07-22T08:42:04.000Z</time>
      </trkpt>
      <trkpt lat="42.285095" lon="-0.480836">
        <ele>1502.0</ele>
        <time>2018-07-22T08:42:05.000Z</time>
      </trkpt>
      <trkpt lat="42.285094" lon="-0.480836">
        <ele>1502.1</ele>
        <time>2018-07-22T08:42:06.000Z</time>
      </trkpt>
      <trkpt lat="42.285092" lon="-0.480835">
        <ele>1502.2</ele>
        <time>2018-07-22T08:42:07.000Z</time>
      </trkpt>
      <trkpt lat="42.285091" lon="-0.480835">
        <ele>1502.2</ele>
        <time>2018-07-22T08:42:08.000Z</time>
      </trkpt>
      <trkpt lat="42.285089" lon="-0.480834">
        <ele>1502.4</ele>
        <time>2018-07-22T08:42:09.000Z</time>
      </trkpt>
      <trkpt lat="42.285088" lon="-0.480833">
        <ele>1502.5</ele>
        <time>2018-07-22T08:42:10.000Z</time>
      </trkpt>
      <trkpt lat="42.285086" lon="-0.480832">
        <ele>1502.5</ele>
        <time>2018-07-22T08:42:11.000Z</time>
      </trkpt>
      <trkpt lat="42.285085" lon="-0.480831">
        <ele>1502.6</ele>
        <time>2018-07-22T08:42:12.000Z</time>
      </trkpt>
      <trkpt lat="42.285083" lon="-0.48083">
        <ele>1502.7</ele>
        <time>2018-07-22T08:42:13.000Z</time>
      </trkpt>
      <trkpt lat="42.285082" lon="-0.48083">
        <ele>1502.7</ele>
        <time>2018-07-22T08:42:14.000Z</time>
      </trkpt>
      <trkpt lat="42.28508" lon="-0.480829">
        <ele>1502.8</ele>
        <time>2018-07-22T08:42:15.000Z</time>
      </trkpt>
      <trkpt lat="42.285079" lon="-0.480829">
        <ele>1502.9</ele>
        <time>2018-07-22T08:42:16.000Z</time>
      </trkpt>
      <trkpt lat="42.285077" lon="-0.480828">
        <ele>1503.0</ele>
        <time>2018-07-22T08:42:17.000Z</time>
      </trkpt>
      <trkpt lat="42.285073" lon="-0.480827">
        <ele>1503.2</ele>
        <time>2018-07-22T08:42:18.000Z</time>
      </trkpt>
      <trkpt lat="42.28507" lon="-0.480825">
        <ele>1503.3</ele>
        <time>2018-07-22T08:42:19.000Z</time>
      </trkpt>
      <trkpt lat="42.285066" lon="-0.480823">
        <ele>1503.5</ele>
        <time>2018-07-22T08:42:20.000Z</time>
      </trkpt>
      <trkpt lat="42.285064" lon="-0.480822">
        <ele>1503.6</ele>
        <time>2018-07-22T08:42:21.000Z</time>
      </trkpt>
      <trkpt lat="42.285061" lon="-0.480821">
        <ele>1503.7</ele>
        <time>2018-07-22T08:42:22.000Z</time>
      </trkpt>
      <trkpt lat="42.285059" lon="-0.48082">
        <ele>1503.8</ele>
        <time>2018-07-22T08:42:23.000Z</time>
      </trkpt>
      <trkpt lat="42.285057" lon="-0.480819">
        <ele>1503.9</ele>
        <time>2018-07-22T08:42:24.000Z</time>
      </trkpt>
      <trkpt lat="42.285055" lon="-0.480818">
        <ele>1504.0</ele>
        <time>2018-07-22T08:42:25.000Z</time>
      </trkpt>
      <trkpt lat="42.285053" lon="-0.480817">
        <ele>1504.1</ele>
        <time>2018-07-22T08:42:26.000Z</time>
      </trkpt>
      <trkpt lat="42.285052" lon="-0.480817">
        <ele>1504.1</ele>
        <time>2018-07-22T08:42:27.000Z</time>
      </trkpt>
      <trkpt lat="42.28505" lon="-0.480816">
        <ele>1504.2</ele>
        <time>2018-07-22T08:42:28.000Z</time>
      </trkpt>
      <trkpt lat="42.285049" lon="-0.480815">
        <ele>1504.2</ele>
        <time>2018-07-22T08:42:29.000Z</time>
      </trkpt>
      <trkpt lat="42.285048" lon="-0.480814">
        <ele>1504.3</ele>
        <time>2018-07-22T08:42:30.000Z</time>
      </trkpt>
      <trkpt lat="42.285047" lon="-0.480813">
        <ele>1504.3</ele>
        <time>2018-07-22T08:42:31.000Z</time>
      </trkpt>
      <trkpt lat="42.285045" lon="-0.480812">
        <ele>1504.4</ele>
        <time>2018-07-22T08:42:32.000Z</time>
      </trkpt>
      <trkpt lat="42.285044" lon="-0.480811">
        <ele>1504.5</ele>
        <time>2018-07-22T08:42:33.000Z</time>
      </trkpt>
      <trkpt lat="42.285043" lon="-0.48081">
        <ele>1504.5</ele>
        <time>2018-07-22T08:42:34.000Z</time>
      </trkpt>
      <trkpt lat="42.285042" lon="-0.480809">
        <ele>1504.5</ele>
        <time>2018-07-22T08:42:35.000Z</time>
      </trkpt>
      <trkpt lat="42.285041" lon="-0.480808">
        <ele>1504.6</ele>
        <time>2018-07-22T08:42:36.000Z</time>
      </trkpt>
      <trkpt lat="42.28504" lon="-0.480807">
        <ele>1504.6</ele>
        <time>2018-07-22T08:42:37.000Z</time>
      </trkpt>
      <trkpt lat="42.285039" lon="-0.480806">
        <ele>1504.6</ele>
        <time>2018-07-22T08:42:38.000Z</time>
      </trkpt>
      <trkpt lat="42.285038" lon="-0.480804">
        <ele>1504.7</ele>
        <time>2018-07-22T08:42:39.000Z</time>
      </trkpt>
      <trkpt lat="42.285036" lon="-0.480803">
        <ele>1504.8</ele>
        <time>2018-07-22T08:42:40.000Z</time>
      </trkpt>
      <trkpt lat="42.285035" lon="-0.480802">
        <ele>1504.8</ele>
        <time>2018-07-22T08:42:41.000Z</time>
      </trkpt>
      <trkpt lat="42.285033" lon="-0.4808">
        <ele>1504.9</ele>
        <time>2018-07-22T08:42:42.000Z</time>
      </trkpt>
      <trkpt lat="42.285031" lon="-0.480797">
        <ele>1504.9</ele>
        <time>2018-07-22T08:42:43.000Z</time>
      </trkpt>
      <trkpt lat="42.285029" lon="-0.480793">
        <ele>1505.0</ele>
        <time>2018-07-22T08:42:44.000Z</time>
      </trkpt>
      <trkpt lat="42.285025" lon="-0.48079">
        <ele>1505.2</ele>
        <time>2018-07-22T08:42:45.000Z</time>
      </trkpt>
      <trkpt lat="42.285022" lon="-0.480786">
        <ele>1505.3</ele>
        <time>2018-07-22T08:42:46.000Z</time>
      </trkpt>
      <trkpt lat="42.285018" lon="-0.480782">
        <ele>1505.4</ele>
        <time>2018-07-22T08:42:47.000Z</time>
      </trkpt>
      <trkpt lat="42.285016" lon="-0.48078">
        <ele>1505.5</ele>
        <time>2018-07-22T08:42:48.000Z</time>
      </trkpt>
      <trkpt lat="42.285014" lon="-0.480778">
        <ele>1505.6</ele>
        <time>2018-07-22T08:42:49.000Z</time>
      </trkpt>
      <trkpt lat="42.285013" lon="-0.480777">
        <ele>1505.6</ele>
        <time>2018-07-22T08:42:50.000Z</time>
      </trkpt>
      <trkpt lat="42.285012" lon="-0.480776">
        <ele>1505.6</ele>
        <time>2018-07-22T08:42:51.000Z</time>
      </trkpt>
      <trkpt lat="42.285012" lon="-0.480775">
        <ele>1505.6</ele>
        <time>2018-07-22T08:42:52.000Z</time>
      </trkpt>
      <trkpt lat="42.285011" lon="-0.480775">
        <ele>1505.7</ele>
        <time>2018-07-22T08:42:53.000Z</time>
      </trkpt>
      <trkpt lat="42.28501" lon="-0.480774">
        <ele>1505.7</ele>
        <time>2018-07-22T08:42:54.000Z</time>
      </trkpt>
      <trkpt lat="42.285008" lon="-0.480773">
        <ele>1505.8</ele>
        <time>2018-07-22T08:42:55.000Z</time>
      </trkpt>
      <trkpt lat="42.285007" lon="-0.480771">
        <ele>1505.8</ele>
        <time>2018-07-22T08:42:56.000Z</time>
      </trkpt>
      <trkpt lat="42.285005" lon="-0.48077">
        <ele>1505.9</ele>
        <time>2018-07-22T08:42:57.000Z</time>
      </trkpt>
      <trkpt lat="42.285003" lon="-0.480769">
        <ele>1506.0</ele>
        <time>2018-07-22T08:42:58.000Z</time>
      </trkpt>
      <trkpt lat="42.285001" lon="-0.480767">
        <ele>1506.1</ele>
        <time>2018-07-22T08:42:59.000Z</time>
      </trkpt>
      <trkpt lat="42.284999" lon="-0.480765">
        <ele>1506.1</ele>
        <time>2018-07-22T08:43:00.000Z</time>
      </trkpt>
      <trkpt lat="42.284997" lon="-0.480763">
        <ele>1506.1</ele>
        <time>2018-07-22T08:43:01.000Z</time>
      </trkpt>
      <trkpt lat="42.284996" lon="-0.480761">
        <ele>1506.1</ele>
        <time>2018-07-22T08:43:02.000Z</time>
      </trkpt>
      <trkpt lat="42.284994" lon="-0.480759">
        <ele>1506.2</ele>
        <time>2018-07-22T08:43:03.000Z</time>
      </trkpt>
      <trkpt lat="42.284992" lon="-0.480757">
        <ele>1506.2</ele>
        <time>2018-07-22T08:43:04.000Z</time>
      </trkpt>
      <trkpt lat="42.284988" lon="-0.480755">
        <ele>1506.3</ele>
        <time>2018-07-22T08:43:05.000Z</time>
      </trkpt>
      <trkpt lat="42.284984" lon="-0.480753">
        <ele>1506.3</ele>
        <time>2018-07-22T08:43:06.000Z</time>
      </trkpt>
      <trkpt lat="42.284982" lon="-0.480752">
        <ele>1506.4</ele>
        <time>2018-07-22T08:43:07.000Z</time>
      </trkpt>
      <trkpt lat="42.284981" lon="-0.480751">
        <ele>1506.4</ele>
        <time>2018-07-22T08:43:08.000Z</time>
      </trkpt>
      <trkpt lat="42.28498" lon="-0.48075">
        <ele>1506.4</ele>
        <time>2018-07-22T08:43:09.000Z</time>
      </trkpt>
      <trkpt lat="42.284978" lon="-0.480749">
        <ele>1506.4</ele>
        <time>2018-07-22T08:43:10.000Z</time>
      </trkpt>
      <trkpt lat="42.284976" lon="-0.480748">
        <ele>1506.5</ele>
        <time>2018-07-22T08:43:11.000Z</time>
      </trkpt>
      <trkpt lat="42.284973" lon="-0.480746">
        <ele>1506.5</ele>
        <time>2018-07-22T08:43:12.000Z</time>
      </trkpt>
      <trkpt lat="42.284971" lon="-0.480745">
        <ele>1506.6</ele>
        <time>2018-07-22T08:43:13.000Z</time>
      </trkpt>
      <trkpt lat="42.284968" lon="-0.480744">
        <ele>1506.6</ele>
        <time>2018-07-22T08:43:14.000Z</time>
      </trkpt>
      <trkpt lat="42.284966" lon="-0.480743">
        <ele>1506.7</ele>
        <time>2018-07-22T08:43:15.000Z</time>
      </trkpt>
      <trkpt lat="42.284964" lon="-0.480742">
        <ele>1506.7</ele>
        <time>2018-07-22T08:43:16.000Z</time>
      </trkpt>
      <trkpt lat="42.284962" lon="-0.480741">
        <ele>1506.7</ele>
        <time>2018-07-22T08:43:17.000Z</time>
      </trkpt>
      <trkpt lat="42.28496" lon="-0.480741">
        <ele>1506.8</ele>
        <time>2018-07-22T08:43:18.000Z</time>
      </trkpt>
      <trkpt lat="42.284958" lon="-0.48074">
        <ele>1506.8</ele>
        <time>2018-07-22T08:43:19.000Z</time>
      </trkpt>
      <trkpt lat="42.284955" lon="-0.480739">
        <ele>1506.9</ele>
        <time>2018-07-22T08:43:20.000Z</time>
      </trkpt>
      <trkpt lat="42.284953" lon="-0.480739">
        <ele>1506.9</ele>
        <time>2018-07-22T08:43:21.000Z</time>
      </trkpt>
      <trkpt lat="42.284952" lon="-0.480738">
        <ele>1506.9</ele>
        <time>2018-07-22T08:43:22.000Z</time>
      </trkpt>
      <trkpt lat="42.284951" lon="-0.480738">
        <ele>1507.0</ele>
        <time>2018-07-22T08:43:23.000Z</time>
      </trkpt>
      <trkpt lat="42.284948" lon="-0.480737">
        <ele>1507.0</ele>
        <time>2018-07-22T08:43:24.000Z</time>
      </trkpt>
      <trkpt lat="42.284945" lon="-0.480736">
        <ele>1507.1</ele>
        <time>2018-07-22T08:43:25.000Z</time>
      </trkpt>
      <trkpt lat="42.284942" lon="-0.480735">
        <ele>1507.1</ele>
        <time>2018-07-22T08:43:26.000Z</time>
      </trkpt>
      <trkpt lat="42.284938" lon="-0.480735">
        <ele>1507.2</ele>
        <time>2018-07-22T08:43:27.000Z</time>
      </trkpt>
      <trkpt lat="42.284934" lon="-0.480735">
        <ele>1507.3</ele>
        <time>2018-07-22T08:43:28.000Z</time>
      </trkpt>
      <trkpt lat="42.284932" lon="-0.480735">
        <ele>1507.4</ele>
        <time>2018-07-22T08:43:29.000Z</time>
      </trkpt>
      <trkpt lat="42.284931" lon="-0.480735">
        <ele>1507.4</ele>
        <time>2018-07-22T08:43:30.000Z</time>
      </trkpt>
      <trkpt lat="42.28493" lon="-0.480735">
        <ele>1507.4</ele>
        <time>2018-07-22T08:43:31.000Z</time>
      </trkpt>
      <trkpt lat="42.284929" lon="-0.480735">
        <ele>1507.5</ele>
        <time>2018-07-22T08:43:32.000Z</time>
      </trkpt>
      <trkpt lat="42.284928" lon="-0.480736">
        <ele>1507.5</ele>
        <time>2018-07-22T08:43:33.000Z</time>
      </trkpt>
      <trkpt lat="42.284927" lon="-0.480736">
        <ele>1507.5</ele>
        <time>2018-07-22T08:43:34.000Z</time>
      </trkpt>
      <trkpt lat="42.284926" lon="-0.480736">
        <ele>1507.5</ele>
        <time>2018-07-22T08:43:35.000Z</time>
      </trkpt>
      <trkpt lat="42.284924" lon="-0.480736">
        <ele>1507.6</ele>
        <time>2018-07-22T08:43:36.000Z</time>
      </trkpt>
      <trkpt lat="42.284922" lon="-0.480737">
        <ele>1507.7</ele>
        <time>2018-07-22T08:43:37.000Z</time>
      </trkpt>
      <trkpt lat="42.28492" lon="-0.480737">
        <ele>1507.7</ele>
        <time>2018-07-22T08:43:38.000Z</time>
      </trkpt>
      <trkpt lat="42.284918" lon="-0.480737">
        <ele>1507.8</ele>
        <time>2018-07-22T08:43:39.000Z</time>
      </trkpt>
      <trkpt lat="42.284916" lon="-0.480737">
        <ele>1507.8</ele>
        <time>2018-07-22T08:43:40.000Z</time>
      </trkpt>
      <trkpt lat="42.284914" lon="-0.480737">
        <ele>1507.9</ele>
        <time>2018-07-22T08:43:41.000Z</time>
      </trkpt>
      <trkpt lat="42.284912" lon="-0.480738">
        <ele>1507.9</ele>
        <time>2018-07-22T08:43:42.000Z</time>
      </trkpt>
      <trkpt lat="42.284906" lon="-0.480737">
        <ele>1508.1</ele>
        <time>2018-07-22T08:43:43.000Z</time>
      </trkpt>
      <trkpt lat="42.2849" lon="-0.480735">
        <ele>1508.2</ele>
        <time>2018-07-22T08:43:44.000Z</time>
      </trkpt>
      <trkpt lat="42.284895" lon="-0.480734">
        <ele>1508.3</ele>
        <time>2018-07-22T08:43:45.000Z</time>
      </trkpt>
      <trkpt lat="42.284891" lon="-0.480734">
        <ele>1508.4</ele>
        <time>2018-07-22T08:43:46.000Z</time>
      </trkpt>
      <trkpt lat="42.284887" lon="-0.480735">
        <ele>1508.5</ele>
        <time>2018-07-22T08:43:47.000Z</time>
      </trkpt>
      <trkpt lat="42.284884" lon="-0.480735">
        <ele>1508.6</ele>
        <time>2018-07-22T08:43:48.000Z</time>
      </trkpt>
      <trkpt lat="42.284881" lon="-0.480735">
        <ele>1508.6</ele>
        <time>2018-07-22T08:43:49.000Z</time>
      </trkpt>
      <trkpt lat="42.284878" lon="-0.480736">
        <ele>1508.7</ele>
        <time>2018-07-22T08:43:50.000Z</time>
      </trkpt>
      <trkpt lat="42.284876" lon="-0.480736">
        <ele>1508.8</ele>
        <time>2018-07-22T08:43:51.000Z</time>
      </trkpt>
      <trkpt lat="42.284874" lon="-0.480736">
        <ele>1508.8</ele>
        <time>2018-07-22T08:43:52.000Z</time>
      </trkpt>
      <trkpt lat="42.284873" lon="-0.480736">
        <ele>1508.9</ele>
        <time>2018-07-22T08:43:53.000Z</time>
      </trkpt>
      <trkpt lat="42.284871" lon="-0.480738">
        <ele>1508.9</ele>
        <time>2018-07-22T08:43:54.000Z</time>
      </trkpt>
      <trkpt lat="42.284868" lon="-0.480741">
        <ele>1509.1</ele>
        <time>2018-07-22T08:43:55.000Z</time>
      </trkpt>
      <trkpt lat="42.284862" lon="-0.480749">
        <ele>1509.3</ele>
        <time>2018-07-22T08:43:56.000Z</time>
      </trkpt>
      <trkpt lat="42.284854" lon="-0.480759">
        <ele>1509.7</ele>
        <time>2018-07-22T08:43:57.000Z</time>
      </trkpt>
      <trkpt lat="42.284849" lon="-0.480765">
        <ele>1509.9</ele>
        <time>2018-07-22T08:43:58.000Z</time>
      </trkpt>
      <trkpt lat="42.284846" lon="-0.480768">
        <ele>1510.0</ele>
        <time>2018-07-22T08:43:59.000Z</time>
      </trkpt>
      <trkpt lat="42.284846" lon="-0.480768">
        <ele>1510.0</ele>
        <time>2018-07-22T08:44:00.000Z</time>
      </trkpt>
      <trkpt lat="42.284845" lon="-0.480769">
        <ele>1510.1</ele>
        <time>2018-07-22T08:44:01.000Z</time>
      </trkpt>
      <trkpt lat="42.284845" lon="-0.480769">
        <ele>1510.1</ele>
        <time>2018-07-22T08:44:02.000Z</time>
      </trkpt>
      <trkpt lat="42.284845" lon="-0.480769">
        <ele>1510.1</ele>
        <time>2018-07-22T08:44:03.000Z</time>
      </trkpt>
      <trkpt lat="42.284845" lon="-0.480769">
        <ele>1510.1</ele>
        <time>2018-07-22T08:44:04.000Z</time>
      </trkpt>
      <trkpt lat="42.284845" lon="-0.480769">
        <ele>1510.1</ele>
        <time>2018-07-22T08:44:05.000Z</time>
      </trkpt>
      <trkpt lat="42.284844" lon="-0.480769">
        <ele>1510.1</ele>
        <time>2018-07-22T08:44:06.000Z</time>
      </trkpt>
      <trkpt lat="42.284843" lon="-0.48077">
        <ele>1510.1</ele>
        <time>2018-07-22T08:44:07.000Z</time>
      </trkpt>
      <trkpt lat="42.284842" lon="-0.48077">
        <ele>1510.2</ele>
        <time>2018-07-22T08:44:08.000Z</time>
      </trkpt>
      <trkpt lat="42.28484" lon="-0.480771">
        <ele>1510.2</ele>
        <time>2018-07-22T08:44:09.000Z</time>
      </trkpt>
      <trkpt lat="42.284838" lon="-0.480772">
        <ele>1510.3</ele>
        <time>2018-07-22T08:44:10.000Z</time>
      </trkpt>
      <trkpt lat="42.284836" lon="-0.480772">
        <ele>1510.3</ele>
        <time>2018-07-22T08:44:11.000Z</time>
      </trkpt>
      <trkpt lat="42.284834" lon="-0.480773">
        <ele>1510.4</ele>
        <time>2018-07-22T08:44:12.000Z</time>
      </trkpt>
      <trkpt lat="42.284832" lon="-0.480774">
        <ele>1510.5</ele>
        <time>2018-07-22T08:44:13.000Z</time>
      </trkpt>
      <trkpt lat="42.28483" lon="-0.480775">
        <ele>1510.5</ele>
        <time>2018-07-22T08:44:14.000Z</time>
      </trkpt>
      <trkpt lat="42.284829" lon="-0.480775">
        <ele>1510.6</ele>
        <time>2018-07-22T08:44:15.000Z</time>
      </trkpt>
      <trkpt lat="42.284827" lon="-0.480776">
        <ele>1510.6</ele>
        <time>2018-07-22T08:44:16.000Z</time>
      </trkpt>
      <trkpt lat="42.284826" lon="-0.480776">
        <ele>1510.7</ele>
        <time>2018-07-22T08:44:17.000Z</time>
      </trkpt>
      <trkpt lat="42.284823" lon="-0.480777">
        <ele>1510.8</ele>
        <time>2018-07-22T08:44:18.000Z</time>
      </trkpt>
      <trkpt lat="42.28481" lon="-0.480784">
        <ele>1511.2</ele>
        <time>2018-07-22T08:44:19.000Z</time>
      </trkpt>
      <trkpt lat="42.284802" lon="-0.480789">
        <ele>1511.5</ele>
        <time>2018-07-22T08:44:20.000Z</time>
      </trkpt>
      <trkpt lat="42.2848" lon="-0.480793">
        <ele>1511.6</ele>
        <time>2018-07-22T08:44:21.000Z</time>
      </trkpt>
      <trkpt lat="42.284796" lon="-0.480797">
        <ele>1511.8</ele>
        <time>2018-07-22T08:44:22.000Z</time>
      </trkpt>
      <trkpt lat="42.284793" lon="-0.4808">
        <ele>1511.9</ele>
        <time>2018-07-22T08:44:23.000Z</time>
      </trkpt>
      <trkpt lat="42.284791" lon="-0.480802">
        <ele>1512.0</ele>
        <time>2018-07-22T08:44:24.000Z</time>
      </trkpt>
      <trkpt lat="42.284789" lon="-0.480804">
        <ele>1512.1</ele>
        <time>2018-07-22T08:44:25.000Z</time>
      </trkpt>
      <trkpt lat="42.284787" lon="-0.480806">
        <ele>1512.2</ele>
        <time>2018-07-22T08:44:26.000Z</time>
      </trkpt>
      <trkpt lat="42.284786" lon="-0.480808">
        <ele>1512.2</ele>
        <time>2018-07-22T08:44:27.000Z</time>
      </trkpt>
      <trkpt lat="42.284784" lon="-0.48081">
        <ele>1512.3</ele>
        <time>2018-07-22T08:44:28.000Z</time>
      </trkpt>
      <trkpt lat="42.284781" lon="-0.480811">
        <ele>1512.4</ele>
        <time>2018-07-22T08:44:29.000Z</time>
      </trkpt>
      <trkpt lat="42.284778" lon="-0.480812">
        <ele>1512.5</ele>
        <time>2018-07-22T08:44:30.000Z</time>
      </trkpt>
      <trkpt lat="42.284775" lon="-0.480811">
        <ele>1512.6</ele>
        <time>2018-07-22T08:44:31.000Z</time>
      </trkpt>
      <trkpt lat="42.284771" lon="-0.480811">
        <ele>1512.7</ele>
        <time>2018-07-22T08:44:32.000Z</time>
      </trkpt>
      <trkpt lat="42.284767" lon="-0.480811">
        <ele>1512.8</ele>
        <time>2018-07-22T08:44:33.000Z</time>
      </trkpt>
      <trkpt lat="42.284763" lon="-0.480814">
        <ele>1512.9</ele>
        <time>2018-07-22T08:44:34.000Z</time>
      </trkpt>
      <trkpt lat="42.284762" lon="-0.480814">
        <ele>1512.9</ele>
        <time>2018-07-22T08:44:35.000Z</time>
      </trkpt>
      <trkpt lat="42.284759" lon="-0.480815">
        <ele>1513.0</ele>
        <time>2018-07-22T08:44:36.000Z</time>
      </trkpt>
      <trkpt lat="42.284757" lon="-0.480815">
        <ele>1513.1</ele>
        <time>2018-07-22T08:44:37.000Z</time>
      </trkpt>
      <trkpt lat="42.284755" lon="-0.480816">
        <ele>1513.2</ele>
        <time>2018-07-22T08:44:38.000Z</time>
      </trkpt>
      <trkpt lat="42.284754" lon="-0.480816">
        <ele>1513.2</ele>
        <time>2018-07-22T08:44:39.000Z</time>
      </trkpt>
      <trkpt lat="42.284754" lon="-0.480817">
        <ele>1513.2</ele>
        <time>2018-07-22T08:44:40.000Z</time>
      </trkpt>
      <trkpt lat="42.284753" lon="-0.480818">
        <ele>1513.3</ele>
        <time>2018-07-22T08:44:41.000Z</time>
      </trkpt>
      <trkpt lat="42.284751" lon="-0.480819">
        <ele>1513.3</ele>
        <time>2018-07-22T08:44:42.000Z</time>
      </trkpt>
      <trkpt lat="42.284749" lon="-0.48082">
        <ele>1513.4</ele>
        <time>2018-07-22T08:44:43.000Z</time>
      </trkpt>
      <trkpt lat="42.284748" lon="-0.480821">
        <ele>1513.4</ele>
        <time>2018-07-22T08:44:44.000Z</time>
      </trkpt>
      <trkpt lat="42.284746" lon="-0.480823">
        <ele>1513.5</ele>
        <time>2018-07-22T08:44:45.000Z</time>
      </trkpt>
      <trkpt lat="42.284744" lon="-0.480824">
        <ele>1513.6</ele>
        <time>2018-07-22T08:44:46.000Z</time>
      </trkpt>
      <trkpt lat="42.284743" lon="-0.480826">
        <ele>1513.7</ele>
        <time>2018-07-22T08:44:47.000Z</time>
      </trkpt>
      <trkpt lat="42.284741" lon="-0.480827">
        <ele>1513.7</ele>
        <time>2018-07-22T08:44:48.000Z</time>
      </trkpt>
      <trkpt lat="42.284739" lon="-0.480829">
        <ele>1513.8</ele>
        <time>2018-07-22T08:44:49.000Z</time>
      </trkpt>
      <trkpt lat="42.284736" lon="-0.480828">
        <ele>1513.9</ele>
        <time>2018-07-22T08:44:50.000Z</time>
      </trkpt>
      <trkpt lat="42.284728" lon="-0.480821">
        <ele>1514.0</ele>
        <time>2018-07-22T08:44:51.000Z</time>
      </trkpt>
      <trkpt lat="42.284723" lon="-0.480819">
        <ele>1514.1</ele>
        <time>2018-07-22T08:44:52.000Z</time>
      </trkpt>
      <trkpt lat="42.284722" lon="-0.48082">
        <ele>1514.1</ele>
        <time>2018-07-22T08:44:53.000Z</time>
      </trkpt>
      <trkpt lat="42.284718" lon="-0.480819">
        <ele>1514.2</ele>
        <time>2018-07-22T08:44:54.000Z</time>
      </trkpt>
      <trkpt lat="42.284715" lon="-0.480818">
        <ele>1514.2</ele>
        <time>2018-07-22T08:44:55.000Z</time>
      </trkpt>
      <trkpt lat="42.284713" lon="-0.480819">
        <ele>1514.3</ele>
        <time>2018-07-22T08:44:56.000Z</time>
      </trkpt>
      <trkpt lat="42.284711" lon="-0.480821">
        <ele>1514.4</ele>
        <time>2018-07-22T08:44:57.000Z</time>
      </trkpt>
      <trkpt lat="42.28471" lon="-0.480822">
        <ele>1514.4</ele>
        <time>2018-07-22T08:44:58.000Z</time>
      </trkpt>
      <trkpt lat="42.284708" lon="-0.480823">
        <ele>1514.5</ele>
        <time>2018-07-22T08:44:59.000Z</time>
      </trkpt>
      <trkpt lat="42.284707" lon="-0.480824">
        <ele>1514.6</ele>
        <time>2018-07-22T08:45:00.000Z</time>
      </trkpt>
      <trkpt lat="42.284706" lon="-0.480824">
        <ele>1514.6</ele>
        <time>2018-07-22T08:45:01.000Z</time>
      </trkpt>
      <trkpt lat="42.284705" lon="-0.480825">
        <ele>1514.6</ele>
        <time>2018-07-22T08:45:02.000Z</time>
      </trkpt>
      <trkpt lat="42.284703" lon="-0.480826">
        <ele>1514.7</ele>
        <time>2018-07-22T08:45:03.000Z</time>
      </trkpt>
      <trkpt lat="42.284703" lon="-0.480826">
        <ele>1514.7</ele>
        <time>2018-07-22T08:45:04.000Z</time>
      </trkpt>
      <trkpt lat="42.284702" lon="-0.480827">
        <ele>1514.8</ele>
        <time>2018-07-22T08:45:05.000Z</time>
      </trkpt>
      <trkpt lat="42.284701" lon="-0.480828">
        <ele>1514.8</ele>
        <time>2018-07-22T08:45:06.000Z</time>
      </trkpt>
      <trkpt lat="42.2847" lon="-0.480829">
        <ele>1514.8</ele>
        <time>2018-07-22T08:45:07.000Z</time>
      </trkpt>
      <trkpt lat="42.284699" lon="-0.48083">
        <ele>1514.9</ele>
        <time>2018-07-22T08:45:08.000Z</time>
      </trkpt>
      <trkpt lat="42.284698" lon="-0.480831">
        <ele>1514.9</ele>
        <time>2018-07-22T08:45:09.000Z</time>
      </trkpt>
      <trkpt lat="42.284696" lon="-0.480832">
        <ele>1515.0</ele>
        <time>2018-07-22T08:45:10.000Z</time>
      </trkpt>
      <trkpt lat="42.284695" lon="-0.480833">
        <ele>1515.0</ele>
        <time>2018-07-22T08:45:11.000Z</time>
      </trkpt>
      <trkpt lat="42.284694" lon="-0.480835">
        <ele>1515.0</ele>
        <time>2018-07-22T08:45:12.000Z</time>
      </trkpt>
      <trkpt lat="42.284692" lon="-0.480836">
        <ele>1515.0</ele>
        <time>2018-07-22T08:45:13.000Z</time>
      </trkpt>
      <trkpt lat="42.28469" lon="-0.480838">
        <ele>1515.0</ele>
        <time>2018-07-22T08:45:14.000Z</time>
      </trkpt>
      <trkpt lat="42.284686" lon="-0.480843">
        <ele>1514.9</ele>
        <time>2018-07-22T08:45:15.000Z</time>
      </trkpt>
      <trkpt lat="42.284682" lon="-0.480848">
        <ele>1514.8</ele>
        <time>2018-07-22T08:45:16.000Z</time>
      </trkpt>
      <trkpt lat="42.284678" lon="-0.480853">
        <ele>1514.7</ele>
        <time>2018-07-22T08:45:17.000Z</time>
      </trkpt>
      <trkpt lat="42.284674" lon="-0.480859">
        <ele>1514.5</ele>
        <time>2018-07-22T08:45:18.000Z</time>
      </trkpt>
      <trkpt lat="42.28467" lon="-0.480863">
        <ele>1514.5</ele>
        <time>2018-07-22T08:45:19.000Z</time>
      </trkpt>
      <trkpt lat="42.284667" lon="-0.480867">
        <ele>1514.4</ele>
        <time>2018-07-22T08:45:20.000Z</time>
      </trkpt>
      <trkpt lat="42.284665" lon="-0.48087">
        <ele>1514.3</ele>
        <time>2018-07-22T08:45:21.000Z</time>
      </trkpt>
      <trkpt lat="42.284664" lon="-0.480872">
        <ele>1514.3</ele>
        <time>2018-07-22T08:45:22.000Z</time>
      </trkpt>
      <trkpt lat="42.284663" lon="-0.480873">
        <ele>1514.2</ele>
        <time>2018-07-22T08:45:23.000Z</time>
      </trkpt>
      <trkpt lat="42.284661" lon="-0.480875">
        <ele>1514.2</ele>
        <time>2018-07-22T08:45:24.000Z</time>
      </trkpt>
      <trkpt lat="42.28466" lon="-0.480876">
        <ele>1514.2</ele>
        <time>2018-07-22T08:45:25.000Z</time>
      </trkpt>
      <trkpt lat="42.284659" lon="-0.480878">
        <ele>1514.1</ele>
        <time>2018-07-22T08:45:26.000Z</time>
      </trkpt>
      <trkpt lat="42.284657" lon="-0.48088">
        <ele>1514.1</ele>
        <time>2018-07-22T08:45:27.000Z</time>
      </trkpt>
      <trkpt lat="42.284656" lon="-0.480882">
        <ele>1514.1</ele>
        <time>2018-07-22T08:45:28.000Z</time>
      </trkpt>
      <trkpt lat="42.284654" lon="-0.480883">
        <ele>1514.1</ele>
        <time>2018-07-22T08:45:29.000Z</time>
      </trkpt>
      <trkpt lat="42.284653" lon="-0.480885">
        <ele>1514.0</ele>
        <time>2018-07-22T08:45:30.000Z</time>
      </trkpt>
      <trkpt lat="42.284652" lon="-0.480887">
        <ele>1513.9</ele>
        <time>2018-07-22T08:45:31.000Z</time>
      </trkpt>
      <trkpt lat="42.28465" lon="-0.480889">
        <ele>1513.9</ele>
        <time>2018-07-22T08:45:32.000Z</time>
      </trkpt>
      <trkpt lat="42.284647" lon="-0.480891">
        <ele>1513.9</ele>
        <time>2018-07-22T08:45:33.000Z</time>
      </trkpt>
      <trkpt lat="42.284645" lon="-0.480894">
        <ele>1513.8</ele>
        <time>2018-07-22T08:45:34.000Z</time>
      </trkpt>
      <trkpt lat="42.284643" lon="-0.480896">
        <ele>1513.8</ele>
        <time>2018-07-22T08:45:35.000Z</time>
      </trkpt>
      <trkpt lat="42.284641" lon="-0.480898">
        <ele>1513.8</ele>
        <time>2018-07-22T08:45:36.000Z</time>
      </trkpt>
      <trkpt lat="42.28464" lon="-0.480899">
        <ele>1513.8</ele>
        <time>2018-07-22T08:45:37.000Z</time>
      </trkpt>
      <trkpt lat="42.284639" lon="-0.480899">
        <ele>1513.8</ele>
        <time>2018-07-22T08:45:38.000Z</time>
      </trkpt>
      <trkpt lat="42.284639" lon="-0.4809">
        <ele>1513.7</ele>
        <time>2018-07-22T08:45:39.000Z</time>
      </trkpt>
      <trkpt lat="42.284639" lon="-0.4809">
        <ele>1513.7</ele>
        <time>2018-07-22T08:45:40.000Z</time>
      </trkpt>
      <trkpt lat="42.284638" lon="-0.480901">
        <ele>1513.7</ele>
        <time>2018-07-22T08:45:41.000Z</time>
      </trkpt>
      <trkpt lat="42.284637" lon="-0.480901">
        <ele>1513.7</ele>
        <time>2018-07-22T08:45:42.000Z</time>
      </trkpt>
      <trkpt lat="42.284637" lon="-0.480901">
        <ele>1513.7</ele>
        <time>2018-07-22T08:45:43.000Z</time>
      </trkpt>
      <trkpt lat="42.284636" lon="-0.480902">
        <ele>1513.7</ele>
        <time>2018-07-22T08:45:44.000Z</time>
      </trkpt>
      <trkpt lat="42.284635" lon="-0.480902">
        <ele>1513.8</ele>
        <time>2018-07-22T08:45:45.000Z</time>
      </trkpt>
      <trkpt lat="42.284633" lon="-0.480903">
        <ele>1513.8</ele>
        <time>2018-07-22T08:45:46.000Z</time>
      </trkpt>
      <trkpt lat="42.284632" lon="-0.480904">
        <ele>1513.7</ele>
        <time>2018-07-22T08:45:47.000Z</time>
      </trkpt>
      <trkpt lat="42.284631" lon="-0.480904">
        <ele>1513.8</ele>
        <time>2018-07-22T08:45:48.000Z</time>
      </trkpt>
      <trkpt lat="42.284629" lon="-0.480905">
        <ele>1513.8</ele>
        <time>2018-07-22T08:45:49.000Z</time>
      </trkpt>
      <trkpt lat="42.284627" lon="-0.480906">
        <ele>1513.8</ele>
        <time>2018-07-22T08:45:50.000Z</time>
      </trkpt>
      <trkpt lat="42.284625" lon="-0.480907">
        <ele>1513.8</ele>
        <time>2018-07-22T08:45:51.000Z</time>
      </trkpt>
      <trkpt lat="42.284623" lon="-0.480908">
        <ele>1513.8</ele>
        <time>2018-07-22T08:45:52.000Z</time>
      </trkpt>
      <trkpt lat="42.284621" lon="-0.48091">
        <ele>1513.8</ele>
        <time>2018-07-22T08:45:53.000Z</time>
      </trkpt>
      <trkpt lat="42.284619" lon="-0.480911">
        <ele>1513.8</ele>
        <time>2018-07-22T08:45:54.000Z</time>
      </trkpt>
      <trkpt lat="42.284617" lon="-0.480913">
        <ele>1513.8</ele>
        <time>2018-07-22T08:45:55.000Z</time>
      </trkpt>
      <trkpt lat="42.284616" lon="-0.480914">
        <ele>1513.7</ele>
        <time>2018-07-22T08:45:56.000Z</time>
      </trkpt>
      <trkpt lat="42.284615" lon="-0.480915">
        <ele>1513.7</ele>
        <time>2018-07-22T08:45:57.000Z</time>
      </trkpt>
      <trkpt lat="42.284612" lon="-0.480918">
        <ele>1513.7</ele>
        <time>2018-07-22T08:45:58.000Z</time>
      </trkpt>
      <trkpt lat="42.284609" lon="-0.480921">
        <ele>1513.6</ele>
        <time>2018-07-22T08:45:59.000Z</time>
      </trkpt>
      <trkpt lat="42.284605" lon="-0.480924">
        <ele>1513.6</ele>
        <time>2018-07-22T08:46:00.000Z</time>
      </trkpt>
      <trkpt lat="42.284602" lon="-0.480926">
        <ele>1513.6</ele>
        <time>2018-07-22T08:46:01.000Z</time>
      </trkpt>
      <trkpt lat="42.2846" lon="-0.480927">
        <ele>1513.6</ele>
        <time>2018-07-22T08:46:02.000Z</time>
      </trkpt>
      <trkpt lat="42.284598" lon="-0.480928">
        <ele>1513.6</ele>
        <time>2018-07-22T08:46:03.000Z</time>
      </trkpt>
      <trkpt lat="42.284597" lon="-0.480928">
        <ele>1513.6</ele>
        <time>2018-07-22T08:46:04.000Z</time>
      </trkpt>
      <trkpt lat="42.284596" lon="-0.480929">
        <ele>1513.6</ele>
        <time>2018-07-22T08:46:05.000Z</time>
      </trkpt>
      <trkpt lat="42.284595" lon="-0.48093">
        <ele>1513.6</ele>
        <time>2018-07-22T08:46:06.000Z</time>
      </trkpt>
      <trkpt lat="42.284595" lon="-0.480932">
        <ele>1513.5</ele>
        <time>2018-07-22T08:46:07.000Z</time>
      </trkpt>
      <trkpt lat="42.284595" lon="-0.480933">
        <ele>1513.5</ele>
        <time>2018-07-22T08:46:08.000Z</time>
      </trkpt>
      <trkpt lat="42.284595" lon="-0.480936">
        <ele>1513.3</ele>
        <time>2018-07-22T08:46:09.000Z</time>
      </trkpt>
      <trkpt lat="42.284595" lon="-0.480939">
        <ele>1513.2</ele>
        <time>2018-07-22T08:46:10.000Z</time>
      </trkpt>
      <trkpt lat="42.284595" lon="-0.480941">
        <ele>1513.1</ele>
        <time>2018-07-22T08:46:11.000Z</time>
      </trkpt>
      <trkpt lat="42.284594" lon="-0.480942">
        <ele>1513.1</ele>
        <time>2018-07-22T08:46:12.000Z</time>
      </trkpt>
      <trkpt lat="42.284594" lon="-0.480943">
        <ele>1513.1</ele>
        <time>2018-07-22T08:46:13.000Z</time>
      </trkpt>
      <trkpt lat="42.284593" lon="-0.480942">
        <ele>1513.1</ele>
        <time>2018-07-22T08:46:14.000Z</time>
      </trkpt>
      <trkpt lat="42.284592" lon="-0.480939">
        <ele>1513.3</ele>
        <time>2018-07-22T08:46:15.000Z</time>
      </trkpt>
      <trkpt lat="42.284591" lon="-0.480932">
        <ele>1513.6</ele>
        <time>2018-07-22T08:46:16.000Z</time>
      </trkpt>
      <trkpt lat="42.284589" lon="-0.480922">
        <ele>1514.1</ele>
        <time>2018-07-22T08:46:17.000Z</time>
      </trkpt>
      <trkpt lat="42.284587" lon="-0.480917">
        <ele>1514.3</ele>
        <time>2018-07-22T08:46:18.000Z</time>
      </trkpt>
      <trkpt lat="42.284585" lon="-0.480914">
        <ele>1514.5</ele>
        <time>2018-07-22T08:46:19.000Z</time>
      </trkpt>
      <trkpt lat="42.284582" lon="-0.48091">
        <ele>1514.8</ele>
        <time>2018-07-22T08:46:20.000Z</time>
      </trkpt>
      <trkpt lat="42.284577" lon="-0.480904">
        <ele>1515.2</ele>
        <time>2018-07-22T08:46:21.000Z</time>
      </trkpt>
      <trkpt lat="42.284574" lon="-0.480899">
        <ele>1515.4</ele>
        <time>2018-07-22T08:46:22.000Z</time>
      </trkpt>
      <trkpt lat="42.28457" lon="-0.480897">
        <ele>1515.6</ele>
        <time>2018-07-22T08:46:23.000Z</time>
      </trkpt>
      <trkpt lat="42.284568" lon="-0.480896">
        <ele>1515.7</ele>
        <time>2018-07-22T08:46:24.000Z</time>
      </trkpt>
      <trkpt lat="42.284566" lon="-0.480895">
        <ele>1515.8</ele>
        <time>2018-07-22T08:46:25.000Z</time>
      </trkpt>
      <trkpt lat="42.284564" lon="-0.480894">
        <ele>1515.9</ele>
        <time>2018-07-22T08:46:26.000Z</time>
      </trkpt>
      <trkpt lat="42.284563" lon="-0.480894">
        <ele>1515.9</ele>
        <time>2018-07-22T08:46:27.000Z</time>
      </trkpt>
      <trkpt lat="42.284561" lon="-0.480893">
        <ele>1516.0</ele>
        <time>2018-07-22T08:46:28.000Z</time>
      </trkpt>
      <trkpt lat="42.284559" lon="-0.480892">
        <ele>1516.1</ele>
        <time>2018-07-22T08:46:29.000Z</time>
      </trkpt>
      <trkpt lat="42.284557" lon="-0.480892">
        <ele>1516.2</ele>
        <time>2018-07-22T08:46:30.000Z</time>
      </trkpt>
      <trkpt lat="42.284555" lon="-0.480891">
        <ele>1516.3</ele>
        <time>2018-07-22T08:46:31.000Z</time>
      </trkpt>
      <trkpt lat="42.284554" lon="-0.480891">
        <ele>1516.3</ele>
        <time>2018-07-22T08:46:32.000Z</time>
      </trkpt>
      <trkpt lat="42.284552" lon="-0.48089">
        <ele>1516.4</ele>
        <time>2018-07-22T08:46:33.000Z</time>
      </trkpt>
      <trkpt lat="42.28455" lon="-0.48089">
        <ele>1516.4</ele>
        <time>2018-07-22T08:46:34.000Z</time>
      </trkpt>
      <trkpt lat="42.284546" lon="-0.48089">
        <ele>1516.5</ele>
        <time>2018-07-22T08:46:35.000Z</time>
      </trkpt>
      <trkpt lat="42.284541" lon="-0.480893">
        <ele>1516.5</ele>
        <time>2018-07-22T08:46:36.000Z</time>
      </trkpt>
      <trkpt lat="42.284536" lon="-0.480897">
        <ele>1516.5</ele>
        <time>2018-07-22T08:46:37.000Z</time>
      </trkpt>
      <trkpt lat="42.284534" lon="-0.4809">
        <ele>1516.4</ele>
        <time>2018-07-22T08:46:38.000Z</time>
      </trkpt>
      <trkpt lat="42.284533" lon="-0.480902">
        <ele>1516.4</ele>
        <time>2018-07-22T08:46:39.000Z</time>
      </trkpt>
      <trkpt lat="42.284532" lon="-0.480903">
        <ele>1516.3</ele>
        <time>2018-07-22T08:46:40.000Z</time>
      </trkpt>
      <trkpt lat="42.284531" lon="-0.480904">
        <ele>1516.3</ele>
        <time>2018-07-22T08:46:41.000Z</time>
      </trkpt>
      <trkpt lat="42.28453" lon="-0.480905">
        <ele>1516.3</ele>
        <time>2018-07-22T08:46:42.000Z</time>
      </trkpt>
      <trkpt lat="42.284529" lon="-0.480905">
        <ele>1516.3</ele>
        <time>2018-07-22T08:46:43.000Z</time>
      </trkpt>
      <trkpt lat="42.284529" lon="-0.480906">
        <ele>1516.3</ele>
        <time>2018-07-22T08:46:44.000Z</time>
      </trkpt>
      <trkpt lat="42.284528" lon="-0.480906">
        <ele>1516.3</ele>
        <time>2018-07-22T08:46:45.000Z</time>
      </trkpt>
      <trkpt lat="42.284527" lon="-0.480907">
        <ele>1516.3</ele>
        <time>2018-07-22T08:46:46.000Z</time>
      </trkpt>
      <trkpt lat="42.284527" lon="-0.480907">
        <ele>1516.3</ele>
        <time>2018-07-22T08:46:47.000Z</time>
      </trkpt>
      <trkpt lat="42.284526" lon="-0.480908">
        <ele>1516.3</ele>
        <time>2018-07-22T08:46:48.000Z</time>
      </trkpt>
      <trkpt lat="42.284525" lon="-0.480908">
        <ele>1516.3</ele>
        <time>2018-07-22T08:46:49.000Z</time>
      </trkpt>
      <trkpt lat="42.284525" lon="-0.480908">
        <ele>1516.3</ele>
        <time>2018-07-22T08:46:50.000Z</time>
      </trkpt>
      <trkpt lat="42.284524" lon="-0.480908">
        <ele>1516.3</ele>
        <time>2018-07-22T08:46:51.000Z</time>
      </trkpt>
      <trkpt lat="42.284524" lon="-0.480908">
        <ele>1516.3</ele>
        <time>2018-07-22T08:46:52.000Z</time>
      </trkpt>
      <trkpt lat="42.284523" lon="-0.480908">
        <ele>1516.4</ele>
        <time>2018-07-22T08:46:53.000Z</time>
      </trkpt>
      <trkpt lat="42.284523" lon="-0.480909">
        <ele>1516.3</ele>
        <time>2018-07-22T08:46:54.000Z</time>
      </trkpt>
      <trkpt lat="42.284522" lon="-0.480909">
        <ele>1516.3</ele>
        <time>2018-07-22T08:46:55.000Z</time>
      </trkpt>
      <trkpt lat="42.284522" lon="-0.480909">
        <ele>1516.3</ele>
        <time>2018-07-22T08:46:56.000Z</time>
      </trkpt>
      <trkpt lat="42.284521" lon="-0.480909">
        <ele>1516.4</ele>
        <time>2018-07-22T08:46:57.000Z</time>
      </trkpt>
      <trkpt lat="42.28452" lon="-0.480909">
        <ele>1516.4</ele>
        <time>2018-07-22T08:46:58.000Z</time>
      </trkpt>
      <trkpt lat="42.284519" lon="-0.480909">
        <ele>1516.4</ele>
        <time>2018-07-22T08:46:59.000Z</time>
      </trkpt>
      <trkpt lat="42.284519" lon="-0.480909">
        <ele>1516.4</ele>
        <time>2018-07-22T08:47:00.000Z</time>
      </trkpt>
      <trkpt lat="42.284518" lon="-0.480909">
        <ele>1516.4</ele>
        <time>2018-07-22T08:47:01.000Z</time>
      </trkpt>
      <trkpt lat="42.284517" lon="-0.480909">
        <ele>1516.5</ele>
        <time>2018-07-22T08:47:02.000Z</time>
      </trkpt>
      <trkpt lat="42.284516" lon="-0.480909">
        <ele>1516.5</ele>
        <time>2018-07-22T08:47:03.000Z</time>
      </trkpt>
      <trkpt lat="42.284515" lon="-0.480909">
        <ele>1516.5</ele>
        <time>2018-07-22T08:47:04.000Z</time>
      </trkpt>
      <trkpt lat="42.284514" lon="-0.480908">
        <ele>1516.6</ele>
        <time>2018-07-22T08:47:05.000Z</time>
      </trkpt>
      <trkpt lat="42.284513" lon="-0.480907">
        <ele>1516.7</ele>
        <time>2018-07-22T08:47:06.000Z</time>
      </trkpt>
      <trkpt lat="42.284512" lon="-0.480906">
        <ele>1516.7</ele>
        <time>2018-07-22T08:47:07.000Z</time>
      </trkpt>
      <trkpt lat="42.28451" lon="-0.480904">
        <ele>1516.9</ele>
        <time>2018-07-22T08:47:08.000Z</time>
      </trkpt>
      <trkpt lat="42.284509" lon="-0.480901">
        <ele>1517.0</ele>
        <time>2018-07-22T08:47:09.000Z</time>
      </trkpt>
      <trkpt lat="42.284505" lon="-0.480896">
        <ele>1517.3</ele>
        <time>2018-07-22T08:47:10.000Z</time>
      </trkpt>
      <trkpt lat="42.2845" lon="-0.480896">
        <ele>1517.5</ele>
        <time>2018-07-22T08:47:11.000Z</time>
      </trkpt>
      <trkpt lat="42.284496" lon="-0.480895">
        <ele>1517.6</ele>
        <time>2018-07-22T08:47:12.000Z</time>
      </trkpt>
      <trkpt lat="42.284492" lon="-0.480893">
        <ele>1517.8</ele>
        <time>2018-07-22T08:47:13.000Z</time>
      </trkpt>
      <trkpt lat="42.284489" lon="-0.480891">
        <ele>1518.0</ele>
        <time>2018-07-22T08:47:14.000Z</time>
      </trkpt>
      <trkpt lat="42.284487" lon="-0.48089">
        <ele>1518.1</ele>
        <time>2018-07-22T08:47:15.000Z</time>
      </trkpt>
      <trkpt lat="42.284486" lon="-0.480888">
        <ele>1518.2</ele>
        <time>2018-07-22T08:47:16.000Z</time>
      </trkpt>
      <trkpt lat="42.284485" lon="-0.480888">
        <ele>1518.2</ele>
        <time>2018-07-22T08:47:17.000Z</time>
      </trkpt>
      <trkpt lat="42.284484" lon="-0.480887">
        <ele>1518.3</ele>
        <time>2018-07-22T08:47:18.000Z</time>
      </trkpt>
      <trkpt lat="42.284483" lon="-0.480886">
        <ele>1518.3</ele>
        <time>2018-07-22T08:47:19.000Z</time>
      </trkpt>
      <trkpt lat="42.284481" lon="-0.480886">
        <ele>1518.4</ele>
        <time>2018-07-22T08:47:20.000Z</time>
      </trkpt>
      <trkpt lat="42.28448" lon="-0.480885">
        <ele>1518.5</ele>
        <time>2018-07-22T08:47:21.000Z</time>
      </trkpt>
      <trkpt lat="42.284478" lon="-0.480884">
        <ele>1518.6</ele>
        <time>2018-07-22T08:47:22.000Z</time>
      </trkpt>
      <trkpt lat="42.284475" lon="-0.480883">
        <ele>1518.7</ele>
        <time>2018-07-22T08:47:23.000Z</time>
      </trkpt>
      <trkpt lat="42.284472" lon="-0.48088">
        <ele>1518.9</ele>
        <time>2018-07-22T08:47:24.000Z</time>
      </trkpt>
      <trkpt lat="42.284468" lon="-0.480876">
        <ele>1519.2</ele>
        <time>2018-07-22T08:47:25.000Z</time>
      </trkpt>
      <trkpt lat="42.284464" lon="-0.480866">
        <ele>1519.7</ele>
        <time>2018-07-22T08:47:26.000Z</time>
      </trkpt>
      <trkpt lat="42.284459" lon="-0.480856">
        <ele>1520.3</ele>
        <time>2018-07-22T08:47:27.000Z</time>
      </trkpt>
      <trkpt lat="42.284456" lon="-0.48085">
        <ele>1520.6</ele>
        <time>2018-07-22T08:47:28.000Z</time>
      </trkpt>
      <trkpt lat="42.284453" lon="-0.480844">
        <ele>1521.0</ele>
        <time>2018-07-22T08:47:29.000Z</time>
      </trkpt>
      <trkpt lat="42.284449" lon="-0.480836">
        <ele>1521.4</ele>
        <time>2018-07-22T08:47:30.000Z</time>
      </trkpt>
      <trkpt lat="42.284446" lon="-0.480829">
        <ele>1521.5</ele>
        <time>2018-07-22T08:47:31.000Z</time>
      </trkpt>
      <trkpt lat="42.284443" lon="-0.480824">
        <ele>1521.5</ele>
        <time>2018-07-22T08:47:32.000Z</time>
      </trkpt>
      <trkpt lat="42.284442" lon="-0.48082">
        <ele>1521.4</ele>
        <time>2018-07-22T08:47:33.000Z</time>
      </trkpt>
      <trkpt lat="42.28444" lon="-0.480818">
        <ele>1521.4</ele>
        <time>2018-07-22T08:47:34.000Z</time>
      </trkpt>
      <trkpt lat="42.284439" lon="-0.480815">
        <ele>1521.4</ele>
        <time>2018-07-22T08:47:35.000Z</time>
      </trkpt>
      <trkpt lat="42.284438" lon="-0.480813">
        <ele>1521.4</ele>
        <time>2018-07-22T08:47:36.000Z</time>
      </trkpt>
      <trkpt lat="42.284437" lon="-0.48081">
        <ele>1521.3</ele>
        <time>2018-07-22T08:47:37.000Z</time>
      </trkpt>
      <trkpt lat="42.284435" lon="-0.480807">
        <ele>1521.3</ele>
        <time>2018-07-22T08:47:38.000Z</time>
      </trkpt>
      <trkpt lat="42.284433" lon="-0.480804">
        <ele>1521.3</ele>
        <time>2018-07-22T08:47:39.000Z</time>
      </trkpt>
      <trkpt lat="42.284432" lon="-0.480801">
        <ele>1521.3</ele>
        <time>2018-07-22T08:47:40.000Z</time>
      </trkpt>
      <trkpt lat="42.28443" lon="-0.480798">
        <ele>1521.2</ele>
        <time>2018-07-22T08:47:41.000Z</time>
      </trkpt>
      <trkpt lat="42.284427" lon="-0.480795">
        <ele>1521.2</ele>
        <time>2018-07-22T08:47:42.000Z</time>
      </trkpt>
      <trkpt lat="42.284422" lon="-0.48079">
        <ele>1521.3</ele>
        <time>2018-07-22T08:47:43.000Z</time>
      </trkpt>
      <trkpt lat="42.284417" lon="-0.480785">
        <ele>1521.3</ele>
        <time>2018-07-22T08:47:44.000Z</time>
      </trkpt>
      <trkpt lat="42.284411" lon="-0.480783">
        <ele>1521.4</ele>
        <time>2018-07-22T08:47:45.000Z</time>
      </trkpt>
      <trkpt lat="42.284407" lon="-0.480782">
        <ele>1521.5</ele>
        <time>2018-07-22T08:47:46.000Z</time>
      </trkpt>
      <trkpt lat="42.284404" lon="-0.480781">
        <ele>1521.5</ele>
        <time>2018-07-22T08:47:47.000Z</time>
      </trkpt>
      <trkpt lat="42.284401" lon="-0.48078">
        <ele>1521.6</ele>
        <time>2018-07-22T08:47:48.000Z</time>
      </trkpt>
      <trkpt lat="42.284399" lon="-0.48078">
        <ele>1521.6</ele>
        <time>2018-07-22T08:47:49.000Z</time>
      </trkpt>
      <trkpt lat="42.284396" lon="-0.480779">
        <ele>1521.7</ele>
        <time>2018-07-22T08:47:50.000Z</time>
      </trkpt>
      <trkpt lat="42.284394" lon="-0.480778">
        <ele>1521.7</ele>
        <time>2018-07-22T08:47:51.000Z</time>
      </trkpt>
      <trkpt lat="42.284392" lon="-0.480778">
        <ele>1521.7</ele>
        <time>2018-07-22T08:47:52.000Z</time>
      </trkpt>
      <trkpt lat="42.28439" lon="-0.480777">
        <ele>1521.8</ele>
        <time>2018-07-22T08:47:53.000Z</time>
      </trkpt>
      <trkpt lat="42.284386" lon="-0.480774">
        <ele>1521.8</ele>
        <time>2018-07-22T08:47:54.000Z</time>
      </trkpt>
      <trkpt lat="42.284377" lon="-0.480764">
        <ele>1521.8</ele>
        <time>2018-07-22T08:47:55.000Z</time>
      </trkpt>
      <trkpt lat="42.284372" lon="-0.480759">
        <ele>1521.8</ele>
        <time>2018-07-22T08:47:56.000Z</time>
      </trkpt>
      <trkpt lat="42.284369" lon="-0.480754">
        <ele>1521.7</ele>
        <time>2018-07-22T08:47:57.000Z</time>
      </trkpt>
      <trkpt lat="42.284365" lon="-0.480749">
        <ele>1521.7</ele>
        <time>2018-07-22T08:47:58.000Z</time>
      </trkpt>
      <trkpt lat="42.284363" lon="-0.480744">
        <ele>1521.7</ele>
        <time>2018-07-22T08:47:59.000Z</time>
      </trkpt>
      <trkpt lat="42.28436" lon="-0.480739">
        <ele>1521.6</ele>
        <time>2018-07-22T08:48:00.000Z</time>
      </trkpt>
      <trkpt lat="42.284359" lon="-0.480736">
        <ele>1521.6</ele>
        <time>2018-07-22T08:48:01.000Z</time>
      </trkpt>
      <trkpt lat="42.284358" lon="-0.480734">
        <ele>1521.5</ele>
        <time>2018-07-22T08:48:02.000Z</time>
      </trkpt>
      <trkpt lat="42.284356" lon="-0.480731">
        <ele>1521.5</ele>
        <time>2018-07-22T08:48:03.000Z</time>
      </trkpt>
      <trkpt lat="42.284351" lon="-0.48072">
        <ele>1521.4</ele>
        <time>2018-07-22T08:48:04.000Z</time>
      </trkpt>
      <trkpt lat="42.284347" lon="-0.480713">
        <ele>1521.3</ele>
        <time>2018-07-22T08:48:05.000Z</time>
      </trkpt>
      <trkpt lat="42.284343" lon="-0.480708">
        <ele>1521.3</ele>
        <time>2018-07-22T08:48:06.000Z</time>
      </trkpt>
      <trkpt lat="42.28434" lon="-0.480705">
        <ele>1521.3</ele>
        <time>2018-07-22T08:48:07.000Z</time>
      </trkpt>
      <trkpt lat="42.284337" lon="-0.480703">
        <ele>1521.3</ele>
        <time>2018-07-22T08:48:08.000Z</time>
      </trkpt>
      <trkpt lat="42.284335" lon="-0.480701">
        <ele>1521.3</ele>
        <time>2018-07-22T08:48:09.000Z</time>
      </trkpt>
      <trkpt lat="42.284333" lon="-0.480699">
        <ele>1521.3</ele>
        <time>2018-07-22T08:48:10.000Z</time>
      </trkpt>
      <trkpt lat="42.284331" lon="-0.480698">
        <ele>1521.3</ele>
        <time>2018-07-22T08:48:11.000Z</time>
      </trkpt>
      <trkpt lat="42.284329" lon="-0.480696">
        <ele>1521.3</ele>
        <time>2018-07-22T08:48:12.000Z</time>
      </trkpt>
      <trkpt lat="42.284327" lon="-0.480695">
        <ele>1521.3</ele>
        <time>2018-07-22T08:48:13.000Z</time>
      </trkpt>
      <trkpt lat="42.284325" lon="-0.480693">
        <ele>1521.3</ele>
        <time>2018-07-22T08:48:14.000Z</time>
      </trkpt>
      <trkpt lat="42.284323" lon="-0.480691">
        <ele>1521.3</ele>
        <time>2018-07-22T08:48:15.000Z</time>
      </trkpt>
      <trkpt lat="42.284321" lon="-0.480689">
        <ele>1521.3</ele>
        <time>2018-07-22T08:48:16.000Z</time>
      </trkpt>
      <trkpt lat="42.284319" lon="-0.480687">
        <ele>1521.3</ele>
        <time>2018-07-22T08:48:17.000Z</time>
      </trkpt>
      <trkpt lat="42.284317" lon="-0.480685">
        <ele>1521.3</ele>
        <time>2018-07-22T08:48:18.000Z</time>
      </trkpt>
      <trkpt lat="42.284316" lon="-0.480684">
        <ele>1521.3</ele>
        <time>2018-07-22T08:48:19.000Z</time>
      </trkpt>
      <trkpt lat="42.284315" lon="-0.480683">
        <ele>1521.3</ele>
        <time>2018-07-22T08:48:20.000Z</time>
      </trkpt>
      <trkpt lat="42.284314" lon="-0.480683">
        <ele>1521.3</ele>
        <time>2018-07-22T08:48:21.000Z</time>
      </trkpt>
      <trkpt lat="42.284314" lon="-0.480682">
        <ele>1521.3</ele>
        <time>2018-07-22T08:48:22.000Z</time>
      </trkpt>
      <trkpt lat="42.284313" lon="-0.480682">
        <ele>1521.3</ele>
        <time>2018-07-22T08:48:23.000Z</time>
      </trkpt>
      <trkpt lat="42.284312" lon="-0.480681">
        <ele>1521.3</ele>
        <time>2018-07-22T08:48:24.000Z</time>
      </trkpt>
      <trkpt lat="42.284312" lon="-0.48068">
        <ele>1521.3</ele>
        <time>2018-07-22T08:48:25.000Z</time>
      </trkpt>
      <trkpt lat="42.28431" lon="-0.480679">
        <ele>1521.3</ele>
        <time>2018-07-22T08:48:26.000Z</time>
      </trkpt>
      <trkpt lat="42.28431" lon="-0.480679">
        <ele>1521.3</ele>
        <time>2018-07-22T08:48:27.000Z</time>
      </trkpt>
      <trkpt lat="42.284309" lon="-0.480678">
        <ele>1521.3</ele>
        <time>2018-07-22T08:48:28.000Z</time>
      </trkpt>
      <trkpt lat="42.284297" lon="-0.480671">
        <ele>1521.4</ele>
        <time>2018-07-22T08:48:29.000Z</time>
      </trkpt>
      <trkpt lat="42.284291" lon="-0.480667">
        <ele>1521.5</ele>
        <time>2018-07-22T08:48:30.000Z</time>
      </trkpt>
      <trkpt lat="42.284284" lon="-0.480662">
        <ele>1521.5</ele>
        <time>2018-07-22T08:48:31.000Z</time>
      </trkpt>
      <trkpt lat="42.28428" lon="-0.480656">
        <ele>1521.5</ele>
        <time>2018-07-22T08:48:32.000Z</time>
      </trkpt>
      <trkpt lat="42.284277" lon="-0.480653">
        <ele>1521.5</ele>
        <time>2018-07-22T08:48:33.000Z</time>
      </trkpt>
      <trkpt lat="42.284275" lon="-0.48065">
        <ele>1521.4</ele>
        <time>2018-07-22T08:48:34.000Z</time>
      </trkpt>
      <trkpt lat="42.284273" lon="-0.480647">
        <ele>1521.4</ele>
        <time>2018-07-22T08:48:35.000Z</time>
      </trkpt>
      <trkpt lat="42.284271" lon="-0.480644">
        <ele>1521.4</ele>
        <time>2018-07-22T08:48:36.000Z</time>
      </trkpt>
      <trkpt lat="42.284269" lon="-0.480641">
        <ele>1521.3</ele>
        <time>2018-07-22T08:48:37.000Z</time>
      </trkpt>
      <trkpt lat="42.284267" lon="-0.480638">
        <ele>1521.3</ele>
        <time>2018-07-22T08:48:38.000Z</time>
      </trkpt>
      <trkpt lat="42.284264" lon="-0.480634">
        <ele>1521.3</ele>
        <time>2018-07-22T08:48:39.000Z</time>
      </trkpt>
      <trkpt lat="42.284259" lon="-0.480625">
        <ele>1521.1</ele>
        <time>2018-07-22T08:48:40.000Z</time>
      </trkpt>
      <trkpt lat="42.284257" lon="-0.480618">
        <ele>1521.0</ele>
        <time>2018-07-22T08:48:41.000Z</time>
      </trkpt>
      <trkpt lat="42.284254" lon="-0.480612">
        <ele>1520.9</ele>
        <time>2018-07-22T08:48:42.000Z</time>
      </trkpt>
      <trkpt lat="42.284253" lon="-0.480609">
        <ele>1520.9</ele>
        <time>2018-07-22T08:48:43.000Z</time>
      </trkpt>
      <trkpt lat="42.284252" lon="-0.480607">
        <ele>1520.8</ele>
        <time>2018-07-22T08:48:44.000Z</time>
      </trkpt>
      <trkpt lat="42.284252" lon="-0.480607">
        <ele>1520.8</ele>
        <time>2018-07-22T08:48:45.000Z</time>
      </trkpt>
      <trkpt lat="42.284252" lon="-0.480606">
        <ele>1520.8</ele>
        <time>2018-07-22T08:48:46.000Z</time>
      </trkpt>
      <trkpt lat="42.284251" lon="-0.480606">
        <ele>1520.8</ele>
        <time>2018-07-22T08:48:47.000Z</time>
      </trkpt>
      <trkpt lat="42.284251" lon="-0.480605">
        <ele>1520.8</ele>
        <time>2018-07-22T08:48:48.000Z</time>
      </trkpt>
      <trkpt lat="42.284251" lon="-0.480604">
        <ele>1520.8</ele>
        <time>2018-07-22T08:48:49.000Z</time>
      </trkpt>
      <trkpt lat="42.28425" lon="-0.480603">
        <ele>1520.8</ele>
        <time>2018-07-22T08:48:50.000Z</time>
      </trkpt>
      <trkpt lat="42.28425" lon="-0.480602">
        <ele>1520.7</ele>
        <time>2018-07-22T08:48:51.000Z</time>
      </trkpt>
      <trkpt lat="42.284249" lon="-0.480601">
        <ele>1520.7</ele>
        <time>2018-07-22T08:48:52.000Z</time>
      </trkpt>
      <trkpt lat="42.284249" lon="-0.480601">
        <ele>1520.7</ele>
        <time>2018-07-22T08:48:53.000Z</time>
      </trkpt>
      <trkpt lat="42.284249" lon="-0.4806">
        <ele>1520.7</ele>
        <time>2018-07-22T08:48:54.000Z</time>
      </trkpt>
      <trkpt lat="42.284248" lon="-0.4806">
        <ele>1520.7</ele>
        <time>2018-07-22T08:48:55.000Z</time>
      </trkpt>
      <trkpt lat="42.284248" lon="-0.480599">
        <ele>1520.7</ele>
        <time>2018-07-22T08:48:56.000Z</time>
      </trkpt>
      <trkpt lat="42.284248" lon="-0.480599">
        <ele>1520.7</ele>
        <time>2018-07-22T08:48:57.000Z</time>
      </trkpt>
      <trkpt lat="42.284248" lon="-0.480599">
        <ele>1520.7</ele>
        <time>2018-07-22T08:48:58.000Z</time>
      </trkpt>
      <trkpt lat="42.284247" lon="-0.480599">
        <ele>1520.7</ele>
        <time>2018-07-22T08:48:59.000Z</time>
      </trkpt>
      <trkpt lat="42.284247" lon="-0.480598">
        <ele>1520.7</ele>
        <time>2018-07-22T08:49:00.000Z</time>
      </trkpt>
      <trkpt lat="42.284247" lon="-0.480598">
        <ele>1520.7</ele>
        <time>2018-07-22T08:49:01.000Z</time>
      </trkpt>
      <trkpt lat="42.284247" lon="-0.480599">
        <ele>1520.7</ele>
        <time>2018-07-22T08:49:02.000Z</time>
      </trkpt>
      <trkpt lat="42.284247" lon="-0.480599">
        <ele>1520.7</ele>
        <time>2018-07-22T08:49:03.000Z</time>
      </trkpt>
      <trkpt lat="42.284247" lon="-0.480599">
        <ele>1520.7</ele>
        <time>2018-07-22T08:49:04.000Z</time>
      </trkpt>
      <trkpt lat="42.284247" lon="-0.480599">
        <ele>1520.7</ele>
        <time>2018-07-22T08:49:05.000Z</time>
      </trkpt>
      <trkpt lat="42.284247" lon="-0.480599">
        <ele>1520.7</ele>
        <time>2018-07-22T08:49:06.000Z</time>
      </trkpt>
      <trkpt lat="42.284246" lon="-0.480598">
        <ele>1520.7</ele>
        <time>2018-07-22T08:49:07.000Z</time>
      </trkpt>
      <trkpt lat="42.284246" lon="-0.480597">
        <ele>1520.7</ele>
        <time>2018-07-22T08:49:08.000Z</time>
      </trkpt>
      <trkpt lat="42.284245" lon="-0.480596">
        <ele>1520.7</ele>
        <time>2018-07-22T08:49:09.000Z</time>
      </trkpt>
      <trkpt lat="42.284243" lon="-0.480595">
        <ele>1520.7</ele>
        <time>2018-07-22T08:49:10.000Z</time>
      </trkpt>
      <trkpt lat="42.284242" lon="-0.480593">
        <ele>1520.7</ele>
        <time>2018-07-22T08:49:11.000Z</time>
      </trkpt>
      <trkpt lat="42.28424" lon="-0.48059">
        <ele>1520.7</ele>
        <time>2018-07-22T08:49:12.000Z</time>
      </trkpt>
      <trkpt lat="42.284237" lon="-0.480588">
        <ele>1520.7</ele>
        <time>2018-07-22T08:49:13.000Z</time>
      </trkpt>
      <trkpt lat="42.284235" lon="-0.480585">
        <ele>1520.6</ele>
        <time>2018-07-22T08:49:14.000Z</time>
      </trkpt>
      <trkpt lat="42.284231" lon="-0.480583">
        <ele>1520.7</ele>
        <time>2018-07-22T08:49:15.000Z</time>
      </trkpt>
      <trkpt lat="42.284226" lon="-0.480582">
        <ele>1520.8</ele>
        <time>2018-07-22T08:49:16.000Z</time>
      </trkpt>
      <trkpt lat="42.284219" lon="-0.480582">
        <ele>1520.9</ele>
        <time>2018-07-22T08:49:17.000Z</time>
      </trkpt>
      <trkpt lat="42.284213" lon="-0.480578">
        <ele>1520.9</ele>
        <time>2018-07-22T08:49:18.000Z</time>
      </trkpt>
      <trkpt lat="42.284205" lon="-0.480571">
        <ele>1520.9</ele>
        <time>2018-07-22T08:49:19.000Z</time>
      </trkpt>
      <trkpt lat="42.2842" lon="-0.480564">
        <ele>1520.8</ele>
        <time>2018-07-22T08:49:20.000Z</time>
      </trkpt>
      <trkpt lat="42.284196" lon="-0.48056">
        <ele>1520.8</ele>
        <time>2018-07-22T08:49:21.000Z</time>
      </trkpt>
      <trkpt lat="42.284193" lon="-0.480557">
        <ele>1520.8</ele>
        <time>2018-07-22T08:49:22.000Z</time>
      </trkpt>
      <trkpt lat="42.28419" lon="-0.480556">
        <ele>1520.8</ele>
        <time>2018-07-22T08:49:23.000Z</time>
      </trkpt>
      <trkpt lat="42.284189" lon="-0.480555">
        <ele>1520.8</ele>
        <time>2018-07-22T08:49:24.000Z</time>
      </trkpt>
      <trkpt lat="42.284187" lon="-0.480554">
        <ele>1520.9</ele>
        <time>2018-07-22T08:49:25.000Z</time>
      </trkpt>
      <trkpt lat="42.284186" lon="-0.480554">
        <ele>1520.9</ele>
        <time>2018-07-22T08:49:26.000Z</time>
      </trkpt>
      <trkpt lat="42.284185" lon="-0.480553">
        <ele>1520.9</ele>
        <time>2018-07-22T08:49:27.000Z</time>
      </trkpt>
      <trkpt lat="42.284185" lon="-0.480553">
        <ele>1520.9</ele>
        <time>2018-07-22T08:49:28.000Z</time>
      </trkpt>
      <trkpt lat="42.284184" lon="-0.480552">
        <ele>1520.9</ele>
        <time>2018-07-22T08:49:29.000Z</time>
      </trkpt>
      <trkpt lat="42.284184" lon="-0.480552">
        <ele>1520.9</ele>
        <time>2018-07-22T08:49:30.000Z</time>
      </trkpt>
      <trkpt lat="42.284183" lon="-0.480551">
        <ele>1520.9</ele>
        <time>2018-07-22T08:49:31.000Z</time>
      </trkpt>
      <trkpt lat="42.284182" lon="-0.48055">
        <ele>1520.9</ele>
        <time>2018-07-22T08:49:32.000Z</time>
      </trkpt>
      <trkpt lat="42.284181" lon="-0.480548">
        <ele>1520.8</ele>
        <time>2018-07-22T08:49:33.000Z</time>
      </trkpt>
      <trkpt lat="42.28418" lon="-0.480546">
        <ele>1520.8</ele>
        <time>2018-07-22T08:49:34.000Z</time>
      </trkpt>
      <trkpt lat="42.284178" lon="-0.480544">
        <ele>1520.8</ele>
        <time>2018-07-22T08:49:35.000Z</time>
      </trkpt>
      <trkpt lat="42.284176" lon="-0.480541">
        <ele>1520.7</ele>
        <time>2018-07-22T08:49:36.000Z</time>
      </trkpt>
      <trkpt lat="42.284174" lon="-0.480538">
        <ele>1520.7</ele>
        <time>2018-07-22T08:49:37.000Z</time>
      </trkpt>
      <trkpt lat="42.284172" lon="-0.480536">
        <ele>1520.7</ele>
        <time>2018-07-22T08:49:38.000Z</time>
      </trkpt>
      <trkpt lat="42.28417" lon="-0.480534">
        <ele>1520.7</ele>
        <time>2018-07-22T08:49:39.000Z</time>
      </trkpt>
      <trkpt lat="42.284168" lon="-0.48053">
        <ele>1520.6</ele>
        <time>2018-07-22T08:49:40.000Z</time>
      </trkpt>
      <trkpt lat="42.284165" lon="-0.480521">
        <ele>1520.3</ele>
        <time>2018-07-22T08:49:41.000Z</time>
      </trkpt>
      <trkpt lat="42.284164" lon="-0.480512">
        <ele>1520.0</ele>
        <time>2018-07-22T08:49:42.000Z</time>
      </trkpt>
      <trkpt lat="42.284162" lon="-0.480502">
        <ele>1519.6</ele>
        <time>2018-07-22T08:49:43.000Z</time>
      </trkpt>
      <trkpt lat="42.284161" lon="-0.480492">
        <ele>1519.3</ele>
        <time>2018-07-22T08:49:44.000Z</time>
      </trkpt>
      <trkpt lat="42.284157" lon="-0.480483">
        <ele>1518.8</ele>
        <time>2018-07-22T08:49:45.000Z</time>
      </trkpt>
      <trkpt lat="42.284152" lon="-0.480477">
        <ele>1518.4</ele>
        <time>2018-07-22T08:49:46.000Z</time>
      </trkpt>
      <trkpt lat="42.284147" lon="-0.480472">
        <ele>1517.9</ele>
        <time>2018-07-22T08:49:47.000Z</time>
      </trkpt>
      <trkpt lat="42.284141" lon="-0.480469">
        <ele>1517.5</ele>
        <time>2018-07-22T08:49:48.000Z</time>
      </trkpt>
      <trkpt lat="42.284134" lon="-0.480467">
        <ele>1517.1</ele>
        <time>2018-07-22T08:49:49.000Z</time>
      </trkpt>
      <trkpt lat="42.284129" lon="-0.480466">
        <ele>1516.8</ele>
        <time>2018-07-22T08:49:50.000Z</time>
      </trkpt>
      <trkpt lat="42.284124" lon="-0.480465">
        <ele>1516.5</ele>
        <time>2018-07-22T08:49:51.000Z</time>
      </trkpt>
      <trkpt lat="42.28412" lon="-0.480465">
        <ele>1516.3</ele>
        <time>2018-07-22T08:49:52.000Z</time>
      </trkpt>
      <trkpt lat="42.284117" lon="-0.480465">
        <ele>1516.1</ele>
        <time>2018-07-22T08:49:53.000Z</time>
      </trkpt>
      <trkpt lat="42.284115" lon="-0.480466">
        <ele>1516.0</ele>
        <time>2018-07-22T08:49:54.000Z</time>
      </trkpt>
      <trkpt lat="42.284113" lon="-0.480466">
        <ele>1515.9</ele>
        <time>2018-07-22T08:49:55.000Z</time>
      </trkpt>
      <trkpt lat="42.284111" lon="-0.480466">
        <ele>1515.8</ele>
        <time>2018-07-22T08:49:56.000Z</time>
      </trkpt>
      <trkpt lat="42.28411" lon="-0.480466">
        <ele>1515.7</ele>
        <time>2018-07-22T08:49:57.000Z</time>
      </trkpt>
      <trkpt lat="42.284109" lon="-0.480466">
        <ele>1515.7</ele>
        <time>2018-07-22T08:49:58.000Z</time>
      </trkpt>
      <trkpt lat="42.284109" lon="-0.480466">
        <ele>1515.7</ele>
        <time>2018-07-22T08:49:59.000Z</time>
      </trkpt>
      <trkpt lat="42.284108" lon="-0.480466">
        <ele>1515.6</ele>
        <time>2018-07-22T08:50:00.000Z</time>
      </trkpt>
      <trkpt lat="42.284108" lon="-0.480466">
        <ele>1515.6</ele>
        <time>2018-07-22T08:50:01.000Z</time>
      </trkpt>
      <trkpt lat="42.284108" lon="-0.480466">
        <ele>1515.6</ele>
        <time>2018-07-22T08:50:02.000Z</time>
      </trkpt>
      <trkpt lat="42.284108" lon="-0.480466">
        <ele>1515.6</ele>
        <time>2018-07-22T08:50:03.000Z</time>
      </trkpt>
      <trkpt lat="42.284108" lon="-0.480466">
        <ele>1515.6</ele>
        <time>2018-07-22T08:50:04.000Z</time>
      </trkpt>
      <trkpt lat="42.284108" lon="-0.480467">
        <ele>1515.7</ele>
        <time>2018-07-22T08:50:05.000Z</time>
      </trkpt>
      <trkpt lat="42.284108" lon="-0.480468">
        <ele>1515.7</ele>
        <time>2018-07-22T08:50:06.000Z</time>
      </trkpt>
      <trkpt lat="42.284108" lon="-0.48047">
        <ele>1515.8</ele>
        <time>2018-07-22T08:50:07.000Z</time>
      </trkpt>
      <trkpt lat="42.284108" lon="-0.480472">
        <ele>1515.8</ele>
        <time>2018-07-22T08:50:08.000Z</time>
      </trkpt>
      <trkpt lat="42.284108" lon="-0.480474">
        <ele>1515.9</ele>
        <time>2018-07-22T08:50:09.000Z</time>
      </trkpt>
      <trkpt lat="42.284108" lon="-0.480477">
        <ele>1516.0</ele>
        <time>2018-07-22T08:50:10.000Z</time>
      </trkpt>
      <trkpt lat="42.284108" lon="-0.480479">
        <ele>1516.0</ele>
        <time>2018-07-22T08:50:11.000Z</time>
      </trkpt>
      <trkpt lat="42.284109" lon="-0.480481">
        <ele>1516.1</ele>
        <time>2018-07-22T08:50:12.000Z</time>
      </trkpt>
      <trkpt lat="42.28411" lon="-0.480483">
        <ele>1516.2</ele>
        <time>2018-07-22T08:50:13.000Z</time>
      </trkpt>
      <trkpt lat="42.28411" lon="-0.480485">
        <ele>1516.3</ele>
        <time>2018-07-22T08:50:14.000Z</time>
      </trkpt>
      <trkpt lat="42.284111" lon="-0.480486">
        <ele>1516.4</ele>
        <time>2018-07-22T08:50:15.000Z</time>
      </trkpt>
      <trkpt lat="42.284112" lon="-0.480488">
        <ele>1516.5</ele>
        <time>2018-07-22T08:50:16.000Z</time>
      </trkpt>
      <trkpt lat="42.284113" lon="-0.480489">
        <ele>1516.6</ele>
        <time>2018-07-22T08:50:17.000Z</time>
      </trkpt>
      <trkpt lat="42.284114" lon="-0.48049">
        <ele>1516.7</ele>
        <time>2018-07-22T08:50:18.000Z</time>
      </trkpt>
      <trkpt lat="42.284118" lon="-0.480496">
        <ele>1517.1</ele>
        <time>2018-07-22T08:50:19.000Z</time>
      </trkpt>
      <trkpt lat="42.284129" lon="-0.480511">
        <ele>1518.1</ele>
        <time>2018-07-22T08:50:20.000Z</time>
      </trkpt>
      <trkpt lat="42.284144" lon="-0.48053">
        <ele>1519.4</ele>
        <time>2018-07-22T08:50:21.000Z</time>
      </trkpt>
      <trkpt lat="42.284147" lon="-0.480531">
        <ele>1519.6</ele>
        <time>2018-07-22T09:11:01.000Z</time>
      </trkpt>
      <trkpt lat="42.284145" lon="-0.480532">
        <ele>1519.5</ele>
        <time>2018-07-22T09:11:02.000Z</time>
      </trkpt>
      <trkpt lat="42.284144" lon="-0.480541">
        <ele>1519.7</ele>
        <time>2018-07-22T09:11:03.000Z</time>
      </trkpt>
      <trkpt lat="42.284146" lon="-0.480553">
        <ele>1520.2</ele>
        <time>2018-07-22T09:11:04.000Z</time>
      </trkpt>
      <trkpt lat="42.28415" lon="-0.480565">
        <ele>1520.7</ele>
        <time>2018-07-22T09:11:05.000Z</time>
      </trkpt>
      <trkpt lat="42.284155" lon="-0.480571">
        <ele>1521.2</ele>
        <time>2018-07-22T09:11:06.000Z</time>
      </trkpt>
      <trkpt lat="42.284162" lon="-0.480574">
        <ele>1521.6</ele>
        <time>2018-07-22T09:11:07.000Z</time>
      </trkpt>
      <trkpt lat="42.284169" lon="-0.480577">
        <ele>1521.9</ele>
        <time>2018-07-22T09:11:08.000Z</time>
      </trkpt>
      <trkpt lat="42.284177" lon="-0.48058">
        <ele>1521.8</ele>
        <time>2018-07-22T09:11:09.000Z</time>
      </trkpt>
      <trkpt lat="42.284185" lon="-0.480583">
        <ele>1521.7</ele>
        <time>2018-07-22T09:11:10.000Z</time>
      </trkpt>
      <trkpt lat="42.284194" lon="-0.480587">
        <ele>1521.6</ele>
        <time>2018-07-22T09:11:11.000Z</time>
      </trkpt>
      <trkpt lat="42.284203" lon="-0.480592">
        <ele>1521.5</ele>
        <time>2018-07-22T09:11:12.000Z</time>
      </trkpt>
      <trkpt lat="42.284214" lon="-0.480596">
        <ele>1521.4</ele>
        <time>2018-07-22T09:11:13.000Z</time>
      </trkpt>
      <trkpt lat="42.284225" lon="-0.480601">
        <ele>1521.3</ele>
        <time>2018-07-22T09:11:14.000Z</time>
      </trkpt>
      <trkpt lat="42.284235" lon="-0.480605">
        <ele>1521.2</ele>
        <time>2018-07-22T09:11:15.000Z</time>
      </trkpt>
      <trkpt lat="42.284245" lon="-0.480609">
        <ele>1521.0</ele>
        <time>2018-07-22T09:11:16.000Z</time>
      </trkpt>
      <trkpt lat="42.284253" lon="-0.480613">
        <ele>1521.0</ele>
        <time>2018-07-22T09:11:17.000Z</time>
      </trkpt>
      <trkpt lat="42.284259" lon="-0.480615">
        <ele>1520.9</ele>
        <time>2018-07-22T09:11:18.000Z</time>
      </trkpt>
      <trkpt lat="42.284263" lon="-0.480616">
        <ele>1520.8</ele>
        <time>2018-07-22T09:11:19.000Z</time>
      </trkpt>
      <trkpt lat="42.284265" lon="-0.480617">
        <ele>1520.8</ele>
        <time>2018-07-22T09:11:20.000Z</time>
      </trkpt>
      <trkpt lat="42.284267" lon="-0.480617">
        <ele>1520.8</ele>
        <time>2018-07-22T09:11:21.000Z</time>
      </trkpt>
      <trkpt lat="42.284268" lon="-0.480617">
        <ele>1520.7</ele>
        <time>2018-07-22T09:11:22.000Z</time>
      </trkpt>
      <trkpt lat="42.284268" lon="-0.480617">
        <ele>1520.7</ele>
        <time>2018-07-22T09:11:23.000Z</time>
      </trkpt>
      <trkpt lat="42.284269" lon="-0.480617">
        <ele>1520.7</ele>
        <time>2018-07-22T09:11:24.000Z</time>
      </trkpt>
      <trkpt lat="42.28427" lon="-0.480617">
        <ele>1520.7</ele>
        <time>2018-07-22T09:11:25.000Z</time>
      </trkpt>
      <trkpt lat="42.284271" lon="-0.480617">
        <ele>1520.7</ele>
        <time>2018-07-22T09:11:26.000Z</time>
      </trkpt>
      <trkpt lat="42.284273" lon="-0.480617">
        <ele>1520.6</ele>
        <time>2018-07-22T09:11:27.000Z</time>
      </trkpt>
      <trkpt lat="42.284273" lon="-0.480617">
        <ele>1520.6</ele>
        <time>2018-07-22T09:11:28.000Z</time>
      </trkpt>
      <trkpt lat="42.284274" lon="-0.480617">
        <ele>1520.6</ele>
        <time>2018-07-22T09:11:29.000Z</time>
      </trkpt>
      <trkpt lat="42.284275" lon="-0.480618">
        <ele>1520.6</ele>
        <time>2018-07-22T09:11:30.000Z</time>
      </trkpt>
      <trkpt lat="42.284277" lon="-0.480619">
        <ele>1520.6</ele>
        <time>2018-07-22T09:11:31.000Z</time>
      </trkpt>
      <trkpt lat="42.28428" lon="-0.48062">
        <ele>1520.5</ele>
        <time>2018-07-22T09:11:32.000Z</time>
      </trkpt>
      <trkpt lat="42.284283" lon="-0.480622">
        <ele>1520.5</ele>
        <time>2018-07-22T09:11:33.000Z</time>
      </trkpt>
      <trkpt lat="42.284283" lon="-0.480623">
        <ele>1520.5</ele>
        <time>2018-07-22T09:11:34.000Z</time>
      </trkpt>
      <trkpt lat="42.284284" lon="-0.480623">
        <ele>1520.5</ele>
        <time>2018-07-22T09:11:35.000Z</time>
      </trkpt>
      <trkpt lat="42.284285" lon="-0.480624">
        <ele>1520.5</ele>
        <time>2018-07-22T09:11:36.000Z</time>
      </trkpt>
      <trkpt lat="42.284286" lon="-0.480624">
        <ele>1520.5</ele>
        <time>2018-07-22T09:11:37.000Z</time>
      </trkpt>
      <trkpt lat="42.284287" lon="-0.480625">
        <ele>1520.5</ele>
        <time>2018-07-22T09:11:38.000Z</time>
      </trkpt>
      <trkpt lat="42.284288" lon="-0.480625">
        <ele>1520.5</ele>
        <time>2018-07-22T09:11:39.000Z</time>
      </trkpt>
      <trkpt lat="42.284289" lon="-0.480625">
        <ele>1520.5</ele>
        <time>2018-07-22T09:11:40.000Z</time>
      </trkpt>
      <trkpt lat="42.284289" lon="-0.480626">
        <ele>1520.5</ele>
        <time>2018-07-22T09:11:41.000Z</time>
      </trkpt>
      <trkpt lat="42.28429" lon="-0.480626">
        <ele>1520.5</ele>
        <time>2018-07-22T09:11:42.000Z</time>
      </trkpt>
      <trkpt lat="42.28429" lon="-0.480626">
        <ele>1520.5</ele>
        <time>2018-07-22T09:11:43.000Z</time>
      </trkpt>
      <trkpt lat="42.284291" lon="-0.480626">
        <ele>1520.4</ele>
        <time>2018-07-22T09:11:44.000Z</time>
      </trkpt>
      <trkpt lat="42.284291" lon="-0.480626">
        <ele>1520.4</ele>
        <time>2018-07-22T09:11:45.000Z</time>
      </trkpt>
      <trkpt lat="42.284291" lon="-0.480626">
        <ele>1520.4</ele>
        <time>2018-07-22T09:11:46.000Z</time>
      </trkpt>
      <trkpt lat="42.284291" lon="-0.480626">
        <ele>1520.4</ele>
        <time>2018-07-22T09:11:47.000Z</time>
      </trkpt>
      <trkpt lat="42.284291" lon="-0.480626">
        <ele>1520.4</ele>
        <time>2018-07-22T09:11:48.000Z</time>
      </trkpt>
      <trkpt lat="42.284291" lon="-0.480626">
        <ele>1520.4</ele>
        <time>2018-07-22T09:11:49.000Z</time>
      </trkpt>
      <trkpt lat="42.284291" lon="-0.480626">
        <ele>1520.4</ele>
        <time>2018-07-22T09:11:50.000Z</time>
      </trkpt>
      <trkpt lat="42.284291" lon="-0.480626">
        <ele>1520.4</ele>
        <time>2018-07-22T09:11:51.000Z</time>
      </trkpt>
      <trkpt lat="42.284291" lon="-0.480626">
        <ele>1520.4</ele>
        <time>2018-07-22T09:11:52.000Z</time>
      </trkpt>
      <trkpt lat="42.284291" lon="-0.480626">
        <ele>1520.4</ele>
        <time>2018-07-22T09:11:53.000Z</time>
      </trkpt>
      <trkpt lat="42.284291" lon="-0.480626">
        <ele>1520.4</ele>
        <time>2018-07-22T09:11:54.000Z</time>
      </trkpt>
      <trkpt lat="42.284291" lon="-0.480626">
        <ele>1520.4</ele>
        <time>2018-07-22T09:11:55.000Z</time>
      </trkpt>
      <trkpt lat="42.284291" lon="-0.480626">
        <ele>1520.4</ele>
        <time>2018-07-22T09:11:56.000Z</time>
      </trkpt>
      <trkpt lat="42.284291" lon="-0.480626">
        <ele>1520.4</ele>
        <time>2018-07-22T09:11:57.000Z</time>
      </trkpt>
      <trkpt lat="42.28429" lon="-0.480627">
        <ele>1520.5</ele>
        <time>2018-07-22T09:11:58.000Z</time>
      </trkpt>
      <trkpt lat="42.28429" lon="-0.480627">
        <ele>1520.5</ele>
        <time>2018-07-22T09:11:59.000Z</time>
      </trkpt>
      <trkpt lat="42.28429" lon="-0.480627">
        <ele>1520.5</ele>
        <time>2018-07-22T09:12:00.000Z</time>
      </trkpt>
      <trkpt lat="42.28429" lon="-0.480627">
        <ele>1520.5</ele>
        <time>2018-07-22T09:12:01.000Z</time>
      </trkpt>
      <trkpt lat="42.28429" lon="-0.480627">
        <ele>1520.5</ele>
        <time>2018-07-22T09:12:02.000Z</time>
      </trkpt>
      <trkpt lat="42.284291" lon="-0.480628">
        <ele>1520.5</ele>
        <time>2018-07-22T09:12:03.000Z</time>
      </trkpt>
      <trkpt lat="42.284291" lon="-0.480628">
        <ele>1520.5</ele>
        <time>2018-07-22T09:12:04.000Z</time>
      </trkpt>
      <trkpt lat="42.284292" lon="-0.480629">
        <ele>1520.5</ele>
        <time>2018-07-22T09:12:05.000Z</time>
      </trkpt>
      <trkpt lat="42.284293" lon="-0.48063">
        <ele>1520.5</ele>
        <time>2018-07-22T09:12:06.000Z</time>
      </trkpt>
      <trkpt lat="42.284294" lon="-0.480631">
        <ele>1520.5</ele>
        <time>2018-07-22T09:12:07.000Z</time>
      </trkpt>
      <trkpt lat="42.284296" lon="-0.480632">
        <ele>1520.5</ele>
        <time>2018-07-22T09:12:08.000Z</time>
      </trkpt>
      <trkpt lat="42.284298" lon="-0.480634">
        <ele>1520.5</ele>
        <time>2018-07-22T09:12:09.000Z</time>
      </trkpt>
      <trkpt lat="42.2843" lon="-0.480637">
        <ele>1520.5</ele>
        <time>2018-07-22T09:12:10.000Z</time>
      </trkpt>
      <trkpt lat="42.284302" lon="-0.48064">
        <ele>1520.5</ele>
        <time>2018-07-22T09:12:11.000Z</time>
      </trkpt>
      <trkpt lat="42.284304" lon="-0.480644">
        <ele>1520.6</ele>
        <time>2018-07-22T09:12:12.000Z</time>
      </trkpt>
      <trkpt lat="42.284305" lon="-0.480651">
        <ele>1520.8</ele>
        <time>2018-07-22T09:12:13.000Z</time>
      </trkpt>
      <trkpt lat="42.284306" lon="-0.480668">
        <ele>1521.2</ele>
        <time>2018-07-22T09:12:14.000Z</time>
      </trkpt>
      <trkpt lat="42.28431" lon="-0.480679">
        <ele>1521.3</ele>
        <time>2018-07-22T09:12:15.000Z</time>
      </trkpt>
      <trkpt lat="42.284315" lon="-0.480685">
        <ele>1521.4</ele>
        <time>2018-07-22T09:12:16.000Z</time>
      </trkpt>
      <trkpt lat="42.284318" lon="-0.480689">
        <ele>1521.4</ele>
        <time>2018-07-22T09:12:17.000Z</time>
      </trkpt>
      <trkpt lat="42.284321" lon="-0.480691">
        <ele>1521.4</ele>
        <time>2018-07-22T09:12:18.000Z</time>
      </trkpt>
      <trkpt lat="42.284324" lon="-0.480691">
        <ele>1521.3</ele>
        <time>2018-07-22T09:12:19.000Z</time>
      </trkpt>
      <trkpt lat="42.284326" lon="-0.480692">
        <ele>1521.3</ele>
        <time>2018-07-22T09:12:20.000Z</time>
      </trkpt>
      <trkpt lat="42.284327" lon="-0.480692">
        <ele>1521.3</ele>
        <time>2018-07-22T09:12:21.000Z</time>
      </trkpt>
      <trkpt lat="42.284328" lon="-0.480693">
        <ele>1521.3</ele>
        <time>2018-07-22T09:12:22.000Z</time>
      </trkpt>
      <trkpt lat="42.28433" lon="-0.480695">
        <ele>1521.3</ele>
        <time>2018-07-22T09:12:23.000Z</time>
      </trkpt>
      <trkpt lat="42.284331" lon="-0.480697">
        <ele>1521.3</ele>
        <time>2018-07-22T09:12:24.000Z</time>
      </trkpt>
      <trkpt lat="42.284333" lon="-0.480699">
        <ele>1521.3</ele>
        <time>2018-07-22T09:12:25.000Z</time>
      </trkpt>
      <trkpt lat="42.284336" lon="-0.480701">
        <ele>1521.3</ele>
        <time>2018-07-22T09:12:26.000Z</time>
      </trkpt>
      <trkpt lat="42.284339" lon="-0.480702">
        <ele>1521.2</ele>
        <time>2018-07-22T09:12:27.000Z</time>
      </trkpt>
      <trkpt lat="42.284342" lon="-0.480706">
        <ele>1521.2</ele>
        <time>2018-07-22T09:12:28.000Z</time>
      </trkpt>
      <trkpt lat="42.284349" lon="-0.480714">
        <ele>1521.3</ele>
        <time>2018-07-22T09:12:29.000Z</time>
      </trkpt>
      <trkpt lat="42.284356" lon="-0.480731">
        <ele>1521.5</ele>
        <time>2018-07-22T09:12:30.000Z</time>
      </trkpt>
      <trkpt lat="42.284362" lon="-0.480747">
        <ele>1521.8</ele>
        <time>2018-07-22T09:12:31.000Z</time>
      </trkpt>
      <trkpt lat="42.284365" lon="-0.480753">
        <ele>1521.8</ele>
        <time>2018-07-22T09:12:32.000Z</time>
      </trkpt>
      <trkpt lat="42.284368" lon="-0.480756">
        <ele>1521.8</ele>
        <time>2018-07-22T09:12:33.000Z</time>
      </trkpt>
      <trkpt lat="42.284371" lon="-0.480759">
        <ele>1521.8</ele>
        <time>2018-07-22T09:12:34.000Z</time>
      </trkpt>
      <trkpt lat="42.284373" lon="-0.480761">
        <ele>1521.8</ele>
        <time>2018-07-22T09:12:35.000Z</time>
      </trkpt>
      <trkpt lat="42.284375" lon="-0.480763">
        <ele>1521.8</ele>
        <time>2018-07-22T09:12:36.000Z</time>
      </trkpt>
      <trkpt lat="42.284377" lon="-0.480765">
        <ele>1521.8</ele>
        <time>2018-07-22T09:12:37.000Z</time>
      </trkpt>
      <trkpt lat="42.284378" lon="-0.480767">
        <ele>1521.8</ele>
        <time>2018-07-22T09:12:38.000Z</time>
      </trkpt>
      <trkpt lat="42.284381" lon="-0.480771">
        <ele>1521.9</ele>
        <time>2018-07-22T09:12:39.000Z</time>
      </trkpt>
      <trkpt lat="42.284385" lon="-0.480776">
        <ele>1521.9</ele>
        <time>2018-07-22T09:12:40.000Z</time>
      </trkpt>
      <trkpt lat="42.284389" lon="-0.480782">
        <ele>1521.9</ele>
        <time>2018-07-22T09:12:41.000Z</time>
      </trkpt>
      <trkpt lat="42.284392" lon="-0.480786">
        <ele>1521.9</ele>
        <time>2018-07-22T09:12:42.000Z</time>
      </trkpt>
      <trkpt lat="42.284397" lon="-0.480787">
        <ele>1521.8</ele>
        <time>2018-07-22T09:12:43.000Z</time>
      </trkpt>
      <trkpt lat="42.284404" lon="-0.480788">
        <ele>1521.7</ele>
        <time>2018-07-22T09:12:44.000Z</time>
      </trkpt>
      <trkpt lat="42.284411" lon="-0.480788">
        <ele>1521.5</ele>
        <time>2018-07-22T09:12:45.000Z</time>
      </trkpt>
      <trkpt lat="42.284416" lon="-0.480788">
        <ele>1521.4</ele>
        <time>2018-07-22T09:12:46.000Z</time>
      </trkpt>
      <trkpt lat="42.284419" lon="-0.480788">
        <ele>1521.3</ele>
        <time>2018-07-22T09:12:47.000Z</time>
      </trkpt>
      <trkpt lat="42.284422" lon="-0.480788">
        <ele>1521.2</ele>
        <time>2018-07-22T09:12:48.000Z</time>
      </trkpt>
      <trkpt lat="42.284424" lon="-0.480789">
        <ele>1521.2</ele>
        <time>2018-07-22T09:12:49.000Z</time>
      </trkpt>
      <trkpt lat="42.284426" lon="-0.480789">
        <ele>1521.1</ele>
        <time>2018-07-22T09:12:50.000Z</time>
      </trkpt>
      <trkpt lat="42.284427" lon="-0.480789">
        <ele>1521.1</ele>
        <time>2018-07-22T09:12:51.000Z</time>
      </trkpt>
      <trkpt lat="42.284427" lon="-0.480789">
        <ele>1521.1</ele>
        <time>2018-07-22T09:12:52.000Z</time>
      </trkpt>
      <trkpt lat="42.284427" lon="-0.480789">
        <ele>1521.1</ele>
        <time>2018-07-22T09:12:53.000Z</time>
      </trkpt>
      <trkpt lat="42.284427" lon="-0.480789">
        <ele>1521.1</ele>
        <time>2018-07-22T09:12:54.000Z</time>
      </trkpt>
      <trkpt lat="42.284427" lon="-0.480789">
        <ele>1521.1</ele>
        <time>2018-07-22T09:12:55.000Z</time>
      </trkpt>
      <trkpt lat="42.284427" lon="-0.480789">
        <ele>1521.1</ele>
        <time>2018-07-22T09:12:56.000Z</time>
      </trkpt>
      <trkpt lat="42.284427" lon="-0.480789">
        <ele>1521.1</ele>
        <time>2018-07-22T09:12:57.000Z</time>
      </trkpt>
      <trkpt lat="42.284427" lon="-0.480789">
        <ele>1521.1</ele>
        <time>2018-07-22T09:12:58.000Z</time>
      </trkpt>
      <trkpt lat="42.284427" lon="-0.480789">
        <ele>1521.1</ele>
        <time>2018-07-22T09:12:59.000Z</time>
      </trkpt>
      <trkpt lat="42.284427" lon="-0.480789">
        <ele>1521.1</ele>
        <time>2018-07-22T09:13:00.000Z</time>
      </trkpt>
      <trkpt lat="42.284427" lon="-0.480789">
        <ele>1521.1</ele>
        <time>2018-07-22T09:13:01.000Z</time>
      </trkpt>
      <trkpt lat="42.284427" lon="-0.480789">
        <ele>1521.1</ele>
        <time>2018-07-22T09:13:02.000Z</time>
      </trkpt>
      <trkpt lat="42.28443" lon="-0.480791">
        <ele>1521.1</ele>
        <time>2018-07-22T09:13:03.000Z</time>
      </trkpt>
      <trkpt lat="42.284436" lon="-0.480796">
        <ele>1521.0</ele>
        <time>2018-07-22T09:13:04.000Z</time>
      </trkpt>
      <trkpt lat="42.284442" lon="-0.4808">
        <ele>1521.0</ele>
        <time>2018-07-22T09:13:05.000Z</time>
      </trkpt>
      <trkpt lat="42.284446" lon="-0.480804">
        <ele>1521.0</ele>
        <time>2018-07-22T09:13:06.000Z</time>
      </trkpt>
      <trkpt lat="42.284449" lon="-0.480806">
        <ele>1520.9</ele>
        <time>2018-07-22T09:13:07.000Z</time>
      </trkpt>
      <trkpt lat="42.284451" lon="-0.480808">
        <ele>1520.9</ele>
        <time>2018-07-22T09:13:08.000Z</time>
      </trkpt>
      <trkpt lat="42.284453" lon="-0.480812">
        <ele>1521.0</ele>
        <time>2018-07-22T09:13:09.000Z</time>
      </trkpt>
      <trkpt lat="42.284455" lon="-0.48082">
        <ele>1521.1</ele>
        <time>2018-07-22T09:13:10.000Z</time>
      </trkpt>
      <trkpt lat="42.284457" lon="-0.48083">
        <ele>1521.3</ele>
        <time>2018-07-22T09:13:11.000Z</time>
      </trkpt>
      <trkpt lat="42.28446" lon="-0.480839">
        <ele>1521.0</ele>
        <time>2018-07-22T09:13:12.000Z</time>
      </trkpt>
      <trkpt lat="42.284461" lon="-0.480847">
        <ele>1520.6</ele>
        <time>2018-07-22T09:13:13.000Z</time>
      </trkpt>
      <trkpt lat="42.284462" lon="-0.480853">
        <ele>1520.3</ele>
        <time>2018-07-22T09:13:14.000Z</time>
      </trkpt>
      <trkpt lat="42.284463" lon="-0.480857">
        <ele>1520.1</ele>
        <time>2018-07-22T09:13:15.000Z</time>
      </trkpt>
      <trkpt lat="42.284463" lon="-0.48086">
        <ele>1520.0</ele>
        <time>2018-07-22T09:13:16.000Z</time>
      </trkpt>
      <trkpt lat="42.284463" lon="-0.480862">
        <ele>1519.9</ele>
        <time>2018-07-22T09:13:17.000Z</time>
      </trkpt>
      <trkpt lat="42.284464" lon="-0.480864">
        <ele>1519.8</ele>
        <time>2018-07-22T09:13:18.000Z</time>
      </trkpt>
      <trkpt lat="42.284465" lon="-0.480866">
        <ele>1519.7</ele>
        <time>2018-07-22T09:13:19.000Z</time>
      </trkpt>
      <trkpt lat="42.284465" lon="-0.480868">
        <ele>1519.6</ele>
        <time>2018-07-22T09:13:20.000Z</time>
      </trkpt>
      <trkpt lat="42.284466" lon="-0.48087">
        <ele>1519.5</ele>
        <time>2018-07-22T09:13:21.000Z</time>
      </trkpt>
      <trkpt lat="42.284467" lon="-0.480872">
        <ele>1519.4</ele>
        <time>2018-07-22T09:13:22.000Z</time>
      </trkpt>
      <trkpt lat="42.284468" lon="-0.480874">
        <ele>1519.3</ele>
        <time>2018-07-22T09:13:23.000Z</time>
      </trkpt>
      <trkpt lat="42.284469" lon="-0.480875">
        <ele>1519.2</ele>
        <time>2018-07-22T09:13:24.000Z</time>
      </trkpt>
      <trkpt lat="42.28447" lon="-0.480877">
        <ele>1519.1</ele>
        <time>2018-07-22T09:13:25.000Z</time>
      </trkpt>
      <trkpt lat="42.284471" lon="-0.480878">
        <ele>1519.0</ele>
        <time>2018-07-22T09:13:26.000Z</time>
      </trkpt>
      <trkpt lat="42.284472" lon="-0.480879">
        <ele>1518.9</ele>
        <time>2018-07-22T09:13:27.000Z</time>
      </trkpt>
      <trkpt lat="42.284473" lon="-0.480881">
        <ele>1518.8</ele>
        <time>2018-07-22T09:13:28.000Z</time>
      </trkpt>
      <trkpt lat="42.284473" lon="-0.480882">
        <ele>1518.8</ele>
        <time>2018-07-22T09:13:29.000Z</time>
      </trkpt>
      <trkpt lat="42.284476" lon="-0.480885">
        <ele>1518.6</ele>
        <time>2018-07-22T09:13:30.000Z</time>
      </trkpt>
      <trkpt lat="42.284479" lon="-0.480891">
        <ele>1518.2</ele>
        <time>2018-07-22T09:13:31.000Z</time>
      </trkpt>
      <trkpt lat="42.28448" lon="-0.480894">
        <ele>1518.1</ele>
        <time>2018-07-22T09:13:32.000Z</time>
      </trkpt>
      <trkpt lat="42.284482" lon="-0.480899">
        <ele>1517.8</ele>
        <time>2018-07-22T09:13:33.000Z</time>
      </trkpt>
      <trkpt lat="42.284483" lon="-0.480901">
        <ele>1517.7</ele>
        <time>2018-07-22T09:13:34.000Z</time>
      </trkpt>
      <trkpt lat="42.284484" lon="-0.480904">
        <ele>1517.5</ele>
        <time>2018-07-22T09:13:35.000Z</time>
      </trkpt>
      <trkpt lat="42.284486" lon="-0.480906">
        <ele>1517.4</ele>
        <time>2018-07-22T09:13:36.000Z</time>
      </trkpt>
      <trkpt lat="42.284487" lon="-0.480909">
        <ele>1517.2</ele>
        <time>2018-07-22T09:13:37.000Z</time>
      </trkpt>
      <trkpt lat="42.284489" lon="-0.480911">
        <ele>1517.1</ele>
        <time>2018-07-22T09:13:38.000Z</time>
      </trkpt>
      <trkpt lat="42.284489" lon="-0.480912">
        <ele>1517.0</ele>
        <time>2018-07-22T09:13:39.000Z</time>
      </trkpt>
      <trkpt lat="42.28449" lon="-0.480913">
        <ele>1517.0</ele>
        <time>2018-07-22T09:13:40.000Z</time>
      </trkpt>
      <trkpt lat="42.284491" lon="-0.480914">
        <ele>1516.9</ele>
        <time>2018-07-22T09:13:41.000Z</time>
      </trkpt>
      <trkpt lat="42.284491" lon="-0.480915">
        <ele>1516.9</ele>
        <time>2018-07-22T09:13:42.000Z</time>
      </trkpt>
      <trkpt lat="42.284492" lon="-0.480916">
        <ele>1516.8</ele>
        <time>2018-07-22T09:13:43.000Z</time>
      </trkpt>
      <trkpt lat="42.284492" lon="-0.480918">
        <ele>1516.7</ele>
        <time>2018-07-22T09:13:44.000Z</time>
      </trkpt>
      <trkpt lat="42.284493" lon="-0.48092">
        <ele>1516.6</ele>
        <time>2018-07-22T09:13:45.000Z</time>
      </trkpt>
      <trkpt lat="42.284494" lon="-0.480923">
        <ele>1516.4</ele>
        <time>2018-07-22T09:13:46.000Z</time>
      </trkpt>
      <trkpt lat="42.284496" lon="-0.480926">
        <ele>1516.3</ele>
        <time>2018-07-22T09:13:47.000Z</time>
      </trkpt>
      <trkpt lat="42.284497" lon="-0.480929">
        <ele>1516.1</ele>
        <time>2018-07-22T09:13:48.000Z</time>
      </trkpt>
      <trkpt lat="42.284499" lon="-0.480932">
        <ele>1515.9</ele>
        <time>2018-07-22T09:13:49.000Z</time>
      </trkpt>
      <trkpt lat="42.284502" lon="-0.480937">
        <ele>1515.6</ele>
        <time>2018-07-22T09:13:50.000Z</time>
      </trkpt>
      <trkpt lat="42.284519" lon="-0.480942">
        <ele>1515.0</ele>
        <time>2018-07-22T09:13:51.000Z</time>
      </trkpt>
      <trkpt lat="42.284526" lon="-0.480933">
        <ele>1515.2</ele>
        <time>2018-07-22T09:13:52.000Z</time>
      </trkpt>
      <trkpt lat="42.284531" lon="-0.480923">
        <ele>1515.5</ele>
        <time>2018-07-22T09:13:53.000Z</time>
      </trkpt>
      <trkpt lat="42.284534" lon="-0.480913">
        <ele>1515.9</ele>
        <time>2018-07-22T09:13:54.000Z</time>
      </trkpt>
      <trkpt lat="42.284535" lon="-0.480903">
        <ele>1516.3</ele>
        <time>2018-07-22T09:13:55.000Z</time>
      </trkpt>
      <trkpt lat="42.284535" lon="-0.480895">
        <ele>1516.6</ele>
        <time>2018-07-22T09:13:56.000Z</time>
      </trkpt>
      <trkpt lat="42.284536" lon="-0.480888">
        <ele>1516.9</ele>
        <time>2018-07-22T09:13:57.000Z</time>
      </trkpt>
      <trkpt lat="42.284538" lon="-0.480884">
        <ele>1517.0</ele>
        <time>2018-07-22T09:13:58.000Z</time>
      </trkpt>
      <trkpt lat="42.284539" lon="-0.480881">
        <ele>1517.1</ele>
        <time>2018-07-22T09:13:59.000Z</time>
      </trkpt>
      <trkpt lat="42.28454" lon="-0.480881">
        <ele>1517.1</ele>
        <time>2018-07-22T09:14:00.000Z</time>
      </trkpt>
      <trkpt lat="42.28454" lon="-0.480881">
        <ele>1517.1</ele>
        <time>2018-07-22T09:14:01.000Z</time>
      </trkpt>
      <trkpt lat="42.284541" lon="-0.480881">
        <ele>1517.1</ele>
        <time>2018-07-22T09:14:02.000Z</time>
      </trkpt>
      <trkpt lat="42.284542" lon="-0.480881">
        <ele>1517.0</ele>
        <time>2018-07-22T09:14:03.000Z</time>
      </trkpt>
      <trkpt lat="42.284543" lon="-0.48088">
        <ele>1517.1</ele>
        <time>2018-07-22T09:14:04.000Z</time>
      </trkpt>
      <trkpt lat="42.284543" lon="-0.48088">
        <ele>1517.1</ele>
        <time>2018-07-22T09:14:05.000Z</time>
      </trkpt>
      <trkpt lat="42.284544" lon="-0.48088">
        <ele>1517.0</ele>
        <time>2018-07-22T09:14:06.000Z</time>
      </trkpt>
      <trkpt lat="42.284545" lon="-0.48088">
        <ele>1517.0</ele>
        <time>2018-07-22T09:14:07.000Z</time>
      </trkpt>
      <trkpt lat="42.284545" lon="-0.48088">
        <ele>1517.0</ele>
        <time>2018-07-22T09:14:08.000Z</time>
      </trkpt>
      <trkpt lat="42.284546" lon="-0.48088">
        <ele>1517.0</ele>
        <time>2018-07-22T09:14:09.000Z</time>
      </trkpt>
      <trkpt lat="42.284546" lon="-0.48088">
        <ele>1517.0</ele>
        <time>2018-07-22T09:14:10.000Z</time>
      </trkpt>
      <trkpt lat="42.284546" lon="-0.48088">
        <ele>1517.0</ele>
        <time>2018-07-22T09:14:11.000Z</time>
      </trkpt>
      <trkpt lat="42.284546" lon="-0.480881">
        <ele>1516.9</ele>
        <time>2018-07-22T09:14:12.000Z</time>
      </trkpt>
      <trkpt lat="42.284546" lon="-0.480882">
        <ele>1516.9</ele>
        <time>2018-07-22T09:14:13.000Z</time>
      </trkpt>
      <trkpt lat="42.284547" lon="-0.480882">
        <ele>1516.9</ele>
        <time>2018-07-22T09:14:14.000Z</time>
      </trkpt>
      <trkpt lat="42.284548" lon="-0.480882">
        <ele>1516.8</ele>
        <time>2018-07-22T09:14:15.000Z</time>
      </trkpt>
      <trkpt lat="42.284549" lon="-0.480879">
        <ele>1516.9</ele>
        <time>2018-07-22T09:14:16.000Z</time>
      </trkpt>
      <trkpt lat="42.284558" lon="-0.480882">
        <ele>1516.6</ele>
        <time>2018-07-22T09:14:17.000Z</time>
      </trkpt>
      <trkpt lat="42.284564" lon="-0.48089">
        <ele>1516.1</ele>
        <time>2018-07-22T09:14:18.000Z</time>
      </trkpt>
      <trkpt lat="42.284568" lon="-0.480897">
        <ele>1515.7</ele>
        <time>2018-07-22T09:14:19.000Z</time>
      </trkpt>
      <trkpt lat="42.284571" lon="-0.480902">
        <ele>1515.4</ele>
        <time>2018-07-22T09:14:20.000Z</time>
      </trkpt>
      <trkpt lat="42.284572" lon="-0.480905">
        <ele>1515.2</ele>
        <time>2018-07-22T09:14:21.000Z</time>
      </trkpt>
      <trkpt lat="42.284573" lon="-0.480907">
        <ele>1515.1</ele>
        <time>2018-07-22T09:14:22.000Z</time>
      </trkpt>
      <trkpt lat="42.284578" lon="-0.48091">
        <ele>1514.9</ele>
        <time>2018-07-22T09:14:23.000Z</time>
      </trkpt>
      <trkpt lat="42.284584" lon="-0.480912">
        <ele>1514.6</ele>
        <time>2018-07-22T09:14:24.000Z</time>
      </trkpt>
      <trkpt lat="42.284591" lon="-0.480913">
        <ele>1514.4</ele>
        <time>2018-07-22T09:14:25.000Z</time>
      </trkpt>
      <trkpt lat="42.284596" lon="-0.480912">
        <ele>1514.3</ele>
        <time>2018-07-22T09:14:26.000Z</time>
      </trkpt>
      <trkpt lat="42.284599" lon="-0.48091">
        <ele>1514.3</ele>
        <time>2018-07-22T09:14:27.000Z</time>
      </trkpt>
      <trkpt lat="42.284601" lon="-0.480908">
        <ele>1514.4</ele>
        <time>2018-07-22T09:14:28.000Z</time>
      </trkpt>
      <trkpt lat="42.284602" lon="-0.480907">
        <ele>1514.4</ele>
        <time>2018-07-22T09:14:29.000Z</time>
      </trkpt>
      <trkpt lat="42.284602" lon="-0.480907">
        <ele>1514.4</ele>
        <time>2018-07-22T09:14:30.000Z</time>
      </trkpt>
      <trkpt lat="42.284603" lon="-0.480908">
        <ele>1514.3</ele>
        <time>2018-07-22T09:14:31.000Z</time>
      </trkpt>
      <trkpt lat="42.284603" lon="-0.480909">
        <ele>1514.3</ele>
        <time>2018-07-22T09:14:32.000Z</time>
      </trkpt>
      <trkpt lat="42.284603" lon="-0.480909">
        <ele>1514.3</ele>
        <time>2018-07-22T09:14:33.000Z</time>
      </trkpt>
      <trkpt lat="42.284604" lon="-0.480909">
        <ele>1514.3</ele>
        <time>2018-07-22T09:14:34.000Z</time>
      </trkpt>
      <trkpt lat="42.284605" lon="-0.480909">
        <ele>1514.2</ele>
        <time>2018-07-22T09:14:35.000Z</time>
      </trkpt>
      <trkpt lat="42.284606" lon="-0.480909">
        <ele>1514.2</ele>
        <time>2018-07-22T09:14:36.000Z</time>
      </trkpt>
      <trkpt lat="42.284607" lon="-0.480908">
        <ele>1514.2</ele>
        <time>2018-07-22T09:14:37.000Z</time>
      </trkpt>
      <trkpt lat="42.284608" lon="-0.480907">
        <ele>1514.2</ele>
        <time>2018-07-22T09:14:38.000Z</time>
      </trkpt>
      <trkpt lat="42.284609" lon="-0.480907">
        <ele>1514.2</ele>
        <time>2018-07-22T09:14:39.000Z</time>
      </trkpt>
      <trkpt lat="42.28461" lon="-0.480907">
        <ele>1514.2</ele>
        <time>2018-07-22T09:14:40.000Z</time>
      </trkpt>
      <trkpt lat="42.28461" lon="-0.480907">
        <ele>1514.2</ele>
        <time>2018-07-22T09:14:41.000Z</time>
      </trkpt>
      <trkpt lat="42.284611" lon="-0.480907">
        <ele>1514.2</ele>
        <time>2018-07-22T09:14:42.000Z</time>
      </trkpt>
      <trkpt lat="42.284612" lon="-0.480907">
        <ele>1514.1</ele>
        <time>2018-07-22T09:14:43.000Z</time>
      </trkpt>
      <trkpt lat="42.284613" lon="-0.480907">
        <ele>1514.1</ele>
        <time>2018-07-22T09:14:44.000Z</time>
      </trkpt>
      <trkpt lat="42.284615" lon="-0.480908">
        <ele>1514.0</ele>
        <time>2018-07-22T09:14:45.000Z</time>
      </trkpt>
      <trkpt lat="42.284616" lon="-0.480908">
        <ele>1514.0</ele>
        <time>2018-07-22T09:14:46.000Z</time>
      </trkpt>
      <trkpt lat="42.28462" lon="-0.48091">
        <ele>1513.8</ele>
        <time>2018-07-22T09:14:47.000Z</time>
      </trkpt>
      <trkpt lat="42.284628" lon="-0.480909">
        <ele>1513.6</ele>
        <time>2018-07-22T09:14:48.000Z</time>
      </trkpt>
      <trkpt lat="42.284633" lon="-0.480907">
        <ele>1513.6</ele>
        <time>2018-07-22T09:14:49.000Z</time>
      </trkpt>
      <trkpt lat="42.284637" lon="-0.480905">
        <ele>1513.6</ele>
        <time>2018-07-22T09:14:50.000Z</time>
      </trkpt>
      <trkpt lat="42.28464" lon="-0.480903">
        <ele>1513.6</ele>
        <time>2018-07-22T09:14:51.000Z</time>
      </trkpt>
      <trkpt lat="42.284642" lon="-0.480901">
        <ele>1513.6</ele>
        <time>2018-07-22T09:14:52.000Z</time>
      </trkpt>
      <trkpt lat="42.284644" lon="-0.4809">
        <ele>1513.6</ele>
        <time>2018-07-22T09:14:53.000Z</time>
      </trkpt>
      <trkpt lat="42.284646" lon="-0.480898">
        <ele>1513.6</ele>
        <time>2018-07-22T09:14:54.000Z</time>
      </trkpt>
      <trkpt lat="42.284649" lon="-0.480897">
        <ele>1513.6</ele>
        <time>2018-07-22T09:14:55.000Z</time>
      </trkpt>
      <trkpt lat="42.284651" lon="-0.480896">
        <ele>1513.6</ele>
        <time>2018-07-22T09:14:56.000Z</time>
      </trkpt>
      <trkpt lat="42.284653" lon="-0.480894">
        <ele>1513.6</ele>
        <time>2018-07-22T09:14:57.000Z</time>
      </trkpt>
      <trkpt lat="42.284655" lon="-0.480892">
        <ele>1513.7</ele>
        <time>2018-07-22T09:14:58.000Z</time>
      </trkpt>
      <trkpt lat="42.284658" lon="-0.48089">
        <ele>1513.7</ele>
        <time>2018-07-22T09:14:59.000Z</time>
      </trkpt>
      <trkpt lat="42.284662" lon="-0.480885">
        <ele>1513.8</ele>
        <time>2018-07-22T09:15:00.000Z</time>
      </trkpt>
      <trkpt lat="42.284667" lon="-0.48088">
        <ele>1513.9</ele>
        <time>2018-07-22T09:15:01.000Z</time>
      </trkpt>
      <trkpt lat="42.284671" lon="-0.480876">
        <ele>1513.9</ele>
        <time>2018-07-22T09:15:02.000Z</time>
      </trkpt>
      <trkpt lat="42.284675" lon="-0.480871">
        <ele>1514.0</ele>
        <time>2018-07-22T09:15:03.000Z</time>
      </trkpt>
      <trkpt lat="42.284681" lon="-0.480866">
        <ele>1514.1</ele>
        <time>2018-07-22T09:15:04.000Z</time>
      </trkpt>
      <trkpt lat="42.284686" lon="-0.480861">
        <ele>1514.1</ele>
        <time>2018-07-22T09:15:05.000Z</time>
      </trkpt>
      <trkpt lat="42.284691" lon="-0.480854">
        <ele>1514.3</ele>
        <time>2018-07-22T09:15:06.000Z</time>
      </trkpt>
      <trkpt lat="42.284696" lon="-0.480847">
        <ele>1514.5</ele>
        <time>2018-07-22T09:15:07.000Z</time>
      </trkpt>
      <trkpt lat="42.2847" lon="-0.480839">
        <ele>1514.7</ele>
        <time>2018-07-22T09:15:08.000Z</time>
      </trkpt>
      <trkpt lat="42.284704" lon="-0.480832">
        <ele>1514.8</ele>
        <time>2018-07-22T09:15:09.000Z</time>
      </trkpt>
      <trkpt lat="42.284707" lon="-0.480826">
        <ele>1514.6</ele>
        <time>2018-07-22T09:15:10.000Z</time>
      </trkpt>
      <trkpt lat="42.28471" lon="-0.480821">
        <ele>1514.4</ele>
        <time>2018-07-22T09:15:11.000Z</time>
      </trkpt>
      <trkpt lat="42.284712" lon="-0.480818">
        <ele>1514.3</ele>
        <time>2018-07-22T09:15:12.000Z</time>
      </trkpt>
      <trkpt lat="42.284714" lon="-0.480816">
        <ele>1514.2</ele>
        <time>2018-07-22T09:15:13.000Z</time>
      </trkpt>
      <trkpt lat="42.284715" lon="-0.480815">
        <ele>1514.2</ele>
        <time>2018-07-22T09:15:14.000Z</time>
      </trkpt>
      <trkpt lat="42.284717" lon="-0.480815">
        <ele>1514.1</ele>
        <time>2018-07-22T09:15:15.000Z</time>
      </trkpt>
      <trkpt lat="42.284718" lon="-0.480813">
        <ele>1514.1</ele>
        <time>2018-07-22T09:15:16.000Z</time>
      </trkpt>
      <trkpt lat="42.28472" lon="-0.480811">
        <ele>1514.0</ele>
        <time>2018-07-22T09:15:17.000Z</time>
      </trkpt>
      <trkpt lat="42.284722" lon="-0.480808">
        <ele>1513.9</ele>
        <time>2018-07-22T09:15:18.000Z</time>
      </trkpt>
      <trkpt lat="42.284724" lon="-0.480806">
        <ele>1513.8</ele>
        <time>2018-07-22T09:15:19.000Z</time>
      </trkpt>
      <trkpt lat="42.284726" lon="-0.480805">
        <ele>1513.7</ele>
        <time>2018-07-22T09:15:20.000Z</time>
      </trkpt>
      <trkpt lat="42.284728" lon="-0.480804">
        <ele>1513.7</ele>
        <time>2018-07-22T09:15:21.000Z</time>
      </trkpt>
      <trkpt lat="42.284728" lon="-0.480803">
        <ele>1513.6</ele>
        <time>2018-07-22T09:15:22.000Z</time>
      </trkpt>
      <trkpt lat="42.28473" lon="-0.480804">
        <ele>1513.6</ele>
        <time>2018-07-22T09:15:23.000Z</time>
      </trkpt>
      <trkpt lat="42.284735" lon="-0.480814">
        <ele>1513.7</ele>
        <time>2018-07-22T09:15:24.000Z</time>
      </trkpt>
      <trkpt lat="42.284741" lon="-0.48082">
        <ele>1513.6</ele>
        <time>2018-07-22T09:15:25.000Z</time>
      </trkpt>
      <trkpt lat="42.284745" lon="-0.480819">
        <ele>1513.5</ele>
        <time>2018-07-22T09:15:26.000Z</time>
      </trkpt>
      <trkpt lat="42.284749" lon="-0.480817">
        <ele>1513.3</ele>
        <time>2018-07-22T09:15:27.000Z</time>
      </trkpt>
      <trkpt lat="42.284755" lon="-0.480816">
        <ele>1513.2</ele>
        <time>2018-07-22T09:15:28.000Z</time>
      </trkpt>
      <trkpt lat="42.284761" lon="-0.480815">
        <ele>1513.0</ele>
        <time>2018-07-22T09:15:29.000Z</time>
      </trkpt>
      <trkpt lat="42.284768" lon="-0.480815">
        <ele>1512.8</ele>
        <time>2018-07-22T09:15:30.000Z</time>
      </trkpt>
      <trkpt lat="42.284774" lon="-0.480814">
        <ele>1512.6</ele>
        <time>2018-07-22T09:15:31.000Z</time>
      </trkpt>
      <trkpt lat="42.28478" lon="-0.480813">
        <ele>1512.5</ele>
        <time>2018-07-22T09:15:32.000Z</time>
      </trkpt>
      <trkpt lat="42.284786" lon="-0.480811">
        <ele>1512.3</ele>
        <time>2018-07-22T09:15:33.000Z</time>
      </trkpt>
      <trkpt lat="42.28479" lon="-0.480808">
        <ele>1512.1</ele>
        <time>2018-07-22T09:15:34.000Z</time>
      </trkpt>
      <trkpt lat="42.284794" lon="-0.480806">
        <ele>1512.0</ele>
        <time>2018-07-22T09:15:35.000Z</time>
      </trkpt>
      <trkpt lat="42.284796" lon="-0.480803">
        <ele>1511.9</ele>
        <time>2018-07-22T09:15:36.000Z</time>
      </trkpt>
      <trkpt lat="42.284798" lon="-0.480801">
        <ele>1511.8</ele>
        <time>2018-07-22T09:15:37.000Z</time>
      </trkpt>
      <trkpt lat="42.2848" lon="-0.4808">
        <ele>1511.7</ele>
        <time>2018-07-22T09:15:38.000Z</time>
      </trkpt>
      <trkpt lat="42.2848" lon="-0.4808">
        <ele>1511.7</ele>
        <time>2018-07-22T09:15:39.000Z</time>
      </trkpt>
      <trkpt lat="42.2848" lon="-0.4808">
        <ele>1511.7</ele>
        <time>2018-07-22T09:15:40.000Z</time>
      </trkpt>
      <trkpt lat="42.2848" lon="-0.4808">
        <ele>1511.7</ele>
        <time>2018-07-22T09:15:41.000Z</time>
      </trkpt>
      <trkpt lat="42.2848" lon="-0.480801">
        <ele>1511.7</ele>
        <time>2018-07-22T09:15:42.000Z</time>
      </trkpt>
      <trkpt lat="42.2848" lon="-0.480801">
        <ele>1511.7</ele>
        <time>2018-07-22T09:15:43.000Z</time>
      </trkpt>
      <trkpt lat="42.2848" lon="-0.480802">
        <ele>1511.8</ele>
        <time>2018-07-22T09:15:44.000Z</time>
      </trkpt>
      <trkpt lat="42.2848" lon="-0.480802">
        <ele>1511.8</ele>
        <time>2018-07-22T09:15:45.000Z</time>
      </trkpt>
      <trkpt lat="42.2848" lon="-0.480802">
        <ele>1511.8</ele>
        <time>2018-07-22T09:15:46.000Z</time>
      </trkpt>
      <trkpt lat="42.2848" lon="-0.480802">
        <ele>1511.8</ele>
        <time>2018-07-22T09:15:47.000Z</time>
      </trkpt>
      <trkpt lat="42.2848" lon="-0.480801">
        <ele>1511.7</ele>
        <time>2018-07-22T09:15:48.000Z</time>
      </trkpt>
      <trkpt lat="42.2848" lon="-0.480802">
        <ele>1511.8</ele>
        <time>2018-07-22T09:15:49.000Z</time>
      </trkpt>
      <trkpt lat="42.2848" lon="-0.480801">
        <ele>1511.7</ele>
        <time>2018-07-22T09:15:50.000Z</time>
      </trkpt>
      <trkpt lat="42.284801" lon="-0.480801">
        <ele>1511.7</ele>
        <time>2018-07-22T09:15:51.000Z</time>
      </trkpt>
      <trkpt lat="42.284802" lon="-0.4808">
        <ele>1511.7</ele>
        <time>2018-07-22T09:15:52.000Z</time>
      </trkpt>
      <trkpt lat="42.284804" lon="-0.480799">
        <ele>1511.6</ele>
        <time>2018-07-22T09:15:53.000Z</time>
      </trkpt>
      <trkpt lat="42.284808" lon="-0.480797">
        <ele>1511.5</ele>
        <time>2018-07-22T09:15:54.000Z</time>
      </trkpt>
      <trkpt lat="42.284813" lon="-0.480795">
        <ele>1511.3</ele>
        <time>2018-07-22T09:15:55.000Z</time>
      </trkpt>
      <trkpt lat="42.284819" lon="-0.480791">
        <ele>1511.1</ele>
        <time>2018-07-22T09:15:56.000Z</time>
      </trkpt>
      <trkpt lat="42.284827" lon="-0.480788">
        <ele>1510.8</ele>
        <time>2018-07-22T09:15:57.000Z</time>
      </trkpt>
      <trkpt lat="42.284833" lon="-0.480786">
        <ele>1510.6</ele>
        <time>2018-07-22T09:15:58.000Z</time>
      </trkpt>
      <trkpt lat="42.284839" lon="-0.480784">
        <ele>1510.5</ele>
        <time>2018-07-22T09:15:59.000Z</time>
      </trkpt>
      <trkpt lat="42.284844" lon="-0.48078">
        <ele>1510.3</ele>
        <time>2018-07-22T09:16:00.000Z</time>
      </trkpt>
      <trkpt lat="42.284848" lon="-0.480774">
        <ele>1510.1</ele>
        <time>2018-07-22T09:16:01.000Z</time>
      </trkpt>
      <trkpt lat="42.284851" lon="-0.48077">
        <ele>1509.9</ele>
        <time>2018-07-22T09:16:02.000Z</time>
      </trkpt>
      <trkpt lat="42.284854" lon="-0.480766">
        <ele>1509.8</ele>
        <time>2018-07-22T09:16:03.000Z</time>
      </trkpt>
      <trkpt lat="42.284856" lon="-0.48076">
        <ele>1509.7</ele>
        <time>2018-07-22T09:16:04.000Z</time>
      </trkpt>
      <trkpt lat="42.28486" lon="-0.480751">
        <ele>1509.4</ele>
        <time>2018-07-22T09:16:05.000Z</time>
      </trkpt>
      <trkpt lat="42.284864" lon="-0.480742">
        <ele>1509.2</ele>
        <time>2018-07-22T09:16:06.000Z</time>
      </trkpt>
      <trkpt lat="42.284867" lon="-0.480736">
        <ele>1509.0</ele>
        <time>2018-07-22T09:16:07.000Z</time>
      </trkpt>
      <trkpt lat="42.284871" lon="-0.480732">
        <ele>1508.8</ele>
        <time>2018-07-22T09:16:08.000Z</time>
      </trkpt>
      <trkpt lat="42.284874" lon="-0.480729">
        <ele>1508.7</ele>
        <time>2018-07-22T09:16:09.000Z</time>
      </trkpt>
      <trkpt lat="42.284877" lon="-0.480727">
        <ele>1508.6</ele>
        <time>2018-07-22T09:16:10.000Z</time>
      </trkpt>
      <trkpt lat="42.28488" lon="-0.480725">
        <ele>1508.5</ele>
        <time>2018-07-22T09:16:11.000Z</time>
      </trkpt>
      <trkpt lat="42.284883" lon="-0.480725">
        <ele>1508.4</ele>
        <time>2018-07-22T09:16:12.000Z</time>
      </trkpt>
      <trkpt lat="42.284885" lon="-0.480725">
        <ele>1508.4</ele>
        <time>2018-07-22T09:16:13.000Z</time>
      </trkpt>
      <trkpt lat="42.284888" lon="-0.480725">
        <ele>1508.3</ele>
        <time>2018-07-22T09:16:14.000Z</time>
      </trkpt>
      <trkpt lat="42.28489" lon="-0.480726">
        <ele>1508.3</ele>
        <time>2018-07-22T09:16:15.000Z</time>
      </trkpt>
      <trkpt lat="42.284893" lon="-0.480727">
        <ele>1508.2</ele>
        <time>2018-07-22T09:16:16.000Z</time>
      </trkpt>
      <trkpt lat="42.284895" lon="-0.480728">
        <ele>1508.2</ele>
        <time>2018-07-22T09:16:17.000Z</time>
      </trkpt>
      <trkpt lat="42.284897" lon="-0.480729">
        <ele>1508.2</ele>
        <time>2018-07-22T09:16:18.000Z</time>
      </trkpt>
      <trkpt lat="42.284899" lon="-0.48073">
        <ele>1508.1</ele>
        <time>2018-07-22T09:16:19.000Z</time>
      </trkpt>
      <trkpt lat="42.284901" lon="-0.48073">
        <ele>1508.1</ele>
        <time>2018-07-22T09:16:20.000Z</time>
      </trkpt>
      <trkpt lat="42.284904" lon="-0.48073">
        <ele>1508.0</ele>
        <time>2018-07-22T09:16:21.000Z</time>
      </trkpt>
      <trkpt lat="42.284906" lon="-0.48073">
        <ele>1507.9</ele>
        <time>2018-07-22T09:16:22.000Z</time>
      </trkpt>
      <trkpt lat="42.284908" lon="-0.48073">
        <ele>1507.9</ele>
        <time>2018-07-22T09:16:23.000Z</time>
      </trkpt>
      <trkpt lat="42.28491" lon="-0.48073">
        <ele>1507.9</ele>
        <time>2018-07-22T09:16:24.000Z</time>
      </trkpt>
      <trkpt lat="42.284912" lon="-0.48073">
        <ele>1507.8</ele>
        <time>2018-07-22T09:16:25.000Z</time>
      </trkpt>
      <trkpt lat="42.284913" lon="-0.48073">
        <ele>1507.8</ele>
        <time>2018-07-22T09:16:26.000Z</time>
      </trkpt>
      <trkpt lat="42.284914" lon="-0.48073">
        <ele>1507.8</ele>
        <time>2018-07-22T09:16:27.000Z</time>
      </trkpt>
      <trkpt lat="42.284922" lon="-0.480731">
        <ele>1507.6</ele>
        <time>2018-07-22T09:16:28.000Z</time>
      </trkpt>
      <trkpt lat="42.284927" lon="-0.48073">
        <ele>1507.4</ele>
        <time>2018-07-22T09:16:29.000Z</time>
      </trkpt>
      <trkpt lat="42.284933" lon="-0.480729">
        <ele>1507.3</ele>
        <time>2018-07-22T09:16:30.000Z</time>
      </trkpt>
      <trkpt lat="42.284937" lon="-0.480729">
        <ele>1507.2</ele>
        <time>2018-07-22T09:16:31.000Z</time>
      </trkpt>
      <trkpt lat="42.28494" lon="-0.480728">
        <ele>1507.1</ele>
        <time>2018-07-22T09:16:32.000Z</time>
      </trkpt>
      <trkpt lat="42.284942" lon="-0.480727">
        <ele>1507.0</ele>
        <time>2018-07-22T09:16:33.000Z</time>
      </trkpt>
      <trkpt lat="42.284945" lon="-0.480727">
        <ele>1506.9</ele>
        <time>2018-07-22T09:16:34.000Z</time>
      </trkpt>
      <trkpt lat="42.284948" lon="-0.480727">
        <ele>1506.9</ele>
        <time>2018-07-22T09:16:35.000Z</time>
      </trkpt>
      <trkpt lat="42.284951" lon="-0.480727">
        <ele>1506.8</ele>
        <time>2018-07-22T09:16:36.000Z</time>
      </trkpt>
      <trkpt lat="42.284957" lon="-0.480721">
        <ele>1506.6</ele>
        <time>2018-07-22T09:16:37.000Z</time>
      </trkpt>
      <trkpt lat="42.284965" lon="-0.480719">
        <ele>1506.3</ele>
        <time>2018-07-22T09:16:38.000Z</time>
      </trkpt>
      <trkpt lat="42.28497" lon="-0.480717">
        <ele>1506.2</ele>
        <time>2018-07-22T09:16:39.000Z</time>
      </trkpt>
      <trkpt lat="42.284972" lon="-0.480717">
        <ele>1506.1</ele>
        <time>2018-07-22T09:16:40.000Z</time>
      </trkpt>
      <trkpt lat="42.284973" lon="-0.480716">
        <ele>1506.1</ele>
        <time>2018-07-22T09:16:41.000Z</time>
      </trkpt>
      <trkpt lat="42.284973" lon="-0.480716">
        <ele>1506.1</ele>
        <time>2018-07-22T09:16:42.000Z</time>
      </trkpt>
      <trkpt lat="42.284974" lon="-0.480717">
        <ele>1506.1</ele>
        <time>2018-07-22T09:16:43.000Z</time>
      </trkpt>
      <trkpt lat="42.284976" lon="-0.480718">
        <ele>1506.1</ele>
        <time>2018-07-22T09:16:44.000Z</time>
      </trkpt>
      <trkpt lat="42.28498" lon="-0.480719">
        <ele>1506.0</ele>
        <time>2018-07-22T09:16:45.000Z</time>
      </trkpt>
      <trkpt lat="42.284984" lon="-0.480717">
        <ele>1505.9</ele>
        <time>2018-07-22T09:16:46.000Z</time>
      </trkpt>
      <trkpt lat="42.284988" lon="-0.480713">
        <ele>1505.7</ele>
        <time>2018-07-22T09:16:47.000Z</time>
      </trkpt>
      <trkpt lat="42.284991" lon="-0.480708">
        <ele>1505.6</ele>
        <time>2018-07-22T09:16:48.000Z</time>
      </trkpt>
      <trkpt lat="42.284994" lon="-0.480703">
        <ele>1505.4</ele>
        <time>2018-07-22T09:16:49.000Z</time>
      </trkpt>
      <trkpt lat="42.284996" lon="-0.480699">
        <ele>1505.3</ele>
        <time>2018-07-22T09:16:50.000Z</time>
      </trkpt>
      <trkpt lat="42.284998" lon="-0.480697">
        <ele>1505.2</ele>
        <time>2018-07-22T09:16:51.000Z</time>
      </trkpt>
      <trkpt lat="42.284999" lon="-0.480695">
        <ele>1505.2</ele>
        <time>2018-07-22T09:16:52.000Z</time>
      </trkpt>
      <trkpt lat="42.285001" lon="-0.480694">
        <ele>1505.1</ele>
        <time>2018-07-22T09:16:53.000Z</time>
      </trkpt>
      <trkpt lat="42.285003" lon="-0.480693">
        <ele>1505.0</ele>
        <time>2018-07-22T09:16:54.000Z</time>
      </trkpt>
      <trkpt lat="42.285005" lon="-0.480692">
        <ele>1504.9</ele>
        <time>2018-07-22T09:16:55.000Z</time>
      </trkpt>
      <trkpt lat="42.285007" lon="-0.48069">
        <ele>1504.8</ele>
        <time>2018-07-22T09:16:56.000Z</time>
      </trkpt>
      <trkpt lat="42.28501" lon="-0.480689">
        <ele>1504.6</ele>
        <time>2018-07-22T09:16:57.000Z</time>
      </trkpt>
      <trkpt lat="42.285012" lon="-0.480689">
        <ele>1504.5</ele>
        <time>2018-07-22T09:16:58.000Z</time>
      </trkpt>
      <trkpt lat="42.285013" lon="-0.480688">
        <ele>1504.4</ele>
        <time>2018-07-22T09:16:59.000Z</time>
      </trkpt>
      <trkpt lat="42.285014" lon="-0.480688">
        <ele>1504.4</ele>
        <time>2018-07-22T09:17:00.000Z</time>
      </trkpt>
      <trkpt lat="42.28502" lon="-0.48069">
        <ele>1504.1</ele>
        <time>2018-07-22T09:17:01.000Z</time>
      </trkpt>
      <trkpt lat="42.285026" lon="-0.480693">
        <ele>1503.9</ele>
        <time>2018-07-22T09:17:02.000Z</time>
      </trkpt>
      <trkpt lat="42.28503" lon="-0.480696">
        <ele>1503.7</ele>
        <time>2018-07-22T09:17:03.000Z</time>
      </trkpt>
      <trkpt lat="42.285033" lon="-0.480699">
        <ele>1503.6</ele>
        <time>2018-07-22T09:17:04.000Z</time>
      </trkpt>
      <trkpt lat="42.285035" lon="-0.480701">
        <ele>1503.5</ele>
        <time>2018-07-22T09:17:05.000Z</time>
      </trkpt>
      <trkpt lat="42.285037" lon="-0.480704">
        <ele>1503.5</ele>
        <time>2018-07-22T09:17:06.000Z</time>
      </trkpt>
      <trkpt lat="42.28504" lon="-0.480706">
        <ele>1503.4</ele>
        <time>2018-07-22T09:17:07.000Z</time>
      </trkpt>
      <trkpt lat="42.285042" lon="-0.480708">
        <ele>1503.3</ele>
        <time>2018-07-22T09:17:08.000Z</time>
      </trkpt>
      <trkpt lat="42.285044" lon="-0.48071">
        <ele>1503.2</ele>
        <time>2018-07-22T09:17:09.000Z</time>
      </trkpt>
      <trkpt lat="42.285046" lon="-0.480712">
        <ele>1503.1</ele>
        <time>2018-07-22T09:17:10.000Z</time>
      </trkpt>
      <trkpt lat="42.285047" lon="-0.480714">
        <ele>1503.1</ele>
        <time>2018-07-22T09:17:11.000Z</time>
      </trkpt>
      <trkpt lat="42.285049" lon="-0.480715">
        <ele>1503.0</ele>
        <time>2018-07-22T09:17:12.000Z</time>
      </trkpt>
      <trkpt lat="42.28505" lon="-0.480716">
        <ele>1503.0</ele>
        <time>2018-07-22T09:17:13.000Z</time>
      </trkpt>
      <trkpt lat="42.285051" lon="-0.480718">
        <ele>1503.0</ele>
        <time>2018-07-22T09:17:14.000Z</time>
      </trkpt>
      <trkpt lat="42.285052" lon="-0.480719">
        <ele>1502.9</ele>
        <time>2018-07-22T09:17:15.000Z</time>
      </trkpt>
      <trkpt lat="42.285053" lon="-0.48072">
        <ele>1502.9</ele>
        <time>2018-07-22T09:17:16.000Z</time>
      </trkpt>
      <trkpt lat="42.285055" lon="-0.480721">
        <ele>1502.8</ele>
        <time>2018-07-22T09:17:17.000Z</time>
      </trkpt>
      <trkpt lat="42.285057" lon="-0.480723">
        <ele>1502.7</ele>
        <time>2018-07-22T09:17:18.000Z</time>
      </trkpt>
      <trkpt lat="42.285061" lon="-0.480728">
        <ele>1502.6</ele>
        <time>2018-07-22T09:17:19.000Z</time>
      </trkpt>
      <trkpt lat="42.285068" lon="-0.480736">
        <ele>1502.3</ele>
        <time>2018-07-22T09:17:20.000Z</time>
      </trkpt>
      <trkpt lat="42.285073" lon="-0.480741">
        <ele>1502.1</ele>
        <time>2018-07-22T09:17:21.000Z</time>
      </trkpt>
      <trkpt lat="42.285077" lon="-0.480745">
        <ele>1502.0</ele>
        <time>2018-07-22T09:17:22.000Z</time>
      </trkpt>
      <trkpt lat="42.285079" lon="-0.480746">
        <ele>1501.9</ele>
        <time>2018-07-22T09:17:23.000Z</time>
      </trkpt>
      <trkpt lat="42.28508" lon="-0.480747">
        <ele>1501.9</ele>
        <time>2018-07-22T09:17:24.000Z</time>
      </trkpt>
      <trkpt lat="42.285081" lon="-0.480748">
        <ele>1501.8</ele>
        <time>2018-07-22T09:17:25.000Z</time>
      </trkpt>
      <trkpt lat="42.285082" lon="-0.480748">
        <ele>1501.8</ele>
        <time>2018-07-22T09:17:26.000Z</time>
      </trkpt>
      <trkpt lat="42.285083" lon="-0.480749">
        <ele>1501.7</ele>
        <time>2018-07-22T09:17:27.000Z</time>
      </trkpt>
      <trkpt lat="42.285085" lon="-0.48075">
        <ele>1501.6</ele>
        <time>2018-07-22T09:17:28.000Z</time>
      </trkpt>
      <trkpt lat="42.285086" lon="-0.480751">
        <ele>1501.6</ele>
        <time>2018-07-22T09:17:29.000Z</time>
      </trkpt>
      <trkpt lat="42.285088" lon="-0.480753">
        <ele>1501.5</ele>
        <time>2018-07-22T09:17:30.000Z</time>
      </trkpt>
      <trkpt lat="42.28509" lon="-0.480754">
        <ele>1501.4</ele>
        <time>2018-07-22T09:17:31.000Z</time>
      </trkpt>
      <trkpt lat="42.285092" lon="-0.480756">
        <ele>1501.4</ele>
        <time>2018-07-22T09:17:32.000Z</time>
      </trkpt>
      <trkpt lat="42.285093" lon="-0.480757">
        <ele>1501.3</ele>
        <time>2018-07-22T09:17:33.000Z</time>
      </trkpt>
      <trkpt lat="42.285095" lon="-0.480759">
        <ele>1501.2</ele>
        <time>2018-07-22T09:17:34.000Z</time>
      </trkpt>
      <trkpt lat="42.285097" lon="-0.48076">
        <ele>1501.2</ele>
        <time>2018-07-22T09:17:35.000Z</time>
      </trkpt>
      <trkpt lat="42.285098" lon="-0.480761">
        <ele>1501.1</ele>
        <time>2018-07-22T09:17:36.000Z</time>
      </trkpt>
      <trkpt lat="42.285099" lon="-0.480762">
        <ele>1501.1</ele>
        <time>2018-07-22T09:17:37.000Z</time>
      </trkpt>
      <trkpt lat="42.285101" lon="-0.480763">
        <ele>1501.0</ele>
        <time>2018-07-22T09:17:38.000Z</time>
      </trkpt>
      <trkpt lat="42.285109" lon="-0.480767">
        <ele>1500.6</ele>
        <time>2018-07-22T09:17:39.000Z</time>
      </trkpt>
      <trkpt lat="42.285116" lon="-0.480769">
        <ele>1500.3</ele>
        <time>2018-07-22T09:17:40.000Z</time>
      </trkpt>
      <trkpt lat="42.285121" lon="-0.480768">
        <ele>1500.0</ele>
        <time>2018-07-22T09:17:41.000Z</time>
      </trkpt>
      <trkpt lat="42.285125" lon="-0.480766">
        <ele>1499.8</ele>
        <time>2018-07-22T09:17:42.000Z</time>
      </trkpt>
      <trkpt lat="42.285128" lon="-0.480764">
        <ele>1499.6</ele>
        <time>2018-07-22T09:17:43.000Z</time>
      </trkpt>
      <trkpt lat="42.285131" lon="-0.480763">
        <ele>1499.5</ele>
        <time>2018-07-22T09:17:44.000Z</time>
      </trkpt>
      <trkpt lat="42.285133" lon="-0.480762">
        <ele>1499.4</ele>
        <time>2018-07-22T09:17:45.000Z</time>
      </trkpt>
      <trkpt lat="42.285135" lon="-0.480761">
        <ele>1499.3</ele>
        <time>2018-07-22T09:17:46.000Z</time>
      </trkpt>
      <trkpt lat="42.285137" lon="-0.48076">
        <ele>1499.2</ele>
        <time>2018-07-22T09:17:47.000Z</time>
      </trkpt>
      <trkpt lat="42.285138" lon="-0.48076">
        <ele>1499.1</ele>
        <time>2018-07-22T09:17:48.000Z</time>
      </trkpt>
      <trkpt lat="42.285139" lon="-0.48076">
        <ele>1499.1</ele>
        <time>2018-07-22T09:17:49.000Z</time>
      </trkpt>
      <trkpt lat="42.285141" lon="-0.480761">
        <ele>1499.0</ele>
        <time>2018-07-22T09:17:50.000Z</time>
      </trkpt>
      <trkpt lat="42.285144" lon="-0.480761">
        <ele>1498.8</ele>
        <time>2018-07-22T09:17:51.000Z</time>
      </trkpt>
      <trkpt lat="42.285147" lon="-0.480761">
        <ele>1498.7</ele>
        <time>2018-07-22T09:17:52.000Z</time>
      </trkpt>
      <trkpt lat="42.28515" lon="-0.480761">
        <ele>1498.5</ele>
        <time>2018-07-22T09:17:53.000Z</time>
      </trkpt>
      <trkpt lat="42.285153" lon="-0.480762">
        <ele>1498.4</ele>
        <time>2018-07-22T09:17:54.000Z</time>
      </trkpt>
      <trkpt lat="42.285161" lon="-0.480768">
        <ele>1498.0</ele>
        <time>2018-07-22T09:17:55.000Z</time>
      </trkpt>
      <trkpt lat="42.285166" lon="-0.480772">
        <ele>1497.8</ele>
        <time>2018-07-22T09:17:56.000Z</time>
      </trkpt>
      <trkpt lat="42.285169" lon="-0.480774">
        <ele>1497.7</ele>
        <time>2018-07-22T09:17:57.000Z</time>
      </trkpt>
      <trkpt lat="42.285171" lon="-0.480777">
        <ele>1497.6</ele>
        <time>2018-07-22T09:17:58.000Z</time>
      </trkpt>
      <trkpt lat="42.285174" lon="-0.480779">
        <ele>1497.5</ele>
        <time>2018-07-22T09:17:59.000Z</time>
      </trkpt>
      <trkpt lat="42.285176" lon="-0.48078">
        <ele>1497.4</ele>
        <time>2018-07-22T09:18:00.000Z</time>
      </trkpt>
      <trkpt lat="42.285177" lon="-0.480782">
        <ele>1497.4</ele>
        <time>2018-07-22T09:18:01.000Z</time>
      </trkpt>
      <trkpt lat="42.285179" lon="-0.480783">
        <ele>1497.3</ele>
        <time>2018-07-22T09:18:02.000Z</time>
      </trkpt>
      <trkpt lat="42.28518" lon="-0.480784">
        <ele>1497.2</ele>
        <time>2018-07-22T09:18:03.000Z</time>
      </trkpt>
      <trkpt lat="42.285182" lon="-0.480785">
        <ele>1497.1</ele>
        <time>2018-07-22T09:18:04.000Z</time>
      </trkpt>
      <trkpt lat="42.285184" lon="-0.480786">
        <ele>1497.0</ele>
        <time>2018-07-22T09:18:05.000Z</time>
      </trkpt>
      <trkpt lat="42.285186" lon="-0.480787">
        <ele>1497.0</ele>
        <time>2018-07-22T09:18:06.000Z</time>
      </trkpt>
      <trkpt lat="42.285188" lon="-0.480788">
        <ele>1496.9</ele>
        <time>2018-07-22T09:18:07.000Z</time>
      </trkpt>
      <trkpt lat="42.285195" lon="-0.480786">
        <ele>1496.5</ele>
        <time>2018-07-22T09:18:08.000Z</time>
      </trkpt>
      <trkpt lat="42.285199" lon="-0.480786">
        <ele>1496.3</ele>
        <time>2018-07-22T09:18:09.000Z</time>
      </trkpt>
      <trkpt lat="42.285202" lon="-0.480786">
        <ele>1496.1</ele>
        <time>2018-07-22T09:18:10.000Z</time>
      </trkpt>
      <trkpt lat="42.285205" lon="-0.480786">
        <ele>1496.0</ele>
        <time>2018-07-22T09:18:11.000Z</time>
      </trkpt>
      <trkpt lat="42.285209" lon="-0.480786">
        <ele>1495.8</ele>
        <time>2018-07-22T09:18:12.000Z</time>
      </trkpt>
      <trkpt lat="42.285212" lon="-0.480787">
        <ele>1495.6</ele>
        <time>2018-07-22T09:18:13.000Z</time>
      </trkpt>
      <trkpt lat="42.285215" lon="-0.480787">
        <ele>1495.5</ele>
        <time>2018-07-22T09:18:14.000Z</time>
      </trkpt>
      <trkpt lat="42.285217" lon="-0.480787">
        <ele>1495.4</ele>
        <time>2018-07-22T09:18:15.000Z</time>
      </trkpt>
      <trkpt lat="42.28522" lon="-0.480788">
        <ele>1495.2</ele>
        <time>2018-07-22T09:18:16.000Z</time>
      </trkpt>
      <trkpt lat="42.285222" lon="-0.480788">
        <ele>1495.1</ele>
        <time>2018-07-22T09:18:17.000Z</time>
      </trkpt>
      <trkpt lat="42.285224" lon="-0.480789">
        <ele>1495.0</ele>
        <time>2018-07-22T09:18:18.000Z</time>
      </trkpt>
      <trkpt lat="42.285226" lon="-0.48079">
        <ele>1494.9</ele>
        <time>2018-07-22T09:18:19.000Z</time>
      </trkpt>
      <trkpt lat="42.285228" lon="-0.480791">
        <ele>1494.9</ele>
        <time>2018-07-22T09:18:20.000Z</time>
      </trkpt>
      <trkpt lat="42.285229" lon="-0.480792">
        <ele>1494.8</ele>
        <time>2018-07-22T09:18:21.000Z</time>
      </trkpt>
      <trkpt lat="42.285232" lon="-0.480794">
        <ele>1494.7</ele>
        <time>2018-07-22T09:18:22.000Z</time>
      </trkpt>
      <trkpt lat="42.285239" lon="-0.4808">
        <ele>1494.4</ele>
        <time>2018-07-22T09:18:23.000Z</time>
      </trkpt>
      <trkpt lat="42.285246" lon="-0.480806">
        <ele>1494.1</ele>
        <time>2018-07-22T09:18:24.000Z</time>
      </trkpt>
      <trkpt lat="42.285252" lon="-0.480811">
        <ele>1493.8</ele>
        <time>2018-07-22T09:18:25.000Z</time>
      </trkpt>
      <trkpt lat="42.285255" lon="-0.480814">
        <ele>1493.7</ele>
        <time>2018-07-22T09:18:26.000Z</time>
      </trkpt>
      <trkpt lat="42.285256" lon="-0.480814">
        <ele>1493.6</ele>
        <time>2018-07-22T09:18:27.000Z</time>
      </trkpt>
      <trkpt lat="42.285256" lon="-0.480814">
        <ele>1493.6</ele>
        <time>2018-07-22T09:18:28.000Z</time>
      </trkpt>
      <trkpt lat="42.285256" lon="-0.480814">
        <ele>1493.6</ele>
        <time>2018-07-22T09:18:29.000Z</time>
      </trkpt>
      <trkpt lat="42.285257" lon="-0.480815">
        <ele>1493.6</ele>
        <time>2018-07-22T09:18:30.000Z</time>
      </trkpt>
      <trkpt lat="42.285258" lon="-0.480815">
        <ele>1493.5</ele>
        <time>2018-07-22T09:18:31.000Z</time>
      </trkpt>
      <trkpt lat="42.285258" lon="-0.480815">
        <ele>1493.5</ele>
        <time>2018-07-22T09:18:32.000Z</time>
      </trkpt>
      <trkpt lat="42.285259" lon="-0.480816">
        <ele>1493.5</ele>
        <time>2018-07-22T09:18:33.000Z</time>
      </trkpt>
      <trkpt lat="42.28526" lon="-0.480817">
        <ele>1493.4</ele>
        <time>2018-07-22T09:18:34.000Z</time>
      </trkpt>
      <trkpt lat="42.285261" lon="-0.480817">
        <ele>1493.4</ele>
        <time>2018-07-22T09:18:35.000Z</time>
      </trkpt>
      <trkpt lat="42.285262" lon="-0.480818">
        <ele>1493.4</ele>
        <time>2018-07-22T09:18:36.000Z</time>
      </trkpt>
      <trkpt lat="42.285264" lon="-0.480819">
        <ele>1493.3</ele>
        <time>2018-07-22T09:18:37.000Z</time>
      </trkpt>
      <trkpt lat="42.285265" lon="-0.480819">
        <ele>1493.2</ele>
        <time>2018-07-22T09:18:38.000Z</time>
      </trkpt>
      <trkpt lat="42.285266" lon="-0.48082">
        <ele>1493.2</ele>
        <time>2018-07-22T09:18:39.000Z</time>
      </trkpt>
      <trkpt lat="42.285268" lon="-0.48082">
        <ele>1493.1</ele>
        <time>2018-07-22T09:18:40.000Z</time>
      </trkpt>
      <trkpt lat="42.285269" lon="-0.480821">
        <ele>1493.0</ele>
        <time>2018-07-22T09:18:41.000Z</time>
      </trkpt>
      <trkpt lat="42.285271" lon="-0.480821">
        <ele>1492.9</ele>
        <time>2018-07-22T09:18:42.000Z</time>
      </trkpt>
      <trkpt lat="42.285272" lon="-0.480822">
        <ele>1492.9</ele>
        <time>2018-07-22T09:18:43.000Z</time>
      </trkpt>
      <trkpt lat="42.285274" lon="-0.480822">
        <ele>1492.8</ele>
        <time>2018-07-22T09:18:44.000Z</time>
      </trkpt>
      <trkpt lat="42.285275" lon="-0.480822">
        <ele>1492.7</ele>
        <time>2018-07-22T09:18:45.000Z</time>
      </trkpt>
      <trkpt lat="42.285276" lon="-0.480823">
        <ele>1492.7</ele>
        <time>2018-07-22T09:18:46.000Z</time>
      </trkpt>
      <trkpt lat="42.285278" lon="-0.480823">
        <ele>1492.6</ele>
        <time>2018-07-22T09:18:47.000Z</time>
      </trkpt>
      <trkpt lat="42.285279" lon="-0.480824">
        <ele>1492.5</ele>
        <time>2018-07-22T09:18:48.000Z</time>
      </trkpt>
      <trkpt lat="42.28528" lon="-0.480824">
        <ele>1492.5</ele>
        <time>2018-07-22T09:18:49.000Z</time>
      </trkpt>
      <trkpt lat="42.285281" lon="-0.480825">
        <ele>1492.4</ele>
        <time>2018-07-22T09:18:50.000Z</time>
      </trkpt>
      <trkpt lat="42.285283" lon="-0.480825">
        <ele>1492.3</ele>
        <time>2018-07-22T09:18:51.000Z</time>
      </trkpt>
      <trkpt lat="42.285291" lon="-0.480828">
        <ele>1491.9</ele>
        <time>2018-07-22T09:18:52.000Z</time>
      </trkpt>
      <trkpt lat="42.285297" lon="-0.48083">
        <ele>1491.6</ele>
        <time>2018-07-22T09:18:53.000Z</time>
      </trkpt>
      <trkpt lat="42.2853" lon="-0.48083">
        <ele>1491.5</ele>
        <time>2018-07-22T09:18:54.000Z</time>
      </trkpt>
      <trkpt lat="42.285303" lon="-0.480831">
        <ele>1491.3</ele>
        <time>2018-07-22T09:18:55.000Z</time>
      </trkpt>
      <trkpt lat="42.285305" lon="-0.480831">
        <ele>1491.2</ele>
        <time>2018-07-22T09:18:56.000Z</time>
      </trkpt>
      <trkpt lat="42.285308" lon="-0.480831">
        <ele>1491.1</ele>
        <time>2018-07-22T09:18:57.000Z</time>
      </trkpt>
      <trkpt lat="42.285311" lon="-0.480831">
        <ele>1490.9</ele>
        <time>2018-07-22T09:18:58.000Z</time>
      </trkpt>
      <trkpt lat="42.285314" lon="-0.480831">
        <ele>1490.8</ele>
        <time>2018-07-22T09:18:59.000Z</time>
      </trkpt>
      <trkpt lat="42.285316" lon="-0.480831">
        <ele>1490.7</ele>
        <time>2018-07-22T09:19:00.000Z</time>
      </trkpt>
      <trkpt lat="42.285319" lon="-0.480831">
        <ele>1490.5</ele>
        <time>2018-07-22T09:19:01.000Z</time>
      </trkpt>
      <trkpt lat="42.285322" lon="-0.480831">
        <ele>1490.4</ele>
        <time>2018-07-22T09:19:02.000Z</time>
      </trkpt>
      <trkpt lat="42.285326" lon="-0.48083">
        <ele>1490.2</ele>
        <time>2018-07-22T09:19:03.000Z</time>
      </trkpt>
      <trkpt lat="42.285333" lon="-0.48083">
        <ele>1489.8</ele>
        <time>2018-07-22T09:19:04.000Z</time>
      </trkpt>
      <trkpt lat="42.285342" lon="-0.480829">
        <ele>1489.3</ele>
        <time>2018-07-22T09:19:05.000Z</time>
      </trkpt>
      <trkpt lat="42.285346" lon="-0.480829">
        <ele>1489.1</ele>
        <time>2018-07-22T09:19:06.000Z</time>
      </trkpt>
      <trkpt lat="42.285349" lon="-0.480829">
        <ele>1489.0</ele>
        <time>2018-07-22T09:19:07.000Z</time>
      </trkpt>
      <trkpt lat="42.28535" lon="-0.480828">
        <ele>1488.9</ele>
        <time>2018-07-22T09:19:08.000Z</time>
      </trkpt>
      <trkpt lat="42.285351" lon="-0.480828">
        <ele>1488.9</ele>
        <time>2018-07-22T09:19:09.000Z</time>
      </trkpt>
      <trkpt lat="42.285352" lon="-0.480828">
        <ele>1488.8</ele>
        <time>2018-07-22T09:19:10.000Z</time>
      </trkpt>
      <trkpt lat="42.285354" lon="-0.480828">
        <ele>1488.7</ele>
        <time>2018-07-22T09:19:11.000Z</time>
      </trkpt>
      <trkpt lat="42.285359" lon="-0.480828">
        <ele>1488.4</ele>
        <time>2018-07-22T09:19:12.000Z</time>
      </trkpt>
      <trkpt lat="42.285368" lon="-0.480826">
        <ele>1488.0</ele>
        <time>2018-07-22T09:19:13.000Z</time>
      </trkpt>
      <trkpt lat="42.285377" lon="-0.480824">
        <ele>1487.5</ele>
        <time>2018-07-22T09:19:14.000Z</time>
      </trkpt>
      <trkpt lat="42.285385" lon="-0.48082">
        <ele>1487.1</ele>
        <time>2018-07-22T09:19:15.000Z</time>
      </trkpt>
      <trkpt lat="42.285392" lon="-0.480814">
        <ele>1486.7</ele>
        <time>2018-07-22T09:19:16.000Z</time>
      </trkpt>
      <trkpt lat="42.285397" lon="-0.480808">
        <ele>1486.4</ele>
        <time>2018-07-22T09:19:17.000Z</time>
      </trkpt>
      <trkpt lat="42.285402" lon="-0.480801">
        <ele>1486.1</ele>
        <time>2018-07-22T09:19:18.000Z</time>
      </trkpt>
      <trkpt lat="42.285405" lon="-0.480794">
        <ele>1485.9</ele>
        <time>2018-07-22T09:19:19.000Z</time>
      </trkpt>
      <trkpt lat="42.285408" lon="-0.480789">
        <ele>1485.7</ele>
        <time>2018-07-22T09:19:20.000Z</time>
      </trkpt>
      <trkpt lat="42.28541" lon="-0.480784">
        <ele>1485.6</ele>
        <time>2018-07-22T09:19:21.000Z</time>
      </trkpt>
      <trkpt lat="42.285412" lon="-0.480781">
        <ele>1485.5</ele>
        <time>2018-07-22T09:19:22.000Z</time>
      </trkpt>
      <trkpt lat="42.285413" lon="-0.480778">
        <ele>1485.4</ele>
        <time>2018-07-22T09:19:23.000Z</time>
      </trkpt>
      <trkpt lat="42.285415" lon="-0.480776">
        <ele>1485.3</ele>
        <time>2018-07-22T09:19:24.000Z</time>
      </trkpt>
      <trkpt lat="42.285416" lon="-0.480774">
        <ele>1485.2</ele>
        <time>2018-07-22T09:19:25.000Z</time>
      </trkpt>
      <trkpt lat="42.285418" lon="-0.480771">
        <ele>1485.1</ele>
        <time>2018-07-22T09:19:26.000Z</time>
      </trkpt>
      <trkpt lat="42.28542" lon="-0.480769">
        <ele>1485.0</ele>
        <time>2018-07-22T09:19:27.000Z</time>
      </trkpt>
      <trkpt lat="42.285422" lon="-0.480767">
        <ele>1484.9</ele>
        <time>2018-07-22T09:19:28.000Z</time>
      </trkpt>
      <trkpt lat="42.285424" lon="-0.480766">
        <ele>1484.8</ele>
        <time>2018-07-22T09:19:29.000Z</time>
      </trkpt>
      <trkpt lat="42.285426" lon="-0.480765">
        <ele>1484.7</ele>
        <time>2018-07-22T09:19:30.000Z</time>
      </trkpt>
      <trkpt lat="42.285427" lon="-0.480764">
        <ele>1484.6</ele>
        <time>2018-07-22T09:19:31.000Z</time>
      </trkpt>
      <trkpt lat="42.28543" lon="-0.480762">
        <ele>1484.4</ele>
        <time>2018-07-22T09:19:32.000Z</time>
      </trkpt>
      <trkpt lat="42.285438" lon="-0.480757">
        <ele>1484.0</ele>
        <time>2018-07-22T09:19:33.000Z</time>
      </trkpt>
      <trkpt lat="42.285443" lon="-0.480755">
        <ele>1483.8</ele>
        <time>2018-07-22T09:19:34.000Z</time>
      </trkpt>
      <trkpt lat="42.285445" lon="-0.480754">
        <ele>1483.7</ele>
        <time>2018-07-22T09:19:35.000Z</time>
      </trkpt>
      <trkpt lat="42.285447" lon="-0.480754">
        <ele>1483.6</ele>
        <time>2018-07-22T09:19:36.000Z</time>
      </trkpt>
      <trkpt lat="42.285449" lon="-0.480754">
        <ele>1483.5</ele>
        <time>2018-07-22T09:19:37.000Z</time>
      </trkpt>
      <trkpt lat="42.285451" lon="-0.480753">
        <ele>1483.3</ele>
        <time>2018-07-22T09:19:38.000Z</time>
      </trkpt>
      <trkpt lat="42.285455" lon="-0.480751">
        <ele>1483.1</ele>
        <time>2018-07-22T09:19:39.000Z</time>
      </trkpt>
      <trkpt lat="42.28546" lon="-0.480746">
        <ele>1482.9</ele>
        <time>2018-07-22T09:19:40.000Z</time>
      </trkpt>
      <trkpt lat="42.285466" lon="-0.48074">
        <ele>1482.5</ele>
        <time>2018-07-22T09:19:41.000Z</time>
      </trkpt>
      <trkpt lat="42.285471" lon="-0.480734">
        <ele>1482.3</ele>
        <time>2018-07-22T09:19:42.000Z</time>
      </trkpt>
      <trkpt lat="42.285475" lon="-0.480729">
        <ele>1482.0</ele>
        <time>2018-07-22T09:19:43.000Z</time>
      </trkpt>
      <trkpt lat="42.285477" lon="-0.480727">
        <ele>1481.9</ele>
        <time>2018-07-22T09:19:44.000Z</time>
      </trkpt>
      <trkpt lat="42.285479" lon="-0.480725">
        <ele>1481.8</ele>
        <time>2018-07-22T09:19:45.000Z</time>
      </trkpt>
      <trkpt lat="42.28548" lon="-0.480724">
        <ele>1481.8</ele>
        <time>2018-07-22T09:19:46.000Z</time>
      </trkpt>
      <trkpt lat="42.285481" lon="-0.480723">
        <ele>1481.7</ele>
        <time>2018-07-22T09:19:47.000Z</time>
      </trkpt>
      <trkpt lat="42.285483" lon="-0.480721">
        <ele>1481.6</ele>
        <time>2018-07-22T09:19:48.000Z</time>
      </trkpt>
      <trkpt lat="42.285484" lon="-0.48072">
        <ele>1481.6</ele>
        <time>2018-07-22T09:19:49.000Z</time>
      </trkpt>
      <trkpt lat="42.285486" lon="-0.480718">
        <ele>1481.4</ele>
        <time>2018-07-22T09:19:50.000Z</time>
      </trkpt>
      <trkpt lat="42.285488" lon="-0.480716">
        <ele>1481.3</ele>
        <time>2018-07-22T09:19:51.000Z</time>
      </trkpt>
      <trkpt lat="42.285489" lon="-0.480714">
        <ele>1481.3</ele>
        <time>2018-07-22T09:19:52.000Z</time>
      </trkpt>
      <trkpt lat="42.285491" lon="-0.480712">
        <ele>1481.2</ele>
        <time>2018-07-22T09:19:53.000Z</time>
      </trkpt>
      <trkpt lat="42.285492" lon="-0.48071">
        <ele>1481.1</ele>
        <time>2018-07-22T09:19:54.000Z</time>
      </trkpt>
      <trkpt lat="42.285494" lon="-0.480708">
        <ele>1481.0</ele>
        <time>2018-07-22T09:19:55.000Z</time>
      </trkpt>
      <trkpt lat="42.285496" lon="-0.480705">
        <ele>1480.9</ele>
        <time>2018-07-22T09:19:56.000Z</time>
      </trkpt>
      <trkpt lat="42.285498" lon="-0.480703">
        <ele>1480.8</ele>
        <time>2018-07-22T09:19:57.000Z</time>
      </trkpt>
      <trkpt lat="42.285502" lon="-0.480698">
        <ele>1480.6</ele>
        <time>2018-07-22T09:19:58.000Z</time>
      </trkpt>
      <trkpt lat="42.285508" lon="-0.480693">
        <ele>1480.3</ele>
        <time>2018-07-22T09:19:59.000Z</time>
      </trkpt>
      <trkpt lat="42.285512" lon="-0.480689">
        <ele>1480.1</ele>
        <time>2018-07-22T09:20:00.000Z</time>
      </trkpt>
      <trkpt lat="42.285514" lon="-0.480687">
        <ele>1480.0</ele>
        <time>2018-07-22T09:20:01.000Z</time>
      </trkpt>
      <trkpt lat="42.285516" lon="-0.480685">
        <ele>1479.8</ele>
        <time>2018-07-22T09:20:02.000Z</time>
      </trkpt>
      <trkpt lat="42.285517" lon="-0.480684">
        <ele>1479.8</ele>
        <time>2018-07-22T09:20:03.000Z</time>
      </trkpt>
      <trkpt lat="42.285517" lon="-0.480684">
        <ele>1479.8</ele>
        <time>2018-07-22T09:20:04.000Z</time>
      </trkpt>
      <trkpt lat="42.285518" lon="-0.480683">
        <ele>1479.7</ele>
        <time>2018-07-22T09:20:05.000Z</time>
      </trkpt>
      <trkpt lat="42.285519" lon="-0.480682">
        <ele>1479.7</ele>
        <time>2018-07-22T09:20:06.000Z</time>
      </trkpt>
      <trkpt lat="42.285521" lon="-0.48068">
        <ele>1479.6</ele>
        <time>2018-07-22T09:20:07.000Z</time>
      </trkpt>
      <trkpt lat="42.285524" lon="-0.480678">
        <ele>1479.4</ele>
        <time>2018-07-22T09:20:08.000Z</time>
      </trkpt>
      <trkpt lat="42.285526" lon="-0.480675">
        <ele>1479.3</ele>
        <time>2018-07-22T09:20:09.000Z</time>
      </trkpt>
      <trkpt lat="42.285529" lon="-0.480673">
        <ele>1479.2</ele>
        <time>2018-07-22T09:20:10.000Z</time>
      </trkpt>
      <trkpt lat="42.285531" lon="-0.480672">
        <ele>1479.1</ele>
        <time>2018-07-22T09:20:11.000Z</time>
      </trkpt>
      <trkpt lat="42.285533" lon="-0.48067">
        <ele>1479.0</ele>
        <time>2018-07-22T09:20:12.000Z</time>
      </trkpt>
      <trkpt lat="42.285535" lon="-0.480668">
        <ele>1478.9</ele>
        <time>2018-07-22T09:20:13.000Z</time>
      </trkpt>
      <trkpt lat="42.285536" lon="-0.480666">
        <ele>1478.8</ele>
        <time>2018-07-22T09:20:14.000Z</time>
      </trkpt>
      <trkpt lat="42.285537" lon="-0.480665">
        <ele>1478.8</ele>
        <time>2018-07-22T09:20:15.000Z</time>
      </trkpt>
      <trkpt lat="42.285539" lon="-0.480665">
        <ele>1478.7</ele>
        <time>2018-07-22T09:20:16.000Z</time>
      </trkpt>
      <trkpt lat="42.285541" lon="-0.480664">
        <ele>1478.6</ele>
        <time>2018-07-22T09:20:17.000Z</time>
      </trkpt>
      <trkpt lat="42.285543" lon="-0.480663">
        <ele>1478.5</ele>
        <time>2018-07-22T09:20:18.000Z</time>
      </trkpt>
      <trkpt lat="42.285544" lon="-0.480663">
        <ele>1478.4</ele>
        <time>2018-07-22T09:20:19.000Z</time>
      </trkpt>
      <trkpt lat="42.285545" lon="-0.480662">
        <ele>1478.4</ele>
        <time>2018-07-22T09:20:20.000Z</time>
      </trkpt>
      <trkpt lat="42.285545" lon="-0.480662">
        <ele>1478.4</ele>
        <time>2018-07-22T09:20:21.000Z</time>
      </trkpt>
      <trkpt lat="42.285546" lon="-0.480662">
        <ele>1478.3</ele>
        <time>2018-07-22T09:20:22.000Z</time>
      </trkpt>
      <trkpt lat="42.285547" lon="-0.480661">
        <ele>1478.3</ele>
        <time>2018-07-22T09:20:23.000Z</time>
      </trkpt>
      <trkpt lat="42.285547" lon="-0.480661">
        <ele>1478.3</ele>
        <time>2018-07-22T09:20:24.000Z</time>
      </trkpt>
      <trkpt lat="42.285548" lon="-0.48066">
        <ele>1478.2</ele>
        <time>2018-07-22T09:20:25.000Z</time>
      </trkpt>
      <trkpt lat="42.285549" lon="-0.48066">
        <ele>1478.2</ele>
        <time>2018-07-22T09:20:26.000Z</time>
      </trkpt>
      <trkpt lat="42.285551" lon="-0.480659">
        <ele>1478.1</ele>
        <time>2018-07-22T09:20:27.000Z</time>
      </trkpt>
      <trkpt lat="42.285552" lon="-0.480658">
        <ele>1478.0</ele>
        <time>2018-07-22T09:20:28.000Z</time>
      </trkpt>
      <trkpt lat="42.285553" lon="-0.480657">
        <ele>1478.0</ele>
        <time>2018-07-22T09:20:29.000Z</time>
      </trkpt>
      <trkpt lat="42.285554" lon="-0.480656">
        <ele>1477.9</ele>
        <time>2018-07-22T09:20:30.000Z</time>
      </trkpt>
      <trkpt lat="42.285555" lon="-0.480655">
        <ele>1477.9</ele>
        <time>2018-07-22T09:20:31.000Z</time>
      </trkpt>
      <trkpt lat="42.285556" lon="-0.480655">
        <ele>1477.8</ele>
        <time>2018-07-22T09:20:32.000Z</time>
      </trkpt>
      <trkpt lat="42.285557" lon="-0.480655">
        <ele>1477.8</ele>
        <time>2018-07-22T09:20:33.000Z</time>
      </trkpt>
      <trkpt lat="42.285557" lon="-0.480654">
        <ele>1477.8</ele>
        <time>2018-07-22T09:20:34.000Z</time>
      </trkpt>
      <trkpt lat="42.285559" lon="-0.480654">
        <ele>1477.7</ele>
        <time>2018-07-22T09:20:35.000Z</time>
      </trkpt>
      <trkpt lat="42.28556" lon="-0.480653">
        <ele>1477.6</ele>
        <time>2018-07-22T09:20:36.000Z</time>
      </trkpt>
      <trkpt lat="42.285562" lon="-0.480652">
        <ele>1477.5</ele>
        <time>2018-07-22T09:20:37.000Z</time>
      </trkpt>
      <trkpt lat="42.285564" lon="-0.480651">
        <ele>1477.4</ele>
        <time>2018-07-22T09:20:38.000Z</time>
      </trkpt>
      <trkpt lat="42.285566" lon="-0.480653">
        <ele>1477.3</ele>
        <time>2018-07-22T09:20:39.000Z</time>
      </trkpt>
      <trkpt lat="42.285572" lon="-0.480663">
        <ele>1477.1</ele>
        <time>2018-07-22T09:20:40.000Z</time>
      </trkpt>
      <trkpt lat="42.285584" lon="-0.480682">
        <ele>1476.5</ele>
        <time>2018-07-22T09:20:41.000Z</time>
      </trkpt>
      <trkpt lat="42.285589" lon="-0.480687">
        <ele>1476.3</ele>
        <time>2018-07-22T09:20:42.000Z</time>
      </trkpt>
      <trkpt lat="42.285595" lon="-0.480691">
        <ele>1476.0</ele>
        <time>2018-07-22T09:20:43.000Z</time>
      </trkpt>
      <trkpt lat="42.285598" lon="-0.480693">
        <ele>1475.9</ele>
        <time>2018-07-22T09:20:44.000Z</time>
      </trkpt>
      <trkpt lat="42.285601" lon="-0.480693">
        <ele>1475.7</ele>
        <time>2018-07-22T09:20:45.000Z</time>
      </trkpt>
      <trkpt lat="42.285603" lon="-0.480692">
        <ele>1475.6</ele>
        <time>2018-07-22T09:20:46.000Z</time>
      </trkpt>
      <trkpt lat="42.285605" lon="-0.480691">
        <ele>1475.5</ele>
        <time>2018-07-22T09:20:47.000Z</time>
      </trkpt>
      <trkpt lat="42.285607" lon="-0.480691">
        <ele>1475.4</ele>
        <time>2018-07-22T09:20:48.000Z</time>
      </trkpt>
      <trkpt lat="42.28561" lon="-0.480691">
        <ele>1475.3</ele>
        <time>2018-07-22T09:20:49.000Z</time>
      </trkpt>
      <trkpt lat="42.285612" lon="-0.480691">
        <ele>1475.2</ele>
        <time>2018-07-22T09:20:50.000Z</time>
      </trkpt>
      <trkpt lat="42.285614" lon="-0.480691">
        <ele>1475.1</ele>
        <time>2018-07-22T09:20:51.000Z</time>
      </trkpt>
      <trkpt lat="42.285615" lon="-0.480692">
        <ele>1475.0</ele>
        <time>2018-07-22T09:20:52.000Z</time>
      </trkpt>
      <trkpt lat="42.285617" lon="-0.480692">
        <ele>1474.9</ele>
        <time>2018-07-22T09:20:53.000Z</time>
      </trkpt>
      <trkpt lat="42.28562" lon="-0.480693">
        <ele>1474.8</ele>
        <time>2018-07-22T09:20:54.000Z</time>
      </trkpt>
      <trkpt lat="42.285624" lon="-0.480694">
        <ele>1474.6</ele>
        <time>2018-07-22T09:20:55.000Z</time>
      </trkpt>
      <trkpt lat="42.285628" lon="-0.480694">
        <ele>1474.4</ele>
        <time>2018-07-22T09:20:56.000Z</time>
      </trkpt>
      <trkpt lat="42.28563" lon="-0.480693">
        <ele>1474.3</ele>
        <time>2018-07-22T09:20:57.000Z</time>
      </trkpt>
      <trkpt lat="42.285632" lon="-0.480692">
        <ele>1474.2</ele>
        <time>2018-07-22T09:20:58.000Z</time>
      </trkpt>
      <trkpt lat="42.285635" lon="-0.480691">
        <ele>1474.0</ele>
        <time>2018-07-22T09:20:59.000Z</time>
      </trkpt>
      <trkpt lat="42.285637" lon="-0.48069">
        <ele>1473.9</ele>
        <time>2018-07-22T09:21:00.000Z</time>
      </trkpt>
      <trkpt lat="42.285638" lon="-0.48069">
        <ele>1473.9</ele>
        <time>2018-07-22T09:21:01.000Z</time>
      </trkpt>
      <trkpt lat="42.285638" lon="-0.48069">
        <ele>1473.9</ele>
        <time>2018-07-22T09:21:02.000Z</time>
      </trkpt>
      <trkpt lat="42.285639" lon="-0.48069">
        <ele>1473.9</ele>
        <time>2018-07-22T09:21:03.000Z</time>
      </trkpt>
      <trkpt lat="42.28564" lon="-0.48069">
        <ele>1473.8</ele>
        <time>2018-07-22T09:21:04.000Z</time>
      </trkpt>
      <trkpt lat="42.285642" lon="-0.48069">
        <ele>1473.7</ele>
        <time>2018-07-22T09:21:05.000Z</time>
      </trkpt>
      <trkpt lat="42.285643" lon="-0.480689">
        <ele>1473.7</ele>
        <time>2018-07-22T09:21:06.000Z</time>
      </trkpt>
      <trkpt lat="42.285645" lon="-0.480689">
        <ele>1473.6</ele>
        <time>2018-07-22T09:21:07.000Z</time>
      </trkpt>
      <trkpt lat="42.285647" lon="-0.480688">
        <ele>1473.5</ele>
        <time>2018-07-22T09:21:08.000Z</time>
      </trkpt>
      <trkpt lat="42.285649" lon="-0.480687">
        <ele>1473.4</ele>
        <time>2018-07-22T09:21:09.000Z</time>
      </trkpt>
      <trkpt lat="42.285651" lon="-0.480686">
        <ele>1473.3</ele>
        <time>2018-07-22T09:21:10.000Z</time>
      </trkpt>
      <trkpt lat="42.285653" lon="-0.480685">
        <ele>1473.2</ele>
        <time>2018-07-22T09:21:11.000Z</time>
      </trkpt>
      <trkpt lat="42.285656" lon="-0.480684">
        <ele>1473.0</ele>
        <time>2018-07-22T09:21:12.000Z</time>
      </trkpt>
      <trkpt lat="42.285659" lon="-0.480683">
        <ele>1472.9</ele>
        <time>2018-07-22T09:21:13.000Z</time>
      </trkpt>
      <trkpt lat="42.285662" lon="-0.480681">
        <ele>1472.7</ele>
        <time>2018-07-22T09:21:14.000Z</time>
      </trkpt>
      <trkpt lat="42.285665" lon="-0.480679">
        <ele>1472.6</ele>
        <time>2018-07-22T09:21:15.000Z</time>
      </trkpt>
      <trkpt lat="42.285668" lon="-0.480677">
        <ele>1472.4</ele>
        <time>2018-07-22T09:21:16.000Z</time>
      </trkpt>
      <trkpt lat="42.285669" lon="-0.480676">
        <ele>1472.4</ele>
        <time>2018-07-22T09:21:17.000Z</time>
      </trkpt>
      <trkpt lat="42.285671" lon="-0.480676">
        <ele>1472.3</ele>
        <time>2018-07-22T09:21:18.000Z</time>
      </trkpt>
      <trkpt lat="42.285672" lon="-0.480675">
        <ele>1472.2</ele>
        <time>2018-07-22T09:21:19.000Z</time>
      </trkpt>
      <trkpt lat="42.285674" lon="-0.480673">
        <ele>1472.1</ele>
        <time>2018-07-22T09:21:20.000Z</time>
      </trkpt>
      <trkpt lat="42.285677" lon="-0.480672">
        <ele>1472.0</ele>
        <time>2018-07-22T09:21:21.000Z</time>
      </trkpt>
      <trkpt lat="42.28568" lon="-0.48067">
        <ele>1471.8</ele>
        <time>2018-07-22T09:21:22.000Z</time>
      </trkpt>
      <trkpt lat="42.285683" lon="-0.480668">
        <ele>1471.7</ele>
        <time>2018-07-22T09:21:23.000Z</time>
      </trkpt>
      <trkpt lat="42.285685" lon="-0.480666">
        <ele>1471.6</ele>
        <time>2018-07-22T09:21:24.000Z</time>
      </trkpt>
      <trkpt lat="42.285688" lon="-0.480664">
        <ele>1471.4</ele>
        <time>2018-07-22T09:21:25.000Z</time>
      </trkpt>
      <trkpt lat="42.28569" lon="-0.480663">
        <ele>1471.3</ele>
        <time>2018-07-22T09:21:26.000Z</time>
      </trkpt>
      <trkpt lat="42.285692" lon="-0.480661">
        <ele>1471.3</ele>
        <time>2018-07-22T09:21:27.000Z</time>
      </trkpt>
      <trkpt lat="42.285693" lon="-0.48066">
        <ele>1471.2</ele>
        <time>2018-07-22T09:21:28.000Z</time>
      </trkpt>
      <trkpt lat="42.285694" lon="-0.48066">
        <ele>1471.2</ele>
        <time>2018-07-22T09:21:29.000Z</time>
      </trkpt>
      <trkpt lat="42.285695" lon="-0.480659">
        <ele>1471.1</ele>
        <time>2018-07-22T09:21:30.000Z</time>
      </trkpt>
      <trkpt lat="42.285696" lon="-0.480659">
        <ele>1471.1</ele>
        <time>2018-07-22T09:21:31.000Z</time>
      </trkpt>
      <trkpt lat="42.285703" lon="-0.480657">
        <ele>1470.7</ele>
        <time>2018-07-22T09:21:32.000Z</time>
      </trkpt>
      <trkpt lat="42.28571" lon="-0.480656">
        <ele>1470.4</ele>
        <time>2018-07-22T09:21:33.000Z</time>
      </trkpt>
      <trkpt lat="42.285714" lon="-0.480655">
        <ele>1470.2</ele>
        <time>2018-07-22T09:21:34.000Z</time>
      </trkpt>
      <trkpt lat="42.285717" lon="-0.480654">
        <ele>1470.0</ele>
        <time>2018-07-22T09:21:35.000Z</time>
      </trkpt>
      <trkpt lat="42.28572" lon="-0.480654">
        <ele>1469.9</ele>
        <time>2018-07-22T09:21:36.000Z</time>
      </trkpt>
      <trkpt lat="42.285722" lon="-0.480653">
        <ele>1469.8</ele>
        <time>2018-07-22T09:21:37.000Z</time>
      </trkpt>
      <trkpt lat="42.285724" lon="-0.480653">
        <ele>1469.7</ele>
        <time>2018-07-22T09:21:38.000Z</time>
      </trkpt>
      <trkpt lat="42.285725" lon="-0.480653">
        <ele>1469.7</ele>
        <time>2018-07-22T09:21:39.000Z</time>
      </trkpt>
      <trkpt lat="42.285726" lon="-0.480652">
        <ele>1469.6</ele>
        <time>2018-07-22T09:21:40.000Z</time>
      </trkpt>
      <trkpt lat="42.285727" lon="-0.480652">
        <ele>1469.6</ele>
        <time>2018-07-22T09:21:41.000Z</time>
      </trkpt>
      <trkpt lat="42.285728" lon="-0.480652">
        <ele>1469.5</ele>
        <time>2018-07-22T09:21:42.000Z</time>
      </trkpt>
      <trkpt lat="42.285729" lon="-0.480652">
        <ele>1469.5</ele>
        <time>2018-07-22T09:21:43.000Z</time>
      </trkpt>
      <trkpt lat="42.285731" lon="-0.480651">
        <ele>1469.4</ele>
        <time>2018-07-22T09:21:44.000Z</time>
      </trkpt>
      <trkpt lat="42.285734" lon="-0.48065">
        <ele>1469.2</ele>
        <time>2018-07-22T09:21:45.000Z</time>
      </trkpt>
      <trkpt lat="42.285737" lon="-0.48065">
        <ele>1469.1</ele>
        <time>2018-07-22T09:21:46.000Z</time>
      </trkpt>
      <trkpt lat="42.28574" lon="-0.480649">
        <ele>1468.9</ele>
        <time>2018-07-22T09:21:47.000Z</time>
      </trkpt>
      <trkpt lat="42.285742" lon="-0.480648">
        <ele>1468.8</ele>
        <time>2018-07-22T09:21:48.000Z</time>
      </trkpt>
      <trkpt lat="42.285743" lon="-0.480648">
        <ele>1468.8</ele>
        <time>2018-07-22T09:21:49.000Z</time>
      </trkpt>
      <trkpt lat="42.285744" lon="-0.480648">
        <ele>1468.7</ele>
        <time>2018-07-22T09:21:50.000Z</time>
      </trkpt>
      <trkpt lat="42.285747" lon="-0.480646">
        <ele>1468.6</ele>
        <time>2018-07-22T09:21:51.000Z</time>
      </trkpt>
      <trkpt lat="42.285753" lon="-0.480643">
        <ele>1468.3</ele>
        <time>2018-07-22T09:21:52.000Z</time>
      </trkpt>
      <trkpt lat="42.285758" lon="-0.480643">
        <ele>1468.1</ele>
        <time>2018-07-22T09:21:53.000Z</time>
      </trkpt>
      <trkpt lat="42.285767" lon="-0.480643">
        <ele>1467.6</ele>
        <time>2018-07-22T09:21:54.000Z</time>
      </trkpt>
      <trkpt lat="42.285773" lon="-0.480642">
        <ele>1467.4</ele>
        <time>2018-07-22T09:21:55.000Z</time>
      </trkpt>
      <trkpt lat="42.285777" lon="-0.480642">
        <ele>1467.2</ele>
        <time>2018-07-22T09:21:56.000Z</time>
      </trkpt>
      <trkpt lat="42.28578" lon="-0.480642">
        <ele>1467.0</ele>
        <time>2018-07-22T09:21:57.000Z</time>
      </trkpt>
      <trkpt lat="42.285782" lon="-0.480643">
        <ele>1466.9</ele>
        <time>2018-07-22T09:21:58.000Z</time>
      </trkpt>
      <trkpt lat="42.285784" lon="-0.480643">
        <ele>1466.8</ele>
        <time>2018-07-22T09:21:59.000Z</time>
      </trkpt>
      <trkpt lat="42.285786" lon="-0.480643">
        <ele>1466.7</ele>
        <time>2018-07-22T09:22:00.000Z</time>
      </trkpt>
      <trkpt lat="42.285788" lon="-0.480643">
        <ele>1466.6</ele>
        <time>2018-07-22T09:22:01.000Z</time>
      </trkpt>
      <trkpt lat="42.28579" lon="-0.480643">
        <ele>1466.5</ele>
        <time>2018-07-22T09:22:02.000Z</time>
      </trkpt>
      <trkpt lat="42.285792" lon="-0.480643">
        <ele>1466.4</ele>
        <time>2018-07-22T09:22:03.000Z</time>
      </trkpt>
      <trkpt lat="42.285795" lon="-0.480644">
        <ele>1466.3</ele>
        <time>2018-07-22T09:22:04.000Z</time>
      </trkpt>
      <trkpt lat="42.285797" lon="-0.480644">
        <ele>1466.2</ele>
        <time>2018-07-22T09:22:05.000Z</time>
      </trkpt>
      <trkpt lat="42.2858" lon="-0.480644">
        <ele>1466.1</ele>
        <time>2018-07-22T09:22:06.000Z</time>
      </trkpt>
      <trkpt lat="42.285807" lon="-0.480643">
        <ele>1465.7</ele>
        <time>2018-07-22T09:22:07.000Z</time>
      </trkpt>
      <trkpt lat="42.285814" lon="-0.480642">
        <ele>1465.4</ele>
        <time>2018-07-22T09:22:08.000Z</time>
      </trkpt>
      <trkpt lat="42.285822" lon="-0.480642">
        <ele>1465.0</ele>
        <time>2018-07-22T09:22:09.000Z</time>
      </trkpt>
      <trkpt lat="42.28583" lon="-0.480643">
        <ele>1464.6</ele>
        <time>2018-07-22T09:22:10.000Z</time>
      </trkpt>
      <trkpt lat="42.285838" lon="-0.480643">
        <ele>1464.2</ele>
        <time>2018-07-22T09:22:11.000Z</time>
      </trkpt>
      <trkpt lat="42.285846" lon="-0.480642">
        <ele>1463.8</ele>
        <time>2018-07-22T09:22:12.000Z</time>
      </trkpt>
      <trkpt lat="42.285854" lon="-0.480641">
        <ele>1463.4</ele>
        <time>2018-07-22T09:22:13.000Z</time>
      </trkpt>
      <trkpt lat="42.285861" lon="-0.480638">
        <ele>1463.1</ele>
        <time>2018-07-22T09:22:14.000Z</time>
      </trkpt>
      <trkpt lat="42.285868" lon="-0.480634">
        <ele>1462.7</ele>
        <time>2018-07-22T09:22:15.000Z</time>
      </trkpt>
      <trkpt lat="42.285875" lon="-0.480629">
        <ele>1462.4</ele>
        <time>2018-07-22T09:22:16.000Z</time>
      </trkpt>
      <trkpt lat="42.285881" lon="-0.480623">
        <ele>1462.1</ele>
        <time>2018-07-22T09:22:17.000Z</time>
      </trkpt>
      <trkpt lat="42.285887" lon="-0.480616">
        <ele>1461.8</ele>
        <time>2018-07-22T09:22:18.000Z</time>
      </trkpt>
      <trkpt lat="42.285891" lon="-0.480608">
        <ele>1461.6</ele>
        <time>2018-07-22T09:22:19.000Z</time>
      </trkpt>
      <trkpt lat="42.285895" lon="-0.480601">
        <ele>1461.5</ele>
        <time>2018-07-22T09:22:20.000Z</time>
      </trkpt>
      <trkpt lat="42.285898" lon="-0.480593">
        <ele>1461.3</ele>
        <time>2018-07-22T09:22:21.000Z</time>
      </trkpt>
      <trkpt lat="42.285901" lon="-0.480585">
        <ele>1461.2</ele>
        <time>2018-07-22T09:22:22.000Z</time>
      </trkpt>
      <trkpt lat="42.285903" lon="-0.480579">
        <ele>1461.1</ele>
        <time>2018-07-22T09:22:23.000Z</time>
      </trkpt>
      <trkpt lat="42.285905" lon="-0.480573">
        <ele>1461.0</ele>
        <time>2018-07-22T09:22:24.000Z</time>
      </trkpt>
      <trkpt lat="42.285907" lon="-0.480569">
        <ele>1460.9</ele>
        <time>2018-07-22T09:22:25.000Z</time>
      </trkpt>
      <trkpt lat="42.285908" lon="-0.480566">
        <ele>1460.9</ele>
        <time>2018-07-22T09:22:26.000Z</time>
      </trkpt>
      <trkpt lat="42.285909" lon="-0.480564">
        <ele>1460.9</ele>
        <time>2018-07-22T09:22:27.000Z</time>
      </trkpt>
      <trkpt lat="42.28591" lon="-0.480563">
        <ele>1460.8</ele>
        <time>2018-07-22T09:22:28.000Z</time>
      </trkpt>
      <trkpt lat="42.285911" lon="-0.480562">
        <ele>1460.8</ele>
        <time>2018-07-22T09:22:29.000Z</time>
      </trkpt>
      <trkpt lat="42.285912" lon="-0.480561">
        <ele>1460.7</ele>
        <time>2018-07-22T09:22:30.000Z</time>
      </trkpt>
      <trkpt lat="42.285912" lon="-0.480561">
        <ele>1460.7</ele>
        <time>2018-07-22T09:22:31.000Z</time>
      </trkpt>
      <trkpt lat="42.285913" lon="-0.48056">
        <ele>1460.7</ele>
        <time>2018-07-22T09:22:32.000Z</time>
      </trkpt>
      <trkpt lat="42.285913" lon="-0.48056">
        <ele>1460.7</ele>
        <time>2018-07-22T09:22:33.000Z</time>
      </trkpt>
      <trkpt lat="42.285913" lon="-0.48056">
        <ele>1460.7</ele>
        <time>2018-07-22T09:22:34.000Z</time>
      </trkpt>
      <trkpt lat="42.285913" lon="-0.48056">
        <ele>1460.7</ele>
        <time>2018-07-22T09:22:35.000Z</time>
      </trkpt>
      <trkpt lat="42.285913" lon="-0.48056">
        <ele>1460.7</ele>
        <time>2018-07-22T09:22:36.000Z</time>
      </trkpt>
      <trkpt lat="42.285913" lon="-0.48056">
        <ele>1460.7</ele>
        <time>2018-07-22T09:22:37.000Z</time>
      </trkpt>
      <trkpt lat="42.285913" lon="-0.48056">
        <ele>1460.7</ele>
        <time>2018-07-22T09:22:38.000Z</time>
      </trkpt>
      <trkpt lat="42.285913" lon="-0.48056">
        <ele>1460.7</ele>
        <time>2018-07-22T09:22:39.000Z</time>
      </trkpt>
      <trkpt lat="42.285913" lon="-0.48056">
        <ele>1460.7</ele>
        <time>2018-07-22T09:22:40.000Z</time>
      </trkpt>
      <trkpt lat="42.285913" lon="-0.48056">
        <ele>1460.7</ele>
        <time>2018-07-22T09:22:41.000Z</time>
      </trkpt>
      <trkpt lat="42.285914" lon="-0.480559">
        <ele>1460.6</ele>
        <time>2018-07-22T09:22:42.000Z</time>
      </trkpt>
      <trkpt lat="42.285915" lon="-0.480559">
        <ele>1460.6</ele>
        <time>2018-07-22T09:22:43.000Z</time>
      </trkpt>
      <trkpt lat="42.285917" lon="-0.480558">
        <ele>1460.5</ele>
        <time>2018-07-22T09:22:44.000Z</time>
      </trkpt>
      <trkpt lat="42.28592" lon="-0.480558">
        <ele>1460.3</ele>
        <time>2018-07-22T09:22:45.000Z</time>
      </trkpt>
      <trkpt lat="42.285923" lon="-0.480556">
        <ele>1460.2</ele>
        <time>2018-07-22T09:22:46.000Z</time>
      </trkpt>
      <trkpt lat="42.285926" lon="-0.480555">
        <ele>1460.0</ele>
        <time>2018-07-22T09:22:47.000Z</time>
      </trkpt>
      <trkpt lat="42.285929" lon="-0.480554">
        <ele>1459.9</ele>
        <time>2018-07-22T09:22:48.000Z</time>
      </trkpt>
      <trkpt lat="42.285935" lon="-0.480552">
        <ele>1459.6</ele>
        <time>2018-07-22T09:22:49.000Z</time>
      </trkpt>
      <trkpt lat="42.285946" lon="-0.480549">
        <ele>1459.1</ele>
        <time>2018-07-22T09:22:50.000Z</time>
      </trkpt>
      <trkpt lat="42.285953" lon="-0.480546">
        <ele>1458.7</ele>
        <time>2018-07-22T09:22:51.000Z</time>
      </trkpt>
      <trkpt lat="42.285956" lon="-0.480543">
        <ele>1458.6</ele>
        <time>2018-07-22T09:22:52.000Z</time>
      </trkpt>
      <trkpt lat="42.285958" lon="-0.480541">
        <ele>1458.5</ele>
        <time>2018-07-22T09:22:53.000Z</time>
      </trkpt>
      <trkpt lat="42.285959" lon="-0.480538">
        <ele>1458.4</ele>
        <time>2018-07-22T09:22:54.000Z</time>
      </trkpt>
      <trkpt lat="42.28596" lon="-0.480536">
        <ele>1458.4</ele>
        <time>2018-07-22T09:22:55.000Z</time>
      </trkpt>
      <trkpt lat="42.285961" lon="-0.480533">
        <ele>1458.4</ele>
        <time>2018-07-22T09:22:56.000Z</time>
      </trkpt>
      <trkpt lat="42.285963" lon="-0.48053">
        <ele>1458.3</ele>
        <time>2018-07-22T09:22:57.000Z</time>
      </trkpt>
      <trkpt lat="42.285964" lon="-0.480527">
        <ele>1458.2</ele>
        <time>2018-07-22T09:22:58.000Z</time>
      </trkpt>
      <trkpt lat="42.285965" lon="-0.480525">
        <ele>1458.2</ele>
        <time>2018-07-22T09:22:59.000Z</time>
      </trkpt>
      <trkpt lat="42.285967" lon="-0.480522">
        <ele>1458.1</ele>
        <time>2018-07-22T09:23:00.000Z</time>
      </trkpt>
      <trkpt lat="42.28597" lon="-0.480519">
        <ele>1457.9</ele>
        <time>2018-07-22T09:23:01.000Z</time>
      </trkpt>
      <trkpt lat="42.285975" lon="-0.480514">
        <ele>1457.7</ele>
        <time>2018-07-22T09:23:02.000Z</time>
      </trkpt>
      <trkpt lat="42.285978" lon="-0.480508">
        <ele>1457.6</ele>
        <time>2018-07-22T09:23:03.000Z</time>
      </trkpt>
      <trkpt lat="42.285984" lon="-0.480503">
        <ele>1457.3</ele>
        <time>2018-07-22T09:23:04.000Z</time>
      </trkpt>
      <trkpt lat="42.285988" lon="-0.4805">
        <ele>1457.1</ele>
        <time>2018-07-22T09:23:05.000Z</time>
      </trkpt>
      <trkpt lat="42.285991" lon="-0.480498">
        <ele>1457.0</ele>
        <time>2018-07-22T09:23:06.000Z</time>
      </trkpt>
      <trkpt lat="42.285992" lon="-0.480496">
        <ele>1456.9</ele>
        <time>2018-07-22T09:23:07.000Z</time>
      </trkpt>
      <trkpt lat="42.285993" lon="-0.480495">
        <ele>1456.9</ele>
        <time>2018-07-22T09:23:08.000Z</time>
      </trkpt>
      <trkpt lat="42.285994" lon="-0.480494">
        <ele>1456.8</ele>
        <time>2018-07-22T09:23:09.000Z</time>
      </trkpt>
      <trkpt lat="42.285996" lon="-0.480493">
        <ele>1456.7</ele>
        <time>2018-07-22T09:23:10.000Z</time>
      </trkpt>
      <trkpt lat="42.285997" lon="-0.480492">
        <ele>1456.7</ele>
        <time>2018-07-22T09:23:11.000Z</time>
      </trkpt>
      <trkpt lat="42.285999" lon="-0.480491">
        <ele>1456.6</ele>
        <time>2018-07-22T09:23:12.000Z</time>
      </trkpt>
      <trkpt lat="42.286001" lon="-0.480489">
        <ele>1456.5</ele>
        <time>2018-07-22T09:23:13.000Z</time>
      </trkpt>
      <trkpt lat="42.286003" lon="-0.480488">
        <ele>1456.4</ele>
        <time>2018-07-22T09:23:14.000Z</time>
      </trkpt>
      <trkpt lat="42.286004" lon="-0.480488">
        <ele>1456.4</ele>
        <time>2018-07-22T09:23:15.000Z</time>
      </trkpt>
      <trkpt lat="42.286007" lon="-0.480489">
        <ele>1456.2</ele>
        <time>2018-07-22T09:23:16.000Z</time>
      </trkpt>
      <trkpt lat="42.286013" lon="-0.480497">
        <ele>1455.9</ele>
        <time>2018-07-22T09:23:17.000Z</time>
      </trkpt>
      <trkpt lat="42.286023" lon="-0.480513">
        <ele>1455.3</ele>
        <time>2018-07-22T09:23:18.000Z</time>
      </trkpt>
      <trkpt lat="42.28603" lon="-0.48052">
        <ele>1455.0</ele>
        <time>2018-07-22T09:23:19.000Z</time>
      </trkpt>
      <trkpt lat="42.286034" lon="-0.480519">
        <ele>1454.8</ele>
        <time>2018-07-22T09:23:20.000Z</time>
      </trkpt>
      <trkpt lat="42.286038" lon="-0.48052">
        <ele>1454.6</ele>
        <time>2018-07-22T09:23:21.000Z</time>
      </trkpt>
      <trkpt lat="42.286044" lon="-0.480526">
        <ele>1454.2</ele>
        <time>2018-07-22T09:23:22.000Z</time>
      </trkpt>
      <trkpt lat="42.286052" lon="-0.480534">
        <ele>1453.8</ele>
        <time>2018-07-22T09:23:23.000Z</time>
      </trkpt>
      <trkpt lat="42.286059" lon="-0.480541">
        <ele>1453.4</ele>
        <time>2018-07-22T09:23:24.000Z</time>
      </trkpt>
      <trkpt lat="42.286066" lon="-0.480545">
        <ele>1453.1</ele>
        <time>2018-07-22T09:23:25.000Z</time>
      </trkpt>
      <trkpt lat="42.286072" lon="-0.480549">
        <ele>1452.8</ele>
        <time>2018-07-22T09:23:26.000Z</time>
      </trkpt>
      <trkpt lat="42.286077" lon="-0.480553">
        <ele>1452.5</ele>
        <time>2018-07-22T09:23:27.000Z</time>
      </trkpt>
      <trkpt lat="42.286081" lon="-0.480556">
        <ele>1452.3</ele>
        <time>2018-07-22T09:23:28.000Z</time>
      </trkpt>
      <trkpt lat="42.286085" lon="-0.480558">
        <ele>1452.1</ele>
        <time>2018-07-22T09:23:29.000Z</time>
      </trkpt>
      <trkpt lat="42.28609" lon="-0.480557">
        <ele>1451.8</ele>
        <time>2018-07-22T09:23:30.000Z</time>
      </trkpt>
      <trkpt lat="42.286096" lon="-0.480554">
        <ele>1451.5</ele>
        <time>2018-07-22T09:23:31.000Z</time>
      </trkpt>
      <trkpt lat="42.286101" lon="-0.480549">
        <ele>1451.3</ele>
        <time>2018-07-22T09:23:32.000Z</time>
      </trkpt>
      <trkpt lat="42.286106" lon="-0.480544">
        <ele>1451.1</ele>
        <time>2018-07-22T09:23:33.000Z</time>
      </trkpt>
      <trkpt lat="42.28611" lon="-0.480539">
        <ele>1450.9</ele>
        <time>2018-07-22T09:23:34.000Z</time>
      </trkpt>
      <trkpt lat="42.286113" lon="-0.480534">
        <ele>1450.8</ele>
        <time>2018-07-22T09:23:35.000Z</time>
      </trkpt>
      <trkpt lat="42.286114" lon="-0.48053">
        <ele>1450.7</ele>
        <time>2018-07-22T09:23:36.000Z</time>
      </trkpt>
      <trkpt lat="42.286115" lon="-0.480527">
        <ele>1450.7</ele>
        <time>2018-07-22T09:23:37.000Z</time>
      </trkpt>
      <trkpt lat="42.286116" lon="-0.480524">
        <ele>1450.7</ele>
        <time>2018-07-22T09:23:38.000Z</time>
      </trkpt>
      <trkpt lat="42.286116" lon="-0.480521">
        <ele>1450.7</ele>
        <time>2018-07-22T09:23:39.000Z</time>
      </trkpt>
      <trkpt lat="42.286118" lon="-0.480518">
        <ele>1450.6</ele>
        <time>2018-07-22T09:23:40.000Z</time>
      </trkpt>
      <trkpt lat="42.28612" lon="-0.480515">
        <ele>1450.5</ele>
        <time>2018-07-22T09:23:41.000Z</time>
      </trkpt>
      <trkpt lat="42.286121" lon="-0.480512">
        <ele>1450.5</ele>
        <time>2018-07-22T09:23:42.000Z</time>
      </trkpt>
      <trkpt lat="42.286122" lon="-0.480508">
        <ele>1450.4</ele>
        <time>2018-07-22T09:23:43.000Z</time>
      </trkpt>
      <trkpt lat="42.286126" lon="-0.480504">
        <ele>1450.2</ele>
        <time>2018-07-22T09:23:44.000Z</time>
      </trkpt>
      <trkpt lat="42.286132" lon="-0.480499">
        <ele>1450.0</ele>
        <time>2018-07-22T09:23:45.000Z</time>
      </trkpt>
      <trkpt lat="42.286136" lon="-0.480494">
        <ele>1449.8</ele>
        <time>2018-07-22T09:23:46.000Z</time>
      </trkpt>
      <trkpt lat="42.28614" lon="-0.480489">
        <ele>1449.6</ele>
        <time>2018-07-22T09:23:47.000Z</time>
      </trkpt>
      <trkpt lat="42.286146" lon="-0.480487">
        <ele>1449.3</ele>
        <time>2018-07-22T09:23:48.000Z</time>
      </trkpt>
      <trkpt lat="42.28615" lon="-0.480486">
        <ele>1449.1</ele>
        <time>2018-07-22T09:23:49.000Z</time>
      </trkpt>
      <trkpt lat="42.286154" lon="-0.480484">
        <ele>1448.9</ele>
        <time>2018-07-22T09:23:50.000Z</time>
      </trkpt>
      <trkpt lat="42.286156" lon="-0.480483">
        <ele>1448.8</ele>
        <time>2018-07-22T09:23:51.000Z</time>
      </trkpt>
      <trkpt lat="42.286158" lon="-0.480482">
        <ele>1448.7</ele>
        <time>2018-07-22T09:23:52.000Z</time>
      </trkpt>
      <trkpt lat="42.286162" lon="-0.48048">
        <ele>1448.6</ele>
        <time>2018-07-22T09:23:53.000Z</time>
      </trkpt>
      <trkpt lat="42.286169" lon="-0.480475">
        <ele>1448.2</ele>
        <time>2018-07-22T09:23:54.000Z</time>
      </trkpt>
      <trkpt lat="42.286174" lon="-0.480471">
        <ele>1448.0</ele>
        <time>2018-07-22T09:23:55.000Z</time>
      </trkpt>
      <trkpt lat="42.286178" lon="-0.480468">
        <ele>1447.8</ele>
        <time>2018-07-22T09:23:56.000Z</time>
      </trkpt>
      <trkpt lat="42.28618" lon="-0.480466">
        <ele>1447.7</ele>
        <time>2018-07-22T09:23:57.000Z</time>
      </trkpt>
      <trkpt lat="42.286183" lon="-0.480464">
        <ele>1447.6</ele>
        <time>2018-07-22T09:23:58.000Z</time>
      </trkpt>
      <trkpt lat="42.286185" lon="-0.480463">
        <ele>1447.5</ele>
        <time>2018-07-22T09:23:59.000Z</time>
      </trkpt>
      <trkpt lat="42.286187" lon="-0.480461">
        <ele>1447.4</ele>
        <time>2018-07-22T09:24:00.000Z</time>
      </trkpt>
      <trkpt lat="42.286189" lon="-0.480459">
        <ele>1447.3</ele>
        <time>2018-07-22T09:24:01.000Z</time>
      </trkpt>
      <trkpt lat="42.286192" lon="-0.480457">
        <ele>1447.2</ele>
        <time>2018-07-22T09:24:02.000Z</time>
      </trkpt>
      <trkpt lat="42.286195" lon="-0.480454">
        <ele>1447.0</ele>
        <time>2018-07-22T09:24:03.000Z</time>
      </trkpt>
      <trkpt lat="42.286201" lon="-0.480453">
        <ele>1446.7</ele>
        <time>2018-07-22T09:24:04.000Z</time>
      </trkpt>
      <trkpt lat="42.286211" lon="-0.480455">
        <ele>1446.2</ele>
        <time>2018-07-22T09:24:05.000Z</time>
      </trkpt>
      <trkpt lat="42.286219" lon="-0.480456">
        <ele>1445.8</ele>
        <time>2018-07-22T09:24:06.000Z</time>
      </trkpt>
      <trkpt lat="42.286226" lon="-0.480455">
        <ele>1445.5</ele>
        <time>2018-07-22T09:24:07.000Z</time>
      </trkpt>
      <trkpt lat="42.286231" lon="-0.480454">
        <ele>1445.3</ele>
        <time>2018-07-22T09:24:08.000Z</time>
      </trkpt>
      <trkpt lat="42.286235" lon="-0.480452">
        <ele>1445.1</ele>
        <time>2018-07-22T09:24:09.000Z</time>
      </trkpt>
      <trkpt lat="42.286238" lon="-0.48045">
        <ele>1444.9</ele>
        <time>2018-07-22T09:24:10.000Z</time>
      </trkpt>
      <trkpt lat="42.28624" lon="-0.480448">
        <ele>1444.8</ele>
        <time>2018-07-22T09:24:11.000Z</time>
      </trkpt>
      <trkpt lat="42.286243" lon="-0.480447">
        <ele>1444.7</ele>
        <time>2018-07-22T09:24:12.000Z</time>
      </trkpt>
      <trkpt lat="42.286244" lon="-0.480446">
        <ele>1444.7</ele>
        <time>2018-07-22T09:24:13.000Z</time>
      </trkpt>
      <trkpt lat="42.286247" lon="-0.480445">
        <ele>1444.5</ele>
        <time>2018-07-22T09:24:14.000Z</time>
      </trkpt>
      <trkpt lat="42.286249" lon="-0.480444">
        <ele>1444.4</ele>
        <time>2018-07-22T09:24:15.000Z</time>
      </trkpt>
      <trkpt lat="42.286253" lon="-0.480441">
        <ele>1444.2</ele>
        <time>2018-07-22T09:24:16.000Z</time>
      </trkpt>
      <trkpt lat="42.286257" lon="-0.480437">
        <ele>1444.1</ele>
        <time>2018-07-22T09:24:17.000Z</time>
      </trkpt>
      <trkpt lat="42.286262" lon="-0.480433">
        <ele>1443.8</ele>
        <time>2018-07-22T09:24:18.000Z</time>
      </trkpt>
      <trkpt lat="42.286266" lon="-0.480428">
        <ele>1443.7</ele>
        <time>2018-07-22T09:24:19.000Z</time>
      </trkpt>
      <trkpt lat="42.28627" lon="-0.480421">
        <ele>1443.5</ele>
        <time>2018-07-22T09:24:20.000Z</time>
      </trkpt>
      <trkpt lat="42.286272" lon="-0.480416">
        <ele>1443.4</ele>
        <time>2018-07-22T09:24:21.000Z</time>
      </trkpt>
      <trkpt lat="42.286274" lon="-0.480414">
        <ele>1443.3</ele>
        <time>2018-07-22T09:24:22.000Z</time>
      </trkpt>
      <trkpt lat="42.286275" lon="-0.480412">
        <ele>1443.3</ele>
        <time>2018-07-22T09:24:23.000Z</time>
      </trkpt>
      <trkpt lat="42.286276" lon="-0.48041">
        <ele>1443.3</ele>
        <time>2018-07-22T09:24:24.000Z</time>
      </trkpt>
      <trkpt lat="42.286278" lon="-0.480407">
        <ele>1443.2</ele>
        <time>2018-07-22T09:24:25.000Z</time>
      </trkpt>
      <trkpt lat="42.28628" lon="-0.480404">
        <ele>1443.1</ele>
        <time>2018-07-22T09:24:26.000Z</time>
      </trkpt>
      <trkpt lat="42.286282" lon="-0.480401">
        <ele>1443.0</ele>
        <time>2018-07-22T09:24:27.000Z</time>
      </trkpt>
      <trkpt lat="42.286284" lon="-0.480399">
        <ele>1442.9</ele>
        <time>2018-07-22T09:24:28.000Z</time>
      </trkpt>
      <trkpt lat="42.286285" lon="-0.480397">
        <ele>1442.9</ele>
        <time>2018-07-22T09:24:29.000Z</time>
      </trkpt>
      <trkpt lat="42.286288" lon="-0.480395">
        <ele>1442.7</ele>
        <time>2018-07-22T09:24:30.000Z</time>
      </trkpt>
      <trkpt lat="42.286292" lon="-0.480391">
        <ele>1442.6</ele>
        <time>2018-07-22T09:24:31.000Z</time>
      </trkpt>
      <trkpt lat="42.286297" lon="-0.480387">
        <ele>1442.3</ele>
        <time>2018-07-22T09:24:32.000Z</time>
      </trkpt>
      <trkpt lat="42.286302" lon="-0.480383">
        <ele>1442.1</ele>
        <time>2018-07-22T09:24:33.000Z</time>
      </trkpt>
      <trkpt lat="42.286307" lon="-0.480381">
        <ele>1441.9</ele>
        <time>2018-07-22T09:24:34.000Z</time>
      </trkpt>
      <trkpt lat="42.286313" lon="-0.480381">
        <ele>1441.6</ele>
        <time>2018-07-22T09:24:35.000Z</time>
      </trkpt>
      <trkpt lat="42.286318" lon="-0.480383">
        <ele>1441.3</ele>
        <time>2018-07-22T09:24:36.000Z</time>
      </trkpt>
      <trkpt lat="42.286324" lon="-0.480387">
        <ele>1441.0</ele>
        <time>2018-07-22T09:24:37.000Z</time>
      </trkpt>
      <trkpt lat="42.286329" lon="-0.480391">
        <ele>1440.7</ele>
        <time>2018-07-22T09:24:38.000Z</time>
      </trkpt>
      <trkpt lat="42.286334" lon="-0.480393">
        <ele>1440.5</ele>
        <time>2018-07-22T09:24:39.000Z</time>
      </trkpt>
      <trkpt lat="42.28634" lon="-0.480393">
        <ele>1440.2</ele>
        <time>2018-07-22T09:24:40.000Z</time>
      </trkpt>
      <trkpt lat="42.286346" lon="-0.480392">
        <ele>1439.9</ele>
        <time>2018-07-22T09:24:41.000Z</time>
      </trkpt>
      <trkpt lat="42.286352" lon="-0.480389">
        <ele>1439.6</ele>
        <time>2018-07-22T09:24:42.000Z</time>
      </trkpt>
      <trkpt lat="42.286359" lon="-0.480386">
        <ele>1439.3</ele>
        <time>2018-07-22T09:24:43.000Z</time>
      </trkpt>
      <trkpt lat="42.286365" lon="-0.480382">
        <ele>1439.0</ele>
        <time>2018-07-22T09:24:44.000Z</time>
      </trkpt>
      <trkpt lat="42.286371" lon="-0.480379">
        <ele>1438.8</ele>
        <time>2018-07-22T09:24:45.000Z</time>
      </trkpt>
      <trkpt lat="42.286377" lon="-0.480377">
        <ele>1438.5</ele>
        <time>2018-07-22T09:24:46.000Z</time>
      </trkpt>
      <trkpt lat="42.286382" lon="-0.480376">
        <ele>1438.2</ele>
        <time>2018-07-22T09:24:47.000Z</time>
      </trkpt>
      <trkpt lat="42.286388" lon="-0.480377">
        <ele>1437.9</ele>
        <time>2018-07-22T09:24:48.000Z</time>
      </trkpt>
      <trkpt lat="42.286394" lon="-0.480378">
        <ele>1437.6</ele>
        <time>2018-07-22T09:24:49.000Z</time>
      </trkpt>
      <trkpt lat="42.2864" lon="-0.48038">
        <ele>1437.3</ele>
        <time>2018-07-22T09:24:50.000Z</time>
      </trkpt>
      <trkpt lat="42.286406" lon="-0.480382">
        <ele>1437.0</ele>
        <time>2018-07-22T09:24:51.000Z</time>
      </trkpt>
      <trkpt lat="42.286412" lon="-0.480385">
        <ele>1436.7</ele>
        <time>2018-07-22T09:24:52.000Z</time>
      </trkpt>
      <trkpt lat="42.286418" lon="-0.480388">
        <ele>1436.4</ele>
        <time>2018-07-22T09:24:53.000Z</time>
      </trkpt>
      <trkpt lat="42.286423" lon="-0.480391">
        <ele>1436.1</ele>
        <time>2018-07-22T09:24:54.000Z</time>
      </trkpt>
      <trkpt lat="42.286428" lon="-0.480394">
        <ele>1435.9</ele>
        <time>2018-07-22T09:24:55.000Z</time>
      </trkpt>
      <trkpt lat="42.286432" lon="-0.480396">
        <ele>1435.7</ele>
        <time>2018-07-22T09:24:56.000Z</time>
      </trkpt>
      <trkpt lat="42.286435" lon="-0.480397">
        <ele>1435.5</ele>
        <time>2018-07-22T09:24:57.000Z</time>
      </trkpt>
      <trkpt lat="42.286437" lon="-0.480398">
        <ele>1435.4</ele>
        <time>2018-07-22T09:24:58.000Z</time>
      </trkpt>
      <trkpt lat="42.286439" lon="-0.4804">
        <ele>1435.3</ele>
        <time>2018-07-22T09:24:59.000Z</time>
      </trkpt>
      <trkpt lat="42.286441" lon="-0.480402">
        <ele>1435.2</ele>
        <time>2018-07-22T09:25:00.000Z</time>
      </trkpt>
      <trkpt lat="42.286445" lon="-0.480406">
        <ele>1435.0</ele>
        <time>2018-07-22T09:25:01.000Z</time>
      </trkpt>
      <trkpt lat="42.286449" lon="-0.480411">
        <ele>1434.7</ele>
        <time>2018-07-22T09:25:02.000Z</time>
      </trkpt>
      <trkpt lat="42.286451" lon="-0.480412">
        <ele>1434.6</ele>
        <time>2018-07-22T09:25:03.000Z</time>
      </trkpt>
      <trkpt lat="42.286458" lon="-0.480418">
        <ele>1434.3</ele>
        <time>2018-07-22T09:25:04.000Z</time>
      </trkpt>
      <trkpt lat="42.286466" lon="-0.480419">
        <ele>1433.9</ele>
        <time>2018-07-22T09:25:05.000Z</time>
      </trkpt>
      <trkpt lat="42.286474" lon="-0.480414">
        <ele>1433.5</ele>
        <time>2018-07-22T09:25:06.000Z</time>
      </trkpt>
      <trkpt lat="42.28648" lon="-0.480403">
        <ele>1433.3</ele>
        <time>2018-07-22T09:25:07.000Z</time>
      </trkpt>
      <trkpt lat="42.286483" lon="-0.480392">
        <ele>1433.2</ele>
        <time>2018-07-22T09:25:08.000Z</time>
      </trkpt>
      <trkpt lat="42.286484" lon="-0.480383">
        <ele>1433.2</ele>
        <time>2018-07-22T09:25:09.000Z</time>
      </trkpt>
      <trkpt lat="42.286487" lon="-0.480377">
        <ele>1433.1</ele>
        <time>2018-07-22T09:25:10.000Z</time>
      </trkpt>
      <trkpt lat="42.286494" lon="-0.480375">
        <ele>1432.8</ele>
        <time>2018-07-22T09:25:11.000Z</time>
      </trkpt>
      <trkpt lat="42.286503" lon="-0.480374">
        <ele>1432.3</ele>
        <time>2018-07-22T09:25:12.000Z</time>
      </trkpt>
      <trkpt lat="42.286511" lon="-0.480372">
        <ele>1431.9</ele>
        <time>2018-07-22T09:25:13.000Z</time>
      </trkpt>
      <trkpt lat="42.286518" lon="-0.480368">
        <ele>1431.6</ele>
        <time>2018-07-22T09:25:14.000Z</time>
      </trkpt>
      <trkpt lat="42.286524" lon="-0.480363">
        <ele>1431.4</ele>
        <time>2018-07-22T09:25:15.000Z</time>
      </trkpt>
      <trkpt lat="42.286529" lon="-0.480356">
        <ele>1431.2</ele>
        <time>2018-07-22T09:25:16.000Z</time>
      </trkpt>
      <trkpt lat="42.286533" lon="-0.480348">
        <ele>1431.0</ele>
        <time>2018-07-22T09:25:17.000Z</time>
      </trkpt>
      <trkpt lat="42.286537" lon="-0.480339">
        <ele>1430.9</ele>
        <time>2018-07-22T09:25:18.000Z</time>
      </trkpt>
      <trkpt lat="42.286541" lon="-0.480329">
        <ele>1430.8</ele>
        <time>2018-07-22T09:25:19.000Z</time>
      </trkpt>
      <trkpt lat="42.286544" lon="-0.480321">
        <ele>1430.7</ele>
        <time>2018-07-22T09:25:20.000Z</time>
      </trkpt>
      <trkpt lat="42.286548" lon="-0.480313">
        <ele>1430.5</ele>
        <time>2018-07-22T09:25:21.000Z</time>
      </trkpt>
      <trkpt lat="42.286554" lon="-0.480309">
        <ele>1430.2</ele>
        <time>2018-07-22T09:25:22.000Z</time>
      </trkpt>
      <trkpt lat="42.286561" lon="-0.480308">
        <ele>1429.9</ele>
        <time>2018-07-22T09:25:23.000Z</time>
      </trkpt>
      <trkpt lat="42.28657" lon="-0.480312">
        <ele>1429.5</ele>
        <time>2018-07-22T09:25:24.000Z</time>
      </trkpt>
      <trkpt lat="42.286579" lon="-0.480317">
        <ele>1429.0</ele>
        <time>2018-07-22T09:25:25.000Z</time>
      </trkpt>
      <trkpt lat="42.286588" lon="-0.480322">
        <ele>1428.5</ele>
        <time>2018-07-22T09:25:26.000Z</time>
      </trkpt>
      <trkpt lat="42.286594" lon="-0.480324">
        <ele>1428.2</ele>
        <time>2018-07-22T09:25:27.000Z</time>
      </trkpt>
      <trkpt lat="42.286599" lon="-0.480323">
        <ele>1428.0</ele>
        <time>2018-07-22T09:25:28.000Z</time>
      </trkpt>
      <trkpt lat="42.286603" lon="-0.480321">
        <ele>1427.8</ele>
        <time>2018-07-22T09:25:29.000Z</time>
      </trkpt>
      <trkpt lat="42.286606" lon="-0.48032">
        <ele>1427.6</ele>
        <time>2018-07-22T09:25:30.000Z</time>
      </trkpt>
      <trkpt lat="42.286609" lon="-0.480319">
        <ele>1427.5</ele>
        <time>2018-07-22T09:25:31.000Z</time>
      </trkpt>
      <trkpt lat="42.286611" lon="-0.480319">
        <ele>1427.4</ele>
        <time>2018-07-22T09:25:32.000Z</time>
      </trkpt>
      <trkpt lat="42.286613" lon="-0.480318">
        <ele>1427.3</ele>
        <time>2018-07-22T09:25:33.000Z</time>
      </trkpt>
      <trkpt lat="42.286616" lon="-0.480317">
        <ele>1427.2</ele>
        <time>2018-07-22T09:25:34.000Z</time>
      </trkpt>
      <trkpt lat="42.286619" lon="-0.480316">
        <ele>1427.0</ele>
        <time>2018-07-22T09:25:35.000Z</time>
      </trkpt>
      <trkpt lat="42.286624" lon="-0.480317">
        <ele>1426.8</ele>
        <time>2018-07-22T09:25:36.000Z</time>
      </trkpt>
      <trkpt lat="42.286631" lon="-0.480321">
        <ele>1426.4</ele>
        <time>2018-07-22T09:25:37.000Z</time>
      </trkpt>
      <trkpt lat="42.28664" lon="-0.48032">
        <ele>1426.0</ele>
        <time>2018-07-22T09:25:38.000Z</time>
      </trkpt>
      <trkpt lat="42.286648" lon="-0.480314">
        <ele>1425.6</ele>
        <time>2018-07-22T09:25:39.000Z</time>
      </trkpt>
      <trkpt lat="42.286654" lon="-0.480307">
        <ele>1425.4</ele>
        <time>2018-07-22T09:25:40.000Z</time>
      </trkpt>
      <trkpt lat="42.28666" lon="-0.480301">
        <ele>1425.2</ele>
        <time>2018-07-22T09:25:41.000Z</time>
      </trkpt>
      <trkpt lat="42.286667" lon="-0.480299">
        <ele>1424.8</ele>
        <time>2018-07-22T09:25:42.000Z</time>
      </trkpt>
      <trkpt lat="42.286676" lon="-0.480302">
        <ele>1424.6</ele>
        <time>2018-07-22T09:25:43.000Z</time>
      </trkpt>
      <trkpt lat="42.286687" lon="-0.480307">
        <ele>1424.3</ele>
        <time>2018-07-22T09:25:44.000Z</time>
      </trkpt>
      <trkpt lat="42.286699" lon="-0.48031">
        <ele>1424.0</ele>
        <time>2018-07-22T09:25:45.000Z</time>
      </trkpt>
      <trkpt lat="42.286712" lon="-0.48031">
        <ele>1423.7</ele>
        <time>2018-07-22T09:25:46.000Z</time>
      </trkpt>
      <trkpt lat="42.286724" lon="-0.480306">
        <ele>1423.4</ele>
        <time>2018-07-22T09:25:47.000Z</time>
      </trkpt>
      <trkpt lat="42.286736" lon="-0.4803">
        <ele>1423.2</ele>
        <time>2018-07-22T09:25:48.000Z</time>
      </trkpt>
      <trkpt lat="42.286747" lon="-0.480291">
        <ele>1423.0</ele>
        <time>2018-07-22T09:25:49.000Z</time>
      </trkpt>
      <trkpt lat="42.286756" lon="-0.480279">
        <ele>1422.8</ele>
        <time>2018-07-22T09:25:50.000Z</time>
      </trkpt>
      <trkpt lat="42.286763" lon="-0.480264">
        <ele>1422.8</ele>
        <time>2018-07-22T09:25:51.000Z</time>
      </trkpt>
      <trkpt lat="42.286769" lon="-0.480248">
        <ele>1422.8</ele>
        <time>2018-07-22T09:25:52.000Z</time>
      </trkpt>
      <trkpt lat="42.286774" lon="-0.480233">
        <ele>1422.8</ele>
        <time>2018-07-22T09:25:53.000Z</time>
      </trkpt>
      <trkpt lat="42.286779" lon="-0.480222">
        <ele>1422.7</ele>
        <time>2018-07-22T09:25:54.000Z</time>
      </trkpt>
      <trkpt lat="42.286785" lon="-0.480215">
        <ele>1422.6</ele>
        <time>2018-07-22T09:25:55.000Z</time>
      </trkpt>
      <trkpt lat="42.286792" lon="-0.480213">
        <ele>1422.5</ele>
        <time>2018-07-22T09:25:56.000Z</time>
      </trkpt>
      <trkpt lat="42.286801" lon="-0.480215">
        <ele>1422.3</ele>
        <time>2018-07-22T09:25:57.000Z</time>
      </trkpt>
      <trkpt lat="42.286811" lon="-0.480218">
        <ele>1422.0</ele>
        <time>2018-07-22T09:25:58.000Z</time>
      </trkpt>
      <trkpt lat="42.28682" lon="-0.480218">
        <ele>1421.8</ele>
        <time>2018-07-22T09:25:59.000Z</time>
      </trkpt>
      <trkpt lat="42.286829" lon="-0.480216">
        <ele>1421.6</ele>
        <time>2018-07-22T09:26:00.000Z</time>
      </trkpt>
      <trkpt lat="42.286838" lon="-0.480213">
        <ele>1421.4</ele>
        <time>2018-07-22T09:26:01.000Z</time>
      </trkpt>
      <trkpt lat="42.286846" lon="-0.480209">
        <ele>1421.2</ele>
        <time>2018-07-22T09:26:02.000Z</time>
      </trkpt>
      <trkpt lat="42.286855" lon="-0.480204">
        <ele>1421.1</ele>
        <time>2018-07-22T09:26:03.000Z</time>
      </trkpt>
      <trkpt lat="42.286862" lon="-0.4802">
        <ele>1420.9</ele>
        <time>2018-07-22T09:26:04.000Z</time>
      </trkpt>
      <trkpt lat="42.286869" lon="-0.480196">
        <ele>1420.8</ele>
        <time>2018-07-22T09:26:05.000Z</time>
      </trkpt>
      <trkpt lat="42.286875" lon="-0.480193">
        <ele>1420.7</ele>
        <time>2018-07-22T09:26:06.000Z</time>
      </trkpt>
      <trkpt lat="42.286879" lon="-0.480191">
        <ele>1420.6</ele>
        <time>2018-07-22T09:26:07.000Z</time>
      </trkpt>
      <trkpt lat="42.286883" lon="-0.480189">
        <ele>1420.5</ele>
        <time>2018-07-22T09:26:08.000Z</time>
      </trkpt>
      <trkpt lat="42.286886" lon="-0.480188">
        <ele>1420.5</ele>
        <time>2018-07-22T09:26:09.000Z</time>
      </trkpt>
      <trkpt lat="42.286888" lon="-0.480188">
        <ele>1420.4</ele>
        <time>2018-07-22T09:26:10.000Z</time>
      </trkpt>
      <trkpt lat="42.286891" lon="-0.480187">
        <ele>1420.4</ele>
        <time>2018-07-22T09:26:11.000Z</time>
      </trkpt>
      <trkpt lat="42.286894" lon="-0.480186">
        <ele>1420.3</ele>
        <time>2018-07-22T09:26:12.000Z</time>
      </trkpt>
      <trkpt lat="42.286898" lon="-0.480184">
        <ele>1420.2</ele>
        <time>2018-07-22T09:26:13.000Z</time>
      </trkpt>
      <trkpt lat="42.286901" lon="-0.480183">
        <ele>1420.2</ele>
        <time>2018-07-22T09:26:14.000Z</time>
      </trkpt>
      <trkpt lat="42.286908" lon="-0.480181">
        <ele>1420.0</ele>
        <time>2018-07-22T09:26:15.000Z</time>
      </trkpt>
      <trkpt lat="42.286916" lon="-0.480179">
        <ele>1419.8</ele>
        <time>2018-07-22T09:26:16.000Z</time>
      </trkpt>
      <trkpt lat="42.286926" lon="-0.480173">
        <ele>1419.6</ele>
        <time>2018-07-22T09:26:17.000Z</time>
      </trkpt>
      <trkpt lat="42.286933" lon="-0.480164">
        <ele>1419.6</ele>
        <time>2018-07-22T09:26:18.000Z</time>
      </trkpt>
      <trkpt lat="42.286938" lon="-0.480153">
        <ele>1419.5</ele>
        <time>2018-07-22T09:26:19.000Z</time>
      </trkpt>
      <trkpt lat="42.286942" lon="-0.480141">
        <ele>1419.5</ele>
        <time>2018-07-22T09:26:20.000Z</time>
      </trkpt>
      <trkpt lat="42.286946" lon="-0.480129">
        <ele>1419.5</ele>
        <time>2018-07-22T09:26:21.000Z</time>
      </trkpt>
      <trkpt lat="42.28695" lon="-0.480119">
        <ele>1419.5</ele>
        <time>2018-07-22T09:26:22.000Z</time>
      </trkpt>
      <trkpt lat="42.286954" lon="-0.480112">
        <ele>1419.5</ele>
        <time>2018-07-22T09:26:23.000Z</time>
      </trkpt>
      <trkpt lat="42.286959" lon="-0.480107">
        <ele>1419.4</ele>
        <time>2018-07-22T09:26:24.000Z</time>
      </trkpt>
      <trkpt lat="42.286965" lon="-0.480104">
        <ele>1419.3</ele>
        <time>2018-07-22T09:26:25.000Z</time>
      </trkpt>
      <trkpt lat="42.286971" lon="-0.480103">
        <ele>1419.2</ele>
        <time>2018-07-22T09:26:26.000Z</time>
      </trkpt>
      <trkpt lat="42.286977" lon="-0.480104">
        <ele>1419.0</ele>
        <time>2018-07-22T09:26:27.000Z</time>
      </trkpt>
      <trkpt lat="42.286983" lon="-0.480107">
        <ele>1418.9</ele>
        <time>2018-07-22T09:26:28.000Z</time>
      </trkpt>
      <trkpt lat="42.286988" lon="-0.480111">
        <ele>1418.7</ele>
        <time>2018-07-22T09:26:29.000Z</time>
      </trkpt>
      <trkpt lat="42.286993" lon="-0.480116">
        <ele>1418.6</ele>
        <time>2018-07-22T09:26:30.000Z</time>
      </trkpt>
      <trkpt lat="42.286997" lon="-0.48012">
        <ele>1418.4</ele>
        <time>2018-07-22T09:26:31.000Z</time>
      </trkpt>
      <trkpt lat="42.286999" lon="-0.480124">
        <ele>1418.4</ele>
        <time>2018-07-22T09:26:32.000Z</time>
      </trkpt>
      <trkpt lat="42.287001" lon="-0.480127">
        <ele>1418.3</ele>
        <time>2018-07-22T09:26:33.000Z</time>
      </trkpt>
      <trkpt lat="42.287002" lon="-0.480128">
        <ele>1418.2</ele>
        <time>2018-07-22T09:26:34.000Z</time>
      </trkpt>
      <trkpt lat="42.287003" lon="-0.480128">
        <ele>1418.2</ele>
        <time>2018-07-22T09:26:35.000Z</time>
      </trkpt>
      <trkpt lat="42.287003" lon="-0.480128">
        <ele>1418.2</ele>
        <time>2018-07-22T09:26:36.000Z</time>
      </trkpt>
      <trkpt lat="42.287003" lon="-0.480128">
        <ele>1418.2</ele>
        <time>2018-07-22T09:26:37.000Z</time>
      </trkpt>
      <trkpt lat="42.287005" lon="-0.480128">
        <ele>1418.2</ele>
        <time>2018-07-22T09:26:38.000Z</time>
      </trkpt>
      <trkpt lat="42.287007" lon="-0.480129">
        <ele>1418.1</ele>
        <time>2018-07-22T09:26:39.000Z</time>
      </trkpt>
      <trkpt lat="42.28701" lon="-0.480131">
        <ele>1418.0</ele>
        <time>2018-07-22T09:26:40.000Z</time>
      </trkpt>
      <trkpt lat="42.287012" lon="-0.480134">
        <ele>1418.0</ele>
        <time>2018-07-22T09:26:41.000Z</time>
      </trkpt>
      <trkpt lat="42.287015" lon="-0.480136">
        <ele>1417.9</ele>
        <time>2018-07-22T09:26:42.000Z</time>
      </trkpt>
      <trkpt lat="42.287018" lon="-0.480138">
        <ele>1417.8</ele>
        <time>2018-07-22T09:26:43.000Z</time>
      </trkpt>
      <trkpt lat="42.28702" lon="-0.48014">
        <ele>1417.7</ele>
        <time>2018-07-22T09:26:44.000Z</time>
      </trkpt>
      <trkpt lat="42.287027" lon="-0.48014">
        <ele>1417.6</ele>
        <time>2018-07-22T09:26:45.000Z</time>
      </trkpt>
      <trkpt lat="42.287031" lon="-0.480141">
        <ele>1417.5</ele>
        <time>2018-07-22T09:26:46.000Z</time>
      </trkpt>
      <trkpt lat="42.287035" lon="-0.480139">
        <ele>1417.4</ele>
        <time>2018-07-22T09:26:47.000Z</time>
      </trkpt>
      <trkpt lat="42.287041" lon="-0.480134">
        <ele>1417.3</ele>
        <time>2018-07-22T09:26:48.000Z</time>
      </trkpt>
      <trkpt lat="42.287046" lon="-0.480127">
        <ele>1417.2</ele>
        <time>2018-07-22T09:26:49.000Z</time>
      </trkpt>
      <trkpt lat="42.287051" lon="-0.480121">
        <ele>1417.2</ele>
        <time>2018-07-22T09:26:50.000Z</time>
      </trkpt>
      <trkpt lat="42.287056" lon="-0.480116">
        <ele>1417.1</ele>
        <time>2018-07-22T09:26:51.000Z</time>
      </trkpt>
      <trkpt lat="42.287059" lon="-0.480112">
        <ele>1417.1</ele>
        <time>2018-07-22T09:26:52.000Z</time>
      </trkpt>
      <trkpt lat="42.287062" lon="-0.480108">
        <ele>1417.0</ele>
        <time>2018-07-22T09:26:53.000Z</time>
      </trkpt>
      <trkpt lat="42.287064" lon="-0.480105">
        <ele>1417.0</ele>
        <time>2018-07-22T09:26:54.000Z</time>
      </trkpt>
      <trkpt lat="42.287067" lon="-0.480103">
        <ele>1417.0</ele>
        <time>2018-07-22T09:26:55.000Z</time>
      </trkpt>
      <trkpt lat="42.287068" lon="-0.4801">
        <ele>1417.0</ele>
        <time>2018-07-22T09:26:56.000Z</time>
      </trkpt>
      <trkpt lat="42.28707" lon="-0.480098">
        <ele>1416.9</ele>
        <time>2018-07-22T09:26:57.000Z</time>
      </trkpt>
      <trkpt lat="42.287071" lon="-0.480096">
        <ele>1416.9</ele>
        <time>2018-07-22T09:26:58.000Z</time>
      </trkpt>
      <trkpt lat="42.287072" lon="-0.480094">
        <ele>1416.9</ele>
        <time>2018-07-22T09:26:59.000Z</time>
      </trkpt>
      <trkpt lat="42.287073" lon="-0.480092">
        <ele>1416.9</ele>
        <time>2018-07-22T09:27:00.000Z</time>
      </trkpt>
      <trkpt lat="42.287075" lon="-0.48009">
        <ele>1416.9</ele>
        <time>2018-07-22T09:27:01.000Z</time>
      </trkpt>
      <trkpt lat="42.287077" lon="-0.480087">
        <ele>1416.9</ele>
        <time>2018-07-22T09:27:02.000Z</time>
      </trkpt>
      <trkpt lat="42.287087" lon="-0.48008">
        <ele>1416.7</ele>
        <time>2018-07-22T09:27:03.000Z</time>
      </trkpt>
      <trkpt lat="42.287095" lon="-0.480071">
        <ele>1416.6</ele>
        <time>2018-07-22T09:27:04.000Z</time>
      </trkpt>
      <trkpt lat="42.287104" lon="-0.480068">
        <ele>1416.4</ele>
        <time>2018-07-22T09:27:05.000Z</time>
      </trkpt>
      <trkpt lat="42.287113" lon="-0.480065">
        <ele>1416.2</ele>
        <time>2018-07-22T09:27:06.000Z</time>
      </trkpt>
      <trkpt lat="42.28712" lon="-0.480061">
        <ele>1416.1</ele>
        <time>2018-07-22T09:27:07.000Z</time>
      </trkpt>
      <trkpt lat="42.287127" lon="-0.480057">
        <ele>1416.0</ele>
        <time>2018-07-22T09:27:08.000Z</time>
      </trkpt>
      <trkpt lat="42.287133" lon="-0.480053">
        <ele>1415.9</ele>
        <time>2018-07-22T09:27:09.000Z</time>
      </trkpt>
      <trkpt lat="42.287138" lon="-0.480049">
        <ele>1415.8</ele>
        <time>2018-07-22T09:27:10.000Z</time>
      </trkpt>
      <trkpt lat="42.287142" lon="-0.480045">
        <ele>1415.7</ele>
        <time>2018-07-22T09:27:11.000Z</time>
      </trkpt>
      <trkpt lat="42.287146" lon="-0.480042">
        <ele>1415.7</ele>
        <time>2018-07-22T09:27:12.000Z</time>
      </trkpt>
      <trkpt lat="42.287148" lon="-0.480039">
        <ele>1415.7</ele>
        <time>2018-07-22T09:27:13.000Z</time>
      </trkpt>
      <trkpt lat="42.28715" lon="-0.480037">
        <ele>1415.6</ele>
        <time>2018-07-22T09:27:14.000Z</time>
      </trkpt>
      <trkpt lat="42.287152" lon="-0.480035">
        <ele>1415.6</ele>
        <time>2018-07-22T09:27:15.000Z</time>
      </trkpt>
      <trkpt lat="42.287153" lon="-0.480033">
        <ele>1415.6</ele>
        <time>2018-07-22T09:27:16.000Z</time>
      </trkpt>
      <trkpt lat="42.287155" lon="-0.480032">
        <ele>1415.6</ele>
        <time>2018-07-22T09:27:17.000Z</time>
      </trkpt>
      <trkpt lat="42.287156" lon="-0.480031">
        <ele>1415.6</ele>
        <time>2018-07-22T09:27:18.000Z</time>
      </trkpt>
      <trkpt lat="42.287158" lon="-0.480031">
        <ele>1415.5</ele>
        <time>2018-07-22T09:27:19.000Z</time>
      </trkpt>
      <trkpt lat="42.287161" lon="-0.480031">
        <ele>1415.4</ele>
        <time>2018-07-22T09:27:20.000Z</time>
      </trkpt>
      <trkpt lat="42.287163" lon="-0.480031">
        <ele>1415.4</ele>
        <time>2018-07-22T09:27:21.000Z</time>
      </trkpt>
      <trkpt lat="42.287172" lon="-0.480037">
        <ele>1415.1</ele>
        <time>2018-07-22T09:27:22.000Z</time>
      </trkpt>
      <trkpt lat="42.287197" lon="-0.48006">
        <ele>1414.3</ele>
        <time>2018-07-22T09:27:23.000Z</time>
      </trkpt>
      <trkpt lat="42.28721" lon="-0.480068">
        <ele>1414.0</ele>
        <time>2018-07-22T09:27:24.000Z</time>
      </trkpt>
      <trkpt lat="42.287218" lon="-0.480072">
        <ele>1413.7</ele>
        <time>2018-07-22T09:27:25.000Z</time>
      </trkpt>
      <trkpt lat="42.287226" lon="-0.480076">
        <ele>1413.5</ele>
        <time>2018-07-22T09:27:26.000Z</time>
      </trkpt>
      <trkpt lat="42.287234" lon="-0.48008">
        <ele>1413.3</ele>
        <time>2018-07-22T09:27:27.000Z</time>
      </trkpt>
      <trkpt lat="42.287242" lon="-0.480083">
        <ele>1413.1</ele>
        <time>2018-07-22T09:27:28.000Z</time>
      </trkpt>
      <trkpt lat="42.28725" lon="-0.480086">
        <ele>1412.9</ele>
        <time>2018-07-22T09:27:29.000Z</time>
      </trkpt>
      <trkpt lat="42.287258" lon="-0.480088">
        <ele>1412.7</ele>
        <time>2018-07-22T09:27:30.000Z</time>
      </trkpt>
      <trkpt lat="42.287267" lon="-0.480091">
        <ele>1412.4</ele>
        <time>2018-07-22T09:27:31.000Z</time>
      </trkpt>
      <trkpt lat="42.287277" lon="-0.480094">
        <ele>1412.2</ele>
        <time>2018-07-22T09:27:32.000Z</time>
      </trkpt>
      <trkpt lat="42.287288" lon="-0.480098">
        <ele>1411.9</ele>
        <time>2018-07-22T09:27:33.000Z</time>
      </trkpt>
      <trkpt lat="42.2873" lon="-0.480101">
        <ele>1411.6</ele>
        <time>2018-07-22T09:27:34.000Z</time>
      </trkpt>
      <trkpt lat="42.287313" lon="-0.480104">
        <ele>1411.2</ele>
        <time>2018-07-22T09:27:35.000Z</time>
      </trkpt>
      <trkpt lat="42.287325" lon="-0.480106">
        <ele>1410.9</ele>
        <time>2018-07-22T09:27:36.000Z</time>
      </trkpt>
      <trkpt lat="42.287338" lon="-0.480106">
        <ele>1410.6</ele>
        <time>2018-07-22T09:27:37.000Z</time>
      </trkpt>
      <trkpt lat="42.28735" lon="-0.480103">
        <ele>1410.4</ele>
        <time>2018-07-22T09:27:38.000Z</time>
      </trkpt>
      <trkpt lat="42.287361" lon="-0.480098">
        <ele>1410.2</ele>
        <time>2018-07-22T09:27:39.000Z</time>
      </trkpt>
      <trkpt lat="42.287371" lon="-0.48009">
        <ele>1410.0</ele>
        <time>2018-07-22T09:27:40.000Z</time>
      </trkpt>
      <trkpt lat="42.287381" lon="-0.48008">
        <ele>1409.9</ele>
        <time>2018-07-22T09:27:41.000Z</time>
      </trkpt>
      <trkpt lat="42.28739" lon="-0.480068">
        <ele>1409.8</ele>
        <time>2018-07-22T09:27:42.000Z</time>
      </trkpt>
      <trkpt lat="42.287399" lon="-0.480055">
        <ele>1409.7</ele>
        <time>2018-07-22T09:27:43.000Z</time>
      </trkpt>
      <trkpt lat="42.287407" lon="-0.480041">
        <ele>1409.7</ele>
        <time>2018-07-22T09:27:44.000Z</time>
      </trkpt>
      <trkpt lat="42.287414" lon="-0.480027">
        <ele>1409.7</ele>
        <time>2018-07-22T09:27:45.000Z</time>
      </trkpt>
      <trkpt lat="42.287421" lon="-0.480012">
        <ele>1409.7</ele>
        <time>2018-07-22T09:27:46.000Z</time>
      </trkpt>
      <trkpt lat="42.287428" lon="-0.479996">
        <ele>1409.6</ele>
        <time>2018-07-22T09:27:47.000Z</time>
      </trkpt>
      <trkpt lat="42.287434" lon="-0.479981">
        <ele>1409.4</ele>
        <time>2018-07-22T09:27:48.000Z</time>
      </trkpt>
      <trkpt lat="42.28744" lon="-0.479965">
        <ele>1409.1</ele>
        <time>2018-07-22T09:27:49.000Z</time>
      </trkpt>
      <trkpt lat="42.287445" lon="-0.479949">
        <ele>1408.9</ele>
        <time>2018-07-22T09:27:50.000Z</time>
      </trkpt>
      <trkpt lat="42.28745" lon="-0.479932">
        <ele>1408.6</ele>
        <time>2018-07-22T09:27:51.000Z</time>
      </trkpt>
      <trkpt lat="42.287454" lon="-0.479916">
        <ele>1408.4</ele>
        <time>2018-07-22T09:27:52.000Z</time>
      </trkpt>
      <trkpt lat="42.287458" lon="-0.4799">
        <ele>1408.2</ele>
        <time>2018-07-22T09:27:53.000Z</time>
      </trkpt>
      <trkpt lat="42.287461" lon="-0.479883">
        <ele>1408.0</ele>
        <time>2018-07-22T09:27:54.000Z</time>
      </trkpt>
      <trkpt lat="42.287464" lon="-0.479866">
        <ele>1407.8</ele>
        <time>2018-07-22T09:27:55.000Z</time>
      </trkpt>
      <trkpt lat="42.287467" lon="-0.479849">
        <ele>1407.6</ele>
        <time>2018-07-22T09:27:56.000Z</time>
      </trkpt>
      <trkpt lat="42.287472" lon="-0.479832">
        <ele>1407.4</ele>
        <time>2018-07-22T09:27:57.000Z</time>
      </trkpt>
      <trkpt lat="42.287477" lon="-0.479815">
        <ele>1407.2</ele>
        <time>2018-07-22T09:27:58.000Z</time>
      </trkpt>
      <trkpt lat="42.287483" lon="-0.479797">
        <ele>1406.9</ele>
        <time>2018-07-22T09:27:59.000Z</time>
      </trkpt>
      <trkpt lat="42.287487" lon="-0.479779">
        <ele>1406.7</ele>
        <time>2018-07-22T09:28:00.000Z</time>
      </trkpt>
      <trkpt lat="42.287489" lon="-0.47976">
        <ele>1406.5</ele>
        <time>2018-07-22T09:28:01.000Z</time>
      </trkpt>
      <trkpt lat="42.287488" lon="-0.479741">
        <ele>1406.4</ele>
        <time>2018-07-22T09:28:02.000Z</time>
      </trkpt>
      <trkpt lat="42.287486" lon="-0.479722">
        <ele>1406.3</ele>
        <time>2018-07-22T09:28:03.000Z</time>
      </trkpt>
      <trkpt lat="42.287485" lon="-0.479705">
        <ele>1406.2</ele>
        <time>2018-07-22T09:28:04.000Z</time>
      </trkpt>
      <trkpt lat="42.287483" lon="-0.479689">
        <ele>1406.1</ele>
        <time>2018-07-22T09:28:05.000Z</time>
      </trkpt>
      <trkpt lat="42.287483" lon="-0.479676">
        <ele>1406.0</ele>
        <time>2018-07-22T09:28:06.000Z</time>
      </trkpt>
      <trkpt lat="42.287485" lon="-0.479665">
        <ele>1405.9</ele>
        <time>2018-07-22T09:28:07.000Z</time>
      </trkpt>
      <trkpt lat="42.287488" lon="-0.479655">
        <ele>1405.8</ele>
        <time>2018-07-22T09:28:08.000Z</time>
      </trkpt>
      <trkpt lat="42.287493" lon="-0.479647">
        <ele>1405.6</ele>
        <time>2018-07-22T09:28:09.000Z</time>
      </trkpt>
      <trkpt lat="42.287498" lon="-0.47964">
        <ele>1405.4</ele>
        <time>2018-07-22T09:28:10.000Z</time>
      </trkpt>
      <trkpt lat="42.287505" lon="-0.479632">
        <ele>1405.4</ele>
        <time>2018-07-22T09:28:11.000Z</time>
      </trkpt>
      <trkpt lat="42.287513" lon="-0.479625">
        <ele>1405.4</ele>
        <time>2018-07-22T09:28:12.000Z</time>
      </trkpt>
      <trkpt lat="42.28752" lon="-0.479617">
        <ele>1405.4</ele>
        <time>2018-07-22T09:28:13.000Z</time>
      </trkpt>
      <trkpt lat="42.287526" lon="-0.479609">
        <ele>1405.4</ele>
        <time>2018-07-22T09:28:14.000Z</time>
      </trkpt>
      <trkpt lat="42.287529" lon="-0.4796">
        <ele>1405.4</ele>
        <time>2018-07-22T09:28:15.000Z</time>
      </trkpt>
      <trkpt lat="42.287531" lon="-0.479591">
        <ele>1405.4</ele>
        <time>2018-07-22T09:28:16.000Z</time>
      </trkpt>
      <trkpt lat="42.287535" lon="-0.479581">
        <ele>1405.3</ele>
        <time>2018-07-22T09:28:17.000Z</time>
      </trkpt>
      <trkpt lat="42.28754" lon="-0.479569">
        <ele>1405.3</ele>
        <time>2018-07-22T09:28:18.000Z</time>
      </trkpt>
      <trkpt lat="42.287546" lon="-0.479557">
        <ele>1405.3</ele>
        <time>2018-07-22T09:28:19.000Z</time>
      </trkpt>
      <trkpt lat="42.287553" lon="-0.479545">
        <ele>1405.3</ele>
        <time>2018-07-22T09:28:20.000Z</time>
      </trkpt>
      <trkpt lat="42.28756" lon="-0.479532">
        <ele>1405.2</ele>
        <time>2018-07-22T09:28:21.000Z</time>
      </trkpt>
      <trkpt lat="42.287567" lon="-0.479518">
        <ele>1405.2</ele>
        <time>2018-07-22T09:28:22.000Z</time>
      </trkpt>
      <trkpt lat="42.287574" lon="-0.479503">
        <ele>1405.2</ele>
        <time>2018-07-22T09:28:23.000Z</time>
      </trkpt>
      <trkpt lat="42.287581" lon="-0.479488">
        <ele>1405.2</ele>
        <time>2018-07-22T09:28:24.000Z</time>
      </trkpt>
      <trkpt lat="42.287588" lon="-0.479473">
        <ele>1405.1</ele>
        <time>2018-07-22T09:28:25.000Z</time>
      </trkpt>
      <trkpt lat="42.287594" lon="-0.479458">
        <ele>1405.1</ele>
        <time>2018-07-22T09:28:26.000Z</time>
      </trkpt>
      <trkpt lat="42.287601" lon="-0.479444">
        <ele>1405.1</ele>
        <time>2018-07-22T09:28:27.000Z</time>
      </trkpt>
      <trkpt lat="42.287608" lon="-0.479429">
        <ele>1405.1</ele>
        <time>2018-07-22T09:28:28.000Z</time>
      </trkpt>
      <trkpt lat="42.287616" lon="-0.479415">
        <ele>1405.1</ele>
        <time>2018-07-22T09:28:29.000Z</time>
      </trkpt>
      <trkpt lat="42.287623" lon="-0.4794">
        <ele>1405.1</ele>
        <time>2018-07-22T09:28:30.000Z</time>
      </trkpt>
      <trkpt lat="42.287631" lon="-0.479386">
        <ele>1405.1</ele>
        <time>2018-07-22T09:28:31.000Z</time>
      </trkpt>
      <trkpt lat="42.28764" lon="-0.479372">
        <ele>1405.1</ele>
        <time>2018-07-22T09:28:32.000Z</time>
      </trkpt>
      <trkpt lat="42.287648" lon="-0.479358">
        <ele>1405.1</ele>
        <time>2018-07-22T09:28:33.000Z</time>
      </trkpt>
      <trkpt lat="42.287656" lon="-0.479343">
        <ele>1405.1</ele>
        <time>2018-07-22T09:28:34.000Z</time>
      </trkpt>
      <trkpt lat="42.287664" lon="-0.479328">
        <ele>1405.1</ele>
        <time>2018-07-22T09:28:35.000Z</time>
      </trkpt>
      <trkpt lat="42.287672" lon="-0.479313">
        <ele>1405.1</ele>
        <time>2018-07-22T09:28:36.000Z</time>
      </trkpt>
      <trkpt lat="42.28768" lon="-0.479297">
        <ele>1405.1</ele>
        <time>2018-07-22T09:28:37.000Z</time>
      </trkpt>
      <trkpt lat="42.287688" lon="-0.479281">
        <ele>1405.1</ele>
        <time>2018-07-22T09:28:38.000Z</time>
      </trkpt>
      <trkpt lat="42.287695" lon="-0.479265">
        <ele>1405.1</ele>
        <time>2018-07-22T09:28:39.000Z</time>
      </trkpt>
      <trkpt lat="42.287702" lon="-0.479248">
        <ele>1405.1</ele>
        <time>2018-07-22T09:28:40.000Z</time>
      </trkpt>
      <trkpt lat="42.28771" lon="-0.479232">
        <ele>1405.1</ele>
        <time>2018-07-22T09:28:41.000Z</time>
      </trkpt>
      <trkpt lat="42.287717" lon="-0.479217">
        <ele>1405.1</ele>
        <time>2018-07-22T09:28:42.000Z</time>
      </trkpt>
      <trkpt lat="42.287725" lon="-0.479202">
        <ele>1405.2</ele>
        <time>2018-07-22T09:28:43.000Z</time>
      </trkpt>
      <trkpt lat="42.287733" lon="-0.479189">
        <ele>1405.2</ele>
        <time>2018-07-22T09:28:44.000Z</time>
      </trkpt>
      <trkpt lat="42.287741" lon="-0.479177">
        <ele>1405.2</ele>
        <time>2018-07-22T09:28:45.000Z</time>
      </trkpt>
      <trkpt lat="42.28775" lon="-0.479165">
        <ele>1405.3</ele>
        <time>2018-07-22T09:28:46.000Z</time>
      </trkpt>
      <trkpt lat="42.287758" lon="-0.479153">
        <ele>1405.2</ele>
        <time>2018-07-22T09:28:47.000Z</time>
      </trkpt>
      <trkpt lat="42.287767" lon="-0.47914">
        <ele>1405.0</ele>
        <time>2018-07-22T09:28:48.000Z</time>
      </trkpt>
      <trkpt lat="42.287775" lon="-0.479128">
        <ele>1404.9</ele>
        <time>2018-07-22T09:28:49.000Z</time>
      </trkpt>
      <trkpt lat="42.287784" lon="-0.479114">
        <ele>1404.8</ele>
        <time>2018-07-22T09:28:50.000Z</time>
      </trkpt>
      <trkpt lat="42.287791" lon="-0.479101">
        <ele>1404.6</ele>
        <time>2018-07-22T09:28:51.000Z</time>
      </trkpt>
      <trkpt lat="42.287799" lon="-0.479087">
        <ele>1404.5</ele>
        <time>2018-07-22T09:28:52.000Z</time>
      </trkpt>
      <trkpt lat="42.287806" lon="-0.479073">
        <ele>1404.3</ele>
        <time>2018-07-22T09:28:53.000Z</time>
      </trkpt>
      <trkpt lat="42.287812" lon="-0.47906">
        <ele>1404.2</ele>
        <time>2018-07-22T09:28:54.000Z</time>
      </trkpt>
      <trkpt lat="42.287817" lon="-0.479047">
        <ele>1404.0</ele>
        <time>2018-07-22T09:28:55.000Z</time>
      </trkpt>
      <trkpt lat="42.287821" lon="-0.479034">
        <ele>1403.8</ele>
        <time>2018-07-22T09:28:56.000Z</time>
      </trkpt>
      <trkpt lat="42.287826" lon="-0.479022">
        <ele>1403.6</ele>
        <time>2018-07-22T09:28:57.000Z</time>
      </trkpt>
      <trkpt lat="42.287831" lon="-0.479011">
        <ele>1403.5</ele>
        <time>2018-07-22T09:28:58.000Z</time>
      </trkpt>
      <trkpt lat="42.287836" lon="-0.479">
        <ele>1403.4</ele>
        <time>2018-07-22T09:28:59.000Z</time>
      </trkpt>
      <trkpt lat="42.287842" lon="-0.47899">
        <ele>1403.2</ele>
        <time>2018-07-22T09:29:00.000Z</time>
      </trkpt>
      <trkpt lat="42.287849" lon="-0.47898">
        <ele>1403.2</ele>
        <time>2018-07-22T09:29:01.000Z</time>
      </trkpt>
      <trkpt lat="42.287856" lon="-0.478971">
        <ele>1403.1</ele>
        <time>2018-07-22T09:29:02.000Z</time>
      </trkpt>
      <trkpt lat="42.287863" lon="-0.47896">
        <ele>1403.0</ele>
        <time>2018-07-22T09:29:03.000Z</time>
      </trkpt>
      <trkpt lat="42.287869" lon="-0.478949">
        <ele>1402.8</ele>
        <time>2018-07-22T09:29:04.000Z</time>
      </trkpt>
      <trkpt lat="42.287874" lon="-0.478937">
        <ele>1402.7</ele>
        <time>2018-07-22T09:29:05.000Z</time>
      </trkpt>
      <trkpt lat="42.287878" lon="-0.478923">
        <ele>1402.5</ele>
        <time>2018-07-22T09:29:06.000Z</time>
      </trkpt>
      <trkpt lat="42.287881" lon="-0.478909">
        <ele>1402.2</ele>
        <time>2018-07-22T09:29:07.000Z</time>
      </trkpt>
      <trkpt lat="42.287884" lon="-0.478894">
        <ele>1402.0</ele>
        <time>2018-07-22T09:29:08.000Z</time>
      </trkpt>
      <trkpt lat="42.287886" lon="-0.478879">
        <ele>1401.8</ele>
        <time>2018-07-22T09:29:09.000Z</time>
      </trkpt>
      <trkpt lat="42.287888" lon="-0.478865">
        <ele>1401.5</ele>
        <time>2018-07-22T09:29:10.000Z</time>
      </trkpt>
      <trkpt lat="42.287891" lon="-0.478852">
        <ele>1401.3</ele>
        <time>2018-07-22T09:29:11.000Z</time>
      </trkpt>
      <trkpt lat="42.287895" lon="-0.47884">
        <ele>1401.1</ele>
        <time>2018-07-22T09:29:12.000Z</time>
      </trkpt>
      <trkpt lat="42.287899" lon="-0.478828">
        <ele>1401.0</ele>
        <time>2018-07-22T09:29:13.000Z</time>
      </trkpt>
      <trkpt lat="42.287903" lon="-0.478816">
        <ele>1400.8</ele>
        <time>2018-07-22T09:29:14.000Z</time>
      </trkpt>
      <trkpt lat="42.287907" lon="-0.478804">
        <ele>1400.6</ele>
        <time>2018-07-22T09:29:15.000Z</time>
      </trkpt>
      <trkpt lat="42.287912" lon="-0.478791">
        <ele>1400.5</ele>
        <time>2018-07-22T09:29:16.000Z</time>
      </trkpt>
      <trkpt lat="42.287916" lon="-0.478777">
        <ele>1400.2</ele>
        <time>2018-07-22T09:29:17.000Z</time>
      </trkpt>
      <trkpt lat="42.28792" lon="-0.478763">
        <ele>1400.0</ele>
        <time>2018-07-22T09:29:18.000Z</time>
      </trkpt>
      <trkpt lat="42.287924" lon="-0.478748">
        <ele>1399.8</ele>
        <time>2018-07-22T09:29:19.000Z</time>
      </trkpt>
      <trkpt lat="42.287929" lon="-0.478734">
        <ele>1399.6</ele>
        <time>2018-07-22T09:29:20.000Z</time>
      </trkpt>
      <trkpt lat="42.287935" lon="-0.47872">
        <ele>1399.4</ele>
        <time>2018-07-22T09:29:21.000Z</time>
      </trkpt>
      <trkpt lat="42.287942" lon="-0.478708">
        <ele>1399.3</ele>
        <time>2018-07-22T09:29:22.000Z</time>
      </trkpt>
      <trkpt lat="42.287949" lon="-0.478698">
        <ele>1399.2</ele>
        <time>2018-07-22T09:29:23.000Z</time>
      </trkpt>
      <trkpt lat="42.287957" lon="-0.478688">
        <ele>1399.1</ele>
        <time>2018-07-22T09:29:24.000Z</time>
      </trkpt>
      <trkpt lat="42.287966" lon="-0.478678">
        <ele>1399.0</ele>
        <time>2018-07-22T09:29:25.000Z</time>
      </trkpt>
      <trkpt lat="42.287975" lon="-0.478669">
        <ele>1399.0</ele>
        <time>2018-07-22T09:29:26.000Z</time>
      </trkpt>
      <trkpt lat="42.287984" lon="-0.47866">
        <ele>1398.9</ele>
        <time>2018-07-22T09:29:27.000Z</time>
      </trkpt>
      <trkpt lat="42.287993" lon="-0.47865">
        <ele>1398.8</ele>
        <time>2018-07-22T09:29:28.000Z</time>
      </trkpt>
      <trkpt lat="42.288002" lon="-0.47864">
        <ele>1398.8</ele>
        <time>2018-07-22T09:29:29.000Z</time>
      </trkpt>
      <trkpt lat="42.288012" lon="-0.478629">
        <ele>1398.7</ele>
        <time>2018-07-22T09:29:30.000Z</time>
      </trkpt>
      <trkpt lat="42.288021" lon="-0.478618">
        <ele>1398.6</ele>
        <time>2018-07-22T09:29:31.000Z</time>
      </trkpt>
      <trkpt lat="42.288029" lon="-0.478607">
        <ele>1398.5</ele>
        <time>2018-07-22T09:29:32.000Z</time>
      </trkpt>
      <trkpt lat="42.288038" lon="-0.478596">
        <ele>1398.4</ele>
        <time>2018-07-22T09:29:33.000Z</time>
      </trkpt>
      <trkpt lat="42.288046" lon="-0.478585">
        <ele>1398.3</ele>
        <time>2018-07-22T09:29:34.000Z</time>
      </trkpt>
      <trkpt lat="42.288054" lon="-0.478574">
        <ele>1398.2</ele>
        <time>2018-07-22T09:29:35.000Z</time>
      </trkpt>
      <trkpt lat="42.288062" lon="-0.478563">
        <ele>1398.1</ele>
        <time>2018-07-22T09:29:36.000Z</time>
      </trkpt>
      <trkpt lat="42.28807" lon="-0.478552">
        <ele>1398.0</ele>
        <time>2018-07-22T09:29:37.000Z</time>
      </trkpt>
      <trkpt lat="42.288079" lon="-0.478541">
        <ele>1397.9</ele>
        <time>2018-07-22T09:29:38.000Z</time>
      </trkpt>
      <trkpt lat="42.288087" lon="-0.478531">
        <ele>1397.8</ele>
        <time>2018-07-22T09:29:39.000Z</time>
      </trkpt>
      <trkpt lat="42.288095" lon="-0.478521">
        <ele>1397.7</ele>
        <time>2018-07-22T09:29:40.000Z</time>
      </trkpt>
      <trkpt lat="42.288103" lon="-0.478512">
        <ele>1397.6</ele>
        <time>2018-07-22T09:29:41.000Z</time>
      </trkpt>
      <trkpt lat="42.288112" lon="-0.478503">
        <ele>1397.5</ele>
        <time>2018-07-22T09:29:42.000Z</time>
      </trkpt>
      <trkpt lat="42.288121" lon="-0.478495">
        <ele>1397.5</ele>
        <time>2018-07-22T09:29:43.000Z</time>
      </trkpt>
      <trkpt lat="42.28813" lon="-0.478487">
        <ele>1397.5</ele>
        <time>2018-07-22T09:29:44.000Z</time>
      </trkpt>
      <trkpt lat="42.28814" lon="-0.47848">
        <ele>1397.5</ele>
        <time>2018-07-22T09:29:45.000Z</time>
      </trkpt>
      <trkpt lat="42.288149" lon="-0.478473">
        <ele>1397.4</ele>
        <time>2018-07-22T09:29:46.000Z</time>
      </trkpt>
      <trkpt lat="42.288158" lon="-0.478465">
        <ele>1397.4</ele>
        <time>2018-07-22T09:29:47.000Z</time>
      </trkpt>
      <trkpt lat="42.288166" lon="-0.478456">
        <ele>1397.3</ele>
        <time>2018-07-22T09:29:48.000Z</time>
      </trkpt>
      <trkpt lat="42.288173" lon="-0.478447">
        <ele>1397.2</ele>
        <time>2018-07-22T09:29:49.000Z</time>
      </trkpt>
      <trkpt lat="42.288179" lon="-0.478435">
        <ele>1397.1</ele>
        <time>2018-07-22T09:29:50.000Z</time>
      </trkpt>
      <trkpt lat="42.288184" lon="-0.478423">
        <ele>1396.9</ele>
        <time>2018-07-22T09:29:51.000Z</time>
      </trkpt>
      <trkpt lat="42.288189" lon="-0.47841">
        <ele>1396.7</ele>
        <time>2018-07-22T09:29:52.000Z</time>
      </trkpt>
      <trkpt lat="42.288193" lon="-0.478397">
        <ele>1396.5</ele>
        <time>2018-07-22T09:29:53.000Z</time>
      </trkpt>
      <trkpt lat="42.288198" lon="-0.478384">
        <ele>1396.3</ele>
        <time>2018-07-22T09:29:54.000Z</time>
      </trkpt>
      <trkpt lat="42.288202" lon="-0.478371">
        <ele>1396.1</ele>
        <time>2018-07-22T09:29:55.000Z</time>
      </trkpt>
      <trkpt lat="42.288207" lon="-0.47836">
        <ele>1396.0</ele>
        <time>2018-07-22T09:29:56.000Z</time>
      </trkpt>
      <trkpt lat="42.288211" lon="-0.478349">
        <ele>1395.8</ele>
        <time>2018-07-22T09:29:57.000Z</time>
      </trkpt>
      <trkpt lat="42.288217" lon="-0.478338">
        <ele>1395.7</ele>
        <time>2018-07-22T09:29:58.000Z</time>
      </trkpt>
      <trkpt lat="42.288222" lon="-0.478328">
        <ele>1395.5</ele>
        <time>2018-07-22T09:29:59.000Z</time>
      </trkpt>
      <trkpt lat="42.288228" lon="-0.478319">
        <ele>1395.3</ele>
        <time>2018-07-22T09:30:00.000Z</time>
      </trkpt>
      <trkpt lat="42.288234" lon="-0.47831">
        <ele>1395.1</ele>
        <time>2018-07-22T09:30:01.000Z</time>
      </trkpt>
      <trkpt lat="42.28824" lon="-0.478302">
        <ele>1394.9</ele>
        <time>2018-07-22T09:30:02.000Z</time>
      </trkpt>
      <trkpt lat="42.288247" lon="-0.478295">
        <ele>1394.8</ele>
        <time>2018-07-22T09:30:03.000Z</time>
      </trkpt>
      <trkpt lat="42.288254" lon="-0.478287">
        <ele>1394.7</ele>
        <time>2018-07-22T09:30:04.000Z</time>
      </trkpt>
      <trkpt lat="42.288262" lon="-0.47828">
        <ele>1394.6</ele>
        <time>2018-07-22T09:30:05.000Z</time>
      </trkpt>
      <trkpt lat="42.288269" lon="-0.478272">
        <ele>1394.4</ele>
        <time>2018-07-22T09:30:06.000Z</time>
      </trkpt>
      <trkpt lat="42.288275" lon="-0.478263">
        <ele>1394.2</ele>
        <time>2018-07-22T09:30:07.000Z</time>
      </trkpt>
      <trkpt lat="42.288279" lon="-0.478252">
        <ele>1393.9</ele>
        <time>2018-07-22T09:30:08.000Z</time>
      </trkpt>
      <trkpt lat="42.288281" lon="-0.478239">
        <ele>1393.6</ele>
        <time>2018-07-22T09:30:09.000Z</time>
      </trkpt>
      <trkpt lat="42.288284" lon="-0.478226">
        <ele>1393.2</ele>
        <time>2018-07-22T09:30:10.000Z</time>
      </trkpt>
      <trkpt lat="42.288286" lon="-0.478215">
        <ele>1392.9</ele>
        <time>2018-07-22T09:30:11.000Z</time>
      </trkpt>
      <trkpt lat="42.288289" lon="-0.478205">
        <ele>1392.6</ele>
        <time>2018-07-22T09:30:12.000Z</time>
      </trkpt>
      <trkpt lat="42.288291" lon="-0.478197">
        <ele>1392.4</ele>
        <time>2018-07-22T09:30:13.000Z</time>
      </trkpt>
      <trkpt lat="42.288293" lon="-0.478189">
        <ele>1392.2</ele>
        <time>2018-07-22T09:30:14.000Z</time>
      </trkpt>
      <trkpt lat="42.288293" lon="-0.478183">
        <ele>1392.0</ele>
        <time>2018-07-22T09:30:15.000Z</time>
      </trkpt>
      <trkpt lat="42.288292" lon="-0.478177">
        <ele>1391.8</ele>
        <time>2018-07-22T09:30:16.000Z</time>
      </trkpt>
      <trkpt lat="42.288291" lon="-0.478171">
        <ele>1391.6</ele>
        <time>2018-07-22T09:30:17.000Z</time>
      </trkpt>
      <trkpt lat="42.28829" lon="-0.478163">
        <ele>1391.4</ele>
        <time>2018-07-22T09:30:18.000Z</time>
      </trkpt>
      <trkpt lat="42.288291" lon="-0.478153">
        <ele>1391.1</ele>
        <time>2018-07-22T09:30:19.000Z</time>
      </trkpt>
      <trkpt lat="42.288294" lon="-0.478143">
        <ele>1390.8</ele>
        <time>2018-07-22T09:30:20.000Z</time>
      </trkpt>
      <trkpt lat="42.288299" lon="-0.478135">
        <ele>1390.7</ele>
        <time>2018-07-22T09:30:21.000Z</time>
      </trkpt>
      <trkpt lat="42.288304" lon="-0.47813">
        <ele>1390.6</ele>
        <time>2018-07-22T09:30:22.000Z</time>
      </trkpt>
      <trkpt lat="42.288308" lon="-0.478127">
        <ele>1390.5</ele>
        <time>2018-07-22T09:30:23.000Z</time>
      </trkpt>
      <trkpt lat="42.288312" lon="-0.478126">
        <ele>1390.5</ele>
        <time>2018-07-22T09:30:24.000Z</time>
      </trkpt>
      <trkpt lat="42.288313" lon="-0.478126">
        <ele>1390.5</ele>
        <time>2018-07-22T09:30:25.000Z</time>
      </trkpt>
      <trkpt lat="42.288314" lon="-0.478125">
        <ele>1390.5</ele>
        <time>2018-07-22T09:30:26.000Z</time>
      </trkpt>
      <trkpt lat="42.288314" lon="-0.478125">
        <ele>1390.5</ele>
        <time>2018-07-22T09:30:27.000Z</time>
      </trkpt>
      <trkpt lat="42.288314" lon="-0.478125">
        <ele>1390.5</ele>
        <time>2018-07-22T09:30:28.000Z</time>
      </trkpt>
      <trkpt lat="42.288314" lon="-0.478125">
        <ele>1390.5</ele>
        <time>2018-07-22T09:30:29.000Z</time>
      </trkpt>
      <trkpt lat="42.288314" lon="-0.478125">
        <ele>1390.5</ele>
        <time>2018-07-22T09:30:30.000Z</time>
      </trkpt>
      <trkpt lat="42.288315" lon="-0.478125">
        <ele>1390.5</ele>
        <time>2018-07-22T09:30:31.000Z</time>
      </trkpt>
      <trkpt lat="42.288315" lon="-0.478125">
        <ele>1390.5</ele>
        <time>2018-07-22T09:30:32.000Z</time>
      </trkpt>
      <trkpt lat="42.288316" lon="-0.478124">
        <ele>1390.5</ele>
        <time>2018-07-22T09:30:33.000Z</time>
      </trkpt>
      <trkpt lat="42.288317" lon="-0.478124">
        <ele>1390.5</ele>
        <time>2018-07-22T09:30:34.000Z</time>
      </trkpt>
      <trkpt lat="42.288318" lon="-0.478123">
        <ele>1390.5</ele>
        <time>2018-07-22T09:30:35.000Z</time>
      </trkpt>
      <trkpt lat="42.288319" lon="-0.478123">
        <ele>1390.5</ele>
        <time>2018-07-22T09:30:36.000Z</time>
      </trkpt>
      <trkpt lat="42.28832" lon="-0.478122">
        <ele>1390.5</ele>
        <time>2018-07-22T09:30:37.000Z</time>
      </trkpt>
      <trkpt lat="42.288321" lon="-0.478121">
        <ele>1390.5</ele>
        <time>2018-07-22T09:30:38.000Z</time>
      </trkpt>
      <trkpt lat="42.288322" lon="-0.478121">
        <ele>1390.5</ele>
        <time>2018-07-22T09:30:39.000Z</time>
      </trkpt>
      <trkpt lat="42.288324" lon="-0.47812">
        <ele>1390.5</ele>
        <time>2018-07-22T09:30:40.000Z</time>
      </trkpt>
      <trkpt lat="42.288325" lon="-0.478119">
        <ele>1390.5</ele>
        <time>2018-07-22T09:30:41.000Z</time>
      </trkpt>
      <trkpt lat="42.288326" lon="-0.478118">
        <ele>1390.5</ele>
        <time>2018-07-22T09:30:42.000Z</time>
      </trkpt>
      <trkpt lat="42.288327" lon="-0.478118">
        <ele>1390.5</ele>
        <time>2018-07-22T09:30:43.000Z</time>
      </trkpt>
      <trkpt lat="42.288328" lon="-0.478117">
        <ele>1390.4</ele>
        <time>2018-07-22T09:30:44.000Z</time>
      </trkpt>
      <trkpt lat="42.288329" lon="-0.478117">
        <ele>1390.5</ele>
        <time>2018-07-22T09:30:45.000Z</time>
      </trkpt>
      <trkpt lat="42.288329" lon="-0.478116">
        <ele>1390.4</ele>
        <time>2018-07-22T09:30:46.000Z</time>
      </trkpt>
      <trkpt lat="42.28833" lon="-0.478116">
        <ele>1390.4</ele>
        <time>2018-07-22T09:30:47.000Z</time>
      </trkpt>
      <trkpt lat="42.288331" lon="-0.478115">
        <ele>1390.4</ele>
        <time>2018-07-22T09:30:48.000Z</time>
      </trkpt>
      <trkpt lat="42.288331" lon="-0.478115">
        <ele>1390.4</ele>
        <time>2018-07-22T09:30:49.000Z</time>
      </trkpt>
      <trkpt lat="42.288332" lon="-0.478115">
        <ele>1390.4</ele>
        <time>2018-07-22T09:30:50.000Z</time>
      </trkpt>
      <trkpt lat="42.288332" lon="-0.478114">
        <ele>1390.4</ele>
        <time>2018-07-22T09:30:51.000Z</time>
      </trkpt>
      <trkpt lat="42.288333" lon="-0.478114">
        <ele>1390.4</ele>
        <time>2018-07-22T09:30:52.000Z</time>
      </trkpt>
      <trkpt lat="42.288333" lon="-0.478114">
        <ele>1390.4</ele>
        <time>2018-07-22T09:30:53.000Z</time>
      </trkpt>
      <trkpt lat="42.288333" lon="-0.478114">
        <ele>1390.4</ele>
        <time>2018-07-22T09:30:54.000Z</time>
      </trkpt>
      <trkpt lat="42.288334" lon="-0.478114">
        <ele>1390.4</ele>
        <time>2018-07-22T09:30:55.000Z</time>
      </trkpt>
      <trkpt lat="42.288334" lon="-0.478114">
        <ele>1390.4</ele>
        <time>2018-07-22T09:30:56.000Z</time>
      </trkpt>
      <trkpt lat="42.288334" lon="-0.478113">
        <ele>1390.4</ele>
        <time>2018-07-22T09:30:57.000Z</time>
      </trkpt>
      <trkpt lat="42.288335" lon="-0.478113">
        <ele>1390.4</ele>
        <time>2018-07-22T09:30:58.000Z</time>
      </trkpt>
      <trkpt lat="42.288335" lon="-0.478113">
        <ele>1390.4</ele>
        <time>2018-07-22T09:30:59.000Z</time>
      </trkpt>
      <trkpt lat="42.288336" lon="-0.478113">
        <ele>1390.3</ele>
        <time>2018-07-22T09:31:00.000Z</time>
      </trkpt>
      <trkpt lat="42.288337" lon="-0.478113">
        <ele>1390.3</ele>
        <time>2018-07-22T09:31:01.000Z</time>
      </trkpt>
      <trkpt lat="42.288337" lon="-0.478112">
        <ele>1390.3</ele>
        <time>2018-07-22T09:31:02.000Z</time>
      </trkpt>
      <trkpt lat="42.288338" lon="-0.478112">
        <ele>1390.3</ele>
        <time>2018-07-22T09:31:03.000Z</time>
      </trkpt>
      <trkpt lat="42.288339" lon="-0.478112">
        <ele>1390.2</ele>
        <time>2018-07-22T09:31:04.000Z</time>
      </trkpt>
      <trkpt lat="42.28834" lon="-0.478111">
        <ele>1390.2</ele>
        <time>2018-07-22T09:31:05.000Z</time>
      </trkpt>
      <trkpt lat="42.288341" lon="-0.478111">
        <ele>1390.2</ele>
        <time>2018-07-22T09:31:06.000Z</time>
      </trkpt>
      <trkpt lat="42.288342" lon="-0.478111">
        <ele>1390.2</ele>
        <time>2018-07-22T09:31:07.000Z</time>
      </trkpt>
      <trkpt lat="42.288344" lon="-0.47811">
        <ele>1390.1</ele>
        <time>2018-07-22T09:31:08.000Z</time>
      </trkpt>
      <trkpt lat="42.288345" lon="-0.478109">
        <ele>1390.0</ele>
        <time>2018-07-22T09:31:09.000Z</time>
      </trkpt>
      <trkpt lat="42.288346" lon="-0.478109">
        <ele>1390.0</ele>
        <time>2018-07-22T09:31:10.000Z</time>
      </trkpt>
      <trkpt lat="42.288347" lon="-0.478108">
        <ele>1390.0</ele>
        <time>2018-07-22T09:31:11.000Z</time>
      </trkpt>
      <trkpt lat="42.288349" lon="-0.478107">
        <ele>1389.9</ele>
        <time>2018-07-22T09:31:12.000Z</time>
      </trkpt>
      <trkpt lat="42.288349" lon="-0.478106">
        <ele>1389.9</ele>
        <time>2018-07-22T09:31:13.000Z</time>
      </trkpt>
      <trkpt lat="42.28835" lon="-0.478106">
        <ele>1389.9</ele>
        <time>2018-07-22T09:31:14.000Z</time>
      </trkpt>
      <trkpt lat="42.288352" lon="-0.478105">
        <ele>1389.8</ele>
        <time>2018-07-22T09:31:15.000Z</time>
      </trkpt>
      <trkpt lat="42.288353" lon="-0.478104">
        <ele>1389.7</ele>
        <time>2018-07-22T09:31:16.000Z</time>
      </trkpt>
      <trkpt lat="42.288355" lon="-0.478103">
        <ele>1389.7</ele>
        <time>2018-07-22T09:31:17.000Z</time>
      </trkpt>
      <trkpt lat="42.288357" lon="-0.478103">
        <ele>1389.6</ele>
        <time>2018-07-22T09:31:18.000Z</time>
      </trkpt>
      <trkpt lat="42.288359" lon="-0.478102">
        <ele>1389.6</ele>
        <time>2018-07-22T09:31:19.000Z</time>
      </trkpt>
      <trkpt lat="42.288361" lon="-0.478101">
        <ele>1389.5</ele>
        <time>2018-07-22T09:31:20.000Z</time>
      </trkpt>
      <trkpt lat="42.288363" lon="-0.4781">
        <ele>1389.4</ele>
        <time>2018-07-22T09:31:21.000Z</time>
      </trkpt>
      <trkpt lat="42.288365" lon="-0.478099">
        <ele>1389.4</ele>
        <time>2018-07-22T09:31:22.000Z</time>
      </trkpt>
      <trkpt lat="42.288367" lon="-0.478098">
        <ele>1389.3</ele>
        <time>2018-07-22T09:31:23.000Z</time>
      </trkpt>
      <trkpt lat="42.288369" lon="-0.478097">
        <ele>1389.2</ele>
        <time>2018-07-22T09:31:24.000Z</time>
      </trkpt>
      <trkpt lat="42.288371" lon="-0.478095">
        <ele>1389.1</ele>
        <time>2018-07-22T09:31:25.000Z</time>
      </trkpt>
      <trkpt lat="42.288373" lon="-0.478094">
        <ele>1389.0</ele>
        <time>2018-07-22T09:31:26.000Z</time>
      </trkpt>
      <trkpt lat="42.288374" lon="-0.478094">
        <ele>1389.0</ele>
        <time>2018-07-22T09:31:27.000Z</time>
      </trkpt>
      <trkpt lat="42.288376" lon="-0.478093">
        <ele>1389.0</ele>
        <time>2018-07-22T09:31:28.000Z</time>
      </trkpt>
      <trkpt lat="42.288378" lon="-0.478092">
        <ele>1388.9</ele>
        <time>2018-07-22T09:31:29.000Z</time>
      </trkpt>
      <trkpt lat="42.28838" lon="-0.478091">
        <ele>1388.8</ele>
        <time>2018-07-22T09:31:30.000Z</time>
      </trkpt>
      <trkpt lat="42.288382" lon="-0.47809">
        <ele>1388.7</ele>
        <time>2018-07-22T09:31:31.000Z</time>
      </trkpt>
      <trkpt lat="42.288384" lon="-0.478089">
        <ele>1388.7</ele>
        <time>2018-07-22T09:31:32.000Z</time>
      </trkpt>
      <trkpt lat="42.288386" lon="-0.478088">
        <ele>1388.6</ele>
        <time>2018-07-22T09:31:33.000Z</time>
      </trkpt>
      <trkpt lat="42.288392" lon="-0.478087">
        <ele>1388.5</ele>
        <time>2018-07-22T09:31:34.000Z</time>
      </trkpt>
      <trkpt lat="42.288398" lon="-0.478084">
        <ele>1388.3</ele>
        <time>2018-07-22T09:31:35.000Z</time>
      </trkpt>
      <trkpt lat="42.288404" lon="-0.478082">
        <ele>1388.1</ele>
        <time>2018-07-22T09:31:36.000Z</time>
      </trkpt>
      <trkpt lat="42.28841" lon="-0.478081">
        <ele>1387.9</ele>
        <time>2018-07-22T09:31:37.000Z</time>
      </trkpt>
      <trkpt lat="42.288415" lon="-0.47808">
        <ele>1387.8</ele>
        <time>2018-07-22T09:31:38.000Z</time>
      </trkpt>
      <trkpt lat="42.288419" lon="-0.47808">
        <ele>1387.7</ele>
        <time>2018-07-22T09:31:39.000Z</time>
      </trkpt>
      <trkpt lat="42.288424" lon="-0.47808">
        <ele>1387.6</ele>
        <time>2018-07-22T09:31:40.000Z</time>
      </trkpt>
      <trkpt lat="42.288427" lon="-0.478079">
        <ele>1387.5</ele>
        <time>2018-07-22T09:31:41.000Z</time>
      </trkpt>
      <trkpt lat="42.28843" lon="-0.478079">
        <ele>1387.5</ele>
        <time>2018-07-22T09:31:42.000Z</time>
      </trkpt>
      <trkpt lat="42.288433" lon="-0.478079">
        <ele>1387.4</ele>
        <time>2018-07-22T09:31:43.000Z</time>
      </trkpt>
      <trkpt lat="42.288435" lon="-0.478078">
        <ele>1387.4</ele>
        <time>2018-07-22T09:31:44.000Z</time>
      </trkpt>
      <trkpt lat="42.288437" lon="-0.478078">
        <ele>1387.3</ele>
        <time>2018-07-22T09:31:45.000Z</time>
      </trkpt>
      <trkpt lat="42.288439" lon="-0.478078">
        <ele>1387.3</ele>
        <time>2018-07-22T09:31:46.000Z</time>
      </trkpt>
      <trkpt lat="42.288442" lon="-0.478077">
        <ele>1387.2</ele>
        <time>2018-07-22T09:31:47.000Z</time>
      </trkpt>
      <trkpt lat="42.288444" lon="-0.478077">
        <ele>1387.1</ele>
        <time>2018-07-22T09:31:48.000Z</time>
      </trkpt>
      <trkpt lat="42.288447" lon="-0.478076">
        <ele>1387.1</ele>
        <time>2018-07-22T09:31:49.000Z</time>
      </trkpt>
      <trkpt lat="42.28845" lon="-0.478076">
        <ele>1387.0</ele>
        <time>2018-07-22T09:31:50.000Z</time>
      </trkpt>
      <trkpt lat="42.288455" lon="-0.478074">
        <ele>1386.8</ele>
        <time>2018-07-22T09:31:51.000Z</time>
      </trkpt>
      <trkpt lat="42.288463" lon="-0.478072">
        <ele>1386.6</ele>
        <time>2018-07-22T09:31:52.000Z</time>
      </trkpt>
      <trkpt lat="42.288471" lon="-0.47807">
        <ele>1386.4</ele>
        <time>2018-07-22T09:31:53.000Z</time>
      </trkpt>
      <trkpt lat="42.288476" lon="-0.478068">
        <ele>1386.2</ele>
        <time>2018-07-22T09:31:54.000Z</time>
      </trkpt>
      <trkpt lat="42.288478" lon="-0.478065">
        <ele>1386.1</ele>
        <time>2018-07-22T09:31:55.000Z</time>
      </trkpt>
      <trkpt lat="42.288481" lon="-0.478063">
        <ele>1386.0</ele>
        <time>2018-07-22T09:31:56.000Z</time>
      </trkpt>
      <trkpt lat="42.288486" lon="-0.478061">
        <ele>1385.8</ele>
        <time>2018-07-22T09:31:57.000Z</time>
      </trkpt>
      <trkpt lat="42.288493" lon="-0.47806">
        <ele>1385.7</ele>
        <time>2018-07-22T09:31:58.000Z</time>
      </trkpt>
      <trkpt lat="42.288501" lon="-0.47806">
        <ele>1385.5</ele>
        <time>2018-07-22T09:31:59.000Z</time>
      </trkpt>
      <trkpt lat="42.288509" lon="-0.47806">
        <ele>1385.4</ele>
        <time>2018-07-22T09:32:00.000Z</time>
      </trkpt>
      <trkpt lat="42.288517" lon="-0.478061">
        <ele>1385.2</ele>
        <time>2018-07-22T09:32:01.000Z</time>
      </trkpt>
      <trkpt lat="42.288524" lon="-0.478063">
        <ele>1385.2</ele>
        <time>2018-07-22T09:32:02.000Z</time>
      </trkpt>
      <trkpt lat="42.288532" lon="-0.478065">
        <ele>1385.1</ele>
        <time>2018-07-22T09:32:03.000Z</time>
      </trkpt>
      <trkpt lat="42.28854" lon="-0.478069">
        <ele>1385.0</ele>
        <time>2018-07-22T09:32:04.000Z</time>
      </trkpt>
      <trkpt lat="42.288549" lon="-0.478073">
        <ele>1385.0</ele>
        <time>2018-07-22T09:32:05.000Z</time>
      </trkpt>
      <trkpt lat="42.288558" lon="-0.478077">
        <ele>1384.9</ele>
        <time>2018-07-22T09:32:06.000Z</time>
      </trkpt>
      <trkpt lat="42.288566" lon="-0.478081">
        <ele>1384.9</ele>
        <time>2018-07-22T09:32:07.000Z</time>
      </trkpt>
      <trkpt lat="42.288574" lon="-0.478084">
        <ele>1384.8</ele>
        <time>2018-07-22T09:32:08.000Z</time>
      </trkpt>
      <trkpt lat="42.288582" lon="-0.478085">
        <ele>1384.7</ele>
        <time>2018-07-22T09:32:09.000Z</time>
      </trkpt>
      <trkpt lat="42.288588" lon="-0.478084">
        <ele>1384.5</ele>
        <time>2018-07-22T09:32:10.000Z</time>
      </trkpt>
      <trkpt lat="42.288593" lon="-0.478082">
        <ele>1384.4</ele>
        <time>2018-07-22T09:32:11.000Z</time>
      </trkpt>
      <trkpt lat="42.288598" lon="-0.478078">
        <ele>1384.2</ele>
        <time>2018-07-22T09:32:12.000Z</time>
      </trkpt>
      <trkpt lat="42.288601" lon="-0.478075">
        <ele>1384.0</ele>
        <time>2018-07-22T09:32:13.000Z</time>
      </trkpt>
      <trkpt lat="42.288603" lon="-0.478072">
        <ele>1383.9</ele>
        <time>2018-07-22T09:32:14.000Z</time>
      </trkpt>
      <trkpt lat="42.288605" lon="-0.478071">
        <ele>1383.8</ele>
        <time>2018-07-22T09:32:15.000Z</time>
      </trkpt>
      <trkpt lat="42.288607" lon="-0.47807">
        <ele>1383.7</ele>
        <time>2018-07-22T09:32:16.000Z</time>
      </trkpt>
      <trkpt lat="42.288608" lon="-0.478069">
        <ele>1383.7</ele>
        <time>2018-07-22T09:32:17.000Z</time>
      </trkpt>
      <trkpt lat="42.28861" lon="-0.478068">
        <ele>1383.6</ele>
        <time>2018-07-22T09:32:18.000Z</time>
      </trkpt>
      <trkpt lat="42.288612" lon="-0.478066">
        <ele>1383.5</ele>
        <time>2018-07-22T09:32:19.000Z</time>
      </trkpt>
      <trkpt lat="42.288614" lon="-0.478064">
        <ele>1383.4</ele>
        <time>2018-07-22T09:32:20.000Z</time>
      </trkpt>
      <trkpt lat="42.288616" lon="-0.478063">
        <ele>1383.4</ele>
        <time>2018-07-22T09:32:21.000Z</time>
      </trkpt>
      <trkpt lat="42.288619" lon="-0.478062">
        <ele>1383.3</ele>
        <time>2018-07-22T09:32:22.000Z</time>
      </trkpt>
      <trkpt lat="42.288624" lon="-0.478061">
        <ele>1383.1</ele>
        <time>2018-07-22T09:32:23.000Z</time>
      </trkpt>
      <trkpt lat="42.288629" lon="-0.478062">
        <ele>1383.1</ele>
        <time>2018-07-22T09:32:24.000Z</time>
      </trkpt>
      <trkpt lat="42.288634" lon="-0.47806">
        <ele>1382.9</ele>
        <time>2018-07-22T09:32:25.000Z</time>
      </trkpt>
      <trkpt lat="42.288639" lon="-0.478058">
        <ele>1382.8</ele>
        <time>2018-07-22T09:32:26.000Z</time>
      </trkpt>
      <trkpt lat="42.288642" lon="-0.478056">
        <ele>1382.6</ele>
        <time>2018-07-22T09:32:27.000Z</time>
      </trkpt>
      <trkpt lat="42.288644" lon="-0.478055">
        <ele>1382.6</ele>
        <time>2018-07-22T09:32:28.000Z</time>
      </trkpt>
      <trkpt lat="42.288646" lon="-0.478054">
        <ele>1382.5</ele>
        <time>2018-07-22T09:32:29.000Z</time>
      </trkpt>
      <trkpt lat="42.288647" lon="-0.478053">
        <ele>1382.4</ele>
        <time>2018-07-22T09:32:30.000Z</time>
      </trkpt>
      <trkpt lat="42.288649" lon="-0.478052">
        <ele>1382.4</ele>
        <time>2018-07-22T09:32:31.000Z</time>
      </trkpt>
      <trkpt lat="42.288651" lon="-0.47805">
        <ele>1382.3</ele>
        <time>2018-07-22T09:32:32.000Z</time>
      </trkpt>
      <trkpt lat="42.288653" lon="-0.478049">
        <ele>1382.2</ele>
        <time>2018-07-22T09:32:33.000Z</time>
      </trkpt>
      <trkpt lat="42.288655" lon="-0.478048">
        <ele>1382.1</ele>
        <time>2018-07-22T09:32:34.000Z</time>
      </trkpt>
      <trkpt lat="42.288657" lon="-0.478046">
        <ele>1382.0</ele>
        <time>2018-07-22T09:32:35.000Z</time>
      </trkpt>
      <trkpt lat="42.28866" lon="-0.478045">
        <ele>1381.9</ele>
        <time>2018-07-22T09:32:36.000Z</time>
      </trkpt>
      <trkpt lat="42.288662" lon="-0.478043">
        <ele>1381.8</ele>
        <time>2018-07-22T09:32:37.000Z</time>
      </trkpt>
      <trkpt lat="42.288666" lon="-0.47804">
        <ele>1381.7</ele>
        <time>2018-07-22T09:32:38.000Z</time>
      </trkpt>
      <trkpt lat="42.288673" lon="-0.478041">
        <ele>1381.6</ele>
        <time>2018-07-22T09:32:39.000Z</time>
      </trkpt>
      <trkpt lat="42.288683" lon="-0.478041">
        <ele>1381.4</ele>
        <time>2018-07-22T09:32:40.000Z</time>
      </trkpt>
      <trkpt lat="42.288694" lon="-0.478039">
        <ele>1381.1</ele>
        <time>2018-07-22T09:32:41.000Z</time>
      </trkpt>
      <trkpt lat="42.288705" lon="-0.478037">
        <ele>1380.8</ele>
        <time>2018-07-22T09:32:42.000Z</time>
      </trkpt>
      <trkpt lat="42.288716" lon="-0.478037">
        <ele>1380.6</ele>
        <time>2018-07-22T09:32:43.000Z</time>
      </trkpt>
      <trkpt lat="42.288726" lon="-0.478039">
        <ele>1380.5</ele>
        <time>2018-07-22T09:32:44.000Z</time>
      </trkpt>
      <trkpt lat="42.288734" lon="-0.478041">
        <ele>1380.4</ele>
        <time>2018-07-22T09:32:45.000Z</time>
      </trkpt>
      <trkpt lat="42.288742" lon="-0.478044">
        <ele>1380.3</ele>
        <time>2018-07-22T09:32:46.000Z</time>
      </trkpt>
      <trkpt lat="42.288748" lon="-0.478047">
        <ele>1380.3</ele>
        <time>2018-07-22T09:32:47.000Z</time>
      </trkpt>
      <trkpt lat="42.288753" lon="-0.47805">
        <ele>1380.3</ele>
        <time>2018-07-22T09:32:48.000Z</time>
      </trkpt>
      <trkpt lat="42.288757" lon="-0.478053">
        <ele>1380.3</ele>
        <time>2018-07-22T09:32:49.000Z</time>
      </trkpt>
      <trkpt lat="42.288759" lon="-0.478056">
        <ele>1380.3</ele>
        <time>2018-07-22T09:32:50.000Z</time>
      </trkpt>
      <trkpt lat="42.288761" lon="-0.478058">
        <ele>1380.4</ele>
        <time>2018-07-22T09:32:51.000Z</time>
      </trkpt>
      <trkpt lat="42.288763" lon="-0.47806">
        <ele>1380.4</ele>
        <time>2018-07-22T09:32:52.000Z</time>
      </trkpt>
      <trkpt lat="42.288764" lon="-0.478061">
        <ele>1380.4</ele>
        <time>2018-07-22T09:32:53.000Z</time>
      </trkpt>
      <trkpt lat="42.288765" lon="-0.478061">
        <ele>1380.4</ele>
        <time>2018-07-22T09:32:54.000Z</time>
      </trkpt>
      <trkpt lat="42.288766" lon="-0.478062">
        <ele>1380.4</ele>
        <time>2018-07-22T09:32:55.000Z</time>
      </trkpt>
      <trkpt lat="42.288767" lon="-0.478063">
        <ele>1380.4</ele>
        <time>2018-07-22T09:32:56.000Z</time>
      </trkpt>
      <trkpt lat="42.288768" lon="-0.478064">
        <ele>1380.4</ele>
        <time>2018-07-22T09:32:57.000Z</time>
      </trkpt>
      <trkpt lat="42.28877" lon="-0.478065">
        <ele>1380.4</ele>
        <time>2018-07-22T09:32:58.000Z</time>
      </trkpt>
      <trkpt lat="42.288771" lon="-0.478067">
        <ele>1380.4</ele>
        <time>2018-07-22T09:32:59.000Z</time>
      </trkpt>
      <trkpt lat="42.288773" lon="-0.478069">
        <ele>1380.5</ele>
        <time>2018-07-22T09:33:00.000Z</time>
      </trkpt>
      <trkpt lat="42.288775" lon="-0.47807">
        <ele>1380.5</ele>
        <time>2018-07-22T09:33:01.000Z</time>
      </trkpt>
      <trkpt lat="42.288777" lon="-0.478072">
        <ele>1380.5</ele>
        <time>2018-07-22T09:33:02.000Z</time>
      </trkpt>
      <trkpt lat="42.288783" lon="-0.478072">
        <ele>1380.4</ele>
        <time>2018-07-22T09:33:03.000Z</time>
      </trkpt>
      <trkpt lat="42.288792" lon="-0.478073">
        <ele>1380.2</ele>
        <time>2018-07-22T09:33:04.000Z</time>
      </trkpt>
      <trkpt lat="42.288802" lon="-0.478075">
        <ele>1380.1</ele>
        <time>2018-07-22T09:33:05.000Z</time>
      </trkpt>
      <trkpt lat="42.288813" lon="-0.478079">
        <ele>1380.0</ele>
        <time>2018-07-22T09:33:06.000Z</time>
      </trkpt>
      <trkpt lat="42.288824" lon="-0.478082">
        <ele>1379.9</ele>
        <time>2018-07-22T09:33:07.000Z</time>
      </trkpt>
      <trkpt lat="42.288835" lon="-0.478085">
        <ele>1379.7</ele>
        <time>2018-07-22T09:33:08.000Z</time>
      </trkpt>
      <trkpt lat="42.288845" lon="-0.478087">
        <ele>1379.6</ele>
        <time>2018-07-22T09:33:09.000Z</time>
      </trkpt>
      <trkpt lat="42.288855" lon="-0.478088">
        <ele>1379.4</ele>
        <time>2018-07-22T09:33:10.000Z</time>
      </trkpt>
      <trkpt lat="42.288864" lon="-0.478088">
        <ele>1379.3</ele>
        <time>2018-07-22T09:33:11.000Z</time>
      </trkpt>
      <trkpt lat="42.288872" lon="-0.478088">
        <ele>1379.1</ele>
        <time>2018-07-22T09:33:12.000Z</time>
      </trkpt>
      <trkpt lat="42.28888" lon="-0.478087">
        <ele>1378.9</ele>
        <time>2018-07-22T09:33:13.000Z</time>
      </trkpt>
      <trkpt lat="42.288887" lon="-0.478085">
        <ele>1378.7</ele>
        <time>2018-07-22T09:33:14.000Z</time>
      </trkpt>
      <trkpt lat="42.288894" lon="-0.478083">
        <ele>1378.5</ele>
        <time>2018-07-22T09:33:15.000Z</time>
      </trkpt>
      <trkpt lat="42.2889" lon="-0.47808">
        <ele>1378.3</ele>
        <time>2018-07-22T09:33:16.000Z</time>
      </trkpt>
      <trkpt lat="42.288905" lon="-0.478077">
        <ele>1378.1</ele>
        <time>2018-07-22T09:33:17.000Z</time>
      </trkpt>
      <trkpt lat="42.288909" lon="-0.478074">
        <ele>1378.0</ele>
        <time>2018-07-22T09:33:18.000Z</time>
      </trkpt>
      <trkpt lat="42.288911" lon="-0.478072">
        <ele>1377.9</ele>
        <time>2018-07-22T09:33:19.000Z</time>
      </trkpt>
      <trkpt lat="42.288913" lon="-0.478069">
        <ele>1377.7</ele>
        <time>2018-07-22T09:33:20.000Z</time>
      </trkpt>
      <trkpt lat="42.288917" lon="-0.478066">
        <ele>1377.5</ele>
        <time>2018-07-22T09:33:21.000Z</time>
      </trkpt>
      <trkpt lat="42.288925" lon="-0.478062">
        <ele>1377.3</ele>
        <time>2018-07-22T09:33:22.000Z</time>
      </trkpt>
      <trkpt lat="42.288933" lon="-0.478059">
        <ele>1377.0</ele>
        <time>2018-07-22T09:33:23.000Z</time>
      </trkpt>
      <trkpt lat="42.288941" lon="-0.478057">
        <ele>1376.8</ele>
        <time>2018-07-22T09:33:24.000Z</time>
      </trkpt>
      <trkpt lat="42.288949" lon="-0.478057">
        <ele>1376.6</ele>
        <time>2018-07-22T09:33:25.000Z</time>
      </trkpt>
      <trkpt lat="42.288958" lon="-0.478059">
        <ele>1376.5</ele>
        <time>2018-07-22T09:33:26.000Z</time>
      </trkpt>
      <trkpt lat="42.288966" lon="-0.478061">
        <ele>1376.4</ele>
        <time>2018-07-22T09:33:27.000Z</time>
      </trkpt>
      <trkpt lat="42.288974" lon="-0.478065">
        <ele>1376.4</ele>
        <time>2018-07-22T09:33:28.000Z</time>
      </trkpt>
      <trkpt lat="42.288981" lon="-0.478068">
        <ele>1376.4</ele>
        <time>2018-07-22T09:33:29.000Z</time>
      </trkpt>
      <trkpt lat="42.288986" lon="-0.478071">
        <ele>1376.4</ele>
        <time>2018-07-22T09:33:30.000Z</time>
      </trkpt>
      <trkpt lat="42.288989" lon="-0.478073">
        <ele>1376.4</ele>
        <time>2018-07-22T09:33:31.000Z</time>
      </trkpt>
      <trkpt lat="42.288991" lon="-0.478074">
        <ele>1376.3</ele>
        <time>2018-07-22T09:33:32.000Z</time>
      </trkpt>
      <trkpt lat="42.288992" lon="-0.478075">
        <ele>1376.4</ele>
        <time>2018-07-22T09:33:33.000Z</time>
      </trkpt>
      <trkpt lat="42.288992" lon="-0.478076">
        <ele>1376.4</ele>
        <time>2018-07-22T09:33:34.000Z</time>
      </trkpt>
      <trkpt lat="42.288993" lon="-0.478076">
        <ele>1376.4</ele>
        <time>2018-07-22T09:33:35.000Z</time>
      </trkpt>
      <trkpt lat="42.288994" lon="-0.478077">
        <ele>1376.4</ele>
        <time>2018-07-22T09:33:36.000Z</time>
      </trkpt>
      <trkpt lat="42.288996" lon="-0.478078">
        <ele>1376.4</ele>
        <time>2018-07-22T09:33:37.000Z</time>
      </trkpt>
      <trkpt lat="42.289003" lon="-0.478076">
        <ele>1376.2</ele>
        <time>2018-07-22T09:33:38.000Z</time>
      </trkpt>
      <trkpt lat="42.289012" lon="-0.478069">
        <ele>1375.8</ele>
        <time>2018-07-22T09:33:39.000Z</time>
      </trkpt>
      <trkpt lat="42.289015" lon="-0.478058">
        <ele>1375.4</ele>
        <time>2018-07-22T09:33:40.000Z</time>
      </trkpt>
      <trkpt lat="42.289013" lon="-0.478046">
        <ele>1375.0</ele>
        <time>2018-07-22T09:33:41.000Z</time>
      </trkpt>
      <trkpt lat="42.289008" lon="-0.478034">
        <ele>1374.8</ele>
        <time>2018-07-22T09:33:42.000Z</time>
      </trkpt>
      <trkpt lat="42.289002" lon="-0.478023">
        <ele>1374.6</ele>
        <time>2018-07-22T09:33:43.000Z</time>
      </trkpt>
      <trkpt lat="42.288994" lon="-0.478013">
        <ele>1374.4</ele>
        <time>2018-07-22T09:33:44.000Z</time>
      </trkpt>
      <trkpt lat="42.288986" lon="-0.478003">
        <ele>1374.2</ele>
        <time>2018-07-22T09:33:45.000Z</time>
      </trkpt>
      <trkpt lat="42.288978" lon="-0.477993">
        <ele>1374.1</ele>
        <time>2018-07-22T09:33:46.000Z</time>
      </trkpt>
      <trkpt lat="42.288969" lon="-0.477982">
        <ele>1373.9</ele>
        <time>2018-07-22T09:33:47.000Z</time>
      </trkpt>
      <trkpt lat="42.288961" lon="-0.477972">
        <ele>1373.8</ele>
        <time>2018-07-22T09:33:48.000Z</time>
      </trkpt>
      <trkpt lat="42.288954" lon="-0.47796">
        <ele>1373.5</ele>
        <time>2018-07-22T09:33:49.000Z</time>
      </trkpt>
      <trkpt lat="42.288947" lon="-0.477948">
        <ele>1373.3</ele>
        <time>2018-07-22T09:33:50.000Z</time>
      </trkpt>
      <trkpt lat="42.288941" lon="-0.477936">
        <ele>1373.1</ele>
        <time>2018-07-22T09:33:51.000Z</time>
      </trkpt>
      <trkpt lat="42.288936" lon="-0.477923">
        <ele>1372.8</ele>
        <time>2018-07-22T09:33:52.000Z</time>
      </trkpt>
      <trkpt lat="42.288933" lon="-0.477911">
        <ele>1372.5</ele>
        <time>2018-07-22T09:33:53.000Z</time>
      </trkpt>
      <trkpt lat="42.288931" lon="-0.477899">
        <ele>1372.1</ele>
        <time>2018-07-22T09:33:54.000Z</time>
      </trkpt>
      <trkpt lat="42.28893" lon="-0.477888">
        <ele>1371.8</ele>
        <time>2018-07-22T09:33:55.000Z</time>
      </trkpt>
      <trkpt lat="42.288932" lon="-0.477878">
        <ele>1371.5</ele>
        <time>2018-07-22T09:33:56.000Z</time>
      </trkpt>
      <trkpt lat="42.288935" lon="-0.47787">
        <ele>1371.1</ele>
        <time>2018-07-22T09:33:57.000Z</time>
      </trkpt>
      <trkpt lat="42.288941" lon="-0.477865">
        <ele>1370.9</ele>
        <time>2018-07-22T09:33:58.000Z</time>
      </trkpt>
      <trkpt lat="42.28895" lon="-0.477863">
        <ele>1370.6</ele>
        <time>2018-07-22T09:33:59.000Z</time>
      </trkpt>
      <trkpt lat="42.28896" lon="-0.477863">
        <ele>1370.4</ele>
        <time>2018-07-22T09:34:00.000Z</time>
      </trkpt>
      <trkpt lat="42.288972" lon="-0.477866">
        <ele>1370.3</ele>
        <time>2018-07-22T09:34:01.000Z</time>
      </trkpt>
      <trkpt lat="42.288984" lon="-0.477871">
        <ele>1370.2</ele>
        <time>2018-07-22T09:34:02.000Z</time>
      </trkpt>
      <trkpt lat="42.288996" lon="-0.477877">
        <ele>1370.2</ele>
        <time>2018-07-22T09:34:03.000Z</time>
      </trkpt>
      <trkpt lat="42.289007" lon="-0.477885">
        <ele>1370.2</ele>
        <time>2018-07-22T09:34:04.000Z</time>
      </trkpt>
      <trkpt lat="42.289018" lon="-0.477895">
        <ele>1370.3</ele>
        <time>2018-07-22T09:34:05.000Z</time>
      </trkpt>
      <trkpt lat="42.289028" lon="-0.477904">
        <ele>1370.4</ele>
        <time>2018-07-22T09:34:06.000Z</time>
      </trkpt>
      <trkpt lat="42.289038" lon="-0.477914">
        <ele>1370.5</ele>
        <time>2018-07-22T09:34:07.000Z</time>
      </trkpt>
      <trkpt lat="42.289048" lon="-0.477924">
        <ele>1370.6</ele>
        <time>2018-07-22T09:34:08.000Z</time>
      </trkpt>
      <trkpt lat="42.289059" lon="-0.477932">
        <ele>1370.6</ele>
        <time>2018-07-22T09:34:09.000Z</time>
      </trkpt>
      <trkpt lat="42.289071" lon="-0.47794">
        <ele>1370.6</ele>
        <time>2018-07-22T09:34:10.000Z</time>
      </trkpt>
      <trkpt lat="42.289083" lon="-0.477946">
        <ele>1370.6</ele>
        <time>2018-07-22T09:34:11.000Z</time>
      </trkpt>
      <trkpt lat="42.289095" lon="-0.477952">
        <ele>1370.5</ele>
        <time>2018-07-22T09:34:12.000Z</time>
      </trkpt>
      <trkpt lat="42.289108" lon="-0.477958">
        <ele>1370.4</ele>
        <time>2018-07-22T09:34:13.000Z</time>
      </trkpt>
      <trkpt lat="42.289119" lon="-0.477964">
        <ele>1370.4</ele>
        <time>2018-07-22T09:34:14.000Z</time>
      </trkpt>
      <trkpt lat="42.289131" lon="-0.477971">
        <ele>1370.4</ele>
        <time>2018-07-22T09:34:15.000Z</time>
      </trkpt>
      <trkpt lat="42.289141" lon="-0.477978">
        <ele>1370.4</ele>
        <time>2018-07-22T09:34:16.000Z</time>
      </trkpt>
      <trkpt lat="42.289151" lon="-0.477986">
        <ele>1370.5</ele>
        <time>2018-07-22T09:34:17.000Z</time>
      </trkpt>
      <trkpt lat="42.289161" lon="-0.477994">
        <ele>1370.5</ele>
        <time>2018-07-22T09:34:18.000Z</time>
      </trkpt>
      <trkpt lat="42.289171" lon="-0.478003">
        <ele>1370.6</ele>
        <time>2018-07-22T09:34:19.000Z</time>
      </trkpt>
      <trkpt lat="42.28918" lon="-0.478011">
        <ele>1370.8</ele>
        <time>2018-07-22T09:34:20.000Z</time>
      </trkpt>
      <trkpt lat="42.289189" lon="-0.47802">
        <ele>1371.0</ele>
        <time>2018-07-22T09:34:21.000Z</time>
      </trkpt>
      <trkpt lat="42.289199" lon="-0.478028">
        <ele>1371.1</ele>
        <time>2018-07-22T09:34:22.000Z</time>
      </trkpt>
      <trkpt lat="42.289208" lon="-0.478036">
        <ele>1371.3</ele>
        <time>2018-07-22T09:34:23.000Z</time>
      </trkpt>
      <trkpt lat="42.289218" lon="-0.478044">
        <ele>1371.4</ele>
        <time>2018-07-22T09:34:24.000Z</time>
      </trkpt>
      <trkpt lat="42.289229" lon="-0.478051">
        <ele>1371.5</ele>
        <time>2018-07-22T09:34:25.000Z</time>
      </trkpt>
      <trkpt lat="42.289239" lon="-0.478057">
        <ele>1371.5</ele>
        <time>2018-07-22T09:34:26.000Z</time>
      </trkpt>
      <trkpt lat="42.28925" lon="-0.478063">
        <ele>1371.6</ele>
        <time>2018-07-22T09:34:27.000Z</time>
      </trkpt>
      <trkpt lat="42.289262" lon="-0.478069">
        <ele>1371.6</ele>
        <time>2018-07-22T09:34:28.000Z</time>
      </trkpt>
      <trkpt lat="42.289273" lon="-0.478075">
        <ele>1371.7</ele>
        <time>2018-07-22T09:34:29.000Z</time>
      </trkpt>
      <trkpt lat="42.289285" lon="-0.478081">
        <ele>1371.7</ele>
        <time>2018-07-22T09:34:30.000Z</time>
      </trkpt>
      <trkpt lat="42.289297" lon="-0.478088">
        <ele>1371.8</ele>
        <time>2018-07-22T09:34:31.000Z</time>
      </trkpt>
      <trkpt lat="42.289308" lon="-0.478094">
        <ele>1371.8</ele>
        <time>2018-07-22T09:34:32.000Z</time>
      </trkpt>
      <trkpt lat="42.28932" lon="-0.4781">
        <ele>1371.8</ele>
        <time>2018-07-22T09:34:33.000Z</time>
      </trkpt>
      <trkpt lat="42.289332" lon="-0.478106">
        <ele>1371.8</ele>
        <time>2018-07-22T09:34:34.000Z</time>
      </trkpt>
      <trkpt lat="42.289344" lon="-0.478111">
        <ele>1371.8</ele>
        <time>2018-07-22T09:34:35.000Z</time>
      </trkpt>
      <trkpt lat="42.289357" lon="-0.478116">
        <ele>1371.8</ele>
        <time>2018-07-22T09:34:36.000Z</time>
      </trkpt>
      <trkpt lat="42.289369" lon="-0.47812">
        <ele>1371.8</ele>
        <time>2018-07-22T09:34:37.000Z</time>
      </trkpt>
      <trkpt lat="42.289381" lon="-0.478123">
        <ele>1371.7</ele>
        <time>2018-07-22T09:34:38.000Z</time>
      </trkpt>
      <trkpt lat="42.289394" lon="-0.478126">
        <ele>1371.6</ele>
        <time>2018-07-22T09:34:39.000Z</time>
      </trkpt>
      <trkpt lat="42.289406" lon="-0.478129">
        <ele>1371.5</ele>
        <time>2018-07-22T09:34:40.000Z</time>
      </trkpt>
      <trkpt lat="42.289419" lon="-0.478132">
        <ele>1371.4</ele>
        <time>2018-07-22T09:34:41.000Z</time>
      </trkpt>
      <trkpt lat="42.289431" lon="-0.478135">
        <ele>1371.4</ele>
        <time>2018-07-22T09:34:42.000Z</time>
      </trkpt>
      <trkpt lat="42.289443" lon="-0.478137">
        <ele>1371.2</ele>
        <time>2018-07-22T09:34:43.000Z</time>
      </trkpt>
      <trkpt lat="42.289455" lon="-0.478141">
        <ele>1371.2</ele>
        <time>2018-07-22T09:34:44.000Z</time>
      </trkpt>
      <trkpt lat="42.289468" lon="-0.478144">
        <ele>1371.1</ele>
        <time>2018-07-22T09:34:45.000Z</time>
      </trkpt>
      <trkpt lat="42.28948" lon="-0.478148">
        <ele>1371.0</ele>
        <time>2018-07-22T09:34:46.000Z</time>
      </trkpt>
      <trkpt lat="42.289492" lon="-0.478152">
        <ele>1371.0</ele>
        <time>2018-07-22T09:34:47.000Z</time>
      </trkpt>
      <trkpt lat="42.289503" lon="-0.478157">
        <ele>1371.0</ele>
        <time>2018-07-22T09:34:48.000Z</time>
      </trkpt>
      <trkpt lat="42.289515" lon="-0.478163">
        <ele>1370.9</ele>
        <time>2018-07-22T09:34:49.000Z</time>
      </trkpt>
      <trkpt lat="42.289527" lon="-0.478169">
        <ele>1370.9</ele>
        <time>2018-07-22T09:34:50.000Z</time>
      </trkpt>
      <trkpt lat="42.289538" lon="-0.478175">
        <ele>1370.9</ele>
        <time>2018-07-22T09:34:51.000Z</time>
      </trkpt>
      <trkpt lat="42.28955" lon="-0.478182">
        <ele>1370.9</ele>
        <time>2018-07-22T09:34:52.000Z</time>
      </trkpt>
      <trkpt lat="42.289561" lon="-0.478189">
        <ele>1370.9</ele>
        <time>2018-07-22T09:34:53.000Z</time>
      </trkpt>
      <trkpt lat="42.289573" lon="-0.478197">
        <ele>1371.0</ele>
        <time>2018-07-22T09:34:54.000Z</time>
      </trkpt>
      <trkpt lat="42.289584" lon="-0.478205">
        <ele>1371.0</ele>
        <time>2018-07-22T09:34:55.000Z</time>
      </trkpt>
      <trkpt lat="42.289595" lon="-0.478213">
        <ele>1371.0</ele>
        <time>2018-07-22T09:34:56.000Z</time>
      </trkpt>
      <trkpt lat="42.289606" lon="-0.478222">
        <ele>1371.1</ele>
        <time>2018-07-22T09:34:57.000Z</time>
      </trkpt>
      <trkpt lat="42.289617" lon="-0.478231">
        <ele>1371.1</ele>
        <time>2018-07-22T09:34:58.000Z</time>
      </trkpt>
      <trkpt lat="42.289627" lon="-0.47824">
        <ele>1371.2</ele>
        <time>2018-07-22T09:34:59.000Z</time>
      </trkpt>
      <trkpt lat="42.289638" lon="-0.47825">
        <ele>1371.2</ele>
        <time>2018-07-22T09:35:00.000Z</time>
      </trkpt>
      <trkpt lat="42.289649" lon="-0.478259">
        <ele>1371.2</ele>
        <time>2018-07-22T09:35:01.000Z</time>
      </trkpt>
      <trkpt lat="42.28966" lon="-0.478268">
        <ele>1371.3</ele>
        <time>2018-07-22T09:35:02.000Z</time>
      </trkpt>
      <trkpt lat="42.289671" lon="-0.478277">
        <ele>1371.3</ele>
        <time>2018-07-22T09:35:03.000Z</time>
      </trkpt>
      <trkpt lat="42.289682" lon="-0.478285">
        <ele>1371.3</ele>
        <time>2018-07-22T09:35:04.000Z</time>
      </trkpt>
      <trkpt lat="42.289693" lon="-0.478292">
        <ele>1371.3</ele>
        <time>2018-07-22T09:35:05.000Z</time>
      </trkpt>
      <trkpt lat="42.289704" lon="-0.478299">
        <ele>1371.2</ele>
        <time>2018-07-22T09:35:06.000Z</time>
      </trkpt>
      <trkpt lat="42.289716" lon="-0.478304">
        <ele>1371.2</ele>
        <time>2018-07-22T09:35:07.000Z</time>
      </trkpt>
      <trkpt lat="42.289728" lon="-0.478308">
        <ele>1371.0</ele>
        <time>2018-07-22T09:35:08.000Z</time>
      </trkpt>
      <trkpt lat="42.28974" lon="-0.478311">
        <ele>1370.9</ele>
        <time>2018-07-22T09:35:09.000Z</time>
      </trkpt>
      <trkpt lat="42.289752" lon="-0.478313">
        <ele>1370.8</ele>
        <time>2018-07-22T09:35:10.000Z</time>
      </trkpt>
      <trkpt lat="42.289765" lon="-0.478314">
        <ele>1370.6</ele>
        <time>2018-07-22T09:35:11.000Z</time>
      </trkpt>
      <trkpt lat="42.289778" lon="-0.478313">
        <ele>1370.3</ele>
        <time>2018-07-22T09:35:12.000Z</time>
      </trkpt>
      <trkpt lat="42.289791" lon="-0.478313">
        <ele>1370.1</ele>
        <time>2018-07-22T09:35:13.000Z</time>
      </trkpt>
      <trkpt lat="42.289804" lon="-0.478311">
        <ele>1369.9</ele>
        <time>2018-07-22T09:35:14.000Z</time>
      </trkpt>
      <trkpt lat="42.289817" lon="-0.478309">
        <ele>1369.6</ele>
        <time>2018-07-22T09:35:15.000Z</time>
      </trkpt>
      <trkpt lat="42.289831" lon="-0.478307">
        <ele>1369.3</ele>
        <time>2018-07-22T09:35:16.000Z</time>
      </trkpt>
      <trkpt lat="42.289844" lon="-0.478305">
        <ele>1369.1</ele>
        <time>2018-07-22T09:35:17.000Z</time>
      </trkpt>
      <trkpt lat="42.289858" lon="-0.478303">
        <ele>1368.8</ele>
        <time>2018-07-22T09:35:18.000Z</time>
      </trkpt>
      <trkpt lat="42.289872" lon="-0.478301">
        <ele>1368.6</ele>
        <time>2018-07-22T09:35:19.000Z</time>
      </trkpt>
      <trkpt lat="42.289885" lon="-0.478299">
        <ele>1368.3</ele>
        <time>2018-07-22T09:35:20.000Z</time>
      </trkpt>
      <trkpt lat="42.289899" lon="-0.478298">
        <ele>1368.1</ele>
        <time>2018-07-22T09:35:21.000Z</time>
      </trkpt>
      <trkpt lat="42.289912" lon="-0.478297">
        <ele>1367.9</ele>
        <time>2018-07-22T09:35:22.000Z</time>
      </trkpt>
      <trkpt lat="42.289925" lon="-0.478297">
        <ele>1367.6</ele>
        <time>2018-07-22T09:35:23.000Z</time>
      </trkpt>
      <trkpt lat="42.289939" lon="-0.478296">
        <ele>1367.4</ele>
        <time>2018-07-22T09:35:24.000Z</time>
      </trkpt>
      <trkpt lat="42.289952" lon="-0.478296">
        <ele>1367.2</ele>
        <time>2018-07-22T09:35:25.000Z</time>
      </trkpt>
      <trkpt lat="42.289966" lon="-0.478297">
        <ele>1367.0</ele>
        <time>2018-07-22T09:35:26.000Z</time>
      </trkpt>
      <trkpt lat="42.289979" lon="-0.478297">
        <ele>1366.8</ele>
        <time>2018-07-22T09:35:27.000Z</time>
      </trkpt>
      <trkpt lat="42.289992" lon="-0.478298">
        <ele>1366.6</ele>
        <time>2018-07-22T09:35:28.000Z</time>
      </trkpt>
      <trkpt lat="42.290006" lon="-0.478299">
        <ele>1366.4</ele>
        <time>2018-07-22T09:35:29.000Z</time>
      </trkpt>
      <trkpt lat="42.290019" lon="-0.4783">
        <ele>1366.3</ele>
        <time>2018-07-22T09:35:30.000Z</time>
      </trkpt>
      <trkpt lat="42.290032" lon="-0.478302">
        <ele>1366.1</ele>
        <time>2018-07-22T09:35:31.000Z</time>
      </trkpt>
      <trkpt lat="42.290045" lon="-0.478304">
        <ele>1366.0</ele>
        <time>2018-07-22T09:35:32.000Z</time>
      </trkpt>
      <trkpt lat="42.290059" lon="-0.478306">
        <ele>1365.9</ele>
        <time>2018-07-22T09:35:33.000Z</time>
      </trkpt>
      <trkpt lat="42.290072" lon="-0.478308">
        <ele>1365.8</ele>
        <time>2018-07-22T09:35:34.000Z</time>
      </trkpt>
      <trkpt lat="42.290085" lon="-0.47831">
        <ele>1365.6</ele>
        <time>2018-07-22T09:35:35.000Z</time>
      </trkpt>
      <trkpt lat="42.290098" lon="-0.478313">
        <ele>1365.5</ele>
        <time>2018-07-22T09:35:36.000Z</time>
      </trkpt>
      <trkpt lat="42.290111" lon="-0.478315">
        <ele>1365.4</ele>
        <time>2018-07-22T09:35:37.000Z</time>
      </trkpt>
      <trkpt lat="42.290124" lon="-0.478318">
        <ele>1365.3</ele>
        <time>2018-07-22T09:35:38.000Z</time>
      </trkpt>
      <trkpt lat="42.290137" lon="-0.478322">
        <ele>1365.2</ele>
        <time>2018-07-22T09:35:39.000Z</time>
      </trkpt>
      <trkpt lat="42.29015" lon="-0.478325">
        <ele>1365.1</ele>
        <time>2018-07-22T09:35:40.000Z</time>
      </trkpt>
      <trkpt lat="42.290163" lon="-0.478329">
        <ele>1365.0</ele>
        <time>2018-07-22T09:35:41.000Z</time>
      </trkpt>
      <trkpt lat="42.290176" lon="-0.478332">
        <ele>1364.9</ele>
        <time>2018-07-22T09:35:42.000Z</time>
      </trkpt>
      <trkpt lat="42.290189" lon="-0.478336">
        <ele>1364.8</ele>
        <time>2018-07-22T09:35:43.000Z</time>
      </trkpt>
      <trkpt lat="42.290202" lon="-0.478341">
        <ele>1364.7</ele>
        <time>2018-07-22T09:35:44.000Z</time>
      </trkpt>
      <trkpt lat="42.290215" lon="-0.478345">
        <ele>1364.6</ele>
        <time>2018-07-22T09:35:45.000Z</time>
      </trkpt>
      <trkpt lat="42.290227" lon="-0.47835">
        <ele>1364.6</ele>
        <time>2018-07-22T09:35:46.000Z</time>
      </trkpt>
      <trkpt lat="42.29024" lon="-0.478355">
        <ele>1364.5</ele>
        <time>2018-07-22T09:35:47.000Z</time>
      </trkpt>
      <trkpt lat="42.290252" lon="-0.47836">
        <ele>1364.5</ele>
        <time>2018-07-22T09:35:48.000Z</time>
      </trkpt>
      <trkpt lat="42.290265" lon="-0.478365">
        <ele>1364.4</ele>
        <time>2018-07-22T09:35:49.000Z</time>
      </trkpt>
      <trkpt lat="42.290277" lon="-0.478371">
        <ele>1364.4</ele>
        <time>2018-07-22T09:35:50.000Z</time>
      </trkpt>
      <trkpt lat="42.290289" lon="-0.478376">
        <ele>1364.3</ele>
        <time>2018-07-22T09:35:51.000Z</time>
      </trkpt>
      <trkpt lat="42.290301" lon="-0.478382">
        <ele>1364.2</ele>
        <time>2018-07-22T09:35:52.000Z</time>
      </trkpt>
      <trkpt lat="42.290313" lon="-0.478388">
        <ele>1364.2</ele>
        <time>2018-07-22T09:35:53.000Z</time>
      </trkpt>
      <trkpt lat="42.290326" lon="-0.478395">
        <ele>1364.2</ele>
        <time>2018-07-22T09:35:54.000Z</time>
      </trkpt>
      <trkpt lat="42.290338" lon="-0.478401">
        <ele>1364.1</ele>
        <time>2018-07-22T09:35:55.000Z</time>
      </trkpt>
      <trkpt lat="42.29035" lon="-0.478407">
        <ele>1364.1</ele>
        <time>2018-07-22T09:35:56.000Z</time>
      </trkpt>
      <trkpt lat="42.290362" lon="-0.478414">
        <ele>1364.0</ele>
        <time>2018-07-22T09:35:57.000Z</time>
      </trkpt>
      <trkpt lat="42.290374" lon="-0.47842">
        <ele>1364.0</ele>
        <time>2018-07-22T09:35:58.000Z</time>
      </trkpt>
      <trkpt lat="42.290386" lon="-0.478427">
        <ele>1363.9</ele>
        <time>2018-07-22T09:35:59.000Z</time>
      </trkpt>
      <trkpt lat="42.290398" lon="-0.478433">
        <ele>1363.9</ele>
        <time>2018-07-22T09:36:00.000Z</time>
      </trkpt>
      <trkpt lat="42.290411" lon="-0.47844">
        <ele>1363.8</ele>
        <time>2018-07-22T09:36:01.000Z</time>
      </trkpt>
      <trkpt lat="42.290423" lon="-0.478448">
        <ele>1363.8</ele>
        <time>2018-07-22T09:36:02.000Z</time>
      </trkpt>
      <trkpt lat="42.290435" lon="-0.478455">
        <ele>1363.7</ele>
        <time>2018-07-22T09:36:03.000Z</time>
      </trkpt>
      <trkpt lat="42.290447" lon="-0.478464">
        <ele>1363.7</ele>
        <time>2018-07-22T09:36:04.000Z</time>
      </trkpt>
      <trkpt lat="42.290458" lon="-0.478472">
        <ele>1363.7</ele>
        <time>2018-07-22T09:36:05.000Z</time>
      </trkpt>
      <trkpt lat="42.29047" lon="-0.478481">
        <ele>1363.7</ele>
        <time>2018-07-22T09:36:06.000Z</time>
      </trkpt>
      <trkpt lat="42.290482" lon="-0.47849">
        <ele>1363.6</ele>
        <time>2018-07-22T09:36:07.000Z</time>
      </trkpt>
      <trkpt lat="42.290493" lon="-0.4785">
        <ele>1363.6</ele>
        <time>2018-07-22T09:36:08.000Z</time>
      </trkpt>
      <trkpt lat="42.290505" lon="-0.478509">
        <ele>1363.6</ele>
        <time>2018-07-22T09:36:09.000Z</time>
      </trkpt>
      <trkpt lat="42.290516" lon="-0.478519">
        <ele>1363.6</ele>
        <time>2018-07-22T09:36:10.000Z</time>
      </trkpt>
      <trkpt lat="42.290527" lon="-0.478529">
        <ele>1363.6</ele>
        <time>2018-07-22T09:36:11.000Z</time>
      </trkpt>
      <trkpt lat="42.290539" lon="-0.478539">
        <ele>1363.5</ele>
        <time>2018-07-22T09:36:12.000Z</time>
      </trkpt>
      <trkpt lat="42.29055" lon="-0.478548">
        <ele>1363.5</ele>
        <time>2018-07-22T09:36:13.000Z</time>
      </trkpt>
      <trkpt lat="42.290561" lon="-0.478558">
        <ele>1363.5</ele>
        <time>2018-07-22T09:36:14.000Z</time>
      </trkpt>
      <trkpt lat="42.290573" lon="-0.478568">
        <ele>1363.5</ele>
        <time>2018-07-22T09:36:15.000Z</time>
      </trkpt>
      <trkpt lat="42.290584" lon="-0.478577">
        <ele>1363.4</ele>
        <time>2018-07-22T09:36:16.000Z</time>
      </trkpt>
      <trkpt lat="42.290595" lon="-0.478587">
        <ele>1363.4</ele>
        <time>2018-07-22T09:36:17.000Z</time>
      </trkpt>
      <trkpt lat="42.290606" lon="-0.478596">
        <ele>1363.3</ele>
        <time>2018-07-22T09:36:18.000Z</time>
      </trkpt>
      <trkpt lat="42.290617" lon="-0.478606">
        <ele>1363.3</ele>
        <time>2018-07-22T09:36:19.000Z</time>
      </trkpt>
      <trkpt lat="42.290628" lon="-0.478616">
        <ele>1363.3</ele>
        <time>2018-07-22T09:36:20.000Z</time>
      </trkpt>
      <trkpt lat="42.290639" lon="-0.478626">
        <ele>1363.2</ele>
        <time>2018-07-22T09:36:21.000Z</time>
      </trkpt>
      <trkpt lat="42.29065" lon="-0.478636">
        <ele>1363.2</ele>
        <time>2018-07-22T09:36:22.000Z</time>
      </trkpt>
      <trkpt lat="42.29066" lon="-0.478646">
        <ele>1363.2</ele>
        <time>2018-07-22T09:36:23.000Z</time>
      </trkpt>
      <trkpt lat="42.29067" lon="-0.478657">
        <ele>1363.1</ele>
        <time>2018-07-22T09:36:24.000Z</time>
      </trkpt>
      <trkpt lat="42.290681" lon="-0.478669">
        <ele>1363.1</ele>
        <time>2018-07-22T09:36:25.000Z</time>
      </trkpt>
      <trkpt lat="42.290691" lon="-0.47868">
        <ele>1363.1</ele>
        <time>2018-07-22T09:36:26.000Z</time>
      </trkpt>
      <trkpt lat="42.290701" lon="-0.478692">
        <ele>1363.1</ele>
        <time>2018-07-22T09:36:27.000Z</time>
      </trkpt>
      <trkpt lat="42.290711" lon="-0.478704">
        <ele>1363.1</ele>
        <time>2018-07-22T09:36:28.000Z</time>
      </trkpt>
      <trkpt lat="42.290721" lon="-0.478716">
        <ele>1363.0</ele>
        <time>2018-07-22T09:36:29.000Z</time>
      </trkpt>
      <trkpt lat="42.290731" lon="-0.478728">
        <ele>1363.0</ele>
        <time>2018-07-22T09:36:30.000Z</time>
      </trkpt>
      <trkpt lat="42.29074" lon="-0.47874">
        <ele>1363.0</ele>
        <time>2018-07-22T09:36:31.000Z</time>
      </trkpt>
      <trkpt lat="42.29075" lon="-0.478752">
        <ele>1363.0</ele>
        <time>2018-07-22T09:36:32.000Z</time>
      </trkpt>
      <trkpt lat="42.29076" lon="-0.478764">
        <ele>1362.9</ele>
        <time>2018-07-22T09:36:33.000Z</time>
      </trkpt>
      <trkpt lat="42.29077" lon="-0.478776">
        <ele>1362.9</ele>
        <time>2018-07-22T09:36:34.000Z</time>
      </trkpt>
      <trkpt lat="42.290781" lon="-0.478787">
        <ele>1362.8</ele>
        <time>2018-07-22T09:36:35.000Z</time>
      </trkpt>
      <trkpt lat="42.290791" lon="-0.478798">
        <ele>1362.8</ele>
        <time>2018-07-22T09:36:36.000Z</time>
      </trkpt>
      <trkpt lat="42.290802" lon="-0.478809">
        <ele>1362.7</ele>
        <time>2018-07-22T09:36:37.000Z</time>
      </trkpt>
      <trkpt lat="42.290812" lon="-0.478819">
        <ele>1362.6</ele>
        <time>2018-07-22T09:36:38.000Z</time>
      </trkpt>
      <trkpt lat="42.290823" lon="-0.478829">
        <ele>1362.5</ele>
        <time>2018-07-22T09:36:39.000Z</time>
      </trkpt>
      <trkpt lat="42.290834" lon="-0.478838">
        <ele>1362.5</ele>
        <time>2018-07-22T09:36:40.000Z</time>
      </trkpt>
      <trkpt lat="42.290844" lon="-0.478847">
        <ele>1362.6</ele>
        <time>2018-07-22T09:36:41.000Z</time>
      </trkpt>
      <trkpt lat="42.290855" lon="-0.478855">
        <ele>1362.6</ele>
        <time>2018-07-22T09:36:42.000Z</time>
      </trkpt>
      <trkpt lat="42.290866" lon="-0.478863">
        <ele>1362.7</ele>
        <time>2018-07-22T09:36:43.000Z</time>
      </trkpt>
      <trkpt lat="42.290877" lon="-0.47887">
        <ele>1362.8</ele>
        <time>2018-07-22T09:36:44.000Z</time>
      </trkpt>
      <trkpt lat="42.290888" lon="-0.478876">
        <ele>1362.9</ele>
        <time>2018-07-22T09:36:45.000Z</time>
      </trkpt>
      <trkpt lat="42.290898" lon="-0.478881">
        <ele>1362.9</ele>
        <time>2018-07-22T09:36:46.000Z</time>
      </trkpt>
      <trkpt lat="42.290909" lon="-0.478886">
        <ele>1363.0</ele>
        <time>2018-07-22T09:36:47.000Z</time>
      </trkpt>
      <trkpt lat="42.290919" lon="-0.47889">
        <ele>1363.0</ele>
        <time>2018-07-22T09:36:48.000Z</time>
      </trkpt>
      <trkpt lat="42.29093" lon="-0.478892">
        <ele>1363.0</ele>
        <time>2018-07-22T09:36:49.000Z</time>
      </trkpt>
      <trkpt lat="42.29094" lon="-0.478894">
        <ele>1363.0</ele>
        <time>2018-07-22T09:36:50.000Z</time>
      </trkpt>
      <trkpt lat="42.290949" lon="-0.478893">
        <ele>1363.0</ele>
        <time>2018-07-22T09:36:51.000Z</time>
      </trkpt>
      <trkpt lat="42.290959" lon="-0.47889">
        <ele>1363.0</ele>
        <time>2018-07-22T09:36:52.000Z</time>
      </trkpt>
      <trkpt lat="42.290968" lon="-0.478886">
        <ele>1363.0</ele>
        <time>2018-07-22T09:36:53.000Z</time>
      </trkpt>
      <trkpt lat="42.290976" lon="-0.47888">
        <ele>1362.9</ele>
        <time>2018-07-22T09:36:54.000Z</time>
      </trkpt>
      <trkpt lat="42.290985" lon="-0.478872">
        <ele>1362.9</ele>
        <time>2018-07-22T09:36:55.000Z</time>
      </trkpt>
      <trkpt lat="42.290993" lon="-0.478862">
        <ele>1362.8</ele>
        <time>2018-07-22T09:36:56.000Z</time>
      </trkpt>
      <trkpt lat="42.291" lon="-0.478852">
        <ele>1362.7</ele>
        <time>2018-07-22T09:36:57.000Z</time>
      </trkpt>
      <trkpt lat="42.291008" lon="-0.478841">
        <ele>1362.6</ele>
        <time>2018-07-22T09:36:58.000Z</time>
      </trkpt>
      <trkpt lat="42.291015" lon="-0.47883">
        <ele>1362.5</ele>
        <time>2018-07-22T09:36:59.000Z</time>
      </trkpt>
      <trkpt lat="42.291022" lon="-0.478818">
        <ele>1362.4</ele>
        <time>2018-07-22T09:37:00.000Z</time>
      </trkpt>
      <trkpt lat="42.291029" lon="-0.478805">
        <ele>1362.3</ele>
        <time>2018-07-22T09:37:01.000Z</time>
      </trkpt>
      <trkpt lat="42.291036" lon="-0.478792">
        <ele>1362.2</ele>
        <time>2018-07-22T09:37:02.000Z</time>
      </trkpt>
      <trkpt lat="42.291043" lon="-0.478779">
        <ele>1362.1</ele>
        <time>2018-07-22T09:37:03.000Z</time>
      </trkpt>
      <trkpt lat="42.291049" lon="-0.478765">
        <ele>1362.0</ele>
        <time>2018-07-22T09:37:04.000Z</time>
      </trkpt>
      <trkpt lat="42.291056" lon="-0.47875">
        <ele>1361.9</ele>
        <time>2018-07-22T09:37:05.000Z</time>
      </trkpt>
      <trkpt lat="42.291063" lon="-0.478735">
        <ele>1361.8</ele>
        <time>2018-07-22T09:37:06.000Z</time>
      </trkpt>
      <trkpt lat="42.291069" lon="-0.47872">
        <ele>1361.7</ele>
        <time>2018-07-22T09:37:07.000Z</time>
      </trkpt>
      <trkpt lat="42.291076" lon="-0.478705">
        <ele>1361.6</ele>
        <time>2018-07-22T09:37:08.000Z</time>
      </trkpt>
      <trkpt lat="42.291082" lon="-0.478689">
        <ele>1361.5</ele>
        <time>2018-07-22T09:37:09.000Z</time>
      </trkpt>
      <trkpt lat="42.291089" lon="-0.478673">
        <ele>1361.4</ele>
        <time>2018-07-22T09:37:10.000Z</time>
      </trkpt>
      <trkpt lat="42.291096" lon="-0.478657">
        <ele>1361.3</ele>
        <time>2018-07-22T09:37:11.000Z</time>
      </trkpt>
      <trkpt lat="42.291103" lon="-0.47864">
        <ele>1361.2</ele>
        <time>2018-07-22T09:37:12.000Z</time>
      </trkpt>
      <trkpt lat="42.291109" lon="-0.478624">
        <ele>1361.1</ele>
        <time>2018-07-22T09:37:13.000Z</time>
      </trkpt>
      <trkpt lat="42.291116" lon="-0.478607">
        <ele>1361.0</ele>
        <time>2018-07-22T09:37:14.000Z</time>
      </trkpt>
      <trkpt lat="42.291123" lon="-0.478591">
        <ele>1360.9</ele>
        <time>2018-07-22T09:37:15.000Z</time>
      </trkpt>
      <trkpt lat="42.29113" lon="-0.478575">
        <ele>1360.8</ele>
        <time>2018-07-22T09:37:16.000Z</time>
      </trkpt>
      <trkpt lat="42.291136" lon="-0.478558">
        <ele>1360.7</ele>
        <time>2018-07-22T09:37:17.000Z</time>
      </trkpt>
      <trkpt lat="42.291143" lon="-0.478542">
        <ele>1360.6</ele>
        <time>2018-07-22T09:37:18.000Z</time>
      </trkpt>
      <trkpt lat="42.291149" lon="-0.478527">
        <ele>1360.6</ele>
        <time>2018-07-22T09:37:19.000Z</time>
      </trkpt>
      <trkpt lat="42.291156" lon="-0.478511">
        <ele>1360.5</ele>
        <time>2018-07-22T09:37:20.000Z</time>
      </trkpt>
      <trkpt lat="42.291162" lon="-0.478496">
        <ele>1360.4</ele>
        <time>2018-07-22T09:37:21.000Z</time>
      </trkpt>
      <trkpt lat="42.291168" lon="-0.478481">
        <ele>1360.4</ele>
        <time>2018-07-22T09:37:22.000Z</time>
      </trkpt>
      <trkpt lat="42.291175" lon="-0.478466">
        <ele>1360.3</ele>
        <time>2018-07-22T09:37:23.000Z</time>
      </trkpt>
      <trkpt lat="42.291181" lon="-0.478451">
        <ele>1360.2</ele>
        <time>2018-07-22T09:37:24.000Z</time>
      </trkpt>
      <trkpt lat="42.291187" lon="-0.478436">
        <ele>1360.2</ele>
        <time>2018-07-22T09:37:25.000Z</time>
      </trkpt>
      <trkpt lat="42.291194" lon="-0.478422">
        <ele>1360.1</ele>
        <time>2018-07-22T09:37:26.000Z</time>
      </trkpt>
      <trkpt lat="42.2912" lon="-0.478407">
        <ele>1360.1</ele>
        <time>2018-07-22T09:37:27.000Z</time>
      </trkpt>
      <trkpt lat="42.291207" lon="-0.478393">
        <ele>1360.0</ele>
        <time>2018-07-22T09:37:28.000Z</time>
      </trkpt>
      <trkpt lat="42.291214" lon="-0.478379">
        <ele>1360.0</ele>
        <time>2018-07-22T09:37:29.000Z</time>
      </trkpt>
      <trkpt lat="42.291221" lon="-0.478365">
        <ele>1360.0</ele>
        <time>2018-07-22T09:37:30.000Z</time>
      </trkpt>
      <trkpt lat="42.291228" lon="-0.478351">
        <ele>1359.9</ele>
        <time>2018-07-22T09:37:31.000Z</time>
      </trkpt>
      <trkpt lat="42.291236" lon="-0.478338">
        <ele>1359.9</ele>
        <time>2018-07-22T09:37:32.000Z</time>
      </trkpt>
      <trkpt lat="42.291244" lon="-0.478324">
        <ele>1359.9</ele>
        <time>2018-07-22T09:37:33.000Z</time>
      </trkpt>
      <trkpt lat="42.291251" lon="-0.478311">
        <ele>1360.0</ele>
        <time>2018-07-22T09:37:34.000Z</time>
      </trkpt>
      <trkpt lat="42.29126" lon="-0.478298">
        <ele>1360.0</ele>
        <time>2018-07-22T09:37:35.000Z</time>
      </trkpt>
      <trkpt lat="42.291268" lon="-0.478285">
        <ele>1360.1</ele>
        <time>2018-07-22T09:37:36.000Z</time>
      </trkpt>
      <trkpt lat="42.291277" lon="-0.478272">
        <ele>1360.1</ele>
        <time>2018-07-22T09:37:37.000Z</time>
      </trkpt>
      <trkpt lat="42.291286" lon="-0.47826">
        <ele>1360.2</ele>
        <time>2018-07-22T09:37:38.000Z</time>
      </trkpt>
      <trkpt lat="42.291295" lon="-0.478248">
        <ele>1360.2</ele>
        <time>2018-07-22T09:37:39.000Z</time>
      </trkpt>
      <trkpt lat="42.291304" lon="-0.478236">
        <ele>1360.3</ele>
        <time>2018-07-22T09:37:40.000Z</time>
      </trkpt>
      <trkpt lat="42.291314" lon="-0.478225">
        <ele>1360.4</ele>
        <time>2018-07-22T09:37:41.000Z</time>
      </trkpt>
      <trkpt lat="42.291324" lon="-0.478213">
        <ele>1360.4</ele>
        <time>2018-07-22T09:37:42.000Z</time>
      </trkpt>
      <trkpt lat="42.291334" lon="-0.478202">
        <ele>1360.5</ele>
        <time>2018-07-22T09:37:43.000Z</time>
      </trkpt>
      <trkpt lat="42.291343" lon="-0.47819">
        <ele>1360.5</ele>
        <time>2018-07-22T09:37:44.000Z</time>
      </trkpt>
      <trkpt lat="42.291351" lon="-0.478178">
        <ele>1360.6</ele>
        <time>2018-07-22T09:37:45.000Z</time>
      </trkpt>
      <trkpt lat="42.291359" lon="-0.478165">
        <ele>1360.6</ele>
        <time>2018-07-22T09:37:46.000Z</time>
      </trkpt>
      <trkpt lat="42.291365" lon="-0.478151">
        <ele>1360.7</ele>
        <time>2018-07-22T09:37:47.000Z</time>
      </trkpt>
      <trkpt lat="42.29137" lon="-0.478136">
        <ele>1360.7</ele>
        <time>2018-07-22T09:37:48.000Z</time>
      </trkpt>
      <trkpt lat="42.291375" lon="-0.478121">
        <ele>1360.7</ele>
        <time>2018-07-22T09:37:49.000Z</time>
      </trkpt>
      <trkpt lat="42.291379" lon="-0.478105">
        <ele>1360.7</ele>
        <time>2018-07-22T09:37:50.000Z</time>
      </trkpt>
      <trkpt lat="42.291384" lon="-0.47809">
        <ele>1360.8</ele>
        <time>2018-07-22T09:37:51.000Z</time>
      </trkpt>
      <trkpt lat="42.291388" lon="-0.478075">
        <ele>1360.8</ele>
        <time>2018-07-22T09:37:52.000Z</time>
      </trkpt>
      <trkpt lat="42.291393" lon="-0.47806">
        <ele>1360.8</ele>
        <time>2018-07-22T09:37:53.000Z</time>
      </trkpt>
      <trkpt lat="42.291398" lon="-0.478045">
        <ele>1360.8</ele>
        <time>2018-07-22T09:37:54.000Z</time>
      </trkpt>
      <trkpt lat="42.291403" lon="-0.47803">
        <ele>1360.9</ele>
        <time>2018-07-22T09:37:55.000Z</time>
      </trkpt>
      <trkpt lat="42.291409" lon="-0.478015">
        <ele>1360.9</ele>
        <time>2018-07-22T09:37:56.000Z</time>
      </trkpt>
      <trkpt lat="42.291414" lon="-0.478001">
        <ele>1360.9</ele>
        <time>2018-07-22T09:37:57.000Z</time>
      </trkpt>
      <trkpt lat="42.29142" lon="-0.477986">
        <ele>1361.0</ele>
        <time>2018-07-22T09:37:58.000Z</time>
      </trkpt>
      <trkpt lat="42.291426" lon="-0.477972">
        <ele>1361.0</ele>
        <time>2018-07-22T09:37:59.000Z</time>
      </trkpt>
      <trkpt lat="42.291432" lon="-0.477957">
        <ele>1361.1</ele>
        <time>2018-07-22T09:38:00.000Z</time>
      </trkpt>
      <trkpt lat="42.291438" lon="-0.477942">
        <ele>1361.1</ele>
        <time>2018-07-22T09:38:01.000Z</time>
      </trkpt>
      <trkpt lat="42.291444" lon="-0.477927">
        <ele>1361.1</ele>
        <time>2018-07-22T09:38:02.000Z</time>
      </trkpt>
      <trkpt lat="42.29145" lon="-0.477912">
        <ele>1361.2</ele>
        <time>2018-07-22T09:38:03.000Z</time>
      </trkpt>
      <trkpt lat="42.291457" lon="-0.477897">
        <ele>1361.2</ele>
        <time>2018-07-22T09:38:04.000Z</time>
      </trkpt>
      <trkpt lat="42.291463" lon="-0.477881">
        <ele>1361.3</ele>
        <time>2018-07-22T09:38:05.000Z</time>
      </trkpt>
      <trkpt lat="42.29147" lon="-0.477866">
        <ele>1361.3</ele>
        <time>2018-07-22T09:38:06.000Z</time>
      </trkpt>
      <trkpt lat="42.291476" lon="-0.477851">
        <ele>1361.4</ele>
        <time>2018-07-22T09:38:07.000Z</time>
      </trkpt>
      <trkpt lat="42.291483" lon="-0.477836">
        <ele>1361.4</ele>
        <time>2018-07-22T09:38:08.000Z</time>
      </trkpt>
      <trkpt lat="42.291489" lon="-0.477821">
        <ele>1361.5</ele>
        <time>2018-07-22T09:38:09.000Z</time>
      </trkpt>
      <trkpt lat="42.291496" lon="-0.477806">
        <ele>1361.5</ele>
        <time>2018-07-22T09:38:10.000Z</time>
      </trkpt>
      <trkpt lat="42.291503" lon="-0.477793">
        <ele>1361.6</ele>
        <time>2018-07-22T09:38:11.000Z</time>
      </trkpt>
      <trkpt lat="42.29151" lon="-0.47778">
        <ele>1361.6</ele>
        <time>2018-07-22T09:38:12.000Z</time>
      </trkpt>
      <trkpt lat="42.291517" lon="-0.477768">
        <ele>1361.7</ele>
        <time>2018-07-22T09:38:13.000Z</time>
      </trkpt>
      <trkpt lat="42.291525" lon="-0.477757">
        <ele>1361.7</ele>
        <time>2018-07-22T09:38:14.000Z</time>
      </trkpt>
      <trkpt lat="42.291532" lon="-0.477746">
        <ele>1361.8</ele>
        <time>2018-07-22T09:38:15.000Z</time>
      </trkpt>
      <trkpt lat="42.291539" lon="-0.477736">
        <ele>1361.9</ele>
        <time>2018-07-22T09:38:16.000Z</time>
      </trkpt>
      <trkpt lat="42.291547" lon="-0.477725">
        <ele>1361.9</ele>
        <time>2018-07-22T09:38:17.000Z</time>
      </trkpt>
      <trkpt lat="42.291554" lon="-0.477713">
        <ele>1362.0</ele>
        <time>2018-07-22T09:38:18.000Z</time>
      </trkpt>
      <trkpt lat="42.291562" lon="-0.4777">
        <ele>1362.1</ele>
        <time>2018-07-22T09:38:19.000Z</time>
      </trkpt>
      <trkpt lat="42.291569" lon="-0.477686">
        <ele>1362.1</ele>
        <time>2018-07-22T09:38:20.000Z</time>
      </trkpt>
      <trkpt lat="42.291577" lon="-0.477672">
        <ele>1362.2</ele>
        <time>2018-07-22T09:38:21.000Z</time>
      </trkpt>
      <trkpt lat="42.291584" lon="-0.477658">
        <ele>1362.2</ele>
        <time>2018-07-22T09:38:22.000Z</time>
      </trkpt>
      <trkpt lat="42.291591" lon="-0.477643">
        <ele>1362.3</ele>
        <time>2018-07-22T09:38:23.000Z</time>
      </trkpt>
      <trkpt lat="42.291599" lon="-0.477628">
        <ele>1362.4</ele>
        <time>2018-07-22T09:38:24.000Z</time>
      </trkpt>
      <trkpt lat="42.291606" lon="-0.477613">
        <ele>1362.4</ele>
        <time>2018-07-22T09:38:25.000Z</time>
      </trkpt>
      <trkpt lat="42.291613" lon="-0.477599">
        <ele>1362.5</ele>
        <time>2018-07-22T09:38:26.000Z</time>
      </trkpt>
      <trkpt lat="42.291621" lon="-0.477584">
        <ele>1362.6</ele>
        <time>2018-07-22T09:38:27.000Z</time>
      </trkpt>
      <trkpt lat="42.291628" lon="-0.47757">
        <ele>1362.6</ele>
        <time>2018-07-22T09:38:28.000Z</time>
      </trkpt>
      <trkpt lat="42.291636" lon="-0.477556">
        <ele>1362.7</ele>
        <time>2018-07-22T09:38:29.000Z</time>
      </trkpt>
      <trkpt lat="42.291643" lon="-0.477542">
        <ele>1362.8</ele>
        <time>2018-07-22T09:38:30.000Z</time>
      </trkpt>
      <trkpt lat="42.29165" lon="-0.477528">
        <ele>1362.8</ele>
        <time>2018-07-22T09:38:31.000Z</time>
      </trkpt>
      <trkpt lat="42.291658" lon="-0.477514">
        <ele>1362.9</ele>
        <time>2018-07-22T09:38:32.000Z</time>
      </trkpt>
      <trkpt lat="42.291665" lon="-0.4775">
        <ele>1363.0</ele>
        <time>2018-07-22T09:38:33.000Z</time>
      </trkpt>
      <trkpt lat="42.291673" lon="-0.477487">
        <ele>1363.2</ele>
        <time>2018-07-22T09:38:34.000Z</time>
      </trkpt>
      <trkpt lat="42.29168" lon="-0.477473">
        <ele>1363.4</ele>
        <time>2018-07-22T09:38:35.000Z</time>
      </trkpt>
      <trkpt lat="42.291687" lon="-0.47746">
        <ele>1363.5</ele>
        <time>2018-07-22T09:38:36.000Z</time>
      </trkpt>
      <trkpt lat="42.291695" lon="-0.477447">
        <ele>1363.7</ele>
        <time>2018-07-22T09:38:37.000Z</time>
      </trkpt>
      <trkpt lat="42.291702" lon="-0.477434">
        <ele>1363.9</ele>
        <time>2018-07-22T09:38:38.000Z</time>
      </trkpt>
      <trkpt lat="42.29171" lon="-0.477421">
        <ele>1364.1</ele>
        <time>2018-07-22T09:38:39.000Z</time>
      </trkpt>
      <trkpt lat="42.291717" lon="-0.477408">
        <ele>1364.3</ele>
        <time>2018-07-22T09:38:40.000Z</time>
      </trkpt>
      <trkpt lat="42.291725" lon="-0.477396">
        <ele>1364.5</ele>
        <time>2018-07-22T09:38:41.000Z</time>
      </trkpt>
      <trkpt lat="42.291733" lon="-0.477383">
        <ele>1364.6</ele>
        <time>2018-07-22T09:38:42.000Z</time>
      </trkpt>
      <trkpt lat="42.291741" lon="-0.477371">
        <ele>1364.8</ele>
        <time>2018-07-22T09:38:43.000Z</time>
      </trkpt>
      <trkpt lat="42.291748" lon="-0.477359">
        <ele>1365.0</ele>
        <time>2018-07-22T09:38:44.000Z</time>
      </trkpt>
      <trkpt lat="42.291756" lon="-0.477347">
        <ele>1365.1</ele>
        <time>2018-07-22T09:38:45.000Z</time>
      </trkpt>
      <trkpt lat="42.291765" lon="-0.477335">
        <ele>1365.3</ele>
        <time>2018-07-22T09:38:46.000Z</time>
      </trkpt>
      <trkpt lat="42.291773" lon="-0.477323">
        <ele>1365.5</ele>
        <time>2018-07-22T09:38:47.000Z</time>
      </trkpt>
      <trkpt lat="42.291781" lon="-0.477311">
        <ele>1365.6</ele>
        <time>2018-07-22T09:38:48.000Z</time>
      </trkpt>
      <trkpt lat="42.29179" lon="-0.477299">
        <ele>1365.8</ele>
        <time>2018-07-22T09:38:49.000Z</time>
      </trkpt>
      <trkpt lat="42.291798" lon="-0.477287">
        <ele>1366.0</ele>
        <time>2018-07-22T09:38:50.000Z</time>
      </trkpt>
      <trkpt lat="42.291807" lon="-0.477276">
        <ele>1366.1</ele>
        <time>2018-07-22T09:38:51.000Z</time>
      </trkpt>
      <trkpt lat="42.291815" lon="-0.477264">
        <ele>1366.3</ele>
        <time>2018-07-22T09:38:52.000Z</time>
      </trkpt>
      <trkpt lat="42.291824" lon="-0.477253">
        <ele>1366.4</ele>
        <time>2018-07-22T09:38:53.000Z</time>
      </trkpt>
      <trkpt lat="42.291833" lon="-0.477241">
        <ele>1366.6</ele>
        <time>2018-07-22T09:38:54.000Z</time>
      </trkpt>
      <trkpt lat="42.291842" lon="-0.47723">
        <ele>1366.7</ele>
        <time>2018-07-22T09:38:55.000Z</time>
      </trkpt>
      <trkpt lat="42.29185" lon="-0.477218">
        <ele>1366.9</ele>
        <time>2018-07-22T09:38:56.000Z</time>
      </trkpt>
      <trkpt lat="42.291859" lon="-0.477207">
        <ele>1367.0</ele>
        <time>2018-07-22T09:38:57.000Z</time>
      </trkpt>
      <trkpt lat="42.291868" lon="-0.477195">
        <ele>1367.2</ele>
        <time>2018-07-22T09:38:58.000Z</time>
      </trkpt>
      <trkpt lat="42.291877" lon="-0.477184">
        <ele>1367.3</ele>
        <time>2018-07-22T09:38:59.000Z</time>
      </trkpt>
      <trkpt lat="42.291886" lon="-0.477172">
        <ele>1367.5</ele>
        <time>2018-07-22T09:39:00.000Z</time>
      </trkpt>
      <trkpt lat="42.291895" lon="-0.477161">
        <ele>1367.6</ele>
        <time>2018-07-22T09:39:01.000Z</time>
      </trkpt>
      <trkpt lat="42.291904" lon="-0.477149">
        <ele>1367.7</ele>
        <time>2018-07-22T09:39:02.000Z</time>
      </trkpt>
      <trkpt lat="42.291913" lon="-0.477138">
        <ele>1367.9</ele>
        <time>2018-07-22T09:39:03.000Z</time>
      </trkpt>
      <trkpt lat="42.291922" lon="-0.477126">
        <ele>1368.0</ele>
        <time>2018-07-22T09:39:04.000Z</time>
      </trkpt>
      <trkpt lat="42.291931" lon="-0.477114">
        <ele>1368.1</ele>
        <time>2018-07-22T09:39:05.000Z</time>
      </trkpt>
      <trkpt lat="42.29194" lon="-0.477102">
        <ele>1368.2</ele>
        <time>2018-07-22T09:39:06.000Z</time>
      </trkpt>
      <trkpt lat="42.291949" lon="-0.477091">
        <ele>1368.4</ele>
        <time>2018-07-22T09:39:07.000Z</time>
      </trkpt>
      <trkpt lat="42.291958" lon="-0.477079">
        <ele>1368.5</ele>
        <time>2018-07-22T09:39:08.000Z</time>
      </trkpt>
      <trkpt lat="42.291967" lon="-0.477067">
        <ele>1368.6</ele>
        <time>2018-07-22T09:39:09.000Z</time>
      </trkpt>
      <trkpt lat="42.291976" lon="-0.477055">
        <ele>1368.7</ele>
        <time>2018-07-22T09:39:10.000Z</time>
      </trkpt>
      <trkpt lat="42.291985" lon="-0.477044">
        <ele>1368.8</ele>
        <time>2018-07-22T09:39:11.000Z</time>
      </trkpt>
      <trkpt lat="42.291995" lon="-0.477032">
        <ele>1368.9</ele>
        <time>2018-07-22T09:39:12.000Z</time>
      </trkpt>
      <trkpt lat="42.292005" lon="-0.477021">
        <ele>1369.1</ele>
        <time>2018-07-22T09:39:13.000Z</time>
      </trkpt>
      <trkpt lat="42.292015" lon="-0.47701">
        <ele>1369.2</ele>
        <time>2018-07-22T09:39:14.000Z</time>
      </trkpt>
      <trkpt lat="42.292024" lon="-0.477">
        <ele>1369.3</ele>
        <time>2018-07-22T09:39:15.000Z</time>
      </trkpt>
      <trkpt lat="42.292034" lon="-0.476989">
        <ele>1369.4</ele>
        <time>2018-07-22T09:39:16.000Z</time>
      </trkpt>
      <trkpt lat="42.292044" lon="-0.476979">
        <ele>1369.5</ele>
        <time>2018-07-22T09:39:17.000Z</time>
      </trkpt>
      <trkpt lat="42.292053" lon="-0.476969">
        <ele>1369.6</ele>
        <time>2018-07-22T09:39:18.000Z</time>
      </trkpt>
      <trkpt lat="42.292062" lon="-0.476959">
        <ele>1369.6</ele>
        <time>2018-07-22T09:39:19.000Z</time>
      </trkpt>
      <trkpt lat="42.292071" lon="-0.47695">
        <ele>1369.7</ele>
        <time>2018-07-22T09:39:20.000Z</time>
      </trkpt>
      <trkpt lat="42.29208" lon="-0.476942">
        <ele>1369.8</ele>
        <time>2018-07-22T09:39:21.000Z</time>
      </trkpt>
      <trkpt lat="42.292089" lon="-0.476935">
        <ele>1369.9</ele>
        <time>2018-07-22T09:39:22.000Z</time>
      </trkpt>
      <trkpt lat="42.292098" lon="-0.476928">
        <ele>1370.0</ele>
        <time>2018-07-22T09:39:23.000Z</time>
      </trkpt>
      <trkpt lat="42.292108" lon="-0.476923">
        <ele>1370.0</ele>
        <time>2018-07-22T09:39:24.000Z</time>
      </trkpt>
      <trkpt lat="42.292118" lon="-0.476919">
        <ele>1370.1</ele>
        <time>2018-07-22T09:39:25.000Z</time>
      </trkpt>
      <trkpt lat="42.292128" lon="-0.476913">
        <ele>1370.2</ele>
        <time>2018-07-22T09:39:26.000Z</time>
      </trkpt>
      <trkpt lat="42.292137" lon="-0.476906">
        <ele>1370.3</ele>
        <time>2018-07-22T09:39:27.000Z</time>
      </trkpt>
      <trkpt lat="42.292146" lon="-0.476898">
        <ele>1370.3</ele>
        <time>2018-07-22T09:39:28.000Z</time>
      </trkpt>
      <trkpt lat="42.292154" lon="-0.47689">
        <ele>1370.4</ele>
        <time>2018-07-22T09:39:29.000Z</time>
      </trkpt>
      <trkpt lat="42.292162" lon="-0.476882">
        <ele>1370.5</ele>
        <time>2018-07-22T09:39:30.000Z</time>
      </trkpt>
      <trkpt lat="42.29217" lon="-0.476875">
        <ele>1370.5</ele>
        <time>2018-07-22T09:39:31.000Z</time>
      </trkpt>
      <trkpt lat="42.292177" lon="-0.476868">
        <ele>1370.6</ele>
        <time>2018-07-22T09:39:32.000Z</time>
      </trkpt>
      <trkpt lat="42.292185" lon="-0.476861">
        <ele>1370.6</ele>
        <time>2018-07-22T09:39:33.000Z</time>
      </trkpt>
      <trkpt lat="42.292193" lon="-0.476854">
        <ele>1370.7</ele>
        <time>2018-07-22T09:39:34.000Z</time>
      </trkpt>
      <trkpt lat="42.292202" lon="-0.476848">
        <ele>1370.7</ele>
        <time>2018-07-22T09:39:35.000Z</time>
      </trkpt>
      <trkpt lat="42.29221" lon="-0.476842">
        <ele>1370.8</ele>
        <time>2018-07-22T09:39:36.000Z</time>
      </trkpt>
      <trkpt lat="42.292219" lon="-0.476836">
        <ele>1370.8</ele>
        <time>2018-07-22T09:39:37.000Z</time>
      </trkpt>
      <trkpt lat="42.292228" lon="-0.47683">
        <ele>1370.9</ele>
        <time>2018-07-22T09:39:38.000Z</time>
      </trkpt>
      <trkpt lat="42.292237" lon="-0.476823">
        <ele>1371.0</ele>
        <time>2018-07-22T09:39:39.000Z</time>
      </trkpt>
      <trkpt lat="42.292245" lon="-0.476817">
        <ele>1371.0</ele>
        <time>2018-07-22T09:39:40.000Z</time>
      </trkpt>
      <trkpt lat="42.292253" lon="-0.47681">
        <ele>1371.0</ele>
        <time>2018-07-22T09:39:41.000Z</time>
      </trkpt>
      <trkpt lat="42.292261" lon="-0.476802">
        <ele>1371.1</ele>
        <time>2018-07-22T09:39:42.000Z</time>
      </trkpt>
      <trkpt lat="42.292269" lon="-0.476794">
        <ele>1371.1</ele>
        <time>2018-07-22T09:39:43.000Z</time>
      </trkpt>
      <trkpt lat="42.292276" lon="-0.476786">
        <ele>1371.2</ele>
        <time>2018-07-22T09:39:44.000Z</time>
      </trkpt>
      <trkpt lat="42.292283" lon="-0.476776">
        <ele>1371.2</ele>
        <time>2018-07-22T09:39:45.000Z</time>
      </trkpt>
      <trkpt lat="42.292289" lon="-0.476765">
        <ele>1371.2</ele>
        <time>2018-07-22T09:39:46.000Z</time>
      </trkpt>
      <trkpt lat="42.292295" lon="-0.476754">
        <ele>1371.2</ele>
        <time>2018-07-22T09:39:47.000Z</time>
      </trkpt>
      <trkpt lat="42.292301" lon="-0.476742">
        <ele>1371.2</ele>
        <time>2018-07-22T09:39:48.000Z</time>
      </trkpt>
      <trkpt lat="42.292307" lon="-0.476729">
        <ele>1371.2</ele>
        <time>2018-07-22T09:39:49.000Z</time>
      </trkpt>
      <trkpt lat="42.292312" lon="-0.476716">
        <ele>1371.2</ele>
        <time>2018-07-22T09:39:50.000Z</time>
      </trkpt>
      <trkpt lat="42.292316" lon="-0.476702">
        <ele>1371.2</ele>
        <time>2018-07-22T09:39:51.000Z</time>
      </trkpt>
      <trkpt lat="42.29232" lon="-0.476688">
        <ele>1371.2</ele>
        <time>2018-07-22T09:39:52.000Z</time>
      </trkpt>
      <trkpt lat="42.292324" lon="-0.476674">
        <ele>1371.2</ele>
        <time>2018-07-22T09:39:53.000Z</time>
      </trkpt>
      <trkpt lat="42.292328" lon="-0.47666">
        <ele>1371.2</ele>
        <time>2018-07-22T09:39:54.000Z</time>
      </trkpt>
      <trkpt lat="42.292332" lon="-0.476646">
        <ele>1371.4</ele>
        <time>2018-07-22T09:39:55.000Z</time>
      </trkpt>
      <trkpt lat="42.292337" lon="-0.476632">
        <ele>1371.5</ele>
        <time>2018-07-22T09:39:56.000Z</time>
      </trkpt>
      <trkpt lat="42.292342" lon="-0.476618">
        <ele>1371.6</ele>
        <time>2018-07-22T09:39:57.000Z</time>
      </trkpt>
      <trkpt lat="42.292345" lon="-0.476605">
        <ele>1371.8</ele>
        <time>2018-07-22T09:39:58.000Z</time>
      </trkpt>
      <trkpt lat="42.292346" lon="-0.476593">
        <ele>1371.9</ele>
        <time>2018-07-22T09:39:59.000Z</time>
      </trkpt>
      <trkpt lat="42.292343" lon="-0.476581">
        <ele>1372.0</ele>
        <time>2018-07-22T09:40:00.000Z</time>
      </trkpt>
      <trkpt lat="42.292339" lon="-0.476569">
        <ele>1372.0</ele>
        <time>2018-07-22T09:40:01.000Z</time>
      </trkpt>
      <trkpt lat="42.292334" lon="-0.476558">
        <ele>1372.1</ele>
        <time>2018-07-22T09:40:02.000Z</time>
      </trkpt>
      <trkpt lat="42.29233" lon="-0.476546">
        <ele>1372.2</ele>
        <time>2018-07-22T09:40:03.000Z</time>
      </trkpt>
      <trkpt lat="42.292328" lon="-0.476535">
        <ele>1372.2</ele>
        <time>2018-07-22T09:40:04.000Z</time>
      </trkpt>
      <trkpt lat="42.292327" lon="-0.476523">
        <ele>1372.3</ele>
        <time>2018-07-22T09:40:05.000Z</time>
      </trkpt>
      <trkpt lat="42.292328" lon="-0.476511">
        <ele>1372.4</ele>
        <time>2018-07-22T09:40:06.000Z</time>
      </trkpt>
      <trkpt lat="42.292331" lon="-0.476499">
        <ele>1372.6</ele>
        <time>2018-07-22T09:40:07.000Z</time>
      </trkpt>
      <trkpt lat="42.292335" lon="-0.476486">
        <ele>1372.7</ele>
        <time>2018-07-22T09:40:08.000Z</time>
      </trkpt>
      <trkpt lat="42.292341" lon="-0.476475">
        <ele>1372.8</ele>
        <time>2018-07-22T09:40:09.000Z</time>
      </trkpt>
      <trkpt lat="42.292347" lon="-0.476463">
        <ele>1373.0</ele>
        <time>2018-07-22T09:40:10.000Z</time>
      </trkpt>
      <trkpt lat="42.292354" lon="-0.476452">
        <ele>1373.1</ele>
        <time>2018-07-22T09:40:11.000Z</time>
      </trkpt>
      <trkpt lat="42.29236" lon="-0.476441">
        <ele>1373.2</ele>
        <time>2018-07-22T09:40:12.000Z</time>
      </trkpt>
      <trkpt lat="42.292366" lon="-0.476431">
        <ele>1373.3</ele>
        <time>2018-07-22T09:40:13.000Z</time>
      </trkpt>
      <trkpt lat="42.292372" lon="-0.476422">
        <ele>1373.5</ele>
        <time>2018-07-22T09:40:14.000Z</time>
      </trkpt>
      <trkpt lat="42.292378" lon="-0.476413">
        <ele>1373.6</ele>
        <time>2018-07-22T09:40:15.000Z</time>
      </trkpt>
      <trkpt lat="42.292383" lon="-0.476404">
        <ele>1373.7</ele>
        <time>2018-07-22T09:40:16.000Z</time>
      </trkpt>
      <trkpt lat="42.292388" lon="-0.476395">
        <ele>1373.8</ele>
        <time>2018-07-22T09:40:17.000Z</time>
      </trkpt>
      <trkpt lat="42.292393" lon="-0.476387">
        <ele>1373.9</ele>
        <time>2018-07-22T09:40:18.000Z</time>
      </trkpt>
      <trkpt lat="42.292397" lon="-0.476379">
        <ele>1374.0</ele>
        <time>2018-07-22T09:40:19.000Z</time>
      </trkpt>
      <trkpt lat="42.292402" lon="-0.476371">
        <ele>1374.1</ele>
        <time>2018-07-22T09:40:20.000Z</time>
      </trkpt>
      <trkpt lat="42.292406" lon="-0.476363">
        <ele>1374.2</ele>
        <time>2018-07-22T09:40:21.000Z</time>
      </trkpt>
      <trkpt lat="42.292411" lon="-0.476354">
        <ele>1374.3</ele>
        <time>2018-07-22T09:40:22.000Z</time>
      </trkpt>
      <trkpt lat="42.292415" lon="-0.476346">
        <ele>1374.4</ele>
        <time>2018-07-22T09:40:23.000Z</time>
      </trkpt>
      <trkpt lat="42.292419" lon="-0.476337">
        <ele>1374.5</ele>
        <time>2018-07-22T09:40:24.000Z</time>
      </trkpt>
      <trkpt lat="42.292423" lon="-0.476329">
        <ele>1374.6</ele>
        <time>2018-07-22T09:40:25.000Z</time>
      </trkpt>
      <trkpt lat="42.292427" lon="-0.47632">
        <ele>1374.8</ele>
        <time>2018-07-22T09:40:26.000Z</time>
      </trkpt>
      <trkpt lat="42.292431" lon="-0.476311">
        <ele>1374.9</ele>
        <time>2018-07-22T09:40:27.000Z</time>
      </trkpt>
      <trkpt lat="42.292435" lon="-0.476302">
        <ele>1375.0</ele>
        <time>2018-07-22T09:40:28.000Z</time>
      </trkpt>
      <trkpt lat="42.292438" lon="-0.476294">
        <ele>1375.1</ele>
        <time>2018-07-22T09:40:29.000Z</time>
      </trkpt>
      <trkpt lat="42.292441" lon="-0.476285">
        <ele>1375.2</ele>
        <time>2018-07-22T09:40:30.000Z</time>
      </trkpt>
      <trkpt lat="42.292444" lon="-0.476277">
        <ele>1375.3</ele>
        <time>2018-07-22T09:40:31.000Z</time>
      </trkpt>
      <trkpt lat="42.292447" lon="-0.476269">
        <ele>1375.4</ele>
        <time>2018-07-22T09:40:32.000Z</time>
      </trkpt>
      <trkpt lat="42.292449" lon="-0.476261">
        <ele>1375.5</ele>
        <time>2018-07-22T09:40:33.000Z</time>
      </trkpt>
      <trkpt lat="42.292451" lon="-0.476253">
        <ele>1375.6</ele>
        <time>2018-07-22T09:40:34.000Z</time>
      </trkpt>
      <trkpt lat="42.292453" lon="-0.476246">
        <ele>1375.6</ele>
        <time>2018-07-22T09:40:35.000Z</time>
      </trkpt>
      <trkpt lat="42.292454" lon="-0.476241">
        <ele>1375.7</ele>
        <time>2018-07-22T09:40:36.000Z</time>
      </trkpt>
      <trkpt lat="42.292455" lon="-0.476238">
        <ele>1375.7</ele>
        <time>2018-07-22T09:40:37.000Z</time>
      </trkpt>
      <trkpt lat="42.292456" lon="-0.476236">
        <ele>1375.8</ele>
        <time>2018-07-22T09:40:38.000Z</time>
      </trkpt>
      <trkpt lat="42.292457" lon="-0.476234">
        <ele>1375.8</ele>
        <time>2018-07-22T09:40:39.000Z</time>
      </trkpt>
      <trkpt lat="42.292458" lon="-0.476231">
        <ele>1375.8</ele>
        <time>2018-07-22T09:40:40.000Z</time>
      </trkpt>
      <trkpt lat="42.292459" lon="-0.476228">
        <ele>1375.9</ele>
        <time>2018-07-22T09:40:41.000Z</time>
      </trkpt>
      <trkpt lat="42.29246" lon="-0.476225">
        <ele>1375.9</ele>
        <time>2018-07-22T09:40:42.000Z</time>
      </trkpt>
      <trkpt lat="42.292461" lon="-0.476221">
        <ele>1375.9</ele>
        <time>2018-07-22T09:40:43.000Z</time>
      </trkpt>
      <trkpt lat="42.292462" lon="-0.476217">
        <ele>1376.0</ele>
        <time>2018-07-22T09:40:44.000Z</time>
      </trkpt>
      <trkpt lat="42.292463" lon="-0.476214">
        <ele>1376.0</ele>
        <time>2018-07-22T09:40:45.000Z</time>
      </trkpt>
      <trkpt lat="42.292464" lon="-0.47621">
        <ele>1376.1</ele>
        <time>2018-07-22T09:40:46.000Z</time>
      </trkpt>
      <trkpt lat="42.292467" lon="-0.476202">
        <ele>1376.2</ele>
        <time>2018-07-22T09:40:47.000Z</time>
      </trkpt>
      <trkpt lat="42.292471" lon="-0.476197">
        <ele>1376.3</ele>
        <time>2018-07-22T09:40:48.000Z</time>
      </trkpt>
      <trkpt lat="42.292476" lon="-0.47619">
        <ele>1376.4</ele>
        <time>2018-07-22T09:40:49.000Z</time>
      </trkpt>
      <trkpt lat="42.29248" lon="-0.476185">
        <ele>1376.4</ele>
        <time>2018-07-22T09:40:50.000Z</time>
      </trkpt>
      <trkpt lat="42.292483" lon="-0.476181">
        <ele>1376.5</ele>
        <time>2018-07-22T09:40:51.000Z</time>
      </trkpt>
      <trkpt lat="42.292485" lon="-0.476178">
        <ele>1376.6</ele>
        <time>2018-07-22T09:40:52.000Z</time>
      </trkpt>
      <trkpt lat="42.292487" lon="-0.476176">
        <ele>1376.6</ele>
        <time>2018-07-22T09:40:53.000Z</time>
      </trkpt>
      <trkpt lat="42.292489" lon="-0.476174">
        <ele>1376.6</ele>
        <time>2018-07-22T09:40:54.000Z</time>
      </trkpt>
      <trkpt lat="42.292491" lon="-0.476171">
        <ele>1376.7</ele>
        <time>2018-07-22T09:40:55.000Z</time>
      </trkpt>
      <trkpt lat="42.292494" lon="-0.476168">
        <ele>1376.7</ele>
        <time>2018-07-22T09:40:56.000Z</time>
      </trkpt>
      <trkpt lat="42.292495" lon="-0.476166">
        <ele>1376.8</ele>
        <time>2018-07-22T09:40:57.000Z</time>
      </trkpt>
      <trkpt lat="42.292497" lon="-0.476164">
        <ele>1376.8</ele>
        <time>2018-07-22T09:40:58.000Z</time>
      </trkpt>
      <trkpt lat="42.292501" lon="-0.47616">
        <ele>1376.9</ele>
        <time>2018-07-22T09:40:59.000Z</time>
      </trkpt>
      <trkpt lat="42.292509" lon="-0.476153">
        <ele>1377.1</ele>
        <time>2018-07-22T09:41:00.000Z</time>
      </trkpt>
      <trkpt lat="42.292516" lon="-0.476147">
        <ele>1377.2</ele>
        <time>2018-07-22T09:41:01.000Z</time>
      </trkpt>
      <trkpt lat="42.292521" lon="-0.476142">
        <ele>1377.3</ele>
        <time>2018-07-22T09:41:02.000Z</time>
      </trkpt>
      <trkpt lat="42.292525" lon="-0.476137">
        <ele>1377.5</ele>
        <time>2018-07-22T09:41:03.000Z</time>
      </trkpt>
      <trkpt lat="42.29253" lon="-0.476129">
        <ele>1377.6</ele>
        <time>2018-07-22T09:41:04.000Z</time>
      </trkpt>
      <trkpt lat="42.292535" lon="-0.476122">
        <ele>1377.7</ele>
        <time>2018-07-22T09:41:05.000Z</time>
      </trkpt>
      <trkpt lat="42.292539" lon="-0.476115">
        <ele>1377.9</ele>
        <time>2018-07-22T09:41:06.000Z</time>
      </trkpt>
      <trkpt lat="42.292542" lon="-0.476109">
        <ele>1378.0</ele>
        <time>2018-07-22T09:41:07.000Z</time>
      </trkpt>
      <trkpt lat="42.292545" lon="-0.476104">
        <ele>1378.1</ele>
        <time>2018-07-22T09:41:08.000Z</time>
      </trkpt>
      <trkpt lat="42.292547" lon="-0.4761">
        <ele>1378.1</ele>
        <time>2018-07-22T09:41:09.000Z</time>
      </trkpt>
      <trkpt lat="42.292549" lon="-0.476097">
        <ele>1378.2</ele>
        <time>2018-07-22T09:41:10.000Z</time>
      </trkpt>
      <trkpt lat="42.29255" lon="-0.476094">
        <ele>1378.2</ele>
        <time>2018-07-22T09:41:11.000Z</time>
      </trkpt>
      <trkpt lat="42.292551" lon="-0.476091">
        <ele>1378.3</ele>
        <time>2018-07-22T09:41:12.000Z</time>
      </trkpt>
      <trkpt lat="42.292552" lon="-0.476089">
        <ele>1378.3</ele>
        <time>2018-07-22T09:41:13.000Z</time>
      </trkpt>
      <trkpt lat="42.292553" lon="-0.476086">
        <ele>1378.4</ele>
        <time>2018-07-22T09:41:14.000Z</time>
      </trkpt>
      <trkpt lat="42.292554" lon="-0.476083">
        <ele>1378.4</ele>
        <time>2018-07-22T09:41:15.000Z</time>
      </trkpt>
      <trkpt lat="42.292556" lon="-0.476081">
        <ele>1378.5</ele>
        <time>2018-07-22T09:41:16.000Z</time>
      </trkpt>
      <trkpt lat="42.292557" lon="-0.476078">
        <ele>1378.5</ele>
        <time>2018-07-22T09:41:17.000Z</time>
      </trkpt>
      <trkpt lat="42.292558" lon="-0.476076">
        <ele>1378.5</ele>
        <time>2018-07-22T09:41:18.000Z</time>
      </trkpt>
      <trkpt lat="42.292563" lon="-0.476067">
        <ele>1378.7</ele>
        <time>2018-07-22T09:41:19.000Z</time>
      </trkpt>
      <trkpt lat="42.292568" lon="-0.476058">
        <ele>1378.9</ele>
        <time>2018-07-22T09:41:20.000Z</time>
      </trkpt>
      <trkpt lat="42.292572" lon="-0.47605">
        <ele>1379.0</ele>
        <time>2018-07-22T09:41:21.000Z</time>
      </trkpt>
      <trkpt lat="42.292577" lon="-0.47604">
        <ele>1379.2</ele>
        <time>2018-07-22T09:41:22.000Z</time>
      </trkpt>
      <trkpt lat="42.292582" lon="-0.476031">
        <ele>1379.3</ele>
        <time>2018-07-22T09:41:23.000Z</time>
      </trkpt>
      <trkpt lat="42.292588" lon="-0.476023">
        <ele>1379.5</ele>
        <time>2018-07-22T09:41:24.000Z</time>
      </trkpt>
      <trkpt lat="42.292594" lon="-0.476017">
        <ele>1379.7</ele>
        <time>2018-07-22T09:41:25.000Z</time>
      </trkpt>
      <trkpt lat="42.2926" lon="-0.476011">
        <ele>1379.8</ele>
        <time>2018-07-22T09:41:26.000Z</time>
      </trkpt>
      <trkpt lat="42.292606" lon="-0.476007">
        <ele>1379.9</ele>
        <time>2018-07-22T09:41:27.000Z</time>
      </trkpt>
      <trkpt lat="42.29261" lon="-0.476003">
        <ele>1380.0</ele>
        <time>2018-07-22T09:41:28.000Z</time>
      </trkpt>
      <trkpt lat="42.292614" lon="-0.476001">
        <ele>1380.1</ele>
        <time>2018-07-22T09:41:29.000Z</time>
      </trkpt>
      <trkpt lat="42.292617" lon="-0.475999">
        <ele>1380.2</ele>
        <time>2018-07-22T09:41:30.000Z</time>
      </trkpt>
      <trkpt lat="42.292619" lon="-0.475998">
        <ele>1380.2</ele>
        <time>2018-07-22T09:41:31.000Z</time>
      </trkpt>
      <trkpt lat="42.292621" lon="-0.475997">
        <ele>1380.3</ele>
        <time>2018-07-22T09:41:32.000Z</time>
      </trkpt>
      <trkpt lat="42.292622" lon="-0.475997">
        <ele>1380.3</ele>
        <time>2018-07-22T09:41:33.000Z</time>
      </trkpt>
      <trkpt lat="42.292623" lon="-0.475997">
        <ele>1380.3</ele>
        <time>2018-07-22T09:41:34.000Z</time>
      </trkpt>
      <trkpt lat="42.292624" lon="-0.475996">
        <ele>1380.3</ele>
        <time>2018-07-22T09:41:35.000Z</time>
      </trkpt>
      <trkpt lat="42.292624" lon="-0.475996">
        <ele>1380.3</ele>
        <time>2018-07-22T09:41:36.000Z</time>
      </trkpt>
      <trkpt lat="42.292625" lon="-0.475995">
        <ele>1380.3</ele>
        <time>2018-07-22T09:41:37.000Z</time>
      </trkpt>
      <trkpt lat="42.292627" lon="-0.475994">
        <ele>1380.4</ele>
        <time>2018-07-22T09:41:38.000Z</time>
      </trkpt>
      <trkpt lat="42.292628" lon="-0.475992">
        <ele>1380.4</ele>
        <time>2018-07-22T09:41:39.000Z</time>
      </trkpt>
      <trkpt lat="42.29263" lon="-0.47599">
        <ele>1380.5</ele>
        <time>2018-07-22T09:41:40.000Z</time>
      </trkpt>
      <trkpt lat="42.292632" lon="-0.475987">
        <ele>1380.5</ele>
        <time>2018-07-22T09:41:41.000Z</time>
      </trkpt>
      <trkpt lat="42.292635" lon="-0.475983">
        <ele>1380.6</ele>
        <time>2018-07-22T09:41:42.000Z</time>
      </trkpt>
      <trkpt lat="42.292638" lon="-0.475978">
        <ele>1380.7</ele>
        <time>2018-07-22T09:41:43.000Z</time>
      </trkpt>
      <trkpt lat="42.292641" lon="-0.475973">
        <ele>1380.8</ele>
        <time>2018-07-22T09:41:44.000Z</time>
      </trkpt>
      <trkpt lat="42.292643" lon="-0.475969">
        <ele>1380.9</ele>
        <time>2018-07-22T09:41:45.000Z</time>
      </trkpt>
      <trkpt lat="42.292647" lon="-0.475959">
        <ele>1381.0</ele>
        <time>2018-07-22T09:41:46.000Z</time>
      </trkpt>
      <trkpt lat="42.292651" lon="-0.475954">
        <ele>1381.1</ele>
        <time>2018-07-22T09:41:47.000Z</time>
      </trkpt>
      <trkpt lat="42.292654" lon="-0.475948">
        <ele>1381.3</ele>
        <time>2018-07-22T09:41:48.000Z</time>
      </trkpt>
      <trkpt lat="42.292657" lon="-0.475943">
        <ele>1381.3</ele>
        <time>2018-07-22T09:41:49.000Z</time>
      </trkpt>
      <trkpt lat="42.292659" lon="-0.47594">
        <ele>1381.4</ele>
        <time>2018-07-22T09:41:50.000Z</time>
      </trkpt>
      <trkpt lat="42.292661" lon="-0.475937">
        <ele>1381.5</ele>
        <time>2018-07-22T09:41:51.000Z</time>
      </trkpt>
      <trkpt lat="42.292662" lon="-0.475934">
        <ele>1381.5</ele>
        <time>2018-07-22T09:41:52.000Z</time>
      </trkpt>
      <trkpt lat="42.292663" lon="-0.475932">
        <ele>1381.5</ele>
        <time>2018-07-22T09:41:53.000Z</time>
      </trkpt>
      <trkpt lat="42.292664" lon="-0.47593">
        <ele>1381.6</ele>
        <time>2018-07-22T09:41:54.000Z</time>
      </trkpt>
      <trkpt lat="42.292666" lon="-0.475928">
        <ele>1381.6</ele>
        <time>2018-07-22T09:41:55.000Z</time>
      </trkpt>
      <trkpt lat="42.292667" lon="-0.475926">
        <ele>1381.7</ele>
        <time>2018-07-22T09:41:56.000Z</time>
      </trkpt>
      <trkpt lat="42.292669" lon="-0.475923">
        <ele>1381.7</ele>
        <time>2018-07-22T09:41:57.000Z</time>
      </trkpt>
      <trkpt lat="42.29267" lon="-0.475921">
        <ele>1381.8</ele>
        <time>2018-07-22T09:41:58.000Z</time>
      </trkpt>
      <trkpt lat="42.292672" lon="-0.475918">
        <ele>1381.8</ele>
        <time>2018-07-22T09:41:59.000Z</time>
      </trkpt>
      <trkpt lat="42.292674" lon="-0.475914">
        <ele>1381.9</ele>
        <time>2018-07-22T09:42:00.000Z</time>
      </trkpt>
      <trkpt lat="42.292678" lon="-0.475908">
        <ele>1382.0</ele>
        <time>2018-07-22T09:42:01.000Z</time>
      </trkpt>
      <trkpt lat="42.292683" lon="-0.475897">
        <ele>1382.2</ele>
        <time>2018-07-22T09:42:02.000Z</time>
      </trkpt>
      <trkpt lat="42.292688" lon="-0.475888">
        <ele>1382.4</ele>
        <time>2018-07-22T09:42:03.000Z</time>
      </trkpt>
      <trkpt lat="42.292692" lon="-0.475881">
        <ele>1382.5</ele>
        <time>2018-07-22T09:42:04.000Z</time>
      </trkpt>
      <trkpt lat="42.292695" lon="-0.475876">
        <ele>1382.6</ele>
        <time>2018-07-22T09:42:05.000Z</time>
      </trkpt>
      <trkpt lat="42.292698" lon="-0.475872">
        <ele>1382.7</ele>
        <time>2018-07-22T09:42:06.000Z</time>
      </trkpt>
      <trkpt lat="42.2927" lon="-0.475869">
        <ele>1382.8</ele>
        <time>2018-07-22T09:42:07.000Z</time>
      </trkpt>
      <trkpt lat="42.292701" lon="-0.475866">
        <ele>1382.8</ele>
        <time>2018-07-22T09:42:08.000Z</time>
      </trkpt>
      <trkpt lat="42.292703" lon="-0.475863">
        <ele>1382.9</ele>
        <time>2018-07-22T09:42:09.000Z</time>
      </trkpt>
      <trkpt lat="42.292705" lon="-0.47586">
        <ele>1382.9</ele>
        <time>2018-07-22T09:42:10.000Z</time>
      </trkpt>
      <trkpt lat="42.292707" lon="-0.475857">
        <ele>1383.0</ele>
        <time>2018-07-22T09:42:11.000Z</time>
      </trkpt>
      <trkpt lat="42.292709" lon="-0.475853">
        <ele>1383.1</ele>
        <time>2018-07-22T09:42:12.000Z</time>
      </trkpt>
      <trkpt lat="42.292711" lon="-0.47585">
        <ele>1383.1</ele>
        <time>2018-07-22T09:42:13.000Z</time>
      </trkpt>
      <trkpt lat="42.292713" lon="-0.475847">
        <ele>1383.2</ele>
        <time>2018-07-22T09:42:14.000Z</time>
      </trkpt>
      <trkpt lat="42.292719" lon="-0.475837">
        <ele>1383.4</ele>
        <time>2018-07-22T09:42:15.000Z</time>
      </trkpt>
      <trkpt lat="42.292724" lon="-0.475825">
        <ele>1383.6</ele>
        <time>2018-07-22T09:42:16.000Z</time>
      </trkpt>
      <trkpt lat="42.292729" lon="-0.475815">
        <ele>1383.8</ele>
        <time>2018-07-22T09:42:17.000Z</time>
      </trkpt>
      <trkpt lat="42.292732" lon="-0.475809">
        <ele>1383.9</ele>
        <time>2018-07-22T09:42:18.000Z</time>
      </trkpt>
      <trkpt lat="42.292733" lon="-0.475804">
        <ele>1384.0</ele>
        <time>2018-07-22T09:42:19.000Z</time>
      </trkpt>
      <trkpt lat="42.292735" lon="-0.475801">
        <ele>1384.1</ele>
        <time>2018-07-22T09:42:20.000Z</time>
      </trkpt>
      <trkpt lat="42.292736" lon="-0.475798">
        <ele>1384.1</ele>
        <time>2018-07-22T09:42:21.000Z</time>
      </trkpt>
      <trkpt lat="42.292737" lon="-0.475795">
        <ele>1384.2</ele>
        <time>2018-07-22T09:42:22.000Z</time>
      </trkpt>
      <trkpt lat="42.292738" lon="-0.475792">
        <ele>1384.2</ele>
        <time>2018-07-22T09:42:23.000Z</time>
      </trkpt>
      <trkpt lat="42.292739" lon="-0.475789">
        <ele>1384.3</ele>
        <time>2018-07-22T09:42:24.000Z</time>
      </trkpt>
      <trkpt lat="42.292741" lon="-0.475786">
        <ele>1384.3</ele>
        <time>2018-07-22T09:42:25.000Z</time>
      </trkpt>
      <trkpt lat="42.292744" lon="-0.475782">
        <ele>1384.4</ele>
        <time>2018-07-22T09:42:26.000Z</time>
      </trkpt>
      <trkpt lat="42.29275" lon="-0.475774">
        <ele>1384.6</ele>
        <time>2018-07-22T09:42:27.000Z</time>
      </trkpt>
      <trkpt lat="42.292759" lon="-0.475764">
        <ele>1384.9</ele>
        <time>2018-07-22T09:42:28.000Z</time>
      </trkpt>
      <trkpt lat="42.292765" lon="-0.475757">
        <ele>1385.1</ele>
        <time>2018-07-22T09:42:29.000Z</time>
      </trkpt>
      <trkpt lat="42.29277" lon="-0.475752">
        <ele>1385.2</ele>
        <time>2018-07-22T09:42:30.000Z</time>
      </trkpt>
      <trkpt lat="42.292774" lon="-0.475747">
        <ele>1385.3</ele>
        <time>2018-07-22T09:42:31.000Z</time>
      </trkpt>
      <trkpt lat="42.292777" lon="-0.475742">
        <ele>1385.5</ele>
        <time>2018-07-22T09:42:32.000Z</time>
      </trkpt>
      <trkpt lat="42.292779" lon="-0.475739">
        <ele>1385.5</ele>
        <time>2018-07-22T09:42:33.000Z</time>
      </trkpt>
      <trkpt lat="42.292782" lon="-0.475736">
        <ele>1385.6</ele>
        <time>2018-07-22T09:42:34.000Z</time>
      </trkpt>
      <trkpt lat="42.292787" lon="-0.47573">
        <ele>1385.8</ele>
        <time>2018-07-22T09:42:35.000Z</time>
      </trkpt>
      <trkpt lat="42.292795" lon="-0.475721">
        <ele>1386.0</ele>
        <time>2018-07-22T09:42:36.000Z</time>
      </trkpt>
      <trkpt lat="42.292803" lon="-0.47571">
        <ele>1386.3</ele>
        <time>2018-07-22T09:42:37.000Z</time>
      </trkpt>
      <trkpt lat="42.292808" lon="-0.475702">
        <ele>1386.4</ele>
        <time>2018-07-22T09:42:38.000Z</time>
      </trkpt>
      <trkpt lat="42.292812" lon="-0.475695">
        <ele>1386.6</ele>
        <time>2018-07-22T09:42:39.000Z</time>
      </trkpt>
      <trkpt lat="42.292817" lon="-0.475687">
        <ele>1386.8</ele>
        <time>2018-07-22T09:42:40.000Z</time>
      </trkpt>
      <trkpt lat="42.292821" lon="-0.47568">
        <ele>1386.9</ele>
        <time>2018-07-22T09:42:41.000Z</time>
      </trkpt>
      <trkpt lat="42.292824" lon="-0.475672">
        <ele>1387.1</ele>
        <time>2018-07-22T09:42:42.000Z</time>
      </trkpt>
      <trkpt lat="42.292828" lon="-0.475665">
        <ele>1387.2</ele>
        <time>2018-07-22T09:42:43.000Z</time>
      </trkpt>
      <trkpt lat="42.292832" lon="-0.475658">
        <ele>1387.4</ele>
        <time>2018-07-22T09:42:44.000Z</time>
      </trkpt>
      <trkpt lat="42.292836" lon="-0.475651">
        <ele>1387.5</ele>
        <time>2018-07-22T09:42:45.000Z</time>
      </trkpt>
      <trkpt lat="42.29284" lon="-0.475644">
        <ele>1387.7</ele>
        <time>2018-07-22T09:42:46.000Z</time>
      </trkpt>
      <trkpt lat="42.292843" lon="-0.475637">
        <ele>1387.8</ele>
        <time>2018-07-22T09:42:47.000Z</time>
      </trkpt>
      <trkpt lat="42.292847" lon="-0.475631">
        <ele>1387.9</ele>
        <time>2018-07-22T09:42:48.000Z</time>
      </trkpt>
      <trkpt lat="42.292851" lon="-0.475624">
        <ele>1388.1</ele>
        <time>2018-07-22T09:42:49.000Z</time>
      </trkpt>
      <trkpt lat="42.292855" lon="-0.475617">
        <ele>1388.2</ele>
        <time>2018-07-22T09:42:50.000Z</time>
      </trkpt>
      <trkpt lat="42.292859" lon="-0.47561">
        <ele>1388.4</ele>
        <time>2018-07-22T09:42:51.000Z</time>
      </trkpt>
      <trkpt lat="42.292864" lon="-0.475602">
        <ele>1388.6</ele>
        <time>2018-07-22T09:42:52.000Z</time>
      </trkpt>
      <trkpt lat="42.292868" lon="-0.475595">
        <ele>1388.7</ele>
        <time>2018-07-22T09:42:53.000Z</time>
      </trkpt>
      <trkpt lat="42.292872" lon="-0.475587">
        <ele>1388.9</ele>
        <time>2018-07-22T09:42:54.000Z</time>
      </trkpt>
      <trkpt lat="42.292877" lon="-0.475579">
        <ele>1389.1</ele>
        <time>2018-07-22T09:42:55.000Z</time>
      </trkpt>
      <trkpt lat="42.292881" lon="-0.475571">
        <ele>1389.2</ele>
        <time>2018-07-22T09:42:56.000Z</time>
      </trkpt>
      <trkpt lat="42.292886" lon="-0.475564">
        <ele>1389.4</ele>
        <time>2018-07-22T09:42:57.000Z</time>
      </trkpt>
      <trkpt lat="42.29289" lon="-0.475559">
        <ele>1389.5</ele>
        <time>2018-07-22T09:42:58.000Z</time>
      </trkpt>
      <trkpt lat="42.292894" lon="-0.475554">
        <ele>1389.7</ele>
        <time>2018-07-22T09:42:59.000Z</time>
      </trkpt>
      <trkpt lat="42.292898" lon="-0.475552">
        <ele>1389.7</ele>
        <time>2018-07-22T09:43:00.000Z</time>
      </trkpt>
      <trkpt lat="42.2929" lon="-0.475551">
        <ele>1389.8</ele>
        <time>2018-07-22T09:43:01.000Z</time>
      </trkpt>
      <trkpt lat="42.292903" lon="-0.475548">
        <ele>1389.9</ele>
        <time>2018-07-22T09:43:02.000Z</time>
      </trkpt>
      <trkpt lat="42.292909" lon="-0.475541">
        <ele>1390.1</ele>
        <time>2018-07-22T09:43:03.000Z</time>
      </trkpt>
      <trkpt lat="42.292915" lon="-0.475533">
        <ele>1390.3</ele>
        <time>2018-07-22T09:43:04.000Z</time>
      </trkpt>
      <trkpt lat="42.292921" lon="-0.475524">
        <ele>1390.5</ele>
        <time>2018-07-22T09:43:05.000Z</time>
      </trkpt>
      <trkpt lat="42.292927" lon="-0.475515">
        <ele>1390.7</ele>
        <time>2018-07-22T09:43:06.000Z</time>
      </trkpt>
      <trkpt lat="42.292932" lon="-0.475506">
        <ele>1390.9</ele>
        <time>2018-07-22T09:43:07.000Z</time>
      </trkpt>
      <trkpt lat="42.292936" lon="-0.475496">
        <ele>1391.1</ele>
        <time>2018-07-22T09:43:08.000Z</time>
      </trkpt>
      <trkpt lat="42.292941" lon="-0.475487">
        <ele>1391.3</ele>
        <time>2018-07-22T09:43:09.000Z</time>
      </trkpt>
      <trkpt lat="42.292945" lon="-0.475477">
        <ele>1391.4</ele>
        <time>2018-07-22T09:43:10.000Z</time>
      </trkpt>
      <trkpt lat="42.292948" lon="-0.475467">
        <ele>1391.6</ele>
        <time>2018-07-22T09:43:11.000Z</time>
      </trkpt>
      <trkpt lat="42.292952" lon="-0.475457">
        <ele>1391.8</ele>
        <time>2018-07-22T09:43:12.000Z</time>
      </trkpt>
      <trkpt lat="42.292956" lon="-0.475448">
        <ele>1392.0</ele>
        <time>2018-07-22T09:43:13.000Z</time>
      </trkpt>
      <trkpt lat="42.29296" lon="-0.475438">
        <ele>1392.2</ele>
        <time>2018-07-22T09:43:14.000Z</time>
      </trkpt>
      <trkpt lat="42.292965" lon="-0.475429">
        <ele>1392.4</ele>
        <time>2018-07-22T09:43:15.000Z</time>
      </trkpt>
      <trkpt lat="42.292969" lon="-0.47542">
        <ele>1392.6</ele>
        <time>2018-07-22T09:43:16.000Z</time>
      </trkpt>
      <trkpt lat="42.292974" lon="-0.475411">
        <ele>1392.8</ele>
        <time>2018-07-22T09:43:17.000Z</time>
      </trkpt>
      <trkpt lat="42.292979" lon="-0.475403">
        <ele>1392.9</ele>
        <time>2018-07-22T09:43:18.000Z</time>
      </trkpt>
      <trkpt lat="42.292985" lon="-0.475394">
        <ele>1393.1</ele>
        <time>2018-07-22T09:43:19.000Z</time>
      </trkpt>
      <trkpt lat="42.29299" lon="-0.475386">
        <ele>1393.3</ele>
        <time>2018-07-22T09:43:20.000Z</time>
      </trkpt>
      <trkpt lat="42.292996" lon="-0.475378">
        <ele>1393.5</ele>
        <time>2018-07-22T09:43:21.000Z</time>
      </trkpt>
      <trkpt lat="42.293001" lon="-0.475371">
        <ele>1393.7</ele>
        <time>2018-07-22T09:43:22.000Z</time>
      </trkpt>
      <trkpt lat="42.293007" lon="-0.475363">
        <ele>1393.9</ele>
        <time>2018-07-22T09:43:23.000Z</time>
      </trkpt>
      <trkpt lat="42.293012" lon="-0.475356">
        <ele>1394.1</ele>
        <time>2018-07-22T09:43:24.000Z</time>
      </trkpt>
      <trkpt lat="42.293017" lon="-0.475348">
        <ele>1394.3</ele>
        <time>2018-07-22T09:43:25.000Z</time>
      </trkpt>
      <trkpt lat="42.293022" lon="-0.475341">
        <ele>1394.4</ele>
        <time>2018-07-22T09:43:26.000Z</time>
      </trkpt>
      <trkpt lat="42.293027" lon="-0.475334">
        <ele>1394.6</ele>
        <time>2018-07-22T09:43:27.000Z</time>
      </trkpt>
      <trkpt lat="42.293031" lon="-0.475327">
        <ele>1394.7</ele>
        <time>2018-07-22T09:43:28.000Z</time>
      </trkpt>
      <trkpt lat="42.293035" lon="-0.47532">
        <ele>1394.9</ele>
        <time>2018-07-22T09:43:29.000Z</time>
      </trkpt>
      <trkpt lat="42.293039" lon="-0.475313">
        <ele>1395.1</ele>
        <time>2018-07-22T09:43:30.000Z</time>
      </trkpt>
      <trkpt lat="42.293042" lon="-0.475306">
        <ele>1395.2</ele>
        <time>2018-07-22T09:43:31.000Z</time>
      </trkpt>
      <trkpt lat="42.293046" lon="-0.475299">
        <ele>1395.3</ele>
        <time>2018-07-22T09:43:32.000Z</time>
      </trkpt>
      <trkpt lat="42.293049" lon="-0.475292">
        <ele>1395.5</ele>
        <time>2018-07-22T09:43:33.000Z</time>
      </trkpt>
      <trkpt lat="42.293053" lon="-0.475286">
        <ele>1395.6</ele>
        <time>2018-07-22T09:43:34.000Z</time>
      </trkpt>
      <trkpt lat="42.293056" lon="-0.47528">
        <ele>1395.8</ele>
        <time>2018-07-22T09:43:35.000Z</time>
      </trkpt>
      <trkpt lat="42.293059" lon="-0.475274">
        <ele>1395.9</ele>
        <time>2018-07-22T09:43:36.000Z</time>
      </trkpt>
      <trkpt lat="42.293063" lon="-0.475268">
        <ele>1396.0</ele>
        <time>2018-07-22T09:43:37.000Z</time>
      </trkpt>
      <trkpt lat="42.293066" lon="-0.475262">
        <ele>1396.2</ele>
        <time>2018-07-22T09:43:38.000Z</time>
      </trkpt>
      <trkpt lat="42.293068" lon="-0.475258">
        <ele>1396.2</ele>
        <time>2018-07-22T09:43:39.000Z</time>
      </trkpt>
      <trkpt lat="42.29307" lon="-0.475255">
        <ele>1396.3</ele>
        <time>2018-07-22T09:43:40.000Z</time>
      </trkpt>
      <trkpt lat="42.293074" lon="-0.475247">
        <ele>1396.5</ele>
        <time>2018-07-22T09:43:41.000Z</time>
      </trkpt>
      <trkpt lat="42.29308" lon="-0.47524">
        <ele>1396.7</ele>
        <time>2018-07-22T09:43:42.000Z</time>
      </trkpt>
      <trkpt lat="42.293085" lon="-0.475235">
        <ele>1396.8</ele>
        <time>2018-07-22T09:43:43.000Z</time>
      </trkpt>
      <trkpt lat="42.29309" lon="-0.475228">
        <ele>1397.0</ele>
        <time>2018-07-22T09:43:44.000Z</time>
      </trkpt>
      <trkpt lat="42.293095" lon="-0.475222">
        <ele>1397.1</ele>
        <time>2018-07-22T09:43:45.000Z</time>
      </trkpt>
      <trkpt lat="42.293099" lon="-0.475214">
        <ele>1397.3</ele>
        <time>2018-07-22T09:43:46.000Z</time>
      </trkpt>
      <trkpt lat="42.293104" lon="-0.475207">
        <ele>1397.5</ele>
        <time>2018-07-22T09:43:47.000Z</time>
      </trkpt>
      <trkpt lat="42.293108" lon="-0.4752">
        <ele>1397.6</ele>
        <time>2018-07-22T09:43:48.000Z</time>
      </trkpt>
      <trkpt lat="42.293112" lon="-0.475193">
        <ele>1397.8</ele>
        <time>2018-07-22T09:43:49.000Z</time>
      </trkpt>
      <trkpt lat="42.293116" lon="-0.475185">
        <ele>1398.0</ele>
        <time>2018-07-22T09:43:50.000Z</time>
      </trkpt>
      <trkpt lat="42.293121" lon="-0.475178">
        <ele>1398.1</ele>
        <time>2018-07-22T09:43:51.000Z</time>
      </trkpt>
      <trkpt lat="42.293125" lon="-0.475172">
        <ele>1398.3</ele>
        <time>2018-07-22T09:43:52.000Z</time>
      </trkpt>
      <trkpt lat="42.293129" lon="-0.475166">
        <ele>1398.4</ele>
        <time>2018-07-22T09:43:53.000Z</time>
      </trkpt>
      <trkpt lat="42.293133" lon="-0.47516">
        <ele>1398.6</ele>
        <time>2018-07-22T09:43:54.000Z</time>
      </trkpt>
      <trkpt lat="42.293137" lon="-0.475155">
        <ele>1398.7</ele>
        <time>2018-07-22T09:43:55.000Z</time>
      </trkpt>
      <trkpt lat="42.29314" lon="-0.47515">
        <ele>1398.8</ele>
        <time>2018-07-22T09:43:56.000Z</time>
      </trkpt>
      <trkpt lat="42.293144" lon="-0.475146">
        <ele>1398.9</ele>
        <time>2018-07-22T09:43:57.000Z</time>
      </trkpt>
      <trkpt lat="42.293148" lon="-0.475144">
        <ele>1399.0</ele>
        <time>2018-07-22T09:43:58.000Z</time>
      </trkpt>
      <trkpt lat="42.293151" lon="-0.475142">
        <ele>1399.1</ele>
        <time>2018-07-22T09:43:59.000Z</time>
      </trkpt>
      <trkpt lat="42.293154" lon="-0.47514">
        <ele>1399.2</ele>
        <time>2018-07-22T09:44:00.000Z</time>
      </trkpt>
      <trkpt lat="42.293157" lon="-0.475138">
        <ele>1399.3</ele>
        <time>2018-07-22T09:44:01.000Z</time>
      </trkpt>
      <trkpt lat="42.29316" lon="-0.475135">
        <ele>1399.3</ele>
        <time>2018-07-22T09:44:02.000Z</time>
      </trkpt>
      <trkpt lat="42.293164" lon="-0.475131">
        <ele>1399.5</ele>
        <time>2018-07-22T09:44:03.000Z</time>
      </trkpt>
      <trkpt lat="42.29317" lon="-0.475126">
        <ele>1399.6</ele>
        <time>2018-07-22T09:44:04.000Z</time>
      </trkpt>
      <trkpt lat="42.293175" lon="-0.475119">
        <ele>1399.8</ele>
        <time>2018-07-22T09:44:05.000Z</time>
      </trkpt>
      <trkpt lat="42.293179" lon="-0.475112">
        <ele>1400.0</ele>
        <time>2018-07-22T09:44:06.000Z</time>
      </trkpt>
      <trkpt lat="42.293182" lon="-0.475104">
        <ele>1400.1</ele>
        <time>2018-07-22T09:44:07.000Z</time>
      </trkpt>
      <trkpt lat="42.293186" lon="-0.475098">
        <ele>1400.3</ele>
        <time>2018-07-22T09:44:08.000Z</time>
      </trkpt>
      <trkpt lat="42.293189" lon="-0.475092">
        <ele>1400.4</ele>
        <time>2018-07-22T09:44:09.000Z</time>
      </trkpt>
      <trkpt lat="42.29319" lon="-0.475088">
        <ele>1400.4</ele>
        <time>2018-07-22T09:44:10.000Z</time>
      </trkpt>
      <trkpt lat="42.293192" lon="-0.475085">
        <ele>1400.5</ele>
        <time>2018-07-22T09:44:11.000Z</time>
      </trkpt>
      <trkpt lat="42.293193" lon="-0.475082">
        <ele>1400.6</ele>
        <time>2018-07-22T09:44:12.000Z</time>
      </trkpt>
      <trkpt lat="42.293196" lon="-0.475078">
        <ele>1400.7</ele>
        <time>2018-07-22T09:44:13.000Z</time>
      </trkpt>
      <trkpt lat="42.293199" lon="-0.475072">
        <ele>1400.8</ele>
        <time>2018-07-22T09:44:14.000Z</time>
      </trkpt>
      <trkpt lat="42.293203" lon="-0.475061">
        <ele>1401.0</ele>
        <time>2018-07-22T09:44:15.000Z</time>
      </trkpt>
      <trkpt lat="42.293205" lon="-0.475052">
        <ele>1401.2</ele>
        <time>2018-07-22T09:44:16.000Z</time>
      </trkpt>
      <trkpt lat="42.293208" lon="-0.475044">
        <ele>1401.3</ele>
        <time>2018-07-22T09:44:17.000Z</time>
      </trkpt>
      <trkpt lat="42.29321" lon="-0.475036">
        <ele>1401.5</ele>
        <time>2018-07-22T09:44:18.000Z</time>
      </trkpt>
      <trkpt lat="42.293213" lon="-0.475029">
        <ele>1401.6</ele>
        <time>2018-07-22T09:44:19.000Z</time>
      </trkpt>
      <trkpt lat="42.293216" lon="-0.475023">
        <ele>1401.7</ele>
        <time>2018-07-22T09:44:20.000Z</time>
      </trkpt>
      <trkpt lat="42.293219" lon="-0.475017">
        <ele>1401.9</ele>
        <time>2018-07-22T09:44:21.000Z</time>
      </trkpt>
      <trkpt lat="42.293222" lon="-0.475013">
        <ele>1402.0</ele>
        <time>2018-07-22T09:44:22.000Z</time>
      </trkpt>
      <trkpt lat="42.293225" lon="-0.47501">
        <ele>1402.0</ele>
        <time>2018-07-22T09:44:23.000Z</time>
      </trkpt>
      <trkpt lat="42.293227" lon="-0.475007">
        <ele>1402.1</ele>
        <time>2018-07-22T09:44:24.000Z</time>
      </trkpt>
      <trkpt lat="42.293229" lon="-0.475006">
        <ele>1402.2</ele>
        <time>2018-07-22T09:44:25.000Z</time>
      </trkpt>
      <trkpt lat="42.29323" lon="-0.475003">
        <ele>1402.2</ele>
        <time>2018-07-22T09:44:26.000Z</time>
      </trkpt>
      <trkpt lat="42.293236" lon="-0.474996">
        <ele>1402.4</ele>
        <time>2018-07-22T09:44:27.000Z</time>
      </trkpt>
      <trkpt lat="42.293242" lon="-0.474989">
        <ele>1402.6</ele>
        <time>2018-07-22T09:44:28.000Z</time>
      </trkpt>
      <trkpt lat="42.293248" lon="-0.474981">
        <ele>1402.9</ele>
        <time>2018-07-22T09:44:29.000Z</time>
      </trkpt>
      <trkpt lat="42.293253" lon="-0.474973">
        <ele>1403.1</ele>
        <time>2018-07-22T09:44:30.000Z</time>
      </trkpt>
      <trkpt lat="42.293259" lon="-0.474965">
        <ele>1403.3</ele>
        <time>2018-07-22T09:44:31.000Z</time>
      </trkpt>
      <trkpt lat="42.293264" lon="-0.474956">
        <ele>1403.5</ele>
        <time>2018-07-22T09:44:32.000Z</time>
      </trkpt>
      <trkpt lat="42.293269" lon="-0.474948">
        <ele>1403.7</ele>
        <time>2018-07-22T09:44:33.000Z</time>
      </trkpt>
      <trkpt lat="42.293274" lon="-0.474939">
        <ele>1404.0</ele>
        <time>2018-07-22T09:44:34.000Z</time>
      </trkpt>
      <trkpt lat="42.293279" lon="-0.47493">
        <ele>1404.2</ele>
        <time>2018-07-22T09:44:35.000Z</time>
      </trkpt>
      <trkpt lat="42.293284" lon="-0.474921">
        <ele>1404.4</ele>
        <time>2018-07-22T09:44:36.000Z</time>
      </trkpt>
      <trkpt lat="42.293289" lon="-0.474913">
        <ele>1404.6</ele>
        <time>2018-07-22T09:44:37.000Z</time>
      </trkpt>
      <trkpt lat="42.293293" lon="-0.474905">
        <ele>1404.8</ele>
        <time>2018-07-22T09:44:38.000Z</time>
      </trkpt>
      <trkpt lat="42.293298" lon="-0.474897">
        <ele>1405.0</ele>
        <time>2018-07-22T09:44:39.000Z</time>
      </trkpt>
      <trkpt lat="42.293303" lon="-0.47489">
        <ele>1405.2</ele>
        <time>2018-07-22T09:44:40.000Z</time>
      </trkpt>
      <trkpt lat="42.293308" lon="-0.474883">
        <ele>1405.4</ele>
        <time>2018-07-22T09:44:41.000Z</time>
      </trkpt>
      <trkpt lat="42.293312" lon="-0.474877">
        <ele>1405.6</ele>
        <time>2018-07-22T09:44:42.000Z</time>
      </trkpt>
      <trkpt lat="42.293316" lon="-0.474873">
        <ele>1405.7</ele>
        <time>2018-07-22T09:44:43.000Z</time>
      </trkpt>
      <trkpt lat="42.29332" lon="-0.474869">
        <ele>1405.8</ele>
        <time>2018-07-22T09:44:44.000Z</time>
      </trkpt>
      <trkpt lat="42.293322" lon="-0.474867">
        <ele>1405.9</ele>
        <time>2018-07-22T09:44:45.000Z</time>
      </trkpt>
      <trkpt lat="42.293323" lon="-0.474866">
        <ele>1405.9</ele>
        <time>2018-07-22T09:44:46.000Z</time>
      </trkpt>
      <trkpt lat="42.293323" lon="-0.474867">
        <ele>1405.9</ele>
        <time>2018-07-22T09:44:47.000Z</time>
      </trkpt>
      <trkpt lat="42.293321" lon="-0.474869">
        <ele>1405.8</ele>
        <time>2018-07-22T09:44:48.000Z</time>
      </trkpt>
      <trkpt lat="42.293322" lon="-0.474869">
        <ele>1405.9</ele>
        <time>2018-07-22T09:46:25.000Z</time>
      </trkpt>
      <trkpt lat="42.293325" lon="-0.474869">
        <ele>1405.9</ele>
        <time>2018-07-22T09:46:26.000Z</time>
      </trkpt>
      <trkpt lat="42.293329" lon="-0.474865">
        <ele>1406.0</ele>
        <time>2018-07-22T09:46:27.000Z</time>
      </trkpt>
      <trkpt lat="42.293334" lon="-0.474856">
        <ele>1406.3</ele>
        <time>2018-07-22T09:46:28.000Z</time>
      </trkpt>
      <trkpt lat="42.293339" lon="-0.474847">
        <ele>1406.5</ele>
        <time>2018-07-22T09:46:29.000Z</time>
      </trkpt>
      <trkpt lat="42.293345" lon="-0.474837">
        <ele>1406.8</ele>
        <time>2018-07-22T09:46:30.000Z</time>
      </trkpt>
      <trkpt lat="42.29335" lon="-0.474826">
        <ele>1407.0</ele>
        <time>2018-07-22T09:46:31.000Z</time>
      </trkpt>
      <trkpt lat="42.293355" lon="-0.474815">
        <ele>1407.3</ele>
        <time>2018-07-22T09:46:32.000Z</time>
      </trkpt>
      <trkpt lat="42.29336" lon="-0.474804">
        <ele>1407.6</ele>
        <time>2018-07-22T09:46:33.000Z</time>
      </trkpt>
      <trkpt lat="42.293365" lon="-0.474793">
        <ele>1407.8</ele>
        <time>2018-07-22T09:46:34.000Z</time>
      </trkpt>
      <trkpt lat="42.29337" lon="-0.474782">
        <ele>1408.1</ele>
        <time>2018-07-22T09:46:35.000Z</time>
      </trkpt>
      <trkpt lat="42.293376" lon="-0.47477">
        <ele>1408.4</ele>
        <time>2018-07-22T09:46:36.000Z</time>
      </trkpt>
      <trkpt lat="42.293381" lon="-0.474759">
        <ele>1408.7</ele>
        <time>2018-07-22T09:46:37.000Z</time>
      </trkpt>
      <trkpt lat="42.293387" lon="-0.474749">
        <ele>1408.9</ele>
        <time>2018-07-22T09:46:38.000Z</time>
      </trkpt>
      <trkpt lat="42.293392" lon="-0.474738">
        <ele>1409.2</ele>
        <time>2018-07-22T09:46:39.000Z</time>
      </trkpt>
      <trkpt lat="42.293398" lon="-0.474729">
        <ele>1409.4</ele>
        <time>2018-07-22T09:46:40.000Z</time>
      </trkpt>
      <trkpt lat="42.293405" lon="-0.474719">
        <ele>1409.7</ele>
        <time>2018-07-22T09:46:41.000Z</time>
      </trkpt>
      <trkpt lat="42.293411" lon="-0.47471">
        <ele>1410.0</ele>
        <time>2018-07-22T09:46:42.000Z</time>
      </trkpt>
      <trkpt lat="42.293417" lon="-0.474702">
        <ele>1410.2</ele>
        <time>2018-07-22T09:46:43.000Z</time>
      </trkpt>
      <trkpt lat="42.293423" lon="-0.474693">
        <ele>1410.5</ele>
        <time>2018-07-22T09:46:44.000Z</time>
      </trkpt>
      <trkpt lat="42.293429" lon="-0.474685">
        <ele>1410.7</ele>
        <time>2018-07-22T09:46:45.000Z</time>
      </trkpt>
      <trkpt lat="42.293435" lon="-0.474677">
        <ele>1411.0</ele>
        <time>2018-07-22T09:46:46.000Z</time>
      </trkpt>
      <trkpt lat="42.29344" lon="-0.47467">
        <ele>1411.2</ele>
        <time>2018-07-22T09:46:47.000Z</time>
      </trkpt>
      <trkpt lat="42.293445" lon="-0.474662">
        <ele>1411.4</ele>
        <time>2018-07-22T09:46:48.000Z</time>
      </trkpt>
      <trkpt lat="42.29345" lon="-0.474655">
        <ele>1411.6</ele>
        <time>2018-07-22T09:46:49.000Z</time>
      </trkpt>
      <trkpt lat="42.293454" lon="-0.474647">
        <ele>1411.8</ele>
        <time>2018-07-22T09:46:50.000Z</time>
      </trkpt>
      <trkpt lat="42.293457" lon="-0.474639">
        <ele>1412.0</ele>
        <time>2018-07-22T09:46:51.000Z</time>
      </trkpt>
      <trkpt lat="42.29346" lon="-0.474632">
        <ele>1412.2</ele>
        <time>2018-07-22T09:46:52.000Z</time>
      </trkpt>
      <trkpt lat="42.293462" lon="-0.474624">
        <ele>1412.3</ele>
        <time>2018-07-22T09:46:53.000Z</time>
      </trkpt>
      <trkpt lat="42.293464" lon="-0.474616">
        <ele>1412.5</ele>
        <time>2018-07-22T09:46:54.000Z</time>
      </trkpt>
      <trkpt lat="42.293466" lon="-0.474608">
        <ele>1412.7</ele>
        <time>2018-07-22T09:46:55.000Z</time>
      </trkpt>
      <trkpt lat="42.293468" lon="-0.474601">
        <ele>1412.8</ele>
        <time>2018-07-22T09:46:56.000Z</time>
      </trkpt>
      <trkpt lat="42.293469" lon="-0.474593">
        <ele>1413.0</ele>
        <time>2018-07-22T09:46:57.000Z</time>
      </trkpt>
      <trkpt lat="42.29347" lon="-0.474585">
        <ele>1413.1</ele>
        <time>2018-07-22T09:46:58.000Z</time>
      </trkpt>
      <trkpt lat="42.293472" lon="-0.474578">
        <ele>1413.2</ele>
        <time>2018-07-22T09:46:59.000Z</time>
      </trkpt>
      <trkpt lat="42.293473" lon="-0.474571">
        <ele>1413.4</ele>
        <time>2018-07-22T09:47:00.000Z</time>
      </trkpt>
      <trkpt lat="42.293475" lon="-0.474564">
        <ele>1413.5</ele>
        <time>2018-07-22T09:47:01.000Z</time>
      </trkpt>
      <trkpt lat="42.293477" lon="-0.474557">
        <ele>1413.7</ele>
        <time>2018-07-22T09:47:02.000Z</time>
      </trkpt>
      <trkpt lat="42.293478" lon="-0.47455">
        <ele>1413.8</ele>
        <time>2018-07-22T09:47:03.000Z</time>
      </trkpt>
      <trkpt lat="42.29348" lon="-0.474545">
        <ele>1413.9</ele>
        <time>2018-07-22T09:47:04.000Z</time>
      </trkpt>
      <trkpt lat="42.293482" lon="-0.47454">
        <ele>1414.0</ele>
        <time>2018-07-22T09:47:05.000Z</time>
      </trkpt>
      <trkpt lat="42.293483" lon="-0.474536">
        <ele>1414.1</ele>
        <time>2018-07-22T09:47:06.000Z</time>
      </trkpt>
      <trkpt lat="42.293484" lon="-0.474532">
        <ele>1414.2</ele>
        <time>2018-07-22T09:47:07.000Z</time>
      </trkpt>
      <trkpt lat="42.293486" lon="-0.474528">
        <ele>1414.3</ele>
        <time>2018-07-22T09:47:08.000Z</time>
      </trkpt>
      <trkpt lat="42.293487" lon="-0.474523">
        <ele>1414.4</ele>
        <time>2018-07-22T09:47:09.000Z</time>
      </trkpt>
      <trkpt lat="42.29349" lon="-0.474516">
        <ele>1414.6</ele>
        <time>2018-07-22T09:47:10.000Z</time>
      </trkpt>
      <trkpt lat="42.293495" lon="-0.474509">
        <ele>1414.8</ele>
        <time>2018-07-22T09:47:11.000Z</time>
      </trkpt>
      <trkpt lat="42.2935" lon="-0.474502">
        <ele>1415.0</ele>
        <time>2018-07-22T09:47:12.000Z</time>
      </trkpt>
      <trkpt lat="42.293506" lon="-0.474495">
        <ele>1415.2</ele>
        <time>2018-07-22T09:47:13.000Z</time>
      </trkpt>
      <trkpt lat="42.293512" lon="-0.474488">
        <ele>1415.5</ele>
        <time>2018-07-22T09:47:14.000Z</time>
      </trkpt>
      <trkpt lat="42.293517" lon="-0.47448">
        <ele>1415.7</ele>
        <time>2018-07-22T09:47:15.000Z</time>
      </trkpt>
      <trkpt lat="42.293522" lon="-0.474473">
        <ele>1415.9</ele>
        <time>2018-07-22T09:47:16.000Z</time>
      </trkpt>
      <trkpt lat="42.293527" lon="-0.474466">
        <ele>1416.1</ele>
        <time>2018-07-22T09:47:17.000Z</time>
      </trkpt>
      <trkpt lat="42.293531" lon="-0.474459">
        <ele>1416.3</ele>
        <time>2018-07-22T09:47:18.000Z</time>
      </trkpt>
      <trkpt lat="42.293534" lon="-0.474454">
        <ele>1416.4</ele>
        <time>2018-07-22T09:47:19.000Z</time>
      </trkpt>
      <trkpt lat="42.293537" lon="-0.47445">
        <ele>1416.6</ele>
        <time>2018-07-22T09:47:20.000Z</time>
      </trkpt>
      <trkpt lat="42.293539" lon="-0.474446">
        <ele>1416.7</ele>
        <time>2018-07-22T09:47:21.000Z</time>
      </trkpt>
      <trkpt lat="42.293541" lon="-0.474443">
        <ele>1416.8</ele>
        <time>2018-07-22T09:47:22.000Z</time>
      </trkpt>
      <trkpt lat="42.293543" lon="-0.47444">
        <ele>1416.8</ele>
        <time>2018-07-22T09:47:23.000Z</time>
      </trkpt>
      <trkpt lat="42.293544" lon="-0.474438">
        <ele>1416.9</ele>
        <time>2018-07-22T09:47:24.000Z</time>
      </trkpt>
      <trkpt lat="42.293545" lon="-0.474435">
        <ele>1417.0</ele>
        <time>2018-07-22T09:47:25.000Z</time>
      </trkpt>
      <trkpt lat="42.293547" lon="-0.474432">
        <ele>1417.1</ele>
        <time>2018-07-22T09:47:26.000Z</time>
      </trkpt>
      <trkpt lat="42.29355" lon="-0.474428">
        <ele>1417.2</ele>
        <time>2018-07-22T09:47:27.000Z</time>
      </trkpt>
      <trkpt lat="42.293552" lon="-0.474425">
        <ele>1417.3</ele>
        <time>2018-07-22T09:47:28.000Z</time>
      </trkpt>
      <trkpt lat="42.293553" lon="-0.474423">
        <ele>1417.3</ele>
        <time>2018-07-22T09:47:29.000Z</time>
      </trkpt>
      <trkpt lat="42.293557" lon="-0.474417">
        <ele>1417.5</ele>
        <time>2018-07-22T09:47:30.000Z</time>
      </trkpt>
      <trkpt lat="42.29356" lon="-0.474413">
        <ele>1417.6</ele>
        <time>2018-07-22T09:47:31.000Z</time>
      </trkpt>
      <trkpt lat="42.293564" lon="-0.474409">
        <ele>1417.8</ele>
        <time>2018-07-22T09:47:32.000Z</time>
      </trkpt>
      <trkpt lat="42.293568" lon="-0.474405">
        <ele>1417.9</ele>
        <time>2018-07-22T09:47:33.000Z</time>
      </trkpt>
      <trkpt lat="42.293573" lon="-0.474398">
        <ele>1418.1</ele>
        <time>2018-07-22T09:47:34.000Z</time>
      </trkpt>
      <trkpt lat="42.293578" lon="-0.474391">
        <ele>1418.3</ele>
        <time>2018-07-22T09:47:35.000Z</time>
      </trkpt>
      <trkpt lat="42.293583" lon="-0.474383">
        <ele>1418.6</ele>
        <time>2018-07-22T09:47:36.000Z</time>
      </trkpt>
      <trkpt lat="42.293589" lon="-0.474376">
        <ele>1418.8</ele>
        <time>2018-07-22T09:47:37.000Z</time>
      </trkpt>
      <trkpt lat="42.293593" lon="-0.474369">
        <ele>1419.0</ele>
        <time>2018-07-22T09:47:38.000Z</time>
      </trkpt>
      <trkpt lat="42.293597" lon="-0.474364">
        <ele>1419.2</ele>
        <time>2018-07-22T09:47:39.000Z</time>
      </trkpt>
      <trkpt lat="42.2936" lon="-0.474361">
        <ele>1419.3</ele>
        <time>2018-07-22T09:47:40.000Z</time>
      </trkpt>
      <trkpt lat="42.293602" lon="-0.474358">
        <ele>1419.3</ele>
        <time>2018-07-22T09:47:41.000Z</time>
      </trkpt>
      <trkpt lat="42.293605" lon="-0.474355">
        <ele>1419.5</ele>
        <time>2018-07-22T09:47:42.000Z</time>
      </trkpt>
      <trkpt lat="42.293609" lon="-0.47435">
        <ele>1419.6</ele>
        <time>2018-07-22T09:47:43.000Z</time>
      </trkpt>
      <trkpt lat="42.293614" lon="-0.474343">
        <ele>1419.8</ele>
        <time>2018-07-22T09:47:44.000Z</time>
      </trkpt>
      <trkpt lat="42.293619" lon="-0.474337">
        <ele>1420.0</ele>
        <time>2018-07-22T09:47:45.000Z</time>
      </trkpt>
      <trkpt lat="42.293623" lon="-0.47433">
        <ele>1420.2</ele>
        <time>2018-07-22T09:47:46.000Z</time>
      </trkpt>
      <trkpt lat="42.293626" lon="-0.474324">
        <ele>1420.4</ele>
        <time>2018-07-22T09:47:47.000Z</time>
      </trkpt>
      <trkpt lat="42.293629" lon="-0.474318">
        <ele>1420.5</ele>
        <time>2018-07-22T09:47:48.000Z</time>
      </trkpt>
      <trkpt lat="42.293632" lon="-0.474313">
        <ele>1420.7</ele>
        <time>2018-07-22T09:47:49.000Z</time>
      </trkpt>
      <trkpt lat="42.293634" lon="-0.474308">
        <ele>1420.8</ele>
        <time>2018-07-22T09:47:50.000Z</time>
      </trkpt>
      <trkpt lat="42.293635" lon="-0.474304">
        <ele>1420.9</ele>
        <time>2018-07-22T09:47:51.000Z</time>
      </trkpt>
      <trkpt lat="42.293637" lon="-0.4743">
        <ele>1421.0</ele>
        <time>2018-07-22T09:47:52.000Z</time>
      </trkpt>
      <trkpt lat="42.293638" lon="-0.474297">
        <ele>1421.1</ele>
        <time>2018-07-22T09:47:53.000Z</time>
      </trkpt>
      <trkpt lat="42.293639" lon="-0.474294">
        <ele>1421.1</ele>
        <time>2018-07-22T09:47:54.000Z</time>
      </trkpt>
      <trkpt lat="42.293641" lon="-0.474291">
        <ele>1421.2</ele>
        <time>2018-07-22T09:47:55.000Z</time>
      </trkpt>
      <trkpt lat="42.293642" lon="-0.474287">
        <ele>1421.3</ele>
        <time>2018-07-22T09:47:56.000Z</time>
      </trkpt>
      <trkpt lat="42.293645" lon="-0.474282">
        <ele>1421.5</ele>
        <time>2018-07-22T09:47:57.000Z</time>
      </trkpt>
      <trkpt lat="42.293649" lon="-0.474275">
        <ele>1421.7</ele>
        <time>2018-07-22T09:47:58.000Z</time>
      </trkpt>
      <trkpt lat="42.293653" lon="-0.474267">
        <ele>1421.9</ele>
        <time>2018-07-22T09:47:59.000Z</time>
      </trkpt>
      <trkpt lat="42.293658" lon="-0.474261">
        <ele>1422.1</ele>
        <time>2018-07-22T09:48:00.000Z</time>
      </trkpt>
      <trkpt lat="42.293662" lon="-0.474254">
        <ele>1422.3</ele>
        <time>2018-07-22T09:48:01.000Z</time>
      </trkpt>
      <trkpt lat="42.293666" lon="-0.474247">
        <ele>1422.5</ele>
        <time>2018-07-22T09:48:02.000Z</time>
      </trkpt>
      <trkpt lat="42.293669" lon="-0.474241">
        <ele>1422.6</ele>
        <time>2018-07-22T09:48:03.000Z</time>
      </trkpt>
      <trkpt lat="42.293672" lon="-0.474236">
        <ele>1422.8</ele>
        <time>2018-07-22T09:48:04.000Z</time>
      </trkpt>
      <trkpt lat="42.293674" lon="-0.474232">
        <ele>1422.9</ele>
        <time>2018-07-22T09:48:05.000Z</time>
      </trkpt>
      <trkpt lat="42.293676" lon="-0.474229">
        <ele>1423.0</ele>
        <time>2018-07-22T09:48:06.000Z</time>
      </trkpt>
      <trkpt lat="42.293677" lon="-0.474225">
        <ele>1423.0</ele>
        <time>2018-07-22T09:48:07.000Z</time>
      </trkpt>
      <trkpt lat="42.293679" lon="-0.474222">
        <ele>1423.1</ele>
        <time>2018-07-22T09:48:08.000Z</time>
      </trkpt>
      <trkpt lat="42.293681" lon="-0.474219">
        <ele>1423.2</ele>
        <time>2018-07-22T09:48:09.000Z</time>
      </trkpt>
      <trkpt lat="42.293683" lon="-0.474216">
        <ele>1423.3</ele>
        <time>2018-07-22T09:48:10.000Z</time>
      </trkpt>
      <trkpt lat="42.293685" lon="-0.474213">
        <ele>1423.4</ele>
        <time>2018-07-22T09:48:11.000Z</time>
      </trkpt>
      <trkpt lat="42.293688" lon="-0.474209">
        <ele>1423.5</ele>
        <time>2018-07-22T09:48:12.000Z</time>
      </trkpt>
      <trkpt lat="42.293695" lon="-0.474202">
        <ele>1423.8</ele>
        <time>2018-07-22T09:48:13.000Z</time>
      </trkpt>
      <trkpt lat="42.293699" lon="-0.474196">
        <ele>1424.0</ele>
        <time>2018-07-22T09:48:14.000Z</time>
      </trkpt>
      <trkpt lat="42.293704" lon="-0.474188">
        <ele>1424.2</ele>
        <time>2018-07-22T09:48:15.000Z</time>
      </trkpt>
      <trkpt lat="42.293708" lon="-0.474181">
        <ele>1424.4</ele>
        <time>2018-07-22T09:48:16.000Z</time>
      </trkpt>
      <trkpt lat="42.293709" lon="-0.474177">
        <ele>1424.5</ele>
        <time>2018-07-22T09:48:17.000Z</time>
      </trkpt>
      <trkpt lat="42.29371" lon="-0.474173">
        <ele>1424.6</ele>
        <time>2018-07-22T09:48:18.000Z</time>
      </trkpt>
      <trkpt lat="42.293712" lon="-0.47417">
        <ele>1424.7</ele>
        <time>2018-07-22T09:48:19.000Z</time>
      </trkpt>
      <trkpt lat="42.293713" lon="-0.474168">
        <ele>1424.7</ele>
        <time>2018-07-22T09:48:20.000Z</time>
      </trkpt>
      <trkpt lat="42.293713" lon="-0.474165">
        <ele>1424.8</ele>
        <time>2018-07-22T09:48:21.000Z</time>
      </trkpt>
      <trkpt lat="42.293714" lon="-0.474162">
        <ele>1424.8</ele>
        <time>2018-07-22T09:48:22.000Z</time>
      </trkpt>
      <trkpt lat="42.293716" lon="-0.47416">
        <ele>1424.9</ele>
        <time>2018-07-22T09:48:23.000Z</time>
      </trkpt>
      <trkpt lat="42.293718" lon="-0.474156">
        <ele>1425.0</ele>
        <time>2018-07-22T09:48:24.000Z</time>
      </trkpt>
      <trkpt lat="42.293721" lon="-0.47415">
        <ele>1425.2</ele>
        <time>2018-07-22T09:48:25.000Z</time>
      </trkpt>
      <trkpt lat="42.293727" lon="-0.474142">
        <ele>1425.5</ele>
        <time>2018-07-22T09:48:26.000Z</time>
      </trkpt>
      <trkpt lat="42.293732" lon="-0.474134">
        <ele>1425.7</ele>
        <time>2018-07-22T09:48:27.000Z</time>
      </trkpt>
      <trkpt lat="42.293737" lon="-0.474127">
        <ele>1425.9</ele>
        <time>2018-07-22T09:48:28.000Z</time>
      </trkpt>
      <trkpt lat="42.293742" lon="-0.47412">
        <ele>1426.2</ele>
        <time>2018-07-22T09:48:29.000Z</time>
      </trkpt>
      <trkpt lat="42.293747" lon="-0.474113">
        <ele>1426.4</ele>
        <time>2018-07-22T09:48:30.000Z</time>
      </trkpt>
      <trkpt lat="42.293751" lon="-0.474105">
        <ele>1426.6</ele>
        <time>2018-07-22T09:48:31.000Z</time>
      </trkpt>
      <trkpt lat="42.293755" lon="-0.474098">
        <ele>1426.8</ele>
        <time>2018-07-22T09:48:32.000Z</time>
      </trkpt>
      <trkpt lat="42.293759" lon="-0.474091">
        <ele>1427.0</ele>
        <time>2018-07-22T09:48:33.000Z</time>
      </trkpt>
      <trkpt lat="42.293763" lon="-0.474085">
        <ele>1427.2</ele>
        <time>2018-07-22T09:48:34.000Z</time>
      </trkpt>
      <trkpt lat="42.293766" lon="-0.474079">
        <ele>1427.3</ele>
        <time>2018-07-22T09:48:35.000Z</time>
      </trkpt>
      <trkpt lat="42.293768" lon="-0.474073">
        <ele>1427.5</ele>
        <time>2018-07-22T09:48:36.000Z</time>
      </trkpt>
      <trkpt lat="42.293771" lon="-0.474067">
        <ele>1427.7</ele>
        <time>2018-07-22T09:48:37.000Z</time>
      </trkpt>
      <trkpt lat="42.293773" lon="-0.474063">
        <ele>1427.8</ele>
        <time>2018-07-22T09:48:38.000Z</time>
      </trkpt>
      <trkpt lat="42.293774" lon="-0.474059">
        <ele>1427.9</ele>
        <time>2018-07-22T09:48:39.000Z</time>
      </trkpt>
      <trkpt lat="42.293776" lon="-0.474055">
        <ele>1428.0</ele>
        <time>2018-07-22T09:48:40.000Z</time>
      </trkpt>
      <trkpt lat="42.293777" lon="-0.474052">
        <ele>1428.0</ele>
        <time>2018-07-22T09:48:41.000Z</time>
      </trkpt>
      <trkpt lat="42.293778" lon="-0.474049">
        <ele>1428.1</ele>
        <time>2018-07-22T09:48:42.000Z</time>
      </trkpt>
      <trkpt lat="42.29378" lon="-0.474047">
        <ele>1428.2</ele>
        <time>2018-07-22T09:48:43.000Z</time>
      </trkpt>
      <trkpt lat="42.293782" lon="-0.474044">
        <ele>1428.3</ele>
        <time>2018-07-22T09:48:44.000Z</time>
      </trkpt>
      <trkpt lat="42.293785" lon="-0.47404">
        <ele>1428.4</ele>
        <time>2018-07-22T09:48:45.000Z</time>
      </trkpt>
      <trkpt lat="42.293789" lon="-0.474035">
        <ele>1428.6</ele>
        <time>2018-07-22T09:48:46.000Z</time>
      </trkpt>
      <trkpt lat="42.293792" lon="-0.474029">
        <ele>1428.7</ele>
        <time>2018-07-22T09:48:47.000Z</time>
      </trkpt>
      <trkpt lat="42.293796" lon="-0.474023">
        <ele>1428.9</ele>
        <time>2018-07-22T09:48:48.000Z</time>
      </trkpt>
      <trkpt lat="42.293799" lon="-0.474017">
        <ele>1429.1</ele>
        <time>2018-07-22T09:48:49.000Z</time>
      </trkpt>
      <trkpt lat="42.293802" lon="-0.474013">
        <ele>1429.2</ele>
        <time>2018-07-22T09:48:50.000Z</time>
      </trkpt>
      <trkpt lat="42.293805" lon="-0.474009">
        <ele>1429.3</ele>
        <time>2018-07-22T09:48:51.000Z</time>
      </trkpt>
      <trkpt lat="42.293806" lon="-0.474007">
        <ele>1429.4</ele>
        <time>2018-07-22T09:48:52.000Z</time>
      </trkpt>
      <trkpt lat="42.293808" lon="-0.474005">
        <ele>1429.5</ele>
        <time>2018-07-22T09:48:53.000Z</time>
      </trkpt>
      <trkpt lat="42.293809" lon="-0.474003">
        <ele>1429.5</ele>
        <time>2018-07-22T09:48:54.000Z</time>
      </trkpt>
      <trkpt lat="42.293811" lon="-0.474">
        <ele>1429.6</ele>
        <time>2018-07-22T09:48:55.000Z</time>
      </trkpt>
      <trkpt lat="42.293812" lon="-0.473997">
        <ele>1429.7</ele>
        <time>2018-07-22T09:48:56.000Z</time>
      </trkpt>
      <trkpt lat="42.293814" lon="-0.473995">
        <ele>1429.7</ele>
        <time>2018-07-22T09:48:57.000Z</time>
      </trkpt>
      <trkpt lat="42.293816" lon="-0.473992">
        <ele>1429.8</ele>
        <time>2018-07-22T09:48:58.000Z</time>
      </trkpt>
      <trkpt lat="42.293818" lon="-0.473989">
        <ele>1429.9</ele>
        <time>2018-07-22T09:48:59.000Z</time>
      </trkpt>
      <trkpt lat="42.293825" lon="-0.473978">
        <ele>1430.3</ele>
        <time>2018-07-22T09:49:00.000Z</time>
      </trkpt>
      <trkpt lat="42.293832" lon="-0.473969">
        <ele>1430.5</ele>
        <time>2018-07-22T09:49:01.000Z</time>
      </trkpt>
      <trkpt lat="42.293836" lon="-0.473962">
        <ele>1430.7</ele>
        <time>2018-07-22T09:49:02.000Z</time>
      </trkpt>
      <trkpt lat="42.293839" lon="-0.473958">
        <ele>1430.9</ele>
        <time>2018-07-22T09:49:03.000Z</time>
      </trkpt>
      <trkpt lat="42.293841" lon="-0.473954">
        <ele>1431.0</ele>
        <time>2018-07-22T09:49:04.000Z</time>
      </trkpt>
      <trkpt lat="42.293842" lon="-0.473952">
        <ele>1431.0</ele>
        <time>2018-07-22T09:49:05.000Z</time>
      </trkpt>
      <trkpt lat="42.293843" lon="-0.473949">
        <ele>1431.1</ele>
        <time>2018-07-22T09:49:06.000Z</time>
      </trkpt>
      <trkpt lat="42.293845" lon="-0.473947">
        <ele>1431.2</ele>
        <time>2018-07-22T09:49:07.000Z</time>
      </trkpt>
      <trkpt lat="42.293846" lon="-0.473944">
        <ele>1431.2</ele>
        <time>2018-07-22T09:49:08.000Z</time>
      </trkpt>
      <trkpt lat="42.293848" lon="-0.473941">
        <ele>1431.3</ele>
        <time>2018-07-22T09:49:09.000Z</time>
      </trkpt>
      <trkpt lat="42.293849" lon="-0.473938">
        <ele>1431.4</ele>
        <time>2018-07-22T09:49:10.000Z</time>
      </trkpt>
      <trkpt lat="42.293851" lon="-0.473935">
        <ele>1431.5</ele>
        <time>2018-07-22T09:49:11.000Z</time>
      </trkpt>
      <trkpt lat="42.293852" lon="-0.473933">
        <ele>1431.5</ele>
        <time>2018-07-22T09:49:12.000Z</time>
      </trkpt>
      <trkpt lat="42.293853" lon="-0.473931">
        <ele>1431.6</ele>
        <time>2018-07-22T09:49:13.000Z</time>
      </trkpt>
      <trkpt lat="42.293854" lon="-0.47393">
        <ele>1431.6</ele>
        <time>2018-07-22T09:49:14.000Z</time>
      </trkpt>
      <trkpt lat="42.293856" lon="-0.473927">
        <ele>1431.7</ele>
        <time>2018-07-22T09:49:15.000Z</time>
      </trkpt>
      <trkpt lat="42.293863" lon="-0.47392">
        <ele>1432.0</ele>
        <time>2018-07-22T09:49:16.000Z</time>
      </trkpt>
      <trkpt lat="42.293868" lon="-0.473913">
        <ele>1432.2</ele>
        <time>2018-07-22T09:49:17.000Z</time>
      </trkpt>
      <trkpt lat="42.293871" lon="-0.473907">
        <ele>1432.4</ele>
        <time>2018-07-22T09:49:18.000Z</time>
      </trkpt>
      <trkpt lat="42.293874" lon="-0.473902">
        <ele>1432.5</ele>
        <time>2018-07-22T09:49:19.000Z</time>
      </trkpt>
      <trkpt lat="42.293876" lon="-0.473899">
        <ele>1432.6</ele>
        <time>2018-07-22T09:49:20.000Z</time>
      </trkpt>
      <trkpt lat="42.293878" lon="-0.473896">
        <ele>1432.7</ele>
        <time>2018-07-22T09:49:21.000Z</time>
      </trkpt>
      <trkpt lat="42.293879" lon="-0.473893">
        <ele>1432.7</ele>
        <time>2018-07-22T09:49:22.000Z</time>
      </trkpt>
      <trkpt lat="42.29388" lon="-0.473891">
        <ele>1432.8</ele>
        <time>2018-07-22T09:49:23.000Z</time>
      </trkpt>
      <trkpt lat="42.293881" lon="-0.473889">
        <ele>1432.8</ele>
        <time>2018-07-22T09:49:24.000Z</time>
      </trkpt>
      <trkpt lat="42.293885" lon="-0.473884">
        <ele>1433.0</ele>
        <time>2018-07-22T09:49:25.000Z</time>
      </trkpt>
      <trkpt lat="42.29389" lon="-0.473876">
        <ele>1433.2</ele>
        <time>2018-07-22T09:49:26.000Z</time>
      </trkpt>
      <trkpt lat="42.293896" lon="-0.473867">
        <ele>1433.5</ele>
        <time>2018-07-22T09:49:27.000Z</time>
      </trkpt>
      <trkpt lat="42.2939" lon="-0.473861">
        <ele>1433.7</ele>
        <time>2018-07-22T09:49:28.000Z</time>
      </trkpt>
      <trkpt lat="42.293905" lon="-0.473854">
        <ele>1433.9</ele>
        <time>2018-07-22T09:49:29.000Z</time>
      </trkpt>
      <trkpt lat="42.29391" lon="-0.473847">
        <ele>1434.1</ele>
        <time>2018-07-22T09:49:30.000Z</time>
      </trkpt>
      <trkpt lat="42.293916" lon="-0.47384">
        <ele>1434.3</ele>
        <time>2018-07-22T09:49:31.000Z</time>
      </trkpt>
      <trkpt lat="42.293921" lon="-0.473833">
        <ele>1434.5</ele>
        <time>2018-07-22T09:49:32.000Z</time>
      </trkpt>
      <trkpt lat="42.293926" lon="-0.473827">
        <ele>1434.7</ele>
        <time>2018-07-22T09:49:33.000Z</time>
      </trkpt>
      <trkpt lat="42.29393" lon="-0.473821">
        <ele>1434.9</ele>
        <time>2018-07-22T09:49:34.000Z</time>
      </trkpt>
      <trkpt lat="42.293933" lon="-0.473816">
        <ele>1435.1</ele>
        <time>2018-07-22T09:49:35.000Z</time>
      </trkpt>
      <trkpt lat="42.293935" lon="-0.473812">
        <ele>1435.2</ele>
        <time>2018-07-22T09:49:36.000Z</time>
      </trkpt>
      <trkpt lat="42.293937" lon="-0.473809">
        <ele>1435.2</ele>
        <time>2018-07-22T09:49:37.000Z</time>
      </trkpt>
      <trkpt lat="42.293938" lon="-0.473805">
        <ele>1435.3</ele>
        <time>2018-07-22T09:49:38.000Z</time>
      </trkpt>
      <trkpt lat="42.293939" lon="-0.473802">
        <ele>1435.4</ele>
        <time>2018-07-22T09:49:39.000Z</time>
      </trkpt>
      <trkpt lat="42.29394" lon="-0.4738">
        <ele>1435.5</ele>
        <time>2018-07-22T09:49:40.000Z</time>
      </trkpt>
      <trkpt lat="42.293941" lon="-0.473797">
        <ele>1435.5</ele>
        <time>2018-07-22T09:49:41.000Z</time>
      </trkpt>
      <trkpt lat="42.293943" lon="-0.473794">
        <ele>1435.6</ele>
        <time>2018-07-22T09:49:42.000Z</time>
      </trkpt>
      <trkpt lat="42.293944" lon="-0.47379">
        <ele>1435.7</ele>
        <time>2018-07-22T09:49:43.000Z</time>
      </trkpt>
      <trkpt lat="42.293946" lon="-0.473787">
        <ele>1435.8</ele>
        <time>2018-07-22T09:49:44.000Z</time>
      </trkpt>
      <trkpt lat="42.293949" lon="-0.473782">
        <ele>1435.9</ele>
        <time>2018-07-22T09:49:45.000Z</time>
      </trkpt>
      <trkpt lat="42.293957" lon="-0.473773">
        <ele>1436.2</ele>
        <time>2018-07-22T09:49:46.000Z</time>
      </trkpt>
      <trkpt lat="42.293964" lon="-0.473763">
        <ele>1436.5</ele>
        <time>2018-07-22T09:49:47.000Z</time>
      </trkpt>
      <trkpt lat="42.293968" lon="-0.473756">
        <ele>1436.7</ele>
        <time>2018-07-22T09:49:48.000Z</time>
      </trkpt>
      <trkpt lat="42.293971" lon="-0.473751">
        <ele>1436.8</ele>
        <time>2018-07-22T09:49:49.000Z</time>
      </trkpt>
      <trkpt lat="42.293972" lon="-0.473748">
        <ele>1436.9</ele>
        <time>2018-07-22T09:49:50.000Z</time>
      </trkpt>
      <trkpt lat="42.293972" lon="-0.473745">
        <ele>1437.0</ele>
        <time>2018-07-22T09:49:51.000Z</time>
      </trkpt>
      <trkpt lat="42.293973" lon="-0.473742">
        <ele>1437.0</ele>
        <time>2018-07-22T09:49:52.000Z</time>
      </trkpt>
      <trkpt lat="42.293974" lon="-0.47374">
        <ele>1437.1</ele>
        <time>2018-07-22T09:49:53.000Z</time>
      </trkpt>
      <trkpt lat="42.293975" lon="-0.473737">
        <ele>1437.1</ele>
        <time>2018-07-22T09:49:54.000Z</time>
      </trkpt>
      <trkpt lat="42.293977" lon="-0.473733">
        <ele>1437.3</ele>
        <time>2018-07-22T09:49:55.000Z</time>
      </trkpt>
      <trkpt lat="42.293979" lon="-0.473729">
        <ele>1437.4</ele>
        <time>2018-07-22T09:49:56.000Z</time>
      </trkpt>
      <trkpt lat="42.29398" lon="-0.473726">
        <ele>1437.4</ele>
        <time>2018-07-22T09:49:57.000Z</time>
      </trkpt>
      <trkpt lat="42.293982" lon="-0.473723">
        <ele>1437.5</ele>
        <time>2018-07-22T09:49:58.000Z</time>
      </trkpt>
      <trkpt lat="42.293983" lon="-0.47372">
        <ele>1437.6</ele>
        <time>2018-07-22T09:49:59.000Z</time>
      </trkpt>
      <trkpt lat="42.29399" lon="-0.47371">
        <ele>1437.9</ele>
        <time>2018-07-22T09:50:00.000Z</time>
      </trkpt>
      <trkpt lat="42.293997" lon="-0.473699">
        <ele>1438.2</ele>
        <time>2018-07-22T09:50:01.000Z</time>
      </trkpt>
      <trkpt lat="42.294003" lon="-0.47369">
        <ele>1438.4</ele>
        <time>2018-07-22T09:50:02.000Z</time>
      </trkpt>
      <trkpt lat="42.294007" lon="-0.473684">
        <ele>1438.6</ele>
        <time>2018-07-22T09:50:03.000Z</time>
      </trkpt>
      <trkpt lat="42.294009" lon="-0.473679">
        <ele>1438.7</ele>
        <time>2018-07-22T09:50:04.000Z</time>
      </trkpt>
      <trkpt lat="42.29401" lon="-0.473676">
        <ele>1438.8</ele>
        <time>2018-07-22T09:50:05.000Z</time>
      </trkpt>
      <trkpt lat="42.294011" lon="-0.473673">
        <ele>1438.9</ele>
        <time>2018-07-22T09:50:06.000Z</time>
      </trkpt>
      <trkpt lat="42.294012" lon="-0.473671">
        <ele>1438.9</ele>
        <time>2018-07-22T09:50:07.000Z</time>
      </trkpt>
      <trkpt lat="42.294013" lon="-0.473668">
        <ele>1439.0</ele>
        <time>2018-07-22T09:50:08.000Z</time>
      </trkpt>
      <trkpt lat="42.294015" lon="-0.473665">
        <ele>1439.1</ele>
        <time>2018-07-22T09:50:09.000Z</time>
      </trkpt>
      <trkpt lat="42.294016" lon="-0.473661">
        <ele>1439.1</ele>
        <time>2018-07-22T09:50:10.000Z</time>
      </trkpt>
      <trkpt lat="42.294019" lon="-0.473656">
        <ele>1439.3</ele>
        <time>2018-07-22T09:50:11.000Z</time>
      </trkpt>
      <trkpt lat="42.294025" lon="-0.473649">
        <ele>1439.5</ele>
        <time>2018-07-22T09:50:12.000Z</time>
      </trkpt>
      <trkpt lat="42.294034" lon="-0.473639">
        <ele>1439.8</ele>
        <time>2018-07-22T09:50:13.000Z</time>
      </trkpt>
      <trkpt lat="42.29404" lon="-0.473632">
        <ele>1440.0</ele>
        <time>2018-07-22T09:50:14.000Z</time>
      </trkpt>
      <trkpt lat="42.294046" lon="-0.473623">
        <ele>1440.3</ele>
        <time>2018-07-22T09:50:15.000Z</time>
      </trkpt>
      <trkpt lat="42.29405" lon="-0.473616">
        <ele>1440.5</ele>
        <time>2018-07-22T09:50:16.000Z</time>
      </trkpt>
      <trkpt lat="42.294053" lon="-0.473613">
        <ele>1440.6</ele>
        <time>2018-07-22T09:50:17.000Z</time>
      </trkpt>
      <trkpt lat="42.294055" lon="-0.47361">
        <ele>1440.7</ele>
        <time>2018-07-22T09:50:18.000Z</time>
      </trkpt>
      <trkpt lat="42.294056" lon="-0.473607">
        <ele>1440.7</ele>
        <time>2018-07-22T09:50:19.000Z</time>
      </trkpt>
      <trkpt lat="42.294058" lon="-0.473604">
        <ele>1440.8</ele>
        <time>2018-07-22T09:50:20.000Z</time>
      </trkpt>
      <trkpt lat="42.29406" lon="-0.473601">
        <ele>1440.9</ele>
        <time>2018-07-22T09:50:21.000Z</time>
      </trkpt>
      <trkpt lat="42.294064" lon="-0.473597">
        <ele>1441.0</ele>
        <time>2018-07-22T09:50:22.000Z</time>
      </trkpt>
      <trkpt lat="42.294071" lon="-0.473589">
        <ele>1441.3</ele>
        <time>2018-07-22T09:50:23.000Z</time>
      </trkpt>
      <trkpt lat="42.294081" lon="-0.473578">
        <ele>1441.7</ele>
        <time>2018-07-22T09:50:24.000Z</time>
      </trkpt>
      <trkpt lat="42.294088" lon="-0.473569">
        <ele>1441.9</ele>
        <time>2018-07-22T09:50:25.000Z</time>
      </trkpt>
      <trkpt lat="42.294094" lon="-0.473561">
        <ele>1442.2</ele>
        <time>2018-07-22T09:50:26.000Z</time>
      </trkpt>
      <trkpt lat="42.294099" lon="-0.473554">
        <ele>1442.4</ele>
        <time>2018-07-22T09:50:27.000Z</time>
      </trkpt>
      <trkpt lat="42.294103" lon="-0.473546">
        <ele>1442.6</ele>
        <time>2018-07-22T09:50:28.000Z</time>
      </trkpt>
      <trkpt lat="42.294106" lon="-0.473538">
        <ele>1442.7</ele>
        <time>2018-07-22T09:50:29.000Z</time>
      </trkpt>
      <trkpt lat="42.294109" lon="-0.473531">
        <ele>1442.9</ele>
        <time>2018-07-22T09:50:30.000Z</time>
      </trkpt>
      <trkpt lat="42.294112" lon="-0.473524">
        <ele>1443.1</ele>
        <time>2018-07-22T09:50:31.000Z</time>
      </trkpt>
      <trkpt lat="42.294115" lon="-0.473517">
        <ele>1443.2</ele>
        <time>2018-07-22T09:50:32.000Z</time>
      </trkpt>
      <trkpt lat="42.294117" lon="-0.473512">
        <ele>1443.3</ele>
        <time>2018-07-22T09:50:33.000Z</time>
      </trkpt>
      <trkpt lat="42.29412" lon="-0.473508">
        <ele>1443.5</ele>
        <time>2018-07-22T09:50:34.000Z</time>
      </trkpt>
      <trkpt lat="42.294122" lon="-0.473505">
        <ele>1443.5</ele>
        <time>2018-07-22T09:50:35.000Z</time>
      </trkpt>
      <trkpt lat="42.294123" lon="-0.473501">
        <ele>1443.6</ele>
        <time>2018-07-22T09:50:36.000Z</time>
      </trkpt>
      <trkpt lat="42.294128" lon="-0.473493">
        <ele>1443.8</ele>
        <time>2018-07-22T09:50:37.000Z</time>
      </trkpt>
      <trkpt lat="42.294135" lon="-0.473489">
        <ele>1444.0</ele>
        <time>2018-07-22T09:50:38.000Z</time>
      </trkpt>
      <trkpt lat="42.294142" lon="-0.473489">
        <ele>1444.1</ele>
        <time>2018-07-22T09:50:39.000Z</time>
      </trkpt>
      <trkpt lat="42.294151" lon="-0.47349">
        <ele>1444.3</ele>
        <time>2018-07-22T09:50:40.000Z</time>
      </trkpt>
      <trkpt lat="42.29416" lon="-0.473491">
        <ele>1444.4</ele>
        <time>2018-07-22T09:50:41.000Z</time>
      </trkpt>
      <trkpt lat="42.29417" lon="-0.473494">
        <ele>1444.5</ele>
        <time>2018-07-22T09:50:42.000Z</time>
      </trkpt>
      <trkpt lat="42.29418" lon="-0.473497">
        <ele>1444.5</ele>
        <time>2018-07-22T09:50:43.000Z</time>
      </trkpt>
      <trkpt lat="42.294191" lon="-0.473501">
        <ele>1444.5</ele>
        <time>2018-07-22T09:50:44.000Z</time>
      </trkpt>
      <trkpt lat="42.294201" lon="-0.473505">
        <ele>1444.5</ele>
        <time>2018-07-22T09:50:45.000Z</time>
      </trkpt>
      <trkpt lat="42.294212" lon="-0.47351">
        <ele>1444.5</ele>
        <time>2018-07-22T09:50:46.000Z</time>
      </trkpt>
      <trkpt lat="42.294223" lon="-0.473514">
        <ele>1444.6</ele>
        <time>2018-07-22T09:50:47.000Z</time>
      </trkpt>
      <trkpt lat="42.294233" lon="-0.473518">
        <ele>1444.6</ele>
        <time>2018-07-22T09:50:48.000Z</time>
      </trkpt>
      <trkpt lat="42.294243" lon="-0.473522">
        <ele>1444.6</ele>
        <time>2018-07-22T09:50:49.000Z</time>
      </trkpt>
      <trkpt lat="42.294252" lon="-0.473525">
        <ele>1444.6</ele>
        <time>2018-07-22T09:50:50.000Z</time>
      </trkpt>
      <trkpt lat="42.294261" lon="-0.473527">
        <ele>1444.6</ele>
        <time>2018-07-22T09:50:51.000Z</time>
      </trkpt>
      <trkpt lat="42.29427" lon="-0.47353">
        <ele>1444.6</ele>
        <time>2018-07-22T09:50:52.000Z</time>
      </trkpt>
      <trkpt lat="42.294278" lon="-0.473532">
        <ele>1444.7</ele>
        <time>2018-07-22T09:50:53.000Z</time>
      </trkpt>
      <trkpt lat="42.294286" lon="-0.473534">
        <ele>1444.7</ele>
        <time>2018-07-22T09:50:54.000Z</time>
      </trkpt>
      <trkpt lat="42.294295" lon="-0.473535">
        <ele>1444.7</ele>
        <time>2018-07-22T09:50:55.000Z</time>
      </trkpt>
      <trkpt lat="42.294303" lon="-0.473537">
        <ele>1444.8</ele>
        <time>2018-07-22T09:50:56.000Z</time>
      </trkpt>
      <trkpt lat="42.294312" lon="-0.473539">
        <ele>1444.8</ele>
        <time>2018-07-22T09:50:57.000Z</time>
      </trkpt>
      <trkpt lat="42.294321" lon="-0.473541">
        <ele>1444.8</ele>
        <time>2018-07-22T09:50:58.000Z</time>
      </trkpt>
      <trkpt lat="42.29433" lon="-0.473544">
        <ele>1444.8</ele>
        <time>2018-07-22T09:50:59.000Z</time>
      </trkpt>
      <trkpt lat="42.29434" lon="-0.473547">
        <ele>1444.9</ele>
        <time>2018-07-22T09:51:00.000Z</time>
      </trkpt>
      <trkpt lat="42.29435" lon="-0.47355">
        <ele>1444.9</ele>
        <time>2018-07-22T09:51:01.000Z</time>
      </trkpt>
      <trkpt lat="42.294361" lon="-0.473554">
        <ele>1444.9</ele>
        <time>2018-07-22T09:51:02.000Z</time>
      </trkpt>
      <trkpt lat="42.294372" lon="-0.473559">
        <ele>1444.9</ele>
        <time>2018-07-22T09:51:03.000Z</time>
      </trkpt>
      <trkpt lat="42.294383" lon="-0.473564">
        <ele>1444.9</ele>
        <time>2018-07-22T09:51:04.000Z</time>
      </trkpt>
      <trkpt lat="42.294394" lon="-0.473569">
        <ele>1445.0</ele>
        <time>2018-07-22T09:51:05.000Z</time>
      </trkpt>
      <trkpt lat="42.294405" lon="-0.473576">
        <ele>1444.9</ele>
        <time>2018-07-22T09:51:06.000Z</time>
      </trkpt>
      <trkpt lat="42.294416" lon="-0.473582">
        <ele>1444.9</ele>
        <time>2018-07-22T09:51:07.000Z</time>
      </trkpt>
      <trkpt lat="42.294426" lon="-0.473589">
        <ele>1444.9</ele>
        <time>2018-07-22T09:51:08.000Z</time>
      </trkpt>
      <trkpt lat="42.294437" lon="-0.473597">
        <ele>1444.9</ele>
        <time>2018-07-22T09:51:09.000Z</time>
      </trkpt>
      <trkpt lat="42.294448" lon="-0.473604">
        <ele>1444.9</ele>
        <time>2018-07-22T09:51:10.000Z</time>
      </trkpt>
      <trkpt lat="42.294458" lon="-0.473611">
        <ele>1444.9</ele>
        <time>2018-07-22T09:51:11.000Z</time>
      </trkpt>
      <trkpt lat="42.294469" lon="-0.473618">
        <ele>1444.9</ele>
        <time>2018-07-22T09:51:12.000Z</time>
      </trkpt>
      <trkpt lat="42.294479" lon="-0.473625">
        <ele>1444.9</ele>
        <time>2018-07-22T09:51:13.000Z</time>
      </trkpt>
      <trkpt lat="42.29449" lon="-0.473631">
        <ele>1444.9</ele>
        <time>2018-07-22T09:51:14.000Z</time>
      </trkpt>
      <trkpt lat="42.294501" lon="-0.473638">
        <ele>1444.9</ele>
        <time>2018-07-22T09:51:15.000Z</time>
      </trkpt>
      <trkpt lat="42.294512" lon="-0.473644">
        <ele>1444.9</ele>
        <time>2018-07-22T09:51:16.000Z</time>
      </trkpt>
      <trkpt lat="42.294522" lon="-0.473651">
        <ele>1444.9</ele>
        <time>2018-07-22T09:51:17.000Z</time>
      </trkpt>
      <trkpt lat="42.294533" lon="-0.473657">
        <ele>1444.9</ele>
        <time>2018-07-22T09:51:18.000Z</time>
      </trkpt>
      <trkpt lat="42.294544" lon="-0.473663">
        <ele>1444.9</ele>
        <time>2018-07-22T09:51:19.000Z</time>
      </trkpt>
      <trkpt lat="42.294555" lon="-0.47367">
        <ele>1444.9</ele>
        <time>2018-07-22T09:51:20.000Z</time>
      </trkpt>
      <trkpt lat="42.294567" lon="-0.473676">
        <ele>1445.0</ele>
        <time>2018-07-22T09:51:21.000Z</time>
      </trkpt>
      <trkpt lat="42.294578" lon="-0.473682">
        <ele>1445.0</ele>
        <time>2018-07-22T09:51:22.000Z</time>
      </trkpt>
      <trkpt lat="42.294589" lon="-0.473688">
        <ele>1445.0</ele>
        <time>2018-07-22T09:51:23.000Z</time>
      </trkpt>
      <trkpt lat="42.294601" lon="-0.473694">
        <ele>1445.0</ele>
        <time>2018-07-22T09:51:24.000Z</time>
      </trkpt>
      <trkpt lat="42.294612" lon="-0.473699">
        <ele>1445.1</ele>
        <time>2018-07-22T09:51:25.000Z</time>
      </trkpt>
      <trkpt lat="42.294623" lon="-0.473704">
        <ele>1445.1</ele>
        <time>2018-07-22T09:51:26.000Z</time>
      </trkpt>
      <trkpt lat="42.294635" lon="-0.473708">
        <ele>1445.2</ele>
        <time>2018-07-22T09:51:27.000Z</time>
      </trkpt>
      <trkpt lat="42.294646" lon="-0.473712">
        <ele>1445.2</ele>
        <time>2018-07-22T09:51:28.000Z</time>
      </trkpt>
      <trkpt lat="42.294657" lon="-0.473714">
        <ele>1445.3</ele>
        <time>2018-07-22T09:51:29.000Z</time>
      </trkpt>
      <trkpt lat="42.294669" lon="-0.473716">
        <ele>1445.4</ele>
        <time>2018-07-22T09:51:30.000Z</time>
      </trkpt>
      <trkpt lat="42.29468" lon="-0.473717">
        <ele>1445.5</ele>
        <time>2018-07-22T09:51:31.000Z</time>
      </trkpt>
      <trkpt lat="42.294691" lon="-0.473716">
        <ele>1445.6</ele>
        <time>2018-07-22T09:51:32.000Z</time>
      </trkpt>
      <trkpt lat="42.294702" lon="-0.473714">
        <ele>1445.7</ele>
        <time>2018-07-22T09:51:33.000Z</time>
      </trkpt>
      <trkpt lat="42.294712" lon="-0.473711">
        <ele>1445.8</ele>
        <time>2018-07-22T09:51:34.000Z</time>
      </trkpt>
      <trkpt lat="42.294723" lon="-0.473707">
        <ele>1445.9</ele>
        <time>2018-07-22T09:51:35.000Z</time>
      </trkpt>
      <trkpt lat="42.294733" lon="-0.473703">
        <ele>1446.1</ele>
        <time>2018-07-22T09:51:36.000Z</time>
      </trkpt>
      <trkpt lat="42.294744" lon="-0.473698">
        <ele>1446.2</ele>
        <time>2018-07-22T09:51:37.000Z</time>
      </trkpt>
      <trkpt lat="42.294754" lon="-0.473692">
        <ele>1446.3</ele>
        <time>2018-07-22T09:51:38.000Z</time>
      </trkpt>
      <trkpt lat="42.294765" lon="-0.473687">
        <ele>1446.5</ele>
        <time>2018-07-22T09:51:39.000Z</time>
      </trkpt>
      <trkpt lat="42.294775" lon="-0.473681">
        <ele>1446.6</ele>
        <time>2018-07-22T09:51:40.000Z</time>
      </trkpt>
      <trkpt lat="42.294785" lon="-0.473677">
        <ele>1446.7</ele>
        <time>2018-07-22T09:51:41.000Z</time>
      </trkpt>
      <trkpt lat="42.294796" lon="-0.473673">
        <ele>1446.9</ele>
        <time>2018-07-22T09:51:42.000Z</time>
      </trkpt>
      <trkpt lat="42.294806" lon="-0.473671">
        <ele>1447.0</ele>
        <time>2018-07-22T09:51:43.000Z</time>
      </trkpt>
      <trkpt lat="42.294817" lon="-0.473671">
        <ele>1447.1</ele>
        <time>2018-07-22T09:51:44.000Z</time>
      </trkpt>
      <trkpt lat="42.294828" lon="-0.473672">
        <ele>1447.1</ele>
        <time>2018-07-22T09:51:45.000Z</time>
      </trkpt>
      <trkpt lat="42.294839" lon="-0.473675">
        <ele>1447.2</ele>
        <time>2018-07-22T09:51:46.000Z</time>
      </trkpt>
      <trkpt lat="42.29485" lon="-0.473679">
        <ele>1447.3</ele>
        <time>2018-07-22T09:51:47.000Z</time>
      </trkpt>
      <trkpt lat="42.29486" lon="-0.473684">
        <ele>1447.3</ele>
        <time>2018-07-22T09:51:48.000Z</time>
      </trkpt>
      <trkpt lat="42.294871" lon="-0.473691">
        <ele>1447.3</ele>
        <time>2018-07-22T09:51:49.000Z</time>
      </trkpt>
      <trkpt lat="42.294881" lon="-0.473698">
        <ele>1447.4</ele>
        <time>2018-07-22T09:51:50.000Z</time>
      </trkpt>
      <trkpt lat="42.294891" lon="-0.473707">
        <ele>1447.4</ele>
        <time>2018-07-22T09:51:51.000Z</time>
      </trkpt>
      <trkpt lat="42.294901" lon="-0.473716">
        <ele>1447.4</ele>
        <time>2018-07-22T09:51:52.000Z</time>
      </trkpt>
      <trkpt lat="42.29491" lon="-0.473727">
        <ele>1447.4</ele>
        <time>2018-07-22T09:51:53.000Z</time>
      </trkpt>
      <trkpt lat="42.294918" lon="-0.473737">
        <ele>1447.4</ele>
        <time>2018-07-22T09:51:54.000Z</time>
      </trkpt>
      <trkpt lat="42.294927" lon="-0.473748">
        <ele>1447.4</ele>
        <time>2018-07-22T09:51:55.000Z</time>
      </trkpt>
      <trkpt lat="42.294934" lon="-0.47376">
        <ele>1447.3</ele>
        <time>2018-07-22T09:51:56.000Z</time>
      </trkpt>
      <trkpt lat="42.294942" lon="-0.473772">
        <ele>1447.3</ele>
        <time>2018-07-22T09:51:57.000Z</time>
      </trkpt>
      <trkpt lat="42.294949" lon="-0.473784">
        <ele>1447.3</ele>
        <time>2018-07-22T09:51:58.000Z</time>
      </trkpt>
      <trkpt lat="42.294956" lon="-0.473797">
        <ele>1447.2</ele>
        <time>2018-07-22T09:51:59.000Z</time>
      </trkpt>
      <trkpt lat="42.294963" lon="-0.47381">
        <ele>1447.2</ele>
        <time>2018-07-22T09:52:00.000Z</time>
      </trkpt>
      <trkpt lat="42.294969" lon="-0.473823">
        <ele>1447.2</ele>
        <time>2018-07-22T09:52:01.000Z</time>
      </trkpt>
      <trkpt lat="42.294976" lon="-0.473836">
        <ele>1447.1</ele>
        <time>2018-07-22T09:52:02.000Z</time>
      </trkpt>
      <trkpt lat="42.294982" lon="-0.47385">
        <ele>1447.1</ele>
        <time>2018-07-22T09:52:03.000Z</time>
      </trkpt>
      <trkpt lat="42.294988" lon="-0.473863">
        <ele>1447.1</ele>
        <time>2018-07-22T09:52:04.000Z</time>
      </trkpt>
      <trkpt lat="42.294995" lon="-0.473877">
        <ele>1447.0</ele>
        <time>2018-07-22T09:52:05.000Z</time>
      </trkpt>
      <trkpt lat="42.295001" lon="-0.47389">
        <ele>1447.0</ele>
        <time>2018-07-22T09:52:06.000Z</time>
      </trkpt>
      <trkpt lat="42.295008" lon="-0.473903">
        <ele>1446.8</ele>
        <time>2018-07-22T09:52:07.000Z</time>
      </trkpt>
      <trkpt lat="42.295015" lon="-0.473916">
        <ele>1446.7</ele>
        <time>2018-07-22T09:52:08.000Z</time>
      </trkpt>
      <trkpt lat="42.295022" lon="-0.473929">
        <ele>1446.5</ele>
        <time>2018-07-22T09:52:09.000Z</time>
      </trkpt>
      <trkpt lat="42.295029" lon="-0.473941">
        <ele>1446.3</ele>
        <time>2018-07-22T09:52:10.000Z</time>
      </trkpt>
      <trkpt lat="42.295037" lon="-0.473953">
        <ele>1446.2</ele>
        <time>2018-07-22T09:52:11.000Z</time>
      </trkpt>
      <trkpt lat="42.295044" lon="-0.473964">
        <ele>1446.0</ele>
        <time>2018-07-22T09:52:12.000Z</time>
      </trkpt>
      <trkpt lat="42.295052" lon="-0.473975">
        <ele>1445.9</ele>
        <time>2018-07-22T09:52:13.000Z</time>
      </trkpt>
      <trkpt lat="42.29506" lon="-0.473985">
        <ele>1445.7</ele>
        <time>2018-07-22T09:52:14.000Z</time>
      </trkpt>
      <trkpt lat="42.295069" lon="-0.473994">
        <ele>1445.6</ele>
        <time>2018-07-22T09:52:15.000Z</time>
      </trkpt>
      <trkpt lat="42.295078" lon="-0.474003">
        <ele>1445.4</ele>
        <time>2018-07-22T09:52:16.000Z</time>
      </trkpt>
      <trkpt lat="42.295087" lon="-0.47401">
        <ele>1445.3</ele>
        <time>2018-07-22T09:52:17.000Z</time>
      </trkpt>
      <trkpt lat="42.295097" lon="-0.474017">
        <ele>1445.2</ele>
        <time>2018-07-22T09:52:18.000Z</time>
      </trkpt>
      <trkpt lat="42.295107" lon="-0.474024">
        <ele>1445.0</ele>
        <time>2018-07-22T09:52:19.000Z</time>
      </trkpt>
      <trkpt lat="42.295117" lon="-0.47403">
        <ele>1444.9</ele>
        <time>2018-07-22T09:52:20.000Z</time>
      </trkpt>
      <trkpt lat="42.295127" lon="-0.474035">
        <ele>1444.8</ele>
        <time>2018-07-22T09:52:21.000Z</time>
      </trkpt>
      <trkpt lat="42.295137" lon="-0.47404">
        <ele>1444.6</ele>
        <time>2018-07-22T09:52:22.000Z</time>
      </trkpt>
      <trkpt lat="42.295148" lon="-0.474045">
        <ele>1444.5</ele>
        <time>2018-07-22T09:52:23.000Z</time>
      </trkpt>
      <trkpt lat="42.295159" lon="-0.474049">
        <ele>1444.4</ele>
        <time>2018-07-22T09:52:24.000Z</time>
      </trkpt>
      <trkpt lat="42.295169" lon="-0.474053">
        <ele>1444.3</ele>
        <time>2018-07-22T09:52:25.000Z</time>
      </trkpt>
      <trkpt lat="42.29518" lon="-0.474058">
        <ele>1444.1</ele>
        <time>2018-07-22T09:52:26.000Z</time>
      </trkpt>
      <trkpt lat="42.295191" lon="-0.474062">
        <ele>1444.0</ele>
        <time>2018-07-22T09:52:27.000Z</time>
      </trkpt>
      <trkpt lat="42.295202" lon="-0.474066">
        <ele>1443.9</ele>
        <time>2018-07-22T09:52:28.000Z</time>
      </trkpt>
      <trkpt lat="42.295213" lon="-0.47407">
        <ele>1443.8</ele>
        <time>2018-07-22T09:52:29.000Z</time>
      </trkpt>
      <trkpt lat="42.295223" lon="-0.474074">
        <ele>1443.6</ele>
        <time>2018-07-22T09:52:30.000Z</time>
      </trkpt>
      <trkpt lat="42.295234" lon="-0.474079">
        <ele>1443.5</ele>
        <time>2018-07-22T09:52:31.000Z</time>
      </trkpt>
      <trkpt lat="42.295245" lon="-0.474083">
        <ele>1443.4</ele>
        <time>2018-07-22T09:52:32.000Z</time>
      </trkpt>
      <trkpt lat="42.295256" lon="-0.474088">
        <ele>1443.3</ele>
        <time>2018-07-22T09:52:33.000Z</time>
      </trkpt>
      <trkpt lat="42.295266" lon="-0.474093">
        <ele>1443.2</ele>
        <time>2018-07-22T09:52:34.000Z</time>
      </trkpt>
      <trkpt lat="42.295277" lon="-0.474098">
        <ele>1443.0</ele>
        <time>2018-07-22T09:52:35.000Z</time>
      </trkpt>
      <trkpt lat="42.295288" lon="-0.474103">
        <ele>1442.9</ele>
        <time>2018-07-22T09:52:36.000Z</time>
      </trkpt>
      <trkpt lat="42.295298" lon="-0.474108">
        <ele>1442.8</ele>
        <time>2018-07-22T09:52:37.000Z</time>
      </trkpt>
      <trkpt lat="42.295309" lon="-0.474114">
        <ele>1442.7</ele>
        <time>2018-07-22T09:52:38.000Z</time>
      </trkpt>
      <trkpt lat="42.295319" lon="-0.47412">
        <ele>1442.5</ele>
        <time>2018-07-22T09:52:39.000Z</time>
      </trkpt>
      <trkpt lat="42.29533" lon="-0.474126">
        <ele>1442.4</ele>
        <time>2018-07-22T09:52:40.000Z</time>
      </trkpt>
      <trkpt lat="42.29534" lon="-0.474133">
        <ele>1442.3</ele>
        <time>2018-07-22T09:52:41.000Z</time>
      </trkpt>
      <trkpt lat="42.295351" lon="-0.474139">
        <ele>1442.2</ele>
        <time>2018-07-22T09:52:42.000Z</time>
      </trkpt>
      <trkpt lat="42.295361" lon="-0.474146">
        <ele>1442.1</ele>
        <time>2018-07-22T09:52:43.000Z</time>
      </trkpt>
      <trkpt lat="42.295372" lon="-0.474153">
        <ele>1441.9</ele>
        <time>2018-07-22T09:52:44.000Z</time>
      </trkpt>
      <trkpt lat="42.295382" lon="-0.47416">
        <ele>1441.8</ele>
        <time>2018-07-22T09:52:45.000Z</time>
      </trkpt>
      <trkpt lat="42.295392" lon="-0.474168">
        <ele>1441.7</ele>
        <time>2018-07-22T09:52:46.000Z</time>
      </trkpt>
      <trkpt lat="42.295403" lon="-0.474175">
        <ele>1441.6</ele>
        <time>2018-07-22T09:52:47.000Z</time>
      </trkpt>
      <trkpt lat="42.295413" lon="-0.474183">
        <ele>1441.4</ele>
        <time>2018-07-22T09:52:48.000Z</time>
      </trkpt>
      <trkpt lat="42.295423" lon="-0.474191">
        <ele>1441.3</ele>
        <time>2018-07-22T09:52:49.000Z</time>
      </trkpt>
      <trkpt lat="42.295434" lon="-0.474199">
        <ele>1441.1</ele>
        <time>2018-07-22T09:52:50.000Z</time>
      </trkpt>
      <trkpt lat="42.295444" lon="-0.474207">
        <ele>1441.0</ele>
        <time>2018-07-22T09:52:51.000Z</time>
      </trkpt>
      <trkpt lat="42.295454" lon="-0.474215">
        <ele>1440.9</ele>
        <time>2018-07-22T09:52:52.000Z</time>
      </trkpt>
      <trkpt lat="42.295464" lon="-0.474224">
        <ele>1440.8</ele>
        <time>2018-07-22T09:52:53.000Z</time>
      </trkpt>
      <trkpt lat="42.295474" lon="-0.474232">
        <ele>1440.6</ele>
        <time>2018-07-22T09:52:54.000Z</time>
      </trkpt>
      <trkpt lat="42.295484" lon="-0.474241">
        <ele>1440.5</ele>
        <time>2018-07-22T09:52:55.000Z</time>
      </trkpt>
      <trkpt lat="42.295494" lon="-0.474251">
        <ele>1440.4</ele>
        <time>2018-07-22T09:52:56.000Z</time>
      </trkpt>
      <trkpt lat="42.295504" lon="-0.47426">
        <ele>1440.3</ele>
        <time>2018-07-22T09:52:57.000Z</time>
      </trkpt>
      <trkpt lat="42.295514" lon="-0.47427">
        <ele>1440.1</ele>
        <time>2018-07-22T09:52:58.000Z</time>
      </trkpt>
      <trkpt lat="42.295524" lon="-0.47428">
        <ele>1440.0</ele>
        <time>2018-07-22T09:52:59.000Z</time>
      </trkpt>
      <trkpt lat="42.295533" lon="-0.47429">
        <ele>1439.9</ele>
        <time>2018-07-22T09:53:00.000Z</time>
      </trkpt>
      <trkpt lat="42.295543" lon="-0.474301">
        <ele>1439.8</ele>
        <time>2018-07-22T09:53:01.000Z</time>
      </trkpt>
      <trkpt lat="42.295552" lon="-0.474311">
        <ele>1439.7</ele>
        <time>2018-07-22T09:53:02.000Z</time>
      </trkpt>
      <trkpt lat="42.295561" lon="-0.474322">
        <ele>1439.6</ele>
        <time>2018-07-22T09:53:03.000Z</time>
      </trkpt>
      <trkpt lat="42.295571" lon="-0.474332">
        <ele>1439.4</ele>
        <time>2018-07-22T09:53:04.000Z</time>
      </trkpt>
      <trkpt lat="42.295579" lon="-0.474342">
        <ele>1439.3</ele>
        <time>2018-07-22T09:53:05.000Z</time>
      </trkpt>
      <trkpt lat="42.295588" lon="-0.474352">
        <ele>1439.2</ele>
        <time>2018-07-22T09:53:06.000Z</time>
      </trkpt>
      <trkpt lat="42.295596" lon="-0.474362">
        <ele>1439.2</ele>
        <time>2018-07-22T09:53:07.000Z</time>
      </trkpt>
      <trkpt lat="42.295604" lon="-0.474371">
        <ele>1439.1</ele>
        <time>2018-07-22T09:53:08.000Z</time>
      </trkpt>
      <trkpt lat="42.295612" lon="-0.474381">
        <ele>1439.0</ele>
        <time>2018-07-22T09:53:09.000Z</time>
      </trkpt>
      <trkpt lat="42.295619" lon="-0.474391">
        <ele>1438.9</ele>
        <time>2018-07-22T09:53:10.000Z</time>
      </trkpt>
      <trkpt lat="42.295626" lon="-0.474402">
        <ele>1438.8</ele>
        <time>2018-07-22T09:53:11.000Z</time>
      </trkpt>
      <trkpt lat="42.295632" lon="-0.474413">
        <ele>1438.8</ele>
        <time>2018-07-22T09:53:12.000Z</time>
      </trkpt>
      <trkpt lat="42.295638" lon="-0.474425">
        <ele>1438.7</ele>
        <time>2018-07-22T09:53:13.000Z</time>
      </trkpt>
      <trkpt lat="42.295643" lon="-0.474437">
        <ele>1438.6</ele>
        <time>2018-07-22T09:53:14.000Z</time>
      </trkpt>
      <trkpt lat="42.295649" lon="-0.474449">
        <ele>1438.5</ele>
        <time>2018-07-22T09:53:15.000Z</time>
      </trkpt>
      <trkpt lat="42.295654" lon="-0.474462">
        <ele>1438.5</ele>
        <time>2018-07-22T09:53:16.000Z</time>
      </trkpt>
      <trkpt lat="42.29566" lon="-0.474475">
        <ele>1438.4</ele>
        <time>2018-07-22T09:53:17.000Z</time>
      </trkpt>
      <trkpt lat="42.295665" lon="-0.474488">
        <ele>1438.3</ele>
        <time>2018-07-22T09:53:18.000Z</time>
      </trkpt>
      <trkpt lat="42.295671" lon="-0.474501">
        <ele>1438.3</ele>
        <time>2018-07-22T09:53:19.000Z</time>
      </trkpt>
      <trkpt lat="42.295677" lon="-0.474515">
        <ele>1438.2</ele>
        <time>2018-07-22T09:53:20.000Z</time>
      </trkpt>
      <trkpt lat="42.295684" lon="-0.474528">
        <ele>1438.1</ele>
        <time>2018-07-22T09:53:21.000Z</time>
      </trkpt>
      <trkpt lat="42.295691" lon="-0.474542">
        <ele>1438.1</ele>
        <time>2018-07-22T09:53:22.000Z</time>
      </trkpt>
      <trkpt lat="42.295698" lon="-0.474555">
        <ele>1438.0</ele>
        <time>2018-07-22T09:53:23.000Z</time>
      </trkpt>
      <trkpt lat="42.295705" lon="-0.474568">
        <ele>1437.9</ele>
        <time>2018-07-22T09:53:24.000Z</time>
      </trkpt>
      <trkpt lat="42.295713" lon="-0.474582">
        <ele>1437.9</ele>
        <time>2018-07-22T09:53:25.000Z</time>
      </trkpt>
      <trkpt lat="42.29572" lon="-0.474594">
        <ele>1437.8</ele>
        <time>2018-07-22T09:53:26.000Z</time>
      </trkpt>
      <trkpt lat="42.295728" lon="-0.474607">
        <ele>1437.8</ele>
        <time>2018-07-22T09:53:27.000Z</time>
      </trkpt>
      <trkpt lat="42.295735" lon="-0.474619">
        <ele>1437.7</ele>
        <time>2018-07-22T09:53:28.000Z</time>
      </trkpt>
      <trkpt lat="42.295742" lon="-0.47463">
        <ele>1437.7</ele>
        <time>2018-07-22T09:53:29.000Z</time>
      </trkpt>
      <trkpt lat="42.295749" lon="-0.474641">
        <ele>1437.6</ele>
        <time>2018-07-22T09:53:30.000Z</time>
      </trkpt>
      <trkpt lat="42.295756" lon="-0.474651">
        <ele>1437.6</ele>
        <time>2018-07-22T09:53:31.000Z</time>
      </trkpt>
      <trkpt lat="42.295762" lon="-0.47466">
        <ele>1437.6</ele>
        <time>2018-07-22T09:53:32.000Z</time>
      </trkpt>
      <trkpt lat="42.295768" lon="-0.474669">
        <ele>1437.5</ele>
        <time>2018-07-22T09:53:33.000Z</time>
      </trkpt>
      <trkpt lat="42.295773" lon="-0.474676">
        <ele>1437.5</ele>
        <time>2018-07-22T09:53:34.000Z</time>
      </trkpt>
      <trkpt lat="42.295777" lon="-0.474682">
        <ele>1437.5</ele>
        <time>2018-07-22T09:53:35.000Z</time>
      </trkpt>
      <trkpt lat="42.29578" lon="-0.474688">
        <ele>1437.5</ele>
        <time>2018-07-22T09:53:36.000Z</time>
      </trkpt>
      <trkpt lat="42.295783" lon="-0.474691">
        <ele>1437.5</ele>
        <time>2018-07-22T09:53:37.000Z</time>
      </trkpt>
      <trkpt lat="42.295785" lon="-0.474694">
        <ele>1437.4</ele>
        <time>2018-07-22T09:53:38.000Z</time>
      </trkpt>
      <trkpt lat="42.295786" lon="-0.474695">
        <ele>1437.4</ele>
        <time>2018-07-22T09:53:39.000Z</time>
      </trkpt>
      <trkpt lat="42.295786" lon="-0.474695">
        <ele>1437.4</ele>
        <time>2018-07-22T09:53:40.000Z</time>
      </trkpt>
      <trkpt lat="42.295786" lon="-0.474695">
        <ele>1437.4</ele>
        <time>2018-07-22T09:53:41.000Z</time>
      </trkpt>
      <trkpt lat="42.295786" lon="-0.474695">
        <ele>1437.4</ele>
        <time>2018-07-22T09:53:42.000Z</time>
      </trkpt>
      <trkpt lat="42.295786" lon="-0.474695">
        <ele>1437.4</ele>
        <time>2018-07-22T09:53:43.000Z</time>
      </trkpt>
      <trkpt lat="42.295786" lon="-0.474695">
        <ele>1437.4</ele>
        <time>2018-07-22T09:53:44.000Z</time>
      </trkpt>
      <trkpt lat="42.295786" lon="-0.474695">
        <ele>1437.4</ele>
        <time>2018-07-22T09:53:45.000Z</time>
      </trkpt>
      <trkpt lat="42.295786" lon="-0.474695">
        <ele>1437.4</ele>
        <time>2018-07-22T09:53:46.000Z</time>
      </trkpt>
      <trkpt lat="42.295786" lon="-0.474695">
        <ele>1437.4</ele>
        <time>2018-07-22T09:53:47.000Z</time>
      </trkpt>
      <trkpt lat="42.295786" lon="-0.474695">
        <ele>1437.4</ele>
        <time>2018-07-22T09:53:48.000Z</time>
      </trkpt>
      <trkpt lat="42.295786" lon="-0.474696">
        <ele>1437.4</ele>
        <time>2018-07-22T09:53:49.000Z</time>
      </trkpt>
      <trkpt lat="42.295787" lon="-0.474696">
        <ele>1437.4</ele>
        <time>2018-07-22T09:53:50.000Z</time>
      </trkpt>
      <trkpt lat="42.295787" lon="-0.474697">
        <ele>1437.4</ele>
        <time>2018-07-22T09:53:51.000Z</time>
      </trkpt>
      <trkpt lat="42.295788" lon="-0.474698">
        <ele>1437.4</ele>
        <time>2018-07-22T09:53:52.000Z</time>
      </trkpt>
      <trkpt lat="42.295788" lon="-0.474698">
        <ele>1437.4</ele>
        <time>2018-07-22T09:53:53.000Z</time>
      </trkpt>
      <trkpt lat="42.295789" lon="-0.474699">
        <ele>1437.4</ele>
        <time>2018-07-22T09:53:54.000Z</time>
      </trkpt>
      <trkpt lat="42.29579" lon="-0.474701">
        <ele>1437.4</ele>
        <time>2018-07-22T09:53:55.000Z</time>
      </trkpt>
      <trkpt lat="42.295792" lon="-0.474704">
        <ele>1437.4</ele>
        <time>2018-07-22T09:53:56.000Z</time>
      </trkpt>
      <trkpt lat="42.295794" lon="-0.474706">
        <ele>1437.4</ele>
        <time>2018-07-22T09:53:57.000Z</time>
      </trkpt>
      <trkpt lat="42.295796" lon="-0.474711">
        <ele>1437.4</ele>
        <time>2018-07-22T09:53:58.000Z</time>
      </trkpt>
      <trkpt lat="42.295801" lon="-0.474718">
        <ele>1437.4</ele>
        <time>2018-07-22T09:53:59.000Z</time>
      </trkpt>
      <trkpt lat="42.295806" lon="-0.474724">
        <ele>1437.4</ele>
        <time>2018-07-22T09:54:00.000Z</time>
      </trkpt>
      <trkpt lat="42.295811" lon="-0.474729">
        <ele>1437.4</ele>
        <time>2018-07-22T09:54:01.000Z</time>
      </trkpt>
      <trkpt lat="42.295817" lon="-0.474735">
        <ele>1437.3</ele>
        <time>2018-07-22T09:54:02.000Z</time>
      </trkpt>
      <trkpt lat="42.295822" lon="-0.474745">
        <ele>1437.3</ele>
        <time>2018-07-22T09:54:03.000Z</time>
      </trkpt>
      <trkpt lat="42.295826" lon="-0.474755">
        <ele>1437.3</ele>
        <time>2018-07-22T09:54:04.000Z</time>
      </trkpt>
      <trkpt lat="42.295831" lon="-0.474764">
        <ele>1437.3</ele>
        <time>2018-07-22T09:54:05.000Z</time>
      </trkpt>
      <trkpt lat="42.295836" lon="-0.474772">
        <ele>1437.2</ele>
        <time>2018-07-22T09:54:06.000Z</time>
      </trkpt>
      <trkpt lat="42.295841" lon="-0.474779">
        <ele>1437.1</ele>
        <time>2018-07-22T09:54:07.000Z</time>
      </trkpt>
      <trkpt lat="42.295847" lon="-0.474785">
        <ele>1437.1</ele>
        <time>2018-07-22T09:54:08.000Z</time>
      </trkpt>
      <trkpt lat="42.295852" lon="-0.474792">
        <ele>1437.0</ele>
        <time>2018-07-22T09:54:09.000Z</time>
      </trkpt>
      <trkpt lat="42.295858" lon="-0.474799">
        <ele>1436.9</ele>
        <time>2018-07-22T09:54:10.000Z</time>
      </trkpt>
      <trkpt lat="42.295863" lon="-0.474806">
        <ele>1436.8</ele>
        <time>2018-07-22T09:54:11.000Z</time>
      </trkpt>
      <trkpt lat="42.295869" lon="-0.474814">
        <ele>1436.7</ele>
        <time>2018-07-22T09:54:12.000Z</time>
      </trkpt>
      <trkpt lat="42.295874" lon="-0.474822">
        <ele>1436.6</ele>
        <time>2018-07-22T09:54:13.000Z</time>
      </trkpt>
      <trkpt lat="42.295879" lon="-0.474831">
        <ele>1436.5</ele>
        <time>2018-07-22T09:54:14.000Z</time>
      </trkpt>
      <trkpt lat="42.295883" lon="-0.47484">
        <ele>1436.5</ele>
        <time>2018-07-22T09:54:15.000Z</time>
      </trkpt>
      <trkpt lat="42.295887" lon="-0.47485">
        <ele>1436.4</ele>
        <time>2018-07-22T09:54:16.000Z</time>
      </trkpt>
      <trkpt lat="42.295891" lon="-0.474859">
        <ele>1436.3</ele>
        <time>2018-07-22T09:54:17.000Z</time>
      </trkpt>
      <trkpt lat="42.295895" lon="-0.474867">
        <ele>1436.2</ele>
        <time>2018-07-22T09:54:18.000Z</time>
      </trkpt>
      <trkpt lat="42.295901" lon="-0.474875">
        <ele>1436.2</ele>
        <time>2018-07-22T09:54:19.000Z</time>
      </trkpt>
      <trkpt lat="42.295908" lon="-0.474882">
        <ele>1436.0</ele>
        <time>2018-07-22T09:54:20.000Z</time>
      </trkpt>
      <trkpt lat="42.295915" lon="-0.474889">
        <ele>1435.9</ele>
        <time>2018-07-22T09:54:21.000Z</time>
      </trkpt>
      <trkpt lat="42.295921" lon="-0.474895">
        <ele>1435.8</ele>
        <time>2018-07-22T09:54:22.000Z</time>
      </trkpt>
      <trkpt lat="42.295928" lon="-0.474902">
        <ele>1435.7</ele>
        <time>2018-07-22T09:54:23.000Z</time>
      </trkpt>
      <trkpt lat="42.295935" lon="-0.474909">
        <ele>1435.6</ele>
        <time>2018-07-22T09:54:24.000Z</time>
      </trkpt>
      <trkpt lat="42.295941" lon="-0.474916">
        <ele>1435.5</ele>
        <time>2018-07-22T09:54:25.000Z</time>
      </trkpt>
      <trkpt lat="42.295948" lon="-0.474923">
        <ele>1435.4</ele>
        <time>2018-07-22T09:54:26.000Z</time>
      </trkpt>
      <trkpt lat="42.295954" lon="-0.474931">
        <ele>1435.3</ele>
        <time>2018-07-22T09:54:27.000Z</time>
      </trkpt>
      <trkpt lat="42.295961" lon="-0.474939">
        <ele>1435.2</ele>
        <time>2018-07-22T09:54:28.000Z</time>
      </trkpt>
      <trkpt lat="42.295967" lon="-0.474946">
        <ele>1435.1</ele>
        <time>2018-07-22T09:54:29.000Z</time>
      </trkpt>
      <trkpt lat="42.295974" lon="-0.474954">
        <ele>1435.0</ele>
        <time>2018-07-22T09:54:30.000Z</time>
      </trkpt>
      <trkpt lat="42.29598" lon="-0.474962">
        <ele>1434.9</ele>
        <time>2018-07-22T09:54:31.000Z</time>
      </trkpt>
      <trkpt lat="42.295987" lon="-0.47497">
        <ele>1434.8</ele>
        <time>2018-07-22T09:54:32.000Z</time>
      </trkpt>
      <trkpt lat="42.295994" lon="-0.474978">
        <ele>1434.7</ele>
        <time>2018-07-22T09:54:33.000Z</time>
      </trkpt>
      <trkpt lat="42.296001" lon="-0.474986">
        <ele>1434.6</ele>
        <time>2018-07-22T09:54:34.000Z</time>
      </trkpt>
      <trkpt lat="42.296009" lon="-0.474994">
        <ele>1434.5</ele>
        <time>2018-07-22T09:54:35.000Z</time>
      </trkpt>
      <trkpt lat="42.296017" lon="-0.475002">
        <ele>1434.3</ele>
        <time>2018-07-22T09:54:36.000Z</time>
      </trkpt>
      <trkpt lat="42.296025" lon="-0.47501">
        <ele>1434.2</ele>
        <time>2018-07-22T09:54:37.000Z</time>
      </trkpt>
      <trkpt lat="42.296033" lon="-0.475017">
        <ele>1434.1</ele>
        <time>2018-07-22T09:54:38.000Z</time>
      </trkpt>
      <trkpt lat="42.296042" lon="-0.475025">
        <ele>1433.9</ele>
        <time>2018-07-22T09:54:39.000Z</time>
      </trkpt>
      <trkpt lat="42.296051" lon="-0.475032">
        <ele>1433.8</ele>
        <time>2018-07-22T09:54:40.000Z</time>
      </trkpt>
      <trkpt lat="42.29606" lon="-0.47504">
        <ele>1433.6</ele>
        <time>2018-07-22T09:54:41.000Z</time>
      </trkpt>
      <trkpt lat="42.29607" lon="-0.475047">
        <ele>1433.4</ele>
        <time>2018-07-22T09:54:42.000Z</time>
      </trkpt>
      <trkpt lat="42.296079" lon="-0.475054">
        <ele>1433.3</ele>
        <time>2018-07-22T09:54:43.000Z</time>
      </trkpt>
      <trkpt lat="42.296088" lon="-0.475062">
        <ele>1433.1</ele>
        <time>2018-07-22T09:54:44.000Z</time>
      </trkpt>
      <trkpt lat="42.296097" lon="-0.475069">
        <ele>1433.0</ele>
        <time>2018-07-22T09:54:45.000Z</time>
      </trkpt>
      <trkpt lat="42.296106" lon="-0.475076">
        <ele>1432.9</ele>
        <time>2018-07-22T09:54:46.000Z</time>
      </trkpt>
      <trkpt lat="42.296115" lon="-0.475083">
        <ele>1432.7</ele>
        <time>2018-07-22T09:54:47.000Z</time>
      </trkpt>
      <trkpt lat="42.296123" lon="-0.47509">
        <ele>1432.6</ele>
        <time>2018-07-22T09:54:48.000Z</time>
      </trkpt>
      <trkpt lat="42.296132" lon="-0.475097">
        <ele>1432.4</ele>
        <time>2018-07-22T09:54:49.000Z</time>
      </trkpt>
      <trkpt lat="42.296139" lon="-0.475104">
        <ele>1432.3</ele>
        <time>2018-07-22T09:54:50.000Z</time>
      </trkpt>
      <trkpt lat="42.296147" lon="-0.475111">
        <ele>1432.2</ele>
        <time>2018-07-22T09:54:51.000Z</time>
      </trkpt>
      <trkpt lat="42.296155" lon="-0.475119">
        <ele>1432.1</ele>
        <time>2018-07-22T09:54:52.000Z</time>
      </trkpt>
      <trkpt lat="42.296162" lon="-0.475126">
        <ele>1432.0</ele>
        <time>2018-07-22T09:54:53.000Z</time>
      </trkpt>
      <trkpt lat="42.296169" lon="-0.475133">
        <ele>1431.8</ele>
        <time>2018-07-22T09:54:54.000Z</time>
      </trkpt>
      <trkpt lat="42.296177" lon="-0.475139">
        <ele>1431.7</ele>
        <time>2018-07-22T09:54:55.000Z</time>
      </trkpt>
      <trkpt lat="42.296184" lon="-0.475146">
        <ele>1431.6</ele>
        <time>2018-07-22T09:54:56.000Z</time>
      </trkpt>
      <trkpt lat="42.296191" lon="-0.475153">
        <ele>1431.5</ele>
        <time>2018-07-22T09:54:57.000Z</time>
      </trkpt>
      <trkpt lat="42.296199" lon="-0.47516">
        <ele>1431.4</ele>
        <time>2018-07-22T09:54:58.000Z</time>
      </trkpt>
      <trkpt lat="42.296206" lon="-0.475166">
        <ele>1431.3</ele>
        <time>2018-07-22T09:54:59.000Z</time>
      </trkpt>
      <trkpt lat="42.296213" lon="-0.475172">
        <ele>1431.2</ele>
        <time>2018-07-22T09:55:00.000Z</time>
      </trkpt>
      <trkpt lat="42.296217" lon="-0.475177">
        <ele>1431.1</ele>
        <time>2018-07-22T09:55:01.000Z</time>
      </trkpt>
      <trkpt lat="42.296219" lon="-0.475181">
        <ele>1431.1</ele>
        <time>2018-07-22T09:55:02.000Z</time>
      </trkpt>
      <trkpt lat="42.29622" lon="-0.475183">
        <ele>1431.1</ele>
        <time>2018-07-22T09:55:03.000Z</time>
      </trkpt>
      <trkpt lat="42.296222" lon="-0.475185">
        <ele>1431.0</ele>
        <time>2018-07-22T09:55:04.000Z</time>
      </trkpt>
      <trkpt lat="42.296227" lon="-0.475188">
        <ele>1431.0</ele>
        <time>2018-07-22T09:55:05.000Z</time>
      </trkpt>
      <trkpt lat="42.296233" lon="-0.475191">
        <ele>1430.9</ele>
        <time>2018-07-22T09:55:06.000Z</time>
      </trkpt>
      <trkpt lat="42.296239" lon="-0.475194">
        <ele>1430.8</ele>
        <time>2018-07-22T09:55:07.000Z</time>
      </trkpt>
      <trkpt lat="42.296245" lon="-0.475198">
        <ele>1430.7</ele>
        <time>2018-07-22T09:55:08.000Z</time>
      </trkpt>
      <trkpt lat="42.29625" lon="-0.475201">
        <ele>1430.6</ele>
        <time>2018-07-22T09:55:09.000Z</time>
      </trkpt>
      <trkpt lat="42.296254" lon="-0.475204">
        <ele>1430.6</ele>
        <time>2018-07-22T09:55:10.000Z</time>
      </trkpt>
      <trkpt lat="42.296257" lon="-0.475206">
        <ele>1430.5</ele>
        <time>2018-07-22T09:55:11.000Z</time>
      </trkpt>
      <trkpt lat="42.296259" lon="-0.475207">
        <ele>1430.5</ele>
        <time>2018-07-22T09:55:12.000Z</time>
      </trkpt>
      <trkpt lat="42.296261" lon="-0.475208">
        <ele>1430.5</ele>
        <time>2018-07-22T09:55:13.000Z</time>
      </trkpt>
      <trkpt lat="42.296263" lon="-0.47521">
        <ele>1430.5</ele>
        <time>2018-07-22T09:55:14.000Z</time>
      </trkpt>
      <trkpt lat="42.296265" lon="-0.475212">
        <ele>1430.4</ele>
        <time>2018-07-22T09:55:15.000Z</time>
      </trkpt>
      <trkpt lat="42.296267" lon="-0.475213">
        <ele>1430.4</ele>
        <time>2018-07-22T09:55:16.000Z</time>
      </trkpt>
      <trkpt lat="42.296269" lon="-0.475214">
        <ele>1430.4</ele>
        <time>2018-07-22T09:55:17.000Z</time>
      </trkpt>
      <trkpt lat="42.296277" lon="-0.47522">
        <ele>1430.3</ele>
        <time>2018-07-22T09:55:18.000Z</time>
      </trkpt>
      <trkpt lat="42.296285" lon="-0.475225">
        <ele>1430.1</ele>
        <time>2018-07-22T09:55:19.000Z</time>
      </trkpt>
      <trkpt lat="42.296292" lon="-0.47523">
        <ele>1430.1</ele>
        <time>2018-07-22T09:55:20.000Z</time>
      </trkpt>
      <trkpt lat="42.296298" lon="-0.475236">
        <ele>1430.0</ele>
        <time>2018-07-22T09:55:21.000Z</time>
      </trkpt>
      <trkpt lat="42.296304" lon="-0.475243">
        <ele>1429.9</ele>
        <time>2018-07-22T09:55:22.000Z</time>
      </trkpt>
      <trkpt lat="42.296311" lon="-0.475251">
        <ele>1429.8</ele>
        <time>2018-07-22T09:55:23.000Z</time>
      </trkpt>
      <trkpt lat="42.296317" lon="-0.475259">
        <ele>1429.7</ele>
        <time>2018-07-22T09:55:24.000Z</time>
      </trkpt>
      <trkpt lat="42.296324" lon="-0.475267">
        <ele>1429.6</ele>
        <time>2018-07-22T09:55:25.000Z</time>
      </trkpt>
      <trkpt lat="42.29633" lon="-0.475273">
        <ele>1429.5</ele>
        <time>2018-07-22T09:55:26.000Z</time>
      </trkpt>
      <trkpt lat="42.296338" lon="-0.475279">
        <ele>1429.4</ele>
        <time>2018-07-22T09:55:27.000Z</time>
      </trkpt>
      <trkpt lat="42.296345" lon="-0.475283">
        <ele>1429.3</ele>
        <time>2018-07-22T09:55:28.000Z</time>
      </trkpt>
      <trkpt lat="42.296353" lon="-0.475287">
        <ele>1429.2</ele>
        <time>2018-07-22T09:55:29.000Z</time>
      </trkpt>
      <trkpt lat="42.29636" lon="-0.475292">
        <ele>1429.1</ele>
        <time>2018-07-22T09:55:30.000Z</time>
      </trkpt>
      <trkpt lat="42.296368" lon="-0.475296">
        <ele>1429.0</ele>
        <time>2018-07-22T09:55:31.000Z</time>
      </trkpt>
      <trkpt lat="42.296375" lon="-0.475302">
        <ele>1428.9</ele>
        <time>2018-07-22T09:55:32.000Z</time>
      </trkpt>
      <trkpt lat="42.296381" lon="-0.475307">
        <ele>1428.9</ele>
        <time>2018-07-22T09:55:33.000Z</time>
      </trkpt>
      <trkpt lat="42.296387" lon="-0.475313">
        <ele>1428.8</ele>
        <time>2018-07-22T09:55:34.000Z</time>
      </trkpt>
      <trkpt lat="42.296392" lon="-0.475318">
        <ele>1428.7</ele>
        <time>2018-07-22T09:55:35.000Z</time>
      </trkpt>
      <trkpt lat="42.296396" lon="-0.475323">
        <ele>1428.7</ele>
        <time>2018-07-22T09:55:36.000Z</time>
      </trkpt>
      <trkpt lat="42.296399" lon="-0.475326">
        <ele>1428.6</ele>
        <time>2018-07-22T09:55:37.000Z</time>
      </trkpt>
      <trkpt lat="42.2964" lon="-0.475328">
        <ele>1428.6</ele>
        <time>2018-07-22T09:55:38.000Z</time>
      </trkpt>
      <trkpt lat="42.296402" lon="-0.475329">
        <ele>1428.6</ele>
        <time>2018-07-22T09:55:39.000Z</time>
      </trkpt>
      <trkpt lat="42.296406" lon="-0.475334">
        <ele>1428.5</ele>
        <time>2018-07-22T09:55:40.000Z</time>
      </trkpt>
      <trkpt lat="42.296412" lon="-0.475341">
        <ele>1428.5</ele>
        <time>2018-07-22T09:55:41.000Z</time>
      </trkpt>
      <trkpt lat="42.296419" lon="-0.475349">
        <ele>1428.4</ele>
        <time>2018-07-22T09:55:42.000Z</time>
      </trkpt>
      <trkpt lat="42.296423" lon="-0.475354">
        <ele>1428.3</ele>
        <time>2018-07-22T09:55:43.000Z</time>
      </trkpt>
      <trkpt lat="42.296426" lon="-0.475357">
        <ele>1428.3</ele>
        <time>2018-07-22T09:55:44.000Z</time>
      </trkpt>
      <trkpt lat="42.296429" lon="-0.47536">
        <ele>1428.2</ele>
        <time>2018-07-22T09:55:45.000Z</time>
      </trkpt>
      <trkpt lat="42.296432" lon="-0.475363">
        <ele>1428.2</ele>
        <time>2018-07-22T09:55:46.000Z</time>
      </trkpt>
      <trkpt lat="42.296435" lon="-0.475366">
        <ele>1428.2</ele>
        <time>2018-07-22T09:55:47.000Z</time>
      </trkpt>
      <trkpt lat="42.296437" lon="-0.475369">
        <ele>1428.1</ele>
        <time>2018-07-22T09:55:48.000Z</time>
      </trkpt>
      <trkpt lat="42.29644" lon="-0.475372">
        <ele>1428.1</ele>
        <time>2018-07-22T09:55:49.000Z</time>
      </trkpt>
      <trkpt lat="42.296447" lon="-0.475381">
        <ele>1428.0</ele>
        <time>2018-07-22T09:55:50.000Z</time>
      </trkpt>
      <trkpt lat="42.296453" lon="-0.475385">
        <ele>1427.9</ele>
        <time>2018-07-22T09:55:51.000Z</time>
      </trkpt>
      <trkpt lat="42.296461" lon="-0.47539">
        <ele>1427.9</ele>
        <time>2018-07-22T09:55:52.000Z</time>
      </trkpt>
      <trkpt lat="42.29647" lon="-0.475398">
        <ele>1427.7</ele>
        <time>2018-07-22T09:55:53.000Z</time>
      </trkpt>
      <trkpt lat="42.296479" lon="-0.475407">
        <ele>1427.6</ele>
        <time>2018-07-22T09:55:54.000Z</time>
      </trkpt>
      <trkpt lat="42.296487" lon="-0.475417">
        <ele>1427.5</ele>
        <time>2018-07-22T09:55:55.000Z</time>
      </trkpt>
      <trkpt lat="42.296495" lon="-0.475427">
        <ele>1427.5</ele>
        <time>2018-07-22T09:55:56.000Z</time>
      </trkpt>
      <trkpt lat="42.296503" lon="-0.475437">
        <ele>1427.4</ele>
        <time>2018-07-22T09:55:57.000Z</time>
      </trkpt>
      <trkpt lat="42.296511" lon="-0.475447">
        <ele>1427.3</ele>
        <time>2018-07-22T09:55:58.000Z</time>
      </trkpt>
      <trkpt lat="42.296518" lon="-0.475458">
        <ele>1427.2</ele>
        <time>2018-07-22T09:55:59.000Z</time>
      </trkpt>
      <trkpt lat="42.296524" lon="-0.47547">
        <ele>1427.1</ele>
        <time>2018-07-22T09:56:00.000Z</time>
      </trkpt>
      <trkpt lat="42.296531" lon="-0.475481">
        <ele>1427.1</ele>
        <time>2018-07-22T09:56:01.000Z</time>
      </trkpt>
      <trkpt lat="42.296538" lon="-0.475493">
        <ele>1427.0</ele>
        <time>2018-07-22T09:56:02.000Z</time>
      </trkpt>
      <trkpt lat="42.296544" lon="-0.475505">
        <ele>1426.9</ele>
        <time>2018-07-22T09:56:03.000Z</time>
      </trkpt>
      <trkpt lat="42.29655" lon="-0.475518">
        <ele>1426.9</ele>
        <time>2018-07-22T09:56:04.000Z</time>
      </trkpt>
      <trkpt lat="42.296556" lon="-0.47553">
        <ele>1426.8</ele>
        <time>2018-07-22T09:56:05.000Z</time>
      </trkpt>
      <trkpt lat="42.296562" lon="-0.475543">
        <ele>1426.7</ele>
        <time>2018-07-22T09:56:06.000Z</time>
      </trkpt>
      <trkpt lat="42.296568" lon="-0.475556">
        <ele>1426.7</ele>
        <time>2018-07-22T09:56:07.000Z</time>
      </trkpt>
      <trkpt lat="42.296574" lon="-0.475569">
        <ele>1426.6</ele>
        <time>2018-07-22T09:56:08.000Z</time>
      </trkpt>
      <trkpt lat="42.29658" lon="-0.475582">
        <ele>1426.6</ele>
        <time>2018-07-22T09:56:09.000Z</time>
      </trkpt>
      <trkpt lat="42.296586" lon="-0.475596">
        <ele>1426.5</ele>
        <time>2018-07-22T09:56:10.000Z</time>
      </trkpt>
      <trkpt lat="42.296592" lon="-0.475609">
        <ele>1426.5</ele>
        <time>2018-07-22T09:56:11.000Z</time>
      </trkpt>
      <trkpt lat="42.296599" lon="-0.475623">
        <ele>1426.4</ele>
        <time>2018-07-22T09:56:12.000Z</time>
      </trkpt>
      <trkpt lat="42.296605" lon="-0.475636">
        <ele>1426.4</ele>
        <time>2018-07-22T09:56:13.000Z</time>
      </trkpt>
      <trkpt lat="42.296612" lon="-0.47565">
        <ele>1426.3</ele>
        <time>2018-07-22T09:56:14.000Z</time>
      </trkpt>
      <trkpt lat="42.296619" lon="-0.475664">
        <ele>1426.3</ele>
        <time>2018-07-22T09:56:15.000Z</time>
      </trkpt>
      <trkpt lat="42.296626" lon="-0.475677">
        <ele>1426.2</ele>
        <time>2018-07-22T09:56:16.000Z</time>
      </trkpt>
      <trkpt lat="42.296633" lon="-0.475691">
        <ele>1426.1</ele>
        <time>2018-07-22T09:56:17.000Z</time>
      </trkpt>
      <trkpt lat="42.29664" lon="-0.475704">
        <ele>1426.1</ele>
        <time>2018-07-22T09:56:18.000Z</time>
      </trkpt>
      <trkpt lat="42.296647" lon="-0.475717">
        <ele>1426.0</ele>
        <time>2018-07-22T09:56:19.000Z</time>
      </trkpt>
      <trkpt lat="42.296654" lon="-0.47573">
        <ele>1426.0</ele>
        <time>2018-07-22T09:56:20.000Z</time>
      </trkpt>
      <trkpt lat="42.296661" lon="-0.475743">
        <ele>1425.9</ele>
        <time>2018-07-22T09:56:21.000Z</time>
      </trkpt>
      <trkpt lat="42.296667" lon="-0.475756">
        <ele>1425.9</ele>
        <time>2018-07-22T09:56:22.000Z</time>
      </trkpt>
      <trkpt lat="42.296673" lon="-0.475769">
        <ele>1425.8</ele>
        <time>2018-07-22T09:56:23.000Z</time>
      </trkpt>
      <trkpt lat="42.296679" lon="-0.475781">
        <ele>1425.7</ele>
        <time>2018-07-22T09:56:24.000Z</time>
      </trkpt>
      <trkpt lat="42.296684" lon="-0.475794">
        <ele>1425.6</ele>
        <time>2018-07-22T09:56:25.000Z</time>
      </trkpt>
      <trkpt lat="42.29669" lon="-0.475806">
        <ele>1425.5</ele>
        <time>2018-07-22T09:56:26.000Z</time>
      </trkpt>
      <trkpt lat="42.296695" lon="-0.475819">
        <ele>1425.4</ele>
        <time>2018-07-22T09:56:27.000Z</time>
      </trkpt>
      <trkpt lat="42.296701" lon="-0.475832">
        <ele>1425.3</ele>
        <time>2018-07-22T09:56:28.000Z</time>
      </trkpt>
      <trkpt lat="42.296707" lon="-0.475845">
        <ele>1425.3</ele>
        <time>2018-07-22T09:56:29.000Z</time>
      </trkpt>
      <trkpt lat="42.296713" lon="-0.475859">
        <ele>1425.3</ele>
        <time>2018-07-22T09:56:30.000Z</time>
      </trkpt>
      <trkpt lat="42.296719" lon="-0.475872">
        <ele>1425.3</ele>
        <time>2018-07-22T09:56:31.000Z</time>
      </trkpt>
      <trkpt lat="42.296726" lon="-0.475886">
        <ele>1425.2</ele>
        <time>2018-07-22T09:56:32.000Z</time>
      </trkpt>
      <trkpt lat="42.296733" lon="-0.4759">
        <ele>1425.2</ele>
        <time>2018-07-22T09:56:33.000Z</time>
      </trkpt>
      <trkpt lat="42.29674" lon="-0.475914">
        <ele>1425.2</ele>
        <time>2018-07-22T09:56:34.000Z</time>
      </trkpt>
      <trkpt lat="42.296748" lon="-0.475928">
        <ele>1425.1</ele>
        <time>2018-07-22T09:56:35.000Z</time>
      </trkpt>
      <trkpt lat="42.296755" lon="-0.475941">
        <ele>1425.1</ele>
        <time>2018-07-22T09:56:36.000Z</time>
      </trkpt>
      <trkpt lat="42.296763" lon="-0.475954">
        <ele>1425.1</ele>
        <time>2018-07-22T09:56:37.000Z</time>
      </trkpt>
      <trkpt lat="42.29677" lon="-0.475966">
        <ele>1425.0</ele>
        <time>2018-07-22T09:56:38.000Z</time>
      </trkpt>
      <trkpt lat="42.296777" lon="-0.475977">
        <ele>1425.0</ele>
        <time>2018-07-22T09:56:39.000Z</time>
      </trkpt>
      <trkpt lat="42.296783" lon="-0.475988">
        <ele>1424.9</ele>
        <time>2018-07-22T09:56:40.000Z</time>
      </trkpt>
      <trkpt lat="42.29679" lon="-0.475999">
        <ele>1424.9</ele>
        <time>2018-07-22T09:56:41.000Z</time>
      </trkpt>
      <trkpt lat="42.296796" lon="-0.47601">
        <ele>1424.9</ele>
        <time>2018-07-22T09:56:42.000Z</time>
      </trkpt>
      <trkpt lat="42.296802" lon="-0.476021">
        <ele>1424.8</ele>
        <time>2018-07-22T09:56:43.000Z</time>
      </trkpt>
      <trkpt lat="42.296808" lon="-0.476032">
        <ele>1424.8</ele>
        <time>2018-07-22T09:56:44.000Z</time>
      </trkpt>
      <trkpt lat="42.296813" lon="-0.476043">
        <ele>1424.8</ele>
        <time>2018-07-22T09:56:45.000Z</time>
      </trkpt>
      <trkpt lat="42.296818" lon="-0.476055">
        <ele>1424.8</ele>
        <time>2018-07-22T09:56:46.000Z</time>
      </trkpt>
      <trkpt lat="42.296823" lon="-0.476067">
        <ele>1424.8</ele>
        <time>2018-07-22T09:56:47.000Z</time>
      </trkpt>
      <trkpt lat="42.296827" lon="-0.47608">
        <ele>1424.8</ele>
        <time>2018-07-22T09:56:48.000Z</time>
      </trkpt>
      <trkpt lat="42.296831" lon="-0.476094">
        <ele>1424.8</ele>
        <time>2018-07-22T09:56:49.000Z</time>
      </trkpt>
      <trkpt lat="42.296835" lon="-0.476108">
        <ele>1424.9</ele>
        <time>2018-07-22T09:56:50.000Z</time>
      </trkpt>
      <trkpt lat="42.296839" lon="-0.476122">
        <ele>1424.9</ele>
        <time>2018-07-22T09:56:51.000Z</time>
      </trkpt>
      <trkpt lat="42.296842" lon="-0.476137">
        <ele>1425.0</ele>
        <time>2018-07-22T09:56:52.000Z</time>
      </trkpt>
      <trkpt lat="42.296846" lon="-0.476152">
        <ele>1425.0</ele>
        <time>2018-07-22T09:56:53.000Z</time>
      </trkpt>
      <trkpt lat="42.296849" lon="-0.476167">
        <ele>1425.1</ele>
        <time>2018-07-22T09:56:54.000Z</time>
      </trkpt>
      <trkpt lat="42.296852" lon="-0.476182">
        <ele>1425.1</ele>
        <time>2018-07-22T09:56:55.000Z</time>
      </trkpt>
      <trkpt lat="42.296856" lon="-0.476197">
        <ele>1425.2</ele>
        <time>2018-07-22T09:56:56.000Z</time>
      </trkpt>
      <trkpt lat="42.296859" lon="-0.476212">
        <ele>1425.2</ele>
        <time>2018-07-22T09:56:57.000Z</time>
      </trkpt>
      <trkpt lat="42.296863" lon="-0.476227">
        <ele>1425.3</ele>
        <time>2018-07-22T09:56:58.000Z</time>
      </trkpt>
      <trkpt lat="42.296867" lon="-0.476241">
        <ele>1425.3</ele>
        <time>2018-07-22T09:56:59.000Z</time>
      </trkpt>
      <trkpt lat="42.296871" lon="-0.476256">
        <ele>1425.4</ele>
        <time>2018-07-22T09:57:00.000Z</time>
      </trkpt>
      <trkpt lat="42.296875" lon="-0.47627">
        <ele>1425.4</ele>
        <time>2018-07-22T09:57:01.000Z</time>
      </trkpt>
      <trkpt lat="42.296879" lon="-0.476284">
        <ele>1425.4</ele>
        <time>2018-07-22T09:57:02.000Z</time>
      </trkpt>
      <trkpt lat="42.296884" lon="-0.476298">
        <ele>1425.5</ele>
        <time>2018-07-22T09:57:03.000Z</time>
      </trkpt>
      <trkpt lat="42.296889" lon="-0.476312">
        <ele>1425.5</ele>
        <time>2018-07-22T09:57:04.000Z</time>
      </trkpt>
      <trkpt lat="42.296894" lon="-0.476326">
        <ele>1425.5</ele>
        <time>2018-07-22T09:57:05.000Z</time>
      </trkpt>
      <trkpt lat="42.296899" lon="-0.476341">
        <ele>1425.5</ele>
        <time>2018-07-22T09:57:06.000Z</time>
      </trkpt>
      <trkpt lat="42.296905" lon="-0.476355">
        <ele>1425.5</ele>
        <time>2018-07-22T09:57:07.000Z</time>
      </trkpt>
      <trkpt lat="42.29691" lon="-0.476369">
        <ele>1425.6</ele>
        <time>2018-07-22T09:57:08.000Z</time>
      </trkpt>
      <trkpt lat="42.296916" lon="-0.476384">
        <ele>1425.6</ele>
        <time>2018-07-22T09:57:09.000Z</time>
      </trkpt>
      <trkpt lat="42.296922" lon="-0.476398">
        <ele>1425.6</ele>
        <time>2018-07-22T09:57:10.000Z</time>
      </trkpt>
      <trkpt lat="42.296928" lon="-0.476413">
        <ele>1425.6</ele>
        <time>2018-07-22T09:57:11.000Z</time>
      </trkpt>
      <trkpt lat="42.296934" lon="-0.476427">
        <ele>1425.6</ele>
        <time>2018-07-22T09:57:12.000Z</time>
      </trkpt>
      <trkpt lat="42.29694" lon="-0.476442">
        <ele>1425.6</ele>
        <time>2018-07-22T09:57:13.000Z</time>
      </trkpt>
      <trkpt lat="42.296946" lon="-0.476456">
        <ele>1425.6</ele>
        <time>2018-07-22T09:57:14.000Z</time>
      </trkpt>
      <trkpt lat="42.296952" lon="-0.47647">
        <ele>1425.6</ele>
        <time>2018-07-22T09:57:15.000Z</time>
      </trkpt>
      <trkpt lat="42.296957" lon="-0.476484">
        <ele>1425.7</ele>
        <time>2018-07-22T09:57:16.000Z</time>
      </trkpt>
      <trkpt lat="42.296961" lon="-0.476498">
        <ele>1425.7</ele>
        <time>2018-07-22T09:57:17.000Z</time>
      </trkpt>
      <trkpt lat="42.296965" lon="-0.476511">
        <ele>1425.7</ele>
        <time>2018-07-22T09:57:18.000Z</time>
      </trkpt>
      <trkpt lat="42.296969" lon="-0.476524">
        <ele>1425.8</ele>
        <time>2018-07-22T09:57:19.000Z</time>
      </trkpt>
      <trkpt lat="42.296971" lon="-0.476537">
        <ele>1425.8</ele>
        <time>2018-07-22T09:57:20.000Z</time>
      </trkpt>
      <trkpt lat="42.296974" lon="-0.476549">
        <ele>1425.9</ele>
        <time>2018-07-22T09:57:21.000Z</time>
      </trkpt>
      <trkpt lat="42.296978" lon="-0.476562">
        <ele>1425.9</ele>
        <time>2018-07-22T09:57:22.000Z</time>
      </trkpt>
      <trkpt lat="42.296983" lon="-0.476576">
        <ele>1426.0</ele>
        <time>2018-07-22T09:57:23.000Z</time>
      </trkpt>
      <trkpt lat="42.296989" lon="-0.476591">
        <ele>1426.0</ele>
        <time>2018-07-22T09:57:24.000Z</time>
      </trkpt>
      <trkpt lat="42.296994" lon="-0.476606">
        <ele>1426.0</ele>
        <time>2018-07-22T09:57:25.000Z</time>
      </trkpt>
      <trkpt lat="42.296999" lon="-0.476622">
        <ele>1426.1</ele>
        <time>2018-07-22T09:57:26.000Z</time>
      </trkpt>
      <trkpt lat="42.297003" lon="-0.476638">
        <ele>1426.1</ele>
        <time>2018-07-22T09:57:27.000Z</time>
      </trkpt>
      <trkpt lat="42.297006" lon="-0.476654">
        <ele>1426.2</ele>
        <time>2018-07-22T09:57:28.000Z</time>
      </trkpt>
      <trkpt lat="42.297009" lon="-0.476671">
        <ele>1426.3</ele>
        <time>2018-07-22T09:57:29.000Z</time>
      </trkpt>
      <trkpt lat="42.297011" lon="-0.476687">
        <ele>1426.4</ele>
        <time>2018-07-22T09:57:30.000Z</time>
      </trkpt>
      <trkpt lat="42.297014" lon="-0.476704">
        <ele>1426.5</ele>
        <time>2018-07-22T09:57:31.000Z</time>
      </trkpt>
      <trkpt lat="42.297018" lon="-0.47672">
        <ele>1426.5</ele>
        <time>2018-07-22T09:57:32.000Z</time>
      </trkpt>
      <trkpt lat="42.297021" lon="-0.476737">
        <ele>1426.6</ele>
        <time>2018-07-22T09:57:33.000Z</time>
      </trkpt>
      <trkpt lat="42.297025" lon="-0.476753">
        <ele>1426.6</ele>
        <time>2018-07-22T09:57:34.000Z</time>
      </trkpt>
      <trkpt lat="42.297029" lon="-0.476769">
        <ele>1426.7</ele>
        <time>2018-07-22T09:57:35.000Z</time>
      </trkpt>
      <trkpt lat="42.297033" lon="-0.476786">
        <ele>1426.8</ele>
        <time>2018-07-22T09:57:36.000Z</time>
      </trkpt>
      <trkpt lat="42.297038" lon="-0.476802">
        <ele>1426.8</ele>
        <time>2018-07-22T09:57:37.000Z</time>
      </trkpt>
      <trkpt lat="42.297042" lon="-0.476818">
        <ele>1426.8</ele>
        <time>2018-07-22T09:57:38.000Z</time>
      </trkpt>
      <trkpt lat="42.297047" lon="-0.476834">
        <ele>1426.9</ele>
        <time>2018-07-22T09:57:39.000Z</time>
      </trkpt>
      <trkpt lat="42.297051" lon="-0.476851">
        <ele>1426.9</ele>
        <time>2018-07-22T09:57:40.000Z</time>
      </trkpt>
      <trkpt lat="42.297056" lon="-0.476867">
        <ele>1426.9</ele>
        <time>2018-07-22T09:57:41.000Z</time>
      </trkpt>
      <trkpt lat="42.297061" lon="-0.476883">
        <ele>1427.0</ele>
        <time>2018-07-22T09:57:42.000Z</time>
      </trkpt>
      <trkpt lat="42.297066" lon="-0.476899">
        <ele>1427.0</ele>
        <time>2018-07-22T09:57:43.000Z</time>
      </trkpt>
      <trkpt lat="42.297071" lon="-0.476915">
        <ele>1427.0</ele>
        <time>2018-07-22T09:57:44.000Z</time>
      </trkpt>
      <trkpt lat="42.297076" lon="-0.476931">
        <ele>1427.0</ele>
        <time>2018-07-22T09:57:45.000Z</time>
      </trkpt>
      <trkpt lat="42.297081" lon="-0.476946">
        <ele>1427.1</ele>
        <time>2018-07-22T09:57:46.000Z</time>
      </trkpt>
      <trkpt lat="42.297086" lon="-0.476962">
        <ele>1427.1</ele>
        <time>2018-07-22T09:57:47.000Z</time>
      </trkpt>
      <trkpt lat="42.297092" lon="-0.476978">
        <ele>1427.1</ele>
        <time>2018-07-22T09:57:48.000Z</time>
      </trkpt>
      <trkpt lat="42.297097" lon="-0.476993">
        <ele>1427.1</ele>
        <time>2018-07-22T09:57:49.000Z</time>
      </trkpt>
      <trkpt lat="42.297103" lon="-0.477009">
        <ele>1427.1</ele>
        <time>2018-07-22T09:57:50.000Z</time>
      </trkpt>
      <trkpt lat="42.297109" lon="-0.477024">
        <ele>1427.1</ele>
        <time>2018-07-22T09:57:51.000Z</time>
      </trkpt>
      <trkpt lat="42.297115" lon="-0.477039">
        <ele>1427.0</ele>
        <time>2018-07-22T09:57:52.000Z</time>
      </trkpt>
      <trkpt lat="42.297121" lon="-0.477054">
        <ele>1427.0</ele>
        <time>2018-07-22T09:57:53.000Z</time>
      </trkpt>
      <trkpt lat="42.297127" lon="-0.477069">
        <ele>1427.0</ele>
        <time>2018-07-22T09:57:54.000Z</time>
      </trkpt>
      <trkpt lat="42.297133" lon="-0.477084">
        <ele>1427.0</ele>
        <time>2018-07-22T09:57:55.000Z</time>
      </trkpt>
      <trkpt lat="42.297139" lon="-0.477098">
        <ele>1427.0</ele>
        <time>2018-07-22T09:57:56.000Z</time>
      </trkpt>
      <trkpt lat="42.297146" lon="-0.477113">
        <ele>1426.9</ele>
        <time>2018-07-22T09:57:57.000Z</time>
      </trkpt>
      <trkpt lat="42.297153" lon="-0.477127">
        <ele>1426.9</ele>
        <time>2018-07-22T09:57:58.000Z</time>
      </trkpt>
      <trkpt lat="42.297159" lon="-0.477141">
        <ele>1426.8</ele>
        <time>2018-07-22T09:57:59.000Z</time>
      </trkpt>
      <trkpt lat="42.297166" lon="-0.477155">
        <ele>1426.8</ele>
        <time>2018-07-22T09:58:00.000Z</time>
      </trkpt>
      <trkpt lat="42.297174" lon="-0.477168">
        <ele>1426.7</ele>
        <time>2018-07-22T09:58:01.000Z</time>
      </trkpt>
      <trkpt lat="42.297181" lon="-0.477182">
        <ele>1426.6</ele>
        <time>2018-07-22T09:58:02.000Z</time>
      </trkpt>
      <trkpt lat="42.297189" lon="-0.477195">
        <ele>1426.5</ele>
        <time>2018-07-22T09:58:03.000Z</time>
      </trkpt>
      <trkpt lat="42.297196" lon="-0.477208">
        <ele>1426.5</ele>
        <time>2018-07-22T09:58:04.000Z</time>
      </trkpt>
      <trkpt lat="42.297204" lon="-0.477221">
        <ele>1426.4</ele>
        <time>2018-07-22T09:58:05.000Z</time>
      </trkpt>
      <trkpt lat="42.297212" lon="-0.477233">
        <ele>1426.3</ele>
        <time>2018-07-22T09:58:06.000Z</time>
      </trkpt>
      <trkpt lat="42.29722" lon="-0.477246">
        <ele>1426.2</ele>
        <time>2018-07-22T09:58:07.000Z</time>
      </trkpt>
      <trkpt lat="42.297229" lon="-0.477259">
        <ele>1426.1</ele>
        <time>2018-07-22T09:58:08.000Z</time>
      </trkpt>
      <trkpt lat="42.297237" lon="-0.477272">
        <ele>1426.0</ele>
        <time>2018-07-22T09:58:09.000Z</time>
      </trkpt>
      <trkpt lat="42.297245" lon="-0.477285">
        <ele>1425.9</ele>
        <time>2018-07-22T09:58:10.000Z</time>
      </trkpt>
      <trkpt lat="42.297254" lon="-0.477298">
        <ele>1425.7</ele>
        <time>2018-07-22T09:58:11.000Z</time>
      </trkpt>
      <trkpt lat="42.297262" lon="-0.477311">
        <ele>1425.6</ele>
        <time>2018-07-22T09:58:12.000Z</time>
      </trkpt>
      <trkpt lat="42.297271" lon="-0.477325">
        <ele>1425.5</ele>
        <time>2018-07-22T09:58:13.000Z</time>
      </trkpt>
      <trkpt lat="42.29728" lon="-0.477338">
        <ele>1425.4</ele>
        <time>2018-07-22T09:58:14.000Z</time>
      </trkpt>
      <trkpt lat="42.297289" lon="-0.477352">
        <ele>1425.3</ele>
        <time>2018-07-22T09:58:15.000Z</time>
      </trkpt>
      <trkpt lat="42.297297" lon="-0.477365">
        <ele>1425.1</ele>
        <time>2018-07-22T09:58:16.000Z</time>
      </trkpt>
      <trkpt lat="42.297306" lon="-0.477378">
        <ele>1425.0</ele>
        <time>2018-07-22T09:58:17.000Z</time>
      </trkpt>
      <trkpt lat="42.297315" lon="-0.477389">
        <ele>1424.9</ele>
        <time>2018-07-22T09:58:18.000Z</time>
      </trkpt>
      <trkpt lat="42.297325" lon="-0.477398">
        <ele>1424.7</ele>
        <time>2018-07-22T09:58:19.000Z</time>
      </trkpt>
      <trkpt lat="42.297334" lon="-0.477406">
        <ele>1424.5</ele>
        <time>2018-07-22T09:58:20.000Z</time>
      </trkpt>
      <trkpt lat="42.297343" lon="-0.477412">
        <ele>1424.3</ele>
        <time>2018-07-22T09:58:21.000Z</time>
      </trkpt>
      <trkpt lat="42.297353" lon="-0.477418">
        <ele>1424.1</ele>
        <time>2018-07-22T09:58:22.000Z</time>
      </trkpt>
      <trkpt lat="42.297362" lon="-0.477424">
        <ele>1423.9</ele>
        <time>2018-07-22T09:58:23.000Z</time>
      </trkpt>
      <trkpt lat="42.297371" lon="-0.477432">
        <ele>1423.8</ele>
        <time>2018-07-22T09:58:24.000Z</time>
      </trkpt>
      <trkpt lat="42.297381" lon="-0.47744">
        <ele>1423.6</ele>
        <time>2018-07-22T09:58:25.000Z</time>
      </trkpt>
      <trkpt lat="42.29739" lon="-0.47745">
        <ele>1423.4</ele>
        <time>2018-07-22T09:58:26.000Z</time>
      </trkpt>
      <trkpt lat="42.297399" lon="-0.477461">
        <ele>1423.2</ele>
        <time>2018-07-22T09:58:27.000Z</time>
      </trkpt>
      <trkpt lat="42.297409" lon="-0.477473">
        <ele>1423.1</ele>
        <time>2018-07-22T09:58:28.000Z</time>
      </trkpt>
      <trkpt lat="42.297419" lon="-0.477484">
        <ele>1422.9</ele>
        <time>2018-07-22T09:58:29.000Z</time>
      </trkpt>
      <trkpt lat="42.29743" lon="-0.477495">
        <ele>1422.7</ele>
        <time>2018-07-22T09:58:30.000Z</time>
      </trkpt>
      <trkpt lat="42.297441" lon="-0.477505">
        <ele>1422.5</ele>
        <time>2018-07-22T09:58:31.000Z</time>
      </trkpt>
      <trkpt lat="42.297453" lon="-0.477515">
        <ele>1422.2</ele>
        <time>2018-07-22T09:58:32.000Z</time>
      </trkpt>
      <trkpt lat="42.297466" lon="-0.477525">
        <ele>1422.0</ele>
        <time>2018-07-22T09:58:33.000Z</time>
      </trkpt>
      <trkpt lat="42.297478" lon="-0.477534">
        <ele>1421.8</ele>
        <time>2018-07-22T09:58:34.000Z</time>
      </trkpt>
      <trkpt lat="42.297491" lon="-0.477544">
        <ele>1421.5</ele>
        <time>2018-07-22T09:58:35.000Z</time>
      </trkpt>
      <trkpt lat="42.297503" lon="-0.477555">
        <ele>1421.4</ele>
        <time>2018-07-22T09:58:36.000Z</time>
      </trkpt>
      <trkpt lat="42.297515" lon="-0.477565">
        <ele>1421.2</ele>
        <time>2018-07-22T09:58:37.000Z</time>
      </trkpt>
      <trkpt lat="42.297527" lon="-0.477575">
        <ele>1421.1</ele>
        <time>2018-07-22T09:58:38.000Z</time>
      </trkpt>
      <trkpt lat="42.297539" lon="-0.477584">
        <ele>1421.0</ele>
        <time>2018-07-22T09:58:39.000Z</time>
      </trkpt>
      <trkpt lat="42.297551" lon="-0.477592">
        <ele>1420.9</ele>
        <time>2018-07-22T09:58:40.000Z</time>
      </trkpt>
      <trkpt lat="42.297563" lon="-0.477598">
        <ele>1420.8</ele>
        <time>2018-07-22T09:58:41.000Z</time>
      </trkpt>
      <trkpt lat="42.297575" lon="-0.477602">
        <ele>1420.6</ele>
        <time>2018-07-22T09:58:42.000Z</time>
      </trkpt>
      <trkpt lat="42.297586" lon="-0.477607">
        <ele>1420.5</ele>
        <time>2018-07-22T09:58:43.000Z</time>
      </trkpt>
      <trkpt lat="42.297597" lon="-0.477615">
        <ele>1420.4</ele>
        <time>2018-07-22T09:58:44.000Z</time>
      </trkpt>
      <trkpt lat="42.297606" lon="-0.477629">
        <ele>1420.4</ele>
        <time>2018-07-22T09:58:45.000Z</time>
      </trkpt>
      <trkpt lat="42.297616" lon="-0.477644">
        <ele>1420.3</ele>
        <time>2018-07-22T09:58:46.000Z</time>
      </trkpt>
      <trkpt lat="42.297627" lon="-0.477656">
        <ele>1420.2</ele>
        <time>2018-07-22T09:58:47.000Z</time>
      </trkpt>
      <trkpt lat="42.297639" lon="-0.477666">
        <ele>1420.1</ele>
        <time>2018-07-22T09:58:48.000Z</time>
      </trkpt>
      <trkpt lat="42.29765" lon="-0.477673">
        <ele>1420.0</ele>
        <time>2018-07-22T09:58:49.000Z</time>
      </trkpt>
      <trkpt lat="42.297662" lon="-0.477678">
        <ele>1419.9</ele>
        <time>2018-07-22T09:58:50.000Z</time>
      </trkpt>
      <trkpt lat="42.297672" lon="-0.477683">
        <ele>1419.8</ele>
        <time>2018-07-22T09:58:51.000Z</time>
      </trkpt>
      <trkpt lat="42.29768" lon="-0.477687">
        <ele>1419.7</ele>
        <time>2018-07-22T09:58:52.000Z</time>
      </trkpt>
      <trkpt lat="42.297687" lon="-0.477692">
        <ele>1419.6</ele>
        <time>2018-07-22T09:58:53.000Z</time>
      </trkpt>
      <trkpt lat="42.297692" lon="-0.477698">
        <ele>1419.6</ele>
        <time>2018-07-22T09:58:54.000Z</time>
      </trkpt>
      <trkpt lat="42.297696" lon="-0.477704">
        <ele>1419.5</ele>
        <time>2018-07-22T09:58:55.000Z</time>
      </trkpt>
      <trkpt lat="42.2977" lon="-0.477712">
        <ele>1419.5</ele>
        <time>2018-07-22T09:58:56.000Z</time>
      </trkpt>
      <trkpt lat="42.297706" lon="-0.47772">
        <ele>1419.5</ele>
        <time>2018-07-22T09:58:57.000Z</time>
      </trkpt>
      <trkpt lat="42.297713" lon="-0.477729">
        <ele>1419.4</ele>
        <time>2018-07-22T09:58:58.000Z</time>
      </trkpt>
      <trkpt lat="42.297722" lon="-0.477738">
        <ele>1419.4</ele>
        <time>2018-07-22T09:58:59.000Z</time>
      </trkpt>
      <trkpt lat="42.297732" lon="-0.477748">
        <ele>1419.3</ele>
        <time>2018-07-22T09:59:00.000Z</time>
      </trkpt>
      <trkpt lat="42.297742" lon="-0.477758">
        <ele>1419.2</ele>
        <time>2018-07-22T09:59:01.000Z</time>
      </trkpt>
      <trkpt lat="42.297754" lon="-0.477768">
        <ele>1419.1</ele>
        <time>2018-07-22T09:59:02.000Z</time>
      </trkpt>
      <trkpt lat="42.297764" lon="-0.477777">
        <ele>1419.0</ele>
        <time>2018-07-22T09:59:03.000Z</time>
      </trkpt>
      <trkpt lat="42.297775" lon="-0.477787">
        <ele>1418.9</ele>
        <time>2018-07-22T09:59:04.000Z</time>
      </trkpt>
      <trkpt lat="42.297786" lon="-0.477796">
        <ele>1418.8</ele>
        <time>2018-07-22T09:59:05.000Z</time>
      </trkpt>
      <trkpt lat="42.297796" lon="-0.477806">
        <ele>1418.7</ele>
        <time>2018-07-22T09:59:06.000Z</time>
      </trkpt>
      <trkpt lat="42.297806" lon="-0.477816">
        <ele>1418.6</ele>
        <time>2018-07-22T09:59:07.000Z</time>
      </trkpt>
      <trkpt lat="42.297816" lon="-0.477827">
        <ele>1418.5</ele>
        <time>2018-07-22T09:59:08.000Z</time>
      </trkpt>
      <trkpt lat="42.297826" lon="-0.477838">
        <ele>1418.4</ele>
        <time>2018-07-22T09:59:09.000Z</time>
      </trkpt>
      <trkpt lat="42.297836" lon="-0.477849">
        <ele>1418.3</ele>
        <time>2018-07-22T09:59:10.000Z</time>
      </trkpt>
      <trkpt lat="42.297846" lon="-0.477861">
        <ele>1418.3</ele>
        <time>2018-07-22T09:59:11.000Z</time>
      </trkpt>
      <trkpt lat="42.297856" lon="-0.477872">
        <ele>1418.2</ele>
        <time>2018-07-22T09:59:12.000Z</time>
      </trkpt>
      <trkpt lat="42.297866" lon="-0.477884">
        <ele>1418.1</ele>
        <time>2018-07-22T09:59:13.000Z</time>
      </trkpt>
      <trkpt lat="42.297876" lon="-0.477895">
        <ele>1418.0</ele>
        <time>2018-07-22T09:59:14.000Z</time>
      </trkpt>
      <trkpt lat="42.297886" lon="-0.477906">
        <ele>1417.9</ele>
        <time>2018-07-22T09:59:15.000Z</time>
      </trkpt>
      <trkpt lat="42.297896" lon="-0.477916">
        <ele>1417.8</ele>
        <time>2018-07-22T09:59:16.000Z</time>
      </trkpt>
      <trkpt lat="42.297907" lon="-0.477926">
        <ele>1417.7</ele>
        <time>2018-07-22T09:59:17.000Z</time>
      </trkpt>
      <trkpt lat="42.297918" lon="-0.477935">
        <ele>1417.6</ele>
        <time>2018-07-22T09:59:18.000Z</time>
      </trkpt>
      <trkpt lat="42.297929" lon="-0.477943">
        <ele>1417.5</ele>
        <time>2018-07-22T09:59:19.000Z</time>
      </trkpt>
      <trkpt lat="42.297941" lon="-0.47795">
        <ele>1417.3</ele>
        <time>2018-07-22T09:59:20.000Z</time>
      </trkpt>
      <trkpt lat="42.297953" lon="-0.477956">
        <ele>1417.2</ele>
        <time>2018-07-22T09:59:21.000Z</time>
      </trkpt>
      <trkpt lat="42.297965" lon="-0.477962">
        <ele>1417.0</ele>
        <time>2018-07-22T09:59:22.000Z</time>
      </trkpt>
      <trkpt lat="42.297978" lon="-0.477968">
        <ele>1416.8</ele>
        <time>2018-07-22T09:59:23.000Z</time>
      </trkpt>
      <trkpt lat="42.29799" lon="-0.477973">
        <ele>1416.7</ele>
        <time>2018-07-22T09:59:24.000Z</time>
      </trkpt>
      <trkpt lat="42.298003" lon="-0.477978">
        <ele>1416.5</ele>
        <time>2018-07-22T09:59:25.000Z</time>
      </trkpt>
      <trkpt lat="42.298015" lon="-0.477983">
        <ele>1416.3</ele>
        <time>2018-07-22T09:59:26.000Z</time>
      </trkpt>
      <trkpt lat="42.298028" lon="-0.477988">
        <ele>1416.2</ele>
        <time>2018-07-22T09:59:27.000Z</time>
      </trkpt>
      <trkpt lat="42.29804" lon="-0.477993">
        <ele>1416.0</ele>
        <time>2018-07-22T09:59:28.000Z</time>
      </trkpt>
      <trkpt lat="42.298052" lon="-0.477998">
        <ele>1415.8</ele>
        <time>2018-07-22T09:59:29.000Z</time>
      </trkpt>
      <trkpt lat="42.298064" lon="-0.478004">
        <ele>1415.7</ele>
        <time>2018-07-22T09:59:30.000Z</time>
      </trkpt>
      <trkpt lat="42.298076" lon="-0.47801">
        <ele>1415.5</ele>
        <time>2018-07-22T09:59:31.000Z</time>
      </trkpt>
      <trkpt lat="42.298088" lon="-0.478015">
        <ele>1415.4</ele>
        <time>2018-07-22T09:59:32.000Z</time>
      </trkpt>
      <trkpt lat="42.2981" lon="-0.478021">
        <ele>1415.2</ele>
        <time>2018-07-22T09:59:33.000Z</time>
      </trkpt>
      <trkpt lat="42.298112" lon="-0.478026">
        <ele>1415.0</ele>
        <time>2018-07-22T09:59:34.000Z</time>
      </trkpt>
      <trkpt lat="42.298124" lon="-0.478031">
        <ele>1414.9</ele>
        <time>2018-07-22T09:59:35.000Z</time>
      </trkpt>
      <trkpt lat="42.298137" lon="-0.478034">
        <ele>1414.7</ele>
        <time>2018-07-22T09:59:36.000Z</time>
      </trkpt>
      <trkpt lat="42.298149" lon="-0.478038">
        <ele>1414.5</ele>
        <time>2018-07-22T09:59:37.000Z</time>
      </trkpt>
      <trkpt lat="42.298162" lon="-0.478042">
        <ele>1414.3</ele>
        <time>2018-07-22T09:59:38.000Z</time>
      </trkpt>
      <trkpt lat="42.298174" lon="-0.478046">
        <ele>1414.2</ele>
        <time>2018-07-22T09:59:39.000Z</time>
      </trkpt>
      <trkpt lat="42.298185" lon="-0.478052">
        <ele>1414.0</ele>
        <time>2018-07-22T09:59:40.000Z</time>
      </trkpt>
      <trkpt lat="42.298195" lon="-0.478059">
        <ele>1413.9</ele>
        <time>2018-07-22T09:59:41.000Z</time>
      </trkpt>
      <trkpt lat="42.298205" lon="-0.478068">
        <ele>1413.8</ele>
        <time>2018-07-22T09:59:42.000Z</time>
      </trkpt>
      <trkpt lat="42.298213" lon="-0.478078">
        <ele>1413.7</ele>
        <time>2018-07-22T09:59:43.000Z</time>
      </trkpt>
      <trkpt lat="42.298221" lon="-0.478089">
        <ele>1413.6</ele>
        <time>2018-07-22T09:59:44.000Z</time>
      </trkpt>
      <trkpt lat="42.298229" lon="-0.478101">
        <ele>1413.6</ele>
        <time>2018-07-22T09:59:45.000Z</time>
      </trkpt>
      <trkpt lat="42.298235" lon="-0.478114">
        <ele>1413.5</ele>
        <time>2018-07-22T09:59:46.000Z</time>
      </trkpt>
      <trkpt lat="42.298242" lon="-0.478129">
        <ele>1413.5</ele>
        <time>2018-07-22T09:59:47.000Z</time>
      </trkpt>
      <trkpt lat="42.298248" lon="-0.478143">
        <ele>1413.5</ele>
        <time>2018-07-22T09:59:48.000Z</time>
      </trkpt>
      <trkpt lat="42.298255" lon="-0.478158">
        <ele>1413.4</ele>
        <time>2018-07-22T09:59:49.000Z</time>
      </trkpt>
      <trkpt lat="42.298261" lon="-0.478174">
        <ele>1413.4</ele>
        <time>2018-07-22T09:59:50.000Z</time>
      </trkpt>
      <trkpt lat="42.298268" lon="-0.47819">
        <ele>1413.4</ele>
        <time>2018-07-22T09:59:51.000Z</time>
      </trkpt>
      <trkpt lat="42.298275" lon="-0.478206">
        <ele>1413.3</ele>
        <time>2018-07-22T09:59:52.000Z</time>
      </trkpt>
      <trkpt lat="42.298282" lon="-0.478222">
        <ele>1413.3</ele>
        <time>2018-07-22T09:59:53.000Z</time>
      </trkpt>
      <trkpt lat="42.298289" lon="-0.478238">
        <ele>1413.3</ele>
        <time>2018-07-22T09:59:54.000Z</time>
      </trkpt>
      <trkpt lat="42.298297" lon="-0.478254">
        <ele>1413.2</ele>
        <time>2018-07-22T09:59:55.000Z</time>
      </trkpt>
      <trkpt lat="42.298304" lon="-0.478271">
        <ele>1413.2</ele>
        <time>2018-07-22T09:59:56.000Z</time>
      </trkpt>
      <trkpt lat="42.298312" lon="-0.478287">
        <ele>1413.1</ele>
        <time>2018-07-22T09:59:57.000Z</time>
      </trkpt>
      <trkpt lat="42.29832" lon="-0.478303">
        <ele>1413.1</ele>
        <time>2018-07-22T09:59:58.000Z</time>
      </trkpt>
      <trkpt lat="42.298327" lon="-0.478319">
        <ele>1413.0</ele>
        <time>2018-07-22T09:59:59.000Z</time>
      </trkpt>
      <trkpt lat="42.298335" lon="-0.478335">
        <ele>1413.0</ele>
        <time>2018-07-22T10:00:00.000Z</time>
      </trkpt>
      <trkpt lat="42.298342" lon="-0.478352">
        <ele>1413.0</ele>
        <time>2018-07-22T10:00:01.000Z</time>
      </trkpt>
      <trkpt lat="42.29835" lon="-0.478368">
        <ele>1413.0</ele>
        <time>2018-07-22T10:00:02.000Z</time>
      </trkpt>
      <trkpt lat="42.298357" lon="-0.478384">
        <ele>1413.0</ele>
        <time>2018-07-22T10:00:03.000Z</time>
      </trkpt>
      <trkpt lat="42.298363" lon="-0.478399">
        <ele>1413.0</ele>
        <time>2018-07-22T10:00:04.000Z</time>
      </trkpt>
      <trkpt lat="42.29837" lon="-0.478415">
        <ele>1413.0</ele>
        <time>2018-07-22T10:00:05.000Z</time>
      </trkpt>
      <trkpt lat="42.298377" lon="-0.478431">
        <ele>1413.0</ele>
        <time>2018-07-22T10:00:06.000Z</time>
      </trkpt>
      <trkpt lat="42.298383" lon="-0.478447">
        <ele>1413.0</ele>
        <time>2018-07-22T10:00:07.000Z</time>
      </trkpt>
      <trkpt lat="42.298389" lon="-0.478463">
        <ele>1413.0</ele>
        <time>2018-07-22T10:00:08.000Z</time>
      </trkpt>
      <trkpt lat="42.298396" lon="-0.478478">
        <ele>1413.0</ele>
        <time>2018-07-22T10:00:09.000Z</time>
      </trkpt>
      <trkpt lat="42.298402" lon="-0.478494">
        <ele>1413.0</ele>
        <time>2018-07-22T10:00:10.000Z</time>
      </trkpt>
      <trkpt lat="42.298409" lon="-0.47851">
        <ele>1413.0</ele>
        <time>2018-07-22T10:00:11.000Z</time>
      </trkpt>
      <trkpt lat="42.298415" lon="-0.478525">
        <ele>1413.0</ele>
        <time>2018-07-22T10:00:12.000Z</time>
      </trkpt>
      <trkpt lat="42.298421" lon="-0.478541">
        <ele>1413.0</ele>
        <time>2018-07-22T10:00:13.000Z</time>
      </trkpt>
      <trkpt lat="42.298428" lon="-0.478557">
        <ele>1413.0</ele>
        <time>2018-07-22T10:00:14.000Z</time>
      </trkpt>
      <trkpt lat="42.298435" lon="-0.478573">
        <ele>1412.9</ele>
        <time>2018-07-22T10:00:15.000Z</time>
      </trkpt>
      <trkpt lat="42.298442" lon="-0.478589">
        <ele>1412.9</ele>
        <time>2018-07-22T10:00:16.000Z</time>
      </trkpt>
      <trkpt lat="42.298449" lon="-0.478604">
        <ele>1412.9</ele>
        <time>2018-07-22T10:00:17.000Z</time>
      </trkpt>
      <trkpt lat="42.298456" lon="-0.47862">
        <ele>1412.9</ele>
        <time>2018-07-22T10:00:18.000Z</time>
      </trkpt>
      <trkpt lat="42.298463" lon="-0.478635">
        <ele>1412.9</ele>
        <time>2018-07-22T10:00:19.000Z</time>
      </trkpt>
      <trkpt lat="42.298471" lon="-0.47865">
        <ele>1412.8</ele>
        <time>2018-07-22T10:00:20.000Z</time>
      </trkpt>
      <trkpt lat="42.298479" lon="-0.478665">
        <ele>1412.8</ele>
        <time>2018-07-22T10:00:21.000Z</time>
      </trkpt>
      <trkpt lat="42.298487" lon="-0.478679">
        <ele>1412.8</ele>
        <time>2018-07-22T10:00:22.000Z</time>
      </trkpt>
      <trkpt lat="42.298495" lon="-0.478693">
        <ele>1412.7</ele>
        <time>2018-07-22T10:00:23.000Z</time>
      </trkpt>
      <trkpt lat="42.298503" lon="-0.478707">
        <ele>1412.7</ele>
        <time>2018-07-22T10:00:24.000Z</time>
      </trkpt>
      <trkpt lat="42.298512" lon="-0.47872">
        <ele>1412.6</ele>
        <time>2018-07-22T10:00:25.000Z</time>
      </trkpt>
      <trkpt lat="42.29852" lon="-0.478733">
        <ele>1412.6</ele>
        <time>2018-07-22T10:00:26.000Z</time>
      </trkpt>
      <trkpt lat="42.298529" lon="-0.478746">
        <ele>1412.5</ele>
        <time>2018-07-22T10:00:27.000Z</time>
      </trkpt>
      <trkpt lat="42.298538" lon="-0.478758">
        <ele>1412.5</ele>
        <time>2018-07-22T10:00:28.000Z</time>
      </trkpt>
      <trkpt lat="42.298547" lon="-0.478771">
        <ele>1412.4</ele>
        <time>2018-07-22T10:00:29.000Z</time>
      </trkpt>
      <trkpt lat="42.298556" lon="-0.478784">
        <ele>1412.3</ele>
        <time>2018-07-22T10:00:30.000Z</time>
      </trkpt>
      <trkpt lat="42.298565" lon="-0.478797">
        <ele>1412.3</ele>
        <time>2018-07-22T10:00:31.000Z</time>
      </trkpt>
      <trkpt lat="42.298574" lon="-0.478811">
        <ele>1412.2</ele>
        <time>2018-07-22T10:00:32.000Z</time>
      </trkpt>
      <trkpt lat="42.298583" lon="-0.478826">
        <ele>1412.1</ele>
        <time>2018-07-22T10:00:33.000Z</time>
      </trkpt>
      <trkpt lat="42.298591" lon="-0.478841">
        <ele>1412.1</ele>
        <time>2018-07-22T10:00:34.000Z</time>
      </trkpt>
      <trkpt lat="42.2986" lon="-0.478858">
        <ele>1412.0</ele>
        <time>2018-07-22T10:00:35.000Z</time>
      </trkpt>
      <trkpt lat="42.298608" lon="-0.478875">
        <ele>1412.0</ele>
        <time>2018-07-22T10:00:36.000Z</time>
      </trkpt>
      <trkpt lat="42.298616" lon="-0.478892">
        <ele>1411.9</ele>
        <time>2018-07-22T10:00:37.000Z</time>
      </trkpt>
      <trkpt lat="42.298624" lon="-0.478909">
        <ele>1411.9</ele>
        <time>2018-07-22T10:00:38.000Z</time>
      </trkpt>
      <trkpt lat="42.298632" lon="-0.478925">
        <ele>1411.9</ele>
        <time>2018-07-22T10:00:39.000Z</time>
      </trkpt>
      <trkpt lat="42.29864" lon="-0.47894">
        <ele>1411.8</ele>
        <time>2018-07-22T10:00:40.000Z</time>
      </trkpt>
      <trkpt lat="42.298648" lon="-0.478954">
        <ele>1411.7</ele>
        <time>2018-07-22T10:00:41.000Z</time>
      </trkpt>
      <trkpt lat="42.298656" lon="-0.478967">
        <ele>1411.7</ele>
        <time>2018-07-22T10:00:42.000Z</time>
      </trkpt>
      <trkpt lat="42.298663" lon="-0.478979">
        <ele>1411.6</ele>
        <time>2018-07-22T10:00:43.000Z</time>
      </trkpt>
      <trkpt lat="42.298671" lon="-0.478991">
        <ele>1411.6</ele>
        <time>2018-07-22T10:00:44.000Z</time>
      </trkpt>
      <trkpt lat="42.298679" lon="-0.479004">
        <ele>1411.5</ele>
        <time>2018-07-22T10:00:45.000Z</time>
      </trkpt>
      <trkpt lat="42.298687" lon="-0.479017">
        <ele>1411.4</ele>
        <time>2018-07-22T10:00:46.000Z</time>
      </trkpt>
      <trkpt lat="42.298695" lon="-0.479031">
        <ele>1411.4</ele>
        <time>2018-07-22T10:00:47.000Z</time>
      </trkpt>
      <trkpt lat="42.298702" lon="-0.479046">
        <ele>1411.3</ele>
        <time>2018-07-22T10:00:48.000Z</time>
      </trkpt>
      <trkpt lat="42.29871" lon="-0.479061">
        <ele>1411.2</ele>
        <time>2018-07-22T10:00:49.000Z</time>
      </trkpt>
      <trkpt lat="42.298717" lon="-0.479077">
        <ele>1411.2</ele>
        <time>2018-07-22T10:00:50.000Z</time>
      </trkpt>
      <trkpt lat="42.298724" lon="-0.479094">
        <ele>1411.1</ele>
        <time>2018-07-22T10:00:51.000Z</time>
      </trkpt>
      <trkpt lat="42.29873" lon="-0.47911">
        <ele>1411.1</ele>
        <time>2018-07-22T10:00:52.000Z</time>
      </trkpt>
      <trkpt lat="42.298736" lon="-0.479127">
        <ele>1411.1</ele>
        <time>2018-07-22T10:00:53.000Z</time>
      </trkpt>
      <trkpt lat="42.298742" lon="-0.479144">
        <ele>1411.0</ele>
        <time>2018-07-22T10:00:54.000Z</time>
      </trkpt>
      <trkpt lat="42.298747" lon="-0.479162">
        <ele>1411.0</ele>
        <time>2018-07-22T10:00:55.000Z</time>
      </trkpt>
      <trkpt lat="42.298751" lon="-0.479179">
        <ele>1411.1</ele>
        <time>2018-07-22T10:00:56.000Z</time>
      </trkpt>
      <trkpt lat="42.298755" lon="-0.479196">
        <ele>1411.2</ele>
        <time>2018-07-22T10:00:57.000Z</time>
      </trkpt>
      <trkpt lat="42.298758" lon="-0.479213">
        <ele>1411.3</ele>
        <time>2018-07-22T10:00:58.000Z</time>
      </trkpt>
      <trkpt lat="42.29876" lon="-0.47923">
        <ele>1411.4</ele>
        <time>2018-07-22T10:00:59.000Z</time>
      </trkpt>
      <trkpt lat="42.298763" lon="-0.479247">
        <ele>1411.5</ele>
        <time>2018-07-22T10:01:00.000Z</time>
      </trkpt>
      <trkpt lat="42.298765" lon="-0.479263">
        <ele>1411.6</ele>
        <time>2018-07-22T10:01:01.000Z</time>
      </trkpt>
      <trkpt lat="42.298767" lon="-0.47928">
        <ele>1411.8</ele>
        <time>2018-07-22T10:01:02.000Z</time>
      </trkpt>
      <trkpt lat="42.298769" lon="-0.479297">
        <ele>1411.9</ele>
        <time>2018-07-22T10:01:03.000Z</time>
      </trkpt>
      <trkpt lat="42.298772" lon="-0.479313">
        <ele>1412.0</ele>
        <time>2018-07-22T10:01:04.000Z</time>
      </trkpt>
      <trkpt lat="42.298775" lon="-0.47933">
        <ele>1412.1</ele>
        <time>2018-07-22T10:01:05.000Z</time>
      </trkpt>
      <trkpt lat="42.298778" lon="-0.479347">
        <ele>1412.2</ele>
        <time>2018-07-22T10:01:06.000Z</time>
      </trkpt>
      <trkpt lat="42.298782" lon="-0.479363">
        <ele>1412.3</ele>
        <time>2018-07-22T10:01:07.000Z</time>
      </trkpt>
      <trkpt lat="42.298787" lon="-0.47938">
        <ele>1412.3</ele>
        <time>2018-07-22T10:01:08.000Z</time>
      </trkpt>
      <trkpt lat="42.298792" lon="-0.479396">
        <ele>1412.4</ele>
        <time>2018-07-22T10:01:09.000Z</time>
      </trkpt>
      <trkpt lat="42.298798" lon="-0.479413">
        <ele>1412.4</ele>
        <time>2018-07-22T10:01:10.000Z</time>
      </trkpt>
      <trkpt lat="42.298804" lon="-0.479429">
        <ele>1412.5</ele>
        <time>2018-07-22T10:01:11.000Z</time>
      </trkpt>
      <trkpt lat="42.29881" lon="-0.479446">
        <ele>1412.5</ele>
        <time>2018-07-22T10:01:12.000Z</time>
      </trkpt>
      <trkpt lat="42.298816" lon="-0.479462">
        <ele>1412.6</ele>
        <time>2018-07-22T10:01:13.000Z</time>
      </trkpt>
      <trkpt lat="42.298822" lon="-0.479479">
        <ele>1412.6</ele>
        <time>2018-07-22T10:01:14.000Z</time>
      </trkpt>
      <trkpt lat="42.298828" lon="-0.479495">
        <ele>1412.6</ele>
        <time>2018-07-22T10:01:15.000Z</time>
      </trkpt>
      <trkpt lat="42.298833" lon="-0.479512">
        <ele>1412.7</ele>
        <time>2018-07-22T10:01:16.000Z</time>
      </trkpt>
      <trkpt lat="42.298839" lon="-0.479529">
        <ele>1412.7</ele>
        <time>2018-07-22T10:01:17.000Z</time>
      </trkpt>
      <trkpt lat="42.298844" lon="-0.479545">
        <ele>1412.8</ele>
        <time>2018-07-22T10:01:18.000Z</time>
      </trkpt>
      <trkpt lat="42.29885" lon="-0.479562">
        <ele>1412.8</ele>
        <time>2018-07-22T10:01:19.000Z</time>
      </trkpt>
      <trkpt lat="42.298856" lon="-0.479578">
        <ele>1412.9</ele>
        <time>2018-07-22T10:01:20.000Z</time>
      </trkpt>
      <trkpt lat="42.298862" lon="-0.479594">
        <ele>1412.9</ele>
        <time>2018-07-22T10:01:21.000Z</time>
      </trkpt>
      <trkpt lat="42.298868" lon="-0.47961">
        <ele>1412.9</ele>
        <time>2018-07-22T10:01:22.000Z</time>
      </trkpt>
      <trkpt lat="42.298875" lon="-0.479627">
        <ele>1412.9</ele>
        <time>2018-07-22T10:01:23.000Z</time>
      </trkpt>
      <trkpt lat="42.298882" lon="-0.479643">
        <ele>1412.9</ele>
        <time>2018-07-22T10:01:24.000Z</time>
      </trkpt>
      <trkpt lat="42.298888" lon="-0.479659">
        <ele>1413.0</ele>
        <time>2018-07-22T10:01:25.000Z</time>
      </trkpt>
      <trkpt lat="42.298895" lon="-0.479675">
        <ele>1413.0</ele>
        <time>2018-07-22T10:01:26.000Z</time>
      </trkpt>
      <trkpt lat="42.298902" lon="-0.479691">
        <ele>1413.0</ele>
        <time>2018-07-22T10:01:27.000Z</time>
      </trkpt>
      <trkpt lat="42.298909" lon="-0.479707">
        <ele>1413.0</ele>
        <time>2018-07-22T10:01:28.000Z</time>
      </trkpt>
      <trkpt lat="42.298917" lon="-0.479723">
        <ele>1412.9</ele>
        <time>2018-07-22T10:01:29.000Z</time>
      </trkpt>
      <trkpt lat="42.298924" lon="-0.479739">
        <ele>1412.9</ele>
        <time>2018-07-22T10:01:30.000Z</time>
      </trkpt>
      <trkpt lat="42.298931" lon="-0.479755">
        <ele>1412.9</ele>
        <time>2018-07-22T10:01:31.000Z</time>
      </trkpt>
      <trkpt lat="42.298939" lon="-0.479771">
        <ele>1412.9</ele>
        <time>2018-07-22T10:01:32.000Z</time>
      </trkpt>
      <trkpt lat="42.298946" lon="-0.479786">
        <ele>1412.9</ele>
        <time>2018-07-22T10:01:33.000Z</time>
      </trkpt>
      <trkpt lat="42.298953" lon="-0.479802">
        <ele>1412.9</ele>
        <time>2018-07-22T10:01:34.000Z</time>
      </trkpt>
      <trkpt lat="42.298961" lon="-0.479818">
        <ele>1412.8</ele>
        <time>2018-07-22T10:01:35.000Z</time>
      </trkpt>
      <trkpt lat="42.298968" lon="-0.479834">
        <ele>1412.8</ele>
        <time>2018-07-22T10:01:36.000Z</time>
      </trkpt>
      <trkpt lat="42.298975" lon="-0.47985">
        <ele>1412.8</ele>
        <time>2018-07-22T10:01:37.000Z</time>
      </trkpt>
      <trkpt lat="42.298983" lon="-0.479866">
        <ele>1412.8</ele>
        <time>2018-07-22T10:01:38.000Z</time>
      </trkpt>
      <trkpt lat="42.29899" lon="-0.479882">
        <ele>1412.7</ele>
        <time>2018-07-22T10:01:39.000Z</time>
      </trkpt>
      <trkpt lat="42.298997" lon="-0.479898">
        <ele>1412.7</ele>
        <time>2018-07-22T10:01:40.000Z</time>
      </trkpt>
      <trkpt lat="42.299004" lon="-0.479914">
        <ele>1412.7</ele>
        <time>2018-07-22T10:01:41.000Z</time>
      </trkpt>
      <trkpt lat="42.299011" lon="-0.47993">
        <ele>1412.7</ele>
        <time>2018-07-22T10:01:42.000Z</time>
      </trkpt>
      <trkpt lat="42.299018" lon="-0.479946">
        <ele>1412.7</ele>
        <time>2018-07-22T10:01:43.000Z</time>
      </trkpt>
      <trkpt lat="42.299025" lon="-0.479961">
        <ele>1412.6</ele>
        <time>2018-07-22T10:01:44.000Z</time>
      </trkpt>
      <trkpt lat="42.299033" lon="-0.479976">
        <ele>1412.6</ele>
        <time>2018-07-22T10:01:45.000Z</time>
      </trkpt>
      <trkpt lat="42.29904" lon="-0.479991">
        <ele>1412.5</ele>
        <time>2018-07-22T10:01:46.000Z</time>
      </trkpt>
      <trkpt lat="42.299049" lon="-0.480005">
        <ele>1412.5</ele>
        <time>2018-07-22T10:01:47.000Z</time>
      </trkpt>
      <trkpt lat="42.299057" lon="-0.48002">
        <ele>1412.5</ele>
        <time>2018-07-22T10:01:48.000Z</time>
      </trkpt>
      <trkpt lat="42.299066" lon="-0.480034">
        <ele>1412.4</ele>
        <time>2018-07-22T10:01:49.000Z</time>
      </trkpt>
      <trkpt lat="42.299075" lon="-0.480048">
        <ele>1412.4</ele>
        <time>2018-07-22T10:01:50.000Z</time>
      </trkpt>
      <trkpt lat="42.299083" lon="-0.480063">
        <ele>1412.4</ele>
        <time>2018-07-22T10:01:51.000Z</time>
      </trkpt>
      <trkpt lat="42.299091" lon="-0.480078">
        <ele>1412.4</ele>
        <time>2018-07-22T10:01:52.000Z</time>
      </trkpt>
      <trkpt lat="42.299099" lon="-0.480094">
        <ele>1412.4</ele>
        <time>2018-07-22T10:01:53.000Z</time>
      </trkpt>
      <trkpt lat="42.299107" lon="-0.48011">
        <ele>1412.4</ele>
        <time>2018-07-22T10:01:54.000Z</time>
      </trkpt>
      <trkpt lat="42.299114" lon="-0.480127">
        <ele>1412.4</ele>
        <time>2018-07-22T10:01:55.000Z</time>
      </trkpt>
      <trkpt lat="42.299121" lon="-0.480144">
        <ele>1412.5</ele>
        <time>2018-07-22T10:01:56.000Z</time>
      </trkpt>
      <trkpt lat="42.299128" lon="-0.480161">
        <ele>1412.5</ele>
        <time>2018-07-22T10:01:57.000Z</time>
      </trkpt>
      <trkpt lat="42.299135" lon="-0.480178">
        <ele>1412.6</ele>
        <time>2018-07-22T10:01:58.000Z</time>
      </trkpt>
      <trkpt lat="42.299142" lon="-0.480195">
        <ele>1412.6</ele>
        <time>2018-07-22T10:01:59.000Z</time>
      </trkpt>
      <trkpt lat="42.299149" lon="-0.480211">
        <ele>1412.6</ele>
        <time>2018-07-22T10:02:00.000Z</time>
      </trkpt>
      <trkpt lat="42.299156" lon="-0.480227">
        <ele>1412.7</ele>
        <time>2018-07-22T10:02:01.000Z</time>
      </trkpt>
      <trkpt lat="42.299163" lon="-0.480243">
        <ele>1412.7</ele>
        <time>2018-07-22T10:02:02.000Z</time>
      </trkpt>
      <trkpt lat="42.29917" lon="-0.480258">
        <ele>1412.8</ele>
        <time>2018-07-22T10:02:03.000Z</time>
      </trkpt>
      <trkpt lat="42.299178" lon="-0.480273">
        <ele>1413.0</ele>
        <time>2018-07-22T10:02:04.000Z</time>
      </trkpt>
      <trkpt lat="42.299185" lon="-0.480287">
        <ele>1413.1</ele>
        <time>2018-07-22T10:02:05.000Z</time>
      </trkpt>
      <trkpt lat="42.299192" lon="-0.480301">
        <ele>1413.3</ele>
        <time>2018-07-22T10:02:06.000Z</time>
      </trkpt>
      <trkpt lat="42.299199" lon="-0.480315">
        <ele>1413.4</ele>
        <time>2018-07-22T10:02:07.000Z</time>
      </trkpt>
      <trkpt lat="42.299207" lon="-0.480328">
        <ele>1413.6</ele>
        <time>2018-07-22T10:02:08.000Z</time>
      </trkpt>
      <trkpt lat="42.299214" lon="-0.480342">
        <ele>1413.7</ele>
        <time>2018-07-22T10:02:09.000Z</time>
      </trkpt>
      <trkpt lat="42.299222" lon="-0.480355">
        <ele>1413.8</ele>
        <time>2018-07-22T10:02:10.000Z</time>
      </trkpt>
      <trkpt lat="42.29923" lon="-0.480369">
        <ele>1414.0</ele>
        <time>2018-07-22T10:02:11.000Z</time>
      </trkpt>
      <trkpt lat="42.299238" lon="-0.480382">
        <ele>1414.1</ele>
        <time>2018-07-22T10:02:12.000Z</time>
      </trkpt>
      <trkpt lat="42.299245" lon="-0.480396">
        <ele>1414.3</ele>
        <time>2018-07-22T10:02:13.000Z</time>
      </trkpt>
      <trkpt lat="42.299253" lon="-0.48041">
        <ele>1414.4</ele>
        <time>2018-07-22T10:02:14.000Z</time>
      </trkpt>
      <trkpt lat="42.299261" lon="-0.480424">
        <ele>1414.6</ele>
        <time>2018-07-22T10:02:15.000Z</time>
      </trkpt>
      <trkpt lat="42.299269" lon="-0.480438">
        <ele>1414.7</ele>
        <time>2018-07-22T10:02:16.000Z</time>
      </trkpt>
      <trkpt lat="42.299278" lon="-0.480453">
        <ele>1414.9</ele>
        <time>2018-07-22T10:02:17.000Z</time>
      </trkpt>
      <trkpt lat="42.299286" lon="-0.480467">
        <ele>1415.0</ele>
        <time>2018-07-22T10:02:18.000Z</time>
      </trkpt>
      <trkpt lat="42.299294" lon="-0.480482">
        <ele>1415.2</ele>
        <time>2018-07-22T10:02:19.000Z</time>
      </trkpt>
      <trkpt lat="42.299302" lon="-0.480497">
        <ele>1415.3</ele>
        <time>2018-07-22T10:02:20.000Z</time>
      </trkpt>
      <trkpt lat="42.299311" lon="-0.480512">
        <ele>1415.5</ele>
        <time>2018-07-22T10:02:21.000Z</time>
      </trkpt>
      <trkpt lat="42.299319" lon="-0.480528">
        <ele>1415.7</ele>
        <time>2018-07-22T10:02:22.000Z</time>
      </trkpt>
      <trkpt lat="42.299328" lon="-0.480544">
        <ele>1415.8</ele>
        <time>2018-07-22T10:02:23.000Z</time>
      </trkpt>
      <trkpt lat="42.299336" lon="-0.48056">
        <ele>1416.0</ele>
        <time>2018-07-22T10:02:24.000Z</time>
      </trkpt>
      <trkpt lat="42.299345" lon="-0.480576">
        <ele>1416.1</ele>
        <time>2018-07-22T10:02:25.000Z</time>
      </trkpt>
      <trkpt lat="42.299353" lon="-0.480592">
        <ele>1416.3</ele>
        <time>2018-07-22T10:02:26.000Z</time>
      </trkpt>
      <trkpt lat="42.299361" lon="-0.480607">
        <ele>1416.4</ele>
        <time>2018-07-22T10:02:27.000Z</time>
      </trkpt>
      <trkpt lat="42.299369" lon="-0.480623">
        <ele>1416.6</ele>
        <time>2018-07-22T10:02:28.000Z</time>
      </trkpt>
      <trkpt lat="42.299375" lon="-0.480637">
        <ele>1416.7</ele>
        <time>2018-07-22T10:02:29.000Z</time>
      </trkpt>
      <trkpt lat="42.299382" lon="-0.480651">
        <ele>1416.9</ele>
        <time>2018-07-22T10:02:30.000Z</time>
      </trkpt>
      <trkpt lat="42.299388" lon="-0.480664">
        <ele>1417.0</ele>
        <time>2018-07-22T10:02:31.000Z</time>
      </trkpt>
      <trkpt lat="42.299393" lon="-0.480677">
        <ele>1417.1</ele>
        <time>2018-07-22T10:02:32.000Z</time>
      </trkpt>
      <trkpt lat="42.299399" lon="-0.480689">
        <ele>1417.3</ele>
        <time>2018-07-22T10:02:33.000Z</time>
      </trkpt>
      <trkpt lat="42.299405" lon="-0.4807">
        <ele>1417.4</ele>
        <time>2018-07-22T10:02:34.000Z</time>
      </trkpt>
      <trkpt lat="42.299412" lon="-0.480711">
        <ele>1417.5</ele>
        <time>2018-07-22T10:02:35.000Z</time>
      </trkpt>
      <trkpt lat="42.299419" lon="-0.480722">
        <ele>1417.6</ele>
        <time>2018-07-22T10:02:36.000Z</time>
      </trkpt>
      <trkpt lat="42.299427" lon="-0.480733">
        <ele>1417.7</ele>
        <time>2018-07-22T10:02:37.000Z</time>
      </trkpt>
      <trkpt lat="42.299435" lon="-0.480743">
        <ele>1417.8</ele>
        <time>2018-07-22T10:02:38.000Z</time>
      </trkpt>
      <trkpt lat="42.299444" lon="-0.480754">
        <ele>1417.9</ele>
        <time>2018-07-22T10:02:39.000Z</time>
      </trkpt>
      <trkpt lat="42.299453" lon="-0.480765">
        <ele>1418.0</ele>
        <time>2018-07-22T10:02:40.000Z</time>
      </trkpt>
      <trkpt lat="42.299462" lon="-0.480776">
        <ele>1418.1</ele>
        <time>2018-07-22T10:02:41.000Z</time>
      </trkpt>
      <trkpt lat="42.29947" lon="-0.480788">
        <ele>1418.2</ele>
        <time>2018-07-22T10:02:42.000Z</time>
      </trkpt>
      <trkpt lat="42.299479" lon="-0.480799">
        <ele>1418.3</ele>
        <time>2018-07-22T10:02:43.000Z</time>
      </trkpt>
      <trkpt lat="42.299487" lon="-0.480811">
        <ele>1418.4</ele>
        <time>2018-07-22T10:02:44.000Z</time>
      </trkpt>
      <trkpt lat="42.299494" lon="-0.480824">
        <ele>1418.5</ele>
        <time>2018-07-22T10:02:45.000Z</time>
      </trkpt>
      <trkpt lat="42.299501" lon="-0.480836">
        <ele>1418.6</ele>
        <time>2018-07-22T10:02:46.000Z</time>
      </trkpt>
      <trkpt lat="42.299507" lon="-0.480849">
        <ele>1418.6</ele>
        <time>2018-07-22T10:02:47.000Z</time>
      </trkpt>
      <trkpt lat="42.299513" lon="-0.480863">
        <ele>1418.6</ele>
        <time>2018-07-22T10:02:48.000Z</time>
      </trkpt>
      <trkpt lat="42.299519" lon="-0.480877">
        <ele>1418.6</ele>
        <time>2018-07-22T10:02:49.000Z</time>
      </trkpt>
      <trkpt lat="42.299524" lon="-0.480892">
        <ele>1418.6</ele>
        <time>2018-07-22T10:02:50.000Z</time>
      </trkpt>
      <trkpt lat="42.299529" lon="-0.480908">
        <ele>1418.6</ele>
        <time>2018-07-22T10:02:51.000Z</time>
      </trkpt>
      <trkpt lat="42.299535" lon="-0.480924">
        <ele>1418.6</ele>
        <time>2018-07-22T10:02:52.000Z</time>
      </trkpt>
      <trkpt lat="42.29954" lon="-0.48094">
        <ele>1418.6</ele>
        <time>2018-07-22T10:02:53.000Z</time>
      </trkpt>
      <trkpt lat="42.299546" lon="-0.480956">
        <ele>1418.6</ele>
        <time>2018-07-22T10:02:54.000Z</time>
      </trkpt>
      <trkpt lat="42.299552" lon="-0.480971">
        <ele>1418.6</ele>
        <time>2018-07-22T10:02:55.000Z</time>
      </trkpt>
      <trkpt lat="42.299558" lon="-0.480986">
        <ele>1418.6</ele>
        <time>2018-07-22T10:02:56.000Z</time>
      </trkpt>
      <trkpt lat="42.299564" lon="-0.481001">
        <ele>1418.6</ele>
        <time>2018-07-22T10:02:57.000Z</time>
      </trkpt>
      <trkpt lat="42.29957" lon="-0.481015">
        <ele>1418.6</ele>
        <time>2018-07-22T10:02:58.000Z</time>
      </trkpt>
      <trkpt lat="42.299577" lon="-0.481028">
        <ele>1418.6</ele>
        <time>2018-07-22T10:02:59.000Z</time>
      </trkpt>
      <trkpt lat="42.299583" lon="-0.481042">
        <ele>1418.6</ele>
        <time>2018-07-22T10:03:00.000Z</time>
      </trkpt>
      <trkpt lat="42.29959" lon="-0.481055">
        <ele>1418.6</ele>
        <time>2018-07-22T10:03:01.000Z</time>
      </trkpt>
      <trkpt lat="42.299597" lon="-0.481068">
        <ele>1418.6</ele>
        <time>2018-07-22T10:03:02.000Z</time>
      </trkpt>
      <trkpt lat="42.299604" lon="-0.481081">
        <ele>1418.6</ele>
        <time>2018-07-22T10:03:03.000Z</time>
      </trkpt>
      <trkpt lat="42.29961" lon="-0.481094">
        <ele>1418.6</ele>
        <time>2018-07-22T10:03:04.000Z</time>
      </trkpt>
      <trkpt lat="42.299617" lon="-0.481108">
        <ele>1418.6</ele>
        <time>2018-07-22T10:03:05.000Z</time>
      </trkpt>
      <trkpt lat="42.299624" lon="-0.481122">
        <ele>1418.6</ele>
        <time>2018-07-22T10:03:06.000Z</time>
      </trkpt>
      <trkpt lat="42.29963" lon="-0.481136">
        <ele>1418.6</ele>
        <time>2018-07-22T10:03:07.000Z</time>
      </trkpt>
      <trkpt lat="42.299637" lon="-0.481151">
        <ele>1418.6</ele>
        <time>2018-07-22T10:03:08.000Z</time>
      </trkpt>
      <trkpt lat="42.299644" lon="-0.481166">
        <ele>1418.5</ele>
        <time>2018-07-22T10:03:09.000Z</time>
      </trkpt>
      <trkpt lat="42.29965" lon="-0.481181">
        <ele>1418.5</ele>
        <time>2018-07-22T10:03:10.000Z</time>
      </trkpt>
      <trkpt lat="42.299656" lon="-0.481196">
        <ele>1418.5</ele>
        <time>2018-07-22T10:03:11.000Z</time>
      </trkpt>
      <trkpt lat="42.299662" lon="-0.481211">
        <ele>1418.5</ele>
        <time>2018-07-22T10:03:12.000Z</time>
      </trkpt>
      <trkpt lat="42.299668" lon="-0.481226">
        <ele>1418.5</ele>
        <time>2018-07-22T10:03:13.000Z</time>
      </trkpt>
      <trkpt lat="42.299674" lon="-0.481241">
        <ele>1418.5</ele>
        <time>2018-07-22T10:03:14.000Z</time>
      </trkpt>
      <trkpt lat="42.299679" lon="-0.481256">
        <ele>1418.5</ele>
        <time>2018-07-22T10:03:15.000Z</time>
      </trkpt>
      <trkpt lat="42.299684" lon="-0.481271">
        <ele>1418.5</ele>
        <time>2018-07-22T10:03:16.000Z</time>
      </trkpt>
      <trkpt lat="42.299689" lon="-0.481285">
        <ele>1418.4</ele>
        <time>2018-07-22T10:03:17.000Z</time>
      </trkpt>
      <trkpt lat="42.299693" lon="-0.481299">
        <ele>1418.4</ele>
        <time>2018-07-22T10:03:18.000Z</time>
      </trkpt>
      <trkpt lat="42.299698" lon="-0.481312">
        <ele>1418.4</ele>
        <time>2018-07-22T10:03:19.000Z</time>
      </trkpt>
      <trkpt lat="42.299702" lon="-0.481326">
        <ele>1418.4</ele>
        <time>2018-07-22T10:03:20.000Z</time>
      </trkpt>
      <trkpt lat="42.299706" lon="-0.481341">
        <ele>1418.4</ele>
        <time>2018-07-22T10:03:21.000Z</time>
      </trkpt>
      <trkpt lat="42.299711" lon="-0.481356">
        <ele>1418.4</ele>
        <time>2018-07-22T10:03:22.000Z</time>
      </trkpt>
      <trkpt lat="42.299715" lon="-0.481373">
        <ele>1418.4</ele>
        <time>2018-07-22T10:03:23.000Z</time>
      </trkpt>
      <trkpt lat="42.29972" lon="-0.48139">
        <ele>1418.3</ele>
        <time>2018-07-22T10:03:24.000Z</time>
      </trkpt>
      <trkpt lat="42.299726" lon="-0.481407">
        <ele>1418.3</ele>
        <time>2018-07-22T10:03:25.000Z</time>
      </trkpt>
      <trkpt lat="42.299731" lon="-0.481424">
        <ele>1418.3</ele>
        <time>2018-07-22T10:03:26.000Z</time>
      </trkpt>
      <trkpt lat="42.299737" lon="-0.481441">
        <ele>1418.3</ele>
        <time>2018-07-22T10:03:27.000Z</time>
      </trkpt>
      <trkpt lat="42.299743" lon="-0.481455">
        <ele>1418.3</ele>
        <time>2018-07-22T10:03:28.000Z</time>
      </trkpt>
      <trkpt lat="42.299749" lon="-0.481469">
        <ele>1418.2</ele>
        <time>2018-07-22T10:03:29.000Z</time>
      </trkpt>
      <trkpt lat="42.299755" lon="-0.481482">
        <ele>1418.2</ele>
        <time>2018-07-22T10:03:30.000Z</time>
      </trkpt>
      <trkpt lat="42.299761" lon="-0.481495">
        <ele>1418.2</ele>
        <time>2018-07-22T10:03:31.000Z</time>
      </trkpt>
      <trkpt lat="42.299766" lon="-0.481509">
        <ele>1418.2</ele>
        <time>2018-07-22T10:03:32.000Z</time>
      </trkpt>
      <trkpt lat="42.29977" lon="-0.481522">
        <ele>1418.1</ele>
        <time>2018-07-22T10:03:33.000Z</time>
      </trkpt>
      <trkpt lat="42.299774" lon="-0.481537">
        <ele>1418.1</ele>
        <time>2018-07-22T10:03:34.000Z</time>
      </trkpt>
      <trkpt lat="42.299777" lon="-0.481552">
        <ele>1418.1</ele>
        <time>2018-07-22T10:03:35.000Z</time>
      </trkpt>
      <trkpt lat="42.29978" lon="-0.481568">
        <ele>1418.1</ele>
        <time>2018-07-22T10:03:36.000Z</time>
      </trkpt>
      <trkpt lat="42.299783" lon="-0.481584">
        <ele>1418.1</ele>
        <time>2018-07-22T10:03:37.000Z</time>
      </trkpt>
      <trkpt lat="42.299787" lon="-0.4816">
        <ele>1418.0</ele>
        <time>2018-07-22T10:03:38.000Z</time>
      </trkpt>
      <trkpt lat="42.29979" lon="-0.481615">
        <ele>1418.0</ele>
        <time>2018-07-22T10:03:39.000Z</time>
      </trkpt>
      <trkpt lat="42.299795" lon="-0.481631">
        <ele>1418.0</ele>
        <time>2018-07-22T10:03:40.000Z</time>
      </trkpt>
      <trkpt lat="42.2998" lon="-0.481646">
        <ele>1418.0</ele>
        <time>2018-07-22T10:03:41.000Z</time>
      </trkpt>
      <trkpt lat="42.299805" lon="-0.48166">
        <ele>1417.9</ele>
        <time>2018-07-22T10:03:42.000Z</time>
      </trkpt>
      <trkpt lat="42.29981" lon="-0.481675">
        <ele>1417.8</ele>
        <time>2018-07-22T10:03:43.000Z</time>
      </trkpt>
      <trkpt lat="42.299816" lon="-0.481689">
        <ele>1417.6</ele>
        <time>2018-07-22T10:03:44.000Z</time>
      </trkpt>
      <trkpt lat="42.299823" lon="-0.481703">
        <ele>1417.5</ele>
        <time>2018-07-22T10:03:45.000Z</time>
      </trkpt>
      <trkpt lat="42.299829" lon="-0.481717">
        <ele>1417.3</ele>
        <time>2018-07-22T10:03:46.000Z</time>
      </trkpt>
      <trkpt lat="42.299836" lon="-0.48173">
        <ele>1417.1</ele>
        <time>2018-07-22T10:03:47.000Z</time>
      </trkpt>
      <trkpt lat="42.299842" lon="-0.481743">
        <ele>1416.9</ele>
        <time>2018-07-22T10:03:48.000Z</time>
      </trkpt>
      <trkpt lat="42.299849" lon="-0.481756">
        <ele>1416.8</ele>
        <time>2018-07-22T10:03:49.000Z</time>
      </trkpt>
      <trkpt lat="42.299856" lon="-0.481769">
        <ele>1416.6</ele>
        <time>2018-07-22T10:03:50.000Z</time>
      </trkpt>
      <trkpt lat="42.299862" lon="-0.481781">
        <ele>1416.4</ele>
        <time>2018-07-22T10:03:51.000Z</time>
      </trkpt>
      <trkpt lat="42.299869" lon="-0.481793">
        <ele>1416.3</ele>
        <time>2018-07-22T10:03:52.000Z</time>
      </trkpt>
      <trkpt lat="42.299876" lon="-0.481805">
        <ele>1416.1</ele>
        <time>2018-07-22T10:03:53.000Z</time>
      </trkpt>
      <trkpt lat="42.299882" lon="-0.481816">
        <ele>1416.0</ele>
        <time>2018-07-22T10:03:54.000Z</time>
      </trkpt>
      <trkpt lat="42.299889" lon="-0.481828">
        <ele>1415.8</ele>
        <time>2018-07-22T10:03:55.000Z</time>
      </trkpt>
      <trkpt lat="42.299896" lon="-0.481839">
        <ele>1415.6</ele>
        <time>2018-07-22T10:03:56.000Z</time>
      </trkpt>
      <trkpt lat="42.299902" lon="-0.48185">
        <ele>1415.5</ele>
        <time>2018-07-22T10:03:57.000Z</time>
      </trkpt>
      <trkpt lat="42.299909" lon="-0.481861">
        <ele>1415.3</ele>
        <time>2018-07-22T10:03:58.000Z</time>
      </trkpt>
      <trkpt lat="42.299915" lon="-0.481872">
        <ele>1415.2</ele>
        <time>2018-07-22T10:03:59.000Z</time>
      </trkpt>
      <trkpt lat="42.299921" lon="-0.481883">
        <ele>1415.0</ele>
        <time>2018-07-22T10:04:00.000Z</time>
      </trkpt>
      <trkpt lat="42.299928" lon="-0.481893">
        <ele>1414.9</ele>
        <time>2018-07-22T10:04:01.000Z</time>
      </trkpt>
      <trkpt lat="42.299934" lon="-0.481904">
        <ele>1414.8</ele>
        <time>2018-07-22T10:04:02.000Z</time>
      </trkpt>
      <trkpt lat="42.29994" lon="-0.481915">
        <ele>1414.6</ele>
        <time>2018-07-22T10:04:03.000Z</time>
      </trkpt>
      <trkpt lat="42.299946" lon="-0.481925">
        <ele>1414.5</ele>
        <time>2018-07-22T10:04:04.000Z</time>
      </trkpt>
      <trkpt lat="42.299952" lon="-0.481936">
        <ele>1414.3</ele>
        <time>2018-07-22T10:04:05.000Z</time>
      </trkpt>
      <trkpt lat="42.299959" lon="-0.481947">
        <ele>1414.2</ele>
        <time>2018-07-22T10:04:06.000Z</time>
      </trkpt>
      <trkpt lat="42.299965" lon="-0.481957">
        <ele>1414.0</ele>
        <time>2018-07-22T10:04:07.000Z</time>
      </trkpt>
      <trkpt lat="42.299971" lon="-0.481968">
        <ele>1413.9</ele>
        <time>2018-07-22T10:04:08.000Z</time>
      </trkpt>
      <trkpt lat="42.299978" lon="-0.481978">
        <ele>1413.7</ele>
        <time>2018-07-22T10:04:09.000Z</time>
      </trkpt>
      <trkpt lat="42.299984" lon="-0.481989">
        <ele>1413.6</ele>
        <time>2018-07-22T10:04:10.000Z</time>
      </trkpt>
      <trkpt lat="42.299991" lon="-0.482">
        <ele>1413.4</ele>
        <time>2018-07-22T10:04:11.000Z</time>
      </trkpt>
      <trkpt lat="42.299998" lon="-0.48201">
        <ele>1413.3</ele>
        <time>2018-07-22T10:04:12.000Z</time>
      </trkpt>
      <trkpt lat="42.300005" lon="-0.482021">
        <ele>1413.3</ele>
        <time>2018-07-22T10:04:13.000Z</time>
      </trkpt>
      <trkpt lat="42.300012" lon="-0.482031">
        <ele>1413.3</ele>
        <time>2018-07-22T10:04:14.000Z</time>
      </trkpt>
      <trkpt lat="42.300019" lon="-0.482042">
        <ele>1413.4</ele>
        <time>2018-07-22T10:04:15.000Z</time>
      </trkpt>
      <trkpt lat="42.300026" lon="-0.482053">
        <ele>1413.4</ele>
        <time>2018-07-22T10:04:16.000Z</time>
      </trkpt>
      <trkpt lat="42.300033" lon="-0.482064">
        <ele>1413.4</ele>
        <time>2018-07-22T10:04:17.000Z</time>
      </trkpt>
      <trkpt lat="42.300041" lon="-0.482075">
        <ele>1413.5</ele>
        <time>2018-07-22T10:04:18.000Z</time>
      </trkpt>
      <trkpt lat="42.300048" lon="-0.482086">
        <ele>1413.5</ele>
        <time>2018-07-22T10:04:19.000Z</time>
      </trkpt>
      <trkpt lat="42.300055" lon="-0.482097">
        <ele>1413.6</ele>
        <time>2018-07-22T10:04:20.000Z</time>
      </trkpt>
      <trkpt lat="42.300063" lon="-0.482108">
        <ele>1413.6</ele>
        <time>2018-07-22T10:04:21.000Z</time>
      </trkpt>
      <trkpt lat="42.30007" lon="-0.482119">
        <ele>1413.6</ele>
        <time>2018-07-22T10:04:22.000Z</time>
      </trkpt>
      <trkpt lat="42.300077" lon="-0.48213">
        <ele>1413.7</ele>
        <time>2018-07-22T10:04:23.000Z</time>
      </trkpt>
      <trkpt lat="42.300085" lon="-0.482142">
        <ele>1413.7</ele>
        <time>2018-07-22T10:04:24.000Z</time>
      </trkpt>
      <trkpt lat="42.300092" lon="-0.482153">
        <ele>1413.7</ele>
        <time>2018-07-22T10:04:25.000Z</time>
      </trkpt>
      <trkpt lat="42.300099" lon="-0.482165">
        <ele>1413.7</ele>
        <time>2018-07-22T10:04:26.000Z</time>
      </trkpt>
      <trkpt lat="42.300106" lon="-0.482176">
        <ele>1413.7</ele>
        <time>2018-07-22T10:04:27.000Z</time>
      </trkpt>
      <trkpt lat="42.300113" lon="-0.482187">
        <ele>1413.7</ele>
        <time>2018-07-22T10:04:28.000Z</time>
      </trkpt>
      <trkpt lat="42.300121" lon="-0.482198">
        <ele>1413.8</ele>
        <time>2018-07-22T10:04:29.000Z</time>
      </trkpt>
      <trkpt lat="42.300128" lon="-0.482209">
        <ele>1413.8</ele>
        <time>2018-07-22T10:04:30.000Z</time>
      </trkpt>
      <trkpt lat="42.300135" lon="-0.482219">
        <ele>1413.8</ele>
        <time>2018-07-22T10:04:31.000Z</time>
      </trkpt>
      <trkpt lat="42.300143" lon="-0.482229">
        <ele>1413.8</ele>
        <time>2018-07-22T10:04:32.000Z</time>
      </trkpt>
      <trkpt lat="42.30015" lon="-0.482238">
        <ele>1413.9</ele>
        <time>2018-07-22T10:04:33.000Z</time>
      </trkpt>
      <trkpt lat="42.300158" lon="-0.482248">
        <ele>1413.9</ele>
        <time>2018-07-22T10:04:34.000Z</time>
      </trkpt>
      <trkpt lat="42.300166" lon="-0.482256">
        <ele>1413.9</ele>
        <time>2018-07-22T10:04:35.000Z</time>
      </trkpt>
      <trkpt lat="42.300173" lon="-0.482265">
        <ele>1414.0</ele>
        <time>2018-07-22T10:04:36.000Z</time>
      </trkpt>
      <trkpt lat="42.300181" lon="-0.482274">
        <ele>1414.0</ele>
        <time>2018-07-22T10:04:37.000Z</time>
      </trkpt>
      <trkpt lat="42.300188" lon="-0.482284">
        <ele>1414.0</ele>
        <time>2018-07-22T10:04:38.000Z</time>
      </trkpt>
      <trkpt lat="42.300195" lon="-0.482294">
        <ele>1414.0</ele>
        <time>2018-07-22T10:04:39.000Z</time>
      </trkpt>
      <trkpt lat="42.300201" lon="-0.482305">
        <ele>1414.0</ele>
        <time>2018-07-22T10:04:40.000Z</time>
      </trkpt>
      <trkpt lat="42.300207" lon="-0.482316">
        <ele>1414.0</ele>
        <time>2018-07-22T10:04:41.000Z</time>
      </trkpt>
      <trkpt lat="42.300213" lon="-0.482328">
        <ele>1413.9</ele>
        <time>2018-07-22T10:04:42.000Z</time>
      </trkpt>
      <trkpt lat="42.300218" lon="-0.482341">
        <ele>1413.8</ele>
        <time>2018-07-22T10:04:43.000Z</time>
      </trkpt>
      <trkpt lat="42.300224" lon="-0.482353">
        <ele>1413.8</ele>
        <time>2018-07-22T10:04:44.000Z</time>
      </trkpt>
      <trkpt lat="42.30023" lon="-0.482365">
        <ele>1413.7</ele>
        <time>2018-07-22T10:04:45.000Z</time>
      </trkpt>
      <trkpt lat="42.300235" lon="-0.482377">
        <ele>1413.7</ele>
        <time>2018-07-22T10:04:46.000Z</time>
      </trkpt>
      <trkpt lat="42.300241" lon="-0.482388">
        <ele>1413.6</ele>
        <time>2018-07-22T10:04:47.000Z</time>
      </trkpt>
      <trkpt lat="42.300246" lon="-0.482399">
        <ele>1413.5</ele>
        <time>2018-07-22T10:04:48.000Z</time>
      </trkpt>
      <trkpt lat="42.300252" lon="-0.48241">
        <ele>1413.5</ele>
        <time>2018-07-22T10:04:49.000Z</time>
      </trkpt>
      <trkpt lat="42.300257" lon="-0.482421">
        <ele>1413.4</ele>
        <time>2018-07-22T10:04:50.000Z</time>
      </trkpt>
      <trkpt lat="42.300262" lon="-0.482432">
        <ele>1413.4</ele>
        <time>2018-07-22T10:04:51.000Z</time>
      </trkpt>
      <trkpt lat="42.300267" lon="-0.482442">
        <ele>1413.3</ele>
        <time>2018-07-22T10:04:52.000Z</time>
      </trkpt>
      <trkpt lat="42.300272" lon="-0.482452">
        <ele>1413.3</ele>
        <time>2018-07-22T10:04:53.000Z</time>
      </trkpt>
      <trkpt lat="42.300276" lon="-0.482462">
        <ele>1413.2</ele>
        <time>2018-07-22T10:04:54.000Z</time>
      </trkpt>
      <trkpt lat="42.300281" lon="-0.482472">
        <ele>1413.1</ele>
        <time>2018-07-22T10:04:55.000Z</time>
      </trkpt>
      <trkpt lat="42.300284" lon="-0.482482">
        <ele>1413.0</ele>
        <time>2018-07-22T10:04:56.000Z</time>
      </trkpt>
      <trkpt lat="42.300288" lon="-0.482491">
        <ele>1413.0</ele>
        <time>2018-07-22T10:04:57.000Z</time>
      </trkpt>
      <trkpt lat="42.300292" lon="-0.482501">
        <ele>1412.9</ele>
        <time>2018-07-22T10:04:58.000Z</time>
      </trkpt>
      <trkpt lat="42.300295" lon="-0.48251">
        <ele>1412.7</ele>
        <time>2018-07-22T10:04:59.000Z</time>
      </trkpt>
      <trkpt lat="42.300298" lon="-0.482519">
        <ele>1412.5</ele>
        <time>2018-07-22T10:05:00.000Z</time>
      </trkpt>
      <trkpt lat="42.300302" lon="-0.482528">
        <ele>1412.4</ele>
        <time>2018-07-22T10:05:01.000Z</time>
      </trkpt>
      <trkpt lat="42.300306" lon="-0.482537">
        <ele>1412.2</ele>
        <time>2018-07-22T10:05:02.000Z</time>
      </trkpt>
      <trkpt lat="42.30031" lon="-0.482546">
        <ele>1412.0</ele>
        <time>2018-07-22T10:05:03.000Z</time>
      </trkpt>
      <trkpt lat="42.300314" lon="-0.482554">
        <ele>1411.9</ele>
        <time>2018-07-22T10:05:04.000Z</time>
      </trkpt>
      <trkpt lat="42.300318" lon="-0.482563">
        <ele>1411.7</ele>
        <time>2018-07-22T10:05:05.000Z</time>
      </trkpt>
      <trkpt lat="42.300323" lon="-0.482572">
        <ele>1411.6</ele>
        <time>2018-07-22T10:05:06.000Z</time>
      </trkpt>
      <trkpt lat="42.300329" lon="-0.482581">
        <ele>1411.5</ele>
        <time>2018-07-22T10:05:07.000Z</time>
      </trkpt>
      <trkpt lat="42.300334" lon="-0.482589">
        <ele>1411.3</ele>
        <time>2018-07-22T10:05:08.000Z</time>
      </trkpt>
      <trkpt lat="42.30034" lon="-0.482598">
        <ele>1411.2</ele>
        <time>2018-07-22T10:05:09.000Z</time>
      </trkpt>
      <trkpt lat="42.300345" lon="-0.482606">
        <ele>1411.1</ele>
        <time>2018-07-22T10:05:10.000Z</time>
      </trkpt>
      <trkpt lat="42.30035" lon="-0.482615">
        <ele>1411.0</ele>
        <time>2018-07-22T10:05:11.000Z</time>
      </trkpt>
      <trkpt lat="42.300355" lon="-0.482624">
        <ele>1410.8</ele>
        <time>2018-07-22T10:05:12.000Z</time>
      </trkpt>
      <trkpt lat="42.30036" lon="-0.482633">
        <ele>1410.7</ele>
        <time>2018-07-22T10:05:13.000Z</time>
      </trkpt>
      <trkpt lat="42.300364" lon="-0.482642">
        <ele>1410.5</ele>
        <time>2018-07-22T10:05:14.000Z</time>
      </trkpt>
      <trkpt lat="42.300368" lon="-0.482651">
        <ele>1410.4</ele>
        <time>2018-07-22T10:05:15.000Z</time>
      </trkpt>
      <trkpt lat="42.300372" lon="-0.48266">
        <ele>1410.2</ele>
        <time>2018-07-22T10:05:16.000Z</time>
      </trkpt>
      <trkpt lat="42.300376" lon="-0.48267">
        <ele>1410.0</ele>
        <time>2018-07-22T10:05:17.000Z</time>
      </trkpt>
      <trkpt lat="42.30038" lon="-0.48268">
        <ele>1409.8</ele>
        <time>2018-07-22T10:05:18.000Z</time>
      </trkpt>
      <trkpt lat="42.300384" lon="-0.482691">
        <ele>1409.6</ele>
        <time>2018-07-22T10:05:19.000Z</time>
      </trkpt>
      <trkpt lat="42.300388" lon="-0.482701">
        <ele>1409.4</ele>
        <time>2018-07-22T10:05:20.000Z</time>
      </trkpt>
      <trkpt lat="42.300392" lon="-0.482712">
        <ele>1409.2</ele>
        <time>2018-07-22T10:05:21.000Z</time>
      </trkpt>
      <trkpt lat="42.300397" lon="-0.482723">
        <ele>1409.0</ele>
        <time>2018-07-22T10:05:22.000Z</time>
      </trkpt>
      <trkpt lat="42.300402" lon="-0.482735">
        <ele>1408.8</ele>
        <time>2018-07-22T10:05:23.000Z</time>
      </trkpt>
      <trkpt lat="42.300407" lon="-0.482746">
        <ele>1408.6</ele>
        <time>2018-07-22T10:05:24.000Z</time>
      </trkpt>
      <trkpt lat="42.300413" lon="-0.482758">
        <ele>1408.4</ele>
        <time>2018-07-22T10:05:25.000Z</time>
      </trkpt>
      <trkpt lat="42.300419" lon="-0.48277">
        <ele>1408.2</ele>
        <time>2018-07-22T10:05:26.000Z</time>
      </trkpt>
      <trkpt lat="42.300425" lon="-0.482782">
        <ele>1408.0</ele>
        <time>2018-07-22T10:05:27.000Z</time>
      </trkpt>
      <trkpt lat="42.300431" lon="-0.482794">
        <ele>1407.8</ele>
        <time>2018-07-22T10:05:28.000Z</time>
      </trkpt>
      <trkpt lat="42.300437" lon="-0.482807">
        <ele>1407.6</ele>
        <time>2018-07-22T10:05:29.000Z</time>
      </trkpt>
      <trkpt lat="42.300443" lon="-0.48282">
        <ele>1407.4</ele>
        <time>2018-07-22T10:05:30.000Z</time>
      </trkpt>
      <trkpt lat="42.300449" lon="-0.482833">
        <ele>1407.2</ele>
        <time>2018-07-22T10:05:31.000Z</time>
      </trkpt>
      <trkpt lat="42.300455" lon="-0.482846">
        <ele>1407.0</ele>
        <time>2018-07-22T10:05:32.000Z</time>
      </trkpt>
      <trkpt lat="42.300462" lon="-0.48286">
        <ele>1406.7</ele>
        <time>2018-07-22T10:05:33.000Z</time>
      </trkpt>
      <trkpt lat="42.300468" lon="-0.482873">
        <ele>1406.5</ele>
        <time>2018-07-22T10:05:34.000Z</time>
      </trkpt>
      <trkpt lat="42.300474" lon="-0.482887">
        <ele>1406.3</ele>
        <time>2018-07-22T10:05:35.000Z</time>
      </trkpt>
      <trkpt lat="42.300481" lon="-0.482901">
        <ele>1406.0</ele>
        <time>2018-07-22T10:05:36.000Z</time>
      </trkpt>
      <trkpt lat="42.300488" lon="-0.482915">
        <ele>1405.8</ele>
        <time>2018-07-22T10:05:37.000Z</time>
      </trkpt>
      <trkpt lat="42.300494" lon="-0.482928">
        <ele>1405.6</ele>
        <time>2018-07-22T10:05:38.000Z</time>
      </trkpt>
      <trkpt lat="42.300501" lon="-0.482942">
        <ele>1405.4</ele>
        <time>2018-07-22T10:05:39.000Z</time>
      </trkpt>
      <trkpt lat="42.300508" lon="-0.482956">
        <ele>1405.2</ele>
        <time>2018-07-22T10:05:40.000Z</time>
      </trkpt>
      <trkpt lat="42.300515" lon="-0.482969">
        <ele>1405.0</ele>
        <time>2018-07-22T10:05:41.000Z</time>
      </trkpt>
      <trkpt lat="42.300523" lon="-0.482983">
        <ele>1404.8</ele>
        <time>2018-07-22T10:05:42.000Z</time>
      </trkpt>
      <trkpt lat="42.300531" lon="-0.482996">
        <ele>1404.6</ele>
        <time>2018-07-22T10:05:43.000Z</time>
      </trkpt>
      <trkpt lat="42.300539" lon="-0.483009">
        <ele>1404.4</ele>
        <time>2018-07-22T10:05:44.000Z</time>
      </trkpt>
      <trkpt lat="42.300548" lon="-0.483021">
        <ele>1404.3</ele>
        <time>2018-07-22T10:05:45.000Z</time>
      </trkpt>
      <trkpt lat="42.300557" lon="-0.483032">
        <ele>1404.2</ele>
        <time>2018-07-22T10:05:46.000Z</time>
      </trkpt>
      <trkpt lat="42.300567" lon="-0.483042">
        <ele>1404.1</ele>
        <time>2018-07-22T10:05:47.000Z</time>
      </trkpt>
      <trkpt lat="42.300577" lon="-0.483051">
        <ele>1404.1</ele>
        <time>2018-07-22T10:05:48.000Z</time>
      </trkpt>
      <trkpt lat="42.300587" lon="-0.483057">
        <ele>1404.1</ele>
        <time>2018-07-22T10:05:49.000Z</time>
      </trkpt>
      <trkpt lat="42.300598" lon="-0.483061">
        <ele>1404.2</ele>
        <time>2018-07-22T10:05:50.000Z</time>
      </trkpt>
      <trkpt lat="42.300609" lon="-0.483065">
        <ele>1404.3</ele>
        <time>2018-07-22T10:05:51.000Z</time>
      </trkpt>
      <trkpt lat="42.30062" lon="-0.483067">
        <ele>1404.5</ele>
        <time>2018-07-22T10:05:52.000Z</time>
      </trkpt>
      <trkpt lat="42.300632" lon="-0.483069">
        <ele>1404.6</ele>
        <time>2018-07-22T10:05:53.000Z</time>
      </trkpt>
      <trkpt lat="42.300643" lon="-0.48307">
        <ele>1404.8</ele>
        <time>2018-07-22T10:05:54.000Z</time>
      </trkpt>
      <trkpt lat="42.300654" lon="-0.483072">
        <ele>1405.0</ele>
        <time>2018-07-22T10:05:55.000Z</time>
      </trkpt>
      <trkpt lat="42.300663" lon="-0.483073">
        <ele>1405.1</ele>
        <time>2018-07-22T10:05:56.000Z</time>
      </trkpt>
      <trkpt lat="42.300668" lon="-0.483074">
        <ele>1405.2</ele>
        <time>2018-07-22T10:05:57.000Z</time>
      </trkpt>
      <trkpt lat="42.300668" lon="-0.483074">
        <ele>1405.2</ele>
        <time>2018-07-22T10:05:58.000Z</time>
      </trkpt>
      <trkpt lat="42.300666" lon="-0.483073">
        <ele>1405.2</ele>
        <time>2018-07-22T10:05:59.000Z</time>
      </trkpt>
      <trkpt lat="42.300664" lon="-0.483074">
        <ele>1405.1</ele>
        <time>2018-07-22T10:06:00.000Z</time>
      </trkpt>
      <trkpt lat="42.300664" lon="-0.483074">
        <ele>1405.1</ele>
        <time>2018-07-22T10:06:01.000Z</time>
      </trkpt>
      <trkpt lat="42.300666" lon="-0.483074">
        <ele>1405.1</ele>
        <time>2018-07-22T10:06:02.000Z</time>
      </trkpt>
      <trkpt lat="42.300671" lon="-0.483075">
        <ele>1405.2</ele>
        <time>2018-07-22T10:06:03.000Z</time>
      </trkpt>
      <trkpt lat="42.300678" lon="-0.483077">
        <ele>1405.3</ele>
        <time>2018-07-22T10:06:04.000Z</time>
      </trkpt>
      <trkpt lat="42.300686" lon="-0.48308">
        <ele>1405.4</ele>
        <time>2018-07-22T10:06:05.000Z</time>
      </trkpt>
      <trkpt lat="42.300695" lon="-0.483085">
        <ele>1405.4</ele>
        <time>2018-07-22T10:06:06.000Z</time>
      </trkpt>
      <trkpt lat="42.300703" lon="-0.483092">
        <ele>1405.4</ele>
        <time>2018-07-22T10:06:07.000Z</time>
      </trkpt>
      <trkpt lat="42.300712" lon="-0.4831">
        <ele>1405.4</ele>
        <time>2018-07-22T10:06:08.000Z</time>
      </trkpt>
      <trkpt lat="42.30072" lon="-0.483109">
        <ele>1405.3</ele>
        <time>2018-07-22T10:06:09.000Z</time>
      </trkpt>
      <trkpt lat="42.300728" lon="-0.483118">
        <ele>1405.2</ele>
        <time>2018-07-22T10:06:10.000Z</time>
      </trkpt>
      <trkpt lat="42.300735" lon="-0.483127">
        <ele>1405.1</ele>
        <time>2018-07-22T10:06:11.000Z</time>
      </trkpt>
      <trkpt lat="42.30074" lon="-0.483136">
        <ele>1405.0</ele>
        <time>2018-07-22T10:06:12.000Z</time>
      </trkpt>
      <trkpt lat="42.300746" lon="-0.483145">
        <ele>1404.9</ele>
        <time>2018-07-22T10:06:13.000Z</time>
      </trkpt>
      <trkpt lat="42.300751" lon="-0.483154">
        <ele>1404.8</ele>
        <time>2018-07-22T10:06:14.000Z</time>
      </trkpt>
      <trkpt lat="42.300755" lon="-0.483163">
        <ele>1404.6</ele>
        <time>2018-07-22T10:06:15.000Z</time>
      </trkpt>
      <trkpt lat="42.300759" lon="-0.483172">
        <ele>1404.5</ele>
        <time>2018-07-22T10:06:16.000Z</time>
      </trkpt>
      <trkpt lat="42.300764" lon="-0.483181">
        <ele>1404.4</ele>
        <time>2018-07-22T10:06:17.000Z</time>
      </trkpt>
      <trkpt lat="42.300768" lon="-0.48319">
        <ele>1404.2</ele>
        <time>2018-07-22T10:06:18.000Z</time>
      </trkpt>
      <trkpt lat="42.300772" lon="-0.483198">
        <ele>1404.1</ele>
        <time>2018-07-22T10:06:19.000Z</time>
      </trkpt>
      <trkpt lat="42.300777" lon="-0.483207">
        <ele>1404.0</ele>
        <time>2018-07-22T10:06:20.000Z</time>
      </trkpt>
      <trkpt lat="42.300783" lon="-0.483216">
        <ele>1403.9</ele>
        <time>2018-07-22T10:06:21.000Z</time>
      </trkpt>
      <trkpt lat="42.300788" lon="-0.483224">
        <ele>1403.8</ele>
        <time>2018-07-22T10:06:22.000Z</time>
      </trkpt>
      <trkpt lat="42.300794" lon="-0.483233">
        <ele>1403.7</ele>
        <time>2018-07-22T10:06:23.000Z</time>
      </trkpt>
      <trkpt lat="42.3008" lon="-0.483241">
        <ele>1403.6</ele>
        <time>2018-07-22T10:06:24.000Z</time>
      </trkpt>
      <trkpt lat="42.300805" lon="-0.48325">
        <ele>1403.5</ele>
        <time>2018-07-22T10:06:25.000Z</time>
      </trkpt>
      <trkpt lat="42.300811" lon="-0.483259">
        <ele>1403.4</ele>
        <time>2018-07-22T10:06:26.000Z</time>
      </trkpt>
      <trkpt lat="42.300816" lon="-0.483267">
        <ele>1403.3</ele>
        <time>2018-07-22T10:06:27.000Z</time>
      </trkpt>
      <trkpt lat="42.30082" lon="-0.483276">
        <ele>1403.1</ele>
        <time>2018-07-22T10:06:28.000Z</time>
      </trkpt>
      <trkpt lat="42.300824" lon="-0.483285">
        <ele>1403.0</ele>
        <time>2018-07-22T10:06:29.000Z</time>
      </trkpt>
      <trkpt lat="42.300828" lon="-0.483294">
        <ele>1402.8</ele>
        <time>2018-07-22T10:06:30.000Z</time>
      </trkpt>
      <trkpt lat="42.300833" lon="-0.483304">
        <ele>1402.7</ele>
        <time>2018-07-22T10:06:31.000Z</time>
      </trkpt>
      <trkpt lat="42.300837" lon="-0.483315">
        <ele>1402.5</ele>
        <time>2018-07-22T10:06:32.000Z</time>
      </trkpt>
      <trkpt lat="42.300842" lon="-0.483326">
        <ele>1402.4</ele>
        <time>2018-07-22T10:06:33.000Z</time>
      </trkpt>
      <trkpt lat="42.300846" lon="-0.483337">
        <ele>1402.2</ele>
        <time>2018-07-22T10:06:34.000Z</time>
      </trkpt>
      <trkpt lat="42.300851" lon="-0.483349">
        <ele>1402.0</ele>
        <time>2018-07-22T10:06:35.000Z</time>
      </trkpt>
      <trkpt lat="42.300856" lon="-0.483361">
        <ele>1401.8</ele>
        <time>2018-07-22T10:06:36.000Z</time>
      </trkpt>
      <trkpt lat="42.300862" lon="-0.483374">
        <ele>1401.6</ele>
        <time>2018-07-22T10:06:37.000Z</time>
      </trkpt>
      <trkpt lat="42.300867" lon="-0.483386">
        <ele>1401.3</ele>
        <time>2018-07-22T10:06:38.000Z</time>
      </trkpt>
      <trkpt lat="42.300873" lon="-0.483398">
        <ele>1401.2</ele>
        <time>2018-07-22T10:06:39.000Z</time>
      </trkpt>
      <trkpt lat="42.300879" lon="-0.483411">
        <ele>1400.9</ele>
        <time>2018-07-22T10:06:40.000Z</time>
      </trkpt>
      <trkpt lat="42.300885" lon="-0.483423">
        <ele>1400.7</ele>
        <time>2018-07-22T10:06:41.000Z</time>
      </trkpt>
      <trkpt lat="42.300891" lon="-0.483435">
        <ele>1400.5</ele>
        <time>2018-07-22T10:06:42.000Z</time>
      </trkpt>
      <trkpt lat="42.300898" lon="-0.483446">
        <ele>1400.4</ele>
        <time>2018-07-22T10:06:43.000Z</time>
      </trkpt>
      <trkpt lat="42.300905" lon="-0.483458">
        <ele>1400.2</ele>
        <time>2018-07-22T10:06:44.000Z</time>
      </trkpt>
      <trkpt lat="42.300911" lon="-0.483469">
        <ele>1400.1</ele>
        <time>2018-07-22T10:06:45.000Z</time>
      </trkpt>
      <trkpt lat="42.300918" lon="-0.48348">
        <ele>1399.9</ele>
        <time>2018-07-22T10:06:46.000Z</time>
      </trkpt>
      <trkpt lat="42.300926" lon="-0.483491">
        <ele>1399.8</ele>
        <time>2018-07-22T10:06:47.000Z</time>
      </trkpt>
      <trkpt lat="42.300933" lon="-0.483502">
        <ele>1399.7</ele>
        <time>2018-07-22T10:06:48.000Z</time>
      </trkpt>
      <trkpt lat="42.30094" lon="-0.483513">
        <ele>1399.5</ele>
        <time>2018-07-22T10:06:49.000Z</time>
      </trkpt>
      <trkpt lat="42.300947" lon="-0.483524">
        <ele>1399.4</ele>
        <time>2018-07-22T10:06:50.000Z</time>
      </trkpt>
      <trkpt lat="42.300954" lon="-0.483535">
        <ele>1399.2</ele>
        <time>2018-07-22T10:06:51.000Z</time>
      </trkpt>
      <trkpt lat="42.300962" lon="-0.483546">
        <ele>1399.1</ele>
        <time>2018-07-22T10:06:52.000Z</time>
      </trkpt>
      <trkpt lat="42.300969" lon="-0.483558">
        <ele>1399.0</ele>
        <time>2018-07-22T10:06:53.000Z</time>
      </trkpt>
      <trkpt lat="42.300976" lon="-0.48357">
        <ele>1398.8</ele>
        <time>2018-07-22T10:06:54.000Z</time>
      </trkpt>
      <trkpt lat="42.300983" lon="-0.483581">
        <ele>1398.6</ele>
        <time>2018-07-22T10:06:55.000Z</time>
      </trkpt>
      <trkpt lat="42.300991" lon="-0.483593">
        <ele>1398.5</ele>
        <time>2018-07-22T10:06:56.000Z</time>
      </trkpt>
      <trkpt lat="42.300998" lon="-0.483603">
        <ele>1398.4</ele>
        <time>2018-07-22T10:06:57.000Z</time>
      </trkpt>
      <trkpt lat="42.301007" lon="-0.483613">
        <ele>1398.3</ele>
        <time>2018-07-22T10:06:58.000Z</time>
      </trkpt>
      <trkpt lat="42.301016" lon="-0.483621">
        <ele>1398.3</ele>
        <time>2018-07-22T10:06:59.000Z</time>
      </trkpt>
      <trkpt lat="42.301025" lon="-0.483627">
        <ele>1398.4</ele>
        <time>2018-07-22T10:07:00.000Z</time>
      </trkpt>
      <trkpt lat="42.301036" lon="-0.483633">
        <ele>1398.5</ele>
        <time>2018-07-22T10:07:01.000Z</time>
      </trkpt>
      <trkpt lat="42.301046" lon="-0.483638">
        <ele>1398.6</ele>
        <time>2018-07-22T10:07:02.000Z</time>
      </trkpt>
      <trkpt lat="42.301057" lon="-0.483643">
        <ele>1398.8</ele>
        <time>2018-07-22T10:07:03.000Z</time>
      </trkpt>
      <trkpt lat="42.301068" lon="-0.483649">
        <ele>1398.9</ele>
        <time>2018-07-22T10:07:04.000Z</time>
      </trkpt>
      <trkpt lat="42.301079" lon="-0.483656">
        <ele>1399.0</ele>
        <time>2018-07-22T10:07:05.000Z</time>
      </trkpt>
      <trkpt lat="42.301089" lon="-0.483665">
        <ele>1399.0</ele>
        <time>2018-07-22T10:07:06.000Z</time>
      </trkpt>
      <trkpt lat="42.301098" lon="-0.483675">
        <ele>1398.9</ele>
        <time>2018-07-22T10:07:07.000Z</time>
      </trkpt>
      <trkpt lat="42.301107" lon="-0.483686">
        <ele>1398.8</ele>
        <time>2018-07-22T10:07:08.000Z</time>
      </trkpt>
      <trkpt lat="42.301115" lon="-0.483696">
        <ele>1398.7</ele>
        <time>2018-07-22T10:07:09.000Z</time>
      </trkpt>
      <trkpt lat="42.301122" lon="-0.483707">
        <ele>1398.6</ele>
        <time>2018-07-22T10:07:10.000Z</time>
      </trkpt>
      <trkpt lat="42.301128" lon="-0.483718">
        <ele>1398.4</ele>
        <time>2018-07-22T10:07:11.000Z</time>
      </trkpt>
      <trkpt lat="42.301133" lon="-0.483728">
        <ele>1398.3</ele>
        <time>2018-07-22T10:07:12.000Z</time>
      </trkpt>
      <trkpt lat="42.301138" lon="-0.483739">
        <ele>1398.1</ele>
        <time>2018-07-22T10:07:13.000Z</time>
      </trkpt>
      <trkpt lat="42.301143" lon="-0.48375">
        <ele>1397.9</ele>
        <time>2018-07-22T10:07:14.000Z</time>
      </trkpt>
      <trkpt lat="42.301149" lon="-0.483761">
        <ele>1397.7</ele>
        <time>2018-07-22T10:07:15.000Z</time>
      </trkpt>
      <trkpt lat="42.301155" lon="-0.483773">
        <ele>1397.5</ele>
        <time>2018-07-22T10:07:16.000Z</time>
      </trkpt>
      <trkpt lat="42.301163" lon="-0.483786">
        <ele>1397.3</ele>
        <time>2018-07-22T10:07:17.000Z</time>
      </trkpt>
      <trkpt lat="42.301172" lon="-0.483798">
        <ele>1397.2</ele>
        <time>2018-07-22T10:07:18.000Z</time>
      </trkpt>
      <trkpt lat="42.301181" lon="-0.48381">
        <ele>1397.1</ele>
        <time>2018-07-22T10:07:19.000Z</time>
      </trkpt>
      <trkpt lat="42.301192" lon="-0.483822">
        <ele>1397.0</ele>
        <time>2018-07-22T10:07:20.000Z</time>
      </trkpt>
      <trkpt lat="42.301203" lon="-0.483832">
        <ele>1397.0</ele>
        <time>2018-07-22T10:07:21.000Z</time>
      </trkpt>
      <trkpt lat="42.301214" lon="-0.483841">
        <ele>1397.0</ele>
        <time>2018-07-22T10:07:22.000Z</time>
      </trkpt>
      <trkpt lat="42.301226" lon="-0.483849">
        <ele>1397.1</ele>
        <time>2018-07-22T10:07:23.000Z</time>
      </trkpt>
      <trkpt lat="42.301238" lon="-0.483856">
        <ele>1397.2</ele>
        <time>2018-07-22T10:07:24.000Z</time>
      </trkpt>
      <trkpt lat="42.30125" lon="-0.483862">
        <ele>1397.3</ele>
        <time>2018-07-22T10:07:25.000Z</time>
      </trkpt>
      <trkpt lat="42.301261" lon="-0.483869">
        <ele>1397.4</ele>
        <time>2018-07-22T10:07:26.000Z</time>
      </trkpt>
      <trkpt lat="42.301272" lon="-0.483876">
        <ele>1397.5</ele>
        <time>2018-07-22T10:07:27.000Z</time>
      </trkpt>
      <trkpt lat="42.301282" lon="-0.483883">
        <ele>1397.5</ele>
        <time>2018-07-22T10:07:28.000Z</time>
      </trkpt>
      <trkpt lat="42.301291" lon="-0.483891">
        <ele>1397.5</ele>
        <time>2018-07-22T10:07:29.000Z</time>
      </trkpt>
      <trkpt lat="42.3013" lon="-0.483899">
        <ele>1397.5</ele>
        <time>2018-07-22T10:07:30.000Z</time>
      </trkpt>
      <trkpt lat="42.301309" lon="-0.483907">
        <ele>1397.5</ele>
        <time>2018-07-22T10:07:31.000Z</time>
      </trkpt>
      <trkpt lat="42.301317" lon="-0.483916">
        <ele>1397.5</ele>
        <time>2018-07-22T10:07:32.000Z</time>
      </trkpt>
      <trkpt lat="42.301324" lon="-0.483926">
        <ele>1397.3</ele>
        <time>2018-07-22T10:07:33.000Z</time>
      </trkpt>
      <trkpt lat="42.301332" lon="-0.483937">
        <ele>1397.2</ele>
        <time>2018-07-22T10:07:34.000Z</time>
      </trkpt>
      <trkpt lat="42.301339" lon="-0.483947">
        <ele>1397.1</ele>
        <time>2018-07-22T10:07:35.000Z</time>
      </trkpt>
      <trkpt lat="42.301346" lon="-0.483958">
        <ele>1396.9</ele>
        <time>2018-07-22T10:07:36.000Z</time>
      </trkpt>
      <trkpt lat="42.301354" lon="-0.483968">
        <ele>1396.9</ele>
        <time>2018-07-22T10:07:37.000Z</time>
      </trkpt>
      <trkpt lat="42.301361" lon="-0.483978">
        <ele>1396.7</ele>
        <time>2018-07-22T10:07:38.000Z</time>
      </trkpt>
      <trkpt lat="42.301368" lon="-0.483987">
        <ele>1396.6</ele>
        <time>2018-07-22T10:07:39.000Z</time>
      </trkpt>
      <trkpt lat="42.301376" lon="-0.483996">
        <ele>1396.6</ele>
        <time>2018-07-22T10:07:40.000Z</time>
      </trkpt>
      <trkpt lat="42.301383" lon="-0.484004">
        <ele>1396.5</ele>
        <time>2018-07-22T10:07:41.000Z</time>
      </trkpt>
      <trkpt lat="42.301391" lon="-0.484013">
        <ele>1396.5</ele>
        <time>2018-07-22T10:07:42.000Z</time>
      </trkpt>
      <trkpt lat="42.301398" lon="-0.484021">
        <ele>1396.4</ele>
        <time>2018-07-22T10:07:43.000Z</time>
      </trkpt>
      <trkpt lat="42.301406" lon="-0.48403">
        <ele>1396.3</ele>
        <time>2018-07-22T10:07:44.000Z</time>
      </trkpt>
      <trkpt lat="42.301414" lon="-0.484038">
        <ele>1396.3</ele>
        <time>2018-07-22T10:07:45.000Z</time>
      </trkpt>
      <trkpt lat="42.301422" lon="-0.484046">
        <ele>1396.3</ele>
        <time>2018-07-22T10:07:46.000Z</time>
      </trkpt>
      <trkpt lat="42.30143" lon="-0.484054">
        <ele>1396.2</ele>
        <time>2018-07-22T10:07:47.000Z</time>
      </trkpt>
      <trkpt lat="42.301439" lon="-0.484062">
        <ele>1396.2</ele>
        <time>2018-07-22T10:07:48.000Z</time>
      </trkpt>
      <trkpt lat="42.301448" lon="-0.484069">
        <ele>1396.2</ele>
        <time>2018-07-22T10:07:49.000Z</time>
      </trkpt>
      <trkpt lat="42.301456" lon="-0.484077">
        <ele>1396.2</ele>
        <time>2018-07-22T10:07:50.000Z</time>
      </trkpt>
      <trkpt lat="42.301464" lon="-0.484085">
        <ele>1396.2</ele>
        <time>2018-07-22T10:07:51.000Z</time>
      </trkpt>
      <trkpt lat="42.301472" lon="-0.484094">
        <ele>1396.1</ele>
        <time>2018-07-22T10:07:52.000Z</time>
      </trkpt>
      <trkpt lat="42.301478" lon="-0.484105">
        <ele>1395.9</ele>
        <time>2018-07-22T10:07:53.000Z</time>
      </trkpt>
      <trkpt lat="42.301483" lon="-0.484117">
        <ele>1395.7</ele>
        <time>2018-07-22T10:07:54.000Z</time>
      </trkpt>
      <trkpt lat="42.301486" lon="-0.484129">
        <ele>1395.4</ele>
        <time>2018-07-22T10:07:55.000Z</time>
      </trkpt>
      <trkpt lat="42.30149" lon="-0.484143">
        <ele>1395.1</ele>
        <time>2018-07-22T10:07:56.000Z</time>
      </trkpt>
      <trkpt lat="42.301493" lon="-0.484156">
        <ele>1394.7</ele>
        <time>2018-07-22T10:07:57.000Z</time>
      </trkpt>
      <trkpt lat="42.301498" lon="-0.484169">
        <ele>1394.5</ele>
        <time>2018-07-22T10:07:58.000Z</time>
      </trkpt>
      <trkpt lat="42.301503" lon="-0.484182">
        <ele>1394.3</ele>
        <time>2018-07-22T10:07:59.000Z</time>
      </trkpt>
      <trkpt lat="42.301509" lon="-0.484194">
        <ele>1394.2</ele>
        <time>2018-07-22T10:08:00.000Z</time>
      </trkpt>
      <trkpt lat="42.301516" lon="-0.484205">
        <ele>1394.1</ele>
        <time>2018-07-22T10:08:01.000Z</time>
      </trkpt>
      <trkpt lat="42.301522" lon="-0.484217">
        <ele>1394.0</ele>
        <time>2018-07-22T10:08:02.000Z</time>
      </trkpt>
      <trkpt lat="42.301529" lon="-0.484228">
        <ele>1394.0</ele>
        <time>2018-07-22T10:08:03.000Z</time>
      </trkpt>
      <trkpt lat="42.301535" lon="-0.484241">
        <ele>1393.8</ele>
        <time>2018-07-22T10:08:04.000Z</time>
      </trkpt>
      <trkpt lat="42.30154" lon="-0.484254">
        <ele>1393.7</ele>
        <time>2018-07-22T10:08:05.000Z</time>
      </trkpt>
      <trkpt lat="42.301544" lon="-0.484269">
        <ele>1393.4</ele>
        <time>2018-07-22T10:08:06.000Z</time>
      </trkpt>
      <trkpt lat="42.301547" lon="-0.484283">
        <ele>1393.2</ele>
        <time>2018-07-22T10:08:07.000Z</time>
      </trkpt>
      <trkpt lat="42.30155" lon="-0.484298">
        <ele>1392.9</ele>
        <time>2018-07-22T10:08:08.000Z</time>
      </trkpt>
      <trkpt lat="42.301553" lon="-0.484313">
        <ele>1392.7</ele>
        <time>2018-07-22T10:08:09.000Z</time>
      </trkpt>
      <trkpt lat="42.301557" lon="-0.484327">
        <ele>1392.5</ele>
        <time>2018-07-22T10:08:10.000Z</time>
      </trkpt>
      <trkpt lat="42.30156" lon="-0.484341">
        <ele>1392.2</ele>
        <time>2018-07-22T10:08:11.000Z</time>
      </trkpt>
      <trkpt lat="42.301564" lon="-0.484355">
        <ele>1392.0</ele>
        <time>2018-07-22T10:08:12.000Z</time>
      </trkpt>
      <trkpt lat="42.301568" lon="-0.484368">
        <ele>1391.8</ele>
        <time>2018-07-22T10:08:13.000Z</time>
      </trkpt>
      <trkpt lat="42.301573" lon="-0.484382">
        <ele>1391.7</ele>
        <time>2018-07-22T10:08:14.000Z</time>
      </trkpt>
      <trkpt lat="42.301577" lon="-0.484395">
        <ele>1391.5</ele>
        <time>2018-07-22T10:08:15.000Z</time>
      </trkpt>
      <trkpt lat="42.301582" lon="-0.484408">
        <ele>1391.3</ele>
        <time>2018-07-22T10:08:16.000Z</time>
      </trkpt>
      <trkpt lat="42.301588" lon="-0.484421">
        <ele>1391.2</ele>
        <time>2018-07-22T10:08:17.000Z</time>
      </trkpt>
      <trkpt lat="42.301593" lon="-0.484434">
        <ele>1391.1</ele>
        <time>2018-07-22T10:08:18.000Z</time>
      </trkpt>
      <trkpt lat="42.301599" lon="-0.484447">
        <ele>1391.0</ele>
        <time>2018-07-22T10:08:19.000Z</time>
      </trkpt>
      <trkpt lat="42.301605" lon="-0.48446">
        <ele>1390.9</ele>
        <time>2018-07-22T10:08:20.000Z</time>
      </trkpt>
      <trkpt lat="42.301612" lon="-0.484473">
        <ele>1390.8</ele>
        <time>2018-07-22T10:08:21.000Z</time>
      </trkpt>
      <trkpt lat="42.301619" lon="-0.484486">
        <ele>1390.7</ele>
        <time>2018-07-22T10:08:22.000Z</time>
      </trkpt>
      <trkpt lat="42.301626" lon="-0.484499">
        <ele>1390.6</ele>
        <time>2018-07-22T10:08:23.000Z</time>
      </trkpt>
      <trkpt lat="42.301634" lon="-0.484512">
        <ele>1390.6</ele>
        <time>2018-07-22T10:08:24.000Z</time>
      </trkpt>
      <trkpt lat="42.301641" lon="-0.484525">
        <ele>1390.5</ele>
        <time>2018-07-22T10:08:25.000Z</time>
      </trkpt>
      <trkpt lat="42.301649" lon="-0.484538">
        <ele>1390.4</ele>
        <time>2018-07-22T10:08:26.000Z</time>
      </trkpt>
      <trkpt lat="42.301657" lon="-0.484551">
        <ele>1390.4</ele>
        <time>2018-07-22T10:08:27.000Z</time>
      </trkpt>
      <trkpt lat="42.301665" lon="-0.484564">
        <ele>1390.4</ele>
        <time>2018-07-22T10:08:28.000Z</time>
      </trkpt>
      <trkpt lat="42.301673" lon="-0.484578">
        <ele>1390.3</ele>
        <time>2018-07-22T10:08:29.000Z</time>
      </trkpt>
      <trkpt lat="42.30168" lon="-0.484592">
        <ele>1390.2</ele>
        <time>2018-07-22T10:08:30.000Z</time>
      </trkpt>
      <trkpt lat="42.301686" lon="-0.484607">
        <ele>1390.0</ele>
        <time>2018-07-22T10:08:31.000Z</time>
      </trkpt>
      <trkpt lat="42.301692" lon="-0.484622">
        <ele>1389.8</ele>
        <time>2018-07-22T10:08:32.000Z</time>
      </trkpt>
      <trkpt lat="42.301698" lon="-0.484638">
        <ele>1389.6</ele>
        <time>2018-07-22T10:08:33.000Z</time>
      </trkpt>
      <trkpt lat="42.301704" lon="-0.484653">
        <ele>1389.4</ele>
        <time>2018-07-22T10:08:34.000Z</time>
      </trkpt>
      <trkpt lat="42.30171" lon="-0.484668">
        <ele>1389.3</ele>
        <time>2018-07-22T10:08:35.000Z</time>
      </trkpt>
      <trkpt lat="42.301716" lon="-0.484682">
        <ele>1389.1</ele>
        <time>2018-07-22T10:08:36.000Z</time>
      </trkpt>
      <trkpt lat="42.301723" lon="-0.484696">
        <ele>1389.0</ele>
        <time>2018-07-22T10:08:37.000Z</time>
      </trkpt>
      <trkpt lat="42.30173" lon="-0.484709">
        <ele>1388.9</ele>
        <time>2018-07-22T10:08:38.000Z</time>
      </trkpt>
      <trkpt lat="42.301737" lon="-0.484721">
        <ele>1388.8</ele>
        <time>2018-07-22T10:08:39.000Z</time>
      </trkpt>
      <trkpt lat="42.301744" lon="-0.484733">
        <ele>1388.7</ele>
        <time>2018-07-22T10:08:40.000Z</time>
      </trkpt>
      <trkpt lat="42.301752" lon="-0.484744">
        <ele>1388.7</ele>
        <time>2018-07-22T10:08:41.000Z</time>
      </trkpt>
      <trkpt lat="42.30176" lon="-0.484755">
        <ele>1388.6</ele>
        <time>2018-07-22T10:08:42.000Z</time>
      </trkpt>
      <trkpt lat="42.301767" lon="-0.484765">
        <ele>1388.6</ele>
        <time>2018-07-22T10:08:43.000Z</time>
      </trkpt>
      <trkpt lat="42.301775" lon="-0.484776">
        <ele>1388.5</ele>
        <time>2018-07-22T10:08:44.000Z</time>
      </trkpt>
      <trkpt lat="42.301783" lon="-0.484787">
        <ele>1388.5</ele>
        <time>2018-07-22T10:08:45.000Z</time>
      </trkpt>
      <trkpt lat="42.301792" lon="-0.484798">
        <ele>1388.5</ele>
        <time>2018-07-22T10:08:46.000Z</time>
      </trkpt>
      <trkpt lat="42.3018" lon="-0.48481">
        <ele>1388.4</ele>
        <time>2018-07-22T10:08:47.000Z</time>
      </trkpt>
      <trkpt lat="42.301809" lon="-0.484823">
        <ele>1388.3</ele>
        <time>2018-07-22T10:08:48.000Z</time>
      </trkpt>
      <trkpt lat="42.301818" lon="-0.484836">
        <ele>1388.3</ele>
        <time>2018-07-22T10:08:49.000Z</time>
      </trkpt>
      <trkpt lat="42.301827" lon="-0.484849">
        <ele>1388.2</ele>
        <time>2018-07-22T10:08:50.000Z</time>
      </trkpt>
      <trkpt lat="42.301836" lon="-0.484863">
        <ele>1388.1</ele>
        <time>2018-07-22T10:08:51.000Z</time>
      </trkpt>
      <trkpt lat="42.301845" lon="-0.484877">
        <ele>1388.0</ele>
        <time>2018-07-22T10:08:52.000Z</time>
      </trkpt>
      <trkpt lat="42.301854" lon="-0.484892">
        <ele>1387.9</ele>
        <time>2018-07-22T10:08:53.000Z</time>
      </trkpt>
      <trkpt lat="42.301862" lon="-0.484906">
        <ele>1387.8</ele>
        <time>2018-07-22T10:08:54.000Z</time>
      </trkpt>
      <trkpt lat="42.30187" lon="-0.48492">
        <ele>1387.7</ele>
        <time>2018-07-22T10:08:55.000Z</time>
      </trkpt>
      <trkpt lat="42.301877" lon="-0.484934">
        <ele>1387.5</ele>
        <time>2018-07-22T10:08:56.000Z</time>
      </trkpt>
      <trkpt lat="42.301885" lon="-0.484948">
        <ele>1387.4</ele>
        <time>2018-07-22T10:08:57.000Z</time>
      </trkpt>
      <trkpt lat="42.301892" lon="-0.484963">
        <ele>1387.2</ele>
        <time>2018-07-22T10:08:58.000Z</time>
      </trkpt>
      <trkpt lat="42.301899" lon="-0.484977">
        <ele>1387.1</ele>
        <time>2018-07-22T10:08:59.000Z</time>
      </trkpt>
      <trkpt lat="42.301905" lon="-0.484991">
        <ele>1386.9</ele>
        <time>2018-07-22T10:09:00.000Z</time>
      </trkpt>
      <trkpt lat="42.301912" lon="-0.485005">
        <ele>1386.8</ele>
        <time>2018-07-22T10:09:01.000Z</time>
      </trkpt>
      <trkpt lat="42.301918" lon="-0.485019">
        <ele>1386.6</ele>
        <time>2018-07-22T10:09:02.000Z</time>
      </trkpt>
      <trkpt lat="42.301925" lon="-0.485033">
        <ele>1386.5</ele>
        <time>2018-07-22T10:09:03.000Z</time>
      </trkpt>
      <trkpt lat="42.301931" lon="-0.485047">
        <ele>1386.3</ele>
        <time>2018-07-22T10:09:04.000Z</time>
      </trkpt>
      <trkpt lat="42.301937" lon="-0.485061">
        <ele>1386.1</ele>
        <time>2018-07-22T10:09:05.000Z</time>
      </trkpt>
      <trkpt lat="42.301943" lon="-0.485074">
        <ele>1386.0</ele>
        <time>2018-07-22T10:09:06.000Z</time>
      </trkpt>
      <trkpt lat="42.301949" lon="-0.485088">
        <ele>1385.8</ele>
        <time>2018-07-22T10:09:07.000Z</time>
      </trkpt>
      <trkpt lat="42.301955" lon="-0.485101">
        <ele>1385.6</ele>
        <time>2018-07-22T10:09:08.000Z</time>
      </trkpt>
      <trkpt lat="42.301961" lon="-0.485114">
        <ele>1385.5</ele>
        <time>2018-07-22T10:09:09.000Z</time>
      </trkpt>
      <trkpt lat="42.301968" lon="-0.485127">
        <ele>1385.4</ele>
        <time>2018-07-22T10:09:10.000Z</time>
      </trkpt>
      <trkpt lat="42.301974" lon="-0.48514">
        <ele>1385.2</ele>
        <time>2018-07-22T10:09:11.000Z</time>
      </trkpt>
      <trkpt lat="42.30198" lon="-0.485153">
        <ele>1385.0</ele>
        <time>2018-07-22T10:09:12.000Z</time>
      </trkpt>
      <trkpt lat="42.301987" lon="-0.485165">
        <ele>1384.9</ele>
        <time>2018-07-22T10:09:13.000Z</time>
      </trkpt>
      <trkpt lat="42.301993" lon="-0.485177">
        <ele>1384.8</ele>
        <time>2018-07-22T10:09:14.000Z</time>
      </trkpt>
      <trkpt lat="42.302" lon="-0.485189">
        <ele>1384.6</ele>
        <time>2018-07-22T10:09:15.000Z</time>
      </trkpt>
      <trkpt lat="42.302007" lon="-0.485201">
        <ele>1384.5</ele>
        <time>2018-07-22T10:09:16.000Z</time>
      </trkpt>
      <trkpt lat="42.302014" lon="-0.485213">
        <ele>1384.4</ele>
        <time>2018-07-22T10:09:17.000Z</time>
      </trkpt>
      <trkpt lat="42.302021" lon="-0.485224">
        <ele>1384.3</ele>
        <time>2018-07-22T10:09:18.000Z</time>
      </trkpt>
      <trkpt lat="42.302028" lon="-0.485236">
        <ele>1384.2</ele>
        <time>2018-07-22T10:09:19.000Z</time>
      </trkpt>
      <trkpt lat="42.302035" lon="-0.485248">
        <ele>1384.0</ele>
        <time>2018-07-22T10:09:20.000Z</time>
      </trkpt>
      <trkpt lat="42.302043" lon="-0.485259">
        <ele>1383.9</ele>
        <time>2018-07-22T10:09:21.000Z</time>
      </trkpt>
      <trkpt lat="42.30205" lon="-0.485271">
        <ele>1383.8</ele>
        <time>2018-07-22T10:09:22.000Z</time>
      </trkpt>
      <trkpt lat="42.302058" lon="-0.485283">
        <ele>1383.7</ele>
        <time>2018-07-22T10:09:23.000Z</time>
      </trkpt>
      <trkpt lat="42.302065" lon="-0.485295">
        <ele>1383.5</ele>
        <time>2018-07-22T10:09:24.000Z</time>
      </trkpt>
      <trkpt lat="42.302073" lon="-0.485307">
        <ele>1383.4</ele>
        <time>2018-07-22T10:09:25.000Z</time>
      </trkpt>
      <trkpt lat="42.30208" lon="-0.48532">
        <ele>1383.3</ele>
        <time>2018-07-22T10:09:26.000Z</time>
      </trkpt>
      <trkpt lat="42.302088" lon="-0.485333">
        <ele>1383.1</ele>
        <time>2018-07-22T10:09:27.000Z</time>
      </trkpt>
      <trkpt lat="42.302096" lon="-0.485345">
        <ele>1383.0</ele>
        <time>2018-07-22T10:09:28.000Z</time>
      </trkpt>
      <trkpt lat="42.302104" lon="-0.485358">
        <ele>1382.8</ele>
        <time>2018-07-22T10:09:29.000Z</time>
      </trkpt>
      <trkpt lat="42.302112" lon="-0.485371">
        <ele>1382.7</ele>
        <time>2018-07-22T10:09:30.000Z</time>
      </trkpt>
      <trkpt lat="42.30212" lon="-0.485384">
        <ele>1382.5</ele>
        <time>2018-07-22T10:09:31.000Z</time>
      </trkpt>
      <trkpt lat="42.302128" lon="-0.485397">
        <ele>1382.3</ele>
        <time>2018-07-22T10:09:32.000Z</time>
      </trkpt>
      <trkpt lat="42.302136" lon="-0.485409">
        <ele>1382.2</ele>
        <time>2018-07-22T10:09:33.000Z</time>
      </trkpt>
      <trkpt lat="42.302144" lon="-0.485422">
        <ele>1382.0</ele>
        <time>2018-07-22T10:09:34.000Z</time>
      </trkpt>
      <trkpt lat="42.302153" lon="-0.485435">
        <ele>1381.9</ele>
        <time>2018-07-22T10:09:35.000Z</time>
      </trkpt>
      <trkpt lat="42.302161" lon="-0.485447">
        <ele>1381.7</ele>
        <time>2018-07-22T10:09:36.000Z</time>
      </trkpt>
      <trkpt lat="42.30217" lon="-0.485459">
        <ele>1381.6</ele>
        <time>2018-07-22T10:09:37.000Z</time>
      </trkpt>
      <trkpt lat="42.302179" lon="-0.485471">
        <ele>1381.5</ele>
        <time>2018-07-22T10:09:38.000Z</time>
      </trkpt>
      <trkpt lat="42.302188" lon="-0.485482">
        <ele>1381.4</ele>
        <time>2018-07-22T10:09:39.000Z</time>
      </trkpt>
      <trkpt lat="42.302197" lon="-0.485494">
        <ele>1381.2</ele>
        <time>2018-07-22T10:09:40.000Z</time>
      </trkpt>
      <trkpt lat="42.302206" lon="-0.485505">
        <ele>1381.1</ele>
        <time>2018-07-22T10:09:41.000Z</time>
      </trkpt>
      <trkpt lat="42.302215" lon="-0.485516">
        <ele>1381.0</ele>
        <time>2018-07-22T10:09:42.000Z</time>
      </trkpt>
      <trkpt lat="42.302224" lon="-0.485527">
        <ele>1380.9</ele>
        <time>2018-07-22T10:09:43.000Z</time>
      </trkpt>
      <trkpt lat="42.302234" lon="-0.485538">
        <ele>1380.8</ele>
        <time>2018-07-22T10:09:44.000Z</time>
      </trkpt>
      <trkpt lat="42.302243" lon="-0.485548">
        <ele>1380.7</ele>
        <time>2018-07-22T10:09:45.000Z</time>
      </trkpt>
      <trkpt lat="42.302253" lon="-0.485559">
        <ele>1380.6</ele>
        <time>2018-07-22T10:09:46.000Z</time>
      </trkpt>
      <trkpt lat="42.302263" lon="-0.485569">
        <ele>1380.5</ele>
        <time>2018-07-22T10:09:47.000Z</time>
      </trkpt>
      <trkpt lat="42.302273" lon="-0.485579">
        <ele>1380.4</ele>
        <time>2018-07-22T10:09:48.000Z</time>
      </trkpt>
      <trkpt lat="42.302283" lon="-0.485588">
        <ele>1380.3</ele>
        <time>2018-07-22T10:09:49.000Z</time>
      </trkpt>
      <trkpt lat="42.302293" lon="-0.485598">
        <ele>1380.2</ele>
        <time>2018-07-22T10:09:50.000Z</time>
      </trkpt>
      <trkpt lat="42.302303" lon="-0.485607">
        <ele>1380.2</ele>
        <time>2018-07-22T10:09:51.000Z</time>
      </trkpt>
      <trkpt lat="42.302313" lon="-0.485616">
        <ele>1380.1</ele>
        <time>2018-07-22T10:09:52.000Z</time>
      </trkpt>
      <trkpt lat="42.302324" lon="-0.485624">
        <ele>1380.1</ele>
        <time>2018-07-22T10:09:53.000Z</time>
      </trkpt>
      <trkpt lat="42.302334" lon="-0.485632">
        <ele>1380.0</ele>
        <time>2018-07-22T10:09:54.000Z</time>
      </trkpt>
      <trkpt lat="42.302344" lon="-0.48564">
        <ele>1380.0</ele>
        <time>2018-07-22T10:09:55.000Z</time>
      </trkpt>
      <trkpt lat="42.302355" lon="-0.485648">
        <ele>1379.9</ele>
        <time>2018-07-22T10:09:56.000Z</time>
      </trkpt>
      <trkpt lat="42.302366" lon="-0.485655">
        <ele>1379.9</ele>
        <time>2018-07-22T10:09:57.000Z</time>
      </trkpt>
      <trkpt lat="42.302376" lon="-0.485662">
        <ele>1379.9</ele>
        <time>2018-07-22T10:09:58.000Z</time>
      </trkpt>
      <trkpt lat="42.302387" lon="-0.485669">
        <ele>1379.9</ele>
        <time>2018-07-22T10:09:59.000Z</time>
      </trkpt>
      <trkpt lat="42.302398" lon="-0.485675">
        <ele>1379.9</ele>
        <time>2018-07-22T10:10:00.000Z</time>
      </trkpt>
      <trkpt lat="42.302409" lon="-0.485681">
        <ele>1379.9</ele>
        <time>2018-07-22T10:10:01.000Z</time>
      </trkpt>
      <trkpt lat="42.30242" lon="-0.485688">
        <ele>1379.9</ele>
        <time>2018-07-22T10:10:02.000Z</time>
      </trkpt>
      <trkpt lat="42.302431" lon="-0.485694">
        <ele>1379.9</ele>
        <time>2018-07-22T10:10:03.000Z</time>
      </trkpt>
      <trkpt lat="42.302442" lon="-0.4857">
        <ele>1379.9</ele>
        <time>2018-07-22T10:10:04.000Z</time>
      </trkpt>
      <trkpt lat="42.302452" lon="-0.485707">
        <ele>1379.9</ele>
        <time>2018-07-22T10:10:05.000Z</time>
      </trkpt>
      <trkpt lat="42.302463" lon="-0.485714">
        <ele>1379.9</ele>
        <time>2018-07-22T10:10:06.000Z</time>
      </trkpt>
      <trkpt lat="42.302474" lon="-0.485721">
        <ele>1379.8</ele>
        <time>2018-07-22T10:10:07.000Z</time>
      </trkpt>
      <trkpt lat="42.302485" lon="-0.485728">
        <ele>1379.8</ele>
        <time>2018-07-22T10:10:08.000Z</time>
      </trkpt>
      <trkpt lat="42.302495" lon="-0.485736">
        <ele>1379.7</ele>
        <time>2018-07-22T10:10:09.000Z</time>
      </trkpt>
      <trkpt lat="42.302506" lon="-0.485745">
        <ele>1379.6</ele>
        <time>2018-07-22T10:10:10.000Z</time>
      </trkpt>
      <trkpt lat="42.302516" lon="-0.485753">
        <ele>1379.6</ele>
        <time>2018-07-22T10:10:11.000Z</time>
      </trkpt>
      <trkpt lat="42.302527" lon="-0.485762">
        <ele>1379.5</ele>
        <time>2018-07-22T10:10:12.000Z</time>
      </trkpt>
      <trkpt lat="42.302538" lon="-0.48577">
        <ele>1379.4</ele>
        <time>2018-07-22T10:10:13.000Z</time>
      </trkpt>
      <trkpt lat="42.302548" lon="-0.485779">
        <ele>1379.3</ele>
        <time>2018-07-22T10:10:14.000Z</time>
      </trkpt>
      <trkpt lat="42.302559" lon="-0.485787">
        <ele>1379.3</ele>
        <time>2018-07-22T10:10:15.000Z</time>
      </trkpt>
      <trkpt lat="42.30257" lon="-0.485794">
        <ele>1379.2</ele>
        <time>2018-07-22T10:10:16.000Z</time>
      </trkpt>
      <trkpt lat="42.302582" lon="-0.485802">
        <ele>1379.2</ele>
        <time>2018-07-22T10:10:17.000Z</time>
      </trkpt>
      <trkpt lat="42.302593" lon="-0.485808">
        <ele>1379.2</ele>
        <time>2018-07-22T10:10:18.000Z</time>
      </trkpt>
      <trkpt lat="42.302605" lon="-0.485814">
        <ele>1379.2</ele>
        <time>2018-07-22T10:10:19.000Z</time>
      </trkpt>
      <trkpt lat="42.302617" lon="-0.485819">
        <ele>1379.2</ele>
        <time>2018-07-22T10:10:20.000Z</time>
      </trkpt>
      <trkpt lat="42.302629" lon="-0.485822">
        <ele>1379.3</ele>
        <time>2018-07-22T10:10:21.000Z</time>
      </trkpt>
      <trkpt lat="42.302642" lon="-0.485826">
        <ele>1379.4</ele>
        <time>2018-07-22T10:10:22.000Z</time>
      </trkpt>
      <trkpt lat="42.302654" lon="-0.485828">
        <ele>1379.6</ele>
        <time>2018-07-22T10:10:23.000Z</time>
      </trkpt>
      <trkpt lat="42.302667" lon="-0.48583">
        <ele>1379.7</ele>
        <time>2018-07-22T10:10:24.000Z</time>
      </trkpt>
      <trkpt lat="42.30268" lon="-0.485831">
        <ele>1379.9</ele>
        <time>2018-07-22T10:10:25.000Z</time>
      </trkpt>
      <trkpt lat="42.302692" lon="-0.485831">
        <ele>1380.1</ele>
        <time>2018-07-22T10:10:26.000Z</time>
      </trkpt>
      <trkpt lat="42.302705" lon="-0.485831">
        <ele>1380.3</ele>
        <time>2018-07-22T10:10:27.000Z</time>
      </trkpt>
      <trkpt lat="42.302718" lon="-0.48583">
        <ele>1380.5</ele>
        <time>2018-07-22T10:10:28.000Z</time>
      </trkpt>
      <trkpt lat="42.302731" lon="-0.485829">
        <ele>1380.7</ele>
        <time>2018-07-22T10:10:29.000Z</time>
      </trkpt>
      <trkpt lat="42.302744" lon="-0.485826">
        <ele>1381.0</ele>
        <time>2018-07-22T10:10:30.000Z</time>
      </trkpt>
      <trkpt lat="42.302757" lon="-0.485824">
        <ele>1381.3</ele>
        <time>2018-07-22T10:10:31.000Z</time>
      </trkpt>
      <trkpt lat="42.30277" lon="-0.485821">
        <ele>1381.6</ele>
        <time>2018-07-22T10:10:32.000Z</time>
      </trkpt>
      <trkpt lat="42.302783" lon="-0.485818">
        <ele>1381.9</ele>
        <time>2018-07-22T10:10:33.000Z</time>
      </trkpt>
      <trkpt lat="42.302796" lon="-0.485816">
        <ele>1382.1</ele>
        <time>2018-07-22T10:10:34.000Z</time>
      </trkpt>
      <trkpt lat="42.302808" lon="-0.485815">
        <ele>1382.3</ele>
        <time>2018-07-22T10:10:35.000Z</time>
      </trkpt>
      <trkpt lat="42.30282" lon="-0.485816">
        <ele>1382.5</ele>
        <time>2018-07-22T10:10:36.000Z</time>
      </trkpt>
      <trkpt lat="42.302831" lon="-0.485818">
        <ele>1382.6</ele>
        <time>2018-07-22T10:10:37.000Z</time>
      </trkpt>
      <trkpt lat="42.302842" lon="-0.485821">
        <ele>1382.7</ele>
        <time>2018-07-22T10:10:38.000Z</time>
      </trkpt>
      <trkpt lat="42.302852" lon="-0.485825">
        <ele>1382.7</ele>
        <time>2018-07-22T10:10:39.000Z</time>
      </trkpt>
      <trkpt lat="42.302861" lon="-0.485831">
        <ele>1382.7</ele>
        <time>2018-07-22T10:10:40.000Z</time>
      </trkpt>
      <trkpt lat="42.302869" lon="-0.485838">
        <ele>1382.6</ele>
        <time>2018-07-22T10:10:41.000Z</time>
      </trkpt>
      <trkpt lat="42.302876" lon="-0.485845">
        <ele>1382.6</ele>
        <time>2018-07-22T10:10:42.000Z</time>
      </trkpt>
      <trkpt lat="42.302884" lon="-0.485853">
        <ele>1382.5</ele>
        <time>2018-07-22T10:10:43.000Z</time>
      </trkpt>
      <trkpt lat="42.302891" lon="-0.485861">
        <ele>1382.4</ele>
        <time>2018-07-22T10:10:44.000Z</time>
      </trkpt>
      <trkpt lat="42.302899" lon="-0.485869">
        <ele>1382.3</ele>
        <time>2018-07-22T10:10:45.000Z</time>
      </trkpt>
      <trkpt lat="42.302907" lon="-0.485876">
        <ele>1382.3</ele>
        <time>2018-07-22T10:10:46.000Z</time>
      </trkpt>
      <trkpt lat="42.302916" lon="-0.485883">
        <ele>1382.2</ele>
        <time>2018-07-22T10:10:47.000Z</time>
      </trkpt>
      <trkpt lat="42.302927" lon="-0.485888">
        <ele>1382.3</ele>
        <time>2018-07-22T10:10:48.000Z</time>
      </trkpt>
      <trkpt lat="42.302938" lon="-0.485894">
        <ele>1382.3</ele>
        <time>2018-07-22T10:10:49.000Z</time>
      </trkpt>
      <trkpt lat="42.302949" lon="-0.485899">
        <ele>1382.3</ele>
        <time>2018-07-22T10:10:50.000Z</time>
      </trkpt>
      <trkpt lat="42.30296" lon="-0.485903">
        <ele>1382.4</ele>
        <time>2018-07-22T10:10:51.000Z</time>
      </trkpt>
      <trkpt lat="42.30297" lon="-0.485907">
        <ele>1382.5</ele>
        <time>2018-07-22T10:10:52.000Z</time>
      </trkpt>
      <trkpt lat="42.302981" lon="-0.485911">
        <ele>1382.5</ele>
        <time>2018-07-22T10:10:53.000Z</time>
      </trkpt>
      <trkpt lat="42.302992" lon="-0.485914">
        <ele>1382.6</ele>
        <time>2018-07-22T10:10:54.000Z</time>
      </trkpt>
      <trkpt lat="42.303002" lon="-0.485917">
        <ele>1382.7</ele>
        <time>2018-07-22T10:10:55.000Z</time>
      </trkpt>
      <trkpt lat="42.303013" lon="-0.485921">
        <ele>1382.8</ele>
        <time>2018-07-22T10:10:56.000Z</time>
      </trkpt>
      <trkpt lat="42.303024" lon="-0.485924">
        <ele>1382.9</ele>
        <time>2018-07-22T10:10:57.000Z</time>
      </trkpt>
      <trkpt lat="42.303036" lon="-0.485927">
        <ele>1383.0</ele>
        <time>2018-07-22T10:10:58.000Z</time>
      </trkpt>
      <trkpt lat="42.303048" lon="-0.48593">
        <ele>1383.1</ele>
        <time>2018-07-22T10:10:59.000Z</time>
      </trkpt>
      <trkpt lat="42.30306" lon="-0.485933">
        <ele>1383.2</ele>
        <time>2018-07-22T10:11:00.000Z</time>
      </trkpt>
      <trkpt lat="42.303071" lon="-0.485937">
        <ele>1383.3</ele>
        <time>2018-07-22T10:11:01.000Z</time>
      </trkpt>
      <trkpt lat="42.303083" lon="-0.485941">
        <ele>1383.4</ele>
        <time>2018-07-22T10:11:02.000Z</time>
      </trkpt>
      <trkpt lat="42.303095" lon="-0.485946">
        <ele>1383.4</ele>
        <time>2018-07-22T10:11:03.000Z</time>
      </trkpt>
      <trkpt lat="42.303106" lon="-0.485952">
        <ele>1383.5</ele>
        <time>2018-07-22T10:11:04.000Z</time>
      </trkpt>
      <trkpt lat="42.303116" lon="-0.485959">
        <ele>1383.4</ele>
        <time>2018-07-22T10:11:05.000Z</time>
      </trkpt>
      <trkpt lat="42.303127" lon="-0.485966">
        <ele>1383.4</ele>
        <time>2018-07-22T10:11:06.000Z</time>
      </trkpt>
      <trkpt lat="42.303137" lon="-0.485973">
        <ele>1383.4</ele>
        <time>2018-07-22T10:11:07.000Z</time>
      </trkpt>
      <trkpt lat="42.303147" lon="-0.485981">
        <ele>1383.4</ele>
        <time>2018-07-22T10:11:08.000Z</time>
      </trkpt>
      <trkpt lat="42.303157" lon="-0.48599">
        <ele>1383.3</ele>
        <time>2018-07-22T10:11:09.000Z</time>
      </trkpt>
      <trkpt lat="42.303166" lon="-0.485999">
        <ele>1383.2</ele>
        <time>2018-07-22T10:11:10.000Z</time>
      </trkpt>
      <trkpt lat="42.303176" lon="-0.486008">
        <ele>1383.1</ele>
        <time>2018-07-22T10:11:11.000Z</time>
      </trkpt>
      <trkpt lat="42.303186" lon="-0.486018">
        <ele>1383.0</ele>
        <time>2018-07-22T10:11:12.000Z</time>
      </trkpt>
      <trkpt lat="42.303195" lon="-0.486028">
        <ele>1382.9</ele>
        <time>2018-07-22T10:11:13.000Z</time>
      </trkpt>
      <trkpt lat="42.303205" lon="-0.486039">
        <ele>1382.8</ele>
        <time>2018-07-22T10:11:14.000Z</time>
      </trkpt>
      <trkpt lat="42.303214" lon="-0.486049">
        <ele>1382.7</ele>
        <time>2018-07-22T10:11:15.000Z</time>
      </trkpt>
      <trkpt lat="42.303223" lon="-0.486059">
        <ele>1382.6</ele>
        <time>2018-07-22T10:11:16.000Z</time>
      </trkpt>
      <trkpt lat="42.303232" lon="-0.486068">
        <ele>1382.5</ele>
        <time>2018-07-22T10:11:17.000Z</time>
      </trkpt>
      <trkpt lat="42.303241" lon="-0.486076">
        <ele>1382.4</ele>
        <time>2018-07-22T10:11:18.000Z</time>
      </trkpt>
      <trkpt lat="42.30325" lon="-0.486084">
        <ele>1382.4</ele>
        <time>2018-07-22T10:11:19.000Z</time>
      </trkpt>
      <trkpt lat="42.303259" lon="-0.486093">
        <ele>1382.3</ele>
        <time>2018-07-22T10:11:20.000Z</time>
      </trkpt>
      <trkpt lat="42.303267" lon="-0.4861">
        <ele>1382.2</ele>
        <time>2018-07-22T10:11:21.000Z</time>
      </trkpt>
      <trkpt lat="42.303273" lon="-0.486105">
        <ele>1382.2</ele>
        <time>2018-07-22T10:11:22.000Z</time>
      </trkpt>
      <trkpt lat="42.303275" lon="-0.486106">
        <ele>1382.2</ele>
        <time>2018-07-22T10:11:23.000Z</time>
      </trkpt>
      <trkpt lat="42.303275" lon="-0.486106">
        <ele>1382.2</ele>
        <time>2018-07-22T10:11:24.000Z</time>
      </trkpt>
      <trkpt lat="42.303275" lon="-0.486106">
        <ele>1382.2</ele>
        <time>2018-07-22T10:11:25.000Z</time>
      </trkpt>
      <trkpt lat="42.303275" lon="-0.486106">
        <ele>1382.2</ele>
        <time>2018-07-22T10:11:26.000Z</time>
      </trkpt>
      <trkpt lat="42.303275" lon="-0.486106">
        <ele>1382.2</ele>
        <time>2018-07-22T10:11:27.000Z</time>
      </trkpt>
      <trkpt lat="42.303275" lon="-0.486106">
        <ele>1382.2</ele>
        <time>2018-07-22T10:11:28.000Z</time>
      </trkpt>
      <trkpt lat="42.303275" lon="-0.486106">
        <ele>1382.2</ele>
        <time>2018-07-22T10:11:29.000Z</time>
      </trkpt>
      <trkpt lat="42.303275" lon="-0.486106">
        <ele>1382.2</ele>
        <time>2018-07-22T10:11:30.000Z</time>
      </trkpt>
      <trkpt lat="42.303275" lon="-0.486106">
        <ele>1382.2</ele>
        <time>2018-07-22T10:11:31.000Z</time>
      </trkpt>
      <trkpt lat="42.303275" lon="-0.486106">
        <ele>1382.2</ele>
        <time>2018-07-22T10:11:32.000Z</time>
      </trkpt>
      <trkpt lat="42.303275" lon="-0.486106">
        <ele>1382.2</ele>
        <time>2018-07-22T10:11:33.000Z</time>
      </trkpt>
      <trkpt lat="42.303275" lon="-0.486106">
        <ele>1382.2</ele>
        <time>2018-07-22T10:11:34.000Z</time>
      </trkpt>
      <trkpt lat="42.303275" lon="-0.486106">
        <ele>1382.2</ele>
        <time>2018-07-22T10:11:35.000Z</time>
      </trkpt>
      <trkpt lat="42.303276" lon="-0.486106">
        <ele>1382.2</ele>
        <time>2018-07-22T10:11:36.000Z</time>
      </trkpt>
      <trkpt lat="42.303276" lon="-0.486106">
        <ele>1382.2</ele>
        <time>2018-07-22T10:11:37.000Z</time>
      </trkpt>
      <trkpt lat="42.303277" lon="-0.486102">
        <ele>1382.4</ele>
        <time>2018-07-22T10:11:38.000Z</time>
      </trkpt>
      <trkpt lat="42.303278" lon="-0.486096">
        <ele>1382.5</ele>
        <time>2018-07-22T10:11:39.000Z</time>
      </trkpt>
      <trkpt lat="42.303279" lon="-0.486089">
        <ele>1382.7</ele>
        <time>2018-07-22T10:11:40.000Z</time>
      </trkpt>
      <trkpt lat="42.303279" lon="-0.486084">
        <ele>1382.8</ele>
        <time>2018-07-22T10:11:41.000Z</time>
      </trkpt>
      <trkpt lat="42.303279" lon="-0.486081">
        <ele>1382.9</ele>
        <time>2018-07-22T10:11:42.000Z</time>
      </trkpt>
      <trkpt lat="42.303279" lon="-0.486081">
        <ele>1382.9</ele>
        <time>2018-07-22T10:11:43.000Z</time>
      </trkpt>
      <trkpt lat="42.303278" lon="-0.486081">
        <ele>1382.9</ele>
        <time>2018-07-22T10:11:44.000Z</time>
      </trkpt>
      <trkpt lat="42.303278" lon="-0.486081">
        <ele>1382.9</ele>
        <time>2018-07-22T10:11:45.000Z</time>
      </trkpt>
      <trkpt lat="42.303278" lon="-0.48608">
        <ele>1382.9</ele>
        <time>2018-07-22T10:11:46.000Z</time>
      </trkpt>
      <trkpt lat="42.303278" lon="-0.48608">
        <ele>1382.9</ele>
        <time>2018-07-22T10:11:47.000Z</time>
      </trkpt>
      <trkpt lat="42.303278" lon="-0.486079">
        <ele>1382.9</ele>
        <time>2018-07-22T10:11:48.000Z</time>
      </trkpt>
      <trkpt lat="42.303278" lon="-0.486079">
        <ele>1382.9</ele>
        <time>2018-07-22T10:11:49.000Z</time>
      </trkpt>
      <trkpt lat="42.303278" lon="-0.486078">
        <ele>1383.0</ele>
        <time>2018-07-22T10:11:50.000Z</time>
      </trkpt>
      <trkpt lat="42.303278" lon="-0.486078">
        <ele>1383.0</ele>
        <time>2018-07-22T10:11:51.000Z</time>
      </trkpt>
      <trkpt lat="42.303278" lon="-0.486078">
        <ele>1383.0</ele>
        <time>2018-07-22T10:11:52.000Z</time>
      </trkpt>
      <trkpt lat="42.303277" lon="-0.486078">
        <ele>1383.0</ele>
        <time>2018-07-22T10:11:53.000Z</time>
      </trkpt>
      <trkpt lat="42.303277" lon="-0.486077">
        <ele>1383.0</ele>
        <time>2018-07-22T10:11:54.000Z</time>
      </trkpt>
      <trkpt lat="42.303277" lon="-0.486077">
        <ele>1383.0</ele>
        <time>2018-07-22T10:11:55.000Z</time>
      </trkpt>
      <trkpt lat="42.303277" lon="-0.486077">
        <ele>1383.0</ele>
        <time>2018-07-22T10:11:56.000Z</time>
      </trkpt>
      <trkpt lat="42.303277" lon="-0.486077">
        <ele>1383.0</ele>
        <time>2018-07-22T10:11:57.000Z</time>
      </trkpt>
      <trkpt lat="42.303277" lon="-0.486077">
        <ele>1383.0</ele>
        <time>2018-07-22T10:11:58.000Z</time>
      </trkpt>
      <trkpt lat="42.303277" lon="-0.486077">
        <ele>1383.0</ele>
        <time>2018-07-22T10:11:59.000Z</time>
      </trkpt>
      <trkpt lat="42.303277" lon="-0.486077">
        <ele>1383.0</ele>
        <time>2018-07-22T10:12:00.000Z</time>
      </trkpt>
      <trkpt lat="42.303277" lon="-0.486077">
        <ele>1383.0</ele>
        <time>2018-07-22T10:12:01.000Z</time>
      </trkpt>
      <trkpt lat="42.303277" lon="-0.486077">
        <ele>1383.0</ele>
        <time>2018-07-22T10:12:02.000Z</time>
      </trkpt>
      <trkpt lat="42.303277" lon="-0.486077">
        <ele>1383.0</ele>
        <time>2018-07-22T10:12:03.000Z</time>
      </trkpt>
      <trkpt lat="42.303277" lon="-0.486077">
        <ele>1383.0</ele>
        <time>2018-07-22T10:12:04.000Z</time>
      </trkpt>
      <trkpt lat="42.303277" lon="-0.486077">
        <ele>1383.0</ele>
        <time>2018-07-22T10:12:05.000Z</time>
      </trkpt>
      <trkpt lat="42.303277" lon="-0.486077">
        <ele>1383.0</ele>
        <time>2018-07-22T10:12:06.000Z</time>
      </trkpt>
      <trkpt lat="42.303277" lon="-0.486077">
        <ele>1383.0</ele>
        <time>2018-07-22T10:12:07.000Z</time>
      </trkpt>
      <trkpt lat="42.303277" lon="-0.486078">
        <ele>1383.0</ele>
        <time>2018-07-22T10:12:08.000Z</time>
      </trkpt>
      <trkpt lat="42.303277" lon="-0.486078">
        <ele>1383.0</ele>
        <time>2018-07-22T10:12:09.000Z</time>
      </trkpt>
      <trkpt lat="42.303277" lon="-0.486078">
        <ele>1383.0</ele>
        <time>2018-07-22T10:12:10.000Z</time>
      </trkpt>
      <trkpt lat="42.303277" lon="-0.486078">
        <ele>1383.0</ele>
        <time>2018-07-22T10:12:11.000Z</time>
      </trkpt>
      <trkpt lat="42.303277" lon="-0.486078">
        <ele>1383.0</ele>
        <time>2018-07-22T10:12:12.000Z</time>
      </trkpt>
      <trkpt lat="42.303277" lon="-0.486078">
        <ele>1383.0</ele>
        <time>2018-07-22T10:12:13.000Z</time>
      </trkpt>
      <trkpt lat="42.303277" lon="-0.486078">
        <ele>1383.0</ele>
        <time>2018-07-22T10:12:14.000Z</time>
      </trkpt>
      <trkpt lat="42.303277" lon="-0.486078">
        <ele>1383.0</ele>
        <time>2018-07-22T10:12:15.000Z</time>
      </trkpt>
      <trkpt lat="42.303277" lon="-0.486078">
        <ele>1383.0</ele>
        <time>2018-07-22T10:12:16.000Z</time>
      </trkpt>
      <trkpt lat="42.303277" lon="-0.486078">
        <ele>1383.0</ele>
        <time>2018-07-22T10:12:17.000Z</time>
      </trkpt>
      <trkpt lat="42.303277" lon="-0.486078">
        <ele>1383.0</ele>
        <time>2018-07-22T10:12:18.000Z</time>
      </trkpt>
      <trkpt lat="42.303277" lon="-0.486077">
        <ele>1383.0</ele>
        <time>2018-07-22T10:12:19.000Z</time>
      </trkpt>
      <trkpt lat="42.303277" lon="-0.486077">
        <ele>1383.0</ele>
        <time>2018-07-22T10:12:20.000Z</time>
      </trkpt>
      <trkpt lat="42.303277" lon="-0.486077">
        <ele>1383.0</ele>
        <time>2018-07-22T10:12:21.000Z</time>
      </trkpt>
      <trkpt lat="42.303277" lon="-0.486077">
        <ele>1383.0</ele>
        <time>2018-07-22T10:12:22.000Z</time>
      </trkpt>
      <trkpt lat="42.303277" lon="-0.486077">
        <ele>1383.0</ele>
        <time>2018-07-22T10:12:23.000Z</time>
      </trkpt>
      <trkpt lat="42.303277" lon="-0.486077">
        <ele>1383.0</ele>
        <time>2018-07-22T10:12:24.000Z</time>
      </trkpt>
      <trkpt lat="42.303277" lon="-0.486077">
        <ele>1383.0</ele>
        <time>2018-07-22T10:12:25.000Z</time>
      </trkpt>
      <trkpt lat="42.303277" lon="-0.486077">
        <ele>1383.0</ele>
        <time>2018-07-22T10:12:26.000Z</time>
      </trkpt>
      <trkpt lat="42.303277" lon="-0.486077">
        <ele>1383.0</ele>
        <time>2018-07-22T10:12:27.000Z</time>
      </trkpt>
      <trkpt lat="42.303277" lon="-0.486077">
        <ele>1383.0</ele>
        <time>2018-07-22T10:12:28.000Z</time>
      </trkpt>
      <trkpt lat="42.303277" lon="-0.486077">
        <ele>1383.0</ele>
        <time>2018-07-22T10:12:29.000Z</time>
      </trkpt>
      <trkpt lat="42.303277" lon="-0.486077">
        <ele>1383.0</ele>
        <time>2018-07-22T10:12:30.000Z</time>
      </trkpt>
      <trkpt lat="42.303277" lon="-0.486077">
        <ele>1383.0</ele>
        <time>2018-07-22T10:12:31.000Z</time>
      </trkpt>
      <trkpt lat="42.303277" lon="-0.486077">
        <ele>1383.0</ele>
        <time>2018-07-22T10:12:32.000Z</time>
      </trkpt>
      <trkpt lat="42.303277" lon="-0.486077">
        <ele>1383.0</ele>
        <time>2018-07-22T10:12:33.000Z</time>
      </trkpt>
      <trkpt lat="42.303277" lon="-0.486077">
        <ele>1383.0</ele>
        <time>2018-07-22T10:12:34.000Z</time>
      </trkpt>
      <trkpt lat="42.303277" lon="-0.486077">
        <ele>1383.0</ele>
        <time>2018-07-22T10:12:35.000Z</time>
      </trkpt>
      <trkpt lat="42.303277" lon="-0.486077">
        <ele>1383.0</ele>
        <time>2018-07-22T10:12:36.000Z</time>
      </trkpt>
      <trkpt lat="42.303277" lon="-0.486077">
        <ele>1383.0</ele>
        <time>2018-07-22T10:12:37.000Z</time>
      </trkpt>
      <trkpt lat="42.303277" lon="-0.486077">
        <ele>1383.0</ele>
        <time>2018-07-22T10:12:38.000Z</time>
      </trkpt>
      <trkpt lat="42.303277" lon="-0.486077">
        <ele>1383.0</ele>
        <time>2018-07-22T10:12:39.000Z</time>
      </trkpt>
      <trkpt lat="42.303277" lon="-0.486077">
        <ele>1383.0</ele>
        <time>2018-07-22T10:12:40.000Z</time>
      </trkpt>
      <trkpt lat="42.303277" lon="-0.486077">
        <ele>1383.0</ele>
        <time>2018-07-22T10:12:41.000Z</time>
      </trkpt>
      <trkpt lat="42.303277" lon="-0.486077">
        <ele>1383.0</ele>
        <time>2018-07-22T10:12:42.000Z</time>
      </trkpt>
      <trkpt lat="42.303277" lon="-0.486077">
        <ele>1383.0</ele>
        <time>2018-07-22T10:12:43.000Z</time>
      </trkpt>
      <trkpt lat="42.303277" lon="-0.486077">
        <ele>1383.0</ele>
        <time>2018-07-22T10:12:44.000Z</time>
      </trkpt>
      <trkpt lat="42.303277" lon="-0.486077">
        <ele>1383.0</ele>
        <time>2018-07-22T10:12:45.000Z</time>
      </trkpt>
      <trkpt lat="42.303277" lon="-0.486077">
        <ele>1383.0</ele>
        <time>2018-07-22T10:12:46.000Z</time>
      </trkpt>
      <trkpt lat="42.303277" lon="-0.486077">
        <ele>1383.0</ele>
        <time>2018-07-22T10:12:47.000Z</time>
      </trkpt>
      <trkpt lat="42.303277" lon="-0.486077">
        <ele>1383.0</ele>
        <time>2018-07-22T10:12:48.000Z</time>
      </trkpt>
      <trkpt lat="42.303277" lon="-0.486077">
        <ele>1383.0</ele>
        <time>2018-07-22T10:12:49.000Z</time>
      </trkpt>
      <trkpt lat="42.303277" lon="-0.486077">
        <ele>1383.0</ele>
        <time>2018-07-22T10:12:50.000Z</time>
      </trkpt>
      <trkpt lat="42.303277" lon="-0.486077">
        <ele>1383.0</ele>
        <time>2018-07-22T10:12:51.000Z</time>
      </trkpt>
      <trkpt lat="42.303277" lon="-0.486077">
        <ele>1383.0</ele>
        <time>2018-07-22T10:12:52.000Z</time>
      </trkpt>
      <trkpt lat="42.303277" lon="-0.486077">
        <ele>1383.0</ele>
        <time>2018-07-22T10:12:53.000Z</time>
      </trkpt>
      <trkpt lat="42.303277" lon="-0.486077">
        <ele>1383.0</ele>
        <time>2018-07-22T10:12:54.000Z</time>
      </trkpt>
      <trkpt lat="42.303277" lon="-0.486077">
        <ele>1383.0</ele>
        <time>2018-07-22T10:12:55.000Z</time>
      </trkpt>
      <trkpt lat="42.303277" lon="-0.486077">
        <ele>1383.0</ele>
        <time>2018-07-22T10:12:56.000Z</time>
      </trkpt>
      <trkpt lat="42.303277" lon="-0.486077">
        <ele>1383.0</ele>
        <time>2018-07-22T10:12:57.000Z</time>
      </trkpt>
      <trkpt lat="42.303277" lon="-0.486077">
        <ele>1383.0</ele>
        <time>2018-07-22T10:12:58.000Z</time>
      </trkpt>
      <trkpt lat="42.303277" lon="-0.486077">
        <ele>1383.0</ele>
        <time>2018-07-22T10:12:59.000Z</time>
      </trkpt>
      <trkpt lat="42.303277" lon="-0.486077">
        <ele>1383.0</ele>
        <time>2018-07-22T10:13:00.000Z</time>
      </trkpt>
      <trkpt lat="42.303277" lon="-0.486077">
        <ele>1383.0</ele>
        <time>2018-07-22T10:13:01.000Z</time>
      </trkpt>
      <trkpt lat="42.303277" lon="-0.486077">
        <ele>1383.0</ele>
        <time>2018-07-22T10:13:02.000Z</time>
      </trkpt>
      <trkpt lat="42.303277" lon="-0.486077">
        <ele>1383.0</ele>
        <time>2018-07-22T10:13:03.000Z</time>
      </trkpt>
      <trkpt lat="42.303277" lon="-0.486077">
        <ele>1383.0</ele>
        <time>2018-07-22T10:13:04.000Z</time>
      </trkpt>
      <trkpt lat="42.303277" lon="-0.486077">
        <ele>1383.0</ele>
        <time>2018-07-22T10:13:05.000Z</time>
      </trkpt>
      <trkpt lat="42.303277" lon="-0.486077">
        <ele>1383.0</ele>
        <time>2018-07-22T10:13:06.000Z</time>
      </trkpt>
      <trkpt lat="42.303277" lon="-0.486077">
        <ele>1383.0</ele>
        <time>2018-07-22T10:13:07.000Z</time>
      </trkpt>
      <trkpt lat="42.303277" lon="-0.486077">
        <ele>1383.0</ele>
        <time>2018-07-22T10:13:08.000Z</time>
      </trkpt>
      <trkpt lat="42.303277" lon="-0.486077">
        <ele>1383.0</ele>
        <time>2018-07-22T10:13:09.000Z</time>
      </trkpt>
      <trkpt lat="42.303277" lon="-0.486077">
        <ele>1383.0</ele>
        <time>2018-07-22T10:13:10.000Z</time>
      </trkpt>
      <trkpt lat="42.303277" lon="-0.486077">
        <ele>1383.0</ele>
        <time>2018-07-22T10:13:11.000Z</time>
      </trkpt>
      <trkpt lat="42.303277" lon="-0.486077">
        <ele>1383.0</ele>
        <time>2018-07-22T10:13:12.000Z</time>
      </trkpt>
      <trkpt lat="42.303277" lon="-0.486077">
        <ele>1383.0</ele>
        <time>2018-07-22T10:13:13.000Z</time>
      </trkpt>
      <trkpt lat="42.303277" lon="-0.486077">
        <ele>1383.0</ele>
        <time>2018-07-22T10:13:14.000Z</time>
      </trkpt>
      <trkpt lat="42.303277" lon="-0.486077">
        <ele>1383.0</ele>
        <time>2018-07-22T10:13:15.000Z</time>
      </trkpt>
      <trkpt lat="42.303277" lon="-0.486077">
        <ele>1383.0</ele>
        <time>2018-07-22T10:13:16.000Z</time>
      </trkpt>
      <trkpt lat="42.303277" lon="-0.486077">
        <ele>1383.0</ele>
        <time>2018-07-22T10:13:17.000Z</time>
      </trkpt>
      <trkpt lat="42.303277" lon="-0.486077">
        <ele>1383.0</ele>
        <time>2018-07-22T10:13:18.000Z</time>
      </trkpt>
      <trkpt lat="42.303278" lon="-0.486077">
        <ele>1383.0</ele>
        <time>2018-07-22T10:13:19.000Z</time>
      </trkpt>
      <trkpt lat="42.303278" lon="-0.486077">
        <ele>1383.0</ele>
        <time>2018-07-22T10:13:20.000Z</time>
      </trkpt>
      <trkpt lat="42.303278" lon="-0.486077">
        <ele>1383.0</ele>
        <time>2018-07-22T10:13:21.000Z</time>
      </trkpt>
      <trkpt lat="42.303278" lon="-0.486078">
        <ele>1383.0</ele>
        <time>2018-07-22T10:13:22.000Z</time>
      </trkpt>
      <trkpt lat="42.303278" lon="-0.486078">
        <ele>1383.0</ele>
        <time>2018-07-22T10:13:23.000Z</time>
      </trkpt>
      <trkpt lat="42.303279" lon="-0.486078">
        <ele>1383.0</ele>
        <time>2018-07-22T10:13:24.000Z</time>
      </trkpt>
      <trkpt lat="42.303279" lon="-0.486078">
        <ele>1383.0</ele>
        <time>2018-07-22T10:13:25.000Z</time>
      </trkpt>
      <trkpt lat="42.30328" lon="-0.486078">
        <ele>1383.0</ele>
        <time>2018-07-22T10:13:26.000Z</time>
      </trkpt>
      <trkpt lat="42.30328" lon="-0.486079">
        <ele>1383.0</ele>
        <time>2018-07-22T10:13:27.000Z</time>
      </trkpt>
      <trkpt lat="42.30328" lon="-0.48608">
        <ele>1383.0</ele>
        <time>2018-07-22T10:13:28.000Z</time>
      </trkpt>
      <trkpt lat="42.303281" lon="-0.486079">
        <ele>1383.0</ele>
        <time>2018-07-22T10:13:29.000Z</time>
      </trkpt>
      <trkpt lat="42.30329" lon="-0.486081">
        <ele>1383.1</ele>
        <time>2018-07-22T10:13:30.000Z</time>
      </trkpt>
      <trkpt lat="42.303298" lon="-0.486082">
        <ele>1383.2</ele>
        <time>2018-07-22T10:13:31.000Z</time>
      </trkpt>
      <trkpt lat="42.303305" lon="-0.486088">
        <ele>1383.1</ele>
        <time>2018-07-22T10:13:32.000Z</time>
      </trkpt>
      <trkpt lat="42.303313" lon="-0.486092">
        <ele>1383.2</ele>
        <time>2018-07-22T10:13:33.000Z</time>
      </trkpt>
      <trkpt lat="42.303322" lon="-0.486094">
        <ele>1383.3</ele>
        <time>2018-07-22T10:13:34.000Z</time>
      </trkpt>
      <trkpt lat="42.303331" lon="-0.486096">
        <ele>1383.3</ele>
        <time>2018-07-22T10:13:35.000Z</time>
      </trkpt>
      <trkpt lat="42.30334" lon="-0.486099">
        <ele>1383.5</ele>
        <time>2018-07-22T10:13:36.000Z</time>
      </trkpt>
      <trkpt lat="42.303349" lon="-0.486102">
        <ele>1383.7</ele>
        <time>2018-07-22T10:13:37.000Z</time>
      </trkpt>
      <trkpt lat="42.303357" lon="-0.486104">
        <ele>1383.8</ele>
        <time>2018-07-22T10:13:38.000Z</time>
      </trkpt>
      <trkpt lat="42.303365" lon="-0.486105">
        <ele>1384.0</ele>
        <time>2018-07-22T10:13:39.000Z</time>
      </trkpt>
      <trkpt lat="42.303371" lon="-0.486104">
        <ele>1384.2</ele>
        <time>2018-07-22T10:13:40.000Z</time>
      </trkpt>
      <trkpt lat="42.303375" lon="-0.486102">
        <ele>1384.3</ele>
        <time>2018-07-22T10:13:41.000Z</time>
      </trkpt>
      <trkpt lat="42.303378" lon="-0.4861">
        <ele>1384.5</ele>
        <time>2018-07-22T10:13:42.000Z</time>
      </trkpt>
      <trkpt lat="42.303382" lon="-0.486099">
        <ele>1384.6</ele>
        <time>2018-07-22T10:13:43.000Z</time>
      </trkpt>
      <trkpt lat="42.303388" lon="-0.486096">
        <ele>1384.9</ele>
        <time>2018-07-22T10:13:44.000Z</time>
      </trkpt>
      <trkpt lat="42.303398" lon="-0.486096">
        <ele>1385.1</ele>
        <time>2018-07-22T10:13:45.000Z</time>
      </trkpt>
      <trkpt lat="42.303407" lon="-0.486096">
        <ele>1385.4</ele>
        <time>2018-07-22T10:13:46.000Z</time>
      </trkpt>
      <trkpt lat="42.303417" lon="-0.486095">
        <ele>1385.7</ele>
        <time>2018-07-22T10:13:47.000Z</time>
      </trkpt>
      <trkpt lat="42.303426" lon="-0.486095">
        <ele>1385.9</ele>
        <time>2018-07-22T10:13:48.000Z</time>
      </trkpt>
      <trkpt lat="42.303436" lon="-0.486094">
        <ele>1386.2</ele>
        <time>2018-07-22T10:13:49.000Z</time>
      </trkpt>
      <trkpt lat="42.303445" lon="-0.486093">
        <ele>1386.5</ele>
        <time>2018-07-22T10:13:50.000Z</time>
      </trkpt>
      <trkpt lat="42.303455" lon="-0.486092">
        <ele>1386.8</ele>
        <time>2018-07-22T10:13:51.000Z</time>
      </trkpt>
      <trkpt lat="42.303464" lon="-0.48609">
        <ele>1387.1</ele>
        <time>2018-07-22T10:13:52.000Z</time>
      </trkpt>
      <trkpt lat="42.303473" lon="-0.486089">
        <ele>1387.3</ele>
        <time>2018-07-22T10:13:53.000Z</time>
      </trkpt>
      <trkpt lat="42.303482" lon="-0.486088">
        <ele>1387.6</ele>
        <time>2018-07-22T10:13:54.000Z</time>
      </trkpt>
      <trkpt lat="42.30349" lon="-0.486087">
        <ele>1387.8</ele>
        <time>2018-07-22T10:13:55.000Z</time>
      </trkpt>
      <trkpt lat="42.303499" lon="-0.486086">
        <ele>1388.1</ele>
        <time>2018-07-22T10:13:56.000Z</time>
      </trkpt>
      <trkpt lat="42.303507" lon="-0.486085">
        <ele>1388.3</ele>
        <time>2018-07-22T10:13:57.000Z</time>
      </trkpt>
      <trkpt lat="42.303515" lon="-0.486084">
        <ele>1388.6</ele>
        <time>2018-07-22T10:13:58.000Z</time>
      </trkpt>
      <trkpt lat="42.303523" lon="-0.486084">
        <ele>1388.8</ele>
        <time>2018-07-22T10:13:59.000Z</time>
      </trkpt>
      <trkpt lat="42.303531" lon="-0.486083">
        <ele>1389.0</ele>
        <time>2018-07-22T10:14:00.000Z</time>
      </trkpt>
      <trkpt lat="42.303538" lon="-0.486083">
        <ele>1389.2</ele>
        <time>2018-07-22T10:14:01.000Z</time>
      </trkpt>
      <trkpt lat="42.303546" lon="-0.486082">
        <ele>1389.5</ele>
        <time>2018-07-22T10:14:02.000Z</time>
      </trkpt>
      <trkpt lat="42.303554" lon="-0.486082">
        <ele>1389.7</ele>
        <time>2018-07-22T10:14:03.000Z</time>
      </trkpt>
      <trkpt lat="42.303562" lon="-0.486081">
        <ele>1389.9</ele>
        <time>2018-07-22T10:14:04.000Z</time>
      </trkpt>
      <trkpt lat="42.30357" lon="-0.486081">
        <ele>1390.2</ele>
        <time>2018-07-22T10:14:05.000Z</time>
      </trkpt>
      <trkpt lat="42.303578" lon="-0.486081">
        <ele>1390.4</ele>
        <time>2018-07-22T10:14:06.000Z</time>
      </trkpt>
      <trkpt lat="42.303585" lon="-0.486082">
        <ele>1390.5</ele>
        <time>2018-07-22T10:14:07.000Z</time>
      </trkpt>
      <trkpt lat="42.303593" lon="-0.486084">
        <ele>1390.7</ele>
        <time>2018-07-22T10:14:08.000Z</time>
      </trkpt>
      <trkpt lat="42.3036" lon="-0.486086">
        <ele>1390.8</ele>
        <time>2018-07-22T10:14:09.000Z</time>
      </trkpt>
      <trkpt lat="42.303607" lon="-0.486089">
        <ele>1390.9</ele>
        <time>2018-07-22T10:14:10.000Z</time>
      </trkpt>
      <trkpt lat="42.303614" lon="-0.486093">
        <ele>1391.0</ele>
        <time>2018-07-22T10:14:11.000Z</time>
      </trkpt>
      <trkpt lat="42.303621" lon="-0.486097">
        <ele>1391.1</ele>
        <time>2018-07-22T10:14:12.000Z</time>
      </trkpt>
      <trkpt lat="42.303628" lon="-0.486101">
        <ele>1391.2</ele>
        <time>2018-07-22T10:14:13.000Z</time>
      </trkpt>
      <trkpt lat="42.303635" lon="-0.486106">
        <ele>1391.2</ele>
        <time>2018-07-22T10:14:14.000Z</time>
      </trkpt>
      <trkpt lat="42.303642" lon="-0.486111">
        <ele>1391.3</ele>
        <time>2018-07-22T10:14:15.000Z</time>
      </trkpt>
      <trkpt lat="42.30365" lon="-0.486116">
        <ele>1391.4</ele>
        <time>2018-07-22T10:14:16.000Z</time>
      </trkpt>
      <trkpt lat="42.303657" lon="-0.48612">
        <ele>1391.4</ele>
        <time>2018-07-22T10:14:17.000Z</time>
      </trkpt>
      <trkpt lat="42.303665" lon="-0.486125">
        <ele>1391.5</ele>
        <time>2018-07-22T10:14:18.000Z</time>
      </trkpt>
      <trkpt lat="42.303674" lon="-0.48613">
        <ele>1391.6</ele>
        <time>2018-07-22T10:14:19.000Z</time>
      </trkpt>
      <trkpt lat="42.303682" lon="-0.486134">
        <ele>1391.7</ele>
        <time>2018-07-22T10:14:20.000Z</time>
      </trkpt>
      <trkpt lat="42.303691" lon="-0.486139">
        <ele>1391.8</ele>
        <time>2018-07-22T10:14:21.000Z</time>
      </trkpt>
      <trkpt lat="42.303699" lon="-0.486144">
        <ele>1391.9</ele>
        <time>2018-07-22T10:14:22.000Z</time>
      </trkpt>
      <trkpt lat="42.303708" lon="-0.48615">
        <ele>1392.0</ele>
        <time>2018-07-22T10:14:23.000Z</time>
      </trkpt>
      <trkpt lat="42.303717" lon="-0.486155">
        <ele>1392.1</ele>
        <time>2018-07-22T10:14:24.000Z</time>
      </trkpt>
      <trkpt lat="42.303725" lon="-0.486162">
        <ele>1392.1</ele>
        <time>2018-07-22T10:14:25.000Z</time>
      </trkpt>
      <trkpt lat="42.303734" lon="-0.486169">
        <ele>1392.1</ele>
        <time>2018-07-22T10:14:26.000Z</time>
      </trkpt>
      <trkpt lat="42.303742" lon="-0.486176">
        <ele>1392.1</ele>
        <time>2018-07-22T10:14:27.000Z</time>
      </trkpt>
      <trkpt lat="42.303751" lon="-0.486184">
        <ele>1392.1</ele>
        <time>2018-07-22T10:14:28.000Z</time>
      </trkpt>
      <trkpt lat="42.303759" lon="-0.486193">
        <ele>1392.1</ele>
        <time>2018-07-22T10:14:29.000Z</time>
      </trkpt>
      <trkpt lat="42.303767" lon="-0.486203">
        <ele>1392.0</ele>
        <time>2018-07-22T10:14:30.000Z</time>
      </trkpt>
      <trkpt lat="42.303775" lon="-0.486213">
        <ele>1391.9</ele>
        <time>2018-07-22T10:14:31.000Z</time>
      </trkpt>
      <trkpt lat="42.303783" lon="-0.486224">
        <ele>1391.8</ele>
        <time>2018-07-22T10:14:32.000Z</time>
      </trkpt>
      <trkpt lat="42.303791" lon="-0.486235">
        <ele>1391.7</ele>
        <time>2018-07-22T10:14:33.000Z</time>
      </trkpt>
      <trkpt lat="42.303799" lon="-0.486246">
        <ele>1391.6</ele>
        <time>2018-07-22T10:14:34.000Z</time>
      </trkpt>
      <trkpt lat="42.303808" lon="-0.486257">
        <ele>1391.5</ele>
        <time>2018-07-22T10:14:35.000Z</time>
      </trkpt>
      <trkpt lat="42.303816" lon="-0.486268">
        <ele>1391.4</ele>
        <time>2018-07-22T10:14:36.000Z</time>
      </trkpt>
      <trkpt lat="42.303825" lon="-0.48628">
        <ele>1391.3</ele>
        <time>2018-07-22T10:14:37.000Z</time>
      </trkpt>
      <trkpt lat="42.303834" lon="-0.48629">
        <ele>1391.3</ele>
        <time>2018-07-22T10:14:38.000Z</time>
      </trkpt>
      <trkpt lat="42.303843" lon="-0.486301">
        <ele>1391.2</ele>
        <time>2018-07-22T10:14:39.000Z</time>
      </trkpt>
      <trkpt lat="42.303852" lon="-0.486311">
        <ele>1391.1</ele>
        <time>2018-07-22T10:14:40.000Z</time>
      </trkpt>
      <trkpt lat="42.303862" lon="-0.48632">
        <ele>1391.1</ele>
        <time>2018-07-22T10:14:41.000Z</time>
      </trkpt>
      <trkpt lat="42.303872" lon="-0.486329">
        <ele>1391.1</ele>
        <time>2018-07-22T10:14:42.000Z</time>
      </trkpt>
      <trkpt lat="42.303882" lon="-0.486337">
        <ele>1391.1</ele>
        <time>2018-07-22T10:14:43.000Z</time>
      </trkpt>
      <trkpt lat="42.303892" lon="-0.486343">
        <ele>1391.2</ele>
        <time>2018-07-22T10:14:44.000Z</time>
      </trkpt>
      <trkpt lat="42.303902" lon="-0.486348">
        <ele>1391.3</ele>
        <time>2018-07-22T10:14:45.000Z</time>
      </trkpt>
      <trkpt lat="42.303913" lon="-0.486352">
        <ele>1391.5</ele>
        <time>2018-07-22T10:14:46.000Z</time>
      </trkpt>
      <trkpt lat="42.303923" lon="-0.486355">
        <ele>1391.6</ele>
        <time>2018-07-22T10:14:47.000Z</time>
      </trkpt>
      <trkpt lat="42.303933" lon="-0.486357">
        <ele>1391.8</ele>
        <time>2018-07-22T10:14:48.000Z</time>
      </trkpt>
      <trkpt lat="42.303944" lon="-0.486359">
        <ele>1392.0</ele>
        <time>2018-07-22T10:14:49.000Z</time>
      </trkpt>
      <trkpt lat="42.303955" lon="-0.48636">
        <ele>1392.3</ele>
        <time>2018-07-22T10:14:50.000Z</time>
      </trkpt>
      <trkpt lat="42.303966" lon="-0.486361">
        <ele>1392.5</ele>
        <time>2018-07-22T10:14:51.000Z</time>
      </trkpt>
      <trkpt lat="42.303977" lon="-0.486364">
        <ele>1392.7</ele>
        <time>2018-07-22T10:14:52.000Z</time>
      </trkpt>
      <trkpt lat="42.303989" lon="-0.486366">
        <ele>1392.9</ele>
        <time>2018-07-22T10:14:53.000Z</time>
      </trkpt>
      <trkpt lat="42.304" lon="-0.486371">
        <ele>1393.1</ele>
        <time>2018-07-22T10:14:54.000Z</time>
      </trkpt>
      <trkpt lat="42.304011" lon="-0.486376">
        <ele>1393.2</ele>
        <time>2018-07-22T10:14:55.000Z</time>
      </trkpt>
      <trkpt lat="42.304021" lon="-0.486384">
        <ele>1393.2</ele>
        <time>2018-07-22T10:14:56.000Z</time>
      </trkpt>
      <trkpt lat="42.304031" lon="-0.486393">
        <ele>1393.2</ele>
        <time>2018-07-22T10:14:57.000Z</time>
      </trkpt>
      <trkpt lat="42.304041" lon="-0.486403">
        <ele>1393.1</ele>
        <time>2018-07-22T10:14:58.000Z</time>
      </trkpt>
      <trkpt lat="42.304051" lon="-0.486412">
        <ele>1393.1</ele>
        <time>2018-07-22T10:14:59.000Z</time>
      </trkpt>
      <trkpt lat="42.304062" lon="-0.486422">
        <ele>1393.1</ele>
        <time>2018-07-22T10:15:00.000Z</time>
      </trkpt>
      <trkpt lat="42.304073" lon="-0.48643">
        <ele>1393.1</ele>
        <time>2018-07-22T10:15:01.000Z</time>
      </trkpt>
      <trkpt lat="42.304085" lon="-0.486438">
        <ele>1393.1</ele>
        <time>2018-07-22T10:15:02.000Z</time>
      </trkpt>
      <trkpt lat="42.304096" lon="-0.486445">
        <ele>1393.2</ele>
        <time>2018-07-22T10:15:03.000Z</time>
      </trkpt>
      <trkpt lat="42.304108" lon="-0.486452">
        <ele>1393.3</ele>
        <time>2018-07-22T10:15:04.000Z</time>
      </trkpt>
      <trkpt lat="42.30412" lon="-0.48646">
        <ele>1393.3</ele>
        <time>2018-07-22T10:15:05.000Z</time>
      </trkpt>
      <trkpt lat="42.304131" lon="-0.486468">
        <ele>1393.3</ele>
        <time>2018-07-22T10:15:06.000Z</time>
      </trkpt>
      <trkpt lat="42.304141" lon="-0.486478">
        <ele>1393.3</ele>
        <time>2018-07-22T10:15:07.000Z</time>
      </trkpt>
      <trkpt lat="42.304151" lon="-0.486489">
        <ele>1393.2</ele>
        <time>2018-07-22T10:15:08.000Z</time>
      </trkpt>
      <trkpt lat="42.304161" lon="-0.4865">
        <ele>1393.1</ele>
        <time>2018-07-22T10:15:09.000Z</time>
      </trkpt>
      <trkpt lat="42.30417" lon="-0.486511">
        <ele>1392.9</ele>
        <time>2018-07-22T10:15:10.000Z</time>
      </trkpt>
      <trkpt lat="42.304179" lon="-0.486522">
        <ele>1392.8</ele>
        <time>2018-07-22T10:15:11.000Z</time>
      </trkpt>
      <trkpt lat="42.304189" lon="-0.486533">
        <ele>1392.7</ele>
        <time>2018-07-22T10:15:12.000Z</time>
      </trkpt>
      <trkpt lat="42.304199" lon="-0.486543">
        <ele>1392.6</ele>
        <time>2018-07-22T10:15:13.000Z</time>
      </trkpt>
      <trkpt lat="42.30421" lon="-0.486552">
        <ele>1392.5</ele>
        <time>2018-07-22T10:15:14.000Z</time>
      </trkpt>
      <trkpt lat="42.30422" lon="-0.486561">
        <ele>1392.5</ele>
        <time>2018-07-22T10:15:15.000Z</time>
      </trkpt>
      <trkpt lat="42.304231" lon="-0.48657">
        <ele>1392.4</ele>
        <time>2018-07-22T10:15:16.000Z</time>
      </trkpt>
      <trkpt lat="42.304242" lon="-0.486579">
        <ele>1392.4</ele>
        <time>2018-07-22T10:15:17.000Z</time>
      </trkpt>
      <trkpt lat="42.304253" lon="-0.486588">
        <ele>1392.3</ele>
        <time>2018-07-22T10:15:18.000Z</time>
      </trkpt>
      <trkpt lat="42.304264" lon="-0.486597">
        <ele>1392.3</ele>
        <time>2018-07-22T10:15:19.000Z</time>
      </trkpt>
      <trkpt lat="42.304275" lon="-0.486605">
        <ele>1392.3</ele>
        <time>2018-07-22T10:15:20.000Z</time>
      </trkpt>
      <trkpt lat="42.304286" lon="-0.486615">
        <ele>1392.2</ele>
        <time>2018-07-22T10:15:21.000Z</time>
      </trkpt>
      <trkpt lat="42.304297" lon="-0.486624">
        <ele>1392.2</ele>
        <time>2018-07-22T10:15:22.000Z</time>
      </trkpt>
      <trkpt lat="42.304307" lon="-0.486634">
        <ele>1392.1</ele>
        <time>2018-07-22T10:15:23.000Z</time>
      </trkpt>
      <trkpt lat="42.304317" lon="-0.486644">
        <ele>1392.0</ele>
        <time>2018-07-22T10:15:24.000Z</time>
      </trkpt>
      <trkpt lat="42.304328" lon="-0.486655">
        <ele>1391.9</ele>
        <time>2018-07-22T10:15:25.000Z</time>
      </trkpt>
      <trkpt lat="42.304338" lon="-0.486666">
        <ele>1391.7</ele>
        <time>2018-07-22T10:15:26.000Z</time>
      </trkpt>
      <trkpt lat="42.304348" lon="-0.486676">
        <ele>1391.8</ele>
        <time>2018-07-22T10:15:27.000Z</time>
      </trkpt>
      <trkpt lat="42.304358" lon="-0.486686">
        <ele>1391.8</ele>
        <time>2018-07-22T10:15:28.000Z</time>
      </trkpt>
      <trkpt lat="42.304368" lon="-0.486697">
        <ele>1391.8</ele>
        <time>2018-07-22T10:15:29.000Z</time>
      </trkpt>
      <trkpt lat="42.304379" lon="-0.486706">
        <ele>1391.9</ele>
        <time>2018-07-22T10:15:30.000Z</time>
      </trkpt>
      <trkpt lat="42.304389" lon="-0.486715">
        <ele>1391.9</ele>
        <time>2018-07-22T10:15:31.000Z</time>
      </trkpt>
      <trkpt lat="42.3044" lon="-0.486724">
        <ele>1392.0</ele>
        <time>2018-07-22T10:15:32.000Z</time>
      </trkpt>
      <trkpt lat="42.304412" lon="-0.486732">
        <ele>1392.1</ele>
        <time>2018-07-22T10:15:33.000Z</time>
      </trkpt>
      <trkpt lat="42.304423" lon="-0.486738">
        <ele>1392.2</ele>
        <time>2018-07-22T10:15:34.000Z</time>
      </trkpt>
      <trkpt lat="42.304435" lon="-0.486745">
        <ele>1392.4</ele>
        <time>2018-07-22T10:15:35.000Z</time>
      </trkpt>
      <trkpt lat="42.304446" lon="-0.486751">
        <ele>1392.5</ele>
        <time>2018-07-22T10:15:36.000Z</time>
      </trkpt>
      <trkpt lat="42.304458" lon="-0.486757">
        <ele>1392.6</ele>
        <time>2018-07-22T10:15:37.000Z</time>
      </trkpt>
      <trkpt lat="42.30447" lon="-0.486763">
        <ele>1392.8</ele>
        <time>2018-07-22T10:15:38.000Z</time>
      </trkpt>
      <trkpt lat="42.304481" lon="-0.486769">
        <ele>1392.9</ele>
        <time>2018-07-22T10:15:39.000Z</time>
      </trkpt>
      <trkpt lat="42.304492" lon="-0.486777">
        <ele>1392.9</ele>
        <time>2018-07-22T10:15:40.000Z</time>
      </trkpt>
      <trkpt lat="42.304502" lon="-0.486785">
        <ele>1393.0</ele>
        <time>2018-07-22T10:15:41.000Z</time>
      </trkpt>
      <trkpt lat="42.304512" lon="-0.486792">
        <ele>1393.1</ele>
        <time>2018-07-22T10:15:42.000Z</time>
      </trkpt>
      <trkpt lat="42.304523" lon="-0.486799">
        <ele>1393.2</ele>
        <time>2018-07-22T10:15:43.000Z</time>
      </trkpt>
      <trkpt lat="42.304533" lon="-0.486806">
        <ele>1393.2</ele>
        <time>2018-07-22T10:15:44.000Z</time>
      </trkpt>
      <trkpt lat="42.304543" lon="-0.48681">
        <ele>1393.3</ele>
        <time>2018-07-22T10:15:45.000Z</time>
      </trkpt>
      <trkpt lat="42.304554" lon="-0.486814">
        <ele>1393.5</ele>
        <time>2018-07-22T10:15:46.000Z</time>
      </trkpt>
      <trkpt lat="42.304564" lon="-0.486817">
        <ele>1393.6</ele>
        <time>2018-07-22T10:15:47.000Z</time>
      </trkpt>
      <trkpt lat="42.304575" lon="-0.48682">
        <ele>1393.8</ele>
        <time>2018-07-22T10:15:48.000Z</time>
      </trkpt>
      <trkpt lat="42.304585" lon="-0.486823">
        <ele>1393.9</ele>
        <time>2018-07-22T10:15:49.000Z</time>
      </trkpt>
      <trkpt lat="42.304595" lon="-0.486826">
        <ele>1394.1</ele>
        <time>2018-07-22T10:15:50.000Z</time>
      </trkpt>
      <trkpt lat="42.304604" lon="-0.486831">
        <ele>1394.2</ele>
        <time>2018-07-22T10:15:51.000Z</time>
      </trkpt>
      <trkpt lat="42.304614" lon="-0.486836">
        <ele>1394.3</ele>
        <time>2018-07-22T10:15:52.000Z</time>
      </trkpt>
      <trkpt lat="42.304623" lon="-0.486842">
        <ele>1394.3</ele>
        <time>2018-07-22T10:15:53.000Z</time>
      </trkpt>
      <trkpt lat="42.304632" lon="-0.486848">
        <ele>1394.4</ele>
        <time>2018-07-22T10:15:54.000Z</time>
      </trkpt>
      <trkpt lat="42.304641" lon="-0.486855">
        <ele>1394.4</ele>
        <time>2018-07-22T10:15:55.000Z</time>
      </trkpt>
      <trkpt lat="42.304651" lon="-0.486863">
        <ele>1394.4</ele>
        <time>2018-07-22T10:15:56.000Z</time>
      </trkpt>
      <trkpt lat="42.30466" lon="-0.486871">
        <ele>1394.5</ele>
        <time>2018-07-22T10:15:57.000Z</time>
      </trkpt>
      <trkpt lat="42.30467" lon="-0.486879">
        <ele>1394.5</ele>
        <time>2018-07-22T10:15:58.000Z</time>
      </trkpt>
      <trkpt lat="42.30468" lon="-0.486888">
        <ele>1394.5</ele>
        <time>2018-07-22T10:15:59.000Z</time>
      </trkpt>
      <trkpt lat="42.30469" lon="-0.486897">
        <ele>1394.5</ele>
        <time>2018-07-22T10:16:00.000Z</time>
      </trkpt>
      <trkpt lat="42.3047" lon="-0.486906">
        <ele>1394.5</ele>
        <time>2018-07-22T10:16:01.000Z</time>
      </trkpt>
      <trkpt lat="42.30471" lon="-0.486915">
        <ele>1394.5</ele>
        <time>2018-07-22T10:16:02.000Z</time>
      </trkpt>
      <trkpt lat="42.304721" lon="-0.486924">
        <ele>1394.5</ele>
        <time>2018-07-22T10:16:03.000Z</time>
      </trkpt>
      <trkpt lat="42.304731" lon="-0.486933">
        <ele>1394.5</ele>
        <time>2018-07-22T10:16:04.000Z</time>
      </trkpt>
      <trkpt lat="42.304741" lon="-0.486942">
        <ele>1394.5</ele>
        <time>2018-07-22T10:16:05.000Z</time>
      </trkpt>
      <trkpt lat="42.304751" lon="-0.486951">
        <ele>1394.5</ele>
        <time>2018-07-22T10:16:06.000Z</time>
      </trkpt>
      <trkpt lat="42.304761" lon="-0.486959">
        <ele>1394.5</ele>
        <time>2018-07-22T10:16:07.000Z</time>
      </trkpt>
      <trkpt lat="42.30477" lon="-0.486967">
        <ele>1394.5</ele>
        <time>2018-07-22T10:16:08.000Z</time>
      </trkpt>
      <trkpt lat="42.30478" lon="-0.486975">
        <ele>1394.5</ele>
        <time>2018-07-22T10:16:09.000Z</time>
      </trkpt>
      <trkpt lat="42.30479" lon="-0.486981">
        <ele>1394.6</ele>
        <time>2018-07-22T10:16:10.000Z</time>
      </trkpt>
      <trkpt lat="42.3048" lon="-0.486986">
        <ele>1394.7</ele>
        <time>2018-07-22T10:16:11.000Z</time>
      </trkpt>
      <trkpt lat="42.30481" lon="-0.486991">
        <ele>1394.7</ele>
        <time>2018-07-22T10:16:12.000Z</time>
      </trkpt>
      <trkpt lat="42.304819" lon="-0.486993">
        <ele>1394.9</ele>
        <time>2018-07-22T10:16:13.000Z</time>
      </trkpt>
      <trkpt lat="42.304829" lon="-0.486995">
        <ele>1395.0</ele>
        <time>2018-07-22T10:16:14.000Z</time>
      </trkpt>
      <trkpt lat="42.30484" lon="-0.486996">
        <ele>1395.2</ele>
        <time>2018-07-22T10:16:15.000Z</time>
      </trkpt>
      <trkpt lat="42.30485" lon="-0.486996">
        <ele>1395.4</ele>
        <time>2018-07-22T10:16:16.000Z</time>
      </trkpt>
      <trkpt lat="42.304859" lon="-0.486995">
        <ele>1395.5</ele>
        <time>2018-07-22T10:16:17.000Z</time>
      </trkpt>
      <trkpt lat="42.304869" lon="-0.486994">
        <ele>1395.7</ele>
        <time>2018-07-22T10:16:18.000Z</time>
      </trkpt>
      <trkpt lat="42.304879" lon="-0.486992">
        <ele>1396.0</ele>
        <time>2018-07-22T10:16:19.000Z</time>
      </trkpt>
      <trkpt lat="42.304888" lon="-0.486991">
        <ele>1396.2</ele>
        <time>2018-07-22T10:16:20.000Z</time>
      </trkpt>
      <trkpt lat="42.304898" lon="-0.486989">
        <ele>1396.4</ele>
        <time>2018-07-22T10:16:21.000Z</time>
      </trkpt>
      <trkpt lat="42.304907" lon="-0.486987">
        <ele>1396.6</ele>
        <time>2018-07-22T10:16:22.000Z</time>
      </trkpt>
      <trkpt lat="42.304916" lon="-0.486985">
        <ele>1396.8</ele>
        <time>2018-07-22T10:16:23.000Z</time>
      </trkpt>
      <trkpt lat="42.304926" lon="-0.486983">
        <ele>1397.0</ele>
        <time>2018-07-22T10:16:24.000Z</time>
      </trkpt>
      <trkpt lat="42.304935" lon="-0.486981">
        <ele>1397.3</ele>
        <time>2018-07-22T10:16:25.000Z</time>
      </trkpt>
      <trkpt lat="42.304944" lon="-0.486978">
        <ele>1397.5</ele>
        <time>2018-07-22T10:16:26.000Z</time>
      </trkpt>
      <trkpt lat="42.304953" lon="-0.486976">
        <ele>1397.7</ele>
        <time>2018-07-22T10:16:27.000Z</time>
      </trkpt>
      <trkpt lat="42.304962" lon="-0.486974">
        <ele>1397.9</ele>
        <time>2018-07-22T10:16:28.000Z</time>
      </trkpt>
      <trkpt lat="42.304971" lon="-0.486972">
        <ele>1398.1</ele>
        <time>2018-07-22T10:16:29.000Z</time>
      </trkpt>
      <trkpt lat="42.30498" lon="-0.48697">
        <ele>1398.3</ele>
        <time>2018-07-22T10:16:30.000Z</time>
      </trkpt>
      <trkpt lat="42.304988" lon="-0.486968">
        <ele>1398.5</ele>
        <time>2018-07-22T10:16:31.000Z</time>
      </trkpt>
      <trkpt lat="42.304997" lon="-0.486965">
        <ele>1398.8</ele>
        <time>2018-07-22T10:16:32.000Z</time>
      </trkpt>
      <trkpt lat="42.305006" lon="-0.486963">
        <ele>1399.0</ele>
        <time>2018-07-22T10:16:33.000Z</time>
      </trkpt>
      <trkpt lat="42.305014" lon="-0.48696">
        <ele>1399.2</ele>
        <time>2018-07-22T10:16:34.000Z</time>
      </trkpt>
      <trkpt lat="42.305023" lon="-0.486958">
        <ele>1399.5</ele>
        <time>2018-07-22T10:16:35.000Z</time>
      </trkpt>
      <trkpt lat="42.305032" lon="-0.486955">
        <ele>1399.7</ele>
        <time>2018-07-22T10:16:36.000Z</time>
      </trkpt>
      <trkpt lat="42.30504" lon="-0.486953">
        <ele>1399.9</ele>
        <time>2018-07-22T10:16:37.000Z</time>
      </trkpt>
      <trkpt lat="42.305049" lon="-0.48695">
        <ele>1400.2</ele>
        <time>2018-07-22T10:16:38.000Z</time>
      </trkpt>
      <trkpt lat="42.305057" lon="-0.486947">
        <ele>1400.4</ele>
        <time>2018-07-22T10:16:39.000Z</time>
      </trkpt>
      <trkpt lat="42.305066" lon="-0.486945">
        <ele>1400.7</ele>
        <time>2018-07-22T10:16:40.000Z</time>
      </trkpt>
      <trkpt lat="42.305075" lon="-0.486942">
        <ele>1400.9</ele>
        <time>2018-07-22T10:16:41.000Z</time>
      </trkpt>
      <trkpt lat="42.305083" lon="-0.486939">
        <ele>1401.2</ele>
        <time>2018-07-22T10:16:42.000Z</time>
      </trkpt>
      <trkpt lat="42.305092" lon="-0.486936">
        <ele>1401.4</ele>
        <time>2018-07-22T10:16:43.000Z</time>
      </trkpt>
      <trkpt lat="42.3051" lon="-0.486933">
        <ele>1401.6</ele>
        <time>2018-07-22T10:16:44.000Z</time>
      </trkpt>
      <trkpt lat="42.305109" lon="-0.48693">
        <ele>1401.9</ele>
        <time>2018-07-22T10:16:45.000Z</time>
      </trkpt>
      <trkpt lat="42.305118" lon="-0.486927">
        <ele>1402.2</ele>
        <time>2018-07-22T10:16:46.000Z</time>
      </trkpt>
      <trkpt lat="42.305126" lon="-0.486924">
        <ele>1402.4</ele>
        <time>2018-07-22T10:16:47.000Z</time>
      </trkpt>
      <trkpt lat="42.305135" lon="-0.48692">
        <ele>1402.7</ele>
        <time>2018-07-22T10:16:48.000Z</time>
      </trkpt>
      <trkpt lat="42.305143" lon="-0.486917">
        <ele>1402.9</ele>
        <time>2018-07-22T10:16:49.000Z</time>
      </trkpt>
      <trkpt lat="42.305152" lon="-0.486914">
        <ele>1403.2</ele>
        <time>2018-07-22T10:16:50.000Z</time>
      </trkpt>
      <trkpt lat="42.30516" lon="-0.48691">
        <ele>1403.4</ele>
        <time>2018-07-22T10:16:51.000Z</time>
      </trkpt>
      <trkpt lat="42.305169" lon="-0.486907">
        <ele>1403.7</ele>
        <time>2018-07-22T10:16:52.000Z</time>
      </trkpt>
      <trkpt lat="42.305177" lon="-0.486903">
        <ele>1403.9</ele>
        <time>2018-07-22T10:16:53.000Z</time>
      </trkpt>
      <trkpt lat="42.305185" lon="-0.4869">
        <ele>1404.2</ele>
        <time>2018-07-22T10:16:54.000Z</time>
      </trkpt>
      <trkpt lat="42.305194" lon="-0.486896">
        <ele>1404.5</ele>
        <time>2018-07-22T10:16:55.000Z</time>
      </trkpt>
      <trkpt lat="42.305202" lon="-0.486892">
        <ele>1404.7</ele>
        <time>2018-07-22T10:16:56.000Z</time>
      </trkpt>
      <trkpt lat="42.30521" lon="-0.486888">
        <ele>1405.0</ele>
        <time>2018-07-22T10:16:57.000Z</time>
      </trkpt>
      <trkpt lat="42.305219" lon="-0.486884">
        <ele>1405.3</ele>
        <time>2018-07-22T10:16:58.000Z</time>
      </trkpt>
      <trkpt lat="42.305227" lon="-0.486879">
        <ele>1405.5</ele>
        <time>2018-07-22T10:16:59.000Z</time>
      </trkpt>
      <trkpt lat="42.305235" lon="-0.486875">
        <ele>1405.8</ele>
        <time>2018-07-22T10:17:00.000Z</time>
      </trkpt>
      <trkpt lat="42.305244" lon="-0.48687">
        <ele>1406.1</ele>
        <time>2018-07-22T10:17:01.000Z</time>
      </trkpt>
      <trkpt lat="42.305252" lon="-0.486865">
        <ele>1406.4</ele>
        <time>2018-07-22T10:17:02.000Z</time>
      </trkpt>
      <trkpt lat="42.30526" lon="-0.48686">
        <ele>1406.7</ele>
        <time>2018-07-22T10:17:03.000Z</time>
      </trkpt>
      <trkpt lat="42.305269" lon="-0.486854">
        <ele>1407.0</ele>
        <time>2018-07-22T10:17:04.000Z</time>
      </trkpt>
      <trkpt lat="42.305277" lon="-0.486849">
        <ele>1407.3</ele>
        <time>2018-07-22T10:17:05.000Z</time>
      </trkpt>
      <trkpt lat="42.305285" lon="-0.486844">
        <ele>1407.6</ele>
        <time>2018-07-22T10:17:06.000Z</time>
      </trkpt>
      <trkpt lat="42.305294" lon="-0.486839">
        <ele>1407.9</ele>
        <time>2018-07-22T10:17:07.000Z</time>
      </trkpt>
      <trkpt lat="42.305302" lon="-0.486834">
        <ele>1408.1</ele>
        <time>2018-07-22T10:17:08.000Z</time>
      </trkpt>
      <trkpt lat="42.305311" lon="-0.486829">
        <ele>1408.4</ele>
        <time>2018-07-22T10:17:09.000Z</time>
      </trkpt>
      <trkpt lat="42.305319" lon="-0.486824">
        <ele>1408.7</ele>
        <time>2018-07-22T10:17:10.000Z</time>
      </trkpt>
      <trkpt lat="42.305328" lon="-0.48682">
        <ele>1409.0</ele>
        <time>2018-07-22T10:17:11.000Z</time>
      </trkpt>
      <trkpt lat="42.305337" lon="-0.486816">
        <ele>1409.3</ele>
        <time>2018-07-22T10:17:12.000Z</time>
      </trkpt>
      <trkpt lat="42.305346" lon="-0.486812">
        <ele>1409.6</ele>
        <time>2018-07-22T10:17:13.000Z</time>
      </trkpt>
      <trkpt lat="42.305355" lon="-0.48681">
        <ele>1409.8</ele>
        <time>2018-07-22T10:17:14.000Z</time>
      </trkpt>
      <trkpt lat="42.305364" lon="-0.486807">
        <ele>1410.1</ele>
        <time>2018-07-22T10:17:15.000Z</time>
      </trkpt>
      <trkpt lat="42.305373" lon="-0.486806">
        <ele>1410.3</ele>
        <time>2018-07-22T10:17:16.000Z</time>
      </trkpt>
      <trkpt lat="42.305382" lon="-0.486805">
        <ele>1410.5</ele>
        <time>2018-07-22T10:17:17.000Z</time>
      </trkpt>
      <trkpt lat="42.305392" lon="-0.486805">
        <ele>1410.7</ele>
        <time>2018-07-22T10:17:18.000Z</time>
      </trkpt>
      <trkpt lat="42.305401" lon="-0.486806">
        <ele>1410.8</ele>
        <time>2018-07-22T10:17:19.000Z</time>
      </trkpt>
      <trkpt lat="42.30541" lon="-0.486808">
        <ele>1411.0</ele>
        <time>2018-07-22T10:17:20.000Z</time>
      </trkpt>
      <trkpt lat="42.30542" lon="-0.486809">
        <ele>1411.2</ele>
        <time>2018-07-22T10:17:21.000Z</time>
      </trkpt>
      <trkpt lat="42.30543" lon="-0.486811">
        <ele>1411.3</ele>
        <time>2018-07-22T10:17:22.000Z</time>
      </trkpt>
      <trkpt lat="42.30544" lon="-0.486812">
        <ele>1411.5</ele>
        <time>2018-07-22T10:17:23.000Z</time>
      </trkpt>
      <trkpt lat="42.30545" lon="-0.486812">
        <ele>1411.7</ele>
        <time>2018-07-22T10:17:24.000Z</time>
      </trkpt>
      <trkpt lat="42.30546" lon="-0.486812">
        <ele>1411.9</ele>
        <time>2018-07-22T10:17:25.000Z</time>
      </trkpt>
      <trkpt lat="42.30547" lon="-0.486813">
        <ele>1412.1</ele>
        <time>2018-07-22T10:17:26.000Z</time>
      </trkpt>
      <trkpt lat="42.30548" lon="-0.486814">
        <ele>1412.3</ele>
        <time>2018-07-22T10:17:27.000Z</time>
      </trkpt>
      <trkpt lat="42.30549" lon="-0.486815">
        <ele>1412.4</ele>
        <time>2018-07-22T10:17:28.000Z</time>
      </trkpt>
      <trkpt lat="42.305499" lon="-0.486817">
        <ele>1412.6</ele>
        <time>2018-07-22T10:17:29.000Z</time>
      </trkpt>
      <trkpt lat="42.305508" lon="-0.48682">
        <ele>1412.7</ele>
        <time>2018-07-22T10:17:30.000Z</time>
      </trkpt>
      <trkpt lat="42.305517" lon="-0.486823">
        <ele>1412.8</ele>
        <time>2018-07-22T10:17:31.000Z</time>
      </trkpt>
      <trkpt lat="42.305525" lon="-0.486825">
        <ele>1412.9</ele>
        <time>2018-07-22T10:17:32.000Z</time>
      </trkpt>
      <trkpt lat="42.305533" lon="-0.486828">
        <ele>1413.0</ele>
        <time>2018-07-22T10:17:33.000Z</time>
      </trkpt>
      <trkpt lat="42.305542" lon="-0.48683">
        <ele>1413.1</ele>
        <time>2018-07-22T10:17:34.000Z</time>
      </trkpt>
      <trkpt lat="42.30555" lon="-0.486832">
        <ele>1413.3</ele>
        <time>2018-07-22T10:17:35.000Z</time>
      </trkpt>
      <trkpt lat="42.305559" lon="-0.486834">
        <ele>1413.4</ele>
        <time>2018-07-22T10:17:36.000Z</time>
      </trkpt>
      <trkpt lat="42.305567" lon="-0.486835">
        <ele>1413.5</ele>
        <time>2018-07-22T10:17:37.000Z</time>
      </trkpt>
      <trkpt lat="42.305575" lon="-0.486835">
        <ele>1413.7</ele>
        <time>2018-07-22T10:17:38.000Z</time>
      </trkpt>
      <trkpt lat="42.305584" lon="-0.486836">
        <ele>1413.8</ele>
        <time>2018-07-22T10:17:39.000Z</time>
      </trkpt>
      <trkpt lat="42.305593" lon="-0.486836">
        <ele>1414.0</ele>
        <time>2018-07-22T10:17:40.000Z</time>
      </trkpt>
      <trkpt lat="42.305602" lon="-0.486837">
        <ele>1414.2</ele>
        <time>2018-07-22T10:17:41.000Z</time>
      </trkpt>
      <trkpt lat="42.305611" lon="-0.486837">
        <ele>1414.4</ele>
        <time>2018-07-22T10:17:42.000Z</time>
      </trkpt>
      <trkpt lat="42.30562" lon="-0.486837">
        <ele>1414.6</ele>
        <time>2018-07-22T10:17:43.000Z</time>
      </trkpt>
      <trkpt lat="42.305629" lon="-0.486837">
        <ele>1414.7</ele>
        <time>2018-07-22T10:17:44.000Z</time>
      </trkpt>
      <trkpt lat="42.305638" lon="-0.486837">
        <ele>1414.9</ele>
        <time>2018-07-22T10:17:45.000Z</time>
      </trkpt>
      <trkpt lat="42.305648" lon="-0.486837">
        <ele>1415.1</ele>
        <time>2018-07-22T10:17:46.000Z</time>
      </trkpt>
      <trkpt lat="42.305657" lon="-0.486837">
        <ele>1415.3</ele>
        <time>2018-07-22T10:17:47.000Z</time>
      </trkpt>
      <trkpt lat="42.305667" lon="-0.486837">
        <ele>1415.5</ele>
        <time>2018-07-22T10:17:48.000Z</time>
      </trkpt>
      <trkpt lat="42.305676" lon="-0.486837">
        <ele>1415.7</ele>
        <time>2018-07-22T10:17:49.000Z</time>
      </trkpt>
      <trkpt lat="42.305686" lon="-0.486838">
        <ele>1415.9</ele>
        <time>2018-07-22T10:17:50.000Z</time>
      </trkpt>
      <trkpt lat="42.305695" lon="-0.486838">
        <ele>1416.1</ele>
        <time>2018-07-22T10:17:51.000Z</time>
      </trkpt>
      <trkpt lat="42.305704" lon="-0.486838">
        <ele>1416.2</ele>
        <time>2018-07-22T10:17:52.000Z</time>
      </trkpt>
      <trkpt lat="42.305714" lon="-0.486839">
        <ele>1416.4</ele>
        <time>2018-07-22T10:17:53.000Z</time>
      </trkpt>
      <trkpt lat="42.305723" lon="-0.486839">
        <ele>1416.6</ele>
        <time>2018-07-22T10:17:54.000Z</time>
      </trkpt>
      <trkpt lat="42.305732" lon="-0.48684">
        <ele>1416.8</ele>
        <time>2018-07-22T10:17:55.000Z</time>
      </trkpt>
      <trkpt lat="42.305742" lon="-0.48684">
        <ele>1417.0</ele>
        <time>2018-07-22T10:17:56.000Z</time>
      </trkpt>
      <trkpt lat="42.305751" lon="-0.486841">
        <ele>1417.1</ele>
        <time>2018-07-22T10:17:57.000Z</time>
      </trkpt>
      <trkpt lat="42.30576" lon="-0.486842">
        <ele>1417.3</ele>
        <time>2018-07-22T10:17:58.000Z</time>
      </trkpt>
      <trkpt lat="42.305769" lon="-0.486843">
        <ele>1417.5</ele>
        <time>2018-07-22T10:17:59.000Z</time>
      </trkpt>
      <trkpt lat="42.305778" lon="-0.486843">
        <ele>1417.6</ele>
        <time>2018-07-22T10:18:00.000Z</time>
      </trkpt>
      <trkpt lat="42.305786" lon="-0.486844">
        <ele>1417.8</ele>
        <time>2018-07-22T10:18:01.000Z</time>
      </trkpt>
      <trkpt lat="42.305795" lon="-0.486844">
        <ele>1418.0</ele>
        <time>2018-07-22T10:18:02.000Z</time>
      </trkpt>
      <trkpt lat="42.305804" lon="-0.486845">
        <ele>1418.1</ele>
        <time>2018-07-22T10:18:03.000Z</time>
      </trkpt>
      <trkpt lat="42.305813" lon="-0.486845">
        <ele>1418.3</ele>
        <time>2018-07-22T10:18:04.000Z</time>
      </trkpt>
      <trkpt lat="42.305821" lon="-0.486845">
        <ele>1418.5</ele>
        <time>2018-07-22T10:18:05.000Z</time>
      </trkpt>
      <trkpt lat="42.30583" lon="-0.486845">
        <ele>1418.7</ele>
        <time>2018-07-22T10:18:06.000Z</time>
      </trkpt>
      <trkpt lat="42.305838" lon="-0.486845">
        <ele>1418.8</ele>
        <time>2018-07-22T10:18:07.000Z</time>
      </trkpt>
      <trkpt lat="42.305847" lon="-0.486845">
        <ele>1419.0</ele>
        <time>2018-07-22T10:18:08.000Z</time>
      </trkpt>
      <trkpt lat="42.305855" lon="-0.486845">
        <ele>1419.2</ele>
        <time>2018-07-22T10:18:09.000Z</time>
      </trkpt>
      <trkpt lat="42.305863" lon="-0.486844">
        <ele>1419.4</ele>
        <time>2018-07-22T10:18:10.000Z</time>
      </trkpt>
      <trkpt lat="42.305872" lon="-0.486844">
        <ele>1419.5</ele>
        <time>2018-07-22T10:18:11.000Z</time>
      </trkpt>
      <trkpt lat="42.30588" lon="-0.486844">
        <ele>1419.7</ele>
        <time>2018-07-22T10:18:12.000Z</time>
      </trkpt>
      <trkpt lat="42.305888" lon="-0.486844">
        <ele>1419.9</ele>
        <time>2018-07-22T10:18:13.000Z</time>
      </trkpt>
      <trkpt lat="42.305896" lon="-0.486844">
        <ele>1420.0</ele>
        <time>2018-07-22T10:18:14.000Z</time>
      </trkpt>
      <trkpt lat="42.305905" lon="-0.486845">
        <ele>1420.2</ele>
        <time>2018-07-22T10:18:15.000Z</time>
      </trkpt>
      <trkpt lat="42.305913" lon="-0.486845">
        <ele>1420.4</ele>
        <time>2018-07-22T10:18:16.000Z</time>
      </trkpt>
      <trkpt lat="42.305921" lon="-0.486846">
        <ele>1420.5</ele>
        <time>2018-07-22T10:18:17.000Z</time>
      </trkpt>
      <trkpt lat="42.305929" lon="-0.486848">
        <ele>1420.6</ele>
        <time>2018-07-22T10:18:18.000Z</time>
      </trkpt>
      <trkpt lat="42.305938" lon="-0.486849">
        <ele>1420.8</ele>
        <time>2018-07-22T10:18:19.000Z</time>
      </trkpt>
      <trkpt lat="42.305946" lon="-0.486851">
        <ele>1420.9</ele>
        <time>2018-07-22T10:18:20.000Z</time>
      </trkpt>
      <trkpt lat="42.305954" lon="-0.486853">
        <ele>1421.0</ele>
        <time>2018-07-22T10:18:21.000Z</time>
      </trkpt>
      <trkpt lat="42.305963" lon="-0.486855">
        <ele>1421.2</ele>
        <time>2018-07-22T10:18:22.000Z</time>
      </trkpt>
      <trkpt lat="42.305971" lon="-0.486857">
        <ele>1421.3</ele>
        <time>2018-07-22T10:18:23.000Z</time>
      </trkpt>
      <trkpt lat="42.30598" lon="-0.486859">
        <ele>1421.4</ele>
        <time>2018-07-22T10:18:24.000Z</time>
      </trkpt>
      <trkpt lat="42.305989" lon="-0.486861">
        <ele>1421.6</ele>
        <time>2018-07-22T10:18:25.000Z</time>
      </trkpt>
      <trkpt lat="42.305998" lon="-0.486862">
        <ele>1421.8</ele>
        <time>2018-07-22T10:18:26.000Z</time>
      </trkpt>
      <trkpt lat="42.306007" lon="-0.486863">
        <ele>1421.9</ele>
        <time>2018-07-22T10:18:27.000Z</time>
      </trkpt>
      <trkpt lat="42.306016" lon="-0.486865">
        <ele>1422.1</ele>
        <time>2018-07-22T10:18:28.000Z</time>
      </trkpt>
      <trkpt lat="42.306025" lon="-0.486866">
        <ele>1422.2</ele>
        <time>2018-07-22T10:18:29.000Z</time>
      </trkpt>
      <trkpt lat="42.306034" lon="-0.486867">
        <ele>1422.4</ele>
        <time>2018-07-22T10:18:30.000Z</time>
      </trkpt>
      <trkpt lat="42.306044" lon="-0.486868">
        <ele>1422.6</ele>
        <time>2018-07-22T10:18:31.000Z</time>
      </trkpt>
      <trkpt lat="42.306053" lon="-0.486869">
        <ele>1422.7</ele>
        <time>2018-07-22T10:18:32.000Z</time>
      </trkpt>
      <trkpt lat="42.306061" lon="-0.486872">
        <ele>1422.8</ele>
        <time>2018-07-22T10:18:33.000Z</time>
      </trkpt>
      <trkpt lat="42.30607" lon="-0.486875">
        <ele>1423.0</ele>
        <time>2018-07-22T10:18:34.000Z</time>
      </trkpt>
      <trkpt lat="42.306078" lon="-0.486878">
        <ele>1423.1</ele>
        <time>2018-07-22T10:18:35.000Z</time>
      </trkpt>
      <trkpt lat="42.306086" lon="-0.486882">
        <ele>1423.2</ele>
        <time>2018-07-22T10:18:36.000Z</time>
      </trkpt>
      <trkpt lat="42.306094" lon="-0.486886">
        <ele>1423.2</ele>
        <time>2018-07-22T10:18:37.000Z</time>
      </trkpt>
      <trkpt lat="42.306103" lon="-0.48689">
        <ele>1423.3</ele>
        <time>2018-07-22T10:18:38.000Z</time>
      </trkpt>
      <trkpt lat="42.306111" lon="-0.486894">
        <ele>1423.4</ele>
        <time>2018-07-22T10:18:39.000Z</time>
      </trkpt>
      <trkpt lat="42.30612" lon="-0.486897">
        <ele>1423.5</ele>
        <time>2018-07-22T10:18:40.000Z</time>
      </trkpt>
      <trkpt lat="42.306128" lon="-0.4869">
        <ele>1423.7</ele>
        <time>2018-07-22T10:18:41.000Z</time>
      </trkpt>
      <trkpt lat="42.306137" lon="-0.486903">
        <ele>1423.8</ele>
        <time>2018-07-22T10:18:42.000Z</time>
      </trkpt>
      <trkpt lat="42.306146" lon="-0.486906">
        <ele>1423.9</ele>
        <time>2018-07-22T10:18:43.000Z</time>
      </trkpt>
      <trkpt lat="42.306155" lon="-0.486909">
        <ele>1424.0</ele>
        <time>2018-07-22T10:18:44.000Z</time>
      </trkpt>
      <trkpt lat="42.306164" lon="-0.486912">
        <ele>1424.2</ele>
        <time>2018-07-22T10:18:45.000Z</time>
      </trkpt>
      <trkpt lat="42.306173" lon="-0.486916">
        <ele>1424.3</ele>
        <time>2018-07-22T10:18:46.000Z</time>
      </trkpt>
      <trkpt lat="42.306181" lon="-0.486919">
        <ele>1424.4</ele>
        <time>2018-07-22T10:18:47.000Z</time>
      </trkpt>
      <trkpt lat="42.30619" lon="-0.486923">
        <ele>1424.5</ele>
        <time>2018-07-22T10:18:48.000Z</time>
      </trkpt>
      <trkpt lat="42.306198" lon="-0.486927">
        <ele>1424.6</ele>
        <time>2018-07-22T10:18:49.000Z</time>
      </trkpt>
      <trkpt lat="42.306207" lon="-0.48693">
        <ele>1424.7</ele>
        <time>2018-07-22T10:18:50.000Z</time>
      </trkpt>
      <trkpt lat="42.306215" lon="-0.486933">
        <ele>1424.8</ele>
        <time>2018-07-22T10:18:51.000Z</time>
      </trkpt>
      <trkpt lat="42.306224" lon="-0.486937">
        <ele>1424.9</ele>
        <time>2018-07-22T10:18:52.000Z</time>
      </trkpt>
      <trkpt lat="42.306232" lon="-0.48694">
        <ele>1425.0</ele>
        <time>2018-07-22T10:18:53.000Z</time>
      </trkpt>
      <trkpt lat="42.306241" lon="-0.486943">
        <ele>1425.2</ele>
        <time>2018-07-22T10:18:54.000Z</time>
      </trkpt>
      <trkpt lat="42.306249" lon="-0.486946">
        <ele>1425.3</ele>
        <time>2018-07-22T10:18:55.000Z</time>
      </trkpt>
      <trkpt lat="42.306258" lon="-0.486949">
        <ele>1425.4</ele>
        <time>2018-07-22T10:18:56.000Z</time>
      </trkpt>
      <trkpt lat="42.306267" lon="-0.486952">
        <ele>1425.5</ele>
        <time>2018-07-22T10:18:57.000Z</time>
      </trkpt>
      <trkpt lat="42.306276" lon="-0.486956">
        <ele>1425.7</ele>
        <time>2018-07-22T10:18:58.000Z</time>
      </trkpt>
      <trkpt lat="42.306284" lon="-0.486959">
        <ele>1425.8</ele>
        <time>2018-07-22T10:18:59.000Z</time>
      </trkpt>
      <trkpt lat="42.306293" lon="-0.486962">
        <ele>1425.9</ele>
        <time>2018-07-22T10:19:00.000Z</time>
      </trkpt>
      <trkpt lat="42.306303" lon="-0.486966">
        <ele>1426.0</ele>
        <time>2018-07-22T10:19:01.000Z</time>
      </trkpt>
      <trkpt lat="42.306312" lon="-0.486969">
        <ele>1426.2</ele>
        <time>2018-07-22T10:19:02.000Z</time>
      </trkpt>
      <trkpt lat="42.306321" lon="-0.486973">
        <ele>1426.3</ele>
        <time>2018-07-22T10:19:03.000Z</time>
      </trkpt>
      <trkpt lat="42.306331" lon="-0.486976">
        <ele>1426.5</ele>
        <time>2018-07-22T10:19:04.000Z</time>
      </trkpt>
      <trkpt lat="42.306341" lon="-0.48698">
        <ele>1426.6</ele>
        <time>2018-07-22T10:19:05.000Z</time>
      </trkpt>
      <trkpt lat="42.30635" lon="-0.486983">
        <ele>1426.7</ele>
        <time>2018-07-22T10:19:06.000Z</time>
      </trkpt>
      <trkpt lat="42.30636" lon="-0.486987">
        <ele>1426.9</ele>
        <time>2018-07-22T10:19:07.000Z</time>
      </trkpt>
      <trkpt lat="42.306369" lon="-0.48699">
        <ele>1427.0</ele>
        <time>2018-07-22T10:19:08.000Z</time>
      </trkpt>
      <trkpt lat="42.306379" lon="-0.486994">
        <ele>1427.2</ele>
        <time>2018-07-22T10:19:09.000Z</time>
      </trkpt>
      <trkpt lat="42.306389" lon="-0.486997">
        <ele>1427.3</ele>
        <time>2018-07-22T10:19:10.000Z</time>
      </trkpt>
      <trkpt lat="42.306398" lon="-0.487">
        <ele>1427.5</ele>
        <time>2018-07-22T10:19:11.000Z</time>
      </trkpt>
      <trkpt lat="42.306408" lon="-0.487002">
        <ele>1427.7</ele>
        <time>2018-07-22T10:19:12.000Z</time>
      </trkpt>
      <trkpt lat="42.306417" lon="-0.487005">
        <ele>1427.8</ele>
        <time>2018-07-22T10:19:13.000Z</time>
      </trkpt>
      <trkpt lat="42.306426" lon="-0.487007">
        <ele>1428.0</ele>
        <time>2018-07-22T10:19:14.000Z</time>
      </trkpt>
      <trkpt lat="42.306435" lon="-0.487009">
        <ele>1428.1</ele>
        <time>2018-07-22T10:19:15.000Z</time>
      </trkpt>
      <trkpt lat="42.306444" lon="-0.48701">
        <ele>1428.3</ele>
        <time>2018-07-22T10:19:16.000Z</time>
      </trkpt>
      <trkpt lat="42.306453" lon="-0.487011">
        <ele>1428.5</ele>
        <time>2018-07-22T10:19:17.000Z</time>
      </trkpt>
      <trkpt lat="42.306462" lon="-0.487012">
        <ele>1428.7</ele>
        <time>2018-07-22T10:19:18.000Z</time>
      </trkpt>
      <trkpt lat="42.30647" lon="-0.487012">
        <ele>1428.8</ele>
        <time>2018-07-22T10:19:19.000Z</time>
      </trkpt>
      <trkpt lat="42.306478" lon="-0.487011">
        <ele>1429.0</ele>
        <time>2018-07-22T10:19:20.000Z</time>
      </trkpt>
      <trkpt lat="42.306486" lon="-0.48701">
        <ele>1429.2</ele>
        <time>2018-07-22T10:19:21.000Z</time>
      </trkpt>
      <trkpt lat="42.306494" lon="-0.487008">
        <ele>1429.4</ele>
        <time>2018-07-22T10:19:22.000Z</time>
      </trkpt>
      <trkpt lat="42.306502" lon="-0.487006">
        <ele>1429.7</ele>
        <time>2018-07-22T10:19:23.000Z</time>
      </trkpt>
      <trkpt lat="42.306509" lon="-0.487004">
        <ele>1429.8</ele>
        <time>2018-07-22T10:19:24.000Z</time>
      </trkpt>
      <trkpt lat="42.306516" lon="-0.487001">
        <ele>1430.1</ele>
        <time>2018-07-22T10:19:25.000Z</time>
      </trkpt>
      <trkpt lat="42.306523" lon="-0.486999">
        <ele>1430.2</ele>
        <time>2018-07-22T10:19:26.000Z</time>
      </trkpt>
      <trkpt lat="42.306529" lon="-0.486997">
        <ele>1430.4</ele>
        <time>2018-07-22T10:19:27.000Z</time>
      </trkpt>
      <trkpt lat="42.306536" lon="-0.486995">
        <ele>1430.6</ele>
        <time>2018-07-22T10:19:28.000Z</time>
      </trkpt>
      <trkpt lat="42.306542" lon="-0.486994">
        <ele>1430.8</ele>
        <time>2018-07-22T10:19:29.000Z</time>
      </trkpt>
      <trkpt lat="42.306548" lon="-0.486993">
        <ele>1430.9</ele>
        <time>2018-07-22T10:19:30.000Z</time>
      </trkpt>
      <trkpt lat="42.306554" lon="-0.486992">
        <ele>1431.1</ele>
        <time>2018-07-22T10:19:31.000Z</time>
      </trkpt>
      <trkpt lat="42.30656" lon="-0.486992">
        <ele>1431.2</ele>
        <time>2018-07-22T10:19:32.000Z</time>
      </trkpt>
      <trkpt lat="42.306567" lon="-0.486991">
        <ele>1431.4</ele>
        <time>2018-07-22T10:19:33.000Z</time>
      </trkpt>
      <trkpt lat="42.306574" lon="-0.486991">
        <ele>1431.5</ele>
        <time>2018-07-22T10:19:34.000Z</time>
      </trkpt>
      <trkpt lat="42.306581" lon="-0.48699">
        <ele>1431.7</ele>
        <time>2018-07-22T10:19:35.000Z</time>
      </trkpt>
      <trkpt lat="42.306588" lon="-0.486989">
        <ele>1431.9</ele>
        <time>2018-07-22T10:19:36.000Z</time>
      </trkpt>
      <trkpt lat="42.306595" lon="-0.486988">
        <ele>1432.0</ele>
        <time>2018-07-22T10:19:37.000Z</time>
      </trkpt>
      <trkpt lat="42.306602" lon="-0.486987">
        <ele>1432.2</ele>
        <time>2018-07-22T10:19:38.000Z</time>
      </trkpt>
      <trkpt lat="42.306608" lon="-0.486985">
        <ele>1432.4</ele>
        <time>2018-07-22T10:19:39.000Z</time>
      </trkpt>
      <trkpt lat="42.306615" lon="-0.486983">
        <ele>1432.6</ele>
        <time>2018-07-22T10:19:40.000Z</time>
      </trkpt>
      <trkpt lat="42.306621" lon="-0.48698">
        <ele>1432.7</ele>
        <time>2018-07-22T10:19:41.000Z</time>
      </trkpt>
      <trkpt lat="42.306627" lon="-0.486978">
        <ele>1432.9</ele>
        <time>2018-07-22T10:19:42.000Z</time>
      </trkpt>
      <trkpt lat="42.306634" lon="-0.486976">
        <ele>1433.1</ele>
        <time>2018-07-22T10:19:43.000Z</time>
      </trkpt>
      <trkpt lat="42.30664" lon="-0.486975">
        <ele>1433.2</ele>
        <time>2018-07-22T10:19:44.000Z</time>
      </trkpt>
      <trkpt lat="42.306647" lon="-0.486974">
        <ele>1433.4</ele>
        <time>2018-07-22T10:19:45.000Z</time>
      </trkpt>
      <trkpt lat="42.306654" lon="-0.486973">
        <ele>1433.6</ele>
        <time>2018-07-22T10:19:46.000Z</time>
      </trkpt>
      <trkpt lat="42.306662" lon="-0.486973">
        <ele>1433.8</ele>
        <time>2018-07-22T10:19:47.000Z</time>
      </trkpt>
      <trkpt lat="42.30667" lon="-0.486973">
        <ele>1433.9</ele>
        <time>2018-07-22T10:19:48.000Z</time>
      </trkpt>
      <trkpt lat="42.306678" lon="-0.486973">
        <ele>1434.1</ele>
        <time>2018-07-22T10:19:49.000Z</time>
      </trkpt>
      <trkpt lat="42.306686" lon="-0.486973">
        <ele>1434.2</ele>
        <time>2018-07-22T10:19:50.000Z</time>
      </trkpt>
      <trkpt lat="42.306695" lon="-0.486973">
        <ele>1434.4</ele>
        <time>2018-07-22T10:19:51.000Z</time>
      </trkpt>
      <trkpt lat="42.306703" lon="-0.486974">
        <ele>1434.5</ele>
        <time>2018-07-22T10:19:52.000Z</time>
      </trkpt>
      <trkpt lat="42.306712" lon="-0.486974">
        <ele>1434.7</ele>
        <time>2018-07-22T10:19:53.000Z</time>
      </trkpt>
      <trkpt lat="42.306722" lon="-0.486974">
        <ele>1434.9</ele>
        <time>2018-07-22T10:19:54.000Z</time>
      </trkpt>
      <trkpt lat="42.306731" lon="-0.486974">
        <ele>1435.0</ele>
        <time>2018-07-22T10:19:55.000Z</time>
      </trkpt>
      <trkpt lat="42.306741" lon="-0.486975">
        <ele>1435.2</ele>
        <time>2018-07-22T10:19:56.000Z</time>
      </trkpt>
      <trkpt lat="42.30675" lon="-0.486975">
        <ele>1435.4</ele>
        <time>2018-07-22T10:19:57.000Z</time>
      </trkpt>
      <trkpt lat="42.30676" lon="-0.486975">
        <ele>1435.6</ele>
        <time>2018-07-22T10:19:58.000Z</time>
      </trkpt>
      <trkpt lat="42.30677" lon="-0.486975">
        <ele>1435.8</ele>
        <time>2018-07-22T10:19:59.000Z</time>
      </trkpt>
      <trkpt lat="42.306781" lon="-0.486975">
        <ele>1436.0</ele>
        <time>2018-07-22T10:20:00.000Z</time>
      </trkpt>
      <trkpt lat="42.306791" lon="-0.486975">
        <ele>1436.1</ele>
        <time>2018-07-22T10:20:01.000Z</time>
      </trkpt>
      <trkpt lat="42.306801" lon="-0.486975">
        <ele>1436.3</ele>
        <time>2018-07-22T10:20:02.000Z</time>
      </trkpt>
      <trkpt lat="42.306811" lon="-0.486975">
        <ele>1436.5</ele>
        <time>2018-07-22T10:20:03.000Z</time>
      </trkpt>
      <trkpt lat="42.306822" lon="-0.486976">
        <ele>1436.7</ele>
        <time>2018-07-22T10:20:04.000Z</time>
      </trkpt>
      <trkpt lat="42.306832" lon="-0.486976">
        <ele>1436.9</ele>
        <time>2018-07-22T10:20:05.000Z</time>
      </trkpt>
      <trkpt lat="42.306842" lon="-0.486977">
        <ele>1437.1</ele>
        <time>2018-07-22T10:20:06.000Z</time>
      </trkpt>
      <trkpt lat="42.306852" lon="-0.486978">
        <ele>1437.2</ele>
        <time>2018-07-22T10:20:07.000Z</time>
      </trkpt>
      <trkpt lat="42.306862" lon="-0.486979">
        <ele>1437.4</ele>
        <time>2018-07-22T10:20:08.000Z</time>
      </trkpt>
      <trkpt lat="42.306872" lon="-0.48698">
        <ele>1437.6</ele>
        <time>2018-07-22T10:20:09.000Z</time>
      </trkpt>
      <trkpt lat="42.306882" lon="-0.486981">
        <ele>1437.8</ele>
        <time>2018-07-22T10:20:10.000Z</time>
      </trkpt>
      <trkpt lat="42.306892" lon="-0.486983">
        <ele>1437.9</ele>
        <time>2018-07-22T10:20:11.000Z</time>
      </trkpt>
      <trkpt lat="42.306902" lon="-0.486984">
        <ele>1438.1</ele>
        <time>2018-07-22T10:20:12.000Z</time>
      </trkpt>
      <trkpt lat="42.306912" lon="-0.486986">
        <ele>1438.3</ele>
        <time>2018-07-22T10:20:13.000Z</time>
      </trkpt>
      <trkpt lat="42.306922" lon="-0.486987">
        <ele>1438.4</ele>
        <time>2018-07-22T10:20:14.000Z</time>
      </trkpt>
      <trkpt lat="42.306932" lon="-0.486989">
        <ele>1438.6</ele>
        <time>2018-07-22T10:20:15.000Z</time>
      </trkpt>
      <trkpt lat="42.306941" lon="-0.486991">
        <ele>1438.7</ele>
        <time>2018-07-22T10:20:16.000Z</time>
      </trkpt>
      <trkpt lat="42.306951" lon="-0.486992">
        <ele>1438.9</ele>
        <time>2018-07-22T10:20:17.000Z</time>
      </trkpt>
      <trkpt lat="42.30696" lon="-0.486994">
        <ele>1439.0</ele>
        <time>2018-07-22T10:20:18.000Z</time>
      </trkpt>
      <trkpt lat="42.30697" lon="-0.486996">
        <ele>1439.2</ele>
        <time>2018-07-22T10:20:19.000Z</time>
      </trkpt>
      <trkpt lat="42.306979" lon="-0.486998">
        <ele>1439.3</ele>
        <time>2018-07-22T10:20:20.000Z</time>
      </trkpt>
      <trkpt lat="42.306989" lon="-0.487">
        <ele>1439.5</ele>
        <time>2018-07-22T10:20:21.000Z</time>
      </trkpt>
      <trkpt lat="42.306998" lon="-0.487001">
        <ele>1439.7</ele>
        <time>2018-07-22T10:20:22.000Z</time>
      </trkpt>
      <trkpt lat="42.307007" lon="-0.487003">
        <ele>1439.8</ele>
        <time>2018-07-22T10:20:23.000Z</time>
      </trkpt>
      <trkpt lat="42.307016" lon="-0.487005">
        <ele>1440.0</ele>
        <time>2018-07-22T10:20:24.000Z</time>
      </trkpt>
      <trkpt lat="42.307025" lon="-0.487007">
        <ele>1440.1</ele>
        <time>2018-07-22T10:20:25.000Z</time>
      </trkpt>
      <trkpt lat="42.307033" lon="-0.487008">
        <ele>1440.2</ele>
        <time>2018-07-22T10:20:26.000Z</time>
      </trkpt>
      <trkpt lat="42.307042" lon="-0.48701">
        <ele>1440.4</ele>
        <time>2018-07-22T10:20:27.000Z</time>
      </trkpt>
      <trkpt lat="42.307051" lon="-0.487012">
        <ele>1440.5</ele>
        <time>2018-07-22T10:20:28.000Z</time>
      </trkpt>
      <trkpt lat="42.307059" lon="-0.487013">
        <ele>1440.7</ele>
        <time>2018-07-22T10:20:29.000Z</time>
      </trkpt>
      <trkpt lat="42.307068" lon="-0.487015">
        <ele>1440.8</ele>
        <time>2018-07-22T10:20:30.000Z</time>
      </trkpt>
      <trkpt lat="42.307076" lon="-0.487016">
        <ele>1441.0</ele>
        <time>2018-07-22T10:20:31.000Z</time>
      </trkpt>
      <trkpt lat="42.307084" lon="-0.487017">
        <ele>1441.1</ele>
        <time>2018-07-22T10:20:32.000Z</time>
      </trkpt>
      <trkpt lat="42.307092" lon="-0.487018">
        <ele>1441.2</ele>
        <time>2018-07-22T10:20:33.000Z</time>
      </trkpt>
      <trkpt lat="42.3071" lon="-0.487019">
        <ele>1441.4</ele>
        <time>2018-07-22T10:20:34.000Z</time>
      </trkpt>
      <trkpt lat="42.307108" lon="-0.48702">
        <ele>1441.5</ele>
        <time>2018-07-22T10:20:35.000Z</time>
      </trkpt>
      <trkpt lat="42.307116" lon="-0.48702">
        <ele>1441.7</ele>
        <time>2018-07-22T10:20:36.000Z</time>
      </trkpt>
      <trkpt lat="42.307124" lon="-0.487021">
        <ele>1441.8</ele>
        <time>2018-07-22T10:20:37.000Z</time>
      </trkpt>
      <trkpt lat="42.307132" lon="-0.487021">
        <ele>1442.0</ele>
        <time>2018-07-22T10:20:38.000Z</time>
      </trkpt>
      <trkpt lat="42.30714" lon="-0.487021">
        <ele>1442.1</ele>
        <time>2018-07-22T10:20:39.000Z</time>
      </trkpt>
      <trkpt lat="42.307148" lon="-0.487021">
        <ele>1442.3</ele>
        <time>2018-07-22T10:20:40.000Z</time>
      </trkpt>
      <trkpt lat="42.307156" lon="-0.487021">
        <ele>1442.4</ele>
        <time>2018-07-22T10:20:41.000Z</time>
      </trkpt>
      <trkpt lat="42.307163" lon="-0.487021">
        <ele>1442.6</ele>
        <time>2018-07-22T10:20:42.000Z</time>
      </trkpt>
      <trkpt lat="42.307171" lon="-0.487021">
        <ele>1442.7</ele>
        <time>2018-07-22T10:20:43.000Z</time>
      </trkpt>
      <trkpt lat="42.307179" lon="-0.487021">
        <ele>1442.9</ele>
        <time>2018-07-22T10:20:44.000Z</time>
      </trkpt>
      <trkpt lat="42.307186" lon="-0.487022">
        <ele>1443.0</ele>
        <time>2018-07-22T10:20:45.000Z</time>
      </trkpt>
      <trkpt lat="42.307194" lon="-0.487022">
        <ele>1443.1</ele>
        <time>2018-07-22T10:20:46.000Z</time>
      </trkpt>
      <trkpt lat="42.307201" lon="-0.487023">
        <ele>1443.3</ele>
        <time>2018-07-22T10:20:47.000Z</time>
      </trkpt>
      <trkpt lat="42.307209" lon="-0.487023">
        <ele>1443.4</ele>
        <time>2018-07-22T10:20:48.000Z</time>
      </trkpt>
      <trkpt lat="42.307216" lon="-0.487024">
        <ele>1443.5</ele>
        <time>2018-07-22T10:20:49.000Z</time>
      </trkpt>
      <trkpt lat="42.307223" lon="-0.487026">
        <ele>1443.7</ele>
        <time>2018-07-22T10:20:50.000Z</time>
      </trkpt>
      <trkpt lat="42.307231" lon="-0.487027">
        <ele>1443.8</ele>
        <time>2018-07-22T10:20:51.000Z</time>
      </trkpt>
      <trkpt lat="42.307238" lon="-0.487028">
        <ele>1443.9</ele>
        <time>2018-07-22T10:20:52.000Z</time>
      </trkpt>
      <trkpt lat="42.307245" lon="-0.48703">
        <ele>1444.0</ele>
        <time>2018-07-22T10:20:53.000Z</time>
      </trkpt>
      <trkpt lat="42.307252" lon="-0.487032">
        <ele>1444.1</ele>
        <time>2018-07-22T10:20:54.000Z</time>
      </trkpt>
      <trkpt lat="42.307259" lon="-0.487033">
        <ele>1444.3</ele>
        <time>2018-07-22T10:20:55.000Z</time>
      </trkpt>
      <trkpt lat="42.307266" lon="-0.487035">
        <ele>1444.4</ele>
        <time>2018-07-22T10:20:56.000Z</time>
      </trkpt>
      <trkpt lat="42.307273" lon="-0.487037">
        <ele>1444.5</ele>
        <time>2018-07-22T10:20:57.000Z</time>
      </trkpt>
      <trkpt lat="42.307279" lon="-0.487039">
        <ele>1444.6</ele>
        <time>2018-07-22T10:20:58.000Z</time>
      </trkpt>
      <trkpt lat="42.307286" lon="-0.48704">
        <ele>1444.7</ele>
        <time>2018-07-22T10:20:59.000Z</time>
      </trkpt>
      <trkpt lat="42.307292" lon="-0.487042">
        <ele>1444.8</ele>
        <time>2018-07-22T10:21:00.000Z</time>
      </trkpt>
      <trkpt lat="42.307299" lon="-0.487043">
        <ele>1444.9</ele>
        <time>2018-07-22T10:21:01.000Z</time>
      </trkpt>
      <trkpt lat="42.307306" lon="-0.487044">
        <ele>1445.1</ele>
        <time>2018-07-22T10:21:02.000Z</time>
      </trkpt>
      <trkpt lat="42.307313" lon="-0.487045">
        <ele>1445.2</ele>
        <time>2018-07-22T10:21:03.000Z</time>
      </trkpt>
      <trkpt lat="42.307319" lon="-0.487046">
        <ele>1445.3</ele>
        <time>2018-07-22T10:21:04.000Z</time>
      </trkpt>
      <trkpt lat="42.307324" lon="-0.487046">
        <ele>1445.4</ele>
        <time>2018-07-22T10:21:05.000Z</time>
      </trkpt>
      <trkpt lat="42.307328" lon="-0.487047">
        <ele>1445.5</ele>
        <time>2018-07-22T10:21:06.000Z</time>
      </trkpt>
      <trkpt lat="42.30733" lon="-0.487048">
        <ele>1445.5</ele>
        <time>2018-07-22T10:21:07.000Z</time>
      </trkpt>
      <trkpt lat="42.307331" lon="-0.487048">
        <ele>1445.5</ele>
        <time>2018-07-22T10:21:08.000Z</time>
      </trkpt>
      <trkpt lat="42.307332" lon="-0.487048">
        <ele>1445.5</ele>
        <time>2018-07-22T10:21:09.000Z</time>
      </trkpt>
      <trkpt lat="42.307332" lon="-0.487048">
        <ele>1445.5</ele>
        <time>2018-07-22T10:21:10.000Z</time>
      </trkpt>
      <trkpt lat="42.307332" lon="-0.487049">
        <ele>1445.5</ele>
        <time>2018-07-22T10:21:11.000Z</time>
      </trkpt>
      <trkpt lat="42.307332" lon="-0.487049">
        <ele>1445.5</ele>
        <time>2018-07-22T10:21:12.000Z</time>
      </trkpt>
      <trkpt lat="42.307332" lon="-0.487049">
        <ele>1445.5</ele>
        <time>2018-07-22T10:21:13.000Z</time>
      </trkpt>
      <trkpt lat="42.307333" lon="-0.487049">
        <ele>1445.5</ele>
        <time>2018-07-22T10:21:14.000Z</time>
      </trkpt>
      <trkpt lat="42.307333" lon="-0.487049">
        <ele>1445.5</ele>
        <time>2018-07-22T10:21:15.000Z</time>
      </trkpt>
      <trkpt lat="42.307334" lon="-0.48705">
        <ele>1445.5</ele>
        <time>2018-07-22T10:21:16.000Z</time>
      </trkpt>
      <trkpt lat="42.307334" lon="-0.48705">
        <ele>1445.5</ele>
        <time>2018-07-22T10:21:17.000Z</time>
      </trkpt>
      <trkpt lat="42.307335" lon="-0.48705">
        <ele>1445.6</ele>
        <time>2018-07-22T10:21:18.000Z</time>
      </trkpt>
      <trkpt lat="42.307335" lon="-0.48705">
        <ele>1445.6</ele>
        <time>2018-07-22T10:21:19.000Z</time>
      </trkpt>
      <trkpt lat="42.307336" lon="-0.48705">
        <ele>1445.6</ele>
        <time>2018-07-22T10:21:20.000Z</time>
      </trkpt>
      <trkpt lat="42.307336" lon="-0.487051">
        <ele>1445.6</ele>
        <time>2018-07-22T10:21:21.000Z</time>
      </trkpt>
      <trkpt lat="42.307337" lon="-0.487051">
        <ele>1445.6</ele>
        <time>2018-07-22T10:21:22.000Z</time>
      </trkpt>
      <trkpt lat="42.307339" lon="-0.487051">
        <ele>1445.6</ele>
        <time>2018-07-22T10:21:23.000Z</time>
      </trkpt>
      <trkpt lat="42.307342" lon="-0.487052">
        <ele>1445.7</ele>
        <time>2018-07-22T10:21:24.000Z</time>
      </trkpt>
      <trkpt lat="42.307346" lon="-0.487052">
        <ele>1445.8</ele>
        <time>2018-07-22T10:21:25.000Z</time>
      </trkpt>
      <trkpt lat="42.307348" lon="-0.487053">
        <ele>1445.8</ele>
        <time>2018-07-22T10:21:26.000Z</time>
      </trkpt>
      <trkpt lat="42.307351" lon="-0.487053">
        <ele>1445.9</ele>
        <time>2018-07-22T10:21:27.000Z</time>
      </trkpt>
      <trkpt lat="42.307361" lon="-0.487056">
        <ele>1446.0</ele>
        <time>2018-07-22T10:21:28.000Z</time>
      </trkpt>
      <trkpt lat="42.307374" lon="-0.487062">
        <ele>1446.2</ele>
        <time>2018-07-22T10:21:29.000Z</time>
      </trkpt>
      <trkpt lat="42.307384" lon="-0.487065">
        <ele>1446.4</ele>
        <time>2018-07-22T10:21:30.000Z</time>
      </trkpt>
      <trkpt lat="42.307393" lon="-0.487064">
        <ele>1446.6</ele>
        <time>2018-07-22T10:21:31.000Z</time>
      </trkpt>
      <trkpt lat="42.307401" lon="-0.487062">
        <ele>1446.7</ele>
        <time>2018-07-22T10:21:32.000Z</time>
      </trkpt>
      <trkpt lat="42.307409" lon="-0.487061">
        <ele>1446.9</ele>
        <time>2018-07-22T10:21:33.000Z</time>
      </trkpt>
      <trkpt lat="42.307416" lon="-0.48706">
        <ele>1447.1</ele>
        <time>2018-07-22T10:21:34.000Z</time>
      </trkpt>
      <trkpt lat="42.307423" lon="-0.487059">
        <ele>1447.2</ele>
        <time>2018-07-22T10:21:35.000Z</time>
      </trkpt>
      <trkpt lat="42.30743" lon="-0.487059">
        <ele>1447.3</ele>
        <time>2018-07-22T10:21:36.000Z</time>
      </trkpt>
      <trkpt lat="42.307437" lon="-0.487058">
        <ele>1447.5</ele>
        <time>2018-07-22T10:21:37.000Z</time>
      </trkpt>
      <trkpt lat="42.307444" lon="-0.487058">
        <ele>1447.6</ele>
        <time>2018-07-22T10:21:38.000Z</time>
      </trkpt>
      <trkpt lat="42.307451" lon="-0.487057">
        <ele>1447.8</ele>
        <time>2018-07-22T10:21:39.000Z</time>
      </trkpt>
      <trkpt lat="42.307457" lon="-0.487057">
        <ele>1447.9</ele>
        <time>2018-07-22T10:21:40.000Z</time>
      </trkpt>
      <trkpt lat="42.307464" lon="-0.487058">
        <ele>1448.0</ele>
        <time>2018-07-22T10:21:41.000Z</time>
      </trkpt>
      <trkpt lat="42.307472" lon="-0.487058">
        <ele>1448.2</ele>
        <time>2018-07-22T10:21:42.000Z</time>
      </trkpt>
      <trkpt lat="42.307479" lon="-0.487059">
        <ele>1448.3</ele>
        <time>2018-07-22T10:21:43.000Z</time>
      </trkpt>
      <trkpt lat="42.307487" lon="-0.487059">
        <ele>1448.5</ele>
        <time>2018-07-22T10:21:44.000Z</time>
      </trkpt>
      <trkpt lat="42.307496" lon="-0.48706">
        <ele>1448.6</ele>
        <time>2018-07-22T10:21:45.000Z</time>
      </trkpt>
      <trkpt lat="42.307504" lon="-0.487061">
        <ele>1448.8</ele>
        <time>2018-07-22T10:21:46.000Z</time>
      </trkpt>
      <trkpt lat="42.307513" lon="-0.487062">
        <ele>1448.9</ele>
        <time>2018-07-22T10:21:47.000Z</time>
      </trkpt>
      <trkpt lat="42.307521" lon="-0.487064">
        <ele>1449.1</ele>
        <time>2018-07-22T10:21:48.000Z</time>
      </trkpt>
      <trkpt lat="42.30753" lon="-0.487065">
        <ele>1449.2</ele>
        <time>2018-07-22T10:21:49.000Z</time>
      </trkpt>
      <trkpt lat="42.307539" lon="-0.487066">
        <ele>1449.4</ele>
        <time>2018-07-22T10:21:50.000Z</time>
      </trkpt>
      <trkpt lat="42.307548" lon="-0.487068">
        <ele>1449.5</ele>
        <time>2018-07-22T10:21:51.000Z</time>
      </trkpt>
      <trkpt lat="42.307557" lon="-0.487069">
        <ele>1449.7</ele>
        <time>2018-07-22T10:21:52.000Z</time>
      </trkpt>
      <trkpt lat="42.307566" lon="-0.487071">
        <ele>1449.8</ele>
        <time>2018-07-22T10:21:53.000Z</time>
      </trkpt>
      <trkpt lat="42.307575" lon="-0.487072">
        <ele>1450.0</ele>
        <time>2018-07-22T10:21:54.000Z</time>
      </trkpt>
      <trkpt lat="42.307584" lon="-0.487073">
        <ele>1450.2</ele>
        <time>2018-07-22T10:21:55.000Z</time>
      </trkpt>
      <trkpt lat="42.307593" lon="-0.487075">
        <ele>1450.3</ele>
        <time>2018-07-22T10:21:56.000Z</time>
      </trkpt>
      <trkpt lat="42.307602" lon="-0.487076">
        <ele>1450.5</ele>
        <time>2018-07-22T10:21:57.000Z</time>
      </trkpt>
      <trkpt lat="42.30761" lon="-0.487077">
        <ele>1450.6</ele>
        <time>2018-07-22T10:21:58.000Z</time>
      </trkpt>
      <trkpt lat="42.307619" lon="-0.487079">
        <ele>1450.8</ele>
        <time>2018-07-22T10:21:59.000Z</time>
      </trkpt>
      <trkpt lat="42.307628" lon="-0.48708">
        <ele>1450.9</ele>
        <time>2018-07-22T10:22:00.000Z</time>
      </trkpt>
      <trkpt lat="42.307636" lon="-0.487081">
        <ele>1451.1</ele>
        <time>2018-07-22T10:22:01.000Z</time>
      </trkpt>
      <trkpt lat="42.307645" lon="-0.487082">
        <ele>1451.2</ele>
        <time>2018-07-22T10:22:02.000Z</time>
      </trkpt>
      <trkpt lat="42.307654" lon="-0.487083">
        <ele>1451.4</ele>
        <time>2018-07-22T10:22:03.000Z</time>
      </trkpt>
      <trkpt lat="42.307662" lon="-0.487084">
        <ele>1451.5</ele>
        <time>2018-07-22T10:22:04.000Z</time>
      </trkpt>
      <trkpt lat="42.307671" lon="-0.487086">
        <ele>1451.7</ele>
        <time>2018-07-22T10:22:05.000Z</time>
      </trkpt>
      <trkpt lat="42.307679" lon="-0.487087">
        <ele>1451.8</ele>
        <time>2018-07-22T10:22:06.000Z</time>
      </trkpt>
      <trkpt lat="42.307688" lon="-0.487088">
        <ele>1451.9</ele>
        <time>2018-07-22T10:22:07.000Z</time>
      </trkpt>
      <trkpt lat="42.307697" lon="-0.487089">
        <ele>1452.1</ele>
        <time>2018-07-22T10:22:08.000Z</time>
      </trkpt>
      <trkpt lat="42.307706" lon="-0.48709">
        <ele>1452.3</ele>
        <time>2018-07-22T10:22:09.000Z</time>
      </trkpt>
      <trkpt lat="42.307714" lon="-0.487091">
        <ele>1452.4</ele>
        <time>2018-07-22T10:22:10.000Z</time>
      </trkpt>
      <trkpt lat="42.307723" lon="-0.487092">
        <ele>1452.5</ele>
        <time>2018-07-22T10:22:11.000Z</time>
      </trkpt>
      <trkpt lat="42.307732" lon="-0.487093">
        <ele>1452.7</ele>
        <time>2018-07-22T10:22:12.000Z</time>
      </trkpt>
      <trkpt lat="42.307741" lon="-0.487094">
        <ele>1452.9</ele>
        <time>2018-07-22T10:22:13.000Z</time>
      </trkpt>
      <trkpt lat="42.30775" lon="-0.487095">
        <ele>1453.0</ele>
        <time>2018-07-22T10:22:14.000Z</time>
      </trkpt>
      <trkpt lat="42.307759" lon="-0.487096">
        <ele>1453.2</ele>
        <time>2018-07-22T10:22:15.000Z</time>
      </trkpt>
      <trkpt lat="42.307768" lon="-0.487097">
        <ele>1453.3</ele>
        <time>2018-07-22T10:22:16.000Z</time>
      </trkpt>
      <trkpt lat="42.307777" lon="-0.487098">
        <ele>1453.5</ele>
        <time>2018-07-22T10:22:17.000Z</time>
      </trkpt>
      <trkpt lat="42.307786" lon="-0.487099">
        <ele>1453.6</ele>
        <time>2018-07-22T10:22:18.000Z</time>
      </trkpt>
      <trkpt lat="42.307796" lon="-0.487101">
        <ele>1453.8</ele>
        <time>2018-07-22T10:22:19.000Z</time>
      </trkpt>
      <trkpt lat="42.307805" lon="-0.487102">
        <ele>1453.9</ele>
        <time>2018-07-22T10:22:20.000Z</time>
      </trkpt>
      <trkpt lat="42.307814" lon="-0.487103">
        <ele>1454.1</ele>
        <time>2018-07-22T10:22:21.000Z</time>
      </trkpt>
      <trkpt lat="42.307823" lon="-0.487105">
        <ele>1454.2</ele>
        <time>2018-07-22T10:22:22.000Z</time>
      </trkpt>
      <trkpt lat="42.307832" lon="-0.487106">
        <ele>1454.4</ele>
        <time>2018-07-22T10:22:23.000Z</time>
      </trkpt>
      <trkpt lat="42.307841" lon="-0.487108">
        <ele>1454.5</ele>
        <time>2018-07-22T10:22:24.000Z</time>
      </trkpt>
      <trkpt lat="42.307849" lon="-0.48711">
        <ele>1454.6</ele>
        <time>2018-07-22T10:22:25.000Z</time>
      </trkpt>
      <trkpt lat="42.307858" lon="-0.487112">
        <ele>1454.8</ele>
        <time>2018-07-22T10:22:26.000Z</time>
      </trkpt>
      <trkpt lat="42.307867" lon="-0.487115">
        <ele>1454.9</ele>
        <time>2018-07-22T10:22:27.000Z</time>
      </trkpt>
      <trkpt lat="42.307875" lon="-0.487117">
        <ele>1455.0</ele>
        <time>2018-07-22T10:22:28.000Z</time>
      </trkpt>
      <trkpt lat="42.307884" lon="-0.48712">
        <ele>1455.2</ele>
        <time>2018-07-22T10:22:29.000Z</time>
      </trkpt>
      <trkpt lat="42.307892" lon="-0.487123">
        <ele>1455.3</ele>
        <time>2018-07-22T10:22:30.000Z</time>
      </trkpt>
      <trkpt lat="42.307901" lon="-0.487125">
        <ele>1455.4</ele>
        <time>2018-07-22T10:22:31.000Z</time>
      </trkpt>
      <trkpt lat="42.307909" lon="-0.487128">
        <ele>1455.5</ele>
        <time>2018-07-22T10:22:32.000Z</time>
      </trkpt>
      <trkpt lat="42.307918" lon="-0.487131">
        <ele>1455.6</ele>
        <time>2018-07-22T10:22:33.000Z</time>
      </trkpt>
      <trkpt lat="42.307927" lon="-0.487133">
        <ele>1455.8</ele>
        <time>2018-07-22T10:22:34.000Z</time>
      </trkpt>
      <trkpt lat="42.307936" lon="-0.487136">
        <ele>1455.9</ele>
        <time>2018-07-22T10:22:35.000Z</time>
      </trkpt>
      <trkpt lat="42.307945" lon="-0.487138">
        <ele>1456.0</ele>
        <time>2018-07-22T10:22:36.000Z</time>
      </trkpt>
      <trkpt lat="42.307955" lon="-0.48714">
        <ele>1456.2</ele>
        <time>2018-07-22T10:22:37.000Z</time>
      </trkpt>
      <trkpt lat="42.307964" lon="-0.487142">
        <ele>1456.3</ele>
        <time>2018-07-22T10:22:38.000Z</time>
      </trkpt>
      <trkpt lat="42.307974" lon="-0.487143">
        <ele>1456.4</ele>
        <time>2018-07-22T10:22:39.000Z</time>
      </trkpt>
      <trkpt lat="42.307982" lon="-0.487145">
        <ele>1456.6</ele>
        <time>2018-07-22T10:22:40.000Z</time>
      </trkpt>
      <trkpt lat="42.30799" lon="-0.487146">
        <ele>1456.7</ele>
        <time>2018-07-22T10:22:41.000Z</time>
      </trkpt>
      <trkpt lat="42.307997" lon="-0.487147">
        <ele>1456.8</ele>
        <time>2018-07-22T10:22:42.000Z</time>
      </trkpt>
      <trkpt lat="42.308003" lon="-0.487147">
        <ele>1456.9</ele>
        <time>2018-07-22T10:22:43.000Z</time>
      </trkpt>
      <trkpt lat="42.308007" lon="-0.487147">
        <ele>1457.0</ele>
        <time>2018-07-22T10:22:44.000Z</time>
      </trkpt>
      <trkpt lat="42.308008" lon="-0.487147">
        <ele>1457.0</ele>
        <time>2018-07-22T10:22:45.000Z</time>
      </trkpt>
      <trkpt lat="42.30801" lon="-0.487147">
        <ele>1457.0</ele>
        <time>2018-07-22T10:22:46.000Z</time>
      </trkpt>
      <trkpt lat="42.308018" lon="-0.487147">
        <ele>1457.2</ele>
        <time>2018-07-22T10:22:47.000Z</time>
      </trkpt>
      <trkpt lat="42.308027" lon="-0.487147">
        <ele>1457.3</ele>
        <time>2018-07-22T10:22:48.000Z</time>
      </trkpt>
      <trkpt lat="42.308036" lon="-0.487148">
        <ele>1457.5</ele>
        <time>2018-07-22T10:22:49.000Z</time>
      </trkpt>
      <trkpt lat="42.308045" lon="-0.487149">
        <ele>1457.6</ele>
        <time>2018-07-22T10:22:50.000Z</time>
      </trkpt>
      <trkpt lat="42.308053" lon="-0.487151">
        <ele>1457.7</ele>
        <time>2018-07-22T10:22:51.000Z</time>
      </trkpt>
      <trkpt lat="42.308062" lon="-0.487152">
        <ele>1457.9</ele>
        <time>2018-07-22T10:22:52.000Z</time>
      </trkpt>
      <trkpt lat="42.30807" lon="-0.487153">
        <ele>1458.0</ele>
        <time>2018-07-22T10:22:53.000Z</time>
      </trkpt>
      <trkpt lat="42.308078" lon="-0.487155">
        <ele>1458.1</ele>
        <time>2018-07-22T10:22:54.000Z</time>
      </trkpt>
      <trkpt lat="42.308086" lon="-0.487156">
        <ele>1458.2</ele>
        <time>2018-07-22T10:22:55.000Z</time>
      </trkpt>
      <trkpt lat="42.308095" lon="-0.487157">
        <ele>1458.4</ele>
        <time>2018-07-22T10:22:56.000Z</time>
      </trkpt>
      <trkpt lat="42.308103" lon="-0.487158">
        <ele>1458.5</ele>
        <time>2018-07-22T10:22:57.000Z</time>
      </trkpt>
      <trkpt lat="42.308112" lon="-0.487159">
        <ele>1458.6</ele>
        <time>2018-07-22T10:22:58.000Z</time>
      </trkpt>
      <trkpt lat="42.308121" lon="-0.48716">
        <ele>1458.8</ele>
        <time>2018-07-22T10:22:59.000Z</time>
      </trkpt>
      <trkpt lat="42.30813" lon="-0.487161">
        <ele>1458.9</ele>
        <time>2018-07-22T10:23:00.000Z</time>
      </trkpt>
      <trkpt lat="42.308139" lon="-0.487161">
        <ele>1459.1</ele>
        <time>2018-07-22T10:23:01.000Z</time>
      </trkpt>
      <trkpt lat="42.308148" lon="-0.487162">
        <ele>1459.2</ele>
        <time>2018-07-22T10:23:02.000Z</time>
      </trkpt>
      <trkpt lat="42.308157" lon="-0.487163">
        <ele>1459.4</ele>
        <time>2018-07-22T10:23:03.000Z</time>
      </trkpt>
      <trkpt lat="42.308167" lon="-0.487163">
        <ele>1459.5</ele>
        <time>2018-07-22T10:23:04.000Z</time>
      </trkpt>
      <trkpt lat="42.308176" lon="-0.487164">
        <ele>1459.7</ele>
        <time>2018-07-22T10:23:05.000Z</time>
      </trkpt>
      <trkpt lat="42.308185" lon="-0.487164">
        <ele>1459.8</ele>
        <time>2018-07-22T10:23:06.000Z</time>
      </trkpt>
      <trkpt lat="42.308194" lon="-0.487164">
        <ele>1460.0</ele>
        <time>2018-07-22T10:23:07.000Z</time>
      </trkpt>
      <trkpt lat="42.308203" lon="-0.487165">
        <ele>1460.1</ele>
        <time>2018-07-22T10:23:08.000Z</time>
      </trkpt>
      <trkpt lat="42.308212" lon="-0.487165">
        <ele>1460.3</ele>
        <time>2018-07-22T10:23:09.000Z</time>
      </trkpt>
      <trkpt lat="42.308221" lon="-0.487165">
        <ele>1460.5</ele>
        <time>2018-07-22T10:23:10.000Z</time>
      </trkpt>
      <trkpt lat="42.30823" lon="-0.487165">
        <ele>1460.6</ele>
        <time>2018-07-22T10:23:11.000Z</time>
      </trkpt>
      <trkpt lat="42.308239" lon="-0.487166">
        <ele>1460.8</ele>
        <time>2018-07-22T10:23:12.000Z</time>
      </trkpt>
      <trkpt lat="42.308247" lon="-0.487166">
        <ele>1460.9</ele>
        <time>2018-07-22T10:23:13.000Z</time>
      </trkpt>
      <trkpt lat="42.308256" lon="-0.487167">
        <ele>1461.0</ele>
        <time>2018-07-22T10:23:14.000Z</time>
      </trkpt>
      <trkpt lat="42.308265" lon="-0.487168">
        <ele>1461.2</ele>
        <time>2018-07-22T10:23:15.000Z</time>
      </trkpt>
      <trkpt lat="42.308275" lon="-0.487169">
        <ele>1461.3</ele>
        <time>2018-07-22T10:23:16.000Z</time>
      </trkpt>
      <trkpt lat="42.308284" lon="-0.487171">
        <ele>1461.5</ele>
        <time>2018-07-22T10:23:17.000Z</time>
      </trkpt>
      <trkpt lat="42.308292" lon="-0.487173">
        <ele>1461.6</ele>
        <time>2018-07-22T10:23:18.000Z</time>
      </trkpt>
      <trkpt lat="42.3083" lon="-0.487175">
        <ele>1461.7</ele>
        <time>2018-07-22T10:23:19.000Z</time>
      </trkpt>
      <trkpt lat="42.308306" lon="-0.487177">
        <ele>1461.7</ele>
        <time>2018-07-22T10:23:20.000Z</time>
      </trkpt>
      <trkpt lat="42.30831" lon="-0.487179">
        <ele>1461.8</ele>
        <time>2018-07-22T10:23:21.000Z</time>
      </trkpt>
      <trkpt lat="42.308314" lon="-0.487181">
        <ele>1461.8</ele>
        <time>2018-07-22T10:23:22.000Z</time>
      </trkpt>
      <trkpt lat="42.308318" lon="-0.487183">
        <ele>1461.8</ele>
        <time>2018-07-22T10:23:23.000Z</time>
      </trkpt>
      <trkpt lat="42.308325" lon="-0.487185">
        <ele>1461.9</ele>
        <time>2018-07-22T10:23:24.000Z</time>
      </trkpt>
      <trkpt lat="42.308333" lon="-0.487187">
        <ele>1462.0</ele>
        <time>2018-07-22T10:23:25.000Z</time>
      </trkpt>
      <trkpt lat="42.308342" lon="-0.487189">
        <ele>1462.1</ele>
        <time>2018-07-22T10:23:26.000Z</time>
      </trkpt>
      <trkpt lat="42.308351" lon="-0.48719">
        <ele>1462.2</ele>
        <time>2018-07-22T10:23:27.000Z</time>
      </trkpt>
      <trkpt lat="42.308361" lon="-0.487191">
        <ele>1462.3</ele>
        <time>2018-07-22T10:23:28.000Z</time>
      </trkpt>
      <trkpt lat="42.30837" lon="-0.487192">
        <ele>1462.4</ele>
        <time>2018-07-22T10:23:29.000Z</time>
      </trkpt>
      <trkpt lat="42.30838" lon="-0.487193">
        <ele>1462.5</ele>
        <time>2018-07-22T10:23:30.000Z</time>
      </trkpt>
      <trkpt lat="42.308389" lon="-0.487193">
        <ele>1462.6</ele>
        <time>2018-07-22T10:23:31.000Z</time>
      </trkpt>
      <trkpt lat="42.308399" lon="-0.487195">
        <ele>1462.7</ele>
        <time>2018-07-22T10:23:32.000Z</time>
      </trkpt>
      <trkpt lat="42.308408" lon="-0.487196">
        <ele>1462.8</ele>
        <time>2018-07-22T10:23:33.000Z</time>
      </trkpt>
      <trkpt lat="42.308418" lon="-0.487198">
        <ele>1462.9</ele>
        <time>2018-07-22T10:23:34.000Z</time>
      </trkpt>
      <trkpt lat="42.308428" lon="-0.4872">
        <ele>1463.0</ele>
        <time>2018-07-22T10:23:35.000Z</time>
      </trkpt>
      <trkpt lat="42.308437" lon="-0.487201">
        <ele>1463.1</ele>
        <time>2018-07-22T10:23:36.000Z</time>
      </trkpt>
      <trkpt lat="42.308447" lon="-0.487203">
        <ele>1463.2</ele>
        <time>2018-07-22T10:23:37.000Z</time>
      </trkpt>
      <trkpt lat="42.308457" lon="-0.487204">
        <ele>1463.3</ele>
        <time>2018-07-22T10:23:38.000Z</time>
      </trkpt>
      <trkpt lat="42.308466" lon="-0.487206">
        <ele>1463.4</ele>
        <time>2018-07-22T10:23:39.000Z</time>
      </trkpt>
      <trkpt lat="42.308476" lon="-0.487207">
        <ele>1463.5</ele>
        <time>2018-07-22T10:23:40.000Z</time>
      </trkpt>
      <trkpt lat="42.308485" lon="-0.487208">
        <ele>1463.6</ele>
        <time>2018-07-22T10:23:41.000Z</time>
      </trkpt>
      <trkpt lat="42.308494" lon="-0.487208">
        <ele>1463.7</ele>
        <time>2018-07-22T10:23:42.000Z</time>
      </trkpt>
      <trkpt lat="42.308503" lon="-0.487209">
        <ele>1463.8</ele>
        <time>2018-07-22T10:23:43.000Z</time>
      </trkpt>
      <trkpt lat="42.308512" lon="-0.487209">
        <ele>1463.9</ele>
        <time>2018-07-22T10:23:44.000Z</time>
      </trkpt>
      <trkpt lat="42.308521" lon="-0.487209">
        <ele>1464.1</ele>
        <time>2018-07-22T10:23:45.000Z</time>
      </trkpt>
      <trkpt lat="42.30853" lon="-0.487208">
        <ele>1464.2</ele>
        <time>2018-07-22T10:23:46.000Z</time>
      </trkpt>
      <trkpt lat="42.308539" lon="-0.487208">
        <ele>1464.3</ele>
        <time>2018-07-22T10:23:47.000Z</time>
      </trkpt>
      <trkpt lat="42.308547" lon="-0.487208">
        <ele>1464.4</ele>
        <time>2018-07-22T10:23:48.000Z</time>
      </trkpt>
      <trkpt lat="42.308556" lon="-0.487207">
        <ele>1464.6</ele>
        <time>2018-07-22T10:23:49.000Z</time>
      </trkpt>
      <trkpt lat="42.308565" lon="-0.487206">
        <ele>1464.7</ele>
        <time>2018-07-22T10:23:50.000Z</time>
      </trkpt>
      <trkpt lat="42.308573" lon="-0.487206">
        <ele>1464.8</ele>
        <time>2018-07-22T10:23:51.000Z</time>
      </trkpt>
      <trkpt lat="42.308582" lon="-0.487205">
        <ele>1464.9</ele>
        <time>2018-07-22T10:23:52.000Z</time>
      </trkpt>
      <trkpt lat="42.30859" lon="-0.487205">
        <ele>1465.0</ele>
        <time>2018-07-22T10:23:53.000Z</time>
      </trkpt>
      <trkpt lat="42.308599" lon="-0.487204">
        <ele>1465.2</ele>
        <time>2018-07-22T10:23:54.000Z</time>
      </trkpt>
      <trkpt lat="42.308608" lon="-0.487204">
        <ele>1465.3</ele>
        <time>2018-07-22T10:23:55.000Z</time>
      </trkpt>
      <trkpt lat="42.308616" lon="-0.487203">
        <ele>1465.4</ele>
        <time>2018-07-22T10:23:56.000Z</time>
      </trkpt>
      <trkpt lat="42.308625" lon="-0.487203">
        <ele>1465.5</ele>
        <time>2018-07-22T10:23:57.000Z</time>
      </trkpt>
      <trkpt lat="42.308634" lon="-0.487203">
        <ele>1465.6</ele>
        <time>2018-07-22T10:23:58.000Z</time>
      </trkpt>
      <trkpt lat="42.308643" lon="-0.487203">
        <ele>1465.8</ele>
        <time>2018-07-22T10:23:59.000Z</time>
      </trkpt>
      <trkpt lat="42.308652" lon="-0.487203">
        <ele>1465.9</ele>
        <time>2018-07-22T10:24:00.000Z</time>
      </trkpt>
      <trkpt lat="42.308661" lon="-0.487204">
        <ele>1466.0</ele>
        <time>2018-07-22T10:24:01.000Z</time>
      </trkpt>
      <trkpt lat="42.308671" lon="-0.487205">
        <ele>1466.1</ele>
        <time>2018-07-22T10:24:02.000Z</time>
      </trkpt>
      <trkpt lat="42.30868" lon="-0.487206">
        <ele>1466.2</ele>
        <time>2018-07-22T10:24:03.000Z</time>
      </trkpt>
      <trkpt lat="42.30869" lon="-0.487207">
        <ele>1466.3</ele>
        <time>2018-07-22T10:24:04.000Z</time>
      </trkpt>
      <trkpt lat="42.308699" lon="-0.487209">
        <ele>1466.4</ele>
        <time>2018-07-22T10:24:05.000Z</time>
      </trkpt>
      <trkpt lat="42.308709" lon="-0.487211">
        <ele>1466.5</ele>
        <time>2018-07-22T10:24:06.000Z</time>
      </trkpt>
      <trkpt lat="42.308719" lon="-0.487213">
        <ele>1466.6</ele>
        <time>2018-07-22T10:24:07.000Z</time>
      </trkpt>
      <trkpt lat="42.308729" lon="-0.487215">
        <ele>1466.7</ele>
        <time>2018-07-22T10:24:08.000Z</time>
      </trkpt>
      <trkpt lat="42.308739" lon="-0.487218">
        <ele>1466.8</ele>
        <time>2018-07-22T10:24:09.000Z</time>
      </trkpt>
      <trkpt lat="42.308749" lon="-0.48722">
        <ele>1466.9</ele>
        <time>2018-07-22T10:24:10.000Z</time>
      </trkpt>
      <trkpt lat="42.308759" lon="-0.487222">
        <ele>1467.0</ele>
        <time>2018-07-22T10:24:11.000Z</time>
      </trkpt>
      <trkpt lat="42.308769" lon="-0.487224">
        <ele>1467.1</ele>
        <time>2018-07-22T10:24:12.000Z</time>
      </trkpt>
      <trkpt lat="42.308779" lon="-0.487226">
        <ele>1467.2</ele>
        <time>2018-07-22T10:24:13.000Z</time>
      </trkpt>
      <trkpt lat="42.308789" lon="-0.487228">
        <ele>1467.2</ele>
        <time>2018-07-22T10:24:14.000Z</time>
      </trkpt>
      <trkpt lat="42.308799" lon="-0.487229">
        <ele>1467.4</ele>
        <time>2018-07-22T10:24:15.000Z</time>
      </trkpt>
      <trkpt lat="42.308809" lon="-0.487231">
        <ele>1467.5</ele>
        <time>2018-07-22T10:24:16.000Z</time>
      </trkpt>
      <trkpt lat="42.308818" lon="-0.487232">
        <ele>1467.6</ele>
        <time>2018-07-22T10:24:17.000Z</time>
      </trkpt>
      <trkpt lat="42.308828" lon="-0.487232">
        <ele>1467.7</ele>
        <time>2018-07-22T10:24:18.000Z</time>
      </trkpt>
      <trkpt lat="42.308837" lon="-0.487233">
        <ele>1467.8</ele>
        <time>2018-07-22T10:24:19.000Z</time>
      </trkpt>
      <trkpt lat="42.308847" lon="-0.487233">
        <ele>1467.9</ele>
        <time>2018-07-22T10:24:20.000Z</time>
      </trkpt>
      <trkpt lat="42.308856" lon="-0.487233">
        <ele>1468.0</ele>
        <time>2018-07-22T10:24:21.000Z</time>
      </trkpt>
      <trkpt lat="42.308865" lon="-0.487233">
        <ele>1468.2</ele>
        <time>2018-07-22T10:24:22.000Z</time>
      </trkpt>
      <trkpt lat="42.308873" lon="-0.487233">
        <ele>1468.3</ele>
        <time>2018-07-22T10:24:23.000Z</time>
      </trkpt>
      <trkpt lat="42.308882" lon="-0.487233">
        <ele>1468.4</ele>
        <time>2018-07-22T10:24:24.000Z</time>
      </trkpt>
      <trkpt lat="42.30889" lon="-0.487233">
        <ele>1468.5</ele>
        <time>2018-07-22T10:24:25.000Z</time>
      </trkpt>
      <trkpt lat="42.308898" lon="-0.487232">
        <ele>1468.6</ele>
        <time>2018-07-22T10:24:26.000Z</time>
      </trkpt>
      <trkpt lat="42.308906" lon="-0.487232">
        <ele>1468.7</ele>
        <time>2018-07-22T10:24:27.000Z</time>
      </trkpt>
      <trkpt lat="42.308914" lon="-0.487231">
        <ele>1468.9</ele>
        <time>2018-07-22T10:24:28.000Z</time>
      </trkpt>
      <trkpt lat="42.308922" lon="-0.48723">
        <ele>1469.0</ele>
        <time>2018-07-22T10:24:29.000Z</time>
      </trkpt>
      <trkpt lat="42.308929" lon="-0.487229">
        <ele>1469.1</ele>
        <time>2018-07-22T10:24:30.000Z</time>
      </trkpt>
      <trkpt lat="42.308937" lon="-0.487229">
        <ele>1469.2</ele>
        <time>2018-07-22T10:24:31.000Z</time>
      </trkpt>
      <trkpt lat="42.308944" lon="-0.487228">
        <ele>1469.3</ele>
        <time>2018-07-22T10:24:32.000Z</time>
      </trkpt>
      <trkpt lat="42.308952" lon="-0.487227">
        <ele>1469.4</ele>
        <time>2018-07-22T10:24:33.000Z</time>
      </trkpt>
      <trkpt lat="42.308959" lon="-0.487226">
        <ele>1469.5</ele>
        <time>2018-07-22T10:24:34.000Z</time>
      </trkpt>
      <trkpt lat="42.308967" lon="-0.487225">
        <ele>1469.7</ele>
        <time>2018-07-22T10:24:35.000Z</time>
      </trkpt>
      <trkpt lat="42.308975" lon="-0.487224">
        <ele>1469.8</ele>
        <time>2018-07-22T10:24:36.000Z</time>
      </trkpt>
      <trkpt lat="42.308982" lon="-0.487223">
        <ele>1469.9</ele>
        <time>2018-07-22T10:24:37.000Z</time>
      </trkpt>
      <trkpt lat="42.30899" lon="-0.487222">
        <ele>1470.0</ele>
        <time>2018-07-22T10:24:38.000Z</time>
      </trkpt>
      <trkpt lat="42.308998" lon="-0.487221">
        <ele>1470.1</ele>
        <time>2018-07-22T10:24:39.000Z</time>
      </trkpt>
      <trkpt lat="42.309007" lon="-0.48722">
        <ele>1470.3</ele>
        <time>2018-07-22T10:24:40.000Z</time>
      </trkpt>
      <trkpt lat="42.309015" lon="-0.487219">
        <ele>1470.4</ele>
        <time>2018-07-22T10:24:41.000Z</time>
      </trkpt>
      <trkpt lat="42.309023" lon="-0.487217">
        <ele>1470.5</ele>
        <time>2018-07-22T10:24:42.000Z</time>
      </trkpt>
      <trkpt lat="42.309031" lon="-0.487216">
        <ele>1470.6</ele>
        <time>2018-07-22T10:24:43.000Z</time>
      </trkpt>
      <trkpt lat="42.309039" lon="-0.487215">
        <ele>1470.8</ele>
        <time>2018-07-22T10:24:44.000Z</time>
      </trkpt>
      <trkpt lat="42.309047" lon="-0.487214">
        <ele>1470.9</ele>
        <time>2018-07-22T10:24:45.000Z</time>
      </trkpt>
      <trkpt lat="42.309055" lon="-0.487213">
        <ele>1471.0</ele>
        <time>2018-07-22T10:24:46.000Z</time>
      </trkpt>
      <trkpt lat="42.309063" lon="-0.487211">
        <ele>1471.1</ele>
        <time>2018-07-22T10:24:47.000Z</time>
      </trkpt>
      <trkpt lat="42.30907" lon="-0.48721">
        <ele>1471.3</ele>
        <time>2018-07-22T10:24:48.000Z</time>
      </trkpt>
      <trkpt lat="42.309078" lon="-0.487209">
        <ele>1471.4</ele>
        <time>2018-07-22T10:24:49.000Z</time>
      </trkpt>
      <trkpt lat="42.309085" lon="-0.487207">
        <ele>1471.5</ele>
        <time>2018-07-22T10:24:50.000Z</time>
      </trkpt>
      <trkpt lat="42.309093" lon="-0.487206">
        <ele>1471.6</ele>
        <time>2018-07-22T10:24:51.000Z</time>
      </trkpt>
      <trkpt lat="42.3091" lon="-0.487205">
        <ele>1471.7</ele>
        <time>2018-07-22T10:24:52.000Z</time>
      </trkpt>
      <trkpt lat="42.309107" lon="-0.487204">
        <ele>1471.8</ele>
        <time>2018-07-22T10:24:53.000Z</time>
      </trkpt>
      <trkpt lat="42.309115" lon="-0.487203">
        <ele>1472.0</ele>
        <time>2018-07-22T10:24:54.000Z</time>
      </trkpt>
      <trkpt lat="42.309122" lon="-0.487202">
        <ele>1472.1</ele>
        <time>2018-07-22T10:24:55.000Z</time>
      </trkpt>
      <trkpt lat="42.30913" lon="-0.487202">
        <ele>1472.2</ele>
        <time>2018-07-22T10:24:56.000Z</time>
      </trkpt>
      <trkpt lat="42.309138" lon="-0.487201">
        <ele>1472.3</ele>
        <time>2018-07-22T10:24:57.000Z</time>
      </trkpt>
      <trkpt lat="42.309146" lon="-0.487202">
        <ele>1472.4</ele>
        <time>2018-07-22T10:24:58.000Z</time>
      </trkpt>
      <trkpt lat="42.309154" lon="-0.487202">
        <ele>1472.5</ele>
        <time>2018-07-22T10:24:59.000Z</time>
      </trkpt>
      <trkpt lat="42.309163" lon="-0.487203">
        <ele>1472.6</ele>
        <time>2018-07-22T10:25:00.000Z</time>
      </trkpt>
      <trkpt lat="42.309172" lon="-0.487204">
        <ele>1472.7</ele>
        <time>2018-07-22T10:25:01.000Z</time>
      </trkpt>
      <trkpt lat="42.30918" lon="-0.487205">
        <ele>1472.8</ele>
        <time>2018-07-22T10:25:02.000Z</time>
      </trkpt>
      <trkpt lat="42.309189" lon="-0.487206">
        <ele>1473.0</ele>
        <time>2018-07-22T10:25:03.000Z</time>
      </trkpt>
      <trkpt lat="42.309198" lon="-0.487207">
        <ele>1473.1</ele>
        <time>2018-07-22T10:25:04.000Z</time>
      </trkpt>
      <trkpt lat="42.309207" lon="-0.487207">
        <ele>1473.2</ele>
        <time>2018-07-22T10:25:05.000Z</time>
      </trkpt>
      <trkpt lat="42.309216" lon="-0.487207">
        <ele>1473.4</ele>
        <time>2018-07-22T10:25:06.000Z</time>
      </trkpt>
      <trkpt lat="42.309225" lon="-0.487206">
        <ele>1473.5</ele>
        <time>2018-07-22T10:25:07.000Z</time>
      </trkpt>
      <trkpt lat="42.309233" lon="-0.487205">
        <ele>1473.7</ele>
        <time>2018-07-22T10:25:08.000Z</time>
      </trkpt>
      <trkpt lat="42.309242" lon="-0.487203">
        <ele>1473.9</ele>
        <time>2018-07-22T10:25:09.000Z</time>
      </trkpt>
      <trkpt lat="42.30925" lon="-0.487201">
        <ele>1474.0</ele>
        <time>2018-07-22T10:25:10.000Z</time>
      </trkpt>
      <trkpt lat="42.309258" lon="-0.487198">
        <ele>1474.2</ele>
        <time>2018-07-22T10:25:11.000Z</time>
      </trkpt>
      <trkpt lat="42.309266" lon="-0.487196">
        <ele>1474.4</ele>
        <time>2018-07-22T10:25:12.000Z</time>
      </trkpt>
      <trkpt lat="42.309275" lon="-0.487195">
        <ele>1474.6</ele>
        <time>2018-07-22T10:25:13.000Z</time>
      </trkpt>
      <trkpt lat="42.309283" lon="-0.487195">
        <ele>1474.7</ele>
        <time>2018-07-22T10:25:14.000Z</time>
      </trkpt>
      <trkpt lat="42.309291" lon="-0.487197">
        <ele>1474.8</ele>
        <time>2018-07-22T10:25:15.000Z</time>
      </trkpt>
      <trkpt lat="42.309299" lon="-0.487199">
        <ele>1474.9</ele>
        <time>2018-07-22T10:25:16.000Z</time>
      </trkpt>
      <trkpt lat="42.309308" lon="-0.487202">
        <ele>1475.0</ele>
        <time>2018-07-22T10:25:17.000Z</time>
      </trkpt>
      <trkpt lat="42.309316" lon="-0.487206">
        <ele>1475.1</ele>
        <time>2018-07-22T10:25:18.000Z</time>
      </trkpt>
      <trkpt lat="42.309325" lon="-0.48721">
        <ele>1475.1</ele>
        <time>2018-07-22T10:25:19.000Z</time>
      </trkpt>
      <trkpt lat="42.309333" lon="-0.487213">
        <ele>1475.2</ele>
        <time>2018-07-22T10:25:20.000Z</time>
      </trkpt>
      <trkpt lat="42.309342" lon="-0.487216">
        <ele>1475.3</ele>
        <time>2018-07-22T10:25:21.000Z</time>
      </trkpt>
      <trkpt lat="42.309351" lon="-0.487218">
        <ele>1475.4</ele>
        <time>2018-07-22T10:25:22.000Z</time>
      </trkpt>
      <trkpt lat="42.309359" lon="-0.487221">
        <ele>1475.5</ele>
        <time>2018-07-22T10:25:23.000Z</time>
      </trkpt>
      <trkpt lat="42.309368" lon="-0.487223">
        <ele>1475.6</ele>
        <time>2018-07-22T10:25:24.000Z</time>
      </trkpt>
      <trkpt lat="42.309377" lon="-0.487225">
        <ele>1475.7</ele>
        <time>2018-07-22T10:25:25.000Z</time>
      </trkpt>
      <trkpt lat="42.309386" lon="-0.487227">
        <ele>1475.8</ele>
        <time>2018-07-22T10:25:26.000Z</time>
      </trkpt>
      <trkpt lat="42.309395" lon="-0.487229">
        <ele>1476.0</ele>
        <time>2018-07-22T10:25:27.000Z</time>
      </trkpt>
      <trkpt lat="42.309404" lon="-0.487231">
        <ele>1476.1</ele>
        <time>2018-07-22T10:25:28.000Z</time>
      </trkpt>
      <trkpt lat="42.309413" lon="-0.487234">
        <ele>1476.2</ele>
        <time>2018-07-22T10:25:29.000Z</time>
      </trkpt>
      <trkpt lat="42.309422" lon="-0.487236">
        <ele>1476.3</ele>
        <time>2018-07-22T10:25:30.000Z</time>
      </trkpt>
      <trkpt lat="42.309432" lon="-0.487239">
        <ele>1476.4</ele>
        <time>2018-07-22T10:25:31.000Z</time>
      </trkpt>
      <trkpt lat="42.309441" lon="-0.487242">
        <ele>1476.5</ele>
        <time>2018-07-22T10:25:32.000Z</time>
      </trkpt>
      <trkpt lat="42.30945" lon="-0.487244">
        <ele>1476.6</ele>
        <time>2018-07-22T10:25:33.000Z</time>
      </trkpt>
      <trkpt lat="42.309459" lon="-0.487246">
        <ele>1476.7</ele>
        <time>2018-07-22T10:25:34.000Z</time>
      </trkpt>
      <trkpt lat="42.309468" lon="-0.487248">
        <ele>1476.8</ele>
        <time>2018-07-22T10:25:35.000Z</time>
      </trkpt>
      <trkpt lat="42.309477" lon="-0.487248">
        <ele>1477.0</ele>
        <time>2018-07-22T10:25:36.000Z</time>
      </trkpt>
      <trkpt lat="42.309485" lon="-0.487248">
        <ele>1477.1</ele>
        <time>2018-07-22T10:25:37.000Z</time>
      </trkpt>
      <trkpt lat="42.309493" lon="-0.487248">
        <ele>1477.2</ele>
        <time>2018-07-22T10:25:38.000Z</time>
      </trkpt>
      <trkpt lat="42.309501" lon="-0.487248">
        <ele>1477.4</ele>
        <time>2018-07-22T10:25:39.000Z</time>
      </trkpt>
      <trkpt lat="42.30951" lon="-0.487251">
        <ele>1477.4</ele>
        <time>2018-07-22T10:25:40.000Z</time>
      </trkpt>
      <trkpt lat="42.309519" lon="-0.487255">
        <ele>1477.5</ele>
        <time>2018-07-22T10:25:41.000Z</time>
      </trkpt>
      <trkpt lat="42.309528" lon="-0.487258">
        <ele>1477.6</ele>
        <time>2018-07-22T10:25:42.000Z</time>
      </trkpt>
      <trkpt lat="42.309537" lon="-0.487261">
        <ele>1477.7</ele>
        <time>2018-07-22T10:25:43.000Z</time>
      </trkpt>
      <trkpt lat="42.309545" lon="-0.487263">
        <ele>1477.8</ele>
        <time>2018-07-22T10:25:44.000Z</time>
      </trkpt>
      <trkpt lat="42.309554" lon="-0.487264">
        <ele>1477.9</ele>
        <time>2018-07-22T10:25:45.000Z</time>
      </trkpt>
      <trkpt lat="42.309563" lon="-0.487265">
        <ele>1478.0</ele>
        <time>2018-07-22T10:25:46.000Z</time>
      </trkpt>
      <trkpt lat="42.309572" lon="-0.487266">
        <ele>1478.2</ele>
        <time>2018-07-22T10:25:47.000Z</time>
      </trkpt>
      <trkpt lat="42.309581" lon="-0.487266">
        <ele>1478.3</ele>
        <time>2018-07-22T10:25:48.000Z</time>
      </trkpt>
      <trkpt lat="42.30959" lon="-0.487267">
        <ele>1478.4</ele>
        <time>2018-07-22T10:25:49.000Z</time>
      </trkpt>
      <trkpt lat="42.309599" lon="-0.487267">
        <ele>1478.6</ele>
        <time>2018-07-22T10:25:50.000Z</time>
      </trkpt>
      <trkpt lat="42.309609" lon="-0.487267">
        <ele>1478.7</ele>
        <time>2018-07-22T10:25:51.000Z</time>
      </trkpt>
      <trkpt lat="42.309618" lon="-0.487268">
        <ele>1478.9</ele>
        <time>2018-07-22T10:25:52.000Z</time>
      </trkpt>
      <trkpt lat="42.309627" lon="-0.487268">
        <ele>1479.0</ele>
        <time>2018-07-22T10:25:53.000Z</time>
      </trkpt>
      <trkpt lat="42.309636" lon="-0.487269">
        <ele>1479.1</ele>
        <time>2018-07-22T10:25:54.000Z</time>
      </trkpt>
      <trkpt lat="42.309645" lon="-0.48727">
        <ele>1479.3</ele>
        <time>2018-07-22T10:25:55.000Z</time>
      </trkpt>
      <trkpt lat="42.309654" lon="-0.48727">
        <ele>1479.4</ele>
        <time>2018-07-22T10:25:56.000Z</time>
      </trkpt>
      <trkpt lat="42.309663" lon="-0.487271">
        <ele>1479.5</ele>
        <time>2018-07-22T10:25:57.000Z</time>
      </trkpt>
      <trkpt lat="42.309672" lon="-0.487272">
        <ele>1479.7</ele>
        <time>2018-07-22T10:25:58.000Z</time>
      </trkpt>
      <trkpt lat="42.309681" lon="-0.487273">
        <ele>1479.8</ele>
        <time>2018-07-22T10:25:59.000Z</time>
      </trkpt>
      <trkpt lat="42.309691" lon="-0.487274">
        <ele>1479.9</ele>
        <time>2018-07-22T10:26:00.000Z</time>
      </trkpt>
      <trkpt lat="42.3097" lon="-0.487275">
        <ele>1480.1</ele>
        <time>2018-07-22T10:26:01.000Z</time>
      </trkpt>
      <trkpt lat="42.309709" lon="-0.487276">
        <ele>1480.2</ele>
        <time>2018-07-22T10:26:02.000Z</time>
      </trkpt>
      <trkpt lat="42.309718" lon="-0.487277">
        <ele>1480.3</ele>
        <time>2018-07-22T10:26:03.000Z</time>
      </trkpt>
      <trkpt lat="42.309727" lon="-0.487278">
        <ele>1480.4</ele>
        <time>2018-07-22T10:26:04.000Z</time>
      </trkpt>
      <trkpt lat="42.309736" lon="-0.48728">
        <ele>1480.5</ele>
        <time>2018-07-22T10:26:05.000Z</time>
      </trkpt>
      <trkpt lat="42.309745" lon="-0.487281">
        <ele>1480.7</ele>
        <time>2018-07-22T10:26:06.000Z</time>
      </trkpt>
      <trkpt lat="42.309754" lon="-0.487282">
        <ele>1480.8</ele>
        <time>2018-07-22T10:26:07.000Z</time>
      </trkpt>
      <trkpt lat="42.309763" lon="-0.487282">
        <ele>1480.9</ele>
        <time>2018-07-22T10:26:08.000Z</time>
      </trkpt>
      <trkpt lat="42.309772" lon="-0.487283">
        <ele>1481.0</ele>
        <time>2018-07-22T10:26:09.000Z</time>
      </trkpt>
      <trkpt lat="42.309781" lon="-0.487284">
        <ele>1481.2</ele>
        <time>2018-07-22T10:26:10.000Z</time>
      </trkpt>
      <trkpt lat="42.30979" lon="-0.487285">
        <ele>1481.3</ele>
        <time>2018-07-22T10:26:11.000Z</time>
      </trkpt>
      <trkpt lat="42.309799" lon="-0.487286">
        <ele>1481.4</ele>
        <time>2018-07-22T10:26:12.000Z</time>
      </trkpt>
      <trkpt lat="42.309808" lon="-0.487286">
        <ele>1481.6</ele>
        <time>2018-07-22T10:26:13.000Z</time>
      </trkpt>
      <trkpt lat="42.309817" lon="-0.487287">
        <ele>1481.7</ele>
        <time>2018-07-22T10:26:14.000Z</time>
      </trkpt>
      <trkpt lat="42.309825" lon="-0.487287">
        <ele>1481.8</ele>
        <time>2018-07-22T10:26:15.000Z</time>
      </trkpt>
      <trkpt lat="42.309834" lon="-0.487287">
        <ele>1482.0</ele>
        <time>2018-07-22T10:26:16.000Z</time>
      </trkpt>
      <trkpt lat="42.309843" lon="-0.487288">
        <ele>1482.1</ele>
        <time>2018-07-22T10:26:17.000Z</time>
      </trkpt>
      <trkpt lat="42.309852" lon="-0.487288">
        <ele>1482.2</ele>
        <time>2018-07-22T10:26:18.000Z</time>
      </trkpt>
      <trkpt lat="42.30986" lon="-0.487288">
        <ele>1482.3</ele>
        <time>2018-07-22T10:26:19.000Z</time>
      </trkpt>
      <trkpt lat="42.309869" lon="-0.487289">
        <ele>1482.5</ele>
        <time>2018-07-22T10:26:20.000Z</time>
      </trkpt>
      <trkpt lat="42.309878" lon="-0.487289">
        <ele>1482.6</ele>
        <time>2018-07-22T10:26:21.000Z</time>
      </trkpt>
      <trkpt lat="42.309886" lon="-0.487289">
        <ele>1482.7</ele>
        <time>2018-07-22T10:26:22.000Z</time>
      </trkpt>
      <trkpt lat="42.309895" lon="-0.487289">
        <ele>1482.9</ele>
        <time>2018-07-22T10:26:23.000Z</time>
      </trkpt>
      <trkpt lat="42.309904" lon="-0.487289">
        <ele>1483.0</ele>
        <time>2018-07-22T10:26:24.000Z</time>
      </trkpt>
      <trkpt lat="42.309914" lon="-0.487289">
        <ele>1483.2</ele>
        <time>2018-07-22T10:26:25.000Z</time>
      </trkpt>
      <trkpt lat="42.309923" lon="-0.487289">
        <ele>1483.3</ele>
        <time>2018-07-22T10:26:26.000Z</time>
      </trkpt>
      <trkpt lat="42.309933" lon="-0.487289">
        <ele>1483.5</ele>
        <time>2018-07-22T10:26:27.000Z</time>
      </trkpt>
      <trkpt lat="42.309943" lon="-0.487289">
        <ele>1483.7</ele>
        <time>2018-07-22T10:26:28.000Z</time>
      </trkpt>
      <trkpt lat="42.309953" lon="-0.487288">
        <ele>1483.8</ele>
        <time>2018-07-22T10:26:29.000Z</time>
      </trkpt>
      <trkpt lat="42.309962" lon="-0.487288">
        <ele>1484.0</ele>
        <time>2018-07-22T10:26:30.000Z</time>
      </trkpt>
      <trkpt lat="42.309972" lon="-0.487287">
        <ele>1484.2</ele>
        <time>2018-07-22T10:26:31.000Z</time>
      </trkpt>
      <trkpt lat="42.309981" lon="-0.487287">
        <ele>1484.3</ele>
        <time>2018-07-22T10:26:32.000Z</time>
      </trkpt>
      <trkpt lat="42.30999" lon="-0.487287">
        <ele>1484.4</ele>
        <time>2018-07-22T10:26:33.000Z</time>
      </trkpt>
      <trkpt lat="42.309998" lon="-0.487286">
        <ele>1484.6</ele>
        <time>2018-07-22T10:26:34.000Z</time>
      </trkpt>
      <trkpt lat="42.310006" lon="-0.487286">
        <ele>1484.7</ele>
        <time>2018-07-22T10:26:35.000Z</time>
      </trkpt>
      <trkpt lat="42.310014" lon="-0.487285">
        <ele>1484.8</ele>
        <time>2018-07-22T10:26:36.000Z</time>
      </trkpt>
      <trkpt lat="42.310022" lon="-0.487283">
        <ele>1484.9</ele>
        <time>2018-07-22T10:26:37.000Z</time>
      </trkpt>
      <trkpt lat="42.31003" lon="-0.487281">
        <ele>1485.0</ele>
        <time>2018-07-22T10:26:38.000Z</time>
      </trkpt>
      <trkpt lat="42.310039" lon="-0.487279">
        <ele>1485.1</ele>
        <time>2018-07-22T10:26:39.000Z</time>
      </trkpt>
      <trkpt lat="42.310048" lon="-0.487277">
        <ele>1485.3</ele>
        <time>2018-07-22T10:26:40.000Z</time>
      </trkpt>
      <trkpt lat="42.310057" lon="-0.487276">
        <ele>1485.4</ele>
        <time>2018-07-22T10:26:41.000Z</time>
      </trkpt>
      <trkpt lat="42.310066" lon="-0.487276">
        <ele>1485.5</ele>
        <time>2018-07-22T10:26:42.000Z</time>
      </trkpt>
      <trkpt lat="42.310075" lon="-0.487276">
        <ele>1485.5</ele>
        <time>2018-07-22T10:26:43.000Z</time>
      </trkpt>
      <trkpt lat="42.310084" lon="-0.487276">
        <ele>1485.6</ele>
        <time>2018-07-22T10:26:44.000Z</time>
      </trkpt>
      <trkpt lat="42.310093" lon="-0.487277">
        <ele>1485.7</ele>
        <time>2018-07-22T10:26:45.000Z</time>
      </trkpt>
      <trkpt lat="42.310102" lon="-0.487276">
        <ele>1485.8</ele>
        <time>2018-07-22T10:26:46.000Z</time>
      </trkpt>
      <trkpt lat="42.31011" lon="-0.487276">
        <ele>1485.9</ele>
        <time>2018-07-22T10:26:47.000Z</time>
      </trkpt>
      <trkpt lat="42.310119" lon="-0.487275">
        <ele>1486.0</ele>
        <time>2018-07-22T10:26:48.000Z</time>
      </trkpt>
      <trkpt lat="42.310127" lon="-0.487274">
        <ele>1486.1</ele>
        <time>2018-07-22T10:26:49.000Z</time>
      </trkpt>
      <trkpt lat="42.310136" lon="-0.487273">
        <ele>1486.2</ele>
        <time>2018-07-22T10:26:50.000Z</time>
      </trkpt>
      <trkpt lat="42.310144" lon="-0.487272">
        <ele>1486.3</ele>
        <time>2018-07-22T10:26:51.000Z</time>
      </trkpt>
      <trkpt lat="42.310153" lon="-0.487271">
        <ele>1486.4</ele>
        <time>2018-07-22T10:26:52.000Z</time>
      </trkpt>
      <trkpt lat="42.310161" lon="-0.487269">
        <ele>1486.5</ele>
        <time>2018-07-22T10:26:53.000Z</time>
      </trkpt>
      <trkpt lat="42.31017" lon="-0.487268">
        <ele>1486.6</ele>
        <time>2018-07-22T10:26:54.000Z</time>
      </trkpt>
      <trkpt lat="42.310178" lon="-0.487267">
        <ele>1486.7</ele>
        <time>2018-07-22T10:26:55.000Z</time>
      </trkpt>
      <trkpt lat="42.310187" lon="-0.487266">
        <ele>1486.8</ele>
        <time>2018-07-22T10:26:56.000Z</time>
      </trkpt>
      <trkpt lat="42.310195" lon="-0.487265">
        <ele>1486.9</ele>
        <time>2018-07-22T10:26:57.000Z</time>
      </trkpt>
      <trkpt lat="42.310204" lon="-0.487265">
        <ele>1487.0</ele>
        <time>2018-07-22T10:26:58.000Z</time>
      </trkpt>
      <trkpt lat="42.310212" lon="-0.487264">
        <ele>1487.1</ele>
        <time>2018-07-22T10:26:59.000Z</time>
      </trkpt>
      <trkpt lat="42.310221" lon="-0.487264">
        <ele>1487.1</ele>
        <time>2018-07-22T10:27:00.000Z</time>
      </trkpt>
      <trkpt lat="42.31023" lon="-0.487264">
        <ele>1487.2</ele>
        <time>2018-07-22T10:27:01.000Z</time>
      </trkpt>
      <trkpt lat="42.310239" lon="-0.487264">
        <ele>1487.3</ele>
        <time>2018-07-22T10:27:02.000Z</time>
      </trkpt>
      <trkpt lat="42.310248" lon="-0.487264">
        <ele>1487.4</ele>
        <time>2018-07-22T10:27:03.000Z</time>
      </trkpt>
      <trkpt lat="42.310257" lon="-0.487264">
        <ele>1487.5</ele>
        <time>2018-07-22T10:27:04.000Z</time>
      </trkpt>
      <trkpt lat="42.310265" lon="-0.487264">
        <ele>1487.6</ele>
        <time>2018-07-22T10:27:05.000Z</time>
      </trkpt>
      <trkpt lat="42.310274" lon="-0.487264">
        <ele>1487.6</ele>
        <time>2018-07-22T10:27:06.000Z</time>
      </trkpt>
      <trkpt lat="42.310283" lon="-0.487264">
        <ele>1487.7</ele>
        <time>2018-07-22T10:27:07.000Z</time>
      </trkpt>
      <trkpt lat="42.310293" lon="-0.487264">
        <ele>1487.8</ele>
        <time>2018-07-22T10:27:08.000Z</time>
      </trkpt>
      <trkpt lat="42.310302" lon="-0.487265">
        <ele>1487.9</ele>
        <time>2018-07-22T10:27:09.000Z</time>
      </trkpt>
      <trkpt lat="42.310311" lon="-0.487265">
        <ele>1488.0</ele>
        <time>2018-07-22T10:27:10.000Z</time>
      </trkpt>
      <trkpt lat="42.31032" lon="-0.487265">
        <ele>1488.0</ele>
        <time>2018-07-22T10:27:11.000Z</time>
      </trkpt>
      <trkpt lat="42.31033" lon="-0.487266">
        <ele>1488.1</ele>
        <time>2018-07-22T10:27:12.000Z</time>
      </trkpt>
      <trkpt lat="42.310339" lon="-0.487267">
        <ele>1488.2</ele>
        <time>2018-07-22T10:27:13.000Z</time>
      </trkpt>
      <trkpt lat="42.310349" lon="-0.487268">
        <ele>1488.2</ele>
        <time>2018-07-22T10:27:14.000Z</time>
      </trkpt>
      <trkpt lat="42.310359" lon="-0.487269">
        <ele>1488.3</ele>
        <time>2018-07-22T10:27:15.000Z</time>
      </trkpt>
      <trkpt lat="42.310368" lon="-0.487271">
        <ele>1488.4</ele>
        <time>2018-07-22T10:27:16.000Z</time>
      </trkpt>
      <trkpt lat="42.310378" lon="-0.487273">
        <ele>1488.4</ele>
        <time>2018-07-22T10:27:17.000Z</time>
      </trkpt>
      <trkpt lat="42.310389" lon="-0.487275">
        <ele>1488.5</ele>
        <time>2018-07-22T10:27:18.000Z</time>
      </trkpt>
      <trkpt lat="42.310399" lon="-0.487278">
        <ele>1488.5</ele>
        <time>2018-07-22T10:27:19.000Z</time>
      </trkpt>
      <trkpt lat="42.310409" lon="-0.48728">
        <ele>1488.5</ele>
        <time>2018-07-22T10:27:20.000Z</time>
      </trkpt>
      <trkpt lat="42.31042" lon="-0.487282">
        <ele>1488.6</ele>
        <time>2018-07-22T10:27:21.000Z</time>
      </trkpt>
      <trkpt lat="42.31043" lon="-0.487281">
        <ele>1488.7</ele>
        <time>2018-07-22T10:27:22.000Z</time>
      </trkpt>
      <trkpt lat="42.31044" lon="-0.48728">
        <ele>1488.8</ele>
        <time>2018-07-22T10:27:23.000Z</time>
      </trkpt>
      <trkpt lat="42.310451" lon="-0.487278">
        <ele>1489.0</ele>
        <time>2018-07-22T10:27:24.000Z</time>
      </trkpt>
      <trkpt lat="42.310461" lon="-0.487277">
        <ele>1489.1</ele>
        <time>2018-07-22T10:27:25.000Z</time>
      </trkpt>
      <trkpt lat="42.310471" lon="-0.487277">
        <ele>1489.2</ele>
        <time>2018-07-22T10:27:26.000Z</time>
      </trkpt>
      <trkpt lat="42.310482" lon="-0.487277">
        <ele>1489.3</ele>
        <time>2018-07-22T10:27:27.000Z</time>
      </trkpt>
      <trkpt lat="42.310492" lon="-0.487277">
        <ele>1489.4</ele>
        <time>2018-07-22T10:27:28.000Z</time>
      </trkpt>
      <trkpt lat="42.310502" lon="-0.487277">
        <ele>1489.5</ele>
        <time>2018-07-22T10:27:29.000Z</time>
      </trkpt>
      <trkpt lat="42.310512" lon="-0.487277">
        <ele>1489.6</ele>
        <time>2018-07-22T10:27:30.000Z</time>
      </trkpt>
      <trkpt lat="42.310522" lon="-0.487277">
        <ele>1489.7</ele>
        <time>2018-07-22T10:27:31.000Z</time>
      </trkpt>
      <trkpt lat="42.310532" lon="-0.487276">
        <ele>1489.8</ele>
        <time>2018-07-22T10:27:32.000Z</time>
      </trkpt>
      <trkpt lat="42.310542" lon="-0.487277">
        <ele>1489.8</ele>
        <time>2018-07-22T10:27:33.000Z</time>
      </trkpt>
      <trkpt lat="42.310552" lon="-0.487277">
        <ele>1489.9</ele>
        <time>2018-07-22T10:27:34.000Z</time>
      </trkpt>
      <trkpt lat="42.310562" lon="-0.487277">
        <ele>1490.0</ele>
        <time>2018-07-22T10:27:35.000Z</time>
      </trkpt>
      <trkpt lat="42.310573" lon="-0.487278">
        <ele>1490.1</ele>
        <time>2018-07-22T10:27:36.000Z</time>
      </trkpt>
      <trkpt lat="42.310583" lon="-0.48728">
        <ele>1490.2</ele>
        <time>2018-07-22T10:27:37.000Z</time>
      </trkpt>
      <trkpt lat="42.310594" lon="-0.487281">
        <ele>1490.2</ele>
        <time>2018-07-22T10:27:38.000Z</time>
      </trkpt>
      <trkpt lat="42.310604" lon="-0.487281">
        <ele>1490.3</ele>
        <time>2018-07-22T10:27:39.000Z</time>
      </trkpt>
      <trkpt lat="42.310615" lon="-0.487281">
        <ele>1490.4</ele>
        <time>2018-07-22T10:27:40.000Z</time>
      </trkpt>
      <trkpt lat="42.310625" lon="-0.48728">
        <ele>1490.6</ele>
        <time>2018-07-22T10:27:41.000Z</time>
      </trkpt>
      <trkpt lat="42.310635" lon="-0.487279">
        <ele>1490.7</ele>
        <time>2018-07-22T10:27:42.000Z</time>
      </trkpt>
      <trkpt lat="42.310646" lon="-0.487276">
        <ele>1490.8</ele>
        <time>2018-07-22T10:27:43.000Z</time>
      </trkpt>
      <trkpt lat="42.310656" lon="-0.487273">
        <ele>1491.0</ele>
        <time>2018-07-22T10:27:44.000Z</time>
      </trkpt>
      <trkpt lat="42.310666" lon="-0.487269">
        <ele>1491.2</ele>
        <time>2018-07-22T10:27:45.000Z</time>
      </trkpt>
      <trkpt lat="42.310676" lon="-0.487266">
        <ele>1491.3</ele>
        <time>2018-07-22T10:27:46.000Z</time>
      </trkpt>
      <trkpt lat="42.310685" lon="-0.487261">
        <ele>1491.5</ele>
        <time>2018-07-22T10:27:47.000Z</time>
      </trkpt>
      <trkpt lat="42.310695" lon="-0.487257">
        <ele>1491.7</ele>
        <time>2018-07-22T10:27:48.000Z</time>
      </trkpt>
      <trkpt lat="42.310705" lon="-0.487253">
        <ele>1491.9</ele>
        <time>2018-07-22T10:27:49.000Z</time>
      </trkpt>
      <trkpt lat="42.310715" lon="-0.487249">
        <ele>1492.0</ele>
        <time>2018-07-22T10:27:50.000Z</time>
      </trkpt>
      <trkpt lat="42.310724" lon="-0.487245">
        <ele>1492.2</ele>
        <time>2018-07-22T10:27:51.000Z</time>
      </trkpt>
      <trkpt lat="42.310734" lon="-0.487242">
        <ele>1492.3</ele>
        <time>2018-07-22T10:27:52.000Z</time>
      </trkpt>
      <trkpt lat="42.310744" lon="-0.487238">
        <ele>1492.5</ele>
        <time>2018-07-22T10:27:53.000Z</time>
      </trkpt>
      <trkpt lat="42.310754" lon="-0.487236">
        <ele>1492.7</ele>
        <time>2018-07-22T10:27:54.000Z</time>
      </trkpt>
      <trkpt lat="42.310763" lon="-0.487233">
        <ele>1492.8</ele>
        <time>2018-07-22T10:27:55.000Z</time>
      </trkpt>
      <trkpt lat="42.310773" lon="-0.48723">
        <ele>1493.0</ele>
        <time>2018-07-22T10:27:56.000Z</time>
      </trkpt>
      <trkpt lat="42.310783" lon="-0.487228">
        <ele>1493.1</ele>
        <time>2018-07-22T10:27:57.000Z</time>
      </trkpt>
      <trkpt lat="42.310793" lon="-0.487226">
        <ele>1493.2</ele>
        <time>2018-07-22T10:27:58.000Z</time>
      </trkpt>
      <trkpt lat="42.310803" lon="-0.487224">
        <ele>1493.4</ele>
        <time>2018-07-22T10:27:59.000Z</time>
      </trkpt>
      <trkpt lat="42.310813" lon="-0.487221">
        <ele>1493.5</ele>
        <time>2018-07-22T10:28:00.000Z</time>
      </trkpt>
      <trkpt lat="42.310823" lon="-0.487219">
        <ele>1493.6</ele>
        <time>2018-07-22T10:28:01.000Z</time>
      </trkpt>
      <trkpt lat="42.310833" lon="-0.487217">
        <ele>1493.8</ele>
        <time>2018-07-22T10:28:02.000Z</time>
      </trkpt>
      <trkpt lat="42.310843" lon="-0.487214">
        <ele>1493.9</ele>
        <time>2018-07-22T10:28:03.000Z</time>
      </trkpt>
      <trkpt lat="42.310854" lon="-0.487212">
        <ele>1494.0</ele>
        <time>2018-07-22T10:28:04.000Z</time>
      </trkpt>
      <trkpt lat="42.310864" lon="-0.48721">
        <ele>1494.1</ele>
        <time>2018-07-22T10:28:05.000Z</time>
      </trkpt>
      <trkpt lat="42.310875" lon="-0.487207">
        <ele>1494.3</ele>
        <time>2018-07-22T10:28:06.000Z</time>
      </trkpt>
      <trkpt lat="42.310885" lon="-0.487205">
        <ele>1494.4</ele>
        <time>2018-07-22T10:28:07.000Z</time>
      </trkpt>
      <trkpt lat="42.310896" lon="-0.487203">
        <ele>1494.5</ele>
        <time>2018-07-22T10:28:08.000Z</time>
      </trkpt>
      <trkpt lat="42.310906" lon="-0.487201">
        <ele>1494.6</ele>
        <time>2018-07-22T10:28:09.000Z</time>
      </trkpt>
      <trkpt lat="42.310917" lon="-0.487199">
        <ele>1494.7</ele>
        <time>2018-07-22T10:28:10.000Z</time>
      </trkpt>
      <trkpt lat="42.310928" lon="-0.487197">
        <ele>1494.8</ele>
        <time>2018-07-22T10:28:11.000Z</time>
      </trkpt>
      <trkpt lat="42.310938" lon="-0.487195">
        <ele>1494.9</ele>
        <time>2018-07-22T10:28:12.000Z</time>
      </trkpt>
      <trkpt lat="42.310949" lon="-0.487194">
        <ele>1495.0</ele>
        <time>2018-07-22T10:28:13.000Z</time>
      </trkpt>
      <trkpt lat="42.31096" lon="-0.487193">
        <ele>1495.1</ele>
        <time>2018-07-22T10:28:14.000Z</time>
      </trkpt>
      <trkpt lat="42.310971" lon="-0.487193">
        <ele>1495.2</ele>
        <time>2018-07-22T10:28:15.000Z</time>
      </trkpt>
      <trkpt lat="42.310982" lon="-0.487192">
        <ele>1495.3</ele>
        <time>2018-07-22T10:28:16.000Z</time>
      </trkpt>
      <trkpt lat="42.310992" lon="-0.487192">
        <ele>1495.3</ele>
        <time>2018-07-22T10:28:17.000Z</time>
      </trkpt>
      <trkpt lat="42.311003" lon="-0.487193">
        <ele>1495.4</ele>
        <time>2018-07-22T10:28:18.000Z</time>
      </trkpt>
      <trkpt lat="42.311014" lon="-0.487194">
        <ele>1495.4</ele>
        <time>2018-07-22T10:28:19.000Z</time>
      </trkpt>
      <trkpt lat="42.311025" lon="-0.487195">
        <ele>1495.5</ele>
        <time>2018-07-22T10:28:20.000Z</time>
      </trkpt>
      <trkpt lat="42.311036" lon="-0.487197">
        <ele>1495.5</ele>
        <time>2018-07-22T10:28:21.000Z</time>
      </trkpt>
      <trkpt lat="42.311047" lon="-0.4872">
        <ele>1495.5</ele>
        <time>2018-07-22T10:28:22.000Z</time>
      </trkpt>
      <trkpt lat="42.311057" lon="-0.487203">
        <ele>1495.6</ele>
        <time>2018-07-22T10:28:23.000Z</time>
      </trkpt>
      <trkpt lat="42.311068" lon="-0.487206">
        <ele>1495.6</ele>
        <time>2018-07-22T10:28:24.000Z</time>
      </trkpt>
      <trkpt lat="42.311079" lon="-0.48721">
        <ele>1495.6</ele>
        <time>2018-07-22T10:28:25.000Z</time>
      </trkpt>
      <trkpt lat="42.31109" lon="-0.487215">
        <ele>1495.5</ele>
        <time>2018-07-22T10:28:26.000Z</time>
      </trkpt>
      <trkpt lat="42.3111" lon="-0.48722">
        <ele>1495.5</ele>
        <time>2018-07-22T10:28:27.000Z</time>
      </trkpt>
      <trkpt lat="42.311111" lon="-0.487225">
        <ele>1495.5</ele>
        <time>2018-07-22T10:28:28.000Z</time>
      </trkpt>
      <trkpt lat="42.311122" lon="-0.48723">
        <ele>1495.5</ele>
        <time>2018-07-22T10:28:29.000Z</time>
      </trkpt>
      <trkpt lat="42.311133" lon="-0.487235">
        <ele>1495.5</ele>
        <time>2018-07-22T10:28:30.000Z</time>
      </trkpt>
      <trkpt lat="42.311144" lon="-0.487241">
        <ele>1495.4</ele>
        <time>2018-07-22T10:28:31.000Z</time>
      </trkpt>
      <trkpt lat="42.311155" lon="-0.487246">
        <ele>1495.4</ele>
        <time>2018-07-22T10:28:32.000Z</time>
      </trkpt>
      <trkpt lat="42.311166" lon="-0.48725">
        <ele>1495.4</ele>
        <time>2018-07-22T10:28:33.000Z</time>
      </trkpt>
      <trkpt lat="42.311177" lon="-0.487255">
        <ele>1495.4</ele>
        <time>2018-07-22T10:28:34.000Z</time>
      </trkpt>
      <trkpt lat="42.311188" lon="-0.487259">
        <ele>1495.4</ele>
        <time>2018-07-22T10:28:35.000Z</time>
      </trkpt>
      <trkpt lat="42.311199" lon="-0.487263">
        <ele>1495.4</ele>
        <time>2018-07-22T10:28:36.000Z</time>
      </trkpt>
      <trkpt lat="42.311211" lon="-0.487267">
        <ele>1495.4</ele>
        <time>2018-07-22T10:28:37.000Z</time>
      </trkpt>
      <trkpt lat="42.311222" lon="-0.48727">
        <ele>1495.4</ele>
        <time>2018-07-22T10:28:38.000Z</time>
      </trkpt>
      <trkpt lat="42.311234" lon="-0.487273">
        <ele>1495.5</ele>
        <time>2018-07-22T10:28:39.000Z</time>
      </trkpt>
      <trkpt lat="42.311245" lon="-0.487277">
        <ele>1495.5</ele>
        <time>2018-07-22T10:28:40.000Z</time>
      </trkpt>
      <trkpt lat="42.311257" lon="-0.48728">
        <ele>1495.5</ele>
        <time>2018-07-22T10:28:41.000Z</time>
      </trkpt>
      <trkpt lat="42.311269" lon="-0.487283">
        <ele>1495.5</ele>
        <time>2018-07-22T10:28:42.000Z</time>
      </trkpt>
      <trkpt lat="42.31128" lon="-0.487287">
        <ele>1495.5</ele>
        <time>2018-07-22T10:28:43.000Z</time>
      </trkpt>
      <trkpt lat="42.311292" lon="-0.487291">
        <ele>1495.6</ele>
        <time>2018-07-22T10:28:44.000Z</time>
      </trkpt>
      <trkpt lat="42.311304" lon="-0.487295">
        <ele>1495.6</ele>
        <time>2018-07-22T10:28:45.000Z</time>
      </trkpt>
      <trkpt lat="42.311316" lon="-0.487299">
        <ele>1495.6</ele>
        <time>2018-07-22T10:28:46.000Z</time>
      </trkpt>
      <trkpt lat="42.311328" lon="-0.487303">
        <ele>1495.6</ele>
        <time>2018-07-22T10:28:47.000Z</time>
      </trkpt>
      <trkpt lat="42.311339" lon="-0.487307">
        <ele>1495.6</ele>
        <time>2018-07-22T10:28:48.000Z</time>
      </trkpt>
      <trkpt lat="42.311351" lon="-0.48731">
        <ele>1495.7</ele>
        <time>2018-07-22T10:28:49.000Z</time>
      </trkpt>
      <trkpt lat="42.311363" lon="-0.487312">
        <ele>1495.7</ele>
        <time>2018-07-22T10:28:50.000Z</time>
      </trkpt>
      <trkpt lat="42.311375" lon="-0.487313">
        <ele>1495.8</ele>
        <time>2018-07-22T10:28:51.000Z</time>
      </trkpt>
      <trkpt lat="42.311386" lon="-0.487313">
        <ele>1495.9</ele>
        <time>2018-07-22T10:28:52.000Z</time>
      </trkpt>
      <trkpt lat="42.311398" lon="-0.487312">
        <ele>1496.0</ele>
        <time>2018-07-22T10:28:53.000Z</time>
      </trkpt>
      <trkpt lat="42.31141" lon="-0.487311">
        <ele>1496.1</ele>
        <time>2018-07-22T10:28:54.000Z</time>
      </trkpt>
      <trkpt lat="42.311422" lon="-0.48731">
        <ele>1496.2</ele>
        <time>2018-07-22T10:28:55.000Z</time>
      </trkpt>
      <trkpt lat="42.311433" lon="-0.487309">
        <ele>1496.3</ele>
        <time>2018-07-22T10:28:56.000Z</time>
      </trkpt>
      <trkpt lat="42.311445" lon="-0.487309">
        <ele>1496.4</ele>
        <time>2018-07-22T10:28:57.000Z</time>
      </trkpt>
      <trkpt lat="42.311457" lon="-0.487309">
        <ele>1496.4</ele>
        <time>2018-07-22T10:28:58.000Z</time>
      </trkpt>
      <trkpt lat="42.311469" lon="-0.487309">
        <ele>1496.5</ele>
        <time>2018-07-22T10:28:59.000Z</time>
      </trkpt>
      <trkpt lat="42.311481" lon="-0.487308">
        <ele>1496.6</ele>
        <time>2018-07-22T10:29:00.000Z</time>
      </trkpt>
      <trkpt lat="42.311493" lon="-0.487308">
        <ele>1496.7</ele>
        <time>2018-07-22T10:29:01.000Z</time>
      </trkpt>
      <trkpt lat="42.311504" lon="-0.487308">
        <ele>1496.8</ele>
        <time>2018-07-22T10:29:02.000Z</time>
      </trkpt>
      <trkpt lat="42.311515" lon="-0.487307">
        <ele>1496.9</ele>
        <time>2018-07-22T10:29:03.000Z</time>
      </trkpt>
      <trkpt lat="42.311526" lon="-0.487306">
        <ele>1497.0</ele>
        <time>2018-07-22T10:29:04.000Z</time>
      </trkpt>
      <trkpt lat="42.311537" lon="-0.487305">
        <ele>1497.1</ele>
        <time>2018-07-22T10:29:05.000Z</time>
      </trkpt>
      <trkpt lat="42.311547" lon="-0.487303">
        <ele>1497.2</ele>
        <time>2018-07-22T10:29:06.000Z</time>
      </trkpt>
      <trkpt lat="42.311557" lon="-0.487301">
        <ele>1497.3</ele>
        <time>2018-07-22T10:29:07.000Z</time>
      </trkpt>
      <trkpt lat="42.311567" lon="-0.487298">
        <ele>1497.4</ele>
        <time>2018-07-22T10:29:08.000Z</time>
      </trkpt>
      <trkpt lat="42.311576" lon="-0.487295">
        <ele>1497.5</ele>
        <time>2018-07-22T10:29:09.000Z</time>
      </trkpt>
      <trkpt lat="42.311585" lon="-0.487291">
        <ele>1497.7</ele>
        <time>2018-07-22T10:29:10.000Z</time>
      </trkpt>
      <trkpt lat="42.311594" lon="-0.487287">
        <ele>1497.8</ele>
        <time>2018-07-22T10:29:11.000Z</time>
      </trkpt>
      <trkpt lat="42.311603" lon="-0.487284">
        <ele>1497.9</ele>
        <time>2018-07-22T10:29:12.000Z</time>
      </trkpt>
      <trkpt lat="42.311612" lon="-0.48728">
        <ele>1498.0</ele>
        <time>2018-07-22T10:29:13.000Z</time>
      </trkpt>
      <trkpt lat="42.311621" lon="-0.487276">
        <ele>1498.2</ele>
        <time>2018-07-22T10:29:14.000Z</time>
      </trkpt>
      <trkpt lat="42.311631" lon="-0.487273">
        <ele>1498.3</ele>
        <time>2018-07-22T10:29:15.000Z</time>
      </trkpt>
      <trkpt lat="42.31164" lon="-0.48727">
        <ele>1498.4</ele>
        <time>2018-07-22T10:29:16.000Z</time>
      </trkpt>
      <trkpt lat="42.31165" lon="-0.487267">
        <ele>1498.5</ele>
        <time>2018-07-22T10:29:17.000Z</time>
      </trkpt>
      <trkpt lat="42.311661" lon="-0.487265">
        <ele>1498.6</ele>
        <time>2018-07-22T10:29:18.000Z</time>
      </trkpt>
      <trkpt lat="42.311671" lon="-0.487263">
        <ele>1498.7</ele>
        <time>2018-07-22T10:29:19.000Z</time>
      </trkpt>
      <trkpt lat="42.311683" lon="-0.487262">
        <ele>1498.7</ele>
        <time>2018-07-22T10:29:20.000Z</time>
      </trkpt>
      <trkpt lat="42.311694" lon="-0.48726">
        <ele>1498.8</ele>
        <time>2018-07-22T10:29:21.000Z</time>
      </trkpt>
      <trkpt lat="42.311706" lon="-0.48726">
        <ele>1498.8</ele>
        <time>2018-07-22T10:29:22.000Z</time>
      </trkpt>
      <trkpt lat="42.311717" lon="-0.487259">
        <ele>1498.8</ele>
        <time>2018-07-22T10:29:23.000Z</time>
      </trkpt>
      <trkpt lat="42.31173" lon="-0.487258">
        <ele>1498.8</ele>
        <time>2018-07-22T10:29:24.000Z</time>
      </trkpt>
      <trkpt lat="42.311742" lon="-0.487258">
        <ele>1498.8</ele>
        <time>2018-07-22T10:29:25.000Z</time>
      </trkpt>
      <trkpt lat="42.311754" lon="-0.487258">
        <ele>1498.8</ele>
        <time>2018-07-22T10:29:26.000Z</time>
      </trkpt>
      <trkpt lat="42.311766" lon="-0.487257">
        <ele>1498.8</ele>
        <time>2018-07-22T10:29:27.000Z</time>
      </trkpt>
      <trkpt lat="42.311778" lon="-0.487256">
        <ele>1498.8</ele>
        <time>2018-07-22T10:29:28.000Z</time>
      </trkpt>
      <trkpt lat="42.31179" lon="-0.487256">
        <ele>1498.8</ele>
        <time>2018-07-22T10:29:29.000Z</time>
      </trkpt>
      <trkpt lat="42.311802" lon="-0.487255">
        <ele>1498.9</ele>
        <time>2018-07-22T10:29:30.000Z</time>
      </trkpt>
      <trkpt lat="42.311814" lon="-0.487254">
        <ele>1498.9</ele>
        <time>2018-07-22T10:29:31.000Z</time>
      </trkpt>
      <trkpt lat="42.311826" lon="-0.487253">
        <ele>1498.9</ele>
        <time>2018-07-22T10:29:32.000Z</time>
      </trkpt>
      <trkpt lat="42.311838" lon="-0.487252">
        <ele>1498.9</ele>
        <time>2018-07-22T10:29:33.000Z</time>
      </trkpt>
      <trkpt lat="42.31185" lon="-0.487251">
        <ele>1498.9</ele>
        <time>2018-07-22T10:29:34.000Z</time>
      </trkpt>
      <trkpt lat="42.311861" lon="-0.487249">
        <ele>1499.0</ele>
        <time>2018-07-22T10:29:35.000Z</time>
      </trkpt>
      <trkpt lat="42.311873" lon="-0.487248">
        <ele>1499.0</ele>
        <time>2018-07-22T10:29:36.000Z</time>
      </trkpt>
      <trkpt lat="42.311885" lon="-0.487247">
        <ele>1499.0</ele>
        <time>2018-07-22T10:29:37.000Z</time>
      </trkpt>
      <trkpt lat="42.311896" lon="-0.487245">
        <ele>1499.0</ele>
        <time>2018-07-22T10:29:38.000Z</time>
      </trkpt>
      <trkpt lat="42.311907" lon="-0.487244">
        <ele>1499.0</ele>
        <time>2018-07-22T10:29:39.000Z</time>
      </trkpt>
      <trkpt lat="42.311919" lon="-0.487242">
        <ele>1499.1</ele>
        <time>2018-07-22T10:29:40.000Z</time>
      </trkpt>
      <trkpt lat="42.31193" lon="-0.48724">
        <ele>1499.1</ele>
        <time>2018-07-22T10:29:41.000Z</time>
      </trkpt>
      <trkpt lat="42.311941" lon="-0.487239">
        <ele>1499.1</ele>
        <time>2018-07-22T10:29:42.000Z</time>
      </trkpt>
      <trkpt lat="42.311952" lon="-0.487237">
        <ele>1499.1</ele>
        <time>2018-07-22T10:29:43.000Z</time>
      </trkpt>
      <trkpt lat="42.311963" lon="-0.487235">
        <ele>1499.2</ele>
        <time>2018-07-22T10:29:44.000Z</time>
      </trkpt>
      <trkpt lat="42.311974" lon="-0.487233">
        <ele>1499.2</ele>
        <time>2018-07-22T10:29:45.000Z</time>
      </trkpt>
      <trkpt lat="42.311984" lon="-0.487232">
        <ele>1499.2</ele>
        <time>2018-07-22T10:29:46.000Z</time>
      </trkpt>
      <trkpt lat="42.311995" lon="-0.48723">
        <ele>1499.2</ele>
        <time>2018-07-22T10:29:47.000Z</time>
      </trkpt>
      <trkpt lat="42.312005" lon="-0.487228">
        <ele>1499.3</ele>
        <time>2018-07-22T10:29:48.000Z</time>
      </trkpt>
      <trkpt lat="42.312016" lon="-0.487226">
        <ele>1499.3</ele>
        <time>2018-07-22T10:29:49.000Z</time>
      </trkpt>
      <trkpt lat="42.312026" lon="-0.487224">
        <ele>1499.3</ele>
        <time>2018-07-22T10:29:50.000Z</time>
      </trkpt>
      <trkpt lat="42.312036" lon="-0.487223">
        <ele>1499.3</ele>
        <time>2018-07-22T10:29:51.000Z</time>
      </trkpt>
      <trkpt lat="42.312046" lon="-0.487221">
        <ele>1499.3</ele>
        <time>2018-07-22T10:29:52.000Z</time>
      </trkpt>
      <trkpt lat="42.312057" lon="-0.487219">
        <ele>1499.4</ele>
        <time>2018-07-22T10:29:53.000Z</time>
      </trkpt>
      <trkpt lat="42.312067" lon="-0.487216">
        <ele>1499.4</ele>
        <time>2018-07-22T10:29:54.000Z</time>
      </trkpt>
      <trkpt lat="42.312077" lon="-0.487214">
        <ele>1499.4</ele>
        <time>2018-07-22T10:29:55.000Z</time>
      </trkpt>
      <trkpt lat="42.312087" lon="-0.487211">
        <ele>1499.5</ele>
        <time>2018-07-22T10:29:56.000Z</time>
      </trkpt>
      <trkpt lat="42.312098" lon="-0.487209">
        <ele>1499.5</ele>
        <time>2018-07-22T10:29:57.000Z</time>
      </trkpt>
      <trkpt lat="42.312108" lon="-0.487206">
        <ele>1499.5</ele>
        <time>2018-07-22T10:29:58.000Z</time>
      </trkpt>
      <trkpt lat="42.312119" lon="-0.487204">
        <ele>1499.5</ele>
        <time>2018-07-22T10:29:59.000Z</time>
      </trkpt>
      <trkpt lat="42.312129" lon="-0.487202">
        <ele>1499.6</ele>
        <time>2018-07-22T10:30:00.000Z</time>
      </trkpt>
      <trkpt lat="42.312139" lon="-0.487201">
        <ele>1499.6</ele>
        <time>2018-07-22T10:30:01.000Z</time>
      </trkpt>
      <trkpt lat="42.312149" lon="-0.487201">
        <ele>1499.6</ele>
        <time>2018-07-22T10:30:02.000Z</time>
      </trkpt>
      <trkpt lat="42.312158" lon="-0.487201">
        <ele>1499.6</ele>
        <time>2018-07-22T10:30:03.000Z</time>
      </trkpt>
      <trkpt lat="42.312168" lon="-0.487201">
        <ele>1499.6</ele>
        <time>2018-07-22T10:30:04.000Z</time>
      </trkpt>
      <trkpt lat="42.312177" lon="-0.487203">
        <ele>1499.5</ele>
        <time>2018-07-22T10:30:05.000Z</time>
      </trkpt>
      <trkpt lat="42.312186" lon="-0.487205">
        <ele>1499.5</ele>
        <time>2018-07-22T10:30:06.000Z</time>
      </trkpt>
      <trkpt lat="42.312195" lon="-0.487207">
        <ele>1499.5</ele>
        <time>2018-07-22T10:30:07.000Z</time>
      </trkpt>
      <trkpt lat="42.312204" lon="-0.487211">
        <ele>1499.5</ele>
        <time>2018-07-22T10:30:08.000Z</time>
      </trkpt>
      <trkpt lat="42.312212" lon="-0.487215">
        <ele>1499.4</ele>
        <time>2018-07-22T10:30:09.000Z</time>
      </trkpt>
      <trkpt lat="42.312221" lon="-0.487219">
        <ele>1499.4</ele>
        <time>2018-07-22T10:30:10.000Z</time>
      </trkpt>
      <trkpt lat="42.31223" lon="-0.487224">
        <ele>1499.3</ele>
        <time>2018-07-22T10:30:11.000Z</time>
      </trkpt>
      <trkpt lat="42.312238" lon="-0.48723">
        <ele>1499.3</ele>
        <time>2018-07-22T10:30:12.000Z</time>
      </trkpt>
      <trkpt lat="42.312247" lon="-0.487237">
        <ele>1499.2</ele>
        <time>2018-07-22T10:30:13.000Z</time>
      </trkpt>
      <trkpt lat="42.312255" lon="-0.487243">
        <ele>1499.1</ele>
        <time>2018-07-22T10:30:14.000Z</time>
      </trkpt>
      <trkpt lat="42.312263" lon="-0.48725">
        <ele>1499.0</ele>
        <time>2018-07-22T10:30:15.000Z</time>
      </trkpt>
      <trkpt lat="42.31227" lon="-0.487257">
        <ele>1499.0</ele>
        <time>2018-07-22T10:30:16.000Z</time>
      </trkpt>
      <trkpt lat="42.312277" lon="-0.487263">
        <ele>1498.9</ele>
        <time>2018-07-22T10:30:17.000Z</time>
      </trkpt>
      <trkpt lat="42.312283" lon="-0.487269">
        <ele>1498.9</ele>
        <time>2018-07-22T10:30:18.000Z</time>
      </trkpt>
      <trkpt lat="42.312289" lon="-0.487275">
        <ele>1498.8</ele>
        <time>2018-07-22T10:30:19.000Z</time>
      </trkpt>
      <trkpt lat="42.312294" lon="-0.48728">
        <ele>1498.7</ele>
        <time>2018-07-22T10:30:20.000Z</time>
      </trkpt>
      <trkpt lat="42.312297" lon="-0.487284">
        <ele>1498.7</ele>
        <time>2018-07-22T10:30:21.000Z</time>
      </trkpt>
      <trkpt lat="42.3123" lon="-0.487287">
        <ele>1498.7</ele>
        <time>2018-07-22T10:30:22.000Z</time>
      </trkpt>
      <trkpt lat="42.312301" lon="-0.487288">
        <ele>1498.7</ele>
        <time>2018-07-22T10:30:23.000Z</time>
      </trkpt>
      <trkpt lat="42.312302" lon="-0.487289">
        <ele>1498.7</ele>
        <time>2018-07-22T10:30:24.000Z</time>
      </trkpt>
      <trkpt lat="42.312302" lon="-0.48729">
        <ele>1498.6</ele>
        <time>2018-07-22T10:30:25.000Z</time>
      </trkpt>
      <trkpt lat="42.312302" lon="-0.48729">
        <ele>1498.6</ele>
        <time>2018-07-22T10:30:26.000Z</time>
      </trkpt>
      <trkpt lat="42.312301" lon="-0.48729">
        <ele>1498.6</ele>
        <time>2018-07-22T10:30:27.000Z</time>
      </trkpt>
      <trkpt lat="42.312302" lon="-0.487291">
        <ele>1498.6</ele>
        <time>2018-07-22T10:30:28.000Z</time>
      </trkpt>
      <trkpt lat="42.312302" lon="-0.487292">
        <ele>1498.6</ele>
        <time>2018-07-22T10:30:29.000Z</time>
      </trkpt>
      <trkpt lat="42.312303" lon="-0.487293">
        <ele>1498.6</ele>
        <time>2018-07-22T10:30:30.000Z</time>
      </trkpt>
      <trkpt lat="42.312304" lon="-0.487298">
        <ele>1498.6</ele>
        <time>2018-07-22T10:37:56.000Z</time>
      </trkpt>
      <trkpt lat="42.312311" lon="-0.487298">
        <ele>1498.6</ele>
        <time>2018-07-22T10:37:57.000Z</time>
      </trkpt>
      <trkpt lat="42.31232" lon="-0.487299">
        <ele>1498.6</ele>
        <time>2018-07-22T10:37:58.000Z</time>
      </trkpt>
      <trkpt lat="42.31233" lon="-0.4873">
        <ele>1498.6</ele>
        <time>2018-07-22T10:37:59.000Z</time>
      </trkpt>
      <trkpt lat="42.312341" lon="-0.487298">
        <ele>1498.6</ele>
        <time>2018-07-22T10:38:00.000Z</time>
      </trkpt>
      <trkpt lat="42.312354" lon="-0.487296">
        <ele>1498.6</ele>
        <time>2018-07-22T10:38:01.000Z</time>
      </trkpt>
      <trkpt lat="42.312368" lon="-0.487293">
        <ele>1498.7</ele>
        <time>2018-07-22T10:38:02.000Z</time>
      </trkpt>
      <trkpt lat="42.312381" lon="-0.487291">
        <ele>1498.7</ele>
        <time>2018-07-22T10:38:03.000Z</time>
      </trkpt>
      <trkpt lat="42.312394" lon="-0.487289">
        <ele>1498.7</ele>
        <time>2018-07-22T10:38:04.000Z</time>
      </trkpt>
      <trkpt lat="42.312405" lon="-0.487289">
        <ele>1498.7</ele>
        <time>2018-07-22T10:38:05.000Z</time>
      </trkpt>
      <trkpt lat="42.312416" lon="-0.48729">
        <ele>1498.7</ele>
        <time>2018-07-22T10:38:06.000Z</time>
      </trkpt>
      <trkpt lat="42.312426" lon="-0.487292">
        <ele>1498.7</ele>
        <time>2018-07-22T10:38:07.000Z</time>
      </trkpt>
      <trkpt lat="42.312436" lon="-0.487294">
        <ele>1498.7</ele>
        <time>2018-07-22T10:38:08.000Z</time>
      </trkpt>
      <trkpt lat="42.312447" lon="-0.487295">
        <ele>1498.7</ele>
        <time>2018-07-22T10:38:09.000Z</time>
      </trkpt>
      <trkpt lat="42.312459" lon="-0.487296">
        <ele>1498.7</ele>
        <time>2018-07-22T10:38:10.000Z</time>
      </trkpt>
      <trkpt lat="42.312472" lon="-0.487296">
        <ele>1498.7</ele>
        <time>2018-07-22T10:38:11.000Z</time>
      </trkpt>
      <trkpt lat="42.312486" lon="-0.487296">
        <ele>1498.7</ele>
        <time>2018-07-22T10:38:12.000Z</time>
      </trkpt>
      <trkpt lat="42.3125" lon="-0.487296">
        <ele>1498.7</ele>
        <time>2018-07-22T10:38:13.000Z</time>
      </trkpt>
      <trkpt lat="42.312505" lon="-0.487295">
        <ele>1498.7</ele>
        <time>2018-07-22T10:38:14.000Z</time>
      </trkpt>
      <trkpt lat="42.312511" lon="-0.487296">
        <ele>1498.6</ele>
        <time>2018-07-22T10:38:15.000Z</time>
      </trkpt>
      <trkpt lat="42.312521" lon="-0.4873">
        <ele>1498.5</ele>
        <time>2018-07-22T10:38:16.000Z</time>
      </trkpt>
      <trkpt lat="42.312532" lon="-0.487305">
        <ele>1498.4</ele>
        <time>2018-07-22T10:38:17.000Z</time>
      </trkpt>
      <trkpt lat="42.312545" lon="-0.487312">
        <ele>1498.2</ele>
        <time>2018-07-22T10:38:18.000Z</time>
      </trkpt>
      <trkpt lat="42.312559" lon="-0.487319">
        <ele>1498.1</ele>
        <time>2018-07-22T10:38:19.000Z</time>
      </trkpt>
      <trkpt lat="42.312573" lon="-0.487326">
        <ele>1497.9</ele>
        <time>2018-07-22T10:38:20.000Z</time>
      </trkpt>
      <trkpt lat="42.312587" lon="-0.487332">
        <ele>1497.7</ele>
        <time>2018-07-22T10:38:21.000Z</time>
      </trkpt>
      <trkpt lat="42.3126" lon="-0.487337">
        <ele>1497.6</ele>
        <time>2018-07-22T10:38:22.000Z</time>
      </trkpt>
      <trkpt lat="42.312613" lon="-0.48734">
        <ele>1497.4</ele>
        <time>2018-07-22T10:38:23.000Z</time>
      </trkpt>
      <trkpt lat="42.312625" lon="-0.487339">
        <ele>1497.4</ele>
        <time>2018-07-22T10:38:24.000Z</time>
      </trkpt>
      <trkpt lat="42.312636" lon="-0.487335">
        <ele>1497.3</ele>
        <time>2018-07-22T10:38:25.000Z</time>
      </trkpt>
      <trkpt lat="42.312646" lon="-0.487326">
        <ele>1497.3</ele>
        <time>2018-07-22T10:38:26.000Z</time>
      </trkpt>
      <trkpt lat="42.312656" lon="-0.487314">
        <ele>1497.4</ele>
        <time>2018-07-22T10:38:27.000Z</time>
      </trkpt>
      <trkpt lat="42.312665" lon="-0.4873">
        <ele>1497.4</ele>
        <time>2018-07-22T10:38:28.000Z</time>
      </trkpt>
      <trkpt lat="42.312675" lon="-0.487285">
        <ele>1497.5</ele>
        <time>2018-07-22T10:38:29.000Z</time>
      </trkpt>
      <trkpt lat="42.312685" lon="-0.487273">
        <ele>1497.6</ele>
        <time>2018-07-22T10:38:30.000Z</time>
      </trkpt>
      <trkpt lat="42.312696" lon="-0.487263">
        <ele>1497.6</ele>
        <time>2018-07-22T10:38:31.000Z</time>
      </trkpt>
      <trkpt lat="42.312707" lon="-0.487256">
        <ele>1497.6</ele>
        <time>2018-07-22T10:38:32.000Z</time>
      </trkpt>
      <trkpt lat="42.312717" lon="-0.487252">
        <ele>1497.5</ele>
        <time>2018-07-22T10:38:33.000Z</time>
      </trkpt>
      <trkpt lat="42.312727" lon="-0.48725">
        <ele>1497.5</ele>
        <time>2018-07-22T10:38:34.000Z</time>
      </trkpt>
      <trkpt lat="42.312737" lon="-0.48725">
        <ele>1497.4</ele>
        <time>2018-07-22T10:38:35.000Z</time>
      </trkpt>
      <trkpt lat="42.312747" lon="-0.487253">
        <ele>1497.3</ele>
        <time>2018-07-22T10:38:36.000Z</time>
      </trkpt>
      <trkpt lat="42.312757" lon="-0.487256">
        <ele>1497.2</ele>
        <time>2018-07-22T10:38:37.000Z</time>
      </trkpt>
      <trkpt lat="42.312766" lon="-0.487261">
        <ele>1497.1</ele>
        <time>2018-07-22T10:38:38.000Z</time>
      </trkpt>
      <trkpt lat="42.312774" lon="-0.487267">
        <ele>1497.0</ele>
        <time>2018-07-22T10:38:39.000Z</time>
      </trkpt>
      <trkpt lat="42.312782" lon="-0.487274">
        <ele>1496.8</ele>
        <time>2018-07-22T10:38:40.000Z</time>
      </trkpt>
      <trkpt lat="42.31279" lon="-0.487281">
        <ele>1496.7</ele>
        <time>2018-07-22T10:38:41.000Z</time>
      </trkpt>
      <trkpt lat="42.312797" lon="-0.487288">
        <ele>1496.6</ele>
        <time>2018-07-22T10:38:42.000Z</time>
      </trkpt>
      <trkpt lat="42.312803" lon="-0.487295">
        <ele>1496.4</ele>
        <time>2018-07-22T10:38:43.000Z</time>
      </trkpt>
      <trkpt lat="42.31281" lon="-0.487302">
        <ele>1496.3</ele>
        <time>2018-07-22T10:38:44.000Z</time>
      </trkpt>
      <trkpt lat="42.312818" lon="-0.487308">
        <ele>1496.2</ele>
        <time>2018-07-22T10:38:45.000Z</time>
      </trkpt>
      <trkpt lat="42.312826" lon="-0.487313">
        <ele>1496.1</ele>
        <time>2018-07-22T10:38:46.000Z</time>
      </trkpt>
      <trkpt lat="42.312836" lon="-0.487318">
        <ele>1495.9</ele>
        <time>2018-07-22T10:38:47.000Z</time>
      </trkpt>
      <trkpt lat="42.312847" lon="-0.487321">
        <ele>1495.8</ele>
        <time>2018-07-22T10:38:48.000Z</time>
      </trkpt>
      <trkpt lat="42.312859" lon="-0.487323">
        <ele>1495.7</ele>
        <time>2018-07-22T10:38:49.000Z</time>
      </trkpt>
      <trkpt lat="42.312869" lon="-0.487323">
        <ele>1495.6</ele>
        <time>2018-07-22T10:38:50.000Z</time>
      </trkpt>
      <trkpt lat="42.312878" lon="-0.487322">
        <ele>1495.5</ele>
        <time>2018-07-22T10:38:51.000Z</time>
      </trkpt>
      <trkpt lat="42.312887" lon="-0.487319">
        <ele>1495.5</ele>
        <time>2018-07-22T10:38:52.000Z</time>
      </trkpt>
      <trkpt lat="42.312896" lon="-0.487318">
        <ele>1495.5</ele>
        <time>2018-07-22T10:38:53.000Z</time>
      </trkpt>
      <trkpt lat="42.312907" lon="-0.487316">
        <ele>1495.4</ele>
        <time>2018-07-22T10:38:54.000Z</time>
      </trkpt>
      <trkpt lat="42.312919" lon="-0.487316">
        <ele>1495.3</ele>
        <time>2018-07-22T10:38:55.000Z</time>
      </trkpt>
      <trkpt lat="42.312932" lon="-0.487315">
        <ele>1495.2</ele>
        <time>2018-07-22T10:38:56.000Z</time>
      </trkpt>
      <trkpt lat="42.312944" lon="-0.487314">
        <ele>1495.1</ele>
        <time>2018-07-22T10:38:57.000Z</time>
      </trkpt>
      <trkpt lat="42.312957" lon="-0.487313">
        <ele>1495.0</ele>
        <time>2018-07-22T10:38:58.000Z</time>
      </trkpt>
      <trkpt lat="42.31297" lon="-0.487311">
        <ele>1495.0</ele>
        <time>2018-07-22T10:38:59.000Z</time>
      </trkpt>
      <trkpt lat="42.312982" lon="-0.487309">
        <ele>1494.9</ele>
        <time>2018-07-22T10:39:00.000Z</time>
      </trkpt>
      <trkpt lat="42.312994" lon="-0.487308">
        <ele>1494.8</ele>
        <time>2018-07-22T10:39:01.000Z</time>
      </trkpt>
      <trkpt lat="42.313006" lon="-0.487306">
        <ele>1494.8</ele>
        <time>2018-07-22T10:39:02.000Z</time>
      </trkpt>
      <trkpt lat="42.313018" lon="-0.487305">
        <ele>1494.7</ele>
        <time>2018-07-22T10:39:03.000Z</time>
      </trkpt>
      <trkpt lat="42.31303" lon="-0.487304">
        <ele>1494.6</ele>
        <time>2018-07-22T10:39:04.000Z</time>
      </trkpt>
      <trkpt lat="42.313042" lon="-0.487304">
        <ele>1494.5</ele>
        <time>2018-07-22T10:39:05.000Z</time>
      </trkpt>
      <trkpt lat="42.313053" lon="-0.487305">
        <ele>1494.4</ele>
        <time>2018-07-22T10:39:06.000Z</time>
      </trkpt>
      <trkpt lat="42.313064" lon="-0.487306">
        <ele>1494.3</ele>
        <time>2018-07-22T10:39:07.000Z</time>
      </trkpt>
      <trkpt lat="42.313076" lon="-0.487309">
        <ele>1494.2</ele>
        <time>2018-07-22T10:39:08.000Z</time>
      </trkpt>
      <trkpt lat="42.313087" lon="-0.487313">
        <ele>1494.0</ele>
        <time>2018-07-22T10:39:09.000Z</time>
      </trkpt>
      <trkpt lat="42.313098" lon="-0.487317">
        <ele>1493.9</ele>
        <time>2018-07-22T10:39:10.000Z</time>
      </trkpt>
      <trkpt lat="42.313109" lon="-0.487321">
        <ele>1493.8</ele>
        <time>2018-07-22T10:39:11.000Z</time>
      </trkpt>
      <trkpt lat="42.313121" lon="-0.487324">
        <ele>1493.6</ele>
        <time>2018-07-22T10:39:12.000Z</time>
      </trkpt>
      <trkpt lat="42.313133" lon="-0.487326">
        <ele>1493.5</ele>
        <time>2018-07-22T10:39:13.000Z</time>
      </trkpt>
      <trkpt lat="42.313145" lon="-0.487327">
        <ele>1493.4</ele>
        <time>2018-07-22T10:39:14.000Z</time>
      </trkpt>
      <trkpt lat="42.313158" lon="-0.487325">
        <ele>1493.3</ele>
        <time>2018-07-22T10:39:15.000Z</time>
      </trkpt>
      <trkpt lat="42.31317" lon="-0.487322">
        <ele>1493.3</ele>
        <time>2018-07-22T10:39:16.000Z</time>
      </trkpt>
      <trkpt lat="42.313184" lon="-0.487318">
        <ele>1493.2</ele>
        <time>2018-07-22T10:39:17.000Z</time>
      </trkpt>
      <trkpt lat="42.313197" lon="-0.487313">
        <ele>1493.2</ele>
        <time>2018-07-22T10:39:18.000Z</time>
      </trkpt>
      <trkpt lat="42.31321" lon="-0.487308">
        <ele>1493.2</ele>
        <time>2018-07-22T10:39:19.000Z</time>
      </trkpt>
      <trkpt lat="42.313224" lon="-0.487303">
        <ele>1493.1</ele>
        <time>2018-07-22T10:39:20.000Z</time>
      </trkpt>
      <trkpt lat="42.313237" lon="-0.487298">
        <ele>1493.1</ele>
        <time>2018-07-22T10:39:21.000Z</time>
      </trkpt>
      <trkpt lat="42.313251" lon="-0.487294">
        <ele>1493.1</ele>
        <time>2018-07-22T10:39:22.000Z</time>
      </trkpt>
      <trkpt lat="42.313264" lon="-0.487291">
        <ele>1493.0</ele>
        <time>2018-07-22T10:39:23.000Z</time>
      </trkpt>
      <trkpt lat="42.313277" lon="-0.487289">
        <ele>1493.0</ele>
        <time>2018-07-22T10:39:24.000Z</time>
      </trkpt>
      <trkpt lat="42.31329" lon="-0.487289">
        <ele>1492.9</ele>
        <time>2018-07-22T10:39:25.000Z</time>
      </trkpt>
      <trkpt lat="42.313303" lon="-0.48729">
        <ele>1492.8</ele>
        <time>2018-07-22T10:39:26.000Z</time>
      </trkpt>
      <trkpt lat="42.313315" lon="-0.487291">
        <ele>1492.6</ele>
        <time>2018-07-22T10:39:27.000Z</time>
      </trkpt>
      <trkpt lat="42.313326" lon="-0.487293">
        <ele>1492.5</ele>
        <time>2018-07-22T10:39:28.000Z</time>
      </trkpt>
      <trkpt lat="42.313338" lon="-0.487294">
        <ele>1492.4</ele>
        <time>2018-07-22T10:39:29.000Z</time>
      </trkpt>
      <trkpt lat="42.313348" lon="-0.487295">
        <ele>1492.1</ele>
        <time>2018-07-22T10:39:30.000Z</time>
      </trkpt>
      <trkpt lat="42.313359" lon="-0.487295">
        <ele>1491.9</ele>
        <time>2018-07-22T10:39:31.000Z</time>
      </trkpt>
      <trkpt lat="42.313369" lon="-0.487295">
        <ele>1491.7</ele>
        <time>2018-07-22T10:39:32.000Z</time>
      </trkpt>
      <trkpt lat="42.313378" lon="-0.487293">
        <ele>1491.6</ele>
        <time>2018-07-22T10:39:33.000Z</time>
      </trkpt>
      <trkpt lat="42.313388" lon="-0.487291">
        <ele>1491.4</ele>
        <time>2018-07-22T10:39:34.000Z</time>
      </trkpt>
      <trkpt lat="42.313398" lon="-0.487289">
        <ele>1491.2</ele>
        <time>2018-07-22T10:39:35.000Z</time>
      </trkpt>
      <trkpt lat="42.313408" lon="-0.487287">
        <ele>1491.1</ele>
        <time>2018-07-22T10:39:36.000Z</time>
      </trkpt>
      <trkpt lat="42.313418" lon="-0.487285">
        <ele>1490.9</ele>
        <time>2018-07-22T10:39:37.000Z</time>
      </trkpt>
      <trkpt lat="42.313428" lon="-0.487284">
        <ele>1490.7</ele>
        <time>2018-07-22T10:39:38.000Z</time>
      </trkpt>
      <trkpt lat="42.313438" lon="-0.487282">
        <ele>1490.5</ele>
        <time>2018-07-22T10:39:39.000Z</time>
      </trkpt>
      <trkpt lat="42.313448" lon="-0.487281">
        <ele>1490.3</ele>
        <time>2018-07-22T10:39:40.000Z</time>
      </trkpt>
      <trkpt lat="42.313458" lon="-0.487281">
        <ele>1490.1</ele>
        <time>2018-07-22T10:39:41.000Z</time>
      </trkpt>
      <trkpt lat="42.313467" lon="-0.487281">
        <ele>1490.0</ele>
        <time>2018-07-22T10:39:42.000Z</time>
      </trkpt>
      <trkpt lat="42.313475" lon="-0.487282">
        <ele>1489.8</ele>
        <time>2018-07-22T10:39:43.000Z</time>
      </trkpt>
      <trkpt lat="42.313483" lon="-0.487283">
        <ele>1489.6</ele>
        <time>2018-07-22T10:39:44.000Z</time>
      </trkpt>
      <trkpt lat="42.31349" lon="-0.487286">
        <ele>1489.4</ele>
        <time>2018-07-22T10:39:45.000Z</time>
      </trkpt>
      <trkpt lat="42.313496" lon="-0.487289">
        <ele>1489.2</ele>
        <time>2018-07-22T10:39:46.000Z</time>
      </trkpt>
      <trkpt lat="42.313501" lon="-0.487293">
        <ele>1489.1</ele>
        <time>2018-07-22T10:39:47.000Z</time>
      </trkpt>
      <trkpt lat="42.313506" lon="-0.487298">
        <ele>1488.9</ele>
        <time>2018-07-22T10:39:48.000Z</time>
      </trkpt>
      <trkpt lat="42.31351" lon="-0.487303">
        <ele>1488.7</ele>
        <time>2018-07-22T10:39:49.000Z</time>
      </trkpt>
      <trkpt lat="42.313513" lon="-0.487309">
        <ele>1488.5</ele>
        <time>2018-07-22T10:39:50.000Z</time>
      </trkpt>
      <trkpt lat="42.313516" lon="-0.487316">
        <ele>1488.4</ele>
        <time>2018-07-22T10:39:51.000Z</time>
      </trkpt>
      <trkpt lat="42.313519" lon="-0.487323">
        <ele>1488.2</ele>
        <time>2018-07-22T10:39:52.000Z</time>
      </trkpt>
      <trkpt lat="42.313522" lon="-0.487331">
        <ele>1488.0</ele>
        <time>2018-07-22T10:39:53.000Z</time>
      </trkpt>
      <trkpt lat="42.313525" lon="-0.487338">
        <ele>1487.8</ele>
        <time>2018-07-22T10:39:54.000Z</time>
      </trkpt>
      <trkpt lat="42.313529" lon="-0.487345">
        <ele>1487.6</ele>
        <time>2018-07-22T10:39:55.000Z</time>
      </trkpt>
      <trkpt lat="42.313534" lon="-0.487352">
        <ele>1487.4</ele>
        <time>2018-07-22T10:39:56.000Z</time>
      </trkpt>
      <trkpt lat="42.31354" lon="-0.487357">
        <ele>1487.2</ele>
        <time>2018-07-22T10:39:57.000Z</time>
      </trkpt>
      <trkpt lat="42.313547" lon="-0.487361">
        <ele>1487.0</ele>
        <time>2018-07-22T10:39:58.000Z</time>
      </trkpt>
      <trkpt lat="42.313554" lon="-0.487365">
        <ele>1486.8</ele>
        <time>2018-07-22T10:39:59.000Z</time>
      </trkpt>
      <trkpt lat="42.313561" lon="-0.487367">
        <ele>1486.6</ele>
        <time>2018-07-22T10:40:00.000Z</time>
      </trkpt>
      <trkpt lat="42.313568" lon="-0.487369">
        <ele>1486.4</ele>
        <time>2018-07-22T10:40:01.000Z</time>
      </trkpt>
      <trkpt lat="42.313573" lon="-0.48737">
        <ele>1486.3</ele>
        <time>2018-07-22T10:40:02.000Z</time>
      </trkpt>
      <trkpt lat="42.313577" lon="-0.487371">
        <ele>1486.2</ele>
        <time>2018-07-22T10:40:03.000Z</time>
      </trkpt>
      <trkpt lat="42.31358" lon="-0.487371">
        <ele>1486.1</ele>
        <time>2018-07-22T10:40:04.000Z</time>
      </trkpt>
      <trkpt lat="42.313582" lon="-0.48737">
        <ele>1486.1</ele>
        <time>2018-07-22T10:40:05.000Z</time>
      </trkpt>
      <trkpt lat="42.313584" lon="-0.48737">
        <ele>1486.1</ele>
        <time>2018-07-22T10:40:06.000Z</time>
      </trkpt>
      <trkpt lat="42.313585" lon="-0.48737">
        <ele>1486.0</ele>
        <time>2018-07-22T10:40:07.000Z</time>
      </trkpt>
      <trkpt lat="42.313586" lon="-0.48737">
        <ele>1486.0</ele>
        <time>2018-07-22T10:40:08.000Z</time>
      </trkpt>
      <trkpt lat="42.313587" lon="-0.48737">
        <ele>1486.0</ele>
        <time>2018-07-22T10:40:09.000Z</time>
      </trkpt>
      <trkpt lat="42.313588" lon="-0.48737">
        <ele>1486.0</ele>
        <time>2018-07-22T10:40:10.000Z</time>
      </trkpt>
      <trkpt lat="42.31359" lon="-0.487371">
        <ele>1485.9</ele>
        <time>2018-07-22T10:40:11.000Z</time>
      </trkpt>
      <trkpt lat="42.313592" lon="-0.487371">
        <ele>1485.9</ele>
        <time>2018-07-22T10:40:12.000Z</time>
      </trkpt>
      <trkpt lat="42.313594" lon="-0.487371">
        <ele>1485.8</ele>
        <time>2018-07-22T10:40:13.000Z</time>
      </trkpt>
      <trkpt lat="42.313596" lon="-0.487371">
        <ele>1485.8</ele>
        <time>2018-07-22T10:40:14.000Z</time>
      </trkpt>
      <trkpt lat="42.3136" lon="-0.487371">
        <ele>1485.7</ele>
        <time>2018-07-22T10:40:15.000Z</time>
      </trkpt>
      <trkpt lat="42.313606" lon="-0.487372">
        <ele>1485.6</ele>
        <time>2018-07-22T10:40:16.000Z</time>
      </trkpt>
      <trkpt lat="42.313615" lon="-0.487376">
        <ele>1485.3</ele>
        <time>2018-07-22T10:40:17.000Z</time>
      </trkpt>
      <trkpt lat="42.313628" lon="-0.48739">
        <ele>1484.8</ele>
        <time>2018-07-22T10:40:18.000Z</time>
      </trkpt>
      <trkpt lat="42.313642" lon="-0.487398">
        <ele>1484.4</ele>
        <time>2018-07-22T10:40:19.000Z</time>
      </trkpt>
      <trkpt lat="42.313655" lon="-0.487399">
        <ele>1484.1</ele>
        <time>2018-07-22T10:40:20.000Z</time>
      </trkpt>
      <trkpt lat="42.313667" lon="-0.487394">
        <ele>1484.0</ele>
        <time>2018-07-22T10:40:21.000Z</time>
      </trkpt>
      <trkpt lat="42.313677" lon="-0.487386">
        <ele>1483.9</ele>
        <time>2018-07-22T10:40:22.000Z</time>
      </trkpt>
      <trkpt lat="42.313687" lon="-0.487377">
        <ele>1483.9</ele>
        <time>2018-07-22T10:40:23.000Z</time>
      </trkpt>
      <trkpt lat="42.313696" lon="-0.487368">
        <ele>1483.8</ele>
        <time>2018-07-22T10:40:24.000Z</time>
      </trkpt>
      <trkpt lat="42.313704" lon="-0.487362">
        <ele>1483.8</ele>
        <time>2018-07-22T10:40:25.000Z</time>
      </trkpt>
      <trkpt lat="42.313711" lon="-0.487359">
        <ele>1483.7</ele>
        <time>2018-07-22T10:40:26.000Z</time>
      </trkpt>
      <trkpt lat="42.313718" lon="-0.487358">
        <ele>1483.5</ele>
        <time>2018-07-22T10:40:27.000Z</time>
      </trkpt>
      <trkpt lat="42.313724" lon="-0.48736">
        <ele>1483.4</ele>
        <time>2018-07-22T10:40:28.000Z</time>
      </trkpt>
      <trkpt lat="42.313731" lon="-0.487364">
        <ele>1483.2</ele>
        <time>2018-07-22T10:40:29.000Z</time>
      </trkpt>
      <trkpt lat="42.313738" lon="-0.48737">
        <ele>1482.9</ele>
        <time>2018-07-22T10:40:30.000Z</time>
      </trkpt>
      <trkpt lat="42.313746" lon="-0.487376">
        <ele>1482.7</ele>
        <time>2018-07-22T10:40:31.000Z</time>
      </trkpt>
      <trkpt lat="42.313755" lon="-0.487379">
        <ele>1482.4</ele>
        <time>2018-07-22T10:40:32.000Z</time>
      </trkpt>
      <trkpt lat="42.313764" lon="-0.487376">
        <ele>1482.3</ele>
        <time>2018-07-22T10:40:33.000Z</time>
      </trkpt>
      <trkpt lat="42.313774" lon="-0.48737">
        <ele>1482.2</ele>
        <time>2018-07-22T10:40:34.000Z</time>
      </trkpt>
      <trkpt lat="42.313783" lon="-0.487362">
        <ele>1482.1</ele>
        <time>2018-07-22T10:40:35.000Z</time>
      </trkpt>
      <trkpt lat="42.313792" lon="-0.487354">
        <ele>1482.1</ele>
        <time>2018-07-22T10:40:36.000Z</time>
      </trkpt>
      <trkpt lat="42.313801" lon="-0.487347">
        <ele>1482.0</ele>
        <time>2018-07-22T10:40:37.000Z</time>
      </trkpt>
      <trkpt lat="42.313809" lon="-0.487341">
        <ele>1482.0</ele>
        <time>2018-07-22T10:40:38.000Z</time>
      </trkpt>
      <trkpt lat="42.313817" lon="-0.487336">
        <ele>1481.9</ele>
        <time>2018-07-22T10:40:39.000Z</time>
      </trkpt>
      <trkpt lat="42.313824" lon="-0.487333">
        <ele>1481.8</ele>
        <time>2018-07-22T10:40:40.000Z</time>
      </trkpt>
      <trkpt lat="42.313832" lon="-0.487332">
        <ele>1481.6</ele>
        <time>2018-07-22T10:40:41.000Z</time>
      </trkpt>
      <trkpt lat="42.313839" lon="-0.487333">
        <ele>1481.5</ele>
        <time>2018-07-22T10:40:42.000Z</time>
      </trkpt>
      <trkpt lat="42.313847" lon="-0.487335">
        <ele>1481.3</ele>
        <time>2018-07-22T10:40:43.000Z</time>
      </trkpt>
      <trkpt lat="42.313854" lon="-0.487339">
        <ele>1481.1</ele>
        <time>2018-07-22T10:40:44.000Z</time>
      </trkpt>
      <trkpt lat="42.313861" lon="-0.487343">
        <ele>1480.9</ele>
        <time>2018-07-22T10:40:45.000Z</time>
      </trkpt>
      <trkpt lat="42.313868" lon="-0.487348">
        <ele>1480.6</ele>
        <time>2018-07-22T10:40:46.000Z</time>
      </trkpt>
      <trkpt lat="42.313875" lon="-0.487354">
        <ele>1480.4</ele>
        <time>2018-07-22T10:40:47.000Z</time>
      </trkpt>
      <trkpt lat="42.313882" lon="-0.48736">
        <ele>1480.2</ele>
        <time>2018-07-22T10:40:48.000Z</time>
      </trkpt>
      <trkpt lat="42.313889" lon="-0.487367">
        <ele>1479.9</ele>
        <time>2018-07-22T10:40:49.000Z</time>
      </trkpt>
      <trkpt lat="42.313896" lon="-0.487373">
        <ele>1479.7</ele>
        <time>2018-07-22T10:40:50.000Z</time>
      </trkpt>
      <trkpt lat="42.313902" lon="-0.487378">
        <ele>1479.4</ele>
        <time>2018-07-22T10:40:51.000Z</time>
      </trkpt>
      <trkpt lat="42.313908" lon="-0.487384">
        <ele>1479.2</ele>
        <time>2018-07-22T10:40:52.000Z</time>
      </trkpt>
      <trkpt lat="42.313914" lon="-0.487388">
        <ele>1479.0</ele>
        <time>2018-07-22T10:40:53.000Z</time>
      </trkpt>
      <trkpt lat="42.31392" lon="-0.487392">
        <ele>1478.8</ele>
        <time>2018-07-22T10:40:54.000Z</time>
      </trkpt>
      <trkpt lat="42.313926" lon="-0.487397">
        <ele>1478.6</ele>
        <time>2018-07-22T10:40:55.000Z</time>
      </trkpt>
      <trkpt lat="42.313932" lon="-0.487401">
        <ele>1478.5</ele>
        <time>2018-07-22T10:40:56.000Z</time>
      </trkpt>
      <trkpt lat="42.313938" lon="-0.487405">
        <ele>1478.3</ele>
        <time>2018-07-22T10:40:57.000Z</time>
      </trkpt>
      <trkpt lat="42.313943" lon="-0.487409">
        <ele>1478.1</ele>
        <time>2018-07-22T10:40:58.000Z</time>
      </trkpt>
      <trkpt lat="42.313949" lon="-0.487414">
        <ele>1477.9</ele>
        <time>2018-07-22T10:40:59.000Z</time>
      </trkpt>
      <trkpt lat="42.313955" lon="-0.487419">
        <ele>1477.7</ele>
        <time>2018-07-22T10:41:00.000Z</time>
      </trkpt>
      <trkpt lat="42.313961" lon="-0.487425">
        <ele>1477.5</ele>
        <time>2018-07-22T10:41:01.000Z</time>
      </trkpt>
      <trkpt lat="42.313967" lon="-0.487432">
        <ele>1477.2</ele>
        <time>2018-07-22T10:41:02.000Z</time>
      </trkpt>
      <trkpt lat="42.313974" lon="-0.48744">
        <ele>1476.9</ele>
        <time>2018-07-22T10:41:03.000Z</time>
      </trkpt>
      <trkpt lat="42.31398" lon="-0.487448">
        <ele>1476.7</ele>
        <time>2018-07-22T10:41:04.000Z</time>
      </trkpt>
      <trkpt lat="42.313986" lon="-0.487456">
        <ele>1476.4</ele>
        <time>2018-07-22T10:41:05.000Z</time>
      </trkpt>
      <trkpt lat="42.313991" lon="-0.487463">
        <ele>1476.2</ele>
        <time>2018-07-22T10:41:06.000Z</time>
      </trkpt>
      <trkpt lat="42.313995" lon="-0.487469">
        <ele>1476.0</ele>
        <time>2018-07-22T10:41:07.000Z</time>
      </trkpt>
      <trkpt lat="42.313997" lon="-0.487474">
        <ele>1475.9</ele>
        <time>2018-07-22T10:41:08.000Z</time>
      </trkpt>
      <trkpt lat="42.313999" lon="-0.487477">
        <ele>1475.8</ele>
        <time>2018-07-22T10:41:09.000Z</time>
      </trkpt>
      <trkpt lat="42.314" lon="-0.487479">
        <ele>1475.8</ele>
        <time>2018-07-22T10:41:10.000Z</time>
      </trkpt>
      <trkpt lat="42.314001" lon="-0.487481">
        <ele>1475.7</ele>
        <time>2018-07-22T10:41:11.000Z</time>
      </trkpt>
      <trkpt lat="42.314003" lon="-0.487484">
        <ele>1475.6</ele>
        <time>2018-07-22T10:41:12.000Z</time>
      </trkpt>
      <trkpt lat="42.314006" lon="-0.487488">
        <ele>1475.5</ele>
        <time>2018-07-22T10:41:13.000Z</time>
      </trkpt>
      <trkpt lat="42.314008" lon="-0.487492">
        <ele>1475.4</ele>
        <time>2018-07-22T10:41:14.000Z</time>
      </trkpt>
      <trkpt lat="42.31401" lon="-0.487495">
        <ele>1475.3</ele>
        <time>2018-07-22T10:41:15.000Z</time>
      </trkpt>
      <trkpt lat="42.314012" lon="-0.487498">
        <ele>1475.2</ele>
        <time>2018-07-22T10:41:16.000Z</time>
      </trkpt>
      <trkpt lat="42.314022" lon="-0.487514">
        <ele>1475.0</ele>
        <time>2018-07-22T10:41:17.000Z</time>
      </trkpt>
      <trkpt lat="42.31403" lon="-0.48753">
        <ele>1475.0</ele>
        <time>2018-07-22T10:41:18.000Z</time>
      </trkpt>
      <trkpt lat="42.314038" lon="-0.487542">
        <ele>1474.9</ele>
        <time>2018-07-22T10:41:19.000Z</time>
      </trkpt>
      <trkpt lat="42.314046" lon="-0.487552">
        <ele>1474.8</ele>
        <time>2018-07-22T10:41:20.000Z</time>
      </trkpt>
      <trkpt lat="42.314055" lon="-0.48756">
        <ele>1474.7</ele>
        <time>2018-07-22T10:41:21.000Z</time>
      </trkpt>
      <trkpt lat="42.314063" lon="-0.487568">
        <ele>1474.5</ele>
        <time>2018-07-22T10:41:22.000Z</time>
      </trkpt>
      <trkpt lat="42.31407" lon="-0.487575">
        <ele>1474.4</ele>
        <time>2018-07-22T10:41:23.000Z</time>
      </trkpt>
      <trkpt lat="42.314078" lon="-0.487582">
        <ele>1474.3</ele>
        <time>2018-07-22T10:41:24.000Z</time>
      </trkpt>
      <trkpt lat="42.314084" lon="-0.487588">
        <ele>1474.2</ele>
        <time>2018-07-22T10:41:25.000Z</time>
      </trkpt>
      <trkpt lat="42.31409" lon="-0.487593">
        <ele>1474.1</ele>
        <time>2018-07-22T10:41:26.000Z</time>
      </trkpt>
      <trkpt lat="42.314095" lon="-0.487597">
        <ele>1474.1</ele>
        <time>2018-07-22T10:41:27.000Z</time>
      </trkpt>
      <trkpt lat="42.3141" lon="-0.4876">
        <ele>1474.0</ele>
        <time>2018-07-22T10:41:28.000Z</time>
      </trkpt>
      <trkpt lat="42.314103" lon="-0.487602">
        <ele>1473.9</ele>
        <time>2018-07-22T10:41:29.000Z</time>
      </trkpt>
      <trkpt lat="42.314106" lon="-0.487604">
        <ele>1473.9</ele>
        <time>2018-07-22T10:41:30.000Z</time>
      </trkpt>
      <trkpt lat="42.314108" lon="-0.487605">
        <ele>1473.8</ele>
        <time>2018-07-22T10:41:31.000Z</time>
      </trkpt>
      <trkpt lat="42.31411" lon="-0.487606">
        <ele>1473.8</ele>
        <time>2018-07-22T10:41:32.000Z</time>
      </trkpt>
      <trkpt lat="42.314113" lon="-0.487608">
        <ele>1473.8</ele>
        <time>2018-07-22T10:41:33.000Z</time>
      </trkpt>
      <trkpt lat="42.314118" lon="-0.487615">
        <ele>1473.7</ele>
        <time>2018-07-22T10:41:34.000Z</time>
      </trkpt>
      <trkpt lat="42.314127" lon="-0.487626">
        <ele>1473.6</ele>
        <time>2018-07-22T10:41:35.000Z</time>
      </trkpt>
      <trkpt lat="42.314136" lon="-0.487635">
        <ele>1473.4</ele>
        <time>2018-07-22T10:41:36.000Z</time>
      </trkpt>
      <trkpt lat="42.314144" lon="-0.487642">
        <ele>1473.3</ele>
        <time>2018-07-22T10:41:37.000Z</time>
      </trkpt>
      <trkpt lat="42.314152" lon="-0.487648">
        <ele>1473.2</ele>
        <time>2018-07-22T10:41:38.000Z</time>
      </trkpt>
      <trkpt lat="42.314159" lon="-0.487653">
        <ele>1473.1</ele>
        <time>2018-07-22T10:41:39.000Z</time>
      </trkpt>
      <trkpt lat="42.314166" lon="-0.487658">
        <ele>1473.0</ele>
        <time>2018-07-22T10:41:40.000Z</time>
      </trkpt>
      <trkpt lat="42.314173" lon="-0.487662">
        <ele>1472.8</ele>
        <time>2018-07-22T10:41:41.000Z</time>
      </trkpt>
      <trkpt lat="42.31418" lon="-0.487665">
        <ele>1472.7</ele>
        <time>2018-07-22T10:41:42.000Z</time>
      </trkpt>
      <trkpt lat="42.314185" lon="-0.487668">
        <ele>1472.6</ele>
        <time>2018-07-22T10:41:43.000Z</time>
      </trkpt>
      <trkpt lat="42.314189" lon="-0.48767">
        <ele>1472.5</ele>
        <time>2018-07-22T10:41:44.000Z</time>
      </trkpt>
      <trkpt lat="42.314193" lon="-0.487673">
        <ele>1472.5</ele>
        <time>2018-07-22T10:41:45.000Z</time>
      </trkpt>
      <trkpt lat="42.3142" lon="-0.487678">
        <ele>1472.3</ele>
        <time>2018-07-22T10:41:46.000Z</time>
      </trkpt>
      <trkpt lat="42.314208" lon="-0.487685">
        <ele>1472.2</ele>
        <time>2018-07-22T10:41:47.000Z</time>
      </trkpt>
      <trkpt lat="42.314215" lon="-0.487691">
        <ele>1472.1</ele>
        <time>2018-07-22T10:41:48.000Z</time>
      </trkpt>
      <trkpt lat="42.314222" lon="-0.487694">
        <ele>1472.0</ele>
        <time>2018-07-22T10:41:49.000Z</time>
      </trkpt>
      <trkpt lat="42.314228" lon="-0.487695">
        <ele>1471.8</ele>
        <time>2018-07-22T10:41:50.000Z</time>
      </trkpt>
      <trkpt lat="42.314235" lon="-0.487693">
        <ele>1471.7</ele>
        <time>2018-07-22T10:41:51.000Z</time>
      </trkpt>
      <trkpt lat="42.314244" lon="-0.487689">
        <ele>1471.5</ele>
        <time>2018-07-22T10:41:52.000Z</time>
      </trkpt>
      <trkpt lat="42.314255" lon="-0.487683">
        <ele>1471.2</ele>
        <time>2018-07-22T10:41:53.000Z</time>
      </trkpt>
      <trkpt lat="42.314267" lon="-0.487677">
        <ele>1470.9</ele>
        <time>2018-07-22T10:41:54.000Z</time>
      </trkpt>
      <trkpt lat="42.31428" lon="-0.48767">
        <ele>1470.6</ele>
        <time>2018-07-22T10:41:55.000Z</time>
      </trkpt>
      <trkpt lat="42.314292" lon="-0.487663">
        <ele>1470.3</ele>
        <time>2018-07-22T10:41:56.000Z</time>
      </trkpt>
      <trkpt lat="42.314304" lon="-0.487657">
        <ele>1470.0</ele>
        <time>2018-07-22T10:41:57.000Z</time>
      </trkpt>
      <trkpt lat="42.314315" lon="-0.487651">
        <ele>1469.7</ele>
        <time>2018-07-22T10:41:58.000Z</time>
      </trkpt>
      <trkpt lat="42.314324" lon="-0.487647">
        <ele>1469.5</ele>
        <time>2018-07-22T10:41:59.000Z</time>
      </trkpt>
      <trkpt lat="42.314332" lon="-0.487642">
        <ele>1469.3</ele>
        <time>2018-07-22T10:42:00.000Z</time>
      </trkpt>
      <trkpt lat="42.314339" lon="-0.487639">
        <ele>1469.1</ele>
        <time>2018-07-22T10:42:01.000Z</time>
      </trkpt>
      <trkpt lat="42.314343" lon="-0.487636">
        <ele>1469.0</ele>
        <time>2018-07-22T10:42:02.000Z</time>
      </trkpt>
      <trkpt lat="42.314345" lon="-0.487633">
        <ele>1469.0</ele>
        <time>2018-07-22T10:42:03.000Z</time>
      </trkpt>
      <trkpt lat="42.314348" lon="-0.48763">
        <ele>1468.9</ele>
        <time>2018-07-22T10:42:04.000Z</time>
      </trkpt>
      <trkpt lat="42.314354" lon="-0.487626">
        <ele>1468.8</ele>
        <time>2018-07-22T10:42:05.000Z</time>
      </trkpt>
      <trkpt lat="42.314366" lon="-0.487622">
        <ele>1468.5</ele>
        <time>2018-07-22T10:42:06.000Z</time>
      </trkpt>
      <trkpt lat="42.314378" lon="-0.487619">
        <ele>1468.2</ele>
        <time>2018-07-22T10:42:07.000Z</time>
      </trkpt>
      <trkpt lat="42.314388" lon="-0.487618">
        <ele>1468.0</ele>
        <time>2018-07-22T10:42:08.000Z</time>
      </trkpt>
      <trkpt lat="42.314393" lon="-0.487617">
        <ele>1467.9</ele>
        <time>2018-07-22T10:42:09.000Z</time>
      </trkpt>
      <trkpt lat="42.314396" lon="-0.487616">
        <ele>1467.8</ele>
        <time>2018-07-22T10:42:10.000Z</time>
      </trkpt>
      <trkpt lat="42.314397" lon="-0.487615">
        <ele>1467.8</ele>
        <time>2018-07-22T10:42:11.000Z</time>
      </trkpt>
      <trkpt lat="42.314398" lon="-0.487615">
        <ele>1467.8</ele>
        <time>2018-07-22T10:42:12.000Z</time>
      </trkpt>
      <trkpt lat="42.3144" lon="-0.487613">
        <ele>1467.7</ele>
        <time>2018-07-22T10:42:13.000Z</time>
      </trkpt>
      <trkpt lat="42.314403" lon="-0.487611">
        <ele>1467.7</ele>
        <time>2018-07-22T10:42:14.000Z</time>
      </trkpt>
      <trkpt lat="42.314405" lon="-0.487609">
        <ele>1467.6</ele>
        <time>2018-07-22T10:42:15.000Z</time>
      </trkpt>
      <trkpt lat="42.314409" lon="-0.48761">
        <ele>1467.5</ele>
        <time>2018-07-22T10:42:16.000Z</time>
      </trkpt>
      <trkpt lat="42.314433" lon="-0.48762">
        <ele>1467.1</ele>
        <time>2018-07-22T10:42:17.000Z</time>
      </trkpt>
      <trkpt lat="42.314449" lon="-0.487626">
        <ele>1466.7</ele>
        <time>2018-07-22T10:42:18.000Z</time>
      </trkpt>
      <trkpt lat="42.314458" lon="-0.487629">
        <ele>1466.6</ele>
        <time>2018-07-22T10:42:19.000Z</time>
      </trkpt>
      <trkpt lat="42.314465" lon="-0.487631">
        <ele>1466.4</ele>
        <time>2018-07-22T10:42:20.000Z</time>
      </trkpt>
      <trkpt lat="42.31447" lon="-0.487633">
        <ele>1466.3</ele>
        <time>2018-07-22T10:42:21.000Z</time>
      </trkpt>
      <trkpt lat="42.314473" lon="-0.487633">
        <ele>1466.3</ele>
        <time>2018-07-22T10:42:22.000Z</time>
      </trkpt>
      <trkpt lat="42.314475" lon="-0.487634">
        <ele>1466.2</ele>
        <time>2018-07-22T10:42:23.000Z</time>
      </trkpt>
      <trkpt lat="42.314476" lon="-0.487634">
        <ele>1466.2</ele>
        <time>2018-07-22T10:42:24.000Z</time>
      </trkpt>
      <trkpt lat="42.314478" lon="-0.487634">
        <ele>1466.2</ele>
        <time>2018-07-22T10:42:25.000Z</time>
      </trkpt>
      <trkpt lat="42.31448" lon="-0.487634">
        <ele>1466.1</ele>
        <time>2018-07-22T10:42:26.000Z</time>
      </trkpt>
      <trkpt lat="42.314482" lon="-0.487635">
        <ele>1466.1</ele>
        <time>2018-07-22T10:42:27.000Z</time>
      </trkpt>
      <trkpt lat="42.314484" lon="-0.487635">
        <ele>1466.0</ele>
        <time>2018-07-22T10:42:28.000Z</time>
      </trkpt>
      <trkpt lat="42.314489" lon="-0.487638">
        <ele>1465.9</ele>
        <time>2018-07-22T10:42:29.000Z</time>
      </trkpt>
      <trkpt lat="42.3145" lon="-0.487644">
        <ele>1465.7</ele>
        <time>2018-07-22T10:42:30.000Z</time>
      </trkpt>
      <trkpt lat="42.314513" lon="-0.487651">
        <ele>1465.5</ele>
        <time>2018-07-22T10:42:31.000Z</time>
      </trkpt>
      <trkpt lat="42.314522" lon="-0.487657">
        <ele>1465.3</ele>
        <time>2018-07-22T10:42:32.000Z</time>
      </trkpt>
      <trkpt lat="42.314529" lon="-0.487662">
        <ele>1465.2</ele>
        <time>2018-07-22T10:42:33.000Z</time>
      </trkpt>
      <trkpt lat="42.314535" lon="-0.487667">
        <ele>1465.0</ele>
        <time>2018-07-22T10:42:34.000Z</time>
      </trkpt>
      <trkpt lat="42.314542" lon="-0.487673">
        <ele>1464.9</ele>
        <time>2018-07-22T10:42:35.000Z</time>
      </trkpt>
      <trkpt lat="42.314549" lon="-0.487678">
        <ele>1464.8</ele>
        <time>2018-07-22T10:42:36.000Z</time>
      </trkpt>
      <trkpt lat="42.314557" lon="-0.487684">
        <ele>1464.6</ele>
        <time>2018-07-22T10:42:37.000Z</time>
      </trkpt>
      <trkpt lat="42.314565" lon="-0.487691">
        <ele>1464.5</ele>
        <time>2018-07-22T10:42:38.000Z</time>
      </trkpt>
      <trkpt lat="42.314572" lon="-0.487698">
        <ele>1464.3</ele>
        <time>2018-07-22T10:42:39.000Z</time>
      </trkpt>
      <trkpt lat="42.314578" lon="-0.487707">
        <ele>1464.2</ele>
        <time>2018-07-22T10:42:40.000Z</time>
      </trkpt>
      <trkpt lat="42.314584" lon="-0.487716">
        <ele>1464.1</ele>
        <time>2018-07-22T10:42:41.000Z</time>
      </trkpt>
      <trkpt lat="42.314589" lon="-0.487727">
        <ele>1464.1</ele>
        <time>2018-07-22T10:42:42.000Z</time>
      </trkpt>
      <trkpt lat="42.314593" lon="-0.487738">
        <ele>1464.0</ele>
        <time>2018-07-22T10:42:43.000Z</time>
      </trkpt>
      <trkpt lat="42.314596" lon="-0.48775">
        <ele>1464.0</ele>
        <time>2018-07-22T10:42:44.000Z</time>
      </trkpt>
      <trkpt lat="42.3146" lon="-0.487762">
        <ele>1463.9</ele>
        <time>2018-07-22T10:42:45.000Z</time>
      </trkpt>
      <trkpt lat="42.314603" lon="-0.487773">
        <ele>1463.9</ele>
        <time>2018-07-22T10:42:46.000Z</time>
      </trkpt>
      <trkpt lat="42.314606" lon="-0.487784">
        <ele>1463.8</ele>
        <time>2018-07-22T10:42:47.000Z</time>
      </trkpt>
      <trkpt lat="42.314608" lon="-0.487795">
        <ele>1463.8</ele>
        <time>2018-07-22T10:42:48.000Z</time>
      </trkpt>
      <trkpt lat="42.314611" lon="-0.487804">
        <ele>1463.8</ele>
        <time>2018-07-22T10:42:49.000Z</time>
      </trkpt>
      <trkpt lat="42.314614" lon="-0.487813">
        <ele>1463.7</ele>
        <time>2018-07-22T10:42:50.000Z</time>
      </trkpt>
      <trkpt lat="42.314617" lon="-0.48782">
        <ele>1463.7</ele>
        <time>2018-07-22T10:42:51.000Z</time>
      </trkpt>
      <trkpt lat="42.31462" lon="-0.487827">
        <ele>1463.6</ele>
        <time>2018-07-22T10:42:52.000Z</time>
      </trkpt>
      <trkpt lat="42.314624" lon="-0.487833">
        <ele>1463.6</ele>
        <time>2018-07-22T10:42:53.000Z</time>
      </trkpt>
      <trkpt lat="42.314629" lon="-0.487839">
        <ele>1463.5</ele>
        <time>2018-07-22T10:42:54.000Z</time>
      </trkpt>
      <trkpt lat="42.314634" lon="-0.487846">
        <ele>1463.4</ele>
        <time>2018-07-22T10:42:55.000Z</time>
      </trkpt>
      <trkpt lat="42.31464" lon="-0.487854">
        <ele>1463.3</ele>
        <time>2018-07-22T10:42:56.000Z</time>
      </trkpt>
      <trkpt lat="42.314648" lon="-0.487864">
        <ele>1463.1</ele>
        <time>2018-07-22T10:42:57.000Z</time>
      </trkpt>
      <trkpt lat="42.314655" lon="-0.487875">
        <ele>1463.0</ele>
        <time>2018-07-22T10:42:58.000Z</time>
      </trkpt>
      <trkpt lat="42.314664" lon="-0.487886">
        <ele>1462.8</ele>
        <time>2018-07-22T10:42:59.000Z</time>
      </trkpt>
      <trkpt lat="42.314673" lon="-0.487899">
        <ele>1462.6</ele>
        <time>2018-07-22T10:43:00.000Z</time>
      </trkpt>
      <trkpt lat="42.314681" lon="-0.487911">
        <ele>1462.5</ele>
        <time>2018-07-22T10:43:01.000Z</time>
      </trkpt>
      <trkpt lat="42.31469" lon="-0.487922">
        <ele>1462.3</ele>
        <time>2018-07-22T10:43:02.000Z</time>
      </trkpt>
      <trkpt lat="42.314698" lon="-0.487933">
        <ele>1462.1</ele>
        <time>2018-07-22T10:43:03.000Z</time>
      </trkpt>
      <trkpt lat="42.314706" lon="-0.487943">
        <ele>1461.9</ele>
        <time>2018-07-22T10:43:04.000Z</time>
      </trkpt>
      <trkpt lat="42.314714" lon="-0.487951">
        <ele>1461.8</ele>
        <time>2018-07-22T10:43:05.000Z</time>
      </trkpt>
      <trkpt lat="42.314722" lon="-0.487957">
        <ele>1461.6</ele>
        <time>2018-07-22T10:43:06.000Z</time>
      </trkpt>
      <trkpt lat="42.31473" lon="-0.48796">
        <ele>1461.4</ele>
        <time>2018-07-22T10:43:07.000Z</time>
      </trkpt>
      <trkpt lat="42.314738" lon="-0.48796">
        <ele>1461.2</ele>
        <time>2018-07-22T10:43:08.000Z</time>
      </trkpt>
      <trkpt lat="42.314745" lon="-0.487958">
        <ele>1461.0</ele>
        <time>2018-07-22T10:43:09.000Z</time>
      </trkpt>
      <trkpt lat="42.314752" lon="-0.487956">
        <ele>1460.9</ele>
        <time>2018-07-22T10:43:10.000Z</time>
      </trkpt>
      <trkpt lat="42.314758" lon="-0.487953">
        <ele>1460.7</ele>
        <time>2018-07-22T10:43:11.000Z</time>
      </trkpt>
      <trkpt lat="42.314763" lon="-0.487951">
        <ele>1460.6</ele>
        <time>2018-07-22T10:43:12.000Z</time>
      </trkpt>
      <trkpt lat="42.314767" lon="-0.487951">
        <ele>1460.5</ele>
        <time>2018-07-22T10:43:13.000Z</time>
      </trkpt>
      <trkpt lat="42.314772" lon="-0.487951">
        <ele>1460.4</ele>
        <time>2018-07-22T10:43:14.000Z</time>
      </trkpt>
      <trkpt lat="42.314781" lon="-0.487949">
        <ele>1460.2</ele>
        <time>2018-07-22T10:43:15.000Z</time>
      </trkpt>
      <trkpt lat="42.314791" lon="-0.487946">
        <ele>1459.9</ele>
        <time>2018-07-22T10:43:16.000Z</time>
      </trkpt>
      <trkpt lat="42.314799" lon="-0.487943">
        <ele>1459.7</ele>
        <time>2018-07-22T10:43:17.000Z</time>
      </trkpt>
      <trkpt lat="42.314806" lon="-0.487942">
        <ele>1459.6</ele>
        <time>2018-07-22T10:43:18.000Z</time>
      </trkpt>
      <trkpt lat="42.314809" lon="-0.487941">
        <ele>1459.5</ele>
        <time>2018-07-22T10:43:19.000Z</time>
      </trkpt>
      <trkpt lat="42.314812" lon="-0.487941">
        <ele>1459.4</ele>
        <time>2018-07-22T10:43:20.000Z</time>
      </trkpt>
      <trkpt lat="42.314818" lon="-0.48794">
        <ele>1459.3</ele>
        <time>2018-07-22T10:43:21.000Z</time>
      </trkpt>
      <trkpt lat="42.31483" lon="-0.487938">
        <ele>1459.0</ele>
        <time>2018-07-22T10:43:22.000Z</time>
      </trkpt>
      <trkpt lat="42.314843" lon="-0.487937">
        <ele>1458.7</ele>
        <time>2018-07-22T10:43:23.000Z</time>
      </trkpt>
      <trkpt lat="42.314849" lon="-0.487937">
        <ele>1458.6</ele>
        <time>2018-07-22T10:43:24.000Z</time>
      </trkpt>
      <trkpt lat="42.314857" lon="-0.487938">
        <ele>1458.4</ele>
        <time>2018-07-22T10:43:25.000Z</time>
      </trkpt>
      <trkpt lat="42.314868" lon="-0.48794">
        <ele>1458.1</ele>
        <time>2018-07-22T10:43:26.000Z</time>
      </trkpt>
      <trkpt lat="42.314879" lon="-0.487941">
        <ele>1457.9</ele>
        <time>2018-07-22T10:43:27.000Z</time>
      </trkpt>
      <trkpt lat="42.314889" lon="-0.48794">
        <ele>1457.6</ele>
        <time>2018-07-22T10:43:28.000Z</time>
      </trkpt>
      <trkpt lat="42.314899" lon="-0.48794">
        <ele>1457.4</ele>
        <time>2018-07-22T10:43:29.000Z</time>
      </trkpt>
      <trkpt lat="42.314909" lon="-0.48794">
        <ele>1457.1</ele>
        <time>2018-07-22T10:43:30.000Z</time>
      </trkpt>
      <trkpt lat="42.314918" lon="-0.487941">
        <ele>1456.9</ele>
        <time>2018-07-22T10:43:31.000Z</time>
      </trkpt>
      <trkpt lat="42.314927" lon="-0.487943">
        <ele>1456.7</ele>
        <time>2018-07-22T10:43:32.000Z</time>
      </trkpt>
      <trkpt lat="42.314935" lon="-0.487945">
        <ele>1456.5</ele>
        <time>2018-07-22T10:43:33.000Z</time>
      </trkpt>
      <trkpt lat="42.314942" lon="-0.487947">
        <ele>1456.4</ele>
        <time>2018-07-22T10:43:34.000Z</time>
      </trkpt>
      <trkpt lat="42.314948" lon="-0.487948">
        <ele>1456.2</ele>
        <time>2018-07-22T10:43:35.000Z</time>
      </trkpt>
      <trkpt lat="42.314953" lon="-0.487951">
        <ele>1456.1</ele>
        <time>2018-07-22T10:43:36.000Z</time>
      </trkpt>
      <trkpt lat="42.314958" lon="-0.487953">
        <ele>1456.0</ele>
        <time>2018-07-22T10:43:37.000Z</time>
      </trkpt>
      <trkpt lat="42.314964" lon="-0.487956">
        <ele>1455.9</ele>
        <time>2018-07-22T10:43:38.000Z</time>
      </trkpt>
      <trkpt lat="42.31497" lon="-0.487961">
        <ele>1455.7</ele>
        <time>2018-07-22T10:43:39.000Z</time>
      </trkpt>
      <trkpt lat="42.314979" lon="-0.487966">
        <ele>1455.5</ele>
        <time>2018-07-22T10:43:40.000Z</time>
      </trkpt>
      <trkpt lat="42.314989" lon="-0.487973">
        <ele>1455.3</ele>
        <time>2018-07-22T10:43:41.000Z</time>
      </trkpt>
      <trkpt lat="42.315" lon="-0.48798">
        <ele>1455.0</ele>
        <time>2018-07-22T10:43:42.000Z</time>
      </trkpt>
      <trkpt lat="42.315012" lon="-0.487987">
        <ele>1454.6</ele>
        <time>2018-07-22T10:43:43.000Z</time>
      </trkpt>
      <trkpt lat="42.315022" lon="-0.487993">
        <ele>1454.3</ele>
        <time>2018-07-22T10:43:44.000Z</time>
      </trkpt>
      <trkpt lat="42.315029" lon="-0.487998">
        <ele>1454.1</ele>
        <time>2018-07-22T10:43:45.000Z</time>
      </trkpt>
      <trkpt lat="42.315033" lon="-0.488">
        <ele>1454.0</ele>
        <time>2018-07-22T10:43:46.000Z</time>
      </trkpt>
      <trkpt lat="42.315035" lon="-0.488">
        <ele>1453.9</ele>
        <time>2018-07-22T10:43:47.000Z</time>
      </trkpt>
      <trkpt lat="42.315036" lon="-0.488">
        <ele>1453.9</ele>
        <time>2018-07-22T10:43:48.000Z</time>
      </trkpt>
      <trkpt lat="42.315039" lon="-0.488001">
        <ele>1453.8</ele>
        <time>2018-07-22T10:43:49.000Z</time>
      </trkpt>
      <trkpt lat="42.315042" lon="-0.488002">
        <ele>1453.7</ele>
        <time>2018-07-22T10:43:50.000Z</time>
      </trkpt>
      <trkpt lat="42.315046" lon="-0.488002">
        <ele>1453.6</ele>
        <time>2018-07-22T10:43:51.000Z</time>
      </trkpt>
      <trkpt lat="42.315049" lon="-0.488003">
        <ele>1453.5</ele>
        <time>2018-07-22T10:43:52.000Z</time>
      </trkpt>
      <trkpt lat="42.315054" lon="-0.488007">
        <ele>1453.3</ele>
        <time>2018-07-22T10:43:53.000Z</time>
      </trkpt>
      <trkpt lat="42.315057" lon="-0.488011">
        <ele>1453.2</ele>
        <time>2018-07-22T10:43:54.000Z</time>
      </trkpt>
      <trkpt lat="42.31506" lon="-0.488013">
        <ele>1453.1</ele>
        <time>2018-07-22T10:43:55.000Z</time>
      </trkpt>
      <trkpt lat="42.315064" lon="-0.488014">
        <ele>1453.0</ele>
        <time>2018-07-22T10:43:56.000Z</time>
      </trkpt>
      <trkpt lat="42.315067" lon="-0.488016">
        <ele>1452.9</ele>
        <time>2018-07-22T10:43:57.000Z</time>
      </trkpt>
      <trkpt lat="42.31507" lon="-0.488017">
        <ele>1452.8</ele>
        <time>2018-07-22T10:43:58.000Z</time>
      </trkpt>
      <trkpt lat="42.315074" lon="-0.488018">
        <ele>1452.7</ele>
        <time>2018-07-22T10:43:59.000Z</time>
      </trkpt>
      <trkpt lat="42.315078" lon="-0.488019">
        <ele>1452.6</ele>
        <time>2018-07-22T10:44:00.000Z</time>
      </trkpt>
      <trkpt lat="42.315084" lon="-0.48802">
        <ele>1452.4</ele>
        <time>2018-07-22T10:44:01.000Z</time>
      </trkpt>
      <trkpt lat="42.315094" lon="-0.488021">
        <ele>1452.1</ele>
        <time>2018-07-22T10:44:02.000Z</time>
      </trkpt>
      <trkpt lat="42.315104" lon="-0.488024">
        <ele>1451.7</ele>
        <time>2018-07-22T10:44:03.000Z</time>
      </trkpt>
      <trkpt lat="42.31511" lon="-0.488028">
        <ele>1451.5</ele>
        <time>2018-07-22T10:44:04.000Z</time>
      </trkpt>
      <trkpt lat="42.31512" lon="-0.488032">
        <ele>1451.2</ele>
        <time>2018-07-22T10:44:05.000Z</time>
      </trkpt>
      <trkpt lat="42.315132" lon="-0.488036">
        <ele>1450.8</ele>
        <time>2018-07-22T10:44:06.000Z</time>
      </trkpt>
      <trkpt lat="42.315141" lon="-0.48804">
        <ele>1450.6</ele>
        <time>2018-07-22T10:44:07.000Z</time>
      </trkpt>
      <trkpt lat="42.315149" lon="-0.488043">
        <ele>1450.3</ele>
        <time>2018-07-22T10:44:08.000Z</time>
      </trkpt>
      <trkpt lat="42.315155" lon="-0.488046">
        <ele>1450.1</ele>
        <time>2018-07-22T10:44:09.000Z</time>
      </trkpt>
      <trkpt lat="42.315161" lon="-0.488049">
        <ele>1449.9</ele>
        <time>2018-07-22T10:44:10.000Z</time>
      </trkpt>
      <trkpt lat="42.315168" lon="-0.488051">
        <ele>1449.7</ele>
        <time>2018-07-22T10:44:11.000Z</time>
      </trkpt>
      <trkpt lat="42.315176" lon="-0.488054">
        <ele>1449.4</ele>
        <time>2018-07-22T10:44:12.000Z</time>
      </trkpt>
      <trkpt lat="42.315186" lon="-0.488057">
        <ele>1449.1</ele>
        <time>2018-07-22T10:44:13.000Z</time>
      </trkpt>
      <trkpt lat="42.315198" lon="-0.48806">
        <ele>1448.7</ele>
        <time>2018-07-22T10:44:14.000Z</time>
      </trkpt>
      <trkpt lat="42.31521" lon="-0.488063">
        <ele>1448.4</ele>
        <time>2018-07-22T10:44:15.000Z</time>
      </trkpt>
      <trkpt lat="42.315222" lon="-0.488065">
        <ele>1448.0</ele>
        <time>2018-07-22T10:44:16.000Z</time>
      </trkpt>
      <trkpt lat="42.315234" lon="-0.488068">
        <ele>1447.6</ele>
        <time>2018-07-22T10:44:17.000Z</time>
      </trkpt>
      <trkpt lat="42.315244" lon="-0.48807">
        <ele>1447.3</ele>
        <time>2018-07-22T10:44:18.000Z</time>
      </trkpt>
      <trkpt lat="42.315253" lon="-0.488072">
        <ele>1447.0</ele>
        <time>2018-07-22T10:44:19.000Z</time>
      </trkpt>
      <trkpt lat="42.315261" lon="-0.488073">
        <ele>1446.7</ele>
        <time>2018-07-22T10:44:20.000Z</time>
      </trkpt>
      <trkpt lat="42.315269" lon="-0.488074">
        <ele>1446.5</ele>
        <time>2018-07-22T10:44:21.000Z</time>
      </trkpt>
      <trkpt lat="42.315277" lon="-0.488074">
        <ele>1446.2</ele>
        <time>2018-07-22T10:44:22.000Z</time>
      </trkpt>
      <trkpt lat="42.315286" lon="-0.488074">
        <ele>1445.9</ele>
        <time>2018-07-22T10:44:23.000Z</time>
      </trkpt>
      <trkpt lat="42.315296" lon="-0.488073">
        <ele>1445.6</ele>
        <time>2018-07-22T10:44:24.000Z</time>
      </trkpt>
      <trkpt lat="42.315306" lon="-0.488072">
        <ele>1445.3</ele>
        <time>2018-07-22T10:44:25.000Z</time>
      </trkpt>
      <trkpt lat="42.315315" lon="-0.488071">
        <ele>1445.0</ele>
        <time>2018-07-22T10:44:26.000Z</time>
      </trkpt>
      <trkpt lat="42.315323" lon="-0.48807">
        <ele>1444.8</ele>
        <time>2018-07-22T10:44:27.000Z</time>
      </trkpt>
      <trkpt lat="42.315329" lon="-0.48807">
        <ele>1444.6</ele>
        <time>2018-07-22T10:44:28.000Z</time>
      </trkpt>
      <trkpt lat="42.315333" lon="-0.48807">
        <ele>1444.4</ele>
        <time>2018-07-22T10:44:29.000Z</time>
      </trkpt>
      <trkpt lat="42.315341" lon="-0.488069">
        <ele>1444.2</ele>
        <time>2018-07-22T10:44:30.000Z</time>
      </trkpt>
      <trkpt lat="42.315355" lon="-0.488066">
        <ele>1443.8</ele>
        <time>2018-07-22T10:44:31.000Z</time>
      </trkpt>
      <trkpt lat="42.315368" lon="-0.488061">
        <ele>1443.4</ele>
        <time>2018-07-22T10:44:32.000Z</time>
      </trkpt>
      <trkpt lat="42.315378" lon="-0.488055">
        <ele>1443.1</ele>
        <time>2018-07-22T10:44:33.000Z</time>
      </trkpt>
      <trkpt lat="42.315388" lon="-0.48805">
        <ele>1442.8</ele>
        <time>2018-07-22T10:44:34.000Z</time>
      </trkpt>
      <trkpt lat="42.315398" lon="-0.488047">
        <ele>1442.4</ele>
        <time>2018-07-22T10:44:35.000Z</time>
      </trkpt>
      <trkpt lat="42.315409" lon="-0.488044">
        <ele>1442.1</ele>
        <time>2018-07-22T10:44:36.000Z</time>
      </trkpt>
      <trkpt lat="42.31542" lon="-0.488043">
        <ele>1441.8</ele>
        <time>2018-07-22T10:44:37.000Z</time>
      </trkpt>
      <trkpt lat="42.31543" lon="-0.488042">
        <ele>1441.5</ele>
        <time>2018-07-22T10:44:38.000Z</time>
      </trkpt>
      <trkpt lat="42.315438" lon="-0.488042">
        <ele>1441.2</ele>
        <time>2018-07-22T10:44:39.000Z</time>
      </trkpt>
      <trkpt lat="42.315445" lon="-0.488042">
        <ele>1441.0</ele>
        <time>2018-07-22T10:44:40.000Z</time>
      </trkpt>
      <trkpt lat="42.31545" lon="-0.488042">
        <ele>1440.8</ele>
        <time>2018-07-22T10:44:41.000Z</time>
      </trkpt>
      <trkpt lat="42.315453" lon="-0.488043">
        <ele>1440.7</ele>
        <time>2018-07-22T10:44:42.000Z</time>
      </trkpt>
      <trkpt lat="42.315456" lon="-0.488043">
        <ele>1440.6</ele>
        <time>2018-07-22T10:44:43.000Z</time>
      </trkpt>
      <trkpt lat="42.315458" lon="-0.488043">
        <ele>1440.6</ele>
        <time>2018-07-22T10:44:44.000Z</time>
      </trkpt>
      <trkpt lat="42.31546" lon="-0.488043">
        <ele>1440.5</ele>
        <time>2018-07-22T10:44:45.000Z</time>
      </trkpt>
      <trkpt lat="42.315465" lon="-0.488044">
        <ele>1440.3</ele>
        <time>2018-07-22T10:44:46.000Z</time>
      </trkpt>
      <trkpt lat="42.315476" lon="-0.488047">
        <ele>1440.0</ele>
        <time>2018-07-22T10:44:47.000Z</time>
      </trkpt>
      <trkpt lat="42.315493" lon="-0.488052">
        <ele>1439.4</ele>
        <time>2018-07-22T10:44:48.000Z</time>
      </trkpt>
      <trkpt lat="42.315505" lon="-0.488055">
        <ele>1439.0</ele>
        <time>2018-07-22T10:44:49.000Z</time>
      </trkpt>
      <trkpt lat="42.315513" lon="-0.488057">
        <ele>1438.8</ele>
        <time>2018-07-22T10:44:50.000Z</time>
      </trkpt>
      <trkpt lat="42.31552" lon="-0.488059">
        <ele>1438.6</ele>
        <time>2018-07-22T10:44:51.000Z</time>
      </trkpt>
      <trkpt lat="42.315525" lon="-0.48806">
        <ele>1438.4</ele>
        <time>2018-07-22T10:44:52.000Z</time>
      </trkpt>
      <trkpt lat="42.315527" lon="-0.48806">
        <ele>1438.3</ele>
        <time>2018-07-22T10:44:53.000Z</time>
      </trkpt>
      <trkpt lat="42.31553" lon="-0.488061">
        <ele>1438.2</ele>
        <time>2018-07-22T10:44:54.000Z</time>
      </trkpt>
      <trkpt lat="42.315537" lon="-0.488066">
        <ele>1438.0</ele>
        <time>2018-07-22T10:44:55.000Z</time>
      </trkpt>
      <trkpt lat="42.31555" lon="-0.488076">
        <ele>1437.5</ele>
        <time>2018-07-22T10:44:56.000Z</time>
      </trkpt>
      <trkpt lat="42.315567" lon="-0.488089">
        <ele>1436.9</ele>
        <time>2018-07-22T10:44:57.000Z</time>
      </trkpt>
      <trkpt lat="42.315576" lon="-0.488093">
        <ele>1436.6</ele>
        <time>2018-07-22T10:44:58.000Z</time>
      </trkpt>
      <trkpt lat="42.315583" lon="-0.488096">
        <ele>1436.4</ele>
        <time>2018-07-22T10:44:59.000Z</time>
      </trkpt>
      <trkpt lat="42.315592" lon="-0.488101">
        <ele>1436.1</ele>
        <time>2018-07-22T10:45:00.000Z</time>
      </trkpt>
      <trkpt lat="42.3156" lon="-0.488105">
        <ele>1435.8</ele>
        <time>2018-07-22T10:45:01.000Z</time>
      </trkpt>
      <trkpt lat="42.315607" lon="-0.488108">
        <ele>1435.6</ele>
        <time>2018-07-22T10:45:02.000Z</time>
      </trkpt>
      <trkpt lat="42.315614" lon="-0.488111">
        <ele>1435.4</ele>
        <time>2018-07-22T10:45:03.000Z</time>
      </trkpt>
      <trkpt lat="42.31562" lon="-0.488113">
        <ele>1435.2</ele>
        <time>2018-07-22T10:45:04.000Z</time>
      </trkpt>
      <trkpt lat="42.315625" lon="-0.488114">
        <ele>1435.0</ele>
        <time>2018-07-22T10:45:05.000Z</time>
      </trkpt>
      <trkpt lat="42.31563" lon="-0.488115">
        <ele>1434.8</ele>
        <time>2018-07-22T10:45:06.000Z</time>
      </trkpt>
      <trkpt lat="42.315634" lon="-0.488116">
        <ele>1434.7</ele>
        <time>2018-07-22T10:45:07.000Z</time>
      </trkpt>
      <trkpt lat="42.315637" lon="-0.488117">
        <ele>1434.6</ele>
        <time>2018-07-22T10:45:08.000Z</time>
      </trkpt>
      <trkpt lat="42.31564" lon="-0.488117">
        <ele>1434.5</ele>
        <time>2018-07-22T10:45:09.000Z</time>
      </trkpt>
      <trkpt lat="42.315642" lon="-0.488118">
        <ele>1434.4</ele>
        <time>2018-07-22T10:45:10.000Z</time>
      </trkpt>
      <trkpt lat="42.315645" lon="-0.488118">
        <ele>1434.3</ele>
        <time>2018-07-22T10:45:11.000Z</time>
      </trkpt>
      <trkpt lat="42.315646" lon="-0.488119">
        <ele>1434.3</ele>
        <time>2018-07-22T10:45:12.000Z</time>
      </trkpt>
      <trkpt lat="42.315648" lon="-0.48812">
        <ele>1434.2</ele>
        <time>2018-07-22T10:45:13.000Z</time>
      </trkpt>
      <trkpt lat="42.315649" lon="-0.48812">
        <ele>1434.2</ele>
        <time>2018-07-22T10:45:14.000Z</time>
      </trkpt>
      <trkpt lat="42.315654" lon="-0.488123">
        <ele>1434.0</ele>
        <time>2018-07-22T10:45:15.000Z</time>
      </trkpt>
      <trkpt lat="42.315668" lon="-0.488137">
        <ele>1433.5</ele>
        <time>2018-07-22T10:45:16.000Z</time>
      </trkpt>
      <trkpt lat="42.315673" lon="-0.488142">
        <ele>1433.3</ele>
        <time>2018-07-22T10:45:17.000Z</time>
      </trkpt>
      <trkpt lat="42.315679" lon="-0.488145">
        <ele>1433.1</ele>
        <time>2018-07-22T10:45:18.000Z</time>
      </trkpt>
      <trkpt lat="42.315687" lon="-0.48815">
        <ele>1432.8</ele>
        <time>2018-07-22T10:45:19.000Z</time>
      </trkpt>
      <trkpt lat="42.315697" lon="-0.488155">
        <ele>1432.5</ele>
        <time>2018-07-22T10:45:20.000Z</time>
      </trkpt>
      <trkpt lat="42.315706" lon="-0.48816">
        <ele>1432.2</ele>
        <time>2018-07-22T10:45:21.000Z</time>
      </trkpt>
      <trkpt lat="42.315715" lon="-0.488165">
        <ele>1431.8</ele>
        <time>2018-07-22T10:45:22.000Z</time>
      </trkpt>
      <trkpt lat="42.315721" lon="-0.488168">
        <ele>1431.6</ele>
        <time>2018-07-22T10:45:23.000Z</time>
      </trkpt>
      <trkpt lat="42.315724" lon="-0.48817">
        <ele>1431.5</ele>
        <time>2018-07-22T10:45:24.000Z</time>
      </trkpt>
      <trkpt lat="42.315727" lon="-0.488172">
        <ele>1431.4</ele>
        <time>2018-07-22T10:45:25.000Z</time>
      </trkpt>
      <trkpt lat="42.315729" lon="-0.488173">
        <ele>1431.3</ele>
        <time>2018-07-22T10:45:26.000Z</time>
      </trkpt>
      <trkpt lat="42.315732" lon="-0.488174">
        <ele>1431.2</ele>
        <time>2018-07-22T10:45:27.000Z</time>
      </trkpt>
      <trkpt lat="42.315735" lon="-0.488176">
        <ele>1431.1</ele>
        <time>2018-07-22T10:45:28.000Z</time>
      </trkpt>
      <trkpt lat="42.315739" lon="-0.488177">
        <ele>1431.0</ele>
        <time>2018-07-22T10:45:29.000Z</time>
      </trkpt>
      <trkpt lat="42.315743" lon="-0.488179">
        <ele>1430.9</ele>
        <time>2018-07-22T10:45:30.000Z</time>
      </trkpt>
      <trkpt lat="42.315748" lon="-0.488182">
        <ele>1430.7</ele>
        <time>2018-07-22T10:45:31.000Z</time>
      </trkpt>
      <trkpt lat="42.315761" lon="-0.488186">
        <ele>1430.2</ele>
        <time>2018-07-22T10:45:32.000Z</time>
      </trkpt>
      <trkpt lat="42.315774" lon="-0.48819">
        <ele>1429.8</ele>
        <time>2018-07-22T10:45:33.000Z</time>
      </trkpt>
      <trkpt lat="42.315784" lon="-0.488194">
        <ele>1429.4</ele>
        <time>2018-07-22T10:45:34.000Z</time>
      </trkpt>
      <trkpt lat="42.315792" lon="-0.488196">
        <ele>1429.2</ele>
        <time>2018-07-22T10:45:35.000Z</time>
      </trkpt>
      <trkpt lat="42.315799" lon="-0.488198">
        <ele>1428.9</ele>
        <time>2018-07-22T10:45:36.000Z</time>
      </trkpt>
      <trkpt lat="42.315804" lon="-0.4882">
        <ele>1428.8</ele>
        <time>2018-07-22T10:45:37.000Z</time>
      </trkpt>
      <trkpt lat="42.315807" lon="-0.488201">
        <ele>1428.7</ele>
        <time>2018-07-22T10:45:38.000Z</time>
      </trkpt>
      <trkpt lat="42.315809" lon="-0.488202">
        <ele>1428.6</ele>
        <time>2018-07-22T10:45:39.000Z</time>
      </trkpt>
      <trkpt lat="42.315811" lon="-0.488202">
        <ele>1428.5</ele>
        <time>2018-07-22T10:45:40.000Z</time>
      </trkpt>
      <trkpt lat="42.315811" lon="-0.488202">
        <ele>1428.5</ele>
        <time>2018-07-22T10:45:41.000Z</time>
      </trkpt>
      <trkpt lat="42.315812" lon="-0.488202">
        <ele>1428.5</ele>
        <time>2018-07-22T10:45:42.000Z</time>
      </trkpt>
      <trkpt lat="42.315812" lon="-0.488202">
        <ele>1428.5</ele>
        <time>2018-07-22T10:45:43.000Z</time>
      </trkpt>
      <trkpt lat="42.315812" lon="-0.488202">
        <ele>1428.5</ele>
        <time>2018-07-22T10:45:44.000Z</time>
      </trkpt>
      <trkpt lat="42.315813" lon="-0.488202">
        <ele>1428.5</ele>
        <time>2018-07-22T10:45:45.000Z</time>
      </trkpt>
      <trkpt lat="42.315813" lon="-0.488203">
        <ele>1428.4</ele>
        <time>2018-07-22T10:45:46.000Z</time>
      </trkpt>
      <trkpt lat="42.315813" lon="-0.488203">
        <ele>1428.4</ele>
        <time>2018-07-22T10:45:47.000Z</time>
      </trkpt>
      <trkpt lat="42.315814" lon="-0.488203">
        <ele>1428.4</ele>
        <time>2018-07-22T10:45:48.000Z</time>
      </trkpt>
      <trkpt lat="42.315814" lon="-0.488203">
        <ele>1428.4</ele>
        <time>2018-07-22T10:45:49.000Z</time>
      </trkpt>
      <trkpt lat="42.315815" lon="-0.488203">
        <ele>1428.4</ele>
        <time>2018-07-22T10:45:50.000Z</time>
      </trkpt>
      <trkpt lat="42.315815" lon="-0.488203">
        <ele>1428.4</ele>
        <time>2018-07-22T10:45:51.000Z</time>
      </trkpt>
      <trkpt lat="42.315816" lon="-0.488203">
        <ele>1428.3</ele>
        <time>2018-07-22T10:45:52.000Z</time>
      </trkpt>
      <trkpt lat="42.315816" lon="-0.488203">
        <ele>1428.3</ele>
        <time>2018-07-22T10:45:53.000Z</time>
      </trkpt>
      <trkpt lat="42.315816" lon="-0.488203">
        <ele>1428.3</ele>
        <time>2018-07-22T10:45:54.000Z</time>
      </trkpt>
      <trkpt lat="42.315816" lon="-0.488203">
        <ele>1428.3</ele>
        <time>2018-07-22T10:45:55.000Z</time>
      </trkpt>
      <trkpt lat="42.315816" lon="-0.488203">
        <ele>1428.3</ele>
        <time>2018-07-22T10:45:56.000Z</time>
      </trkpt>
      <trkpt lat="42.315816" lon="-0.488203">
        <ele>1428.3</ele>
        <time>2018-07-22T10:45:57.000Z</time>
      </trkpt>
      <trkpt lat="42.315816" lon="-0.488203">
        <ele>1428.3</ele>
        <time>2018-07-22T10:45:58.000Z</time>
      </trkpt>
      <trkpt lat="42.315816" lon="-0.488203">
        <ele>1428.3</ele>
        <time>2018-07-22T10:45:59.000Z</time>
      </trkpt>
      <trkpt lat="42.315816" lon="-0.488203">
        <ele>1428.3</ele>
        <time>2018-07-22T10:46:00.000Z</time>
      </trkpt>
      <trkpt lat="42.315816" lon="-0.488204">
        <ele>1428.3</ele>
        <time>2018-07-22T10:46:01.000Z</time>
      </trkpt>
      <trkpt lat="42.315817" lon="-0.488204">
        <ele>1428.3</ele>
        <time>2018-07-22T10:46:02.000Z</time>
      </trkpt>
      <trkpt lat="42.315817" lon="-0.488204">
        <ele>1428.3</ele>
        <time>2018-07-22T10:46:03.000Z</time>
      </trkpt>
      <trkpt lat="42.315818" lon="-0.488204">
        <ele>1428.3</ele>
        <time>2018-07-22T10:46:04.000Z</time>
      </trkpt>
      <trkpt lat="42.315818" lon="-0.488204">
        <ele>1428.3</ele>
        <time>2018-07-22T10:46:05.000Z</time>
      </trkpt>
      <trkpt lat="42.31582" lon="-0.488205">
        <ele>1428.2</ele>
        <time>2018-07-22T10:46:06.000Z</time>
      </trkpt>
      <trkpt lat="42.315821" lon="-0.488205">
        <ele>1428.2</ele>
        <time>2018-07-22T10:46:07.000Z</time>
      </trkpt>
      <trkpt lat="42.315823" lon="-0.488206">
        <ele>1428.1</ele>
        <time>2018-07-22T10:46:08.000Z</time>
      </trkpt>
      <trkpt lat="42.315826" lon="-0.488207">
        <ele>1428.0</ele>
        <time>2018-07-22T10:46:09.000Z</time>
      </trkpt>
      <trkpt lat="42.315828" lon="-0.488208">
        <ele>1427.9</ele>
        <time>2018-07-22T10:46:10.000Z</time>
      </trkpt>
      <trkpt lat="42.315831" lon="-0.488209">
        <ele>1427.8</ele>
        <time>2018-07-22T10:46:11.000Z</time>
      </trkpt>
      <trkpt lat="42.315833" lon="-0.48821">
        <ele>1427.8</ele>
        <time>2018-07-22T10:46:12.000Z</time>
      </trkpt>
      <trkpt lat="42.315835" lon="-0.48821">
        <ele>1427.7</ele>
        <time>2018-07-22T10:46:13.000Z</time>
      </trkpt>
      <trkpt lat="42.315837" lon="-0.488211">
        <ele>1427.6</ele>
        <time>2018-07-22T10:46:14.000Z</time>
      </trkpt>
      <trkpt lat="42.31584" lon="-0.488212">
        <ele>1427.5</ele>
        <time>2018-07-22T10:46:15.000Z</time>
      </trkpt>
      <trkpt lat="42.315842" lon="-0.488214">
        <ele>1427.4</ele>
        <time>2018-07-22T10:46:16.000Z</time>
      </trkpt>
      <trkpt lat="42.315846" lon="-0.488217">
        <ele>1427.2</ele>
        <time>2018-07-22T10:46:17.000Z</time>
      </trkpt>
      <trkpt lat="42.315849" lon="-0.48822">
        <ele>1427.1</ele>
        <time>2018-07-22T10:46:18.000Z</time>
      </trkpt>
      <trkpt lat="42.315852" lon="-0.488223">
        <ele>1427.0</ele>
        <time>2018-07-22T10:46:19.000Z</time>
      </trkpt>
      <trkpt lat="42.315854" lon="-0.488225">
        <ele>1426.9</ele>
        <time>2018-07-22T10:46:20.000Z</time>
      </trkpt>
      <trkpt lat="42.315856" lon="-0.488226">
        <ele>1426.8</ele>
        <time>2018-07-22T10:46:21.000Z</time>
      </trkpt>
      <trkpt lat="42.315857" lon="-0.488226">
        <ele>1426.7</ele>
        <time>2018-07-22T10:46:22.000Z</time>
      </trkpt>
      <trkpt lat="42.315859" lon="-0.488227">
        <ele>1426.7</ele>
        <time>2018-07-22T10:46:23.000Z</time>
      </trkpt>
      <trkpt lat="42.315859" lon="-0.488227">
        <ele>1426.7</ele>
        <time>2018-07-22T10:46:24.000Z</time>
      </trkpt>
      <trkpt lat="42.31586" lon="-0.488227">
        <ele>1426.6</ele>
        <time>2018-07-22T10:46:25.000Z</time>
      </trkpt>
      <trkpt lat="42.31586" lon="-0.488227">
        <ele>1426.6</ele>
        <time>2018-07-22T10:46:26.000Z</time>
      </trkpt>
      <trkpt lat="42.31586" lon="-0.488227">
        <ele>1426.6</ele>
        <time>2018-07-22T10:46:27.000Z</time>
      </trkpt>
      <trkpt lat="42.31586" lon="-0.488227">
        <ele>1426.6</ele>
        <time>2018-07-22T10:46:28.000Z</time>
      </trkpt>
      <trkpt lat="42.315861" lon="-0.488227">
        <ele>1426.6</ele>
        <time>2018-07-22T10:46:29.000Z</time>
      </trkpt>
      <trkpt lat="42.315861" lon="-0.488228">
        <ele>1426.6</ele>
        <time>2018-07-22T10:46:30.000Z</time>
      </trkpt>
      <trkpt lat="42.315861" lon="-0.488228">
        <ele>1426.6</ele>
        <time>2018-07-22T10:46:31.000Z</time>
      </trkpt>
      <trkpt lat="42.315861" lon="-0.488228">
        <ele>1426.6</ele>
        <time>2018-07-22T10:46:32.000Z</time>
      </trkpt>
      <trkpt lat="42.315861" lon="-0.488228">
        <ele>1426.6</ele>
        <time>2018-07-22T10:46:33.000Z</time>
      </trkpt>
      <trkpt lat="42.315861" lon="-0.488228">
        <ele>1426.6</ele>
        <time>2018-07-22T10:46:34.000Z</time>
      </trkpt>
      <trkpt lat="42.315861" lon="-0.488228">
        <ele>1426.6</ele>
        <time>2018-07-22T10:46:35.000Z</time>
      </trkpt>
      <trkpt lat="42.315861" lon="-0.488227">
        <ele>1426.6</ele>
        <time>2018-07-22T10:46:36.000Z</time>
      </trkpt>
      <trkpt lat="42.315861" lon="-0.488227">
        <ele>1426.6</ele>
        <time>2018-07-22T10:46:37.000Z</time>
      </trkpt>
      <trkpt lat="42.31586" lon="-0.488227">
        <ele>1426.6</ele>
        <time>2018-07-22T10:46:38.000Z</time>
      </trkpt>
      <trkpt lat="42.31586" lon="-0.488227">
        <ele>1426.6</ele>
        <time>2018-07-22T10:46:39.000Z</time>
      </trkpt>
      <trkpt lat="42.315861" lon="-0.488227">
        <ele>1426.6</ele>
        <time>2018-07-22T10:46:40.000Z</time>
      </trkpt>
      <trkpt lat="42.315861" lon="-0.488228">
        <ele>1426.6</ele>
        <time>2018-07-22T10:46:41.000Z</time>
      </trkpt>
      <trkpt lat="42.315861" lon="-0.488228">
        <ele>1426.6</ele>
        <time>2018-07-22T10:46:42.000Z</time>
      </trkpt>
      <trkpt lat="42.315861" lon="-0.488228">
        <ele>1426.6</ele>
        <time>2018-07-22T10:46:43.000Z</time>
      </trkpt>
      <trkpt lat="42.315861" lon="-0.488228">
        <ele>1426.6</ele>
        <time>2018-07-22T10:46:44.000Z</time>
      </trkpt>
      <trkpt lat="42.315862" lon="-0.488228">
        <ele>1426.5</ele>
        <time>2018-07-22T10:46:45.000Z</time>
      </trkpt>
      <trkpt lat="42.315862" lon="-0.488228">
        <ele>1426.5</ele>
        <time>2018-07-22T10:46:46.000Z</time>
      </trkpt>
      <trkpt lat="42.315862" lon="-0.488228">
        <ele>1426.5</ele>
        <time>2018-07-22T10:46:47.000Z</time>
      </trkpt>
      <trkpt lat="42.315863" lon="-0.488228">
        <ele>1426.5</ele>
        <time>2018-07-22T10:46:48.000Z</time>
      </trkpt>
      <trkpt lat="42.315863" lon="-0.488228">
        <ele>1426.5</ele>
        <time>2018-07-22T10:46:49.000Z</time>
      </trkpt>
      <trkpt lat="42.315863" lon="-0.488228">
        <ele>1426.5</ele>
        <time>2018-07-22T10:46:50.000Z</time>
      </trkpt>
      <trkpt lat="42.315864" lon="-0.488228">
        <ele>1426.5</ele>
        <time>2018-07-22T10:46:51.000Z</time>
      </trkpt>
      <trkpt lat="42.315866" lon="-0.488229">
        <ele>1426.4</ele>
        <time>2018-07-22T10:46:52.000Z</time>
      </trkpt>
      <trkpt lat="42.31587" lon="-0.48823">
        <ele>1426.2</ele>
        <time>2018-07-22T10:46:53.000Z</time>
      </trkpt>
      <trkpt lat="42.315873" lon="-0.48823">
        <ele>1426.1</ele>
        <time>2018-07-22T10:46:54.000Z</time>
      </trkpt>
      <trkpt lat="42.315876" lon="-0.488231">
        <ele>1426.0</ele>
        <time>2018-07-22T10:46:55.000Z</time>
      </trkpt>
      <trkpt lat="42.315879" lon="-0.488232">
        <ele>1425.9</ele>
        <time>2018-07-22T10:46:56.000Z</time>
      </trkpt>
      <trkpt lat="42.315884" lon="-0.488233">
        <ele>1425.7</ele>
        <time>2018-07-22T10:46:57.000Z</time>
      </trkpt>
      <trkpt lat="42.315889" lon="-0.488236">
        <ele>1425.5</ele>
        <time>2018-07-22T10:46:58.000Z</time>
      </trkpt>
      <trkpt lat="42.315895" lon="-0.488238">
        <ele>1425.2</ele>
        <time>2018-07-22T10:46:59.000Z</time>
      </trkpt>
      <trkpt lat="42.3159" lon="-0.488239">
        <ele>1425.0</ele>
        <time>2018-07-22T10:47:00.000Z</time>
      </trkpt>
      <trkpt lat="42.315904" lon="-0.488241">
        <ele>1424.9</ele>
        <time>2018-07-22T10:47:01.000Z</time>
      </trkpt>
      <trkpt lat="42.31591" lon="-0.488244">
        <ele>1424.6</ele>
        <time>2018-07-22T10:47:02.000Z</time>
      </trkpt>
      <trkpt lat="42.315917" lon="-0.488248">
        <ele>1424.3</ele>
        <time>2018-07-22T10:47:03.000Z</time>
      </trkpt>
      <trkpt lat="42.315925" lon="-0.488253">
        <ele>1424.0</ele>
        <time>2018-07-22T10:47:04.000Z</time>
      </trkpt>
      <trkpt lat="42.315935" lon="-0.488257">
        <ele>1423.6</ele>
        <time>2018-07-22T10:47:05.000Z</time>
      </trkpt>
      <trkpt lat="42.315945" lon="-0.488259">
        <ele>1423.2</ele>
        <time>2018-07-22T10:47:06.000Z</time>
      </trkpt>
      <trkpt lat="42.315956" lon="-0.488259">
        <ele>1422.8</ele>
        <time>2018-07-22T10:47:07.000Z</time>
      </trkpt>
      <trkpt lat="42.315967" lon="-0.488258">
        <ele>1422.3</ele>
        <time>2018-07-22T10:47:08.000Z</time>
      </trkpt>
      <trkpt lat="42.315978" lon="-0.488256">
        <ele>1421.9</ele>
        <time>2018-07-22T10:47:09.000Z</time>
      </trkpt>
      <trkpt lat="42.31599" lon="-0.488255">
        <ele>1421.5</ele>
        <time>2018-07-22T10:47:10.000Z</time>
      </trkpt>
      <trkpt lat="42.316002" lon="-0.488253">
        <ele>1421.0</ele>
        <time>2018-07-22T10:47:11.000Z</time>
      </trkpt>
      <trkpt lat="42.316014" lon="-0.488252">
        <ele>1420.6</ele>
        <time>2018-07-22T10:47:12.000Z</time>
      </trkpt>
      <trkpt lat="42.316026" lon="-0.48825">
        <ele>1420.1</ele>
        <time>2018-07-22T10:47:13.000Z</time>
      </trkpt>
      <trkpt lat="42.316038" lon="-0.488248">
        <ele>1419.7</ele>
        <time>2018-07-22T10:47:14.000Z</time>
      </trkpt>
      <trkpt lat="42.31605" lon="-0.488244">
        <ele>1419.3</ele>
        <time>2018-07-22T10:47:15.000Z</time>
      </trkpt>
      <trkpt lat="42.316061" lon="-0.488239">
        <ele>1418.9</ele>
        <time>2018-07-22T10:47:16.000Z</time>
      </trkpt>
      <trkpt lat="42.316072" lon="-0.488232">
        <ele>1418.5</ele>
        <time>2018-07-22T10:47:17.000Z</time>
      </trkpt>
      <trkpt lat="42.316083" lon="-0.488224">
        <ele>1418.1</ele>
        <time>2018-07-22T10:47:18.000Z</time>
      </trkpt>
      <trkpt lat="42.316093" lon="-0.488216">
        <ele>1417.8</ele>
        <time>2018-07-22T10:47:19.000Z</time>
      </trkpt>
      <trkpt lat="42.316103" lon="-0.488208">
        <ele>1417.5</ele>
        <time>2018-07-22T10:47:20.000Z</time>
      </trkpt>
      <trkpt lat="42.316112" lon="-0.488203">
        <ele>1417.2</ele>
        <time>2018-07-22T10:47:21.000Z</time>
      </trkpt>
      <trkpt lat="42.31612" lon="-0.488199">
        <ele>1416.9</ele>
        <time>2018-07-22T10:47:22.000Z</time>
      </trkpt>
      <trkpt lat="42.316128" lon="-0.488198">
        <ele>1416.6</ele>
        <time>2018-07-22T10:47:23.000Z</time>
      </trkpt>
      <trkpt lat="42.316135" lon="-0.488199">
        <ele>1416.3</ele>
        <time>2018-07-22T10:47:24.000Z</time>
      </trkpt>
      <trkpt lat="42.316142" lon="-0.4882">
        <ele>1416.1</ele>
        <time>2018-07-22T10:47:25.000Z</time>
      </trkpt>
      <trkpt lat="42.31615" lon="-0.488202">
        <ele>1415.7</ele>
        <time>2018-07-22T10:47:26.000Z</time>
      </trkpt>
      <trkpt lat="42.316159" lon="-0.488204">
        <ele>1415.4</ele>
        <time>2018-07-22T10:47:27.000Z</time>
      </trkpt>
      <trkpt lat="42.316168" lon="-0.488205">
        <ele>1415.0</ele>
        <time>2018-07-22T10:47:28.000Z</time>
      </trkpt>
      <trkpt lat="42.316178" lon="-0.488205">
        <ele>1414.7</ele>
        <time>2018-07-22T10:47:29.000Z</time>
      </trkpt>
      <trkpt lat="42.316188" lon="-0.488205">
        <ele>1414.3</ele>
        <time>2018-07-22T10:47:30.000Z</time>
      </trkpt>
      <trkpt lat="42.316199" lon="-0.488205">
        <ele>1413.9</ele>
        <time>2018-07-22T10:47:31.000Z</time>
      </trkpt>
      <trkpt lat="42.316209" lon="-0.488204">
        <ele>1413.5</ele>
        <time>2018-07-22T10:47:32.000Z</time>
      </trkpt>
      <trkpt lat="42.316219" lon="-0.488203">
        <ele>1413.1</ele>
        <time>2018-07-22T10:47:33.000Z</time>
      </trkpt>
      <trkpt lat="42.316229" lon="-0.488201">
        <ele>1412.8</ele>
        <time>2018-07-22T10:47:34.000Z</time>
      </trkpt>
      <trkpt lat="42.316239" lon="-0.488199">
        <ele>1412.4</ele>
        <time>2018-07-22T10:47:35.000Z</time>
      </trkpt>
      <trkpt lat="42.316248" lon="-0.488197">
        <ele>1412.1</ele>
        <time>2018-07-22T10:47:36.000Z</time>
      </trkpt>
      <trkpt lat="42.316257" lon="-0.488195">
        <ele>1411.7</ele>
        <time>2018-07-22T10:47:37.000Z</time>
      </trkpt>
      <trkpt lat="42.316265" lon="-0.488193">
        <ele>1411.4</ele>
        <time>2018-07-22T10:47:38.000Z</time>
      </trkpt>
      <trkpt lat="42.316272" lon="-0.48819">
        <ele>1411.2</ele>
        <time>2018-07-22T10:47:39.000Z</time>
      </trkpt>
      <trkpt lat="42.316279" lon="-0.488188">
        <ele>1410.9</ele>
        <time>2018-07-22T10:47:40.000Z</time>
      </trkpt>
      <trkpt lat="42.316284" lon="-0.488186">
        <ele>1410.8</ele>
        <time>2018-07-22T10:47:41.000Z</time>
      </trkpt>
      <trkpt lat="42.316289" lon="-0.488184">
        <ele>1410.6</ele>
        <time>2018-07-22T10:47:42.000Z</time>
      </trkpt>
      <trkpt lat="42.316293" lon="-0.488182">
        <ele>1410.5</ele>
        <time>2018-07-22T10:47:43.000Z</time>
      </trkpt>
      <trkpt lat="42.316295" lon="-0.488181">
        <ele>1410.4</ele>
        <time>2018-07-22T10:47:44.000Z</time>
      </trkpt>
      <trkpt lat="42.316297" lon="-0.488179">
        <ele>1410.3</ele>
        <time>2018-07-22T10:47:45.000Z</time>
      </trkpt>
      <trkpt lat="42.316298" lon="-0.488178">
        <ele>1410.3</ele>
        <time>2018-07-22T10:47:46.000Z</time>
      </trkpt>
      <trkpt lat="42.316299" lon="-0.488177">
        <ele>1410.3</ele>
        <time>2018-07-22T10:47:47.000Z</time>
      </trkpt>
      <trkpt lat="42.316301" lon="-0.488176">
        <ele>1410.2</ele>
        <time>2018-07-22T10:47:48.000Z</time>
      </trkpt>
      <trkpt lat="42.316302" lon="-0.488176">
        <ele>1410.2</ele>
        <time>2018-07-22T10:47:49.000Z</time>
      </trkpt>
      <trkpt lat="42.316304" lon="-0.488175">
        <ele>1410.1</ele>
        <time>2018-07-22T10:47:50.000Z</time>
      </trkpt>
      <trkpt lat="42.316308" lon="-0.488174">
        <ele>1409.9</ele>
        <time>2018-07-22T10:47:51.000Z</time>
      </trkpt>
      <trkpt lat="42.316312" lon="-0.488173">
        <ele>1409.8</ele>
        <time>2018-07-22T10:47:52.000Z</time>
      </trkpt>
      <trkpt lat="42.316318" lon="-0.488172">
        <ele>1409.6</ele>
        <time>2018-07-22T10:47:53.000Z</time>
      </trkpt>
      <trkpt lat="42.316325" lon="-0.488171">
        <ele>1409.3</ele>
        <time>2018-07-22T10:47:54.000Z</time>
      </trkpt>
      <trkpt lat="42.316333" lon="-0.48817">
        <ele>1409.0</ele>
        <time>2018-07-22T10:47:55.000Z</time>
      </trkpt>
      <trkpt lat="42.316339" lon="-0.48817">
        <ele>1408.8</ele>
        <time>2018-07-22T10:47:56.000Z</time>
      </trkpt>
      <trkpt lat="42.316344" lon="-0.48817">
        <ele>1408.6</ele>
        <time>2018-07-22T10:47:57.000Z</time>
      </trkpt>
      <trkpt lat="42.31635" lon="-0.488171">
        <ele>1408.4</ele>
        <time>2018-07-22T10:47:58.000Z</time>
      </trkpt>
      <trkpt lat="42.316357" lon="-0.488172">
        <ele>1408.1</ele>
        <time>2018-07-22T10:47:59.000Z</time>
      </trkpt>
      <trkpt lat="42.316365" lon="-0.488174">
        <ele>1407.8</ele>
        <time>2018-07-22T10:48:00.000Z</time>
      </trkpt>
      <trkpt lat="42.316372" lon="-0.488176">
        <ele>1407.5</ele>
        <time>2018-07-22T10:48:01.000Z</time>
      </trkpt>
      <trkpt lat="42.316379" lon="-0.488178">
        <ele>1407.2</ele>
        <time>2018-07-22T10:48:02.000Z</time>
      </trkpt>
      <trkpt lat="42.316385" lon="-0.48818">
        <ele>1407.0</ele>
        <time>2018-07-22T10:48:03.000Z</time>
      </trkpt>
      <trkpt lat="42.316392" lon="-0.488182">
        <ele>1406.7</ele>
        <time>2018-07-22T10:48:04.000Z</time>
      </trkpt>
      <trkpt lat="42.316399" lon="-0.488185">
        <ele>1406.4</ele>
        <time>2018-07-22T10:48:05.000Z</time>
      </trkpt>
      <trkpt lat="42.316405" lon="-0.488188">
        <ele>1406.2</ele>
        <time>2018-07-22T10:48:06.000Z</time>
      </trkpt>
      <trkpt lat="42.316412" lon="-0.488191">
        <ele>1405.9</ele>
        <time>2018-07-22T10:48:07.000Z</time>
      </trkpt>
      <trkpt lat="42.316419" lon="-0.488195">
        <ele>1405.6</ele>
        <time>2018-07-22T10:48:08.000Z</time>
      </trkpt>
      <trkpt lat="42.316426" lon="-0.488199">
        <ele>1405.3</ele>
        <time>2018-07-22T10:48:09.000Z</time>
      </trkpt>
      <trkpt lat="42.316434" lon="-0.488203">
        <ele>1404.9</ele>
        <time>2018-07-22T10:48:10.000Z</time>
      </trkpt>
      <trkpt lat="42.316442" lon="-0.488207">
        <ele>1404.6</ele>
        <time>2018-07-22T10:48:11.000Z</time>
      </trkpt>
      <trkpt lat="42.316451" lon="-0.488212">
        <ele>1404.2</ele>
        <time>2018-07-22T10:48:12.000Z</time>
      </trkpt>
      <trkpt lat="42.31646" lon="-0.488216">
        <ele>1403.9</ele>
        <time>2018-07-22T10:48:13.000Z</time>
      </trkpt>
      <trkpt lat="42.316469" lon="-0.48822">
        <ele>1403.5</ele>
        <time>2018-07-22T10:48:14.000Z</time>
      </trkpt>
      <trkpt lat="42.316478" lon="-0.488223">
        <ele>1403.1</ele>
        <time>2018-07-22T10:48:15.000Z</time>
      </trkpt>
      <trkpt lat="42.316486" lon="-0.488225">
        <ele>1402.8</ele>
        <time>2018-07-22T10:48:16.000Z</time>
      </trkpt>
      <trkpt lat="42.316494" lon="-0.488226">
        <ele>1402.5</ele>
        <time>2018-07-22T10:48:17.000Z</time>
      </trkpt>
      <trkpt lat="42.316501" lon="-0.488225">
        <ele>1402.2</ele>
        <time>2018-07-22T10:48:18.000Z</time>
      </trkpt>
      <trkpt lat="42.316507" lon="-0.488225">
        <ele>1402.0</ele>
        <time>2018-07-22T10:48:19.000Z</time>
      </trkpt>
      <trkpt lat="42.316514" lon="-0.488223">
        <ele>1401.7</ele>
        <time>2018-07-22T10:48:20.000Z</time>
      </trkpt>
      <trkpt lat="42.316521" lon="-0.488222">
        <ele>1401.5</ele>
        <time>2018-07-22T10:48:21.000Z</time>
      </trkpt>
      <trkpt lat="42.316528" lon="-0.488221">
        <ele>1401.2</ele>
        <time>2018-07-22T10:48:22.000Z</time>
      </trkpt>
      <trkpt lat="42.316536" lon="-0.488221">
        <ele>1400.9</ele>
        <time>2018-07-22T10:48:23.000Z</time>
      </trkpt>
      <trkpt lat="42.316545" lon="-0.48822">
        <ele>1400.6</ele>
        <time>2018-07-22T10:48:24.000Z</time>
      </trkpt>
      <trkpt lat="42.316554" lon="-0.48822">
        <ele>1400.2</ele>
        <time>2018-07-22T10:48:25.000Z</time>
      </trkpt>
      <trkpt lat="42.316562" lon="-0.488219">
        <ele>1399.9</ele>
        <time>2018-07-22T10:48:26.000Z</time>
      </trkpt>
      <trkpt lat="42.316571" lon="-0.488219">
        <ele>1399.6</ele>
        <time>2018-07-22T10:48:27.000Z</time>
      </trkpt>
      <trkpt lat="42.316579" lon="-0.488218">
        <ele>1399.3</ele>
        <time>2018-07-22T10:48:28.000Z</time>
      </trkpt>
      <trkpt lat="42.316587" lon="-0.488218">
        <ele>1399.0</ele>
        <time>2018-07-22T10:48:29.000Z</time>
      </trkpt>
      <trkpt lat="42.316595" lon="-0.488217">
        <ele>1398.7</ele>
        <time>2018-07-22T10:48:30.000Z</time>
      </trkpt>
      <trkpt lat="42.316603" lon="-0.488217">
        <ele>1398.4</ele>
        <time>2018-07-22T10:48:31.000Z</time>
      </trkpt>
      <trkpt lat="42.316611" lon="-0.488216">
        <ele>1398.1</ele>
        <time>2018-07-22T10:48:32.000Z</time>
      </trkpt>
      <trkpt lat="42.316619" lon="-0.488216">
        <ele>1397.8</ele>
        <time>2018-07-22T10:48:33.000Z</time>
      </trkpt>
      <trkpt lat="42.316627" lon="-0.488215">
        <ele>1397.5</ele>
        <time>2018-07-22T10:48:34.000Z</time>
      </trkpt>
      <trkpt lat="42.316635" lon="-0.488214">
        <ele>1397.2</ele>
        <time>2018-07-22T10:48:35.000Z</time>
      </trkpt>
      <trkpt lat="42.316642" lon="-0.488213">
        <ele>1396.9</ele>
        <time>2018-07-22T10:48:36.000Z</time>
      </trkpt>
      <trkpt lat="42.31665" lon="-0.488212">
        <ele>1396.7</ele>
        <time>2018-07-22T10:48:37.000Z</time>
      </trkpt>
      <trkpt lat="42.316658" lon="-0.488211">
        <ele>1396.4</ele>
        <time>2018-07-22T10:48:38.000Z</time>
      </trkpt>
      <trkpt lat="42.316666" lon="-0.48821">
        <ele>1396.1</ele>
        <time>2018-07-22T10:48:39.000Z</time>
      </trkpt>
      <trkpt lat="42.316675" lon="-0.488209">
        <ele>1395.7</ele>
        <time>2018-07-22T10:48:40.000Z</time>
      </trkpt>
      <trkpt lat="42.316683" lon="-0.488208">
        <ele>1395.5</ele>
        <time>2018-07-22T10:48:41.000Z</time>
      </trkpt>
      <trkpt lat="42.316691" lon="-0.488206">
        <ele>1395.2</ele>
        <time>2018-07-22T10:48:42.000Z</time>
      </trkpt>
      <trkpt lat="42.3167" lon="-0.488205">
        <ele>1394.9</ele>
        <time>2018-07-22T10:48:43.000Z</time>
      </trkpt>
      <trkpt lat="42.316709" lon="-0.488203">
        <ele>1394.6</ele>
        <time>2018-07-22T10:48:44.000Z</time>
      </trkpt>
      <trkpt lat="42.316719" lon="-0.488202">
        <ele>1394.2</ele>
        <time>2018-07-22T10:48:45.000Z</time>
      </trkpt>
      <trkpt lat="42.316728" lon="-0.4882">
        <ele>1393.9</ele>
        <time>2018-07-22T10:48:46.000Z</time>
      </trkpt>
      <trkpt lat="42.316738" lon="-0.488198">
        <ele>1393.6</ele>
        <time>2018-07-22T10:48:47.000Z</time>
      </trkpt>
      <trkpt lat="42.316749" lon="-0.488196">
        <ele>1393.2</ele>
        <time>2018-07-22T10:48:48.000Z</time>
      </trkpt>
      <trkpt lat="42.316759" lon="-0.488194">
        <ele>1392.9</ele>
        <time>2018-07-22T10:48:49.000Z</time>
      </trkpt>
      <trkpt lat="42.31677" lon="-0.488192">
        <ele>1392.5</ele>
        <time>2018-07-22T10:48:50.000Z</time>
      </trkpt>
      <trkpt lat="42.316782" lon="-0.488191">
        <ele>1392.1</ele>
        <time>2018-07-22T10:48:51.000Z</time>
      </trkpt>
      <trkpt lat="42.316793" lon="-0.488189">
        <ele>1391.7</ele>
        <time>2018-07-22T10:48:52.000Z</time>
      </trkpt>
      <trkpt lat="42.316805" lon="-0.488187">
        <ele>1391.3</ele>
        <time>2018-07-22T10:48:53.000Z</time>
      </trkpt>
      <trkpt lat="42.316816" lon="-0.488186">
        <ele>1390.9</ele>
        <time>2018-07-22T10:48:54.000Z</time>
      </trkpt>
      <trkpt lat="42.316827" lon="-0.488185">
        <ele>1390.5</ele>
        <time>2018-07-22T10:48:55.000Z</time>
      </trkpt>
      <trkpt lat="42.316839" lon="-0.488184">
        <ele>1390.1</ele>
        <time>2018-07-22T10:48:56.000Z</time>
      </trkpt>
      <trkpt lat="42.31685" lon="-0.488184">
        <ele>1389.7</ele>
        <time>2018-07-22T10:48:57.000Z</time>
      </trkpt>
      <trkpt lat="42.316861" lon="-0.488184">
        <ele>1389.3</ele>
        <time>2018-07-22T10:48:58.000Z</time>
      </trkpt>
      <trkpt lat="42.316872" lon="-0.488185">
        <ele>1388.9</ele>
        <time>2018-07-22T10:48:59.000Z</time>
      </trkpt>
      <trkpt lat="42.316882" lon="-0.488185">
        <ele>1388.6</ele>
        <time>2018-07-22T10:49:00.000Z</time>
      </trkpt>
      <trkpt lat="42.316892" lon="-0.488186">
        <ele>1388.2</ele>
        <time>2018-07-22T10:49:01.000Z</time>
      </trkpt>
      <trkpt lat="42.316901" lon="-0.488188">
        <ele>1387.9</ele>
        <time>2018-07-22T10:49:02.000Z</time>
      </trkpt>
      <trkpt lat="42.31691" lon="-0.488189">
        <ele>1387.5</ele>
        <time>2018-07-22T10:49:03.000Z</time>
      </trkpt>
      <trkpt lat="42.316916" lon="-0.48819">
        <ele>1387.3</ele>
        <time>2018-07-22T10:49:04.000Z</time>
      </trkpt>
      <trkpt lat="42.316922" lon="-0.488191">
        <ele>1387.1</ele>
        <time>2018-07-22T10:49:05.000Z</time>
      </trkpt>
      <trkpt lat="42.316925" lon="-0.488191">
        <ele>1387.0</ele>
        <time>2018-07-22T10:49:06.000Z</time>
      </trkpt>
      <trkpt lat="42.316928" lon="-0.488192">
        <ele>1386.9</ele>
        <time>2018-07-22T10:49:07.000Z</time>
      </trkpt>
      <trkpt lat="42.31693" lon="-0.488192">
        <ele>1386.8</ele>
        <time>2018-07-22T10:49:08.000Z</time>
      </trkpt>
      <trkpt lat="42.316933" lon="-0.488193">
        <ele>1386.7</ele>
        <time>2018-07-22T10:49:09.000Z</time>
      </trkpt>
      <trkpt lat="42.316937" lon="-0.488194">
        <ele>1386.5</ele>
        <time>2018-07-22T10:49:10.000Z</time>
      </trkpt>
      <trkpt lat="42.316943" lon="-0.488195">
        <ele>1386.3</ele>
        <time>2018-07-22T10:49:11.000Z</time>
      </trkpt>
      <trkpt lat="42.316953" lon="-0.488194">
        <ele>1386.0</ele>
        <time>2018-07-22T10:49:12.000Z</time>
      </trkpt>
      <trkpt lat="42.316967" lon="-0.48819">
        <ele>1385.5</ele>
        <time>2018-07-22T10:49:13.000Z</time>
      </trkpt>
      <trkpt lat="42.316979" lon="-0.488186">
        <ele>1385.1</ele>
        <time>2018-07-22T10:49:14.000Z</time>
      </trkpt>
      <trkpt lat="42.316989" lon="-0.488183">
        <ele>1384.7</ele>
        <time>2018-07-22T10:49:15.000Z</time>
      </trkpt>
      <trkpt lat="42.316997" lon="-0.48818">
        <ele>1384.5</ele>
        <time>2018-07-22T10:49:16.000Z</time>
      </trkpt>
      <trkpt lat="42.317004" lon="-0.488177">
        <ele>1384.2</ele>
        <time>2018-07-22T10:49:17.000Z</time>
      </trkpt>
      <trkpt lat="42.317011" lon="-0.488173">
        <ele>1384.0</ele>
        <time>2018-07-22T10:49:18.000Z</time>
      </trkpt>
      <trkpt lat="42.317019" lon="-0.48817">
        <ele>1383.7</ele>
        <time>2018-07-22T10:49:19.000Z</time>
      </trkpt>
      <trkpt lat="42.317026" lon="-0.488167">
        <ele>1383.5</ele>
        <time>2018-07-22T10:49:20.000Z</time>
      </trkpt>
      <trkpt lat="42.317034" lon="-0.488163">
        <ele>1383.2</ele>
        <time>2018-07-22T10:49:21.000Z</time>
      </trkpt>
      <trkpt lat="42.317042" lon="-0.48816">
        <ele>1382.9</ele>
        <time>2018-07-22T10:49:22.000Z</time>
      </trkpt>
      <trkpt lat="42.31705" lon="-0.488158">
        <ele>1382.6</ele>
        <time>2018-07-22T10:49:23.000Z</time>
      </trkpt>
      <trkpt lat="42.317059" lon="-0.488155">
        <ele>1382.3</ele>
        <time>2018-07-22T10:49:24.000Z</time>
      </trkpt>
      <trkpt lat="42.317067" lon="-0.488153">
        <ele>1382.0</ele>
        <time>2018-07-22T10:49:25.000Z</time>
      </trkpt>
      <trkpt lat="42.317075" lon="-0.488151">
        <ele>1381.7</ele>
        <time>2018-07-22T10:49:26.000Z</time>
      </trkpt>
      <trkpt lat="42.317083" lon="-0.488149">
        <ele>1381.5</ele>
        <time>2018-07-22T10:49:27.000Z</time>
      </trkpt>
      <trkpt lat="42.317091" lon="-0.488148">
        <ele>1381.2</ele>
        <time>2018-07-22T10:49:28.000Z</time>
      </trkpt>
      <trkpt lat="42.317097" lon="-0.488146">
        <ele>1381.0</ele>
        <time>2018-07-22T10:49:29.000Z</time>
      </trkpt>
      <trkpt lat="42.317103" lon="-0.488145">
        <ele>1380.7</ele>
        <time>2018-07-22T10:49:30.000Z</time>
      </trkpt>
      <trkpt lat="42.317108" lon="-0.488144">
        <ele>1380.6</ele>
        <time>2018-07-22T10:49:31.000Z</time>
      </trkpt>
      <trkpt lat="42.317112" lon="-0.488143">
        <ele>1380.4</ele>
        <time>2018-07-22T10:49:32.000Z</time>
      </trkpt>
      <trkpt lat="42.317115" lon="-0.488142">
        <ele>1380.3</ele>
        <time>2018-07-22T10:49:33.000Z</time>
      </trkpt>
      <trkpt lat="42.317117" lon="-0.488141">
        <ele>1380.2</ele>
        <time>2018-07-22T10:49:34.000Z</time>
      </trkpt>
      <trkpt lat="42.317118" lon="-0.488141">
        <ele>1380.2</ele>
        <time>2018-07-22T10:49:35.000Z</time>
      </trkpt>
      <trkpt lat="42.317119" lon="-0.488141">
        <ele>1380.2</ele>
        <time>2018-07-22T10:49:36.000Z</time>
      </trkpt>
      <trkpt lat="42.317121" lon="-0.488141">
        <ele>1380.1</ele>
        <time>2018-07-22T10:49:37.000Z</time>
      </trkpt>
      <trkpt lat="42.317124" lon="-0.488142">
        <ele>1380.0</ele>
        <time>2018-07-22T10:49:38.000Z</time>
      </trkpt>
      <trkpt lat="42.317127" lon="-0.488143">
        <ele>1379.9</ele>
        <time>2018-07-22T10:49:39.000Z</time>
      </trkpt>
      <trkpt lat="42.317131" lon="-0.488144">
        <ele>1379.7</ele>
        <time>2018-07-22T10:49:40.000Z</time>
      </trkpt>
      <trkpt lat="42.317136" lon="-0.488145">
        <ele>1379.5</ele>
        <time>2018-07-22T10:49:41.000Z</time>
      </trkpt>
      <trkpt lat="42.317139" lon="-0.488146">
        <ele>1379.4</ele>
        <time>2018-07-22T10:49:42.000Z</time>
      </trkpt>
      <trkpt lat="42.317143" lon="-0.488146">
        <ele>1379.3</ele>
        <time>2018-07-22T10:49:43.000Z</time>
      </trkpt>
      <trkpt lat="42.317145" lon="-0.488146">
        <ele>1379.2</ele>
        <time>2018-07-22T10:49:44.000Z</time>
      </trkpt>
      <trkpt lat="42.317148" lon="-0.488146">
        <ele>1379.1</ele>
        <time>2018-07-22T10:49:45.000Z</time>
      </trkpt>
      <trkpt lat="42.317153" lon="-0.488145">
        <ele>1378.9</ele>
        <time>2018-07-22T10:49:46.000Z</time>
      </trkpt>
      <trkpt lat="42.317158" lon="-0.488144">
        <ele>1378.7</ele>
        <time>2018-07-22T10:49:47.000Z</time>
      </trkpt>
      <trkpt lat="42.317164" lon="-0.488144">
        <ele>1378.5</ele>
        <time>2018-07-22T10:49:48.000Z</time>
      </trkpt>
      <trkpt lat="42.317169" lon="-0.488143">
        <ele>1378.3</ele>
        <time>2018-07-22T10:49:49.000Z</time>
      </trkpt>
      <trkpt lat="42.317173" lon="-0.488142">
        <ele>1378.2</ele>
        <time>2018-07-22T10:49:50.000Z</time>
      </trkpt>
      <trkpt lat="42.317176" lon="-0.488141">
        <ele>1378.1</ele>
        <time>2018-07-22T10:49:51.000Z</time>
      </trkpt>
      <trkpt lat="42.317177" lon="-0.488141">
        <ele>1378.1</ele>
        <time>2018-07-22T10:49:52.000Z</time>
      </trkpt>
      <trkpt lat="42.317179" lon="-0.48814">
        <ele>1378.0</ele>
        <time>2018-07-22T10:49:53.000Z</time>
      </trkpt>
      <trkpt lat="42.31718" lon="-0.48814">
        <ele>1377.9</ele>
        <time>2018-07-22T10:49:54.000Z</time>
      </trkpt>
      <trkpt lat="42.317181" lon="-0.488139">
        <ele>1377.9</ele>
        <time>2018-07-22T10:49:55.000Z</time>
      </trkpt>
      <trkpt lat="42.317182" lon="-0.488139">
        <ele>1377.9</ele>
        <time>2018-07-22T10:49:56.000Z</time>
      </trkpt>
      <trkpt lat="42.317183" lon="-0.488138">
        <ele>1377.8</ele>
        <time>2018-07-22T10:49:57.000Z</time>
      </trkpt>
      <trkpt lat="42.317185" lon="-0.488138">
        <ele>1377.8</ele>
        <time>2018-07-22T10:49:58.000Z</time>
      </trkpt>
      <trkpt lat="42.317188" lon="-0.488137">
        <ele>1377.7</ele>
        <time>2018-07-22T10:49:59.000Z</time>
      </trkpt>
      <trkpt lat="42.317191" lon="-0.488135">
        <ele>1377.6</ele>
        <time>2018-07-22T10:50:00.000Z</time>
      </trkpt>
      <trkpt lat="42.317195" lon="-0.488133">
        <ele>1377.4</ele>
        <time>2018-07-22T10:50:01.000Z</time>
      </trkpt>
      <trkpt lat="42.317201" lon="-0.488131">
        <ele>1377.2</ele>
        <time>2018-07-22T10:50:02.000Z</time>
      </trkpt>
      <trkpt lat="42.317208" lon="-0.488128">
        <ele>1376.9</ele>
        <time>2018-07-22T10:50:03.000Z</time>
      </trkpt>
      <trkpt lat="42.317216" lon="-0.488124">
        <ele>1376.6</ele>
        <time>2018-07-22T10:50:04.000Z</time>
      </trkpt>
      <trkpt lat="42.317227" lon="-0.488119">
        <ele>1376.2</ele>
        <time>2018-07-22T10:50:05.000Z</time>
      </trkpt>
      <trkpt lat="42.317237" lon="-0.488114">
        <ele>1375.9</ele>
        <time>2018-07-22T10:50:06.000Z</time>
      </trkpt>
      <trkpt lat="42.317247" lon="-0.488109">
        <ele>1375.5</ele>
        <time>2018-07-22T10:50:07.000Z</time>
      </trkpt>
      <trkpt lat="42.317254" lon="-0.488104">
        <ele>1375.3</ele>
        <time>2018-07-22T10:50:08.000Z</time>
      </trkpt>
      <trkpt lat="42.317259" lon="-0.4881">
        <ele>1375.1</ele>
        <time>2018-07-22T10:50:09.000Z</time>
      </trkpt>
      <trkpt lat="42.317262" lon="-0.488098">
        <ele>1375.0</ele>
        <time>2018-07-22T10:50:10.000Z</time>
      </trkpt>
      <trkpt lat="42.317264" lon="-0.488096">
        <ele>1374.9</ele>
        <time>2018-07-22T10:50:11.000Z</time>
      </trkpt>
      <trkpt lat="42.317266" lon="-0.488095">
        <ele>1374.8</ele>
        <time>2018-07-22T10:50:12.000Z</time>
      </trkpt>
      <trkpt lat="42.31727" lon="-0.488093">
        <ele>1374.7</ele>
        <time>2018-07-22T10:50:13.000Z</time>
      </trkpt>
      <trkpt lat="42.317279" lon="-0.488088">
        <ele>1374.3</ele>
        <time>2018-07-22T10:50:14.000Z</time>
      </trkpt>
      <trkpt lat="42.317288" lon="-0.488083">
        <ele>1374.0</ele>
        <time>2018-07-22T10:50:15.000Z</time>
      </trkpt>
      <trkpt lat="42.317296" lon="-0.488078">
        <ele>1373.7</ele>
        <time>2018-07-22T10:50:16.000Z</time>
      </trkpt>
      <trkpt lat="42.317303" lon="-0.488074">
        <ele>1373.4</ele>
        <time>2018-07-22T10:50:17.000Z</time>
      </trkpt>
      <trkpt lat="42.317307" lon="-0.488071">
        <ele>1373.3</ele>
        <time>2018-07-22T10:50:18.000Z</time>
      </trkpt>
      <trkpt lat="42.317311" lon="-0.488069">
        <ele>1373.1</ele>
        <time>2018-07-22T10:50:19.000Z</time>
      </trkpt>
      <trkpt lat="42.317313" lon="-0.488068">
        <ele>1373.0</ele>
        <time>2018-07-22T10:50:20.000Z</time>
      </trkpt>
      <trkpt lat="42.317314" lon="-0.488067">
        <ele>1373.0</ele>
        <time>2018-07-22T10:50:21.000Z</time>
      </trkpt>
      <trkpt lat="42.317315" lon="-0.488066">
        <ele>1373.0</ele>
        <time>2018-07-22T10:50:22.000Z</time>
      </trkpt>
      <trkpt lat="42.317316" lon="-0.488066">
        <ele>1372.9</ele>
        <time>2018-07-22T10:50:23.000Z</time>
      </trkpt>
      <trkpt lat="42.317316" lon="-0.488065">
        <ele>1372.9</ele>
        <time>2018-07-22T10:50:24.000Z</time>
      </trkpt>
      <trkpt lat="42.317317" lon="-0.488065">
        <ele>1372.9</ele>
        <time>2018-07-22T10:50:25.000Z</time>
      </trkpt>
      <trkpt lat="42.317318" lon="-0.488064">
        <ele>1372.9</ele>
        <time>2018-07-22T10:50:26.000Z</time>
      </trkpt>
      <trkpt lat="42.31732" lon="-0.488063">
        <ele>1372.8</ele>
        <time>2018-07-22T10:50:27.000Z</time>
      </trkpt>
      <trkpt lat="42.317323" lon="-0.488061">
        <ele>1372.7</ele>
        <time>2018-07-22T10:50:28.000Z</time>
      </trkpt>
      <trkpt lat="42.317329" lon="-0.488057">
        <ele>1372.4</ele>
        <time>2018-07-22T10:50:29.000Z</time>
      </trkpt>
      <trkpt lat="42.317338" lon="-0.488051">
        <ele>1372.1</ele>
        <time>2018-07-22T10:50:30.000Z</time>
      </trkpt>
      <trkpt lat="42.317347" lon="-0.488046">
        <ele>1371.7</ele>
        <time>2018-07-22T10:50:31.000Z</time>
      </trkpt>
      <trkpt lat="42.317354" lon="-0.488042">
        <ele>1371.5</ele>
        <time>2018-07-22T10:50:32.000Z</time>
      </trkpt>
      <trkpt lat="42.317357" lon="-0.488039">
        <ele>1371.4</ele>
        <time>2018-07-22T10:50:33.000Z</time>
      </trkpt>
      <trkpt lat="42.317359" lon="-0.488038">
        <ele>1371.3</ele>
        <time>2018-07-22T10:50:34.000Z</time>
      </trkpt>
      <trkpt lat="42.31736" lon="-0.488038">
        <ele>1371.2</ele>
        <time>2018-07-22T10:50:35.000Z</time>
      </trkpt>
      <trkpt lat="42.31736" lon="-0.488038">
        <ele>1371.2</ele>
        <time>2018-07-22T10:50:36.000Z</time>
      </trkpt>
      <trkpt lat="42.31736" lon="-0.488038">
        <ele>1371.2</ele>
        <time>2018-07-22T10:50:37.000Z</time>
      </trkpt>
      <trkpt lat="42.31736" lon="-0.488038">
        <ele>1371.2</ele>
        <time>2018-07-22T10:50:38.000Z</time>
      </trkpt>
      <trkpt lat="42.31736" lon="-0.488038">
        <ele>1371.2</ele>
        <time>2018-07-22T10:50:39.000Z</time>
      </trkpt>
      <trkpt lat="42.31736" lon="-0.488037">
        <ele>1371.2</ele>
        <time>2018-07-22T10:50:40.000Z</time>
      </trkpt>
      <trkpt lat="42.317361" lon="-0.488037">
        <ele>1371.2</ele>
        <time>2018-07-22T10:50:41.000Z</time>
      </trkpt>
      <trkpt lat="42.317361" lon="-0.488037">
        <ele>1371.2</ele>
        <time>2018-07-22T10:50:42.000Z</time>
      </trkpt>
      <trkpt lat="42.317361" lon="-0.488037">
        <ele>1371.2</ele>
        <time>2018-07-22T10:50:43.000Z</time>
      </trkpt>
      <trkpt lat="42.317362" lon="-0.488037">
        <ele>1371.2</ele>
        <time>2018-07-22T10:50:44.000Z</time>
      </trkpt>
      <trkpt lat="42.317362" lon="-0.488037">
        <ele>1371.2</ele>
        <time>2018-07-22T10:50:45.000Z</time>
      </trkpt>
      <trkpt lat="42.317362" lon="-0.488037">
        <ele>1371.2</ele>
        <time>2018-07-22T10:50:46.000Z</time>
      </trkpt>
      <trkpt lat="42.317363" lon="-0.488037">
        <ele>1371.1</ele>
        <time>2018-07-22T10:50:47.000Z</time>
      </trkpt>
      <trkpt lat="42.317364" lon="-0.488037">
        <ele>1371.1</ele>
        <time>2018-07-22T10:50:48.000Z</time>
      </trkpt>
      <trkpt lat="42.317372" lon="-0.488039">
        <ele>1370.8</ele>
        <time>2018-07-22T10:50:49.000Z</time>
      </trkpt>
      <trkpt lat="42.317387" lon="-0.488044">
        <ele>1370.2</ele>
        <time>2018-07-22T10:50:50.000Z</time>
      </trkpt>
      <trkpt lat="42.317398" lon="-0.488047">
        <ele>1369.8</ele>
        <time>2018-07-22T10:50:51.000Z</time>
      </trkpt>
      <trkpt lat="42.317404" lon="-0.488049">
        <ele>1369.6</ele>
        <time>2018-07-22T10:50:52.000Z</time>
      </trkpt>
      <trkpt lat="42.317407" lon="-0.48805">
        <ele>1369.5</ele>
        <time>2018-07-22T10:50:53.000Z</time>
      </trkpt>
      <trkpt lat="42.317409" lon="-0.48805">
        <ele>1369.4</ele>
        <time>2018-07-22T10:50:54.000Z</time>
      </trkpt>
      <trkpt lat="42.31741" lon="-0.48805">
        <ele>1369.4</ele>
        <time>2018-07-22T10:50:55.000Z</time>
      </trkpt>
      <trkpt lat="42.317411" lon="-0.48805">
        <ele>1369.3</ele>
        <time>2018-07-22T10:50:56.000Z</time>
      </trkpt>
      <trkpt lat="42.317412" lon="-0.488049">
        <ele>1369.3</ele>
        <time>2018-07-22T10:50:57.000Z</time>
      </trkpt>
      <trkpt lat="42.317413" lon="-0.488049">
        <ele>1369.3</ele>
        <time>2018-07-22T10:50:58.000Z</time>
      </trkpt>
      <trkpt lat="42.317414" lon="-0.488049">
        <ele>1369.2</ele>
        <time>2018-07-22T10:50:59.000Z</time>
      </trkpt>
      <trkpt lat="42.317414" lon="-0.488049">
        <ele>1369.2</ele>
        <time>2018-07-22T10:51:00.000Z</time>
      </trkpt>
      <trkpt lat="42.317415" lon="-0.488049">
        <ele>1369.2</ele>
        <time>2018-07-22T10:51:01.000Z</time>
      </trkpt>
      <trkpt lat="42.317415" lon="-0.488049">
        <ele>1369.2</ele>
        <time>2018-07-22T10:51:02.000Z</time>
      </trkpt>
      <trkpt lat="42.317415" lon="-0.488049">
        <ele>1369.2</ele>
        <time>2018-07-22T10:51:03.000Z</time>
      </trkpt>
      <trkpt lat="42.317415" lon="-0.488049">
        <ele>1369.2</ele>
        <time>2018-07-22T10:51:04.000Z</time>
      </trkpt>
      <trkpt lat="42.317416" lon="-0.488049">
        <ele>1369.1</ele>
        <time>2018-07-22T10:51:05.000Z</time>
      </trkpt>
      <trkpt lat="42.317416" lon="-0.488049">
        <ele>1369.1</ele>
        <time>2018-07-22T10:51:06.000Z</time>
      </trkpt>
      <trkpt lat="42.317416" lon="-0.488049">
        <ele>1369.1</ele>
        <time>2018-07-22T10:51:07.000Z</time>
      </trkpt>
      <trkpt lat="42.317416" lon="-0.488049">
        <ele>1369.1</ele>
        <time>2018-07-22T10:51:08.000Z</time>
      </trkpt>
      <trkpt lat="42.317416" lon="-0.488049">
        <ele>1369.1</ele>
        <time>2018-07-22T10:51:09.000Z</time>
      </trkpt>
      <trkpt lat="42.317416" lon="-0.488049">
        <ele>1369.1</ele>
        <time>2018-07-22T10:51:10.000Z</time>
      </trkpt>
      <trkpt lat="42.317416" lon="-0.488049">
        <ele>1369.1</ele>
        <time>2018-07-22T10:51:11.000Z</time>
      </trkpt>
      <trkpt lat="42.317417" lon="-0.488049">
        <ele>1369.1</ele>
        <time>2018-07-22T10:51:12.000Z</time>
      </trkpt>
      <trkpt lat="42.317417" lon="-0.488049">
        <ele>1369.1</ele>
        <time>2018-07-22T10:51:13.000Z</time>
      </trkpt>
      <trkpt lat="42.317417" lon="-0.488049">
        <ele>1369.1</ele>
        <time>2018-07-22T10:51:14.000Z</time>
      </trkpt>
      <trkpt lat="42.317417" lon="-0.488049">
        <ele>1369.1</ele>
        <time>2018-07-22T10:51:15.000Z</time>
      </trkpt>
      <trkpt lat="42.317417" lon="-0.488049">
        <ele>1369.1</ele>
        <time>2018-07-22T10:51:16.000Z</time>
      </trkpt>
      <trkpt lat="42.317418" lon="-0.488048">
        <ele>1369.1</ele>
        <time>2018-07-22T10:51:17.000Z</time>
      </trkpt>
      <trkpt lat="42.317419" lon="-0.488048">
        <ele>1369.0</ele>
        <time>2018-07-22T10:51:18.000Z</time>
      </trkpt>
      <trkpt lat="42.317421" lon="-0.488048">
        <ele>1369.0</ele>
        <time>2018-07-22T10:51:19.000Z</time>
      </trkpt>
      <trkpt lat="42.317423" lon="-0.488049">
        <ele>1368.9</ele>
        <time>2018-07-22T10:51:20.000Z</time>
      </trkpt>
      <trkpt lat="42.317425" lon="-0.48805">
        <ele>1368.8</ele>
        <time>2018-07-22T10:51:21.000Z</time>
      </trkpt>
      <trkpt lat="42.317426" lon="-0.48805">
        <ele>1368.8</ele>
        <time>2018-07-22T10:51:22.000Z</time>
      </trkpt>
      <trkpt lat="42.317428" lon="-0.48805">
        <ele>1368.7</ele>
        <time>2018-07-22T10:51:23.000Z</time>
      </trkpt>
      <trkpt lat="42.317429" lon="-0.48805">
        <ele>1368.7</ele>
        <time>2018-07-22T10:51:24.000Z</time>
      </trkpt>
      <trkpt lat="42.31743" lon="-0.48805">
        <ele>1368.6</ele>
        <time>2018-07-22T10:51:25.000Z</time>
      </trkpt>
      <trkpt lat="42.31743" lon="-0.48805">
        <ele>1368.6</ele>
        <time>2018-07-22T10:51:26.000Z</time>
      </trkpt>
      <trkpt lat="42.31743" lon="-0.48805">
        <ele>1368.6</ele>
        <time>2018-07-22T10:51:27.000Z</time>
      </trkpt>
      <trkpt lat="42.31743" lon="-0.48805">
        <ele>1368.6</ele>
        <time>2018-07-22T10:51:28.000Z</time>
      </trkpt>
      <trkpt lat="42.31743" lon="-0.48805">
        <ele>1368.6</ele>
        <time>2018-07-22T10:51:29.000Z</time>
      </trkpt>
      <trkpt lat="42.317431" lon="-0.48805">
        <ele>1368.6</ele>
        <time>2018-07-22T10:51:30.000Z</time>
      </trkpt>
      <trkpt lat="42.317431" lon="-0.48805">
        <ele>1368.6</ele>
        <time>2018-07-22T10:51:31.000Z</time>
      </trkpt>
      <trkpt lat="42.317431" lon="-0.48805">
        <ele>1368.6</ele>
        <time>2018-07-22T10:51:32.000Z</time>
      </trkpt>
      <trkpt lat="42.317431" lon="-0.48805">
        <ele>1368.6</ele>
        <time>2018-07-22T10:51:33.000Z</time>
      </trkpt>
      <trkpt lat="42.317432" lon="-0.48805">
        <ele>1368.5</ele>
        <time>2018-07-22T10:51:34.000Z</time>
      </trkpt>
      <trkpt lat="42.317432" lon="-0.488051">
        <ele>1368.5</ele>
        <time>2018-07-22T10:51:35.000Z</time>
      </trkpt>
      <trkpt lat="42.317432" lon="-0.488051">
        <ele>1368.5</ele>
        <time>2018-07-22T10:51:36.000Z</time>
      </trkpt>
      <trkpt lat="42.317432" lon="-0.488051">
        <ele>1368.5</ele>
        <time>2018-07-22T10:51:37.000Z</time>
      </trkpt>
      <trkpt lat="42.317432" lon="-0.488051">
        <ele>1368.5</ele>
        <time>2018-07-22T10:51:38.000Z</time>
      </trkpt>
      <trkpt lat="42.317433" lon="-0.488051">
        <ele>1368.5</ele>
        <time>2018-07-22T10:51:39.000Z</time>
      </trkpt>
      <trkpt lat="42.317434" lon="-0.48805">
        <ele>1368.5</ele>
        <time>2018-07-22T10:51:40.000Z</time>
      </trkpt>
      <trkpt lat="42.317435" lon="-0.488051">
        <ele>1368.4</ele>
        <time>2018-07-22T10:51:41.000Z</time>
      </trkpt>
      <trkpt lat="42.317433" lon="-0.488055">
        <ele>1368.5</ele>
        <time>2018-07-22T10:51:42.000Z</time>
      </trkpt>
      <trkpt lat="42.31743" lon="-0.488062">
        <ele>1368.6</ele>
        <time>2018-07-22T10:51:43.000Z</time>
      </trkpt>
      <trkpt lat="42.317425" lon="-0.48807">
        <ele>1368.9</ele>
        <time>2018-07-22T10:51:44.000Z</time>
      </trkpt>
      <trkpt lat="42.31742" lon="-0.488078">
        <ele>1369.1</ele>
        <time>2018-07-22T10:51:45.000Z</time>
      </trkpt>
      <trkpt lat="42.317415" lon="-0.488086">
        <ele>1369.3</ele>
        <time>2018-07-22T10:51:46.000Z</time>
      </trkpt>
      <trkpt lat="42.317412" lon="-0.488091">
        <ele>1369.4</ele>
        <time>2018-07-22T10:51:47.000Z</time>
      </trkpt>
      <trkpt lat="42.31741" lon="-0.488094">
        <ele>1369.5</ele>
        <time>2018-07-22T10:51:48.000Z</time>
      </trkpt>
      <trkpt lat="42.317409" lon="-0.488095">
        <ele>1369.5</ele>
        <time>2018-07-22T10:51:49.000Z</time>
      </trkpt>
      <trkpt lat="42.317409" lon="-0.488095">
        <ele>1369.5</ele>
        <time>2018-07-22T10:51:50.000Z</time>
      </trkpt>
      <trkpt lat="42.317409" lon="-0.488095">
        <ele>1369.5</ele>
        <time>2018-07-22T10:51:51.000Z</time>
      </trkpt>
      <trkpt lat="42.317409" lon="-0.488095">
        <ele>1369.5</ele>
        <time>2018-07-22T10:51:52.000Z</time>
      </trkpt>
      <trkpt lat="42.317408" lon="-0.488096">
        <ele>1369.6</ele>
        <time>2018-07-22T10:51:53.000Z</time>
      </trkpt>
      <trkpt lat="42.317406" lon="-0.488096">
        <ele>1369.6</ele>
        <time>2018-07-22T10:51:54.000Z</time>
      </trkpt>
      <trkpt lat="42.317404" lon="-0.488095">
        <ele>1369.7</ele>
        <time>2018-07-22T10:51:55.000Z</time>
      </trkpt>
      <trkpt lat="42.317403" lon="-0.488095">
        <ele>1369.7</ele>
        <time>2018-07-22T10:51:56.000Z</time>
      </trkpt>
      <trkpt lat="42.317401" lon="-0.488095">
        <ele>1369.8</ele>
        <time>2018-07-22T10:51:57.000Z</time>
      </trkpt>
      <trkpt lat="42.317399" lon="-0.488095">
        <ele>1369.9</ele>
        <time>2018-07-22T10:51:58.000Z</time>
      </trkpt>
      <trkpt lat="42.317398" lon="-0.488094">
        <ele>1369.9</ele>
        <time>2018-07-22T10:51:59.000Z</time>
      </trkpt>
      <trkpt lat="42.317397" lon="-0.488094">
        <ele>1370.0</ele>
        <time>2018-07-22T10:52:00.000Z</time>
      </trkpt>
      <trkpt lat="42.317397" lon="-0.488094">
        <ele>1370.0</ele>
        <time>2018-07-22T10:52:01.000Z</time>
      </trkpt>
      <trkpt lat="42.317398" lon="-0.488094">
        <ele>1369.9</ele>
        <time>2018-07-22T10:52:02.000Z</time>
      </trkpt>
      <trkpt lat="42.3174" lon="-0.488093">
        <ele>1369.8</ele>
        <time>2018-07-22T10:52:03.000Z</time>
      </trkpt>
      <trkpt lat="42.317403" lon="-0.488093">
        <ele>1369.7</ele>
        <time>2018-07-22T10:52:04.000Z</time>
      </trkpt>
      <trkpt lat="42.317407" lon="-0.488093">
        <ele>1369.6</ele>
        <time>2018-07-22T10:52:05.000Z</time>
      </trkpt>
      <trkpt lat="42.317412" lon="-0.488094">
        <ele>1369.4</ele>
        <time>2018-07-22T10:52:06.000Z</time>
      </trkpt>
      <trkpt lat="42.317419" lon="-0.488094">
        <ele>1369.1</ele>
        <time>2018-07-22T10:52:07.000Z</time>
      </trkpt>
      <trkpt lat="42.317426" lon="-0.488095">
        <ele>1368.9</ele>
        <time>2018-07-22T10:52:08.000Z</time>
      </trkpt>
      <trkpt lat="42.317433" lon="-0.488096">
        <ele>1368.6</ele>
        <time>2018-07-22T10:52:09.000Z</time>
      </trkpt>
      <trkpt lat="42.317442" lon="-0.488097">
        <ele>1368.3</ele>
        <time>2018-07-22T10:52:10.000Z</time>
      </trkpt>
      <trkpt lat="42.31745" lon="-0.488098">
        <ele>1368.0</ele>
        <time>2018-07-22T10:52:11.000Z</time>
      </trkpt>
      <trkpt lat="42.317459" lon="-0.4881">
        <ele>1367.7</ele>
        <time>2018-07-22T10:52:12.000Z</time>
      </trkpt>
      <trkpt lat="42.317468" lon="-0.488101">
        <ele>1367.3</ele>
        <time>2018-07-22T10:52:13.000Z</time>
      </trkpt>
      <trkpt lat="42.317478" lon="-0.488104">
        <ele>1367.0</ele>
        <time>2018-07-22T10:52:14.000Z</time>
      </trkpt>
      <trkpt lat="42.317487" lon="-0.488106">
        <ele>1366.7</ele>
        <time>2018-07-22T10:52:15.000Z</time>
      </trkpt>
      <trkpt lat="42.317496" lon="-0.488109">
        <ele>1366.3</ele>
        <time>2018-07-22T10:52:16.000Z</time>
      </trkpt>
      <trkpt lat="42.317505" lon="-0.488112">
        <ele>1366.1</ele>
        <time>2018-07-22T10:52:17.000Z</time>
      </trkpt>
      <trkpt lat="42.317514" lon="-0.488116">
        <ele>1365.9</ele>
        <time>2018-07-22T10:52:18.000Z</time>
      </trkpt>
      <trkpt lat="42.317522" lon="-0.48812">
        <ele>1365.7</ele>
        <time>2018-07-22T10:52:19.000Z</time>
      </trkpt>
      <trkpt lat="42.317529" lon="-0.488125">
        <ele>1365.5</ele>
        <time>2018-07-22T10:52:20.000Z</time>
      </trkpt>
      <trkpt lat="42.317536" lon="-0.488131">
        <ele>1365.4</ele>
        <time>2018-07-22T10:52:21.000Z</time>
      </trkpt>
      <trkpt lat="42.317543" lon="-0.488137">
        <ele>1365.2</ele>
        <time>2018-07-22T10:52:22.000Z</time>
      </trkpt>
      <trkpt lat="42.317548" lon="-0.488145">
        <ele>1365.1</ele>
        <time>2018-07-22T10:52:23.000Z</time>
      </trkpt>
      <trkpt lat="42.317553" lon="-0.488153">
        <ele>1365.0</ele>
        <time>2018-07-22T10:52:24.000Z</time>
      </trkpt>
      <trkpt lat="42.317557" lon="-0.488161">
        <ele>1365.0</ele>
        <time>2018-07-22T10:52:25.000Z</time>
      </trkpt>
      <trkpt lat="42.31756" lon="-0.488171">
        <ele>1365.0</ele>
        <time>2018-07-22T10:52:26.000Z</time>
      </trkpt>
      <trkpt lat="42.317563" lon="-0.488181">
        <ele>1364.9</ele>
        <time>2018-07-22T10:52:27.000Z</time>
      </trkpt>
      <trkpt lat="42.317566" lon="-0.488192">
        <ele>1364.9</ele>
        <time>2018-07-22T10:52:28.000Z</time>
      </trkpt>
      <trkpt lat="42.31757" lon="-0.488202">
        <ele>1364.9</ele>
        <time>2018-07-22T10:52:29.000Z</time>
      </trkpt>
      <trkpt lat="42.317575" lon="-0.488212">
        <ele>1364.8</ele>
        <time>2018-07-22T10:52:30.000Z</time>
      </trkpt>
      <trkpt lat="42.317581" lon="-0.488224">
        <ele>1364.7</ele>
        <time>2018-07-22T10:52:31.000Z</time>
      </trkpt>
      <trkpt lat="42.317587" lon="-0.488237">
        <ele>1364.7</ele>
        <time>2018-07-22T10:52:32.000Z</time>
      </trkpt>
      <trkpt lat="42.317592" lon="-0.48825">
        <ele>1364.6</ele>
        <time>2018-07-22T10:52:33.000Z</time>
      </trkpt>
      <trkpt lat="42.317597" lon="-0.488263">
        <ele>1364.6</ele>
        <time>2018-07-22T10:52:34.000Z</time>
      </trkpt>
      <trkpt lat="42.317601" lon="-0.488273">
        <ele>1364.6</ele>
        <time>2018-07-22T10:52:35.000Z</time>
      </trkpt>
      <trkpt lat="42.317604" lon="-0.488279">
        <ele>1364.6</ele>
        <time>2018-07-22T10:52:36.000Z</time>
      </trkpt>
      <trkpt lat="42.317606" lon="-0.488282">
        <ele>1364.5</ele>
        <time>2018-07-22T10:52:37.000Z</time>
      </trkpt>
      <trkpt lat="42.317607" lon="-0.488286">
        <ele>1364.5</ele>
        <time>2018-07-22T10:52:38.000Z</time>
      </trkpt>
      <trkpt lat="42.317607" lon="-0.488297">
        <ele>1364.6</ele>
        <time>2018-07-22T10:52:39.000Z</time>
      </trkpt>
      <trkpt lat="42.317605" lon="-0.488318">
        <ele>1364.8</ele>
        <time>2018-07-22T10:52:40.000Z</time>
      </trkpt>
      <trkpt lat="42.317605" lon="-0.488338">
        <ele>1365.0</ele>
        <time>2018-07-22T10:52:41.000Z</time>
      </trkpt>
      <trkpt lat="42.31761" lon="-0.488349">
        <ele>1365.2</ele>
        <time>2018-07-22T10:52:42.000Z</time>
      </trkpt>
      <trkpt lat="42.317615" lon="-0.488354">
        <ele>1365.3</ele>
        <time>2018-07-22T10:52:43.000Z</time>
      </trkpt>
      <trkpt lat="42.317617" lon="-0.488362">
        <ele>1365.5</ele>
        <time>2018-07-22T10:52:44.000Z</time>
      </trkpt>
      <trkpt lat="42.317617" lon="-0.488371">
        <ele>1365.8</ele>
        <time>2018-07-22T10:52:45.000Z</time>
      </trkpt>
      <trkpt lat="42.317619" lon="-0.488381">
        <ele>1366.0</ele>
        <time>2018-07-22T10:52:46.000Z</time>
      </trkpt>
      <trkpt lat="42.317622" lon="-0.488391">
        <ele>1366.3</ele>
        <time>2018-07-22T10:52:47.000Z</time>
      </trkpt>
      <trkpt lat="42.317627" lon="-0.4884">
        <ele>1366.4</ele>
        <time>2018-07-22T10:52:48.000Z</time>
      </trkpt>
      <trkpt lat="42.317632" lon="-0.488409">
        <ele>1366.6</ele>
        <time>2018-07-22T10:52:49.000Z</time>
      </trkpt>
      <trkpt lat="42.317639" lon="-0.488418">
        <ele>1366.7</ele>
        <time>2018-07-22T10:52:50.000Z</time>
      </trkpt>
      <trkpt lat="42.317645" lon="-0.488427">
        <ele>1366.9</ele>
        <time>2018-07-22T10:52:51.000Z</time>
      </trkpt>
      <trkpt lat="42.317652" lon="-0.488437">
        <ele>1367.1</ele>
        <time>2018-07-22T10:52:52.000Z</time>
      </trkpt>
      <trkpt lat="42.317659" lon="-0.488447">
        <ele>1367.2</ele>
        <time>2018-07-22T10:52:53.000Z</time>
      </trkpt>
      <trkpt lat="42.317666" lon="-0.488458">
        <ele>1367.4</ele>
        <time>2018-07-22T10:52:54.000Z</time>
      </trkpt>
      <trkpt lat="42.317672" lon="-0.488468">
        <ele>1367.6</ele>
        <time>2018-07-22T10:52:55.000Z</time>
      </trkpt>
      <trkpt lat="42.317678" lon="-0.488478">
        <ele>1367.8</ele>
        <time>2018-07-22T10:52:56.000Z</time>
      </trkpt>
      <trkpt lat="42.317682" lon="-0.488487">
        <ele>1368.0</ele>
        <time>2018-07-22T10:52:57.000Z</time>
      </trkpt>
      <trkpt lat="42.317686" lon="-0.488495">
        <ele>1368.1</ele>
        <time>2018-07-22T10:52:58.000Z</time>
      </trkpt>
      <trkpt lat="42.317689" lon="-0.488502">
        <ele>1368.3</ele>
        <time>2018-07-22T10:52:59.000Z</time>
      </trkpt>
      <trkpt lat="42.317691" lon="-0.488508">
        <ele>1368.4</ele>
        <time>2018-07-22T10:53:00.000Z</time>
      </trkpt>
      <trkpt lat="42.317693" lon="-0.488513">
        <ele>1368.6</ele>
        <time>2018-07-22T10:53:01.000Z</time>
      </trkpt>
      <trkpt lat="42.317695" lon="-0.488518">
        <ele>1368.7</ele>
        <time>2018-07-22T10:53:02.000Z</time>
      </trkpt>
      <trkpt lat="42.317696" lon="-0.488522">
        <ele>1368.8</ele>
        <time>2018-07-22T10:53:03.000Z</time>
      </trkpt>
      <trkpt lat="42.317696" lon="-0.488525">
        <ele>1368.9</ele>
        <time>2018-07-22T10:53:04.000Z</time>
      </trkpt>
      <trkpt lat="42.317697" lon="-0.488529">
        <ele>1369.0</ele>
        <time>2018-07-22T10:53:05.000Z</time>
      </trkpt>
      <trkpt lat="42.317698" lon="-0.488532">
        <ele>1369.0</ele>
        <time>2018-07-22T10:53:06.000Z</time>
      </trkpt>
      <trkpt lat="42.317699" lon="-0.488535">
        <ele>1369.1</ele>
        <time>2018-07-22T10:53:07.000Z</time>
      </trkpt>
      <trkpt lat="42.317701" lon="-0.488537">
        <ele>1369.1</ele>
        <time>2018-07-22T10:53:08.000Z</time>
      </trkpt>
      <trkpt lat="42.317703" lon="-0.488541">
        <ele>1369.2</ele>
        <time>2018-07-22T10:53:09.000Z</time>
      </trkpt>
      <trkpt lat="42.317708" lon="-0.488546">
        <ele>1369.3</ele>
        <time>2018-07-22T10:53:10.000Z</time>
      </trkpt>
      <trkpt lat="42.317715" lon="-0.488555">
        <ele>1369.4</ele>
        <time>2018-07-22T10:53:11.000Z</time>
      </trkpt>
      <trkpt lat="42.317722" lon="-0.488562">
        <ele>1369.5</ele>
        <time>2018-07-22T10:53:12.000Z</time>
      </trkpt>
      <trkpt lat="42.317728" lon="-0.488569">
        <ele>1369.6</ele>
        <time>2018-07-22T10:53:13.000Z</time>
      </trkpt>
      <trkpt lat="42.317734" lon="-0.488574">
        <ele>1369.6</ele>
        <time>2018-07-22T10:53:14.000Z</time>
      </trkpt>
      <trkpt lat="42.317738" lon="-0.488577">
        <ele>1369.6</ele>
        <time>2018-07-22T10:53:15.000Z</time>
      </trkpt>
      <trkpt lat="42.317741" lon="-0.488579">
        <ele>1369.6</ele>
        <time>2018-07-22T10:53:16.000Z</time>
      </trkpt>
      <trkpt lat="42.317744" lon="-0.488581">
        <ele>1369.6</ele>
        <time>2018-07-22T10:53:17.000Z</time>
      </trkpt>
      <trkpt lat="42.317746" lon="-0.488582">
        <ele>1369.6</ele>
        <time>2018-07-22T10:53:18.000Z</time>
      </trkpt>
      <trkpt lat="42.317748" lon="-0.488583">
        <ele>1369.6</ele>
        <time>2018-07-22T10:53:19.000Z</time>
      </trkpt>
      <trkpt lat="42.31775" lon="-0.488585">
        <ele>1369.6</ele>
        <time>2018-07-22T10:53:20.000Z</time>
      </trkpt>
      <trkpt lat="42.317755" lon="-0.488586">
        <ele>1369.6</ele>
        <time>2018-07-22T10:53:21.000Z</time>
      </trkpt>
      <trkpt lat="42.317764" lon="-0.488588">
        <ele>1369.4</ele>
        <time>2018-07-22T10:53:22.000Z</time>
      </trkpt>
      <trkpt lat="42.317772" lon="-0.488586">
        <ele>1369.2</ele>
        <time>2018-07-22T10:53:23.000Z</time>
      </trkpt>
      <trkpt lat="42.317779" lon="-0.488582">
        <ele>1369.0</ele>
        <time>2018-07-22T10:53:24.000Z</time>
      </trkpt>
      <trkpt lat="42.317785" lon="-0.48858">
        <ele>1368.8</ele>
        <time>2018-07-22T10:53:25.000Z</time>
      </trkpt>
      <trkpt lat="42.317793" lon="-0.488578">
        <ele>1368.6</ele>
        <time>2018-07-22T10:53:26.000Z</time>
      </trkpt>
      <trkpt lat="42.317802" lon="-0.488576">
        <ele>1368.3</ele>
        <time>2018-07-22T10:53:27.000Z</time>
      </trkpt>
      <trkpt lat="42.317812" lon="-0.488574">
        <ele>1368.1</ele>
        <time>2018-07-22T10:53:28.000Z</time>
      </trkpt>
      <trkpt lat="42.317823" lon="-0.488573">
        <ele>1367.8</ele>
        <time>2018-07-22T10:53:29.000Z</time>
      </trkpt>
      <trkpt lat="42.317834" lon="-0.488572">
        <ele>1367.6</ele>
        <time>2018-07-22T10:53:30.000Z</time>
      </trkpt>
      <trkpt lat="42.317845" lon="-0.488572">
        <ele>1367.4</ele>
        <time>2018-07-22T10:53:31.000Z</time>
      </trkpt>
      <trkpt lat="42.317856" lon="-0.488574">
        <ele>1367.2</ele>
        <time>2018-07-22T10:53:32.000Z</time>
      </trkpt>
      <trkpt lat="42.317866" lon="-0.488576">
        <ele>1367.1</ele>
        <time>2018-07-22T10:53:33.000Z</time>
      </trkpt>
      <trkpt lat="42.317876" lon="-0.488579">
        <ele>1367.0</ele>
        <time>2018-07-22T10:53:34.000Z</time>
      </trkpt>
      <trkpt lat="42.317885" lon="-0.488583">
        <ele>1366.9</ele>
        <time>2018-07-22T10:53:35.000Z</time>
      </trkpt>
      <trkpt lat="42.317895" lon="-0.488587">
        <ele>1366.8</ele>
        <time>2018-07-22T10:53:36.000Z</time>
      </trkpt>
      <trkpt lat="42.317903" lon="-0.488591">
        <ele>1366.8</ele>
        <time>2018-07-22T10:53:37.000Z</time>
      </trkpt>
      <trkpt lat="42.317912" lon="-0.488595">
        <ele>1366.8</ele>
        <time>2018-07-22T10:53:38.000Z</time>
      </trkpt>
      <trkpt lat="42.31792" lon="-0.488599">
        <ele>1366.7</ele>
        <time>2018-07-22T10:53:39.000Z</time>
      </trkpt>
      <trkpt lat="42.317928" lon="-0.488603">
        <ele>1366.7</ele>
        <time>2018-07-22T10:53:40.000Z</time>
      </trkpt>
      <trkpt lat="42.317935" lon="-0.488607">
        <ele>1366.7</ele>
        <time>2018-07-22T10:53:41.000Z</time>
      </trkpt>
      <trkpt lat="42.317942" lon="-0.48861">
        <ele>1366.6</ele>
        <time>2018-07-22T10:53:42.000Z</time>
      </trkpt>
      <trkpt lat="42.317949" lon="-0.488612">
        <ele>1366.6</ele>
        <time>2018-07-22T10:53:43.000Z</time>
      </trkpt>
      <trkpt lat="42.317956" lon="-0.488615">
        <ele>1366.5</ele>
        <time>2018-07-22T10:53:44.000Z</time>
      </trkpt>
      <trkpt lat="42.317962" lon="-0.488617">
        <ele>1366.5</ele>
        <time>2018-07-22T10:53:45.000Z</time>
      </trkpt>
      <trkpt lat="42.317969" lon="-0.48862">
        <ele>1366.4</ele>
        <time>2018-07-22T10:53:46.000Z</time>
      </trkpt>
      <trkpt lat="42.317975" lon="-0.488623">
        <ele>1366.4</ele>
        <time>2018-07-22T10:53:47.000Z</time>
      </trkpt>
      <trkpt lat="42.317982" lon="-0.488627">
        <ele>1366.4</ele>
        <time>2018-07-22T10:53:48.000Z</time>
      </trkpt>
      <trkpt lat="42.317989" lon="-0.488631">
        <ele>1366.4</ele>
        <time>2018-07-22T10:53:49.000Z</time>
      </trkpt>
      <trkpt lat="42.317996" lon="-0.488636">
        <ele>1366.4</ele>
        <time>2018-07-22T10:53:50.000Z</time>
      </trkpt>
      <trkpt lat="42.318003" lon="-0.48864">
        <ele>1366.4</ele>
        <time>2018-07-22T10:53:51.000Z</time>
      </trkpt>
      <trkpt lat="42.318011" lon="-0.488645">
        <ele>1366.4</ele>
        <time>2018-07-22T10:53:52.000Z</time>
      </trkpt>
      <trkpt lat="42.318019" lon="-0.488649">
        <ele>1366.4</ele>
        <time>2018-07-22T10:53:53.000Z</time>
      </trkpt>
      <trkpt lat="42.318027" lon="-0.488653">
        <ele>1366.3</ele>
        <time>2018-07-22T10:53:54.000Z</time>
      </trkpt>
      <trkpt lat="42.318035" lon="-0.488656">
        <ele>1366.3</ele>
        <time>2018-07-22T10:53:55.000Z</time>
      </trkpt>
      <trkpt lat="42.318043" lon="-0.48866">
        <ele>1366.2</ele>
        <time>2018-07-22T10:53:56.000Z</time>
      </trkpt>
      <trkpt lat="42.318052" lon="-0.488663">
        <ele>1366.2</ele>
        <time>2018-07-22T10:53:57.000Z</time>
      </trkpt>
      <trkpt lat="42.318061" lon="-0.488666">
        <ele>1366.1</ele>
        <time>2018-07-22T10:53:58.000Z</time>
      </trkpt>
      <trkpt lat="42.31807" lon="-0.488669">
        <ele>1366.0</ele>
        <time>2018-07-22T10:53:59.000Z</time>
      </trkpt>
      <trkpt lat="42.31808" lon="-0.488672">
        <ele>1365.9</ele>
        <time>2018-07-22T10:54:00.000Z</time>
      </trkpt>
      <trkpt lat="42.318089" lon="-0.488675">
        <ele>1365.8</ele>
        <time>2018-07-22T10:54:01.000Z</time>
      </trkpt>
      <trkpt lat="42.318099" lon="-0.488678">
        <ele>1365.7</ele>
        <time>2018-07-22T10:54:02.000Z</time>
      </trkpt>
      <trkpt lat="42.31811" lon="-0.48868">
        <ele>1365.6</ele>
        <time>2018-07-22T10:54:03.000Z</time>
      </trkpt>
      <trkpt lat="42.31812" lon="-0.488683">
        <ele>1365.5</ele>
        <time>2018-07-22T10:54:04.000Z</time>
      </trkpt>
      <trkpt lat="42.31813" lon="-0.488686">
        <ele>1365.4</ele>
        <time>2018-07-22T10:54:05.000Z</time>
      </trkpt>
      <trkpt lat="42.31814" lon="-0.48869">
        <ele>1365.3</ele>
        <time>2018-07-22T10:54:06.000Z</time>
      </trkpt>
      <trkpt lat="42.31815" lon="-0.488694">
        <ele>1365.2</ele>
        <time>2018-07-22T10:54:07.000Z</time>
      </trkpt>
      <trkpt lat="42.318159" lon="-0.488699">
        <ele>1365.2</ele>
        <time>2018-07-22T10:54:08.000Z</time>
      </trkpt>
      <trkpt lat="42.318167" lon="-0.488705">
        <ele>1365.3</ele>
        <time>2018-07-22T10:54:09.000Z</time>
      </trkpt>
      <trkpt lat="42.318174" lon="-0.488713">
        <ele>1365.4</ele>
        <time>2018-07-22T10:54:10.000Z</time>
      </trkpt>
      <trkpt lat="42.318182" lon="-0.488721">
        <ele>1365.5</ele>
        <time>2018-07-22T10:54:11.000Z</time>
      </trkpt>
      <trkpt lat="42.318189" lon="-0.488729">
        <ele>1365.6</ele>
        <time>2018-07-22T10:54:12.000Z</time>
      </trkpt>
      <trkpt lat="42.318197" lon="-0.488738">
        <ele>1365.7</ele>
        <time>2018-07-22T10:54:13.000Z</time>
      </trkpt>
      <trkpt lat="42.318206" lon="-0.488747">
        <ele>1365.8</ele>
        <time>2018-07-22T10:54:14.000Z</time>
      </trkpt>
      <trkpt lat="42.318215" lon="-0.488755">
        <ele>1365.9</ele>
        <time>2018-07-22T10:54:15.000Z</time>
      </trkpt>
      <trkpt lat="42.318225" lon="-0.488764">
        <ele>1366.0</ele>
        <time>2018-07-22T10:54:16.000Z</time>
      </trkpt>
      <trkpt lat="42.318235" lon="-0.488772">
        <ele>1366.1</ele>
        <time>2018-07-22T10:54:17.000Z</time>
      </trkpt>
      <trkpt lat="42.318245" lon="-0.488781">
        <ele>1366.2</ele>
        <time>2018-07-22T10:54:18.000Z</time>
      </trkpt>
      <trkpt lat="42.318254" lon="-0.488789">
        <ele>1366.3</ele>
        <time>2018-07-22T10:54:19.000Z</time>
      </trkpt>
      <trkpt lat="42.318263" lon="-0.488798">
        <ele>1366.4</ele>
        <time>2018-07-22T10:54:20.000Z</time>
      </trkpt>
      <trkpt lat="42.318272" lon="-0.488807">
        <ele>1366.5</ele>
        <time>2018-07-22T10:54:21.000Z</time>
      </trkpt>
      <trkpt lat="42.31828" lon="-0.488815">
        <ele>1366.6</ele>
        <time>2018-07-22T10:54:22.000Z</time>
      </trkpt>
      <trkpt lat="42.318288" lon="-0.488823">
        <ele>1366.7</ele>
        <time>2018-07-22T10:54:23.000Z</time>
      </trkpt>
      <trkpt lat="42.318295" lon="-0.488831">
        <ele>1366.9</ele>
        <time>2018-07-22T10:54:24.000Z</time>
      </trkpt>
      <trkpt lat="42.318303" lon="-0.488838">
        <ele>1366.9</ele>
        <time>2018-07-22T10:54:25.000Z</time>
      </trkpt>
      <trkpt lat="42.31831" lon="-0.488844">
        <ele>1367.0</ele>
        <time>2018-07-22T10:54:26.000Z</time>
      </trkpt>
      <trkpt lat="42.318317" lon="-0.48885">
        <ele>1367.0</ele>
        <time>2018-07-22T10:54:27.000Z</time>
      </trkpt>
      <trkpt lat="42.318324" lon="-0.488855">
        <ele>1367.1</ele>
        <time>2018-07-22T10:54:28.000Z</time>
      </trkpt>
      <trkpt lat="42.31833" lon="-0.48886">
        <ele>1367.1</ele>
        <time>2018-07-22T10:54:29.000Z</time>
      </trkpt>
      <trkpt lat="42.318336" lon="-0.488864">
        <ele>1367.2</ele>
        <time>2018-07-22T10:54:30.000Z</time>
      </trkpt>
      <trkpt lat="42.318341" lon="-0.488867">
        <ele>1367.3</ele>
        <time>2018-07-22T10:54:31.000Z</time>
      </trkpt>
      <trkpt lat="42.318346" lon="-0.48887">
        <ele>1367.3</ele>
        <time>2018-07-22T10:54:32.000Z</time>
      </trkpt>
      <trkpt lat="42.31835" lon="-0.488872">
        <ele>1367.4</ele>
        <time>2018-07-22T10:54:33.000Z</time>
      </trkpt>
      <trkpt lat="42.318353" lon="-0.488874">
        <ele>1367.4</ele>
        <time>2018-07-22T10:54:34.000Z</time>
      </trkpt>
      <trkpt lat="42.318355" lon="-0.488875">
        <ele>1367.5</ele>
        <time>2018-07-22T10:54:35.000Z</time>
      </trkpt>
      <trkpt lat="42.318357" lon="-0.488876">
        <ele>1367.5</ele>
        <time>2018-07-22T10:54:36.000Z</time>
      </trkpt>
      <trkpt lat="42.318358" lon="-0.488876">
        <ele>1367.5</ele>
        <time>2018-07-22T10:54:37.000Z</time>
      </trkpt>
      <trkpt lat="42.31836" lon="-0.488877">
        <ele>1367.5</ele>
        <time>2018-07-22T10:54:38.000Z</time>
      </trkpt>
      <trkpt lat="42.318362" lon="-0.488879">
        <ele>1367.6</ele>
        <time>2018-07-22T10:54:39.000Z</time>
      </trkpt>
      <trkpt lat="42.318367" lon="-0.488883">
        <ele>1367.7</ele>
        <time>2018-07-22T10:54:40.000Z</time>
      </trkpt>
      <trkpt lat="42.318374" lon="-0.48889">
        <ele>1367.9</ele>
        <time>2018-07-22T10:54:41.000Z</time>
      </trkpt>
      <trkpt lat="42.31838" lon="-0.488894">
        <ele>1368.0</ele>
        <time>2018-07-22T10:54:42.000Z</time>
      </trkpt>
      <trkpt lat="42.318385" lon="-0.488896">
        <ele>1368.0</ele>
        <time>2018-07-22T10:54:43.000Z</time>
      </trkpt>
      <trkpt lat="42.318393" lon="-0.488903">
        <ele>1368.2</ele>
        <time>2018-07-22T10:54:44.000Z</time>
      </trkpt>
      <trkpt lat="42.318399" lon="-0.488909">
        <ele>1368.4</ele>
        <time>2018-07-22T10:54:45.000Z</time>
      </trkpt>
      <trkpt lat="42.318404" lon="-0.488913">
        <ele>1368.5</ele>
        <time>2018-07-22T10:54:46.000Z</time>
      </trkpt>
      <trkpt lat="42.318408" lon="-0.488917">
        <ele>1368.6</ele>
        <time>2018-07-22T10:54:47.000Z</time>
      </trkpt>
      <trkpt lat="42.318414" lon="-0.488922">
        <ele>1368.7</ele>
        <time>2018-07-22T10:54:48.000Z</time>
      </trkpt>
      <trkpt lat="42.318419" lon="-0.488926">
        <ele>1368.8</ele>
        <time>2018-07-22T10:54:49.000Z</time>
      </trkpt>
      <trkpt lat="42.318425" lon="-0.48893">
        <ele>1368.9</ele>
        <time>2018-07-22T10:54:50.000Z</time>
      </trkpt>
      <trkpt lat="42.31843" lon="-0.488936">
        <ele>1369.1</ele>
        <time>2018-07-22T10:54:51.000Z</time>
      </trkpt>
      <trkpt lat="42.318433" lon="-0.488941">
        <ele>1369.2</ele>
        <time>2018-07-22T10:54:52.000Z</time>
      </trkpt>
      <trkpt lat="42.318438" lon="-0.488946">
        <ele>1369.4</ele>
        <time>2018-07-22T10:54:53.000Z</time>
      </trkpt>
      <trkpt lat="42.318444" lon="-0.488953">
        <ele>1369.5</ele>
        <time>2018-07-22T10:54:54.000Z</time>
      </trkpt>
      <trkpt lat="42.318451" lon="-0.48896">
        <ele>1369.7</ele>
        <time>2018-07-22T10:54:55.000Z</time>
      </trkpt>
      <trkpt lat="42.318459" lon="-0.488968">
        <ele>1370.0</ele>
        <time>2018-07-22T10:54:56.000Z</time>
      </trkpt>
      <trkpt lat="42.318466" lon="-0.488975">
        <ele>1370.1</ele>
        <time>2018-07-22T10:54:57.000Z</time>
      </trkpt>
      <trkpt lat="42.318472" lon="-0.48898">
        <ele>1370.3</ele>
        <time>2018-07-22T10:54:58.000Z</time>
      </trkpt>
      <trkpt lat="42.318478" lon="-0.488985">
        <ele>1370.4</ele>
        <time>2018-07-22T10:54:59.000Z</time>
      </trkpt>
      <trkpt lat="42.318482" lon="-0.488989">
        <ele>1370.5</ele>
        <time>2018-07-22T10:55:00.000Z</time>
      </trkpt>
      <trkpt lat="42.318485" lon="-0.488993">
        <ele>1370.6</ele>
        <time>2018-07-22T10:55:01.000Z</time>
      </trkpt>
      <trkpt lat="42.318488" lon="-0.488995">
        <ele>1370.7</ele>
        <time>2018-07-22T10:55:02.000Z</time>
      </trkpt>
      <trkpt lat="42.31849" lon="-0.488997">
        <ele>1370.7</ele>
        <time>2018-07-22T10:55:03.000Z</time>
      </trkpt>
      <trkpt lat="42.318492" lon="-0.488999">
        <ele>1370.8</ele>
        <time>2018-07-22T10:55:04.000Z</time>
      </trkpt>
      <trkpt lat="42.318493" lon="-0.489">
        <ele>1370.8</ele>
        <time>2018-07-22T10:55:05.000Z</time>
      </trkpt>
      <trkpt lat="42.318495" lon="-0.489001">
        <ele>1370.8</ele>
        <time>2018-07-22T10:55:06.000Z</time>
      </trkpt>
      <trkpt lat="42.318496" lon="-0.489002">
        <ele>1370.8</ele>
        <time>2018-07-22T10:55:07.000Z</time>
      </trkpt>
      <trkpt lat="42.318497" lon="-0.489003">
        <ele>1370.9</ele>
        <time>2018-07-22T10:55:08.000Z</time>
      </trkpt>
      <trkpt lat="42.318498" lon="-0.489004">
        <ele>1370.9</ele>
        <time>2018-07-22T10:55:09.000Z</time>
      </trkpt>
      <trkpt lat="42.318499" lon="-0.489005">
        <ele>1370.9</ele>
        <time>2018-07-22T10:55:10.000Z</time>
      </trkpt>
      <trkpt lat="42.3185" lon="-0.489007">
        <ele>1371.0</ele>
        <time>2018-07-22T10:55:11.000Z</time>
      </trkpt>
      <trkpt lat="42.318502" lon="-0.489008">
        <ele>1371.0</ele>
        <time>2018-07-22T10:55:12.000Z</time>
      </trkpt>
      <trkpt lat="42.318504" lon="-0.48901">
        <ele>1371.1</ele>
        <time>2018-07-22T10:55:13.000Z</time>
      </trkpt>
      <trkpt lat="42.318507" lon="-0.489013">
        <ele>1371.1</ele>
        <time>2018-07-22T10:55:14.000Z</time>
      </trkpt>
      <trkpt lat="42.318513" lon="-0.489018">
        <ele>1371.3</ele>
        <time>2018-07-22T10:55:15.000Z</time>
      </trkpt>
      <trkpt lat="42.318527" lon="-0.489028">
        <ele>1371.5</ele>
        <time>2018-07-22T10:55:16.000Z</time>
      </trkpt>
      <trkpt lat="42.318535" lon="-0.489036">
        <ele>1371.7</ele>
        <time>2018-07-22T10:55:17.000Z</time>
      </trkpt>
      <trkpt lat="42.31854" lon="-0.489041">
        <ele>1371.8</ele>
        <time>2018-07-22T10:55:18.000Z</time>
      </trkpt>
      <trkpt lat="42.318542" lon="-0.489044">
        <ele>1371.9</ele>
        <time>2018-07-22T10:55:19.000Z</time>
      </trkpt>
      <trkpt lat="42.318544" lon="-0.489046">
        <ele>1372.0</ele>
        <time>2018-07-22T10:55:20.000Z</time>
      </trkpt>
      <trkpt lat="42.318546" lon="-0.489048">
        <ele>1372.0</ele>
        <time>2018-07-22T10:55:21.000Z</time>
      </trkpt>
      <trkpt lat="42.318547" lon="-0.489049">
        <ele>1372.1</ele>
        <time>2018-07-22T10:55:22.000Z</time>
      </trkpt>
      <trkpt lat="42.318549" lon="-0.489051">
        <ele>1372.1</ele>
        <time>2018-07-22T10:55:23.000Z</time>
      </trkpt>
      <trkpt lat="42.318551" lon="-0.489053">
        <ele>1372.2</ele>
        <time>2018-07-22T10:55:24.000Z</time>
      </trkpt>
      <trkpt lat="42.318553" lon="-0.489055">
        <ele>1372.2</ele>
        <time>2018-07-22T10:55:25.000Z</time>
      </trkpt>
      <trkpt lat="42.318555" lon="-0.489057">
        <ele>1372.3</ele>
        <time>2018-07-22T10:55:26.000Z</time>
      </trkpt>
      <trkpt lat="42.318557" lon="-0.489059">
        <ele>1372.3</ele>
        <time>2018-07-22T10:55:27.000Z</time>
      </trkpt>
      <trkpt lat="42.31856" lon="-0.48906">
        <ele>1372.3</ele>
        <time>2018-07-22T10:55:28.000Z</time>
      </trkpt>
      <trkpt lat="42.318572" lon="-0.489064">
        <ele>1372.4</ele>
        <time>2018-07-22T10:55:29.000Z</time>
      </trkpt>
      <trkpt lat="42.318583" lon="-0.48907">
        <ele>1372.5</ele>
        <time>2018-07-22T10:55:30.000Z</time>
      </trkpt>
      <trkpt lat="42.318592" lon="-0.489074">
        <ele>1372.6</ele>
        <time>2018-07-22T10:55:31.000Z</time>
      </trkpt>
      <trkpt lat="42.3186" lon="-0.489078">
        <ele>1372.7</ele>
        <time>2018-07-22T10:55:32.000Z</time>
      </trkpt>
      <trkpt lat="42.318606" lon="-0.489083">
        <ele>1372.8</ele>
        <time>2018-07-22T10:55:33.000Z</time>
      </trkpt>
      <trkpt lat="42.318611" lon="-0.48909">
        <ele>1373.0</ele>
        <time>2018-07-22T10:55:34.000Z</time>
      </trkpt>
      <trkpt lat="42.318617" lon="-0.489097">
        <ele>1373.2</ele>
        <time>2018-07-22T10:55:35.000Z</time>
      </trkpt>
      <trkpt lat="42.318623" lon="-0.489103">
        <ele>1373.3</ele>
        <time>2018-07-22T10:55:36.000Z</time>
      </trkpt>
      <trkpt lat="42.31863" lon="-0.489107">
        <ele>1373.4</ele>
        <time>2018-07-22T10:55:37.000Z</time>
      </trkpt>
      <trkpt lat="42.318638" lon="-0.489111">
        <ele>1373.5</ele>
        <time>2018-07-22T10:55:38.000Z</time>
      </trkpt>
      <trkpt lat="42.318646" lon="-0.489115">
        <ele>1373.5</ele>
        <time>2018-07-22T10:55:39.000Z</time>
      </trkpt>
      <trkpt lat="42.318655" lon="-0.489118">
        <ele>1373.6</ele>
        <time>2018-07-22T10:55:40.000Z</time>
      </trkpt>
      <trkpt lat="42.318665" lon="-0.489121">
        <ele>1373.6</ele>
        <time>2018-07-22T10:55:41.000Z</time>
      </trkpt>
      <trkpt lat="42.318674" lon="-0.489125">
        <ele>1373.7</ele>
        <time>2018-07-22T10:55:42.000Z</time>
      </trkpt>
      <trkpt lat="42.318682" lon="-0.489128">
        <ele>1373.7</ele>
        <time>2018-07-22T10:55:43.000Z</time>
      </trkpt>
      <trkpt lat="42.31869" lon="-0.489132">
        <ele>1373.8</ele>
        <time>2018-07-22T10:55:44.000Z</time>
      </trkpt>
      <trkpt lat="42.318697" lon="-0.489135">
        <ele>1373.9</ele>
        <time>2018-07-22T10:55:45.000Z</time>
      </trkpt>
      <trkpt lat="42.318702" lon="-0.489137">
        <ele>1373.9</ele>
        <time>2018-07-22T10:55:46.000Z</time>
      </trkpt>
      <trkpt lat="42.318705" lon="-0.489138">
        <ele>1373.9</ele>
        <time>2018-07-22T10:55:47.000Z</time>
      </trkpt>
      <trkpt lat="42.318708" lon="-0.489139">
        <ele>1373.9</ele>
        <time>2018-07-22T10:55:48.000Z</time>
      </trkpt>
      <trkpt lat="42.318708" lon="-0.48914">
        <ele>1373.9</ele>
        <time>2018-07-22T10:55:49.000Z</time>
      </trkpt>
      <trkpt lat="42.318709" lon="-0.48914">
        <ele>1373.9</ele>
        <time>2018-07-22T10:55:50.000Z</time>
      </trkpt>
      <trkpt lat="42.318709" lon="-0.48914">
        <ele>1373.9</ele>
        <time>2018-07-22T10:55:51.000Z</time>
      </trkpt>
      <trkpt lat="42.318709" lon="-0.48914">
        <ele>1373.9</ele>
        <time>2018-07-22T10:55:52.000Z</time>
      </trkpt>
      <trkpt lat="42.318709" lon="-0.48914">
        <ele>1373.9</ele>
        <time>2018-07-22T10:55:53.000Z</time>
      </trkpt>
      <trkpt lat="42.318709" lon="-0.48914">
        <ele>1373.9</ele>
        <time>2018-07-22T10:55:54.000Z</time>
      </trkpt>
      <trkpt lat="42.318709" lon="-0.48914">
        <ele>1373.9</ele>
        <time>2018-07-22T10:55:55.000Z</time>
      </trkpt>
      <trkpt lat="42.31871" lon="-0.489141">
        <ele>1374.0</ele>
        <time>2018-07-22T10:55:56.000Z</time>
      </trkpt>
      <trkpt lat="42.31871" lon="-0.489141">
        <ele>1374.0</ele>
        <time>2018-07-22T10:55:57.000Z</time>
      </trkpt>
      <trkpt lat="42.318711" lon="-0.489142">
        <ele>1374.0</ele>
        <time>2018-07-22T10:55:58.000Z</time>
      </trkpt>
      <trkpt lat="42.318713" lon="-0.489144">
        <ele>1374.0</ele>
        <time>2018-07-22T10:55:59.000Z</time>
      </trkpt>
      <trkpt lat="42.318719" lon="-0.489147">
        <ele>1374.1</ele>
        <time>2018-07-22T10:56:00.000Z</time>
      </trkpt>
      <trkpt lat="42.318727" lon="-0.489151">
        <ele>1374.2</ele>
        <time>2018-07-22T10:56:01.000Z</time>
      </trkpt>
      <trkpt lat="42.318734" lon="-0.489154">
        <ele>1374.2</ele>
        <time>2018-07-22T10:56:02.000Z</time>
      </trkpt>
      <trkpt lat="42.318741" lon="-0.489156">
        <ele>1374.2</ele>
        <time>2018-07-22T10:56:03.000Z</time>
      </trkpt>
      <trkpt lat="42.318748" lon="-0.489159">
        <ele>1374.3</ele>
        <time>2018-07-22T10:56:04.000Z</time>
      </trkpt>
      <trkpt lat="42.318755" lon="-0.489163">
        <ele>1374.4</ele>
        <time>2018-07-22T10:56:05.000Z</time>
      </trkpt>
      <trkpt lat="42.318762" lon="-0.489167">
        <ele>1374.4</ele>
        <time>2018-07-22T10:56:06.000Z</time>
      </trkpt>
      <trkpt lat="42.318768" lon="-0.489172">
        <ele>1374.6</ele>
        <time>2018-07-22T10:56:07.000Z</time>
      </trkpt>
      <trkpt lat="42.318774" lon="-0.489178">
        <ele>1374.8</ele>
        <time>2018-07-22T10:56:08.000Z</time>
      </trkpt>
      <trkpt lat="42.318779" lon="-0.489185">
        <ele>1375.1</ele>
        <time>2018-07-22T10:56:09.000Z</time>
      </trkpt>
      <trkpt lat="42.318783" lon="-0.489191">
        <ele>1375.3</ele>
        <time>2018-07-22T10:56:10.000Z</time>
      </trkpt>
      <trkpt lat="42.318787" lon="-0.489197">
        <ele>1375.5</ele>
        <time>2018-07-22T10:56:11.000Z</time>
      </trkpt>
      <trkpt lat="42.318789" lon="-0.489202">
        <ele>1375.7</ele>
        <time>2018-07-22T10:56:12.000Z</time>
      </trkpt>
      <trkpt lat="42.318791" lon="-0.489205">
        <ele>1375.8</ele>
        <time>2018-07-22T10:56:13.000Z</time>
      </trkpt>
      <trkpt lat="42.318792" lon="-0.489206">
        <ele>1375.8</ele>
        <time>2018-07-22T10:56:14.000Z</time>
      </trkpt>
      <trkpt lat="42.318792" lon="-0.489207">
        <ele>1375.9</ele>
        <time>2018-07-22T10:56:15.000Z</time>
      </trkpt>
      <trkpt lat="42.318792" lon="-0.489206">
        <ele>1375.8</ele>
        <time>2018-07-22T10:56:16.000Z</time>
      </trkpt>
      <trkpt lat="42.318792" lon="-0.489207">
        <ele>1375.9</ele>
        <time>2018-07-22T10:56:17.000Z</time>
      </trkpt>
      <trkpt lat="42.318793" lon="-0.489207">
        <ele>1375.9</ele>
        <time>2018-07-22T10:56:18.000Z</time>
      </trkpt>
      <trkpt lat="42.318794" lon="-0.489208">
        <ele>1375.9</ele>
        <time>2018-07-22T10:56:19.000Z</time>
      </trkpt>
      <trkpt lat="42.318796" lon="-0.489209">
        <ele>1375.9</ele>
        <time>2018-07-22T10:56:20.000Z</time>
      </trkpt>
      <trkpt lat="42.318798" lon="-0.48921">
        <ele>1376.0</ele>
        <time>2018-07-22T10:56:21.000Z</time>
      </trkpt>
      <trkpt lat="42.318801" lon="-0.489211">
        <ele>1376.0</ele>
        <time>2018-07-22T10:56:22.000Z</time>
      </trkpt>
      <trkpt lat="42.318803" lon="-0.489212">
        <ele>1376.0</ele>
        <time>2018-07-22T10:56:23.000Z</time>
      </trkpt>
      <trkpt lat="42.318806" lon="-0.489214">
        <ele>1376.1</ele>
        <time>2018-07-22T10:56:24.000Z</time>
      </trkpt>
      <trkpt lat="42.318813" lon="-0.489218">
        <ele>1376.2</ele>
        <time>2018-07-22T10:56:25.000Z</time>
      </trkpt>
      <trkpt lat="42.31882" lon="-0.489224">
        <ele>1376.4</ele>
        <time>2018-07-22T10:56:26.000Z</time>
      </trkpt>
      <trkpt lat="42.318824" lon="-0.489228">
        <ele>1376.5</ele>
        <time>2018-07-22T10:56:27.000Z</time>
      </trkpt>
      <trkpt lat="42.318825" lon="-0.489231">
        <ele>1376.7</ele>
        <time>2018-07-22T10:56:28.000Z</time>
      </trkpt>
      <trkpt lat="42.318825" lon="-0.489232">
        <ele>1376.7</ele>
        <time>2018-07-22T10:56:29.000Z</time>
      </trkpt>
      <trkpt lat="42.318826" lon="-0.489234">
        <ele>1376.8</ele>
        <time>2018-07-22T10:56:30.000Z</time>
      </trkpt>
      <trkpt lat="42.318828" lon="-0.489235">
        <ele>1376.8</ele>
        <time>2018-07-22T10:56:31.000Z</time>
      </trkpt>
      <trkpt lat="42.31883" lon="-0.489237">
        <ele>1376.9</ele>
        <time>2018-07-22T10:56:32.000Z</time>
      </trkpt>
      <trkpt lat="42.318832" lon="-0.489239">
        <ele>1376.9</ele>
        <time>2018-07-22T10:56:33.000Z</time>
      </trkpt>
      <trkpt lat="42.318834" lon="-0.489241">
        <ele>1377.0</ele>
        <time>2018-07-22T10:56:34.000Z</time>
      </trkpt>
      <trkpt lat="42.318836" lon="-0.489243">
        <ele>1377.1</ele>
        <time>2018-07-22T10:56:35.000Z</time>
      </trkpt>
      <trkpt lat="42.318837" lon="-0.489244">
        <ele>1377.1</ele>
        <time>2018-07-22T10:56:36.000Z</time>
      </trkpt>
      <trkpt lat="42.318837" lon="-0.489245">
        <ele>1377.2</ele>
        <time>2018-07-22T10:56:37.000Z</time>
      </trkpt>
      <trkpt lat="42.318838" lon="-0.489246">
        <ele>1377.2</ele>
        <time>2018-07-22T10:56:38.000Z</time>
      </trkpt>
      <trkpt lat="42.318838" lon="-0.489247">
        <ele>1377.2</ele>
        <time>2018-07-22T10:56:39.000Z</time>
      </trkpt>
      <trkpt lat="42.318838" lon="-0.489247">
        <ele>1377.2</ele>
        <time>2018-07-22T10:56:40.000Z</time>
      </trkpt>
      <trkpt lat="42.318839" lon="-0.489248">
        <ele>1377.3</ele>
        <time>2018-07-22T10:56:41.000Z</time>
      </trkpt>
      <trkpt lat="42.318839" lon="-0.489248">
        <ele>1377.3</ele>
        <time>2018-07-22T10:56:42.000Z</time>
      </trkpt>
      <trkpt lat="42.318839" lon="-0.489248">
        <ele>1377.3</ele>
        <time>2018-07-22T10:56:43.000Z</time>
      </trkpt>
      <trkpt lat="42.31884" lon="-0.489249">
        <ele>1377.3</ele>
        <time>2018-07-22T10:56:44.000Z</time>
      </trkpt>
      <trkpt lat="42.31884" lon="-0.489249">
        <ele>1377.3</ele>
        <time>2018-07-22T10:56:45.000Z</time>
      </trkpt>
      <trkpt lat="42.31884" lon="-0.489249">
        <ele>1377.3</ele>
        <time>2018-07-22T10:56:46.000Z</time>
      </trkpt>
      <trkpt lat="42.31884" lon="-0.489249">
        <ele>1377.3</ele>
        <time>2018-07-22T10:56:47.000Z</time>
      </trkpt>
      <trkpt lat="42.31884" lon="-0.489249">
        <ele>1377.3</ele>
        <time>2018-07-22T10:56:48.000Z</time>
      </trkpt>
      <trkpt lat="42.31884" lon="-0.489249">
        <ele>1377.3</ele>
        <time>2018-07-22T10:56:49.000Z</time>
      </trkpt>
      <trkpt lat="42.31884" lon="-0.48925">
        <ele>1377.3</ele>
        <time>2018-07-22T10:56:50.000Z</time>
      </trkpt>
      <trkpt lat="42.318841" lon="-0.489251">
        <ele>1377.4</ele>
        <time>2018-07-22T10:56:51.000Z</time>
      </trkpt>
      <trkpt lat="42.318843" lon="-0.489252">
        <ele>1377.4</ele>
        <time>2018-07-22T10:56:52.000Z</time>
      </trkpt>
      <trkpt lat="42.318845" lon="-0.489253">
        <ele>1377.4</ele>
        <time>2018-07-22T10:56:53.000Z</time>
      </trkpt>
      <trkpt lat="42.318846" lon="-0.489253">
        <ele>1377.4</ele>
        <time>2018-07-22T10:56:54.000Z</time>
      </trkpt>
      <trkpt lat="42.318848" lon="-0.489253">
        <ele>1377.4</ele>
        <time>2018-07-22T10:56:55.000Z</time>
      </trkpt>
      <trkpt lat="42.318849" lon="-0.489252">
        <ele>1377.4</ele>
        <time>2018-07-22T10:56:56.000Z</time>
      </trkpt>
      <trkpt lat="42.31885" lon="-0.489251">
        <ele>1377.3</ele>
        <time>2018-07-22T10:56:57.000Z</time>
      </trkpt>
      <trkpt lat="42.31885" lon="-0.48925">
        <ele>1377.3</ele>
        <time>2018-07-22T10:56:58.000Z</time>
      </trkpt>
      <trkpt lat="42.318851" lon="-0.48925">
        <ele>1377.3</ele>
        <time>2018-07-22T10:56:59.000Z</time>
      </trkpt>
      <trkpt lat="42.318851" lon="-0.489249">
        <ele>1377.2</ele>
        <time>2018-07-22T10:57:00.000Z</time>
      </trkpt>
      <trkpt lat="42.318851" lon="-0.489249">
        <ele>1377.2</ele>
        <time>2018-07-22T10:57:01.000Z</time>
      </trkpt>
      <trkpt lat="42.318851" lon="-0.489249">
        <ele>1377.2</ele>
        <time>2018-07-22T10:57:02.000Z</time>
      </trkpt>
      <trkpt lat="42.318851" lon="-0.489248">
        <ele>1377.2</ele>
        <time>2018-07-22T10:57:03.000Z</time>
      </trkpt>
      <trkpt lat="42.318852" lon="-0.489248">
        <ele>1377.2</ele>
        <time>2018-07-22T10:57:04.000Z</time>
      </trkpt>
      <trkpt lat="42.318852" lon="-0.489248">
        <ele>1377.2</ele>
        <time>2018-07-22T10:57:05.000Z</time>
      </trkpt>
      <trkpt lat="42.318852" lon="-0.489248">
        <ele>1377.2</ele>
        <time>2018-07-22T10:57:06.000Z</time>
      </trkpt>
      <trkpt lat="42.318852" lon="-0.489248">
        <ele>1377.2</ele>
        <time>2018-07-22T10:57:07.000Z</time>
      </trkpt>
      <trkpt lat="42.318852" lon="-0.489248">
        <ele>1377.2</ele>
        <time>2018-07-22T10:57:08.000Z</time>
      </trkpt>
      <trkpt lat="42.318851" lon="-0.489248">
        <ele>1377.2</ele>
        <time>2018-07-22T10:57:09.000Z</time>
      </trkpt>
      <trkpt lat="42.318851" lon="-0.489248">
        <ele>1377.2</ele>
        <time>2018-07-22T10:57:10.000Z</time>
      </trkpt>
      <trkpt lat="42.318851" lon="-0.489248">
        <ele>1377.2</ele>
        <time>2018-07-22T10:57:11.000Z</time>
      </trkpt>
      <trkpt lat="42.318851" lon="-0.489248">
        <ele>1377.2</ele>
        <time>2018-07-22T10:57:12.000Z</time>
      </trkpt>
      <trkpt lat="42.318851" lon="-0.489248">
        <ele>1377.2</ele>
        <time>2018-07-22T10:57:13.000Z</time>
      </trkpt>
      <trkpt lat="42.318851" lon="-0.489248">
        <ele>1377.2</ele>
        <time>2018-07-22T10:57:14.000Z</time>
      </trkpt>
      <trkpt lat="42.318851" lon="-0.489248">
        <ele>1377.2</ele>
        <time>2018-07-22T10:57:15.000Z</time>
      </trkpt>
      <trkpt lat="42.318851" lon="-0.489248">
        <ele>1377.2</ele>
        <time>2018-07-22T10:57:16.000Z</time>
      </trkpt>
      <trkpt lat="42.318851" lon="-0.489248">
        <ele>1377.2</ele>
        <time>2018-07-22T10:57:17.000Z</time>
      </trkpt>
      <trkpt lat="42.318851" lon="-0.489248">
        <ele>1377.2</ele>
        <time>2018-07-22T10:57:18.000Z</time>
      </trkpt>
      <trkpt lat="42.318851" lon="-0.489248">
        <ele>1377.2</ele>
        <time>2018-07-22T10:57:19.000Z</time>
      </trkpt>
      <trkpt lat="42.318851" lon="-0.489248">
        <ele>1377.2</ele>
        <time>2018-07-22T10:57:20.000Z</time>
      </trkpt>
      <trkpt lat="42.318851" lon="-0.489248">
        <ele>1377.2</ele>
        <time>2018-07-22T10:57:21.000Z</time>
      </trkpt>
      <trkpt lat="42.318851" lon="-0.489248">
        <ele>1377.2</ele>
        <time>2018-07-22T10:57:22.000Z</time>
      </trkpt>
      <trkpt lat="42.318851" lon="-0.489248">
        <ele>1377.2</ele>
        <time>2018-07-22T10:57:23.000Z</time>
      </trkpt>
      <trkpt lat="42.318851" lon="-0.489248">
        <ele>1377.2</ele>
        <time>2018-07-22T10:57:24.000Z</time>
      </trkpt>
      <trkpt lat="42.318851" lon="-0.489248">
        <ele>1377.2</ele>
        <time>2018-07-22T10:57:25.000Z</time>
      </trkpt>
      <trkpt lat="42.318851" lon="-0.489248">
        <ele>1377.2</ele>
        <time>2018-07-22T10:57:26.000Z</time>
      </trkpt>
      <trkpt lat="42.318851" lon="-0.489248">
        <ele>1377.2</ele>
        <time>2018-07-22T10:57:27.000Z</time>
      </trkpt>
      <trkpt lat="42.318851" lon="-0.489248">
        <ele>1377.2</ele>
        <time>2018-07-22T10:57:28.000Z</time>
      </trkpt>
      <trkpt lat="42.318851" lon="-0.489248">
        <ele>1377.2</ele>
        <time>2018-07-22T10:57:29.000Z</time>
      </trkpt>
      <trkpt lat="42.318851" lon="-0.489248">
        <ele>1377.2</ele>
        <time>2018-07-22T10:57:30.000Z</time>
      </trkpt>
      <trkpt lat="42.318851" lon="-0.489248">
        <ele>1377.2</ele>
        <time>2018-07-22T10:57:31.000Z</time>
      </trkpt>
      <trkpt lat="42.318851" lon="-0.489248">
        <ele>1377.2</ele>
        <time>2018-07-22T10:57:32.000Z</time>
      </trkpt>
      <trkpt lat="42.318851" lon="-0.489248">
        <ele>1377.2</ele>
        <time>2018-07-22T10:57:33.000Z</time>
      </trkpt>
      <trkpt lat="42.318851" lon="-0.489248">
        <ele>1377.2</ele>
        <time>2018-07-22T10:57:34.000Z</time>
      </trkpt>
      <trkpt lat="42.318851" lon="-0.489248">
        <ele>1377.2</ele>
        <time>2018-07-22T10:57:35.000Z</time>
      </trkpt>
      <trkpt lat="42.318851" lon="-0.489248">
        <ele>1377.2</ele>
        <time>2018-07-22T10:57:36.000Z</time>
      </trkpt>
      <trkpt lat="42.318851" lon="-0.489248">
        <ele>1377.2</ele>
        <time>2018-07-22T10:57:37.000Z</time>
      </trkpt>
      <trkpt lat="42.318851" lon="-0.489248">
        <ele>1377.2</ele>
        <time>2018-07-22T10:57:38.000Z</time>
      </trkpt>
      <trkpt lat="42.318851" lon="-0.489248">
        <ele>1377.2</ele>
        <time>2018-07-22T10:57:39.000Z</time>
      </trkpt>
      <trkpt lat="42.318851" lon="-0.489248">
        <ele>1377.2</ele>
        <time>2018-07-22T10:57:40.000Z</time>
      </trkpt>
      <trkpt lat="42.318851" lon="-0.489248">
        <ele>1377.2</ele>
        <time>2018-07-22T10:57:41.000Z</time>
      </trkpt>
      <trkpt lat="42.318851" lon="-0.489248">
        <ele>1377.2</ele>
        <time>2018-07-22T10:57:42.000Z</time>
      </trkpt>
      <trkpt lat="42.318851" lon="-0.489248">
        <ele>1377.2</ele>
        <time>2018-07-22T10:57:43.000Z</time>
      </trkpt>
      <trkpt lat="42.318851" lon="-0.489248">
        <ele>1377.2</ele>
        <time>2018-07-22T10:57:44.000Z</time>
      </trkpt>
      <trkpt lat="42.318851" lon="-0.489248">
        <ele>1377.2</ele>
        <time>2018-07-22T10:57:45.000Z</time>
      </trkpt>
      <trkpt lat="42.318851" lon="-0.489248">
        <ele>1377.2</ele>
        <time>2018-07-22T10:57:46.000Z</time>
      </trkpt>
      <trkpt lat="42.318851" lon="-0.489248">
        <ele>1377.2</ele>
        <time>2018-07-22T10:57:47.000Z</time>
      </trkpt>
      <trkpt lat="42.318851" lon="-0.489248">
        <ele>1377.2</ele>
        <time>2018-07-22T10:57:48.000Z</time>
      </trkpt>
      <trkpt lat="42.318851" lon="-0.489248">
        <ele>1377.2</ele>
        <time>2018-07-22T10:57:49.000Z</time>
      </trkpt>
      <trkpt lat="42.318851" lon="-0.489248">
        <ele>1377.2</ele>
        <time>2018-07-22T10:57:50.000Z</time>
      </trkpt>
      <trkpt lat="42.318851" lon="-0.489248">
        <ele>1377.2</ele>
        <time>2018-07-22T10:57:51.000Z</time>
      </trkpt>
      <trkpt lat="42.318851" lon="-0.489248">
        <ele>1377.2</ele>
        <time>2018-07-22T10:57:52.000Z</time>
      </trkpt>
      <trkpt lat="42.318852" lon="-0.489248">
        <ele>1377.2</ele>
        <time>2018-07-22T10:57:53.000Z</time>
      </trkpt>
      <trkpt lat="42.318852" lon="-0.489248">
        <ele>1377.2</ele>
        <time>2018-07-22T10:57:54.000Z</time>
      </trkpt>
      <trkpt lat="42.318852" lon="-0.489248">
        <ele>1377.2</ele>
        <time>2018-07-22T10:57:55.000Z</time>
      </trkpt>
      <trkpt lat="42.318852" lon="-0.489248">
        <ele>1377.2</ele>
        <time>2018-07-22T10:57:56.000Z</time>
      </trkpt>
      <trkpt lat="42.318852" lon="-0.489248">
        <ele>1377.2</ele>
        <time>2018-07-22T10:57:57.000Z</time>
      </trkpt>
      <trkpt lat="42.318852" lon="-0.489248">
        <ele>1377.2</ele>
        <time>2018-07-22T10:57:58.000Z</time>
      </trkpt>
      <trkpt lat="42.318852" lon="-0.489248">
        <ele>1377.2</ele>
        <time>2018-07-22T10:57:59.000Z</time>
      </trkpt>
      <trkpt lat="42.318852" lon="-0.489248">
        <ele>1377.2</ele>
        <time>2018-07-22T10:58:00.000Z</time>
      </trkpt>
      <trkpt lat="42.318852" lon="-0.489248">
        <ele>1377.2</ele>
        <time>2018-07-22T10:58:01.000Z</time>
      </trkpt>
      <trkpt lat="42.318852" lon="-0.489248">
        <ele>1377.2</ele>
        <time>2018-07-22T10:58:02.000Z</time>
      </trkpt>
      <trkpt lat="42.318852" lon="-0.489248">
        <ele>1377.2</ele>
        <time>2018-07-22T10:58:03.000Z</time>
      </trkpt>
      <trkpt lat="42.318852" lon="-0.489248">
        <ele>1377.2</ele>
        <time>2018-07-22T10:58:04.000Z</time>
      </trkpt>
      <trkpt lat="42.318852" lon="-0.489248">
        <ele>1377.2</ele>
        <time>2018-07-22T10:58:05.000Z</time>
      </trkpt>
      <trkpt lat="42.318852" lon="-0.489248">
        <ele>1377.2</ele>
        <time>2018-07-22T10:58:06.000Z</time>
      </trkpt>
      <trkpt lat="42.318852" lon="-0.489248">
        <ele>1377.2</ele>
        <time>2018-07-22T10:58:07.000Z</time>
      </trkpt>
      <trkpt lat="42.318852" lon="-0.489248">
        <ele>1377.2</ele>
        <time>2018-07-22T10:58:08.000Z</time>
      </trkpt>
      <trkpt lat="42.318852" lon="-0.489248">
        <ele>1377.2</ele>
        <time>2018-07-22T10:58:09.000Z</time>
      </trkpt>
      <trkpt lat="42.318852" lon="-0.489248">
        <ele>1377.2</ele>
        <time>2018-07-22T10:58:10.000Z</time>
      </trkpt>
      <trkpt lat="42.318852" lon="-0.489248">
        <ele>1377.2</ele>
        <time>2018-07-22T10:58:11.000Z</time>
      </trkpt>
      <trkpt lat="42.318852" lon="-0.489248">
        <ele>1377.2</ele>
        <time>2018-07-22T10:58:12.000Z</time>
      </trkpt>
      <trkpt lat="42.318852" lon="-0.489248">
        <ele>1377.2</ele>
        <time>2018-07-22T10:58:13.000Z</time>
      </trkpt>
      <trkpt lat="42.318852" lon="-0.489248">
        <ele>1377.2</ele>
        <time>2018-07-22T10:58:14.000Z</time>
      </trkpt>
      <trkpt lat="42.318852" lon="-0.489248">
        <ele>1377.2</ele>
        <time>2018-07-22T10:58:15.000Z</time>
      </trkpt>
      <trkpt lat="42.318852" lon="-0.489248">
        <ele>1377.2</ele>
        <time>2018-07-22T10:58:16.000Z</time>
      </trkpt>
      <trkpt lat="42.318852" lon="-0.489248">
        <ele>1377.2</ele>
        <time>2018-07-22T10:58:17.000Z</time>
      </trkpt>
      <trkpt lat="42.318852" lon="-0.489248">
        <ele>1377.2</ele>
        <time>2018-07-22T10:58:18.000Z</time>
      </trkpt>
      <trkpt lat="42.318852" lon="-0.489248">
        <ele>1377.2</ele>
        <time>2018-07-22T10:58:19.000Z</time>
      </trkpt>
      <trkpt lat="42.318852" lon="-0.489248">
        <ele>1377.2</ele>
        <time>2018-07-22T10:58:20.000Z</time>
      </trkpt>
      <trkpt lat="42.318852" lon="-0.489248">
        <ele>1377.2</ele>
        <time>2018-07-22T10:58:21.000Z</time>
      </trkpt>
      <trkpt lat="42.318852" lon="-0.489248">
        <ele>1377.2</ele>
        <time>2018-07-22T10:58:22.000Z</time>
      </trkpt>
      <trkpt lat="42.318852" lon="-0.489248">
        <ele>1377.2</ele>
        <time>2018-07-22T10:58:23.000Z</time>
      </trkpt>
      <trkpt lat="42.318852" lon="-0.489248">
        <ele>1377.2</ele>
        <time>2018-07-22T10:58:24.000Z</time>
      </trkpt>
      <trkpt lat="42.318852" lon="-0.489248">
        <ele>1377.2</ele>
        <time>2018-07-22T10:58:25.000Z</time>
      </trkpt>
      <trkpt lat="42.318852" lon="-0.489248">
        <ele>1377.2</ele>
        <time>2018-07-22T10:58:26.000Z</time>
      </trkpt>
      <trkpt lat="42.318852" lon="-0.489248">
        <ele>1377.2</ele>
        <time>2018-07-22T10:58:27.000Z</time>
      </trkpt>
      <trkpt lat="42.318852" lon="-0.489248">
        <ele>1377.2</ele>
        <time>2018-07-22T10:58:28.000Z</time>
      </trkpt>
      <trkpt lat="42.318852" lon="-0.489248">
        <ele>1377.2</ele>
        <time>2018-07-22T10:58:29.000Z</time>
      </trkpt>
      <trkpt lat="42.318852" lon="-0.489248">
        <ele>1377.2</ele>
        <time>2018-07-22T10:58:30.000Z</time>
      </trkpt>
      <trkpt lat="42.318852" lon="-0.489248">
        <ele>1377.2</ele>
        <time>2018-07-22T10:58:31.000Z</time>
      </trkpt>
      <trkpt lat="42.318852" lon="-0.489248">
        <ele>1377.2</ele>
        <time>2018-07-22T10:58:32.000Z</time>
      </trkpt>
      <trkpt lat="42.318852" lon="-0.489248">
        <ele>1377.2</ele>
        <time>2018-07-22T10:58:33.000Z</time>
      </trkpt>
      <trkpt lat="42.318852" lon="-0.489249">
        <ele>1377.2</ele>
        <time>2018-07-22T10:58:34.000Z</time>
      </trkpt>
      <trkpt lat="42.318852" lon="-0.489249">
        <ele>1377.2</ele>
        <time>2018-07-22T10:58:35.000Z</time>
      </trkpt>
      <trkpt lat="42.318852" lon="-0.489249">
        <ele>1377.2</ele>
        <time>2018-07-22T10:58:36.000Z</time>
      </trkpt>
      <trkpt lat="42.318852" lon="-0.489249">
        <ele>1377.2</ele>
        <time>2018-07-22T10:58:37.000Z</time>
      </trkpt>
      <trkpt lat="42.318852" lon="-0.489249">
        <ele>1377.2</ele>
        <time>2018-07-22T10:58:38.000Z</time>
      </trkpt>
      <trkpt lat="42.318851" lon="-0.489249">
        <ele>1377.2</ele>
        <time>2018-07-22T10:58:39.000Z</time>
      </trkpt>
      <trkpt lat="42.318851" lon="-0.489249">
        <ele>1377.2</ele>
        <time>2018-07-22T10:58:40.000Z</time>
      </trkpt>
      <trkpt lat="42.318851" lon="-0.489249">
        <ele>1377.2</ele>
        <time>2018-07-22T10:58:41.000Z</time>
      </trkpt>
      <trkpt lat="42.318851" lon="-0.489249">
        <ele>1377.2</ele>
        <time>2018-07-22T10:58:42.000Z</time>
      </trkpt>
      <trkpt lat="42.318851" lon="-0.489249">
        <ele>1377.2</ele>
        <time>2018-07-22T10:58:43.000Z</time>
      </trkpt>
      <trkpt lat="42.318851" lon="-0.489249">
        <ele>1377.2</ele>
        <time>2018-07-22T10:58:44.000Z</time>
      </trkpt>
      <trkpt lat="42.318851" lon="-0.489249">
        <ele>1377.2</ele>
        <time>2018-07-22T10:58:45.000Z</time>
      </trkpt>
      <trkpt lat="42.318851" lon="-0.489249">
        <ele>1377.2</ele>
        <time>2018-07-22T10:58:46.000Z</time>
      </trkpt>
      <trkpt lat="42.318851" lon="-0.489249">
        <ele>1377.2</ele>
        <time>2018-07-22T10:58:47.000Z</time>
      </trkpt>
      <trkpt lat="42.318851" lon="-0.489249">
        <ele>1377.2</ele>
        <time>2018-07-22T10:58:48.000Z</time>
      </trkpt>
      <trkpt lat="42.318851" lon="-0.489249">
        <ele>1377.2</ele>
        <time>2018-07-22T10:58:49.000Z</time>
      </trkpt>
      <trkpt lat="42.318851" lon="-0.489249">
        <ele>1377.2</ele>
        <time>2018-07-22T10:58:50.000Z</time>
      </trkpt>
      <trkpt lat="42.318851" lon="-0.489249">
        <ele>1377.2</ele>
        <time>2018-07-22T10:58:51.000Z</time>
      </trkpt>
      <trkpt lat="42.318851" lon="-0.489249">
        <ele>1377.2</ele>
        <time>2018-07-22T10:58:52.000Z</time>
      </trkpt>
      <trkpt lat="42.318851" lon="-0.489249">
        <ele>1377.2</ele>
        <time>2018-07-22T10:58:53.000Z</time>
      </trkpt>
      <trkpt lat="42.318851" lon="-0.489249">
        <ele>1377.2</ele>
        <time>2018-07-22T10:58:54.000Z</time>
      </trkpt>
      <trkpt lat="42.318851" lon="-0.489249">
        <ele>1377.2</ele>
        <time>2018-07-22T10:58:55.000Z</time>
      </trkpt>
      <trkpt lat="42.318851" lon="-0.489249">
        <ele>1377.2</ele>
        <time>2018-07-22T10:58:56.000Z</time>
      </trkpt>
      <trkpt lat="42.318851" lon="-0.489249">
        <ele>1377.2</ele>
        <time>2018-07-22T10:58:57.000Z</time>
      </trkpt>
      <trkpt lat="42.318851" lon="-0.489249">
        <ele>1377.2</ele>
        <time>2018-07-22T10:58:58.000Z</time>
      </trkpt>
      <trkpt lat="42.318851" lon="-0.489249">
        <ele>1377.2</ele>
        <time>2018-07-22T10:58:59.000Z</time>
      </trkpt>
      <trkpt lat="42.318851" lon="-0.489249">
        <ele>1377.2</ele>
        <time>2018-07-22T10:59:00.000Z</time>
      </trkpt>
      <trkpt lat="42.318851" lon="-0.489249">
        <ele>1377.2</ele>
        <time>2018-07-22T10:59:01.000Z</time>
      </trkpt>
      <trkpt lat="42.318851" lon="-0.489249">
        <ele>1377.2</ele>
        <time>2018-07-22T10:59:02.000Z</time>
      </trkpt>
      <trkpt lat="42.318851" lon="-0.489249">
        <ele>1377.2</ele>
        <time>2018-07-22T10:59:03.000Z</time>
      </trkpt>
      <trkpt lat="42.318851" lon="-0.489249">
        <ele>1377.2</ele>
        <time>2018-07-22T10:59:04.000Z</time>
      </trkpt>
      <trkpt lat="42.318851" lon="-0.489249">
        <ele>1377.2</ele>
        <time>2018-07-22T10:59:05.000Z</time>
      </trkpt>
      <trkpt lat="42.318851" lon="-0.489249">
        <ele>1377.2</ele>
        <time>2018-07-22T10:59:06.000Z</time>
      </trkpt>
      <trkpt lat="42.318851" lon="-0.489249">
        <ele>1377.2</ele>
        <time>2018-07-22T10:59:07.000Z</time>
      </trkpt>
      <trkpt lat="42.318851" lon="-0.489249">
        <ele>1377.2</ele>
        <time>2018-07-22T10:59:08.000Z</time>
      </trkpt>
      <trkpt lat="42.318851" lon="-0.489249">
        <ele>1377.2</ele>
        <time>2018-07-22T10:59:09.000Z</time>
      </trkpt>
      <trkpt lat="42.318851" lon="-0.489249">
        <ele>1377.2</ele>
        <time>2018-07-22T10:59:10.000Z</time>
      </trkpt>
      <trkpt lat="42.318851" lon="-0.489249">
        <ele>1377.2</ele>
        <time>2018-07-22T10:59:11.000Z</time>
      </trkpt>
      <trkpt lat="42.318851" lon="-0.489249">
        <ele>1377.2</ele>
        <time>2018-07-22T10:59:12.000Z</time>
      </trkpt>
      <trkpt lat="42.318851" lon="-0.489249">
        <ele>1377.2</ele>
        <time>2018-07-22T10:59:13.000Z</time>
      </trkpt>
      <trkpt lat="42.318851" lon="-0.489249">
        <ele>1377.2</ele>
        <time>2018-07-22T10:59:14.000Z</time>
      </trkpt>
      <trkpt lat="42.318851" lon="-0.489249">
        <ele>1377.2</ele>
        <time>2018-07-22T10:59:15.000Z</time>
      </trkpt>
      <trkpt lat="42.318851" lon="-0.489249">
        <ele>1377.2</ele>
        <time>2018-07-22T10:59:16.000Z</time>
      </trkpt>
      <trkpt lat="42.318851" lon="-0.489249">
        <ele>1377.2</ele>
        <time>2018-07-22T10:59:17.000Z</time>
      </trkpt>
      <trkpt lat="42.318851" lon="-0.489249">
        <ele>1377.2</ele>
        <time>2018-07-22T10:59:18.000Z</time>
      </trkpt>
      <trkpt lat="42.318851" lon="-0.489249">
        <ele>1377.2</ele>
        <time>2018-07-22T10:59:19.000Z</time>
      </trkpt>
      <trkpt lat="42.318851" lon="-0.489249">
        <ele>1377.2</ele>
        <time>2018-07-22T10:59:20.000Z</time>
      </trkpt>
      <trkpt lat="42.318851" lon="-0.489249">
        <ele>1377.2</ele>
        <time>2018-07-22T10:59:21.000Z</time>
      </trkpt>
      <trkpt lat="42.318851" lon="-0.489249">
        <ele>1377.2</ele>
        <time>2018-07-22T10:59:22.000Z</time>
      </trkpt>
      <trkpt lat="42.318851" lon="-0.489249">
        <ele>1377.2</ele>
        <time>2018-07-22T10:59:23.000Z</time>
      </trkpt>
      <trkpt lat="42.318851" lon="-0.489249">
        <ele>1377.2</ele>
        <time>2018-07-22T10:59:24.000Z</time>
      </trkpt>
      <trkpt lat="42.318851" lon="-0.489249">
        <ele>1377.2</ele>
        <time>2018-07-22T10:59:25.000Z</time>
      </trkpt>
      <trkpt lat="42.318851" lon="-0.489249">
        <ele>1377.2</ele>
        <time>2018-07-22T10:59:26.000Z</time>
      </trkpt>
      <trkpt lat="42.318851" lon="-0.489249">
        <ele>1377.2</ele>
        <time>2018-07-22T10:59:27.000Z</time>
      </trkpt>
      <trkpt lat="42.318851" lon="-0.489249">
        <ele>1377.2</ele>
        <time>2018-07-22T10:59:28.000Z</time>
      </trkpt>
      <trkpt lat="42.318851" lon="-0.489249">
        <ele>1377.2</ele>
        <time>2018-07-22T10:59:29.000Z</time>
      </trkpt>
      <trkpt lat="42.318851" lon="-0.489249">
        <ele>1377.2</ele>
        <time>2018-07-22T10:59:30.000Z</time>
      </trkpt>
      <trkpt lat="42.318851" lon="-0.489249">
        <ele>1377.2</ele>
        <time>2018-07-22T10:59:31.000Z</time>
      </trkpt>
      <trkpt lat="42.318851" lon="-0.489249">
        <ele>1377.2</ele>
        <time>2018-07-22T10:59:32.000Z</time>
      </trkpt>
      <trkpt lat="42.318851" lon="-0.489248">
        <ele>1377.2</ele>
        <time>2018-07-22T10:59:33.000Z</time>
      </trkpt>
      <trkpt lat="42.318851" lon="-0.489248">
        <ele>1377.2</ele>
        <time>2018-07-22T10:59:34.000Z</time>
      </trkpt>
      <trkpt lat="42.318851" lon="-0.489248">
        <ele>1377.2</ele>
        <time>2018-07-22T10:59:35.000Z</time>
      </trkpt>
      <trkpt lat="42.318851" lon="-0.489247">
        <ele>1377.1</ele>
        <time>2018-07-22T10:59:36.000Z</time>
      </trkpt>
      <trkpt lat="42.318851" lon="-0.489247">
        <ele>1377.1</ele>
        <time>2018-07-22T10:59:37.000Z</time>
      </trkpt>
      <trkpt lat="42.318851" lon="-0.489246">
        <ele>1377.1</ele>
        <time>2018-07-22T10:59:38.000Z</time>
      </trkpt>
      <trkpt lat="42.31885" lon="-0.489245">
        <ele>1377.1</ele>
        <time>2018-07-22T10:59:39.000Z</time>
      </trkpt>
      <trkpt lat="42.318847" lon="-0.489241">
        <ele>1376.9</ele>
        <time>2018-07-22T10:59:40.000Z</time>
      </trkpt>
      <trkpt lat="42.31884" lon="-0.489233">
        <ele>1376.6</ele>
        <time>2018-07-22T10:59:41.000Z</time>
      </trkpt>
      <trkpt lat="42.318833" lon="-0.489226">
        <ele>1376.4</ele>
        <time>2018-07-22T10:59:42.000Z</time>
      </trkpt>
      <trkpt lat="42.318826" lon="-0.48922">
        <ele>1376.2</ele>
        <time>2018-07-22T10:59:43.000Z</time>
      </trkpt>
      <trkpt lat="42.318821" lon="-0.489214">
        <ele>1376.0</ele>
        <time>2018-07-22T10:59:44.000Z</time>
      </trkpt>
      <trkpt lat="42.318816" lon="-0.489207">
        <ele>1375.7</ele>
        <time>2018-07-22T10:59:45.000Z</time>
      </trkpt>
      <trkpt lat="42.318811" lon="-0.4892">
        <ele>1375.5</ele>
        <time>2018-07-22T10:59:46.000Z</time>
      </trkpt>
      <trkpt lat="42.318806" lon="-0.489192">
        <ele>1375.2</ele>
        <time>2018-07-22T10:59:47.000Z</time>
      </trkpt>
      <trkpt lat="42.318802" lon="-0.489186">
        <ele>1375.0</ele>
        <time>2018-07-22T10:59:48.000Z</time>
      </trkpt>
      <trkpt lat="42.3188" lon="-0.489181">
        <ele>1374.8</ele>
        <time>2018-07-22T10:59:49.000Z</time>
      </trkpt>
      <trkpt lat="42.318798" lon="-0.489178">
        <ele>1374.7</ele>
        <time>2018-07-22T10:59:50.000Z</time>
      </trkpt>
      <trkpt lat="42.318798" lon="-0.489177">
        <ele>1374.6</ele>
        <time>2018-07-22T10:59:51.000Z</time>
      </trkpt>
      <trkpt lat="42.318797" lon="-0.489177">
        <ele>1374.6</ele>
        <time>2018-07-22T10:59:52.000Z</time>
      </trkpt>
      <trkpt lat="42.318798" lon="-0.489177">
        <ele>1374.6</ele>
        <time>2018-07-22T10:59:53.000Z</time>
      </trkpt>
      <trkpt lat="42.318798" lon="-0.489177">
        <ele>1374.6</ele>
        <time>2018-07-22T10:59:54.000Z</time>
      </trkpt>
      <trkpt lat="42.318798" lon="-0.489176">
        <ele>1374.6</ele>
        <time>2018-07-22T10:59:55.000Z</time>
      </trkpt>
      <trkpt lat="42.318797" lon="-0.489173">
        <ele>1374.5</ele>
        <time>2018-07-22T10:59:56.000Z</time>
      </trkpt>
      <trkpt lat="42.318794" lon="-0.489168">
        <ele>1374.3</ele>
        <time>2018-07-22T10:59:57.000Z</time>
      </trkpt>
      <trkpt lat="42.31879" lon="-0.48916">
        <ele>1374.1</ele>
        <time>2018-07-22T10:59:58.000Z</time>
      </trkpt>
      <trkpt lat="42.318786" lon="-0.489151">
        <ele>1373.8</ele>
        <time>2018-07-22T10:59:59.000Z</time>
      </trkpt>
      <trkpt lat="42.318783" lon="-0.489145">
        <ele>1373.7</ele>
        <time>2018-07-22T11:00:00.000Z</time>
      </trkpt>
      <trkpt lat="42.318781" lon="-0.489142">
        <ele>1373.6</ele>
        <time>2018-07-22T11:00:01.000Z</time>
      </trkpt>
      <trkpt lat="42.31878" lon="-0.48914">
        <ele>1373.5</ele>
        <time>2018-07-22T11:00:02.000Z</time>
      </trkpt>
      <trkpt lat="42.31878" lon="-0.489139">
        <ele>1373.5</ele>
        <time>2018-07-22T11:00:03.000Z</time>
      </trkpt>
      <trkpt lat="42.31878" lon="-0.489139">
        <ele>1373.5</ele>
        <time>2018-07-22T11:00:04.000Z</time>
      </trkpt>
      <trkpt lat="42.31878" lon="-0.489139">
        <ele>1373.5</ele>
        <time>2018-07-22T11:00:05.000Z</time>
      </trkpt>
      <trkpt lat="42.31878" lon="-0.489139">
        <ele>1373.5</ele>
        <time>2018-07-22T11:00:06.000Z</time>
      </trkpt>
      <trkpt lat="42.318779" lon="-0.489138">
        <ele>1373.5</ele>
        <time>2018-07-22T11:00:07.000Z</time>
      </trkpt>
      <trkpt lat="42.318778" lon="-0.489136">
        <ele>1373.4</ele>
        <time>2018-07-22T11:00:08.000Z</time>
      </trkpt>
      <trkpt lat="42.318776" lon="-0.489135">
        <ele>1373.4</ele>
        <time>2018-07-22T11:00:09.000Z</time>
      </trkpt>
      <trkpt lat="42.318775" lon="-0.489133">
        <ele>1373.3</ele>
        <time>2018-07-22T11:00:10.000Z</time>
      </trkpt>
      <trkpt lat="42.318774" lon="-0.489132">
        <ele>1373.3</ele>
        <time>2018-07-22T11:00:11.000Z</time>
      </trkpt>
      <trkpt lat="42.318773" lon="-0.489131">
        <ele>1373.3</ele>
        <time>2018-07-22T11:00:12.000Z</time>
      </trkpt>
      <trkpt lat="42.318772" lon="-0.48913">
        <ele>1373.3</ele>
        <time>2018-07-22T11:00:13.000Z</time>
      </trkpt>
      <trkpt lat="42.318772" lon="-0.489129">
        <ele>1373.2</ele>
        <time>2018-07-22T11:00:14.000Z</time>
      </trkpt>
      <trkpt lat="42.318771" lon="-0.489129">
        <ele>1373.2</ele>
        <time>2018-07-22T11:00:15.000Z</time>
      </trkpt>
      <trkpt lat="42.318771" lon="-0.489128">
        <ele>1373.2</ele>
        <time>2018-07-22T11:00:16.000Z</time>
      </trkpt>
      <trkpt lat="42.318771" lon="-0.489128">
        <ele>1373.2</ele>
        <time>2018-07-22T11:00:17.000Z</time>
      </trkpt>
      <trkpt lat="42.31877" lon="-0.489128">
        <ele>1373.2</ele>
        <time>2018-07-22T11:00:18.000Z</time>
      </trkpt>
      <trkpt lat="42.31877" lon="-0.489128">
        <ele>1373.2</ele>
        <time>2018-07-22T11:00:19.000Z</time>
      </trkpt>
      <trkpt lat="42.31877" lon="-0.489128">
        <ele>1373.2</ele>
        <time>2018-07-22T11:00:20.000Z</time>
      </trkpt>
      <trkpt lat="42.31877" lon="-0.489128">
        <ele>1373.2</ele>
        <time>2018-07-22T11:00:21.000Z</time>
      </trkpt>
      <trkpt lat="42.31877" lon="-0.489127">
        <ele>1373.2</ele>
        <time>2018-07-22T11:00:22.000Z</time>
      </trkpt>
      <trkpt lat="42.31877" lon="-0.489127">
        <ele>1373.2</ele>
        <time>2018-07-22T11:00:23.000Z</time>
      </trkpt>
      <trkpt lat="42.318769" lon="-0.489127">
        <ele>1373.2</ele>
        <time>2018-07-22T11:00:24.000Z</time>
      </trkpt>
      <trkpt lat="42.318769" lon="-0.489127">
        <ele>1373.2</ele>
        <time>2018-07-22T11:00:25.000Z</time>
      </trkpt>
      <trkpt lat="42.318769" lon="-0.489127">
        <ele>1373.2</ele>
        <time>2018-07-22T11:00:26.000Z</time>
      </trkpt>
      <trkpt lat="42.318768" lon="-0.489126">
        <ele>1373.2</ele>
        <time>2018-07-22T11:00:27.000Z</time>
      </trkpt>
      <trkpt lat="42.318768" lon="-0.489126">
        <ele>1373.2</ele>
        <time>2018-07-22T11:00:28.000Z</time>
      </trkpt>
      <trkpt lat="42.318767" lon="-0.489126">
        <ele>1373.2</ele>
        <time>2018-07-22T11:00:29.000Z</time>
      </trkpt>
      <trkpt lat="42.318766" lon="-0.489125">
        <ele>1373.2</ele>
        <time>2018-07-22T11:00:30.000Z</time>
      </trkpt>
      <trkpt lat="42.318766" lon="-0.489125">
        <ele>1373.2</ele>
        <time>2018-07-22T11:00:31.000Z</time>
      </trkpt>
      <trkpt lat="42.318764" lon="-0.489124">
        <ele>1373.1</ele>
        <time>2018-07-22T11:00:32.000Z</time>
      </trkpt>
      <trkpt lat="42.318763" lon="-0.489124">
        <ele>1373.1</ele>
        <time>2018-07-22T11:00:33.000Z</time>
      </trkpt>
      <trkpt lat="42.31876" lon="-0.489121">
        <ele>1373.1</ele>
        <time>2018-07-22T11:00:34.000Z</time>
      </trkpt>
      <trkpt lat="42.318754" lon="-0.489116">
        <ele>1373.0</ele>
        <time>2018-07-22T11:00:35.000Z</time>
      </trkpt>
      <trkpt lat="42.318747" lon="-0.489112">
        <ele>1372.9</ele>
        <time>2018-07-22T11:00:36.000Z</time>
      </trkpt>
      <trkpt lat="42.318741" lon="-0.489109">
        <ele>1372.8</ele>
        <time>2018-07-22T11:00:37.000Z</time>
      </trkpt>
      <trkpt lat="42.318735" lon="-0.489105">
        <ele>1372.7</ele>
        <time>2018-07-22T11:00:38.000Z</time>
      </trkpt>
      <trkpt lat="42.318728" lon="-0.489102">
        <ele>1372.7</ele>
        <time>2018-07-22T11:00:39.000Z</time>
      </trkpt>
      <trkpt lat="42.318719" lon="-0.489098">
        <ele>1372.6</ele>
        <time>2018-07-22T11:00:40.000Z</time>
      </trkpt>
      <trkpt lat="42.31871" lon="-0.489095">
        <ele>1372.6</ele>
        <time>2018-07-22T11:00:41.000Z</time>
      </trkpt>
      <trkpt lat="42.3187" lon="-0.489091">
        <ele>1372.5</ele>
        <time>2018-07-22T11:00:42.000Z</time>
      </trkpt>
      <trkpt lat="42.31869" lon="-0.489086">
        <ele>1372.4</ele>
        <time>2018-07-22T11:00:43.000Z</time>
      </trkpt>
      <trkpt lat="42.31868" lon="-0.48908">
        <ele>1372.3</ele>
        <time>2018-07-22T11:00:44.000Z</time>
      </trkpt>
      <trkpt lat="42.318671" lon="-0.489073">
        <ele>1372.1</ele>
        <time>2018-07-22T11:00:45.000Z</time>
      </trkpt>
      <trkpt lat="42.318662" lon="-0.489066">
        <ele>1372.0</ele>
        <time>2018-07-22T11:00:46.000Z</time>
      </trkpt>
      <trkpt lat="42.318654" lon="-0.489059">
        <ele>1371.8</ele>
        <time>2018-07-22T11:00:47.000Z</time>
      </trkpt>
      <trkpt lat="42.318646" lon="-0.489053">
        <ele>1371.6</ele>
        <time>2018-07-22T11:00:48.000Z</time>
      </trkpt>
      <trkpt lat="42.318638" lon="-0.489048">
        <ele>1371.5</ele>
        <time>2018-07-22T11:00:49.000Z</time>
      </trkpt>
      <trkpt lat="42.318631" lon="-0.489045">
        <ele>1371.5</ele>
        <time>2018-07-22T11:00:50.000Z</time>
      </trkpt>
      <trkpt lat="42.318625" lon="-0.489044">
        <ele>1371.5</ele>
        <time>2018-07-22T11:00:51.000Z</time>
      </trkpt>
      <trkpt lat="42.318618" lon="-0.489043">
        <ele>1371.5</ele>
        <time>2018-07-22T11:00:52.000Z</time>
      </trkpt>
      <trkpt lat="42.318612" lon="-0.489043">
        <ele>1371.5</ele>
        <time>2018-07-22T11:00:53.000Z</time>
      </trkpt>
      <trkpt lat="42.318606" lon="-0.489041">
        <ele>1371.5</ele>
        <time>2018-07-22T11:00:54.000Z</time>
      </trkpt>
      <trkpt lat="42.3186" lon="-0.489039">
        <ele>1371.5</ele>
        <time>2018-07-22T11:00:55.000Z</time>
      </trkpt>
      <trkpt lat="42.318594" lon="-0.489036">
        <ele>1371.4</ele>
        <time>2018-07-22T11:00:56.000Z</time>
      </trkpt>
      <trkpt lat="42.318587" lon="-0.489032">
        <ele>1371.3</ele>
        <time>2018-07-22T11:00:57.000Z</time>
      </trkpt>
      <trkpt lat="42.318581" lon="-0.489027">
        <ele>1371.2</ele>
        <time>2018-07-22T11:00:58.000Z</time>
      </trkpt>
      <trkpt lat="42.318575" lon="-0.489021">
        <ele>1371.0</ele>
        <time>2018-07-22T11:00:59.000Z</time>
      </trkpt>
      <trkpt lat="42.318568" lon="-0.489015">
        <ele>1370.9</ele>
        <time>2018-07-22T11:01:00.000Z</time>
      </trkpt>
      <trkpt lat="42.318562" lon="-0.489009">
        <ele>1370.7</ele>
        <time>2018-07-22T11:01:01.000Z</time>
      </trkpt>
      <trkpt lat="42.318556" lon="-0.489003">
        <ele>1370.6</ele>
        <time>2018-07-22T11:01:02.000Z</time>
      </trkpt>
      <trkpt lat="42.31855" lon="-0.488997">
        <ele>1370.4</ele>
        <time>2018-07-22T11:01:03.000Z</time>
      </trkpt>
      <trkpt lat="42.318545" lon="-0.488992">
        <ele>1370.3</ele>
        <time>2018-07-22T11:01:04.000Z</time>
      </trkpt>
      <trkpt lat="42.318541" lon="-0.488989">
        <ele>1370.2</ele>
        <time>2018-07-22T11:01:05.000Z</time>
      </trkpt>
      <trkpt lat="42.318539" lon="-0.488987">
        <ele>1370.2</ele>
        <time>2018-07-22T11:01:06.000Z</time>
      </trkpt>
      <trkpt lat="42.318537" lon="-0.488986">
        <ele>1370.1</ele>
        <time>2018-07-22T11:01:07.000Z</time>
      </trkpt>
      <trkpt lat="42.318536" lon="-0.488986">
        <ele>1370.1</ele>
        <time>2018-07-22T11:01:08.000Z</time>
      </trkpt>
      <trkpt lat="42.318536" lon="-0.488986">
        <ele>1370.1</ele>
        <time>2018-07-22T11:01:09.000Z</time>
      </trkpt>
      <trkpt lat="42.318535" lon="-0.488986">
        <ele>1370.1</ele>
        <time>2018-07-22T11:01:10.000Z</time>
      </trkpt>
      <trkpt lat="42.318535" lon="-0.488985">
        <ele>1370.1</ele>
        <time>2018-07-22T11:01:11.000Z</time>
      </trkpt>
      <trkpt lat="42.318533" lon="-0.488983">
        <ele>1370.1</ele>
        <time>2018-07-22T11:01:12.000Z</time>
      </trkpt>
      <trkpt lat="42.318532" lon="-0.488982">
        <ele>1370.0</ele>
        <time>2018-07-22T11:01:13.000Z</time>
      </trkpt>
      <trkpt lat="42.318531" lon="-0.488981">
        <ele>1370.0</ele>
        <time>2018-07-22T11:01:14.000Z</time>
      </trkpt>
      <trkpt lat="42.318528" lon="-0.488981">
        <ele>1370.0</ele>
        <time>2018-07-22T11:01:15.000Z</time>
      </trkpt>
      <trkpt lat="42.318521" lon="-0.488974">
        <ele>1369.8</ele>
        <time>2018-07-22T11:01:16.000Z</time>
      </trkpt>
      <trkpt lat="42.318513" lon="-0.488965">
        <ele>1369.6</ele>
        <time>2018-07-22T11:01:17.000Z</time>
      </trkpt>
      <trkpt lat="42.318507" lon="-0.488958">
        <ele>1369.4</ele>
        <time>2018-07-22T11:01:18.000Z</time>
      </trkpt>
      <trkpt lat="42.318502" lon="-0.488951">
        <ele>1369.2</ele>
        <time>2018-07-22T11:01:19.000Z</time>
      </trkpt>
      <trkpt lat="42.318498" lon="-0.488945">
        <ele>1369.0</ele>
        <time>2018-07-22T11:01:20.000Z</time>
      </trkpt>
      <trkpt lat="42.318495" lon="-0.48894">
        <ele>1368.9</ele>
        <time>2018-07-22T11:01:21.000Z</time>
      </trkpt>
      <trkpt lat="42.318493" lon="-0.488936">
        <ele>1368.8</ele>
        <time>2018-07-22T11:01:22.000Z</time>
      </trkpt>
      <trkpt lat="42.318491" lon="-0.488933">
        <ele>1368.7</ele>
        <time>2018-07-22T11:01:23.000Z</time>
      </trkpt>
      <trkpt lat="42.31849" lon="-0.48893">
        <ele>1368.6</ele>
        <time>2018-07-22T11:01:24.000Z</time>
      </trkpt>
      <trkpt lat="42.318488" lon="-0.488927">
        <ele>1368.5</ele>
        <time>2018-07-22T11:01:25.000Z</time>
      </trkpt>
      <trkpt lat="42.318486" lon="-0.488924">
        <ele>1368.4</ele>
        <time>2018-07-22T11:01:26.000Z</time>
      </trkpt>
      <trkpt lat="42.318483" lon="-0.48892">
        <ele>1368.3</ele>
        <time>2018-07-22T11:01:27.000Z</time>
      </trkpt>
      <trkpt lat="42.318481" lon="-0.488916">
        <ele>1368.2</ele>
        <time>2018-07-22T11:01:28.000Z</time>
      </trkpt>
      <trkpt lat="42.318479" lon="-0.488913">
        <ele>1368.1</ele>
        <time>2018-07-22T11:01:29.000Z</time>
      </trkpt>
      <trkpt lat="42.318478" lon="-0.488912">
        <ele>1368.1</ele>
        <time>2018-07-22T11:01:30.000Z</time>
      </trkpt>
      <trkpt lat="42.318475" lon="-0.488909">
        <ele>1368.0</ele>
        <time>2018-07-22T11:01:31.000Z</time>
      </trkpt>
      <trkpt lat="42.31847" lon="-0.488902">
        <ele>1367.8</ele>
        <time>2018-07-22T11:01:32.000Z</time>
      </trkpt>
      <trkpt lat="42.318462" lon="-0.488893">
        <ele>1367.6</ele>
        <time>2018-07-22T11:01:33.000Z</time>
      </trkpt>
      <trkpt lat="42.318454" lon="-0.488884">
        <ele>1367.3</ele>
        <time>2018-07-22T11:01:34.000Z</time>
      </trkpt>
      <trkpt lat="42.318449" lon="-0.488878">
        <ele>1367.1</ele>
        <time>2018-07-22T11:01:35.000Z</time>
      </trkpt>
      <trkpt lat="42.318447" lon="-0.488875">
        <ele>1367.1</ele>
        <time>2018-07-22T11:01:36.000Z</time>
      </trkpt>
      <trkpt lat="42.318445" lon="-0.488873">
        <ele>1367.0</ele>
        <time>2018-07-22T11:01:37.000Z</time>
      </trkpt>
      <trkpt lat="42.31844" lon="-0.488869">
        <ele>1366.9</ele>
        <time>2018-07-22T11:01:38.000Z</time>
      </trkpt>
      <trkpt lat="42.318432" lon="-0.488863">
        <ele>1366.7</ele>
        <time>2018-07-22T11:01:39.000Z</time>
      </trkpt>
      <trkpt lat="42.318424" lon="-0.488858">
        <ele>1366.6</ele>
        <time>2018-07-22T11:01:40.000Z</time>
      </trkpt>
      <trkpt lat="42.318415" lon="-0.488855">
        <ele>1366.6</ele>
        <time>2018-07-22T11:01:41.000Z</time>
      </trkpt>
      <trkpt lat="42.318408" lon="-0.488854">
        <ele>1366.6</ele>
        <time>2018-07-22T11:01:42.000Z</time>
      </trkpt>
      <trkpt lat="42.318401" lon="-0.488852">
        <ele>1366.5</ele>
        <time>2018-07-22T11:01:43.000Z</time>
      </trkpt>
      <trkpt lat="42.318394" lon="-0.48885">
        <ele>1366.5</ele>
        <time>2018-07-22T11:01:44.000Z</time>
      </trkpt>
      <trkpt lat="42.318387" lon="-0.488848">
        <ele>1366.5</ele>
        <time>2018-07-22T11:01:45.000Z</time>
      </trkpt>
      <trkpt lat="42.31838" lon="-0.488844">
        <ele>1366.4</ele>
        <time>2018-07-22T11:01:46.000Z</time>
      </trkpt>
      <trkpt lat="42.318372" lon="-0.48884">
        <ele>1366.3</ele>
        <time>2018-07-22T11:01:47.000Z</time>
      </trkpt>
      <trkpt lat="42.318365" lon="-0.488835">
        <ele>1366.1</ele>
        <time>2018-07-22T11:01:48.000Z</time>
      </trkpt>
      <trkpt lat="42.318356" lon="-0.488829">
        <ele>1366.0</ele>
        <time>2018-07-22T11:01:49.000Z</time>
      </trkpt>
      <trkpt lat="42.318347" lon="-0.488822">
        <ele>1365.8</ele>
        <time>2018-07-22T11:01:50.000Z</time>
      </trkpt>
      <trkpt lat="42.318338" lon="-0.488814">
        <ele>1365.6</ele>
        <time>2018-07-22T11:01:51.000Z</time>
      </trkpt>
      <trkpt lat="42.318328" lon="-0.488806">
        <ele>1365.4</ele>
        <time>2018-07-22T11:01:52.000Z</time>
      </trkpt>
      <trkpt lat="42.318318" lon="-0.488798">
        <ele>1365.3</ele>
        <time>2018-07-22T11:01:53.000Z</time>
      </trkpt>
      <trkpt lat="42.318308" lon="-0.488789">
        <ele>1365.2</ele>
        <time>2018-07-22T11:01:54.000Z</time>
      </trkpt>
      <trkpt lat="42.318297" lon="-0.48878">
        <ele>1365.2</ele>
        <time>2018-07-22T11:01:55.000Z</time>
      </trkpt>
      <trkpt lat="42.318287" lon="-0.488771">
        <ele>1365.1</ele>
        <time>2018-07-22T11:01:56.000Z</time>
      </trkpt>
      <trkpt lat="42.318276" lon="-0.488761">
        <ele>1365.0</ele>
        <time>2018-07-22T11:01:57.000Z</time>
      </trkpt>
      <trkpt lat="42.318266" lon="-0.488752">
        <ele>1364.9</ele>
        <time>2018-07-22T11:01:58.000Z</time>
      </trkpt>
      <trkpt lat="42.318255" lon="-0.488743">
        <ele>1364.8</ele>
        <time>2018-07-22T11:01:59.000Z</time>
      </trkpt>
      <trkpt lat="42.318245" lon="-0.488735">
        <ele>1364.7</ele>
        <time>2018-07-22T11:02:00.000Z</time>
      </trkpt>
      <trkpt lat="42.318235" lon="-0.488727">
        <ele>1364.6</ele>
        <time>2018-07-22T11:02:01.000Z</time>
      </trkpt>
      <trkpt lat="42.318225" lon="-0.488719">
        <ele>1364.6</ele>
        <time>2018-07-22T11:02:02.000Z</time>
      </trkpt>
      <trkpt lat="42.318216" lon="-0.488712">
        <ele>1364.5</ele>
        <time>2018-07-22T11:02:03.000Z</time>
      </trkpt>
      <trkpt lat="42.318206" lon="-0.488704">
        <ele>1364.5</ele>
        <time>2018-07-22T11:02:04.000Z</time>
      </trkpt>
      <trkpt lat="42.318196" lon="-0.488697">
        <ele>1364.4</ele>
        <time>2018-07-22T11:02:05.000Z</time>
      </trkpt>
      <trkpt lat="42.318186" lon="-0.488691">
        <ele>1364.4</ele>
        <time>2018-07-22T11:02:06.000Z</time>
      </trkpt>
      <trkpt lat="42.318175" lon="-0.488684">
        <ele>1364.4</ele>
        <time>2018-07-22T11:02:07.000Z</time>
      </trkpt>
      <trkpt lat="42.318165" lon="-0.488678">
        <ele>1364.4</ele>
        <time>2018-07-22T11:02:08.000Z</time>
      </trkpt>
      <trkpt lat="42.318153" lon="-0.488672">
        <ele>1364.5</ele>
        <time>2018-07-22T11:02:09.000Z</time>
      </trkpt>
      <trkpt lat="42.318142" lon="-0.488666">
        <ele>1364.5</ele>
        <time>2018-07-22T11:02:10.000Z</time>
      </trkpt>
      <trkpt lat="42.31813" lon="-0.488661">
        <ele>1364.6</ele>
        <time>2018-07-22T11:02:11.000Z</time>
      </trkpt>
      <trkpt lat="42.318118" lon="-0.488656">
        <ele>1364.6</ele>
        <time>2018-07-22T11:02:12.000Z</time>
      </trkpt>
      <trkpt lat="42.318106" lon="-0.488652">
        <ele>1364.8</ele>
        <time>2018-07-22T11:02:13.000Z</time>
      </trkpt>
      <trkpt lat="42.318094" lon="-0.488648">
        <ele>1364.9</ele>
        <time>2018-07-22T11:02:14.000Z</time>
      </trkpt>
      <trkpt lat="42.318082" lon="-0.488645">
        <ele>1365.0</ele>
        <time>2018-07-22T11:02:15.000Z</time>
      </trkpt>
      <trkpt lat="42.31807" lon="-0.488644">
        <ele>1365.2</ele>
        <time>2018-07-22T11:02:16.000Z</time>
      </trkpt>
      <trkpt lat="42.318059" lon="-0.488643">
        <ele>1365.4</ele>
        <time>2018-07-22T11:02:17.000Z</time>
      </trkpt>
      <trkpt lat="42.318049" lon="-0.488642">
        <ele>1365.5</ele>
        <time>2018-07-22T11:02:18.000Z</time>
      </trkpt>
      <trkpt lat="42.318039" lon="-0.48864">
        <ele>1365.7</ele>
        <time>2018-07-22T11:02:19.000Z</time>
      </trkpt>
      <trkpt lat="42.31803" lon="-0.488638">
        <ele>1365.8</ele>
        <time>2018-07-22T11:02:20.000Z</time>
      </trkpt>
      <trkpt lat="42.318022" lon="-0.488635">
        <ele>1365.9</ele>
        <time>2018-07-22T11:02:21.000Z</time>
      </trkpt>
      <trkpt lat="42.318014" lon="-0.488631">
        <ele>1365.9</ele>
        <time>2018-07-22T11:02:22.000Z</time>
      </trkpt>
      <trkpt lat="42.318007" lon="-0.488627">
        <ele>1365.9</ele>
        <time>2018-07-22T11:02:23.000Z</time>
      </trkpt>
      <trkpt lat="42.318" lon="-0.488622">
        <ele>1365.9</ele>
        <time>2018-07-22T11:02:24.000Z</time>
      </trkpt>
      <trkpt lat="42.317994" lon="-0.488619">
        <ele>1365.9</ele>
        <time>2018-07-22T11:02:25.000Z</time>
      </trkpt>
      <trkpt lat="42.317987" lon="-0.488617">
        <ele>1366.0</ele>
        <time>2018-07-22T11:02:26.000Z</time>
      </trkpt>
      <trkpt lat="42.31798" lon="-0.488616">
        <ele>1366.1</ele>
        <time>2018-07-22T11:02:27.000Z</time>
      </trkpt>
      <trkpt lat="42.317972" lon="-0.488616">
        <ele>1366.2</ele>
        <time>2018-07-22T11:02:28.000Z</time>
      </trkpt>
      <trkpt lat="42.317965" lon="-0.488615">
        <ele>1366.3</ele>
        <time>2018-07-22T11:02:29.000Z</time>
      </trkpt>
      <trkpt lat="42.317958" lon="-0.488614">
        <ele>1366.4</ele>
        <time>2018-07-22T11:02:30.000Z</time>
      </trkpt>
      <trkpt lat="42.31795" lon="-0.48861">
        <ele>1366.5</ele>
        <time>2018-07-22T11:02:31.000Z</time>
      </trkpt>
      <trkpt lat="42.317942" lon="-0.488605">
        <ele>1366.5</ele>
        <time>2018-07-22T11:02:32.000Z</time>
      </trkpt>
      <trkpt lat="42.317933" lon="-0.488598">
        <ele>1366.4</ele>
        <time>2018-07-22T11:02:33.000Z</time>
      </trkpt>
      <trkpt lat="42.317923" lon="-0.488592">
        <ele>1366.4</ele>
        <time>2018-07-22T11:02:34.000Z</time>
      </trkpt>
      <trkpt lat="42.317913" lon="-0.488585">
        <ele>1366.4</ele>
        <time>2018-07-22T11:02:35.000Z</time>
      </trkpt>
      <trkpt lat="42.317902" lon="-0.488579">
        <ele>1366.5</ele>
        <time>2018-07-22T11:02:36.000Z</time>
      </trkpt>
      <trkpt lat="42.317892" lon="-0.488574">
        <ele>1366.5</ele>
        <time>2018-07-22T11:02:37.000Z</time>
      </trkpt>
      <trkpt lat="42.317881" lon="-0.488572">
        <ele>1366.6</ele>
        <time>2018-07-22T11:02:38.000Z</time>
      </trkpt>
      <trkpt lat="42.31787" lon="-0.488571">
        <ele>1366.8</ele>
        <time>2018-07-22T11:02:39.000Z</time>
      </trkpt>
      <trkpt lat="42.317859" lon="-0.488572">
        <ele>1367.1</ele>
        <time>2018-07-22T11:02:40.000Z</time>
      </trkpt>
      <trkpt lat="42.317849" lon="-0.488573">
        <ele>1367.3</ele>
        <time>2018-07-22T11:02:41.000Z</time>
      </trkpt>
      <trkpt lat="42.317839" lon="-0.488575">
        <ele>1367.6</ele>
        <time>2018-07-22T11:02:42.000Z</time>
      </trkpt>
      <trkpt lat="42.317829" lon="-0.488578">
        <ele>1367.9</ele>
        <time>2018-07-22T11:02:43.000Z</time>
      </trkpt>
      <trkpt lat="42.31782" lon="-0.48858">
        <ele>1368.1</ele>
        <time>2018-07-22T11:02:44.000Z</time>
      </trkpt>
      <trkpt lat="42.317811" lon="-0.488582">
        <ele>1368.3</ele>
        <time>2018-07-22T11:02:45.000Z</time>
      </trkpt>
      <trkpt lat="42.317802" lon="-0.488585">
        <ele>1368.6</ele>
        <time>2018-07-22T11:02:46.000Z</time>
      </trkpt>
      <trkpt lat="42.317794" lon="-0.488587">
        <ele>1368.8</ele>
        <time>2018-07-22T11:02:47.000Z</time>
      </trkpt>
      <trkpt lat="42.317787" lon="-0.488589">
        <ele>1369.0</ele>
        <time>2018-07-22T11:02:48.000Z</time>
      </trkpt>
      <trkpt lat="42.317779" lon="-0.488591">
        <ele>1369.2</ele>
        <time>2018-07-22T11:02:49.000Z</time>
      </trkpt>
      <trkpt lat="42.317772" lon="-0.488593">
        <ele>1369.4</ele>
        <time>2018-07-22T11:02:50.000Z</time>
      </trkpt>
      <trkpt lat="42.317766" lon="-0.488594">
        <ele>1369.6</ele>
        <time>2018-07-22T11:02:51.000Z</time>
      </trkpt>
      <trkpt lat="42.317759" lon="-0.488596">
        <ele>1369.8</ele>
        <time>2018-07-22T11:02:52.000Z</time>
      </trkpt>
      <trkpt lat="42.317754" lon="-0.488596">
        <ele>1369.9</ele>
        <time>2018-07-22T11:02:53.000Z</time>
      </trkpt>
      <trkpt lat="42.317748" lon="-0.488596">
        <ele>1370.0</ele>
        <time>2018-07-22T11:02:54.000Z</time>
      </trkpt>
      <trkpt lat="42.317743" lon="-0.488596">
        <ele>1370.1</ele>
        <time>2018-07-22T11:02:55.000Z</time>
      </trkpt>
      <trkpt lat="42.317739" lon="-0.488595">
        <ele>1370.2</ele>
        <time>2018-07-22T11:02:56.000Z</time>
      </trkpt>
      <trkpt lat="42.317735" lon="-0.488593">
        <ele>1370.2</ele>
        <time>2018-07-22T11:02:57.000Z</time>
      </trkpt>
      <trkpt lat="42.317732" lon="-0.488591">
        <ele>1370.2</ele>
        <time>2018-07-22T11:02:58.000Z</time>
      </trkpt>
      <trkpt lat="42.317729" lon="-0.488588">
        <ele>1370.1</ele>
        <time>2018-07-22T11:02:59.000Z</time>
      </trkpt>
      <trkpt lat="42.317727" lon="-0.488585">
        <ele>1370.1</ele>
        <time>2018-07-22T11:03:00.000Z</time>
      </trkpt>
      <trkpt lat="42.317725" lon="-0.488581">
        <ele>1370.0</ele>
        <time>2018-07-22T11:03:01.000Z</time>
      </trkpt>
      <trkpt lat="42.317723" lon="-0.488579">
        <ele>1370.0</ele>
        <time>2018-07-22T11:03:02.000Z</time>
      </trkpt>
      <trkpt lat="42.317722" lon="-0.488577">
        <ele>1369.9</ele>
        <time>2018-07-22T11:03:03.000Z</time>
      </trkpt>
      <trkpt lat="42.31772" lon="-0.488576">
        <ele>1369.9</ele>
        <time>2018-07-22T11:03:04.000Z</time>
      </trkpt>
      <trkpt lat="42.317718" lon="-0.488576">
        <ele>1370.0</ele>
        <time>2018-07-22T11:03:05.000Z</time>
      </trkpt>
      <trkpt lat="42.317716" lon="-0.488576">
        <ele>1370.0</ele>
        <time>2018-07-22T11:03:06.000Z</time>
      </trkpt>
      <trkpt lat="42.317714" lon="-0.488574">
        <ele>1370.0</ele>
        <time>2018-07-22T11:03:07.000Z</time>
      </trkpt>
      <trkpt lat="42.317712" lon="-0.488573">
        <ele>1370.0</ele>
        <time>2018-07-22T11:03:08.000Z</time>
      </trkpt>
      <trkpt lat="42.317711" lon="-0.488571">
        <ele>1370.0</ele>
        <time>2018-07-22T11:03:09.000Z</time>
      </trkpt>
      <trkpt lat="42.31771" lon="-0.48857">
        <ele>1370.0</ele>
        <time>2018-07-22T11:03:10.000Z</time>
      </trkpt>
      <trkpt lat="42.317709" lon="-0.488566">
        <ele>1369.9</ele>
        <time>2018-07-22T11:03:11.000Z</time>
      </trkpt>
      <trkpt lat="42.317706" lon="-0.488556">
        <ele>1369.6</ele>
        <time>2018-07-22T11:03:12.000Z</time>
      </trkpt>
      <trkpt lat="42.3177" lon="-0.488541">
        <ele>1369.3</ele>
        <time>2018-07-22T11:03:13.000Z</time>
      </trkpt>
      <trkpt lat="42.317695" lon="-0.488534">
        <ele>1369.2</ele>
        <time>2018-07-22T11:03:14.000Z</time>
      </trkpt>
      <trkpt lat="42.317689" lon="-0.488528">
        <ele>1369.1</ele>
        <time>2018-07-22T11:03:15.000Z</time>
      </trkpt>
      <trkpt lat="42.317683" lon="-0.48852">
        <ele>1369.0</ele>
        <time>2018-07-22T11:03:16.000Z</time>
      </trkpt>
      <trkpt lat="42.317678" lon="-0.48851">
        <ele>1368.8</ele>
        <time>2018-07-22T11:03:17.000Z</time>
      </trkpt>
      <trkpt lat="42.317673" lon="-0.488498">
        <ele>1368.5</ele>
        <time>2018-07-22T11:03:18.000Z</time>
      </trkpt>
      <trkpt lat="42.317668" lon="-0.488485">
        <ele>1368.2</ele>
        <time>2018-07-22T11:03:19.000Z</time>
      </trkpt>
      <trkpt lat="42.317664" lon="-0.488472">
        <ele>1367.9</ele>
        <time>2018-07-22T11:03:20.000Z</time>
      </trkpt>
      <trkpt lat="42.317659" lon="-0.488458">
        <ele>1367.6</ele>
        <time>2018-07-22T11:03:21.000Z</time>
      </trkpt>
      <trkpt lat="42.317654" lon="-0.488445">
        <ele>1367.3</ele>
        <time>2018-07-22T11:03:22.000Z</time>
      </trkpt>
      <trkpt lat="42.31765" lon="-0.488431">
        <ele>1366.9</ele>
        <time>2018-07-22T11:03:23.000Z</time>
      </trkpt>
      <trkpt lat="42.317645" lon="-0.488419">
        <ele>1366.6</ele>
        <time>2018-07-22T11:03:24.000Z</time>
      </trkpt>
      <trkpt lat="42.31764" lon="-0.488407">
        <ele>1366.4</ele>
        <time>2018-07-22T11:03:25.000Z</time>
      </trkpt>
      <trkpt lat="42.317636" lon="-0.488397">
        <ele>1366.2</ele>
        <time>2018-07-22T11:03:26.000Z</time>
      </trkpt>
      <trkpt lat="42.317631" lon="-0.488388">
        <ele>1366.0</ele>
        <time>2018-07-22T11:03:27.000Z</time>
      </trkpt>
      <trkpt lat="42.317626" lon="-0.488379">
        <ele>1365.8</ele>
        <time>2018-07-22T11:03:28.000Z</time>
      </trkpt>
      <trkpt lat="42.317622" lon="-0.488371">
        <ele>1365.7</ele>
        <time>2018-07-22T11:03:29.000Z</time>
      </trkpt>
      <trkpt lat="42.317617" lon="-0.488362">
        <ele>1365.5</ele>
        <time>2018-07-22T11:03:30.000Z</time>
      </trkpt>
      <trkpt lat="42.317614" lon="-0.488353">
        <ele>1365.3</ele>
        <time>2018-07-22T11:03:31.000Z</time>
      </trkpt>
      <trkpt lat="42.31761" lon="-0.488343">
        <ele>1365.0</ele>
        <time>2018-07-22T11:03:32.000Z</time>
      </trkpt>
      <trkpt lat="42.317607" lon="-0.488332">
        <ele>1364.8</ele>
        <time>2018-07-22T11:03:33.000Z</time>
      </trkpt>
      <trkpt lat="42.317604" lon="-0.48832">
        <ele>1364.8</ele>
        <time>2018-07-22T11:03:34.000Z</time>
      </trkpt>
      <trkpt lat="42.3176" lon="-0.488307">
        <ele>1364.8</ele>
        <time>2018-07-22T11:03:35.000Z</time>
      </trkpt>
      <trkpt lat="42.317595" lon="-0.488294">
        <ele>1364.8</ele>
        <time>2018-07-22T11:03:36.000Z</time>
      </trkpt>
      <trkpt lat="42.317589" lon="-0.48828">
        <ele>1364.9</ele>
        <time>2018-07-22T11:03:37.000Z</time>
      </trkpt>
      <trkpt lat="42.317582" lon="-0.488266">
        <ele>1365.0</ele>
        <time>2018-07-22T11:03:38.000Z</time>
      </trkpt>
      <trkpt lat="42.317574" lon="-0.488252">
        <ele>1365.1</ele>
        <time>2018-07-22T11:03:39.000Z</time>
      </trkpt>
      <trkpt lat="42.317565" lon="-0.488237">
        <ele>1365.2</ele>
        <time>2018-07-22T11:03:40.000Z</time>
      </trkpt>
      <trkpt lat="42.317556" lon="-0.488223">
        <ele>1365.3</ele>
        <time>2018-07-22T11:03:41.000Z</time>
      </trkpt>
      <trkpt lat="42.317546" lon="-0.488208">
        <ele>1365.5</ele>
        <time>2018-07-22T11:03:42.000Z</time>
      </trkpt>
      <trkpt lat="42.317536" lon="-0.488194">
        <ele>1365.6</ele>
        <time>2018-07-22T11:03:43.000Z</time>
      </trkpt>
      <trkpt lat="42.317526" lon="-0.488181">
        <ele>1365.8</ele>
        <time>2018-07-22T11:03:44.000Z</time>
      </trkpt>
      <trkpt lat="42.317515" lon="-0.488168">
        <ele>1366.0</ele>
        <time>2018-07-22T11:03:45.000Z</time>
      </trkpt>
      <trkpt lat="42.317505" lon="-0.488155">
        <ele>1366.2</ele>
        <time>2018-07-22T11:03:46.000Z</time>
      </trkpt>
      <trkpt lat="42.317494" lon="-0.488144">
        <ele>1366.5</ele>
        <time>2018-07-22T11:03:47.000Z</time>
      </trkpt>
      <trkpt lat="42.317484" lon="-0.488134">
        <ele>1366.9</ele>
        <time>2018-07-22T11:03:48.000Z</time>
      </trkpt>
      <trkpt lat="42.317474" lon="-0.488125">
        <ele>1367.2</ele>
        <time>2018-07-22T11:03:49.000Z</time>
      </trkpt>
      <trkpt lat="42.317464" lon="-0.488117">
        <ele>1367.5</ele>
        <time>2018-07-22T11:03:50.000Z</time>
      </trkpt>
      <trkpt lat="42.317455" lon="-0.48811">
        <ele>1367.9</ele>
        <time>2018-07-22T11:03:51.000Z</time>
      </trkpt>
      <trkpt lat="42.317445" lon="-0.488103">
        <ele>1368.2</ele>
        <time>2018-07-22T11:03:52.000Z</time>
      </trkpt>
      <trkpt lat="42.317436" lon="-0.488097">
        <ele>1368.5</ele>
        <time>2018-07-22T11:03:53.000Z</time>
      </trkpt>
      <trkpt lat="42.317427" lon="-0.488092">
        <ele>1368.8</ele>
        <time>2018-07-22T11:03:54.000Z</time>
      </trkpt>
      <trkpt lat="42.317419" lon="-0.488088">
        <ele>1369.1</ele>
        <time>2018-07-22T11:03:55.000Z</time>
      </trkpt>
      <trkpt lat="42.317411" lon="-0.488084">
        <ele>1369.4</ele>
        <time>2018-07-22T11:03:56.000Z</time>
      </trkpt>
      <trkpt lat="42.317403" lon="-0.48808">
        <ele>1369.7</ele>
        <time>2018-07-22T11:03:57.000Z</time>
      </trkpt>
      <trkpt lat="42.317396" lon="-0.488077">
        <ele>1370.0</ele>
        <time>2018-07-22T11:03:58.000Z</time>
      </trkpt>
      <trkpt lat="42.317389" lon="-0.488074">
        <ele>1370.2</ele>
        <time>2018-07-22T11:03:59.000Z</time>
      </trkpt>
      <trkpt lat="42.317382" lon="-0.488072">
        <ele>1370.5</ele>
        <time>2018-07-22T11:04:00.000Z</time>
      </trkpt>
      <trkpt lat="42.317374" lon="-0.48807">
        <ele>1370.8</ele>
        <time>2018-07-22T11:04:01.000Z</time>
      </trkpt>
      <trkpt lat="42.317365" lon="-0.488068">
        <ele>1371.1</ele>
        <time>2018-07-22T11:04:02.000Z</time>
      </trkpt>
      <trkpt lat="42.317354" lon="-0.488066">
        <ele>1371.5</ele>
        <time>2018-07-22T11:04:03.000Z</time>
      </trkpt>
      <trkpt lat="42.317344" lon="-0.488063">
        <ele>1371.9</ele>
        <time>2018-07-22T11:04:04.000Z</time>
      </trkpt>
      <trkpt lat="42.317333" lon="-0.488059">
        <ele>1372.3</ele>
        <time>2018-07-22T11:04:05.000Z</time>
      </trkpt>
      <trkpt lat="42.317323" lon="-0.488052">
        <ele>1372.7</ele>
        <time>2018-07-22T11:04:06.000Z</time>
      </trkpt>
      <trkpt lat="42.317312" lon="-0.488045">
        <ele>1373.1</ele>
        <time>2018-07-22T11:04:07.000Z</time>
      </trkpt>
      <trkpt lat="42.317302" lon="-0.488037">
        <ele>1373.4</ele>
        <time>2018-07-22T11:04:08.000Z</time>
      </trkpt>
      <trkpt lat="42.317292" lon="-0.488028">
        <ele>1373.8</ele>
        <time>2018-07-22T11:04:09.000Z</time>
      </trkpt>
      <trkpt lat="42.317283" lon="-0.488019">
        <ele>1374.1</ele>
        <time>2018-07-22T11:04:10.000Z</time>
      </trkpt>
      <trkpt lat="42.317274" lon="-0.488011">
        <ele>1374.5</ele>
        <time>2018-07-22T11:04:11.000Z</time>
      </trkpt>
      <trkpt lat="42.317267" lon="-0.488003">
        <ele>1374.7</ele>
        <time>2018-07-22T11:04:12.000Z</time>
      </trkpt>
      <trkpt lat="42.31726" lon="-0.487996">
        <ele>1375.0</ele>
        <time>2018-07-22T11:04:13.000Z</time>
      </trkpt>
      <trkpt lat="42.317255" lon="-0.487989">
        <ele>1375.2</ele>
        <time>2018-07-22T11:04:14.000Z</time>
      </trkpt>
      <trkpt lat="42.317251" lon="-0.487985">
        <ele>1375.4</ele>
        <time>2018-07-22T11:04:15.000Z</time>
      </trkpt>
      <trkpt lat="42.317249" lon="-0.487981">
        <ele>1375.4</ele>
        <time>2018-07-22T11:04:16.000Z</time>
      </trkpt>
      <trkpt lat="42.317247" lon="-0.487977">
        <ele>1375.5</ele>
        <time>2018-07-22T11:04:17.000Z</time>
      </trkpt>
      <trkpt lat="42.317247" lon="-0.487973">
        <ele>1375.5</ele>
        <time>2018-07-22T11:04:18.000Z</time>
      </trkpt>
      <trkpt lat="42.317248" lon="-0.487968">
        <ele>1375.5</ele>
        <time>2018-07-22T11:04:19.000Z</time>
      </trkpt>
      <trkpt lat="42.31725" lon="-0.487962">
        <ele>1375.4</ele>
        <time>2018-07-22T11:04:20.000Z</time>
      </trkpt>
      <trkpt lat="42.317252" lon="-0.487955">
        <ele>1375.3</ele>
        <time>2018-07-22T11:04:21.000Z</time>
      </trkpt>
      <trkpt lat="42.317255" lon="-0.487947">
        <ele>1375.2</ele>
        <time>2018-07-22T11:04:22.000Z</time>
      </trkpt>
      <trkpt lat="42.317259" lon="-0.487938">
        <ele>1375.0</ele>
        <time>2018-07-22T11:04:23.000Z</time>
      </trkpt>
      <trkpt lat="42.317263" lon="-0.48793">
        <ele>1374.9</ele>
        <time>2018-07-22T11:04:24.000Z</time>
      </trkpt>
      <trkpt lat="42.317267" lon="-0.487922">
        <ele>1374.7</ele>
        <time>2018-07-22T11:04:25.000Z</time>
      </trkpt>
      <trkpt lat="42.317271" lon="-0.487914">
        <ele>1374.6</ele>
        <time>2018-07-22T11:04:26.000Z</time>
      </trkpt>
      <trkpt lat="42.317275" lon="-0.487907">
        <ele>1374.4</ele>
        <time>2018-07-22T11:04:27.000Z</time>
      </trkpt>
      <trkpt lat="42.317279" lon="-0.4879">
        <ele>1374.2</ele>
        <time>2018-07-22T11:04:28.000Z</time>
      </trkpt>
      <trkpt lat="42.317283" lon="-0.487894">
        <ele>1374.1</ele>
        <time>2018-07-22T11:04:29.000Z</time>
      </trkpt>
      <trkpt lat="42.317287" lon="-0.487888">
        <ele>1373.9</ele>
        <time>2018-07-22T11:04:30.000Z</time>
      </trkpt>
      <trkpt lat="42.317291" lon="-0.487883">
        <ele>1373.8</ele>
        <time>2018-07-22T11:04:31.000Z</time>
      </trkpt>
      <trkpt lat="42.317295" lon="-0.487878">
        <ele>1373.6</ele>
        <time>2018-07-22T11:04:32.000Z</time>
      </trkpt>
      <trkpt lat="42.317299" lon="-0.487872">
        <ele>1373.4</ele>
        <time>2018-07-22T11:04:33.000Z</time>
      </trkpt>
      <trkpt lat="42.317304" lon="-0.487866">
        <ele>1373.2</ele>
        <time>2018-07-22T11:04:34.000Z</time>
      </trkpt>
      <trkpt lat="42.31731" lon="-0.48786">
        <ele>1373.0</ele>
        <time>2018-07-22T11:04:35.000Z</time>
      </trkpt>
      <trkpt lat="42.317317" lon="-0.487852">
        <ele>1372.7</ele>
        <time>2018-07-22T11:04:36.000Z</time>
      </trkpt>
      <trkpt lat="42.317326" lon="-0.487843">
        <ele>1372.3</ele>
        <time>2018-07-22T11:04:37.000Z</time>
      </trkpt>
      <trkpt lat="42.317335" lon="-0.487834">
        <ele>1371.9</ele>
        <time>2018-07-22T11:04:38.000Z</time>
      </trkpt>
      <trkpt lat="42.317345" lon="-0.487823">
        <ele>1371.5</ele>
        <time>2018-07-22T11:04:39.000Z</time>
      </trkpt>
      <trkpt lat="42.317356" lon="-0.487812">
        <ele>1371.0</ele>
        <time>2018-07-22T11:04:40.000Z</time>
      </trkpt>
      <trkpt lat="42.317365" lon="-0.487801">
        <ele>1370.7</ele>
        <time>2018-07-22T11:04:41.000Z</time>
      </trkpt>
      <trkpt lat="42.317374" lon="-0.48779">
        <ele>1370.3</ele>
        <time>2018-07-22T11:04:42.000Z</time>
      </trkpt>
      <trkpt lat="42.317381" lon="-0.487778">
        <ele>1370.0</ele>
        <time>2018-07-22T11:04:43.000Z</time>
      </trkpt>
      <trkpt lat="42.317388" lon="-0.487767">
        <ele>1369.6</ele>
        <time>2018-07-22T11:04:44.000Z</time>
      </trkpt>
      <trkpt lat="42.317395" lon="-0.487755">
        <ele>1369.3</ele>
        <time>2018-07-22T11:04:45.000Z</time>
      </trkpt>
      <trkpt lat="42.317401" lon="-0.487744">
        <ele>1369.0</ele>
        <time>2018-07-22T11:04:46.000Z</time>
      </trkpt>
      <trkpt lat="42.317407" lon="-0.487733">
        <ele>1368.8</ele>
        <time>2018-07-22T11:04:47.000Z</time>
      </trkpt>
      <trkpt lat="42.317413" lon="-0.487722">
        <ele>1368.5</ele>
        <time>2018-07-22T11:04:48.000Z</time>
      </trkpt>
      <trkpt lat="42.317419" lon="-0.487712">
        <ele>1368.2</ele>
        <time>2018-07-22T11:04:49.000Z</time>
      </trkpt>
      <trkpt lat="42.317425" lon="-0.487702">
        <ele>1367.9</ele>
        <time>2018-07-22T11:04:50.000Z</time>
      </trkpt>
      <trkpt lat="42.317432" lon="-0.487693">
        <ele>1367.6</ele>
        <time>2018-07-22T11:04:51.000Z</time>
      </trkpt>
      <trkpt lat="42.31744" lon="-0.487684">
        <ele>1367.2</ele>
        <time>2018-07-22T11:04:52.000Z</time>
      </trkpt>
      <trkpt lat="42.317448" lon="-0.487676">
        <ele>1366.9</ele>
        <time>2018-07-22T11:04:53.000Z</time>
      </trkpt>
      <trkpt lat="42.317457" lon="-0.487668">
        <ele>1366.5</ele>
        <time>2018-07-22T11:04:54.000Z</time>
      </trkpt>
      <trkpt lat="42.317467" lon="-0.487661">
        <ele>1366.0</ele>
        <time>2018-07-22T11:04:55.000Z</time>
      </trkpt>
      <trkpt lat="42.317477" lon="-0.487655">
        <ele>1365.6</ele>
        <time>2018-07-22T11:04:56.000Z</time>
      </trkpt>
      <trkpt lat="42.317487" lon="-0.487648">
        <ele>1365.1</ele>
        <time>2018-07-22T11:04:57.000Z</time>
      </trkpt>
      <trkpt lat="42.317498" lon="-0.487642">
        <ele>1364.6</ele>
        <time>2018-07-22T11:04:58.000Z</time>
      </trkpt>
      <trkpt lat="42.317509" lon="-0.487637">
        <ele>1364.2</ele>
        <time>2018-07-22T11:04:59.000Z</time>
      </trkpt>
      <trkpt lat="42.317519" lon="-0.487631">
        <ele>1363.8</ele>
        <time>2018-07-22T11:05:00.000Z</time>
      </trkpt>
      <trkpt lat="42.31753" lon="-0.487625">
        <ele>1363.3</ele>
        <time>2018-07-22T11:05:01.000Z</time>
      </trkpt>
      <trkpt lat="42.31754" lon="-0.48762">
        <ele>1363.0</ele>
        <time>2018-07-22T11:05:02.000Z</time>
      </trkpt>
      <trkpt lat="42.31755" lon="-0.487614">
        <ele>1362.6</ele>
        <time>2018-07-22T11:05:03.000Z</time>
      </trkpt>
      <trkpt lat="42.317559" lon="-0.487608">
        <ele>1362.2</ele>
        <time>2018-07-22T11:05:04.000Z</time>
      </trkpt>
      <trkpt lat="42.317567" lon="-0.487601">
        <ele>1361.9</ele>
        <time>2018-07-22T11:05:05.000Z</time>
      </trkpt>
      <trkpt lat="42.317575" lon="-0.487595">
        <ele>1361.5</ele>
        <time>2018-07-22T11:05:06.000Z</time>
      </trkpt>
      <trkpt lat="42.317582" lon="-0.487588">
        <ele>1361.2</ele>
        <time>2018-07-22T11:05:07.000Z</time>
      </trkpt>
      <trkpt lat="42.317589" lon="-0.487581">
        <ele>1360.9</ele>
        <time>2018-07-22T11:05:08.000Z</time>
      </trkpt>
      <trkpt lat="42.317594" lon="-0.487574">
        <ele>1360.7</ele>
        <time>2018-07-22T11:05:09.000Z</time>
      </trkpt>
      <trkpt lat="42.317599" lon="-0.487566">
        <ele>1360.5</ele>
        <time>2018-07-22T11:05:10.000Z</time>
      </trkpt>
      <trkpt lat="42.317602" lon="-0.487558">
        <ele>1360.3</ele>
        <time>2018-07-22T11:05:11.000Z</time>
      </trkpt>
      <trkpt lat="42.317606" lon="-0.48755">
        <ele>1360.1</ele>
        <time>2018-07-22T11:05:12.000Z</time>
      </trkpt>
      <trkpt lat="42.31761" lon="-0.487541">
        <ele>1359.9</ele>
        <time>2018-07-22T11:05:13.000Z</time>
      </trkpt>
      <trkpt lat="42.317614" lon="-0.487531">
        <ele>1359.7</ele>
        <time>2018-07-22T11:05:14.000Z</time>
      </trkpt>
      <trkpt lat="42.317619" lon="-0.487521">
        <ele>1359.4</ele>
        <time>2018-07-22T11:05:15.000Z</time>
      </trkpt>
      <trkpt lat="42.317625" lon="-0.48751">
        <ele>1359.1</ele>
        <time>2018-07-22T11:05:16.000Z</time>
      </trkpt>
      <trkpt lat="42.317631" lon="-0.487499">
        <ele>1358.8</ele>
        <time>2018-07-22T11:05:17.000Z</time>
      </trkpt>
      <trkpt lat="42.317638" lon="-0.487487">
        <ele>1358.8</ele>
        <time>2018-07-22T11:05:18.000Z</time>
      </trkpt>
      <trkpt lat="42.317645" lon="-0.487476">
        <ele>1358.7</ele>
        <time>2018-07-22T11:05:19.000Z</time>
      </trkpt>
      <trkpt lat="42.317653" lon="-0.487463">
        <ele>1358.6</ele>
        <time>2018-07-22T11:05:20.000Z</time>
      </trkpt>
      <trkpt lat="42.317661" lon="-0.487451">
        <ele>1358.4</ele>
        <time>2018-07-22T11:05:21.000Z</time>
      </trkpt>
      <trkpt lat="42.31767" lon="-0.487439">
        <ele>1358.3</ele>
        <time>2018-07-22T11:05:22.000Z</time>
      </trkpt>
      <trkpt lat="42.317679" lon="-0.487426">
        <ele>1358.1</ele>
        <time>2018-07-22T11:05:23.000Z</time>
      </trkpt>
      <trkpt lat="42.317687" lon="-0.487414">
        <ele>1358.0</ele>
        <time>2018-07-22T11:05:24.000Z</time>
      </trkpt>
      <trkpt lat="42.317696" lon="-0.487401">
        <ele>1357.8</ele>
        <time>2018-07-22T11:05:25.000Z</time>
      </trkpt>
      <trkpt lat="42.317705" lon="-0.487389">
        <ele>1357.6</ele>
        <time>2018-07-22T11:05:26.000Z</time>
      </trkpt>
      <trkpt lat="42.317714" lon="-0.487377">
        <ele>1357.4</ele>
        <time>2018-07-22T11:05:27.000Z</time>
      </trkpt>
      <trkpt lat="42.317723" lon="-0.487366">
        <ele>1357.2</ele>
        <time>2018-07-22T11:05:28.000Z</time>
      </trkpt>
      <trkpt lat="42.317731" lon="-0.487354">
        <ele>1357.0</ele>
        <time>2018-07-22T11:05:29.000Z</time>
      </trkpt>
      <trkpt lat="42.31774" lon="-0.487343">
        <ele>1356.7</ele>
        <time>2018-07-22T11:05:30.000Z</time>
      </trkpt>
      <trkpt lat="42.317748" lon="-0.487332">
        <ele>1356.5</ele>
        <time>2018-07-22T11:05:31.000Z</time>
      </trkpt>
      <trkpt lat="42.317755" lon="-0.487322">
        <ele>1356.4</ele>
        <time>2018-07-22T11:05:32.000Z</time>
      </trkpt>
      <trkpt lat="42.317763" lon="-0.487311">
        <ele>1356.2</ele>
        <time>2018-07-22T11:05:33.000Z</time>
      </trkpt>
      <trkpt lat="42.31777" lon="-0.487301">
        <ele>1356.0</ele>
        <time>2018-07-22T11:05:34.000Z</time>
      </trkpt>
      <trkpt lat="42.317777" lon="-0.487291">
        <ele>1355.8</ele>
        <time>2018-07-22T11:05:35.000Z</time>
      </trkpt>
      <trkpt lat="42.317783" lon="-0.487282">
        <ele>1355.6</ele>
        <time>2018-07-22T11:05:36.000Z</time>
      </trkpt>
      <trkpt lat="42.317789" lon="-0.487273">
        <ele>1355.5</ele>
        <time>2018-07-22T11:05:37.000Z</time>
      </trkpt>
      <trkpt lat="42.317794" lon="-0.487264">
        <ele>1355.4</ele>
        <time>2018-07-22T11:05:38.000Z</time>
      </trkpt>
      <trkpt lat="42.317799" lon="-0.487255">
        <ele>1355.2</ele>
        <time>2018-07-22T11:05:39.000Z</time>
      </trkpt>
      <trkpt lat="42.317804" lon="-0.487246">
        <ele>1355.1</ele>
        <time>2018-07-22T11:05:40.000Z</time>
      </trkpt>
      <trkpt lat="42.31781" lon="-0.487237">
        <ele>1354.9</ele>
        <time>2018-07-22T11:05:41.000Z</time>
      </trkpt>
      <trkpt lat="42.317815" lon="-0.487227">
        <ele>1354.8</ele>
        <time>2018-07-22T11:05:42.000Z</time>
      </trkpt>
      <trkpt lat="42.317821" lon="-0.487218">
        <ele>1354.6</ele>
        <time>2018-07-22T11:05:43.000Z</time>
      </trkpt>
      <trkpt lat="42.317828" lon="-0.487208">
        <ele>1354.4</ele>
        <time>2018-07-22T11:05:44.000Z</time>
      </trkpt>
      <trkpt lat="42.317835" lon="-0.487197">
        <ele>1354.2</ele>
        <time>2018-07-22T11:05:45.000Z</time>
      </trkpt>
      <trkpt lat="42.317843" lon="-0.487186">
        <ele>1353.9</ele>
        <time>2018-07-22T11:05:46.000Z</time>
      </trkpt>
      <trkpt lat="42.317852" lon="-0.487174">
        <ele>1353.6</ele>
        <time>2018-07-22T11:05:47.000Z</time>
      </trkpt>
      <trkpt lat="42.317861" lon="-0.487162">
        <ele>1353.3</ele>
        <time>2018-07-22T11:05:48.000Z</time>
      </trkpt>
      <trkpt lat="42.317871" lon="-0.48715">
        <ele>1352.9</ele>
        <time>2018-07-22T11:05:49.000Z</time>
      </trkpt>
      <trkpt lat="42.317882" lon="-0.487137">
        <ele>1352.5</ele>
        <time>2018-07-22T11:05:50.000Z</time>
      </trkpt>
      <trkpt lat="42.317892" lon="-0.487124">
        <ele>1352.1</ele>
        <time>2018-07-22T11:05:51.000Z</time>
      </trkpt>
      <trkpt lat="42.317901" lon="-0.487112">
        <ele>1351.8</ele>
        <time>2018-07-22T11:05:52.000Z</time>
      </trkpt>
      <trkpt lat="42.31791" lon="-0.4871">
        <ele>1351.4</ele>
        <time>2018-07-22T11:05:53.000Z</time>
      </trkpt>
      <trkpt lat="42.317919" lon="-0.487089">
        <ele>1351.1</ele>
        <time>2018-07-22T11:05:54.000Z</time>
      </trkpt>
      <trkpt lat="42.317927" lon="-0.487078">
        <ele>1350.8</ele>
        <time>2018-07-22T11:05:55.000Z</time>
      </trkpt>
      <trkpt lat="42.317934" lon="-0.487067">
        <ele>1350.5</ele>
        <time>2018-07-22T11:05:56.000Z</time>
      </trkpt>
      <trkpt lat="42.317941" lon="-0.487056">
        <ele>1350.2</ele>
        <time>2018-07-22T11:05:57.000Z</time>
      </trkpt>
      <trkpt lat="42.317948" lon="-0.487046">
        <ele>1349.9</ele>
        <time>2018-07-22T11:05:58.000Z</time>
      </trkpt>
      <trkpt lat="42.317955" lon="-0.487036">
        <ele>1349.6</ele>
        <time>2018-07-22T11:05:59.000Z</time>
      </trkpt>
      <trkpt lat="42.317962" lon="-0.487025">
        <ele>1349.3</ele>
        <time>2018-07-22T11:06:00.000Z</time>
      </trkpt>
      <trkpt lat="42.317969" lon="-0.487015">
        <ele>1349.0</ele>
        <time>2018-07-22T11:06:01.000Z</time>
      </trkpt>
      <trkpt lat="42.317976" lon="-0.487005">
        <ele>1348.7</ele>
        <time>2018-07-22T11:06:02.000Z</time>
      </trkpt>
      <trkpt lat="42.317982" lon="-0.486994">
        <ele>1348.5</ele>
        <time>2018-07-22T11:06:03.000Z</time>
      </trkpt>
      <trkpt lat="42.317989" lon="-0.486983">
        <ele>1348.2</ele>
        <time>2018-07-22T11:06:04.000Z</time>
      </trkpt>
      <trkpt lat="42.317995" lon="-0.486972">
        <ele>1347.9</ele>
        <time>2018-07-22T11:06:05.000Z</time>
      </trkpt>
      <trkpt lat="42.318" lon="-0.48696">
        <ele>1347.7</ele>
        <time>2018-07-22T11:06:06.000Z</time>
      </trkpt>
      <trkpt lat="42.318006" lon="-0.486947">
        <ele>1347.4</ele>
        <time>2018-07-22T11:06:07.000Z</time>
      </trkpt>
      <trkpt lat="42.318011" lon="-0.486933">
        <ele>1347.2</ele>
        <time>2018-07-22T11:06:08.000Z</time>
      </trkpt>
      <trkpt lat="42.318015" lon="-0.486919">
        <ele>1347.1</ele>
        <time>2018-07-22T11:06:09.000Z</time>
      </trkpt>
      <trkpt lat="42.318019" lon="-0.486903">
        <ele>1347.0</ele>
        <time>2018-07-22T11:06:10.000Z</time>
      </trkpt>
      <trkpt lat="42.318023" lon="-0.486887">
        <ele>1346.8</ele>
        <time>2018-07-22T11:06:11.000Z</time>
      </trkpt>
      <trkpt lat="42.318025" lon="-0.486871">
        <ele>1346.8</ele>
        <time>2018-07-22T11:06:12.000Z</time>
      </trkpt>
      <trkpt lat="42.318027" lon="-0.486854">
        <ele>1346.8</ele>
        <time>2018-07-22T11:06:13.000Z</time>
      </trkpt>
      <trkpt lat="42.318028" lon="-0.486838">
        <ele>1346.8</ele>
        <time>2018-07-22T11:06:14.000Z</time>
      </trkpt>
      <trkpt lat="42.318028" lon="-0.486822">
        <ele>1346.9</ele>
        <time>2018-07-22T11:06:15.000Z</time>
      </trkpt>
      <trkpt lat="42.318027" lon="-0.486807">
        <ele>1347.1</ele>
        <time>2018-07-22T11:06:16.000Z</time>
      </trkpt>
      <trkpt lat="42.318026" lon="-0.486793">
        <ele>1347.2</ele>
        <time>2018-07-22T11:06:17.000Z</time>
      </trkpt>
      <trkpt lat="42.318023" lon="-0.48678">
        <ele>1347.5</ele>
        <time>2018-07-22T11:06:18.000Z</time>
      </trkpt>
      <trkpt lat="42.318019" lon="-0.486768">
        <ele>1347.8</ele>
        <time>2018-07-22T11:06:19.000Z</time>
      </trkpt>
      <trkpt lat="42.318014" lon="-0.486758">
        <ele>1348.1</ele>
        <time>2018-07-22T11:06:20.000Z</time>
      </trkpt>
      <trkpt lat="42.318009" lon="-0.486749">
        <ele>1348.5</ele>
        <time>2018-07-22T11:06:21.000Z</time>
      </trkpt>
      <trkpt lat="42.318007" lon="-0.486738">
        <ele>1348.7</ele>
        <time>2018-07-22T11:06:22.000Z</time>
      </trkpt>
      <trkpt lat="42.318008" lon="-0.486725">
        <ele>1348.7</ele>
        <time>2018-07-22T11:06:23.000Z</time>
      </trkpt>
      <trkpt lat="42.31801" lon="-0.486712">
        <ele>1348.7</ele>
        <time>2018-07-22T11:06:24.000Z</time>
      </trkpt>
      <trkpt lat="42.318011" lon="-0.4867">
        <ele>1348.7</ele>
        <time>2018-07-22T11:06:25.000Z</time>
      </trkpt>
      <trkpt lat="42.318009" lon="-0.486691">
        <ele>1348.9</ele>
        <time>2018-07-22T11:06:26.000Z</time>
      </trkpt>
      <trkpt lat="42.318005" lon="-0.486684">
        <ele>1349.2</ele>
        <time>2018-07-22T11:06:27.000Z</time>
      </trkpt>
      <trkpt lat="42.317999" lon="-0.486678">
        <ele>1349.6</ele>
        <time>2018-07-22T11:06:28.000Z</time>
      </trkpt>
      <trkpt lat="42.317992" lon="-0.486672">
        <ele>1350.1</ele>
        <time>2018-07-22T11:06:29.000Z</time>
      </trkpt>
      <trkpt lat="42.317987" lon="-0.486665">
        <ele>1350.4</ele>
        <time>2018-07-22T11:06:30.000Z</time>
      </trkpt>
      <trkpt lat="42.317983" lon="-0.486655">
        <ele>1350.6</ele>
        <time>2018-07-22T11:06:31.000Z</time>
      </trkpt>
      <trkpt lat="42.31798" lon="-0.486645">
        <ele>1350.6</ele>
        <time>2018-07-22T11:06:32.000Z</time>
      </trkpt>
      <trkpt lat="42.317978" lon="-0.486634">
        <ele>1350.6</ele>
        <time>2018-07-22T11:06:33.000Z</time>
      </trkpt>
      <trkpt lat="42.317977" lon="-0.486624">
        <ele>1350.5</ele>
        <time>2018-07-22T11:06:34.000Z</time>
      </trkpt>
      <trkpt lat="42.317976" lon="-0.486615">
        <ele>1350.5</ele>
        <time>2018-07-22T11:06:35.000Z</time>
      </trkpt>
      <trkpt lat="42.317975" lon="-0.486609">
        <ele>1350.5</ele>
        <time>2018-07-22T11:06:36.000Z</time>
      </trkpt>
      <trkpt lat="42.317974" lon="-0.486605">
        <ele>1350.5</ele>
        <time>2018-07-22T11:06:37.000Z</time>
      </trkpt>
      <trkpt lat="42.317969" lon="-0.486596">
        <ele>1350.7</ele>
        <time>2018-07-22T11:06:38.000Z</time>
      </trkpt>
      <trkpt lat="42.317963" lon="-0.486577">
        <ele>1350.9</ele>
        <time>2018-07-22T11:06:39.000Z</time>
      </trkpt>
      <trkpt lat="42.317958" lon="-0.486565">
        <ele>1351.1</ele>
        <time>2018-07-22T11:06:40.000Z</time>
      </trkpt>
      <trkpt lat="42.317956" lon="-0.486557">
        <ele>1351.1</ele>
        <time>2018-07-22T11:06:41.000Z</time>
      </trkpt>
      <trkpt lat="42.317955" lon="-0.486548">
        <ele>1351.0</ele>
        <time>2018-07-22T11:06:42.000Z</time>
      </trkpt>
      <trkpt lat="42.317954" lon="-0.486539">
        <ele>1351.0</ele>
        <time>2018-07-22T11:06:43.000Z</time>
      </trkpt>
      <trkpt lat="42.317953" lon="-0.486528">
        <ele>1350.9</ele>
        <time>2018-07-22T11:06:44.000Z</time>
      </trkpt>
      <trkpt lat="42.317953" lon="-0.486516">
        <ele>1350.8</ele>
        <time>2018-07-22T11:06:45.000Z</time>
      </trkpt>
      <trkpt lat="42.317954" lon="-0.486503">
        <ele>1350.5</ele>
        <time>2018-07-22T11:06:46.000Z</time>
      </trkpt>
      <trkpt lat="42.317955" lon="-0.48649">
        <ele>1350.3</ele>
        <time>2018-07-22T11:06:47.000Z</time>
      </trkpt>
      <trkpt lat="42.317957" lon="-0.486477">
        <ele>1350.0</ele>
        <time>2018-07-22T11:06:48.000Z</time>
      </trkpt>
      <trkpt lat="42.31796" lon="-0.486465">
        <ele>1349.7</ele>
        <time>2018-07-22T11:06:49.000Z</time>
      </trkpt>
      <trkpt lat="42.317964" lon="-0.486452">
        <ele>1349.2</ele>
        <time>2018-07-22T11:06:50.000Z</time>
      </trkpt>
      <trkpt lat="42.317968" lon="-0.48644">
        <ele>1348.8</ele>
        <time>2018-07-22T11:06:51.000Z</time>
      </trkpt>
      <trkpt lat="42.317974" lon="-0.486429">
        <ele>1348.3</ele>
        <time>2018-07-22T11:06:52.000Z</time>
      </trkpt>
      <trkpt lat="42.317981" lon="-0.486419">
        <ele>1347.7</ele>
        <time>2018-07-22T11:06:53.000Z</time>
      </trkpt>
      <trkpt lat="42.317988" lon="-0.486411">
        <ele>1347.1</ele>
        <time>2018-07-22T11:06:54.000Z</time>
      </trkpt>
      <trkpt lat="42.317996" lon="-0.486402">
        <ele>1346.4</ele>
        <time>2018-07-22T11:06:55.000Z</time>
      </trkpt>
      <trkpt lat="42.318004" lon="-0.486395">
        <ele>1345.8</ele>
        <time>2018-07-22T11:06:56.000Z</time>
      </trkpt>
      <trkpt lat="42.318012" lon="-0.486387">
        <ele>1345.2</ele>
        <time>2018-07-22T11:06:57.000Z</time>
      </trkpt>
      <trkpt lat="42.318019" lon="-0.48638">
        <ele>1344.6</ele>
        <time>2018-07-22T11:06:58.000Z</time>
      </trkpt>
      <trkpt lat="42.318026" lon="-0.486373">
        <ele>1344.0</ele>
        <time>2018-07-22T11:06:59.000Z</time>
      </trkpt>
      <trkpt lat="42.318031" lon="-0.486365">
        <ele>1343.6</ele>
        <time>2018-07-22T11:07:00.000Z</time>
      </trkpt>
      <trkpt lat="42.318036" lon="-0.486358">
        <ele>1343.1</ele>
        <time>2018-07-22T11:07:01.000Z</time>
      </trkpt>
      <trkpt lat="42.318041" lon="-0.48635">
        <ele>1342.7</ele>
        <time>2018-07-22T11:07:02.000Z</time>
      </trkpt>
      <trkpt lat="42.318046" lon="-0.486342">
        <ele>1342.2</ele>
        <time>2018-07-22T11:07:03.000Z</time>
      </trkpt>
      <trkpt lat="42.31805" lon="-0.486334">
        <ele>1341.9</ele>
        <time>2018-07-22T11:07:04.000Z</time>
      </trkpt>
      <trkpt lat="42.318055" lon="-0.486326">
        <ele>1341.4</ele>
        <time>2018-07-22T11:07:05.000Z</time>
      </trkpt>
      <trkpt lat="42.318059" lon="-0.486317">
        <ele>1341.0</ele>
        <time>2018-07-22T11:07:06.000Z</time>
      </trkpt>
      <trkpt lat="42.318063" lon="-0.486309">
        <ele>1340.6</ele>
        <time>2018-07-22T11:07:07.000Z</time>
      </trkpt>
      <trkpt lat="42.318066" lon="-0.4863">
        <ele>1340.3</ele>
        <time>2018-07-22T11:07:08.000Z</time>
      </trkpt>
      <trkpt lat="42.31807" lon="-0.48629">
        <ele>1339.9</ele>
        <time>2018-07-22T11:07:09.000Z</time>
      </trkpt>
      <trkpt lat="42.318072" lon="-0.48628">
        <ele>1339.6</ele>
        <time>2018-07-22T11:07:10.000Z</time>
      </trkpt>
      <trkpt lat="42.318074" lon="-0.48627">
        <ele>1339.3</ele>
        <time>2018-07-22T11:07:11.000Z</time>
      </trkpt>
      <trkpt lat="42.318076" lon="-0.486259">
        <ele>1339.0</ele>
        <time>2018-07-22T11:07:12.000Z</time>
      </trkpt>
      <trkpt lat="42.318076" lon="-0.486248">
        <ele>1338.9</ele>
        <time>2018-07-22T11:07:13.000Z</time>
      </trkpt>
      <trkpt lat="42.318076" lon="-0.486236">
        <ele>1338.7</ele>
        <time>2018-07-22T11:07:14.000Z</time>
      </trkpt>
      <trkpt lat="42.318075" lon="-0.486223">
        <ele>1338.6</ele>
        <time>2018-07-22T11:07:15.000Z</time>
      </trkpt>
      <trkpt lat="42.318073" lon="-0.48621">
        <ele>1338.6</ele>
        <time>2018-07-22T11:07:16.000Z</time>
      </trkpt>
      <trkpt lat="42.318071" lon="-0.486197">
        <ele>1338.5</ele>
        <time>2018-07-22T11:07:17.000Z</time>
      </trkpt>
      <trkpt lat="42.318068" lon="-0.486183">
        <ele>1338.5</ele>
        <time>2018-07-22T11:07:18.000Z</time>
      </trkpt>
      <trkpt lat="42.318065" lon="-0.486169">
        <ele>1338.6</ele>
        <time>2018-07-22T11:07:19.000Z</time>
      </trkpt>
      <trkpt lat="42.318063" lon="-0.486155">
        <ele>1338.5</ele>
        <time>2018-07-22T11:07:20.000Z</time>
      </trkpt>
      <trkpt lat="42.31806" lon="-0.48614">
        <ele>1338.5</ele>
        <time>2018-07-22T11:07:21.000Z</time>
      </trkpt>
      <trkpt lat="42.318058" lon="-0.486126">
        <ele>1338.5</ele>
        <time>2018-07-22T11:07:22.000Z</time>
      </trkpt>
      <trkpt lat="42.318056" lon="-0.486111">
        <ele>1338.4</ele>
        <time>2018-07-22T11:07:23.000Z</time>
      </trkpt>
      <trkpt lat="42.318055" lon="-0.486096">
        <ele>1338.3</ele>
        <time>2018-07-22T11:07:24.000Z</time>
      </trkpt>
      <trkpt lat="42.318054" lon="-0.486082">
        <ele>1338.2</ele>
        <time>2018-07-22T11:07:25.000Z</time>
      </trkpt>
      <trkpt lat="42.318054" lon="-0.486067">
        <ele>1338.0</ele>
        <time>2018-07-22T11:07:26.000Z</time>
      </trkpt>
      <trkpt lat="42.318054" lon="-0.486053">
        <ele>1337.8</ele>
        <time>2018-07-22T11:07:27.000Z</time>
      </trkpt>
      <trkpt lat="42.318054" lon="-0.486039">
        <ele>1337.6</ele>
        <time>2018-07-22T11:07:28.000Z</time>
      </trkpt>
      <trkpt lat="42.318053" lon="-0.486024">
        <ele>1337.4</ele>
        <time>2018-07-22T11:07:29.000Z</time>
      </trkpt>
      <trkpt lat="42.318051" lon="-0.48601">
        <ele>1337.4</ele>
        <time>2018-07-22T11:07:30.000Z</time>
      </trkpt>
      <trkpt lat="42.318047" lon="-0.485997">
        <ele>1337.5</ele>
        <time>2018-07-22T11:07:31.000Z</time>
      </trkpt>
      <trkpt lat="42.318043" lon="-0.485984">
        <ele>1337.6</ele>
        <time>2018-07-22T11:07:32.000Z</time>
      </trkpt>
      <trkpt lat="42.318039" lon="-0.485972">
        <ele>1337.8</ele>
        <time>2018-07-22T11:07:33.000Z</time>
      </trkpt>
      <trkpt lat="42.318035" lon="-0.485962">
        <ele>1337.9</ele>
        <time>2018-07-22T11:07:34.000Z</time>
      </trkpt>
      <trkpt lat="42.318032" lon="-0.485955">
        <ele>1338.0</ele>
        <time>2018-07-22T11:07:35.000Z</time>
      </trkpt>
      <trkpt lat="42.31803" lon="-0.485951">
        <ele>1338.1</ele>
        <time>2018-07-22T11:07:36.000Z</time>
      </trkpt>
      <trkpt lat="42.318029" lon="-0.485949">
        <ele>1338.2</ele>
        <time>2018-07-22T11:07:37.000Z</time>
      </trkpt>
      <trkpt lat="42.318028" lon="-0.485948">
        <ele>1338.2</ele>
        <time>2018-07-22T11:09:53.000Z</time>
      </trkpt>
      <trkpt lat="42.318027" lon="-0.485948">
        <ele>1338.3</ele>
        <time>2018-07-22T11:09:54.000Z</time>
      </trkpt>
      <trkpt lat="42.318026" lon="-0.485948">
        <ele>1338.4</ele>
        <time>2018-07-22T11:09:55.000Z</time>
      </trkpt>
      <trkpt lat="42.318023" lon="-0.485946">
        <ele>1338.6</ele>
        <time>2018-07-22T11:09:56.000Z</time>
      </trkpt>
      <trkpt lat="42.31802" lon="-0.485943">
        <ele>1338.8</ele>
        <time>2018-07-22T11:09:57.000Z</time>
      </trkpt>
      <trkpt lat="42.318014" lon="-0.485939">
        <ele>1339.1</ele>
        <time>2018-07-22T11:09:58.000Z</time>
      </trkpt>
      <trkpt lat="42.318007" lon="-0.485934">
        <ele>1339.6</ele>
        <time>2018-07-22T11:09:59.000Z</time>
      </trkpt>
      <trkpt lat="42.317998" lon="-0.48593">
        <ele>1340.2</ele>
        <time>2018-07-22T11:10:00.000Z</time>
      </trkpt>
      <trkpt lat="42.317988" lon="-0.485926">
        <ele>1340.9</ele>
        <time>2018-07-22T11:10:01.000Z</time>
      </trkpt>
      <trkpt lat="42.317976" lon="-0.485925">
        <ele>1341.7</ele>
        <time>2018-07-22T11:10:02.000Z</time>
      </trkpt>
      <trkpt lat="42.317963" lon="-0.485924">
        <ele>1342.7</ele>
        <time>2018-07-22T11:10:03.000Z</time>
      </trkpt>
      <trkpt lat="42.317949" lon="-0.485923">
        <ele>1343.7</ele>
        <time>2018-07-22T11:10:04.000Z</time>
      </trkpt>
      <trkpt lat="42.317937" lon="-0.485922">
        <ele>1344.6</ele>
        <time>2018-07-22T11:10:05.000Z</time>
      </trkpt>
      <trkpt lat="42.317926" lon="-0.485919">
        <ele>1345.3</ele>
        <time>2018-07-22T11:10:06.000Z</time>
      </trkpt>
      <trkpt lat="42.317917" lon="-0.485914">
        <ele>1345.9</ele>
        <time>2018-07-22T11:10:07.000Z</time>
      </trkpt>
      <trkpt lat="42.317909" lon="-0.485907">
        <ele>1346.4</ele>
        <time>2018-07-22T11:10:08.000Z</time>
      </trkpt>
      <trkpt lat="42.317903" lon="-0.485899">
        <ele>1346.8</ele>
        <time>2018-07-22T11:10:09.000Z</time>
      </trkpt>
      <trkpt lat="42.317896" lon="-0.485892">
        <ele>1347.2</ele>
        <time>2018-07-22T11:10:10.000Z</time>
      </trkpt>
      <trkpt lat="42.317889" lon="-0.485885">
        <ele>1347.7</ele>
        <time>2018-07-22T11:10:11.000Z</time>
      </trkpt>
      <trkpt lat="42.317881" lon="-0.485879">
        <ele>1348.2</ele>
        <time>2018-07-22T11:10:12.000Z</time>
      </trkpt>
      <trkpt lat="42.317872" lon="-0.485875">
        <ele>1348.8</ele>
        <time>2018-07-22T11:10:13.000Z</time>
      </trkpt>
      <trkpt lat="42.317862" lon="-0.485872">
        <ele>1349.5</ele>
        <time>2018-07-22T11:10:14.000Z</time>
      </trkpt>
      <trkpt lat="42.317853" lon="-0.48587">
        <ele>1350.1</ele>
        <time>2018-07-22T11:10:15.000Z</time>
      </trkpt>
      <trkpt lat="42.317844" lon="-0.485867">
        <ele>1350.8</ele>
        <time>2018-07-22T11:10:16.000Z</time>
      </trkpt>
      <trkpt lat="42.317836" lon="-0.485865">
        <ele>1351.4</ele>
        <time>2018-07-22T11:10:17.000Z</time>
      </trkpt>
      <trkpt lat="42.31783" lon="-0.485862">
        <ele>1351.8</ele>
        <time>2018-07-22T11:10:18.000Z</time>
      </trkpt>
      <trkpt lat="42.317825" lon="-0.48586">
        <ele>1352.1</ele>
        <time>2018-07-22T11:10:19.000Z</time>
      </trkpt>
      <trkpt lat="42.317821" lon="-0.485857">
        <ele>1352.4</ele>
        <time>2018-07-22T11:10:20.000Z</time>
      </trkpt>
      <trkpt lat="42.317817" lon="-0.485855">
        <ele>1352.7</ele>
        <time>2018-07-22T11:10:21.000Z</time>
      </trkpt>
      <trkpt lat="42.317815" lon="-0.485853">
        <ele>1352.8</ele>
        <time>2018-07-22T11:10:22.000Z</time>
      </trkpt>
      <trkpt lat="42.317813" lon="-0.485853">
        <ele>1352.9</ele>
        <time>2018-07-22T11:10:23.000Z</time>
      </trkpt>
      <trkpt lat="42.317811" lon="-0.485852">
        <ele>1353.1</ele>
        <time>2018-07-22T11:10:24.000Z</time>
      </trkpt>
      <trkpt lat="42.31781" lon="-0.485851">
        <ele>1353.1</ele>
        <time>2018-07-22T11:10:25.000Z</time>
      </trkpt>
      <trkpt lat="42.317809" lon="-0.485848">
        <ele>1353.2</ele>
        <time>2018-07-22T11:10:26.000Z</time>
      </trkpt>
      <trkpt lat="42.317805" lon="-0.485844">
        <ele>1353.4</ele>
        <time>2018-07-22T11:10:27.000Z</time>
      </trkpt>
      <trkpt lat="42.317797" lon="-0.485838">
        <ele>1354.0</ele>
        <time>2018-07-22T11:10:28.000Z</time>
      </trkpt>
      <trkpt lat="42.31779" lon="-0.48583">
        <ele>1354.3</ele>
        <time>2018-07-22T11:10:29.000Z</time>
      </trkpt>
      <trkpt lat="42.317784" lon="-0.48582">
        <ele>1354.2</ele>
        <time>2018-07-22T11:10:30.000Z</time>
      </trkpt>
      <trkpt lat="42.317778" lon="-0.485809">
        <ele>1354.1</ele>
        <time>2018-07-22T11:10:31.000Z</time>
      </trkpt>
      <trkpt lat="42.317774" lon="-0.485798">
        <ele>1353.9</ele>
        <time>2018-07-22T11:10:32.000Z</time>
      </trkpt>
      <trkpt lat="42.317771" lon="-0.485787">
        <ele>1353.6</ele>
        <time>2018-07-22T11:10:33.000Z</time>
      </trkpt>
      <trkpt lat="42.317767" lon="-0.485776">
        <ele>1353.3</ele>
        <time>2018-07-22T11:10:34.000Z</time>
      </trkpt>
      <trkpt lat="42.317765" lon="-0.485766">
        <ele>1353.0</ele>
        <time>2018-07-22T11:10:35.000Z</time>
      </trkpt>
      <trkpt lat="42.317762" lon="-0.485756">
        <ele>1352.7</ele>
        <time>2018-07-22T11:10:36.000Z</time>
      </trkpt>
      <trkpt lat="42.31776" lon="-0.485748">
        <ele>1352.4</ele>
        <time>2018-07-22T11:10:37.000Z</time>
      </trkpt>
      <trkpt lat="42.317758" lon="-0.48574">
        <ele>1352.2</ele>
        <time>2018-07-22T11:10:38.000Z</time>
      </trkpt>
      <trkpt lat="42.317756" lon="-0.485734">
        <ele>1352.0</ele>
        <time>2018-07-22T11:10:39.000Z</time>
      </trkpt>
      <trkpt lat="42.317755" lon="-0.485729">
        <ele>1351.9</ele>
        <time>2018-07-22T11:10:40.000Z</time>
      </trkpt>
      <trkpt lat="42.317754" lon="-0.485724">
        <ele>1351.7</ele>
        <time>2018-07-22T11:10:41.000Z</time>
      </trkpt>
      <trkpt lat="42.317753" lon="-0.485721">
        <ele>1351.6</ele>
        <time>2018-07-22T11:10:42.000Z</time>
      </trkpt>
      <trkpt lat="42.317753" lon="-0.485717">
        <ele>1351.4</ele>
        <time>2018-07-22T11:10:43.000Z</time>
      </trkpt>
      <trkpt lat="42.317752" lon="-0.485713">
        <ele>1351.3</ele>
        <time>2018-07-22T11:10:44.000Z</time>
      </trkpt>
      <trkpt lat="42.317751" lon="-0.485709">
        <ele>1351.2</ele>
        <time>2018-07-22T11:10:45.000Z</time>
      </trkpt>
      <trkpt lat="42.31775" lon="-0.485704">
        <ele>1351.0</ele>
        <time>2018-07-22T11:10:46.000Z</time>
      </trkpt>
      <trkpt lat="42.317749" lon="-0.485696">
        <ele>1350.7</ele>
        <time>2018-07-22T11:10:47.000Z</time>
      </trkpt>
      <trkpt lat="42.317747" lon="-0.485687">
        <ele>1350.4</ele>
        <time>2018-07-22T11:10:48.000Z</time>
      </trkpt>
      <trkpt lat="42.317745" lon="-0.485677">
        <ele>1350.0</ele>
        <time>2018-07-22T11:10:49.000Z</time>
      </trkpt>
      <trkpt lat="42.317744" lon="-0.485669">
        <ele>1349.7</ele>
        <time>2018-07-22T11:10:50.000Z</time>
      </trkpt>
      <trkpt lat="42.317743" lon="-0.485663">
        <ele>1349.5</ele>
        <time>2018-07-22T11:10:51.000Z</time>
      </trkpt>
      <trkpt lat="42.317742" lon="-0.485658">
        <ele>1349.3</ele>
        <time>2018-07-22T11:10:52.000Z</time>
      </trkpt>
      <trkpt lat="42.317742" lon="-0.485655">
        <ele>1349.2</ele>
        <time>2018-07-22T11:10:53.000Z</time>
      </trkpt>
      <trkpt lat="42.317741" lon="-0.485652">
        <ele>1349.1</ele>
        <time>2018-07-22T11:10:54.000Z</time>
      </trkpt>
      <trkpt lat="42.317741" lon="-0.48565">
        <ele>1349.0</ele>
        <time>2018-07-22T11:10:55.000Z</time>
      </trkpt>
      <trkpt lat="42.317741" lon="-0.485648">
        <ele>1348.9</ele>
        <time>2018-07-22T11:10:56.000Z</time>
      </trkpt>
      <trkpt lat="42.31774" lon="-0.485646">
        <ele>1348.9</ele>
        <time>2018-07-22T11:10:57.000Z</time>
      </trkpt>
      <trkpt lat="42.31774" lon="-0.485645">
        <ele>1348.8</ele>
        <time>2018-07-22T11:10:58.000Z</time>
      </trkpt>
      <trkpt lat="42.31774" lon="-0.485643">
        <ele>1348.7</ele>
        <time>2018-07-22T11:10:59.000Z</time>
      </trkpt>
      <trkpt lat="42.31774" lon="-0.485642">
        <ele>1348.7</ele>
        <time>2018-07-22T11:11:00.000Z</time>
      </trkpt>
      <trkpt lat="42.317739" lon="-0.485641">
        <ele>1348.7</ele>
        <time>2018-07-22T11:11:01.000Z</time>
      </trkpt>
      <trkpt lat="42.317739" lon="-0.485641">
        <ele>1348.7</ele>
        <time>2018-07-22T11:11:02.000Z</time>
      </trkpt>
      <trkpt lat="42.317739" lon="-0.48564">
        <ele>1348.6</ele>
        <time>2018-07-22T11:11:03.000Z</time>
      </trkpt>
      <trkpt lat="42.317739" lon="-0.48564">
        <ele>1348.6</ele>
        <time>2018-07-22T11:11:04.000Z</time>
      </trkpt>
      <trkpt lat="42.317739" lon="-0.485639">
        <ele>1348.6</ele>
        <time>2018-07-22T11:11:05.000Z</time>
      </trkpt>
      <trkpt lat="42.317739" lon="-0.485639">
        <ele>1348.6</ele>
        <time>2018-07-22T11:11:06.000Z</time>
      </trkpt>
      <trkpt lat="42.317739" lon="-0.485639">
        <ele>1348.6</ele>
        <time>2018-07-22T11:11:07.000Z</time>
      </trkpt>
      <trkpt lat="42.317739" lon="-0.485639">
        <ele>1348.6</ele>
        <time>2018-07-22T11:11:08.000Z</time>
      </trkpt>
      <trkpt lat="42.317739" lon="-0.485639">
        <ele>1348.6</ele>
        <time>2018-07-22T11:11:09.000Z</time>
      </trkpt>
      <trkpt lat="42.317739" lon="-0.485639">
        <ele>1348.6</ele>
        <time>2018-07-22T11:11:10.000Z</time>
      </trkpt>
      <trkpt lat="42.317739" lon="-0.485639">
        <ele>1348.6</ele>
        <time>2018-07-22T11:11:11.000Z</time>
      </trkpt>
      <trkpt lat="42.317739" lon="-0.485639">
        <ele>1348.6</ele>
        <time>2018-07-22T11:11:12.000Z</time>
      </trkpt>
      <trkpt lat="42.31774" lon="-0.485639">
        <ele>1348.5</ele>
        <time>2018-07-22T11:11:13.000Z</time>
      </trkpt>
      <trkpt lat="42.31774" lon="-0.485639">
        <ele>1348.5</ele>
        <time>2018-07-22T11:11:14.000Z</time>
      </trkpt>
      <trkpt lat="42.31774" lon="-0.485639">
        <ele>1348.5</ele>
        <time>2018-07-22T11:11:15.000Z</time>
      </trkpt>
      <trkpt lat="42.31774" lon="-0.485639">
        <ele>1348.5</ele>
        <time>2018-07-22T11:11:16.000Z</time>
      </trkpt>
      <trkpt lat="42.31774" lon="-0.485639">
        <ele>1348.5</ele>
        <time>2018-07-22T11:11:17.000Z</time>
      </trkpt>
      <trkpt lat="42.31774" lon="-0.485639">
        <ele>1348.5</ele>
        <time>2018-07-22T11:11:18.000Z</time>
      </trkpt>
      <trkpt lat="42.31774" lon="-0.485638">
        <ele>1348.5</ele>
        <time>2018-07-22T11:11:19.000Z</time>
      </trkpt>
      <trkpt lat="42.317741" lon="-0.485638">
        <ele>1348.4</ele>
        <time>2018-07-22T11:11:20.000Z</time>
      </trkpt>
      <trkpt lat="42.317741" lon="-0.485636">
        <ele>1348.3</ele>
        <time>2018-07-22T11:11:21.000Z</time>
      </trkpt>
      <trkpt lat="42.317742" lon="-0.485635">
        <ele>1348.2</ele>
        <time>2018-07-22T11:11:22.000Z</time>
      </trkpt>
      <trkpt lat="42.317744" lon="-0.485633">
        <ele>1347.9</ele>
        <time>2018-07-22T11:11:23.000Z</time>
      </trkpt>
      <trkpt lat="42.317749" lon="-0.485627">
        <ele>1347.3</ele>
        <time>2018-07-22T11:11:24.000Z</time>
      </trkpt>
      <trkpt lat="42.317758" lon="-0.485617">
        <ele>1346.1</ele>
        <time>2018-07-22T11:11:25.000Z</time>
      </trkpt>
      <trkpt lat="42.317764" lon="-0.485606">
        <ele>1345.1</ele>
        <time>2018-07-22T11:11:26.000Z</time>
      </trkpt>
      <trkpt lat="42.317768" lon="-0.485597">
        <ele>1344.4</ele>
        <time>2018-07-22T11:11:27.000Z</time>
      </trkpt>
      <trkpt lat="42.317771" lon="-0.48559">
        <ele>1343.9</ele>
        <time>2018-07-22T11:11:28.000Z</time>
      </trkpt>
      <trkpt lat="42.317773" lon="-0.485585">
        <ele>1343.5</ele>
        <time>2018-07-22T11:11:29.000Z</time>
      </trkpt>
      <trkpt lat="42.317774" lon="-0.485581">
        <ele>1343.2</ele>
        <time>2018-07-22T11:11:30.000Z</time>
      </trkpt>
      <trkpt lat="42.317775" lon="-0.485579">
        <ele>1343.0</ele>
        <time>2018-07-22T11:11:31.000Z</time>
      </trkpt>
      <trkpt lat="42.317776" lon="-0.485576">
        <ele>1342.8</ele>
        <time>2018-07-22T11:11:32.000Z</time>
      </trkpt>
      <trkpt lat="42.317776" lon="-0.485574">
        <ele>1342.7</ele>
        <time>2018-07-22T11:11:33.000Z</time>
      </trkpt>
      <trkpt lat="42.317777" lon="-0.485571">
        <ele>1342.5</ele>
        <time>2018-07-22T11:11:34.000Z</time>
      </trkpt>
      <trkpt lat="42.317777" lon="-0.485567">
        <ele>1342.3</ele>
        <time>2018-07-22T11:11:35.000Z</time>
      </trkpt>
      <trkpt lat="42.317778" lon="-0.485564">
        <ele>1342.1</ele>
        <time>2018-07-22T11:11:36.000Z</time>
      </trkpt>
      <trkpt lat="42.317778" lon="-0.485561">
        <ele>1341.9</ele>
        <time>2018-07-22T11:11:37.000Z</time>
      </trkpt>
      <trkpt lat="42.317779" lon="-0.485559">
        <ele>1341.7</ele>
        <time>2018-07-22T11:11:38.000Z</time>
      </trkpt>
      <trkpt lat="42.31778" lon="-0.485552">
        <ele>1341.3</ele>
        <time>2018-07-22T11:11:39.000Z</time>
      </trkpt>
      <trkpt lat="42.317782" lon="-0.485544">
        <ele>1340.8</ele>
        <time>2018-07-22T11:11:40.000Z</time>
      </trkpt>
      <trkpt lat="42.317785" lon="-0.485538">
        <ele>1340.3</ele>
        <time>2018-07-22T11:11:41.000Z</time>
      </trkpt>
      <trkpt lat="42.31779" lon="-0.485532">
        <ele>1339.6</ele>
        <time>2018-07-22T11:11:42.000Z</time>
      </trkpt>
      <trkpt lat="42.317796" lon="-0.485524">
        <ele>1338.8</ele>
        <time>2018-07-22T11:11:43.000Z</time>
      </trkpt>
      <trkpt lat="42.317801" lon="-0.485515">
        <ele>1338.0</ele>
        <time>2018-07-22T11:11:44.000Z</time>
      </trkpt>
      <trkpt lat="42.317805" lon="-0.485504">
        <ele>1337.2</ele>
        <time>2018-07-22T11:11:45.000Z</time>
      </trkpt>
      <trkpt lat="42.317808" lon="-0.485493">
        <ele>1336.4</ele>
        <time>2018-07-22T11:11:46.000Z</time>
      </trkpt>
      <trkpt lat="42.317809" lon="-0.485481">
        <ele>1335.8</ele>
        <time>2018-07-22T11:11:47.000Z</time>
      </trkpt>
      <trkpt lat="42.317809" lon="-0.485469">
        <ele>1335.2</ele>
        <time>2018-07-22T11:11:48.000Z</time>
      </trkpt>
      <trkpt lat="42.317807" lon="-0.485456">
        <ele>1334.7</ele>
        <time>2018-07-22T11:11:49.000Z</time>
      </trkpt>
      <trkpt lat="42.317803" lon="-0.485444">
        <ele>1334.4</ele>
        <time>2018-07-22T11:11:50.000Z</time>
      </trkpt>
      <trkpt lat="42.317799" lon="-0.485431">
        <ele>1334.0</ele>
        <time>2018-07-22T11:11:51.000Z</time>
      </trkpt>
      <trkpt lat="42.317793" lon="-0.485419">
        <ele>1333.9</ele>
        <time>2018-07-22T11:11:52.000Z</time>
      </trkpt>
      <trkpt lat="42.317786" lon="-0.485408">
        <ele>1333.8</ele>
        <time>2018-07-22T11:11:53.000Z</time>
      </trkpt>
      <trkpt lat="42.317779" lon="-0.485396">
        <ele>1333.7</ele>
        <time>2018-07-22T11:11:54.000Z</time>
      </trkpt>
      <trkpt lat="42.317771" lon="-0.485386">
        <ele>1333.8</ele>
        <time>2018-07-22T11:11:55.000Z</time>
      </trkpt>
      <trkpt lat="42.317763" lon="-0.485376">
        <ele>1333.9</ele>
        <time>2018-07-22T11:11:56.000Z</time>
      </trkpt>
      <trkpt lat="42.317755" lon="-0.485366">
        <ele>1333.9</ele>
        <time>2018-07-22T11:11:57.000Z</time>
      </trkpt>
      <trkpt lat="42.317748" lon="-0.485358">
        <ele>1334.0</ele>
        <time>2018-07-22T11:11:58.000Z</time>
      </trkpt>
      <trkpt lat="42.317741" lon="-0.48535">
        <ele>1334.1</ele>
        <time>2018-07-22T11:11:59.000Z</time>
      </trkpt>
      <trkpt lat="42.317735" lon="-0.485344">
        <ele>1334.3</ele>
        <time>2018-07-22T11:12:00.000Z</time>
      </trkpt>
      <trkpt lat="42.31773" lon="-0.485338">
        <ele>1334.3</ele>
        <time>2018-07-22T11:12:01.000Z</time>
      </trkpt>
      <trkpt lat="42.317726" lon="-0.485334">
        <ele>1334.4</ele>
        <time>2018-07-22T11:12:02.000Z</time>
      </trkpt>
      <trkpt lat="42.317722" lon="-0.485331">
        <ele>1334.5</ele>
        <time>2018-07-22T11:12:03.000Z</time>
      </trkpt>
      <trkpt lat="42.31772" lon="-0.485328">
        <ele>1334.5</ele>
        <time>2018-07-22T11:12:04.000Z</time>
      </trkpt>
      <trkpt lat="42.317718" lon="-0.485326">
        <ele>1334.6</ele>
        <time>2018-07-22T11:12:05.000Z</time>
      </trkpt>
      <trkpt lat="42.317716" lon="-0.485325">
        <ele>1334.6</ele>
        <time>2018-07-22T11:12:06.000Z</time>
      </trkpt>
      <trkpt lat="42.317715" lon="-0.485324">
        <ele>1334.7</ele>
        <time>2018-07-22T11:12:07.000Z</time>
      </trkpt>
      <trkpt lat="42.317715" lon="-0.485324">
        <ele>1334.7</ele>
        <time>2018-07-22T11:12:08.000Z</time>
      </trkpt>
      <trkpt lat="42.317714" lon="-0.485324">
        <ele>1334.7</ele>
        <time>2018-07-22T11:12:09.000Z</time>
      </trkpt>
      <trkpt lat="42.317714" lon="-0.485324">
        <ele>1334.7</ele>
        <time>2018-07-22T11:12:10.000Z</time>
      </trkpt>
      <trkpt lat="42.317714" lon="-0.485324">
        <ele>1334.7</ele>
        <time>2018-07-22T11:12:11.000Z</time>
      </trkpt>
      <trkpt lat="42.317714" lon="-0.485324">
        <ele>1334.7</ele>
        <time>2018-07-22T11:12:12.000Z</time>
      </trkpt>
      <trkpt lat="42.317714" lon="-0.485324">
        <ele>1334.7</ele>
        <time>2018-07-22T11:12:13.000Z</time>
      </trkpt>
      <trkpt lat="42.317714" lon="-0.485324">
        <ele>1334.7</ele>
        <time>2018-07-22T11:12:14.000Z</time>
      </trkpt>
      <trkpt lat="42.317714" lon="-0.485324">
        <ele>1334.7</ele>
        <time>2018-07-22T11:12:15.000Z</time>
      </trkpt>
      <trkpt lat="42.317714" lon="-0.485325">
        <ele>1334.8</ele>
        <time>2018-07-22T11:12:16.000Z</time>
      </trkpt>
      <trkpt lat="42.317714" lon="-0.485325">
        <ele>1334.8</ele>
        <time>2018-07-22T11:12:17.000Z</time>
      </trkpt>
      <trkpt lat="42.317714" lon="-0.485325">
        <ele>1334.8</ele>
        <time>2018-07-22T11:12:18.000Z</time>
      </trkpt>
      <trkpt lat="42.317714" lon="-0.485325">
        <ele>1334.8</ele>
        <time>2018-07-22T11:12:19.000Z</time>
      </trkpt>
      <trkpt lat="42.317714" lon="-0.485325">
        <ele>1334.8</ele>
        <time>2018-07-22T11:12:20.000Z</time>
      </trkpt>
      <trkpt lat="42.317714" lon="-0.485325">
        <ele>1334.8</ele>
        <time>2018-07-22T11:12:21.000Z</time>
      </trkpt>
      <trkpt lat="42.317714" lon="-0.485325">
        <ele>1334.8</ele>
        <time>2018-07-22T11:12:22.000Z</time>
      </trkpt>
      <trkpt lat="42.317714" lon="-0.485325">
        <ele>1334.8</ele>
        <time>2018-07-22T11:12:23.000Z</time>
      </trkpt>
      <trkpt lat="42.317714" lon="-0.485325">
        <ele>1334.8</ele>
        <time>2018-07-22T11:12:24.000Z</time>
      </trkpt>
      <trkpt lat="42.317714" lon="-0.485325">
        <ele>1334.8</ele>
        <time>2018-07-22T11:12:25.000Z</time>
      </trkpt>
      <trkpt lat="42.317714" lon="-0.485325">
        <ele>1334.8</ele>
        <time>2018-07-22T11:12:26.000Z</time>
      </trkpt>
      <trkpt lat="42.317714" lon="-0.485325">
        <ele>1334.8</ele>
        <time>2018-07-22T11:12:27.000Z</time>
      </trkpt>
      <trkpt lat="42.317714" lon="-0.485325">
        <ele>1334.8</ele>
        <time>2018-07-22T11:12:28.000Z</time>
      </trkpt>
      <trkpt lat="42.317714" lon="-0.485325">
        <ele>1334.8</ele>
        <time>2018-07-22T11:12:29.000Z</time>
      </trkpt>
      <trkpt lat="42.317714" lon="-0.485325">
        <ele>1334.8</ele>
        <time>2018-07-22T11:12:30.000Z</time>
      </trkpt>
      <trkpt lat="42.317714" lon="-0.485324">
        <ele>1334.7</ele>
        <time>2018-07-22T11:12:31.000Z</time>
      </trkpt>
      <trkpt lat="42.317714" lon="-0.485324">
        <ele>1334.7</ele>
        <time>2018-07-22T11:12:32.000Z</time>
      </trkpt>
      <trkpt lat="42.317714" lon="-0.485324">
        <ele>1334.7</ele>
        <time>2018-07-22T11:12:33.000Z</time>
      </trkpt>
      <trkpt lat="42.317714" lon="-0.485324">
        <ele>1334.7</ele>
        <time>2018-07-22T11:12:34.000Z</time>
      </trkpt>
      <trkpt lat="42.317714" lon="-0.485324">
        <ele>1334.7</ele>
        <time>2018-07-22T11:12:35.000Z</time>
      </trkpt>
      <trkpt lat="42.317714" lon="-0.485324">
        <ele>1334.7</ele>
        <time>2018-07-22T11:12:36.000Z</time>
      </trkpt>
      <trkpt lat="42.317714" lon="-0.485324">
        <ele>1334.7</ele>
        <time>2018-07-22T11:12:37.000Z</time>
      </trkpt>
      <trkpt lat="42.317714" lon="-0.485324">
        <ele>1334.7</ele>
        <time>2018-07-22T11:12:38.000Z</time>
      </trkpt>
      <trkpt lat="42.317714" lon="-0.485324">
        <ele>1334.7</ele>
        <time>2018-07-22T11:12:39.000Z</time>
      </trkpt>
      <trkpt lat="42.317714" lon="-0.485324">
        <ele>1334.7</ele>
        <time>2018-07-22T11:12:40.000Z</time>
      </trkpt>
      <trkpt lat="42.317714" lon="-0.485324">
        <ele>1334.7</ele>
        <time>2018-07-22T11:12:41.000Z</time>
      </trkpt>
      <trkpt lat="42.317714" lon="-0.485324">
        <ele>1334.7</ele>
        <time>2018-07-22T11:12:42.000Z</time>
      </trkpt>
      <trkpt lat="42.317714" lon="-0.485324">
        <ele>1334.7</ele>
        <time>2018-07-22T11:12:43.000Z</time>
      </trkpt>
      <trkpt lat="42.317714" lon="-0.485324">
        <ele>1334.7</ele>
        <time>2018-07-22T11:12:44.000Z</time>
      </trkpt>
      <trkpt lat="42.317714" lon="-0.485324">
        <ele>1334.7</ele>
        <time>2018-07-22T11:12:45.000Z</time>
      </trkpt>
      <trkpt lat="42.317714" lon="-0.485324">
        <ele>1334.7</ele>
        <time>2018-07-22T11:12:46.000Z</time>
      </trkpt>
      <trkpt lat="42.317714" lon="-0.485324">
        <ele>1334.7</ele>
        <time>2018-07-22T11:12:47.000Z</time>
      </trkpt>
      <trkpt lat="42.317714" lon="-0.485324">
        <ele>1334.7</ele>
        <time>2018-07-22T11:12:48.000Z</time>
      </trkpt>
      <trkpt lat="42.317714" lon="-0.485324">
        <ele>1334.7</ele>
        <time>2018-07-22T11:12:49.000Z</time>
      </trkpt>
      <trkpt lat="42.317714" lon="-0.485324">
        <ele>1334.7</ele>
        <time>2018-07-22T11:12:50.000Z</time>
      </trkpt>
      <trkpt lat="42.317714" lon="-0.485324">
        <ele>1334.7</ele>
        <time>2018-07-22T11:12:51.000Z</time>
      </trkpt>
      <trkpt lat="42.317714" lon="-0.485324">
        <ele>1334.7</ele>
        <time>2018-07-22T11:12:52.000Z</time>
      </trkpt>
      <trkpt lat="42.317714" lon="-0.485324">
        <ele>1334.7</ele>
        <time>2018-07-22T11:12:53.000Z</time>
      </trkpt>
      <trkpt lat="42.317714" lon="-0.485324">
        <ele>1334.7</ele>
        <time>2018-07-22T11:12:54.000Z</time>
      </trkpt>
      <trkpt lat="42.317714" lon="-0.485324">
        <ele>1334.7</ele>
        <time>2018-07-22T11:12:55.000Z</time>
      </trkpt>
      <trkpt lat="42.317714" lon="-0.485324">
        <ele>1334.7</ele>
        <time>2018-07-22T11:12:56.000Z</time>
      </trkpt>
      <trkpt lat="42.317714" lon="-0.485324">
        <ele>1334.7</ele>
        <time>2018-07-22T11:12:57.000Z</time>
      </trkpt>
      <trkpt lat="42.317714" lon="-0.485324">
        <ele>1334.7</ele>
        <time>2018-07-22T11:12:58.000Z</time>
      </trkpt>
      <trkpt lat="42.317714" lon="-0.485324">
        <ele>1334.7</ele>
        <time>2018-07-22T11:12:59.000Z</time>
      </trkpt>
      <trkpt lat="42.317714" lon="-0.485324">
        <ele>1334.7</ele>
        <time>2018-07-22T11:13:00.000Z</time>
      </trkpt>
      <trkpt lat="42.317714" lon="-0.485324">
        <ele>1334.7</ele>
        <time>2018-07-22T11:13:01.000Z</time>
      </trkpt>
      <trkpt lat="42.317714" lon="-0.485324">
        <ele>1334.7</ele>
        <time>2018-07-22T11:13:02.000Z</time>
      </trkpt>
      <trkpt lat="42.317714" lon="-0.485324">
        <ele>1334.7</ele>
        <time>2018-07-22T11:13:03.000Z</time>
      </trkpt>
      <trkpt lat="42.317714" lon="-0.485324">
        <ele>1334.7</ele>
        <time>2018-07-22T11:13:04.000Z</time>
      </trkpt>
      <trkpt lat="42.317714" lon="-0.485324">
        <ele>1334.7</ele>
        <time>2018-07-22T11:13:05.000Z</time>
      </trkpt>
      <trkpt lat="42.317714" lon="-0.485324">
        <ele>1334.7</ele>
        <time>2018-07-22T11:13:06.000Z</time>
      </trkpt>
      <trkpt lat="42.317714" lon="-0.485324">
        <ele>1334.7</ele>
        <time>2018-07-22T11:13:07.000Z</time>
      </trkpt>
      <trkpt lat="42.317714" lon="-0.485324">
        <ele>1334.7</ele>
        <time>2018-07-22T11:13:08.000Z</time>
      </trkpt>
      <trkpt lat="42.317714" lon="-0.485324">
        <ele>1334.7</ele>
        <time>2018-07-22T11:13:09.000Z</time>
      </trkpt>
      <trkpt lat="42.317714" lon="-0.485324">
        <ele>1334.7</ele>
        <time>2018-07-22T11:13:10.000Z</time>
      </trkpt>
      <trkpt lat="42.317714" lon="-0.485324">
        <ele>1334.7</ele>
        <time>2018-07-22T11:13:11.000Z</time>
      </trkpt>
      <trkpt lat="42.317714" lon="-0.485324">
        <ele>1334.7</ele>
        <time>2018-07-22T11:13:12.000Z</time>
      </trkpt>
      <trkpt lat="42.317713" lon="-0.485324">
        <ele>1334.8</ele>
        <time>2018-07-22T11:13:13.000Z</time>
      </trkpt>
      <trkpt lat="42.317713" lon="-0.485324">
        <ele>1334.8</ele>
        <time>2018-07-22T11:13:14.000Z</time>
      </trkpt>
      <trkpt lat="42.317713" lon="-0.485323">
        <ele>1334.8</ele>
        <time>2018-07-22T11:13:15.000Z</time>
      </trkpt>
      <trkpt lat="42.317712" lon="-0.485323">
        <ele>1334.8</ele>
        <time>2018-07-22T11:13:16.000Z</time>
      </trkpt>
      <trkpt lat="42.317712" lon="-0.485323">
        <ele>1334.8</ele>
        <time>2018-07-22T11:13:17.000Z</time>
      </trkpt>
      <trkpt lat="42.317711" lon="-0.485322">
        <ele>1334.8</ele>
        <time>2018-07-22T11:13:18.000Z</time>
      </trkpt>
      <trkpt lat="42.31771" lon="-0.485321">
        <ele>1334.9</ele>
        <time>2018-07-22T11:13:19.000Z</time>
      </trkpt>
      <trkpt lat="42.317709" lon="-0.485321">
        <ele>1334.9</ele>
        <time>2018-07-22T11:13:20.000Z</time>
      </trkpt>
      <trkpt lat="42.317708" lon="-0.48532">
        <ele>1335.0</ele>
        <time>2018-07-22T11:13:21.000Z</time>
      </trkpt>
      <trkpt lat="42.317706" lon="-0.485319">
        <ele>1335.0</ele>
        <time>2018-07-22T11:13:22.000Z</time>
      </trkpt>
      <trkpt lat="42.317705" lon="-0.485318">
        <ele>1335.1</ele>
        <time>2018-07-22T11:13:23.000Z</time>
      </trkpt>
      <trkpt lat="42.317703" lon="-0.485316">
        <ele>1335.1</ele>
        <time>2018-07-22T11:13:24.000Z</time>
      </trkpt>
      <trkpt lat="42.317702" lon="-0.485315">
        <ele>1335.1</ele>
        <time>2018-07-22T11:13:25.000Z</time>
      </trkpt>
      <trkpt lat="42.317699" lon="-0.485313">
        <ele>1335.2</ele>
        <time>2018-07-22T11:13:26.000Z</time>
      </trkpt>
      <trkpt lat="42.317697" lon="-0.485312">
        <ele>1335.3</ele>
        <time>2018-07-22T11:13:27.000Z</time>
      </trkpt>
      <trkpt lat="42.317695" lon="-0.485309">
        <ele>1335.3</ele>
        <time>2018-07-22T11:13:28.000Z</time>
      </trkpt>
      <trkpt lat="42.31769" lon="-0.485306">
        <ele>1335.5</ele>
        <time>2018-07-22T11:13:29.000Z</time>
      </trkpt>
      <trkpt lat="42.317684" lon="-0.485302">
        <ele>1335.7</ele>
        <time>2018-07-22T11:13:30.000Z</time>
      </trkpt>
      <trkpt lat="42.317679" lon="-0.485296">
        <ele>1335.8</ele>
        <time>2018-07-22T11:13:31.000Z</time>
      </trkpt>
      <trkpt lat="42.317674" lon="-0.485291">
        <ele>1335.9</ele>
        <time>2018-07-22T11:13:32.000Z</time>
      </trkpt>
      <trkpt lat="42.31767" lon="-0.485286">
        <ele>1335.9</ele>
        <time>2018-07-22T11:13:33.000Z</time>
      </trkpt>
      <trkpt lat="42.317666" lon="-0.485282">
        <ele>1336.0</ele>
        <time>2018-07-22T11:13:34.000Z</time>
      </trkpt>
      <trkpt lat="42.317664" lon="-0.485278">
        <ele>1335.9</ele>
        <time>2018-07-22T11:13:35.000Z</time>
      </trkpt>
      <trkpt lat="42.317661" lon="-0.485276">
        <ele>1336.0</ele>
        <time>2018-07-22T11:13:36.000Z</time>
      </trkpt>
      <trkpt lat="42.317659" lon="-0.485273">
        <ele>1336.0</ele>
        <time>2018-07-22T11:13:37.000Z</time>
      </trkpt>
      <trkpt lat="42.317657" lon="-0.485271">
        <ele>1336.1</ele>
        <time>2018-07-22T11:13:38.000Z</time>
      </trkpt>
      <trkpt lat="42.317655" lon="-0.485268">
        <ele>1336.1</ele>
        <time>2018-07-22T11:13:39.000Z</time>
      </trkpt>
      <trkpt lat="42.317651" lon="-0.485261">
        <ele>1336.0</ele>
        <time>2018-07-22T11:13:40.000Z</time>
      </trkpt>
      <trkpt lat="42.317643" lon="-0.485249">
        <ele>1335.9</ele>
        <time>2018-07-22T11:13:41.000Z</time>
      </trkpt>
      <trkpt lat="42.317637" lon="-0.485238">
        <ele>1335.8</ele>
        <time>2018-07-22T11:13:42.000Z</time>
      </trkpt>
      <trkpt lat="42.317632" lon="-0.485229">
        <ele>1335.7</ele>
        <time>2018-07-22T11:13:43.000Z</time>
      </trkpt>
      <trkpt lat="42.317629" lon="-0.485223">
        <ele>1335.6</ele>
        <time>2018-07-22T11:13:44.000Z</time>
      </trkpt>
      <trkpt lat="42.317627" lon="-0.485219">
        <ele>1335.5</ele>
        <time>2018-07-22T11:13:45.000Z</time>
      </trkpt>
      <trkpt lat="42.317626" lon="-0.485217">
        <ele>1335.5</ele>
        <time>2018-07-22T11:13:46.000Z</time>
      </trkpt>
      <trkpt lat="42.317625" lon="-0.485214">
        <ele>1335.4</ele>
        <time>2018-07-22T11:13:47.000Z</time>
      </trkpt>
      <trkpt lat="42.317623" lon="-0.485211">
        <ele>1335.4</ele>
        <time>2018-07-22T11:13:48.000Z</time>
      </trkpt>
      <trkpt lat="42.317621" lon="-0.485206">
        <ele>1335.3</ele>
        <time>2018-07-22T11:13:49.000Z</time>
      </trkpt>
      <trkpt lat="42.317619" lon="-0.4852">
        <ele>1335.1</ele>
        <time>2018-07-22T11:13:50.000Z</time>
      </trkpt>
      <trkpt lat="42.317616" lon="-0.485194">
        <ele>1335.0</ele>
        <time>2018-07-22T11:13:51.000Z</time>
      </trkpt>
      <trkpt lat="42.317614" lon="-0.485189">
        <ele>1334.9</ele>
        <time>2018-07-22T11:13:52.000Z</time>
      </trkpt>
      <trkpt lat="42.31761" lon="-0.48518">
        <ele>1334.7</ele>
        <time>2018-07-22T11:13:53.000Z</time>
      </trkpt>
      <trkpt lat="42.317606" lon="-0.485171">
        <ele>1334.5</ele>
        <time>2018-07-22T11:13:54.000Z</time>
      </trkpt>
      <trkpt lat="42.317603" lon="-0.48516">
        <ele>1334.2</ele>
        <time>2018-07-22T11:13:55.000Z</time>
      </trkpt>
      <trkpt lat="42.317601" lon="-0.485148">
        <ele>1333.7</ele>
        <time>2018-07-22T11:13:56.000Z</time>
      </trkpt>
      <trkpt lat="42.317599" lon="-0.485138">
        <ele>1333.3</ele>
        <time>2018-07-22T11:13:57.000Z</time>
      </trkpt>
      <trkpt lat="42.317596" lon="-0.485129">
        <ele>1333.1</ele>
        <time>2018-07-22T11:13:58.000Z</time>
      </trkpt>
      <trkpt lat="42.317593" lon="-0.485122">
        <ele>1332.9</ele>
        <time>2018-07-22T11:13:59.000Z</time>
      </trkpt>
      <trkpt lat="42.31759" lon="-0.485115">
        <ele>1332.8</ele>
        <time>2018-07-22T11:14:00.000Z</time>
      </trkpt>
      <trkpt lat="42.317585" lon="-0.485107">
        <ele>1332.7</ele>
        <time>2018-07-22T11:14:01.000Z</time>
      </trkpt>
      <trkpt lat="42.31758" lon="-0.485099">
        <ele>1332.7</ele>
        <time>2018-07-22T11:14:02.000Z</time>
      </trkpt>
      <trkpt lat="42.317575" lon="-0.485091">
        <ele>1332.6</ele>
        <time>2018-07-22T11:14:03.000Z</time>
      </trkpt>
      <trkpt lat="42.317569" lon="-0.485082">
        <ele>1332.5</ele>
        <time>2018-07-22T11:14:04.000Z</time>
      </trkpt>
      <trkpt lat="42.317564" lon="-0.485073">
        <ele>1332.4</ele>
        <time>2018-07-22T11:14:05.000Z</time>
      </trkpt>
      <trkpt lat="42.317558" lon="-0.485064">
        <ele>1332.4</ele>
        <time>2018-07-22T11:14:06.000Z</time>
      </trkpt>
      <trkpt lat="42.317552" lon="-0.485055">
        <ele>1332.3</ele>
        <time>2018-07-22T11:14:07.000Z</time>
      </trkpt>
      <trkpt lat="42.317546" lon="-0.485047">
        <ele>1332.3</ele>
        <time>2018-07-22T11:14:08.000Z</time>
      </trkpt>
      <trkpt lat="42.31754" lon="-0.485038">
        <ele>1332.3</ele>
        <time>2018-07-22T11:14:09.000Z</time>
      </trkpt>
      <trkpt lat="42.317535" lon="-0.48503">
        <ele>1332.2</ele>
        <time>2018-07-22T11:14:10.000Z</time>
      </trkpt>
      <trkpt lat="42.317531" lon="-0.485023">
        <ele>1332.1</ele>
        <time>2018-07-22T11:14:11.000Z</time>
      </trkpt>
      <trkpt lat="42.317526" lon="-0.485016">
        <ele>1332.1</ele>
        <time>2018-07-22T11:14:12.000Z</time>
      </trkpt>
      <trkpt lat="42.317522" lon="-0.485009">
        <ele>1332.0</ele>
        <time>2018-07-22T11:14:13.000Z</time>
      </trkpt>
      <trkpt lat="42.317517" lon="-0.485001">
        <ele>1331.9</ele>
        <time>2018-07-22T11:14:14.000Z</time>
      </trkpt>
      <trkpt lat="42.317513" lon="-0.484993">
        <ele>1331.8</ele>
        <time>2018-07-22T11:14:15.000Z</time>
      </trkpt>
      <trkpt lat="42.317507" lon="-0.484984">
        <ele>1331.9</ele>
        <time>2018-07-22T11:14:16.000Z</time>
      </trkpt>
      <trkpt lat="42.317501" lon="-0.484974">
        <ele>1331.8</ele>
        <time>2018-07-22T11:14:17.000Z</time>
      </trkpt>
      <trkpt lat="42.317494" lon="-0.484963">
        <ele>1331.8</ele>
        <time>2018-07-22T11:14:18.000Z</time>
      </trkpt>
      <trkpt lat="42.317487" lon="-0.484952">
        <ele>1331.7</ele>
        <time>2018-07-22T11:14:19.000Z</time>
      </trkpt>
      <trkpt lat="42.317479" lon="-0.48494">
        <ele>1331.7</ele>
        <time>2018-07-22T11:14:20.000Z</time>
      </trkpt>
      <trkpt lat="42.317472" lon="-0.484928">
        <ele>1331.6</ele>
        <time>2018-07-22T11:14:21.000Z</time>
      </trkpt>
      <trkpt lat="42.317466" lon="-0.484916">
        <ele>1331.4</ele>
        <time>2018-07-22T11:14:22.000Z</time>
      </trkpt>
      <trkpt lat="42.31746" lon="-0.484904">
        <ele>1331.2</ele>
        <time>2018-07-22T11:14:23.000Z</time>
      </trkpt>
      <trkpt lat="42.317454" lon="-0.484893">
        <ele>1331.1</ele>
        <time>2018-07-22T11:14:24.000Z</time>
      </trkpt>
      <trkpt lat="42.317449" lon="-0.484881">
        <ele>1330.8</ele>
        <time>2018-07-22T11:14:25.000Z</time>
      </trkpt>
      <trkpt lat="42.317443" lon="-0.48487">
        <ele>1330.7</ele>
        <time>2018-07-22T11:14:26.000Z</time>
      </trkpt>
      <trkpt lat="42.317438" lon="-0.48486">
        <ele>1330.6</ele>
        <time>2018-07-22T11:14:27.000Z</time>
      </trkpt>
      <trkpt lat="42.317433" lon="-0.484849">
        <ele>1330.4</ele>
        <time>2018-07-22T11:14:28.000Z</time>
      </trkpt>
      <trkpt lat="42.317428" lon="-0.484839">
        <ele>1330.2</ele>
        <time>2018-07-22T11:14:29.000Z</time>
      </trkpt>
      <trkpt lat="42.317424" lon="-0.484829">
        <ele>1330.0</ele>
        <time>2018-07-22T11:14:30.000Z</time>
      </trkpt>
      <trkpt lat="42.317418" lon="-0.48482">
        <ele>1329.9</ele>
        <time>2018-07-22T11:14:31.000Z</time>
      </trkpt>
      <trkpt lat="42.317413" lon="-0.484811">
        <ele>1329.8</ele>
        <time>2018-07-22T11:14:32.000Z</time>
      </trkpt>
      <trkpt lat="42.317408" lon="-0.484802">
        <ele>1329.7</ele>
        <time>2018-07-22T11:14:33.000Z</time>
      </trkpt>
      <trkpt lat="42.317402" lon="-0.484794">
        <ele>1329.7</ele>
        <time>2018-07-22T11:14:34.000Z</time>
      </trkpt>
      <trkpt lat="42.317396" lon="-0.484785">
        <ele>1329.6</ele>
        <time>2018-07-22T11:14:35.000Z</time>
      </trkpt>
      <trkpt lat="42.31739" lon="-0.484777">
        <ele>1329.6</ele>
        <time>2018-07-22T11:14:36.000Z</time>
      </trkpt>
      <trkpt lat="42.317384" lon="-0.484769">
        <ele>1329.6</ele>
        <time>2018-07-22T11:14:37.000Z</time>
      </trkpt>
      <trkpt lat="42.317377" lon="-0.484761">
        <ele>1329.6</ele>
        <time>2018-07-22T11:14:38.000Z</time>
      </trkpt>
      <trkpt lat="42.317371" lon="-0.484753">
        <ele>1329.6</ele>
        <time>2018-07-22T11:14:39.000Z</time>
      </trkpt>
      <trkpt lat="42.317365" lon="-0.484744">
        <ele>1329.5</ele>
        <time>2018-07-22T11:14:40.000Z</time>
      </trkpt>
      <trkpt lat="42.317359" lon="-0.484736">
        <ele>1329.4</ele>
        <time>2018-07-22T11:14:41.000Z</time>
      </trkpt>
      <trkpt lat="42.317352" lon="-0.484726">
        <ele>1329.4</ele>
        <time>2018-07-22T11:14:42.000Z</time>
      </trkpt>
      <trkpt lat="42.317346" lon="-0.484717">
        <ele>1329.3</ele>
        <time>2018-07-22T11:14:43.000Z</time>
      </trkpt>
      <trkpt lat="42.31734" lon="-0.484706">
        <ele>1329.1</ele>
        <time>2018-07-22T11:14:44.000Z</time>
      </trkpt>
      <trkpt lat="42.317335" lon="-0.484696">
        <ele>1328.9</ele>
        <time>2018-07-22T11:14:45.000Z</time>
      </trkpt>
      <trkpt lat="42.31733" lon="-0.484685">
        <ele>1328.7</ele>
        <time>2018-07-22T11:14:46.000Z</time>
      </trkpt>
      <trkpt lat="42.317325" lon="-0.484674">
        <ele>1328.5</ele>
        <time>2018-07-22T11:14:47.000Z</time>
      </trkpt>
      <trkpt lat="42.317321" lon="-0.484664">
        <ele>1328.2</ele>
        <time>2018-07-22T11:14:48.000Z</time>
      </trkpt>
      <trkpt lat="42.317318" lon="-0.484655">
        <ele>1328.0</ele>
        <time>2018-07-22T11:14:49.000Z</time>
      </trkpt>
      <trkpt lat="42.317315" lon="-0.484646">
        <ele>1327.8</ele>
        <time>2018-07-22T11:14:50.000Z</time>
      </trkpt>
      <trkpt lat="42.317314" lon="-0.484638">
        <ele>1327.4</ele>
        <time>2018-07-22T11:14:51.000Z</time>
      </trkpt>
      <trkpt lat="42.317312" lon="-0.484629">
        <ele>1327.1</ele>
        <time>2018-07-22T11:14:52.000Z</time>
      </trkpt>
      <trkpt lat="42.31731" lon="-0.484621">
        <ele>1326.9</ele>
        <time>2018-07-22T11:14:53.000Z</time>
      </trkpt>
      <trkpt lat="42.317307" lon="-0.484612">
        <ele>1326.6</ele>
        <time>2018-07-22T11:14:54.000Z</time>
      </trkpt>
      <trkpt lat="42.317304" lon="-0.484602">
        <ele>1326.3</ele>
        <time>2018-07-22T11:14:55.000Z</time>
      </trkpt>
      <trkpt lat="42.317301" lon="-0.484593">
        <ele>1326.1</ele>
        <time>2018-07-22T11:14:56.000Z</time>
      </trkpt>
      <trkpt lat="42.317296" lon="-0.484584">
        <ele>1325.9</ele>
        <time>2018-07-22T11:14:57.000Z</time>
      </trkpt>
      <trkpt lat="42.317292" lon="-0.484574">
        <ele>1325.7</ele>
        <time>2018-07-22T11:14:58.000Z</time>
      </trkpt>
      <trkpt lat="42.317287" lon="-0.484564">
        <ele>1325.5</ele>
        <time>2018-07-22T11:14:59.000Z</time>
      </trkpt>
      <trkpt lat="42.317281" lon="-0.484553">
        <ele>1325.3</ele>
        <time>2018-07-22T11:15:00.000Z</time>
      </trkpt>
      <trkpt lat="42.317275" lon="-0.484542">
        <ele>1325.1</ele>
        <time>2018-07-22T11:15:01.000Z</time>
      </trkpt>
      <trkpt lat="42.31727" lon="-0.484531">
        <ele>1324.8</ele>
        <time>2018-07-22T11:15:02.000Z</time>
      </trkpt>
      <trkpt lat="42.317263" lon="-0.484519">
        <ele>1324.6</ele>
        <time>2018-07-22T11:15:03.000Z</time>
      </trkpt>
      <trkpt lat="42.317257" lon="-0.484507">
        <ele>1324.4</ele>
        <time>2018-07-22T11:15:04.000Z</time>
      </trkpt>
      <trkpt lat="42.31725" lon="-0.484495">
        <ele>1324.2</ele>
        <time>2018-07-22T11:15:05.000Z</time>
      </trkpt>
      <trkpt lat="42.317243" lon="-0.484484">
        <ele>1324.0</ele>
        <time>2018-07-22T11:15:06.000Z</time>
      </trkpt>
      <trkpt lat="42.317236" lon="-0.484473">
        <ele>1323.9</ele>
        <time>2018-07-22T11:15:07.000Z</time>
      </trkpt>
      <trkpt lat="42.317228" lon="-0.484461">
        <ele>1323.7</ele>
        <time>2018-07-22T11:15:08.000Z</time>
      </trkpt>
      <trkpt lat="42.317221" lon="-0.484449">
        <ele>1323.5</ele>
        <time>2018-07-22T11:15:09.000Z</time>
      </trkpt>
      <trkpt lat="42.317214" lon="-0.484437">
        <ele>1323.3</ele>
        <time>2018-07-22T11:15:10.000Z</time>
      </trkpt>
      <trkpt lat="42.317208" lon="-0.484423">
        <ele>1322.9</ele>
        <time>2018-07-22T11:15:11.000Z</time>
      </trkpt>
      <trkpt lat="42.317202" lon="-0.48441">
        <ele>1322.6</ele>
        <time>2018-07-22T11:15:12.000Z</time>
      </trkpt>
      <trkpt lat="42.317196" lon="-0.484396">
        <ele>1322.2</ele>
        <time>2018-07-22T11:15:13.000Z</time>
      </trkpt>
      <trkpt lat="42.317189" lon="-0.484383">
        <ele>1322.0</ele>
        <time>2018-07-22T11:15:14.000Z</time>
      </trkpt>
      <trkpt lat="42.317183" lon="-0.484371">
        <ele>1321.7</ele>
        <time>2018-07-22T11:15:15.000Z</time>
      </trkpt>
      <trkpt lat="42.317175" lon="-0.484361">
        <ele>1321.6</ele>
        <time>2018-07-22T11:15:16.000Z</time>
      </trkpt>
      <trkpt lat="42.317168" lon="-0.484351">
        <ele>1321.5</ele>
        <time>2018-07-22T11:15:17.000Z</time>
      </trkpt>
      <trkpt lat="42.31716" lon="-0.484342">
        <ele>1321.4</ele>
        <time>2018-07-22T11:15:18.000Z</time>
      </trkpt>
      <trkpt lat="42.317152" lon="-0.484334">
        <ele>1321.4</ele>
        <time>2018-07-22T11:15:19.000Z</time>
      </trkpt>
      <trkpt lat="42.317146" lon="-0.484326">
        <ele>1321.3</ele>
        <time>2018-07-22T11:15:20.000Z</time>
      </trkpt>
      <trkpt lat="42.31714" lon="-0.484317">
        <ele>1321.2</ele>
        <time>2018-07-22T11:15:21.000Z</time>
      </trkpt>
      <trkpt lat="42.317135" lon="-0.484308">
        <ele>1321.0</ele>
        <time>2018-07-22T11:15:22.000Z</time>
      </trkpt>
      <trkpt lat="42.317131" lon="-0.484298">
        <ele>1320.7</ele>
        <time>2018-07-22T11:15:23.000Z</time>
      </trkpt>
      <trkpt lat="42.317127" lon="-0.484288">
        <ele>1320.4</ele>
        <time>2018-07-22T11:15:24.000Z</time>
      </trkpt>
      <trkpt lat="42.317124" lon="-0.484277">
        <ele>1320.0</ele>
        <time>2018-07-22T11:15:25.000Z</time>
      </trkpt>
      <trkpt lat="42.31712" lon="-0.484266">
        <ele>1319.6</ele>
        <time>2018-07-22T11:15:26.000Z</time>
      </trkpt>
      <trkpt lat="42.317116" lon="-0.484254">
        <ele>1319.2</ele>
        <time>2018-07-22T11:15:27.000Z</time>
      </trkpt>
      <trkpt lat="42.317111" lon="-0.484242">
        <ele>1318.9</ele>
        <time>2018-07-22T11:15:28.000Z</time>
      </trkpt>
      <trkpt lat="42.317106" lon="-0.48423">
        <ele>1318.5</ele>
        <time>2018-07-22T11:15:29.000Z</time>
      </trkpt>
      <trkpt lat="42.3171" lon="-0.484217">
        <ele>1318.2</ele>
        <time>2018-07-22T11:15:30.000Z</time>
      </trkpt>
      <trkpt lat="42.317094" lon="-0.484204">
        <ele>1317.8</ele>
        <time>2018-07-22T11:15:31.000Z</time>
      </trkpt>
      <trkpt lat="42.317088" lon="-0.484191">
        <ele>1317.5</ele>
        <time>2018-07-22T11:15:32.000Z</time>
      </trkpt>
      <trkpt lat="42.317081" lon="-0.484178">
        <ele>1317.2</ele>
        <time>2018-07-22T11:15:33.000Z</time>
      </trkpt>
      <trkpt lat="42.317074" lon="-0.484165">
        <ele>1316.8</ele>
        <time>2018-07-22T11:15:34.000Z</time>
      </trkpt>
      <trkpt lat="42.317066" lon="-0.484152">
        <ele>1316.6</ele>
        <time>2018-07-22T11:15:35.000Z</time>
      </trkpt>
      <trkpt lat="42.317059" lon="-0.484139">
        <ele>1316.3</ele>
        <time>2018-07-22T11:15:36.000Z</time>
      </trkpt>
      <trkpt lat="42.317052" lon="-0.484127">
        <ele>1316.1</ele>
        <time>2018-07-22T11:15:37.000Z</time>
      </trkpt>
      <trkpt lat="42.317044" lon="-0.484115">
        <ele>1315.9</ele>
        <time>2018-07-22T11:15:38.000Z</time>
      </trkpt>
      <trkpt lat="42.317037" lon="-0.484104">
        <ele>1315.7</ele>
        <time>2018-07-22T11:15:39.000Z</time>
      </trkpt>
      <trkpt lat="42.317029" lon="-0.484093">
        <ele>1315.5</ele>
        <time>2018-07-22T11:15:40.000Z</time>
      </trkpt>
      <trkpt lat="42.317022" lon="-0.484082">
        <ele>1315.3</ele>
        <time>2018-07-22T11:15:41.000Z</time>
      </trkpt>
      <trkpt lat="42.317014" lon="-0.484071">
        <ele>1315.2</ele>
        <time>2018-07-22T11:15:42.000Z</time>
      </trkpt>
      <trkpt lat="42.317007" lon="-0.484061">
        <ele>1315.0</ele>
        <time>2018-07-22T11:15:43.000Z</time>
      </trkpt>
      <trkpt lat="42.317" lon="-0.48405">
        <ele>1314.8</ele>
        <time>2018-07-22T11:15:44.000Z</time>
      </trkpt>
      <trkpt lat="42.316993" lon="-0.48404">
        <ele>1314.7</ele>
        <time>2018-07-22T11:15:45.000Z</time>
      </trkpt>
      <trkpt lat="42.316986" lon="-0.484029">
        <ele>1314.5</ele>
        <time>2018-07-22T11:15:46.000Z</time>
      </trkpt>
      <trkpt lat="42.316979" lon="-0.484018">
        <ele>1314.2</ele>
        <time>2018-07-22T11:15:47.000Z</time>
      </trkpt>
      <trkpt lat="42.316972" lon="-0.484007">
        <ele>1314.0</ele>
        <time>2018-07-22T11:15:48.000Z</time>
      </trkpt>
      <trkpt lat="42.316966" lon="-0.483996">
        <ele>1313.8</ele>
        <time>2018-07-22T11:15:49.000Z</time>
      </trkpt>
      <trkpt lat="42.316959" lon="-0.483984">
        <ele>1313.5</ele>
        <time>2018-07-22T11:15:50.000Z</time>
      </trkpt>
      <trkpt lat="42.316953" lon="-0.483973">
        <ele>1313.2</ele>
        <time>2018-07-22T11:15:51.000Z</time>
      </trkpt>
      <trkpt lat="42.316946" lon="-0.483961">
        <ele>1313.0</ele>
        <time>2018-07-22T11:15:52.000Z</time>
      </trkpt>
      <trkpt lat="42.31694" lon="-0.48395">
        <ele>1312.7</ele>
        <time>2018-07-22T11:15:53.000Z</time>
      </trkpt>
      <trkpt lat="42.316933" lon="-0.483938">
        <ele>1312.4</ele>
        <time>2018-07-22T11:15:54.000Z</time>
      </trkpt>
      <trkpt lat="42.316926" lon="-0.483928">
        <ele>1312.3</ele>
        <time>2018-07-22T11:15:55.000Z</time>
      </trkpt>
      <trkpt lat="42.316919" lon="-0.483917">
        <ele>1312.0</ele>
        <time>2018-07-22T11:15:56.000Z</time>
      </trkpt>
      <trkpt lat="42.316912" lon="-0.483907">
        <ele>1311.8</ele>
        <time>2018-07-22T11:15:57.000Z</time>
      </trkpt>
      <trkpt lat="42.316905" lon="-0.483898">
        <ele>1311.7</ele>
        <time>2018-07-22T11:15:58.000Z</time>
      </trkpt>
      <trkpt lat="42.316897" lon="-0.483889">
        <ele>1311.6</ele>
        <time>2018-07-22T11:15:59.000Z</time>
      </trkpt>
      <trkpt lat="42.31689" lon="-0.483881">
        <ele>1311.5</ele>
        <time>2018-07-22T11:16:00.000Z</time>
      </trkpt>
      <trkpt lat="42.316882" lon="-0.483874">
        <ele>1311.5</ele>
        <time>2018-07-22T11:16:01.000Z</time>
      </trkpt>
      <trkpt lat="42.316875" lon="-0.483866">
        <ele>1311.4</ele>
        <time>2018-07-22T11:16:02.000Z</time>
      </trkpt>
      <trkpt lat="42.316869" lon="-0.483858">
        <ele>1311.3</ele>
        <time>2018-07-22T11:16:03.000Z</time>
      </trkpt>
      <trkpt lat="42.316863" lon="-0.48385">
        <ele>1311.1</ele>
        <time>2018-07-22T11:16:04.000Z</time>
      </trkpt>
      <trkpt lat="42.316859" lon="-0.483841">
        <ele>1310.9</ele>
        <time>2018-07-22T11:16:05.000Z</time>
      </trkpt>
      <trkpt lat="42.316856" lon="-0.483832">
        <ele>1310.5</ele>
        <time>2018-07-22T11:16:06.000Z</time>
      </trkpt>
      <trkpt lat="42.316853" lon="-0.483823">
        <ele>1310.2</ele>
        <time>2018-07-22T11:16:07.000Z</time>
      </trkpt>
      <trkpt lat="42.31685" lon="-0.483814">
        <ele>1309.9</ele>
        <time>2018-07-22T11:16:08.000Z</time>
      </trkpt>
      <trkpt lat="42.316848" lon="-0.483806">
        <ele>1309.6</ele>
        <time>2018-07-22T11:16:09.000Z</time>
      </trkpt>
      <trkpt lat="42.316845" lon="-0.483798">
        <ele>1309.4</ele>
        <time>2018-07-22T11:16:10.000Z</time>
      </trkpt>
      <trkpt lat="42.316841" lon="-0.483791">
        <ele>1309.2</ele>
        <time>2018-07-22T11:16:11.000Z</time>
      </trkpt>
      <trkpt lat="42.316838" lon="-0.483783">
        <ele>1308.9</ele>
        <time>2018-07-22T11:16:12.000Z</time>
      </trkpt>
      <trkpt lat="42.316835" lon="-0.483775">
        <ele>1308.6</ele>
        <time>2018-07-22T11:16:13.000Z</time>
      </trkpt>
      <trkpt lat="42.316831" lon="-0.483766">
        <ele>1308.4</ele>
        <time>2018-07-22T11:16:14.000Z</time>
      </trkpt>
      <trkpt lat="42.316827" lon="-0.483756">
        <ele>1308.0</ele>
        <time>2018-07-22T11:16:15.000Z</time>
      </trkpt>
      <trkpt lat="42.316821" lon="-0.483746">
        <ele>1307.8</ele>
        <time>2018-07-22T11:16:16.000Z</time>
      </trkpt>
      <trkpt lat="42.316815" lon="-0.483736">
        <ele>1307.5</ele>
        <time>2018-07-22T11:16:17.000Z</time>
      </trkpt>
      <trkpt lat="42.316809" lon="-0.483726">
        <ele>1307.3</ele>
        <time>2018-07-22T11:16:18.000Z</time>
      </trkpt>
      <trkpt lat="42.316801" lon="-0.483716">
        <ele>1307.1</ele>
        <time>2018-07-22T11:16:19.000Z</time>
      </trkpt>
      <trkpt lat="42.316794" lon="-0.483706">
        <ele>1306.9</ele>
        <time>2018-07-22T11:16:20.000Z</time>
      </trkpt>
      <trkpt lat="42.316787" lon="-0.483696">
        <ele>1306.7</ele>
        <time>2018-07-22T11:16:21.000Z</time>
      </trkpt>
      <trkpt lat="42.31678" lon="-0.483686">
        <ele>1306.4</ele>
        <time>2018-07-22T11:16:22.000Z</time>
      </trkpt>
      <trkpt lat="42.316773" lon="-0.483677">
        <ele>1306.3</ele>
        <time>2018-07-22T11:16:23.000Z</time>
      </trkpt>
      <trkpt lat="42.316766" lon="-0.483668">
        <ele>1306.1</ele>
        <time>2018-07-22T11:16:24.000Z</time>
      </trkpt>
      <trkpt lat="42.316759" lon="-0.48366">
        <ele>1306.0</ele>
        <time>2018-07-22T11:16:25.000Z</time>
      </trkpt>
      <trkpt lat="42.316752" lon="-0.483651">
        <ele>1305.8</ele>
        <time>2018-07-22T11:16:26.000Z</time>
      </trkpt>
      <trkpt lat="42.316745" lon="-0.483643">
        <ele>1305.7</ele>
        <time>2018-07-22T11:16:27.000Z</time>
      </trkpt>
      <trkpt lat="42.316738" lon="-0.483635">
        <ele>1305.5</ele>
        <time>2018-07-22T11:16:28.000Z</time>
      </trkpt>
      <trkpt lat="42.316731" lon="-0.483627">
        <ele>1305.4</ele>
        <time>2018-07-22T11:16:29.000Z</time>
      </trkpt>
      <trkpt lat="42.316724" lon="-0.48362">
        <ele>1305.3</ele>
        <time>2018-07-22T11:16:30.000Z</time>
      </trkpt>
      <trkpt lat="42.316718" lon="-0.483613">
        <ele>1305.2</ele>
        <time>2018-07-22T11:16:31.000Z</time>
      </trkpt>
      <trkpt lat="42.316711" lon="-0.483605">
        <ele>1305.0</ele>
        <time>2018-07-22T11:16:32.000Z</time>
      </trkpt>
      <trkpt lat="42.316704" lon="-0.483598">
        <ele>1305.0</ele>
        <time>2018-07-22T11:16:33.000Z</time>
      </trkpt>
      <trkpt lat="42.316698" lon="-0.483591">
        <ele>1304.8</ele>
        <time>2018-07-22T11:16:34.000Z</time>
      </trkpt>
      <trkpt lat="42.316691" lon="-0.483584">
        <ele>1304.7</ele>
        <time>2018-07-22T11:16:35.000Z</time>
      </trkpt>
      <trkpt lat="42.316684" lon="-0.483577">
        <ele>1304.6</ele>
        <time>2018-07-22T11:16:36.000Z</time>
      </trkpt>
      <trkpt lat="42.316678" lon="-0.483571">
        <ele>1304.6</ele>
        <time>2018-07-22T11:16:37.000Z</time>
      </trkpt>
      <trkpt lat="42.316671" lon="-0.483564">
        <ele>1304.5</ele>
        <time>2018-07-22T11:16:38.000Z</time>
      </trkpt>
      <trkpt lat="42.316664" lon="-0.483557">
        <ele>1304.3</ele>
        <time>2018-07-22T11:16:39.000Z</time>
      </trkpt>
      <trkpt lat="42.316658" lon="-0.483551">
        <ele>1304.2</ele>
        <time>2018-07-22T11:16:40.000Z</time>
      </trkpt>
      <trkpt lat="42.316651" lon="-0.483544">
        <ele>1304.0</ele>
        <time>2018-07-22T11:16:41.000Z</time>
      </trkpt>
      <trkpt lat="42.316645" lon="-0.483538">
        <ele>1303.9</ele>
        <time>2018-07-22T11:16:42.000Z</time>
      </trkpt>
      <trkpt lat="42.316638" lon="-0.483531">
        <ele>1303.7</ele>
        <time>2018-07-22T11:16:43.000Z</time>
      </trkpt>
      <trkpt lat="42.316631" lon="-0.483524">
        <ele>1303.5</ele>
        <time>2018-07-22T11:16:44.000Z</time>
      </trkpt>
      <trkpt lat="42.316625" lon="-0.483518">
        <ele>1303.4</ele>
        <time>2018-07-22T11:16:45.000Z</time>
      </trkpt>
      <trkpt lat="42.316618" lon="-0.483511">
        <ele>1303.2</ele>
        <time>2018-07-22T11:16:46.000Z</time>
      </trkpt>
      <trkpt lat="42.316612" lon="-0.483505">
        <ele>1303.1</ele>
        <time>2018-07-22T11:16:47.000Z</time>
      </trkpt>
      <trkpt lat="42.316606" lon="-0.483498">
        <ele>1302.9</ele>
        <time>2018-07-22T11:16:48.000Z</time>
      </trkpt>
      <trkpt lat="42.3166" lon="-0.483492">
        <ele>1302.7</ele>
        <time>2018-07-22T11:16:49.000Z</time>
      </trkpt>
      <trkpt lat="42.316594" lon="-0.483486">
        <ele>1302.6</ele>
        <time>2018-07-22T11:16:50.000Z</time>
      </trkpt>
      <trkpt lat="42.316589" lon="-0.483479">
        <ele>1302.3</ele>
        <time>2018-07-22T11:16:51.000Z</time>
      </trkpt>
      <trkpt lat="42.316584" lon="-0.483473">
        <ele>1302.2</ele>
        <time>2018-07-22T11:16:52.000Z</time>
      </trkpt>
      <trkpt lat="42.316579" lon="-0.483467">
        <ele>1302.0</ele>
        <time>2018-07-22T11:16:53.000Z</time>
      </trkpt>
      <trkpt lat="42.316574" lon="-0.483461">
        <ele>1301.8</ele>
        <time>2018-07-22T11:16:54.000Z</time>
      </trkpt>
      <trkpt lat="42.316569" lon="-0.483455">
        <ele>1301.6</ele>
        <time>2018-07-22T11:16:55.000Z</time>
      </trkpt>
      <trkpt lat="42.316565" lon="-0.483449">
        <ele>1301.4</ele>
        <time>2018-07-22T11:16:56.000Z</time>
      </trkpt>
      <trkpt lat="42.31656" lon="-0.483444">
        <ele>1301.3</ele>
        <time>2018-07-22T11:16:57.000Z</time>
      </trkpt>
      <trkpt lat="42.316556" lon="-0.483438">
        <ele>1301.1</ele>
        <time>2018-07-22T11:16:58.000Z</time>
      </trkpt>
      <trkpt lat="42.316552" lon="-0.483432">
        <ele>1300.9</ele>
        <time>2018-07-22T11:16:59.000Z</time>
      </trkpt>
      <trkpt lat="42.316547" lon="-0.483427">
        <ele>1300.7</ele>
        <time>2018-07-22T11:17:00.000Z</time>
      </trkpt>
      <trkpt lat="42.316542" lon="-0.483421">
        <ele>1300.5</ele>
        <time>2018-07-22T11:17:01.000Z</time>
      </trkpt>
      <trkpt lat="42.316538" lon="-0.483416">
        <ele>1300.4</ele>
        <time>2018-07-22T11:17:02.000Z</time>
      </trkpt>
      <trkpt lat="42.316533" lon="-0.48341">
        <ele>1300.2</ele>
        <time>2018-07-22T11:17:03.000Z</time>
      </trkpt>
      <trkpt lat="42.316527" lon="-0.483405">
        <ele>1300.1</ele>
        <time>2018-07-22T11:17:04.000Z</time>
      </trkpt>
      <trkpt lat="42.316522" lon="-0.4834">
        <ele>1299.9</ele>
        <time>2018-07-22T11:17:05.000Z</time>
      </trkpt>
      <trkpt lat="42.316517" lon="-0.483395">
        <ele>1299.8</ele>
        <time>2018-07-22T11:17:06.000Z</time>
      </trkpt>
      <trkpt lat="42.316511" lon="-0.48339">
        <ele>1299.7</ele>
        <time>2018-07-22T11:17:07.000Z</time>
      </trkpt>
      <trkpt lat="42.316506" lon="-0.483385">
        <ele>1299.6</ele>
        <time>2018-07-22T11:17:08.000Z</time>
      </trkpt>
      <trkpt lat="42.316502" lon="-0.483381">
        <ele>1299.4</ele>
        <time>2018-07-22T11:17:09.000Z</time>
      </trkpt>
      <trkpt lat="42.316497" lon="-0.483377">
        <ele>1299.4</ele>
        <time>2018-07-22T11:17:10.000Z</time>
      </trkpt>
      <trkpt lat="42.316493" lon="-0.483372">
        <ele>1299.2</ele>
        <time>2018-07-22T11:17:11.000Z</time>
      </trkpt>
      <trkpt lat="42.31649" lon="-0.483368">
        <ele>1299.1</ele>
        <time>2018-07-22T11:17:12.000Z</time>
      </trkpt>
      <trkpt lat="42.316486" lon="-0.483363">
        <ele>1298.9</ele>
        <time>2018-07-22T11:17:13.000Z</time>
      </trkpt>
      <trkpt lat="42.316482" lon="-0.483357">
        <ele>1298.7</ele>
        <time>2018-07-22T11:17:14.000Z</time>
      </trkpt>
      <trkpt lat="42.316478" lon="-0.483349">
        <ele>1298.4</ele>
        <time>2018-07-22T11:17:15.000Z</time>
      </trkpt>
      <trkpt lat="42.316474" lon="-0.483342">
        <ele>1298.1</ele>
        <time>2018-07-22T11:17:16.000Z</time>
      </trkpt>
      <trkpt lat="42.316469" lon="-0.483335">
        <ele>1297.8</ele>
        <time>2018-07-22T11:17:17.000Z</time>
      </trkpt>
      <trkpt lat="42.316465" lon="-0.483329">
        <ele>1297.6</ele>
        <time>2018-07-22T11:17:18.000Z</time>
      </trkpt>
      <trkpt lat="42.316461" lon="-0.483325">
        <ele>1297.5</ele>
        <time>2018-07-22T11:17:19.000Z</time>
      </trkpt>
      <trkpt lat="42.316457" lon="-0.48332">
        <ele>1297.4</ele>
        <time>2018-07-22T11:17:20.000Z</time>
      </trkpt>
      <trkpt lat="42.316453" lon="-0.483315">
        <ele>1297.2</ele>
        <time>2018-07-22T11:17:21.000Z</time>
      </trkpt>
      <trkpt lat="42.31645" lon="-0.483308">
        <ele>1296.9</ele>
        <time>2018-07-22T11:17:22.000Z</time>
      </trkpt>
      <trkpt lat="42.316447" lon="-0.483301">
        <ele>1296.7</ele>
        <time>2018-07-22T11:17:23.000Z</time>
      </trkpt>
      <trkpt lat="42.316444" lon="-0.483292">
        <ele>1296.3</ele>
        <time>2018-07-22T11:17:24.000Z</time>
      </trkpt>
      <trkpt lat="42.31644" lon="-0.483283">
        <ele>1296.0</ele>
        <time>2018-07-22T11:17:25.000Z</time>
      </trkpt>
      <trkpt lat="42.316436" lon="-0.483274">
        <ele>1295.6</ele>
        <time>2018-07-22T11:17:26.000Z</time>
      </trkpt>
      <trkpt lat="42.316432" lon="-0.483265">
        <ele>1295.3</ele>
        <time>2018-07-22T11:17:27.000Z</time>
      </trkpt>
      <trkpt lat="42.316427" lon="-0.483255">
        <ele>1294.9</ele>
        <time>2018-07-22T11:17:28.000Z</time>
      </trkpt>
      <trkpt lat="42.316422" lon="-0.483246">
        <ele>1294.6</ele>
        <time>2018-07-22T11:17:29.000Z</time>
      </trkpt>
      <trkpt lat="42.316417" lon="-0.483238">
        <ele>1294.3</ele>
        <time>2018-07-22T11:17:30.000Z</time>
      </trkpt>
      <trkpt lat="42.316411" lon="-0.48323">
        <ele>1294.0</ele>
        <time>2018-07-22T11:17:31.000Z</time>
      </trkpt>
      <trkpt lat="42.316405" lon="-0.483223">
        <ele>1293.8</ele>
        <time>2018-07-22T11:17:32.000Z</time>
      </trkpt>
      <trkpt lat="42.316399" lon="-0.483217">
        <ele>1293.7</ele>
        <time>2018-07-22T11:17:33.000Z</time>
      </trkpt>
      <trkpt lat="42.316392" lon="-0.483211">
        <ele>1293.6</ele>
        <time>2018-07-22T11:17:34.000Z</time>
      </trkpt>
      <trkpt lat="42.316386" lon="-0.483205">
        <ele>1293.4</ele>
        <time>2018-07-22T11:17:35.000Z</time>
      </trkpt>
      <trkpt lat="42.316379" lon="-0.483198">
        <ele>1293.3</ele>
        <time>2018-07-22T11:17:36.000Z</time>
      </trkpt>
      <trkpt lat="42.316372" lon="-0.483191">
        <ele>1293.1</ele>
        <time>2018-07-22T11:17:37.000Z</time>
      </trkpt>
      <trkpt lat="42.316366" lon="-0.483182">
        <ele>1292.8</ele>
        <time>2018-07-22T11:17:38.000Z</time>
      </trkpt>
      <trkpt lat="42.316359" lon="-0.483174">
        <ele>1292.6</ele>
        <time>2018-07-22T11:17:39.000Z</time>
      </trkpt>
      <trkpt lat="42.316352" lon="-0.483164">
        <ele>1292.2</ele>
        <time>2018-07-22T11:17:40.000Z</time>
      </trkpt>
      <trkpt lat="42.316346" lon="-0.483154">
        <ele>1291.9</ele>
        <time>2018-07-22T11:17:41.000Z</time>
      </trkpt>
      <trkpt lat="42.31634" lon="-0.483144">
        <ele>1291.6</ele>
        <time>2018-07-22T11:17:42.000Z</time>
      </trkpt>
      <trkpt lat="42.316333" lon="-0.483134">
        <ele>1291.2</ele>
        <time>2018-07-22T11:17:43.000Z</time>
      </trkpt>
      <trkpt lat="42.316327" lon="-0.483123">
        <ele>1290.9</ele>
        <time>2018-07-22T11:17:44.000Z</time>
      </trkpt>
      <trkpt lat="42.316321" lon="-0.483113">
        <ele>1290.5</ele>
        <time>2018-07-22T11:17:45.000Z</time>
      </trkpt>
      <trkpt lat="42.316316" lon="-0.483103">
        <ele>1290.2</ele>
        <time>2018-07-22T11:17:46.000Z</time>
      </trkpt>
      <trkpt lat="42.31631" lon="-0.483093">
        <ele>1289.8</ele>
        <time>2018-07-22T11:17:47.000Z</time>
      </trkpt>
      <trkpt lat="42.316305" lon="-0.483083">
        <ele>1289.5</ele>
        <time>2018-07-22T11:17:48.000Z</time>
      </trkpt>
      <trkpt lat="42.3163" lon="-0.483074">
        <ele>1289.1</ele>
        <time>2018-07-22T11:17:49.000Z</time>
      </trkpt>
      <trkpt lat="42.316296" lon="-0.483065">
        <ele>1288.8</ele>
        <time>2018-07-22T11:17:50.000Z</time>
      </trkpt>
      <trkpt lat="42.316291" lon="-0.483056">
        <ele>1288.5</ele>
        <time>2018-07-22T11:17:51.000Z</time>
      </trkpt>
      <trkpt lat="42.316287" lon="-0.483048">
        <ele>1288.2</ele>
        <time>2018-07-22T11:17:52.000Z</time>
      </trkpt>
      <trkpt lat="42.316283" lon="-0.48304">
        <ele>1287.9</ele>
        <time>2018-07-22T11:17:53.000Z</time>
      </trkpt>
      <trkpt lat="42.316279" lon="-0.483032">
        <ele>1287.6</ele>
        <time>2018-07-22T11:17:54.000Z</time>
      </trkpt>
      <trkpt lat="42.316275" lon="-0.483024">
        <ele>1287.3</ele>
        <time>2018-07-22T11:17:55.000Z</time>
      </trkpt>
      <trkpt lat="42.316271" lon="-0.483016">
        <ele>1287.0</ele>
        <time>2018-07-22T11:17:56.000Z</time>
      </trkpt>
      <trkpt lat="42.316268" lon="-0.483009">
        <ele>1286.8</ele>
        <time>2018-07-22T11:17:57.000Z</time>
      </trkpt>
      <trkpt lat="42.316264" lon="-0.483001">
        <ele>1286.5</ele>
        <time>2018-07-22T11:17:58.000Z</time>
      </trkpt>
      <trkpt lat="42.316261" lon="-0.482993">
        <ele>1286.2</ele>
        <time>2018-07-22T11:17:59.000Z</time>
      </trkpt>
      <trkpt lat="42.316257" lon="-0.482986">
        <ele>1285.9</ele>
        <time>2018-07-22T11:18:00.000Z</time>
      </trkpt>
      <trkpt lat="42.316254" lon="-0.482978">
        <ele>1285.6</ele>
        <time>2018-07-22T11:18:01.000Z</time>
      </trkpt>
      <trkpt lat="42.31625" lon="-0.48297">
        <ele>1285.3</ele>
        <time>2018-07-22T11:18:02.000Z</time>
      </trkpt>
      <trkpt lat="42.316247" lon="-0.482963">
        <ele>1285.1</ele>
        <time>2018-07-22T11:18:03.000Z</time>
      </trkpt>
      <trkpt lat="42.316243" lon="-0.482955">
        <ele>1284.8</ele>
        <time>2018-07-22T11:18:04.000Z</time>
      </trkpt>
      <trkpt lat="42.316239" lon="-0.482948">
        <ele>1284.6</ele>
        <time>2018-07-22T11:18:05.000Z</time>
      </trkpt>
      <trkpt lat="42.316235" lon="-0.482941">
        <ele>1284.3</ele>
        <time>2018-07-22T11:18:06.000Z</time>
      </trkpt>
      <trkpt lat="42.316231" lon="-0.482934">
        <ele>1284.1</ele>
        <time>2018-07-22T11:18:07.000Z</time>
      </trkpt>
      <trkpt lat="42.316226" lon="-0.482927">
        <ele>1283.9</ele>
        <time>2018-07-22T11:18:08.000Z</time>
      </trkpt>
      <trkpt lat="42.316222" lon="-0.48292">
        <ele>1283.6</ele>
        <time>2018-07-22T11:18:09.000Z</time>
      </trkpt>
      <trkpt lat="42.316217" lon="-0.482913">
        <ele>1283.4</ele>
        <time>2018-07-22T11:18:10.000Z</time>
      </trkpt>
      <trkpt lat="42.316211" lon="-0.482907">
        <ele>1283.3</ele>
        <time>2018-07-22T11:18:11.000Z</time>
      </trkpt>
      <trkpt lat="42.316205" lon="-0.4829">
        <ele>1283.1</ele>
        <time>2018-07-22T11:18:12.000Z</time>
      </trkpt>
      <trkpt lat="42.3162" lon="-0.482894">
        <ele>1282.9</ele>
        <time>2018-07-22T11:18:13.000Z</time>
      </trkpt>
      <trkpt lat="42.316194" lon="-0.482888">
        <ele>1282.8</ele>
        <time>2018-07-22T11:18:14.000Z</time>
      </trkpt>
      <trkpt lat="42.316187" lon="-0.482881">
        <ele>1282.7</ele>
        <time>2018-07-22T11:18:15.000Z</time>
      </trkpt>
      <trkpt lat="42.316181" lon="-0.482875">
        <ele>1282.5</ele>
        <time>2018-07-22T11:18:16.000Z</time>
      </trkpt>
      <trkpt lat="42.316174" lon="-0.482869">
        <ele>1282.4</ele>
        <time>2018-07-22T11:18:17.000Z</time>
      </trkpt>
      <trkpt lat="42.316168" lon="-0.482863">
        <ele>1282.3</ele>
        <time>2018-07-22T11:18:18.000Z</time>
      </trkpt>
      <trkpt lat="42.316161" lon="-0.482858">
        <ele>1282.2</ele>
        <time>2018-07-22T11:18:19.000Z</time>
      </trkpt>
      <trkpt lat="42.316154" lon="-0.482852">
        <ele>1282.1</ele>
        <time>2018-07-22T11:18:20.000Z</time>
      </trkpt>
      <trkpt lat="42.316147" lon="-0.482846">
        <ele>1282.0</ele>
        <time>2018-07-22T11:18:21.000Z</time>
      </trkpt>
      <trkpt lat="42.31614" lon="-0.48284">
        <ele>1281.9</ele>
        <time>2018-07-22T11:18:22.000Z</time>
      </trkpt>
      <trkpt lat="42.316133" lon="-0.482834">
        <ele>1281.8</ele>
        <time>2018-07-22T11:18:23.000Z</time>
      </trkpt>
      <trkpt lat="42.316126" lon="-0.482828">
        <ele>1281.7</ele>
        <time>2018-07-22T11:18:24.000Z</time>
      </trkpt>
      <trkpt lat="42.316119" lon="-0.482822">
        <ele>1281.6</ele>
        <time>2018-07-22T11:18:25.000Z</time>
      </trkpt>
      <trkpt lat="42.316112" lon="-0.482817">
        <ele>1281.5</ele>
        <time>2018-07-22T11:18:26.000Z</time>
      </trkpt>
      <trkpt lat="42.316105" lon="-0.482811">
        <ele>1281.4</ele>
        <time>2018-07-22T11:18:27.000Z</time>
      </trkpt>
      <trkpt lat="42.316098" lon="-0.482805">
        <ele>1281.3</ele>
        <time>2018-07-22T11:18:28.000Z</time>
      </trkpt>
      <trkpt lat="42.316092" lon="-0.482799">
        <ele>1281.2</ele>
        <time>2018-07-22T11:18:29.000Z</time>
      </trkpt>
      <trkpt lat="42.316085" lon="-0.482792">
        <ele>1281.0</ele>
        <time>2018-07-22T11:18:30.000Z</time>
      </trkpt>
      <trkpt lat="42.316079" lon="-0.482786">
        <ele>1280.9</ele>
        <time>2018-07-22T11:18:31.000Z</time>
      </trkpt>
      <trkpt lat="42.316072" lon="-0.48278">
        <ele>1280.8</ele>
        <time>2018-07-22T11:18:32.000Z</time>
      </trkpt>
      <trkpt lat="42.316066" lon="-0.482774">
        <ele>1280.7</ele>
        <time>2018-07-22T11:18:33.000Z</time>
      </trkpt>
      <trkpt lat="42.316059" lon="-0.482767">
        <ele>1280.5</ele>
        <time>2018-07-22T11:18:34.000Z</time>
      </trkpt>
      <trkpt lat="42.316053" lon="-0.482761">
        <ele>1280.4</ele>
        <time>2018-07-22T11:18:35.000Z</time>
      </trkpt>
      <trkpt lat="42.316046" lon="-0.482756">
        <ele>1280.3</ele>
        <time>2018-07-22T11:18:36.000Z</time>
      </trkpt>
      <trkpt lat="42.316039" lon="-0.48275">
        <ele>1280.2</ele>
        <time>2018-07-22T11:18:37.000Z</time>
      </trkpt>
      <trkpt lat="42.316032" lon="-0.482745">
        <ele>1280.2</ele>
        <time>2018-07-22T11:18:38.000Z</time>
      </trkpt>
      <trkpt lat="42.316025" lon="-0.482741">
        <ele>1280.2</ele>
        <time>2018-07-22T11:18:39.000Z</time>
      </trkpt>
      <trkpt lat="42.316017" lon="-0.482736">
        <ele>1280.2</ele>
        <time>2018-07-22T11:18:40.000Z</time>
      </trkpt>
      <trkpt lat="42.316008" lon="-0.482733">
        <ele>1280.3</ele>
        <time>2018-07-22T11:18:41.000Z</time>
      </trkpt>
      <trkpt lat="42.315999" lon="-0.48273">
        <ele>1280.4</ele>
        <time>2018-07-22T11:18:42.000Z</time>
      </trkpt>
      <trkpt lat="42.315991" lon="-0.482727">
        <ele>1280.4</ele>
        <time>2018-07-22T11:18:43.000Z</time>
      </trkpt>
      <trkpt lat="42.315983" lon="-0.482725">
        <ele>1280.5</ele>
        <time>2018-07-22T11:18:44.000Z</time>
      </trkpt>
      <trkpt lat="42.315978" lon="-0.482723">
        <ele>1280.6</ele>
        <time>2018-07-22T11:18:45.000Z</time>
      </trkpt>
      <trkpt lat="42.315975" lon="-0.482721">
        <ele>1280.6</ele>
        <time>2018-07-22T11:18:46.000Z</time>
      </trkpt>
      <trkpt lat="42.315972" lon="-0.482719">
        <ele>1280.6</ele>
        <time>2018-07-22T11:18:47.000Z</time>
      </trkpt>
      <trkpt lat="42.315969" lon="-0.482718">
        <ele>1280.6</ele>
        <time>2018-07-22T11:18:48.000Z</time>
      </trkpt>
      <trkpt lat="42.315966" lon="-0.482716">
        <ele>1280.6</ele>
        <time>2018-07-22T11:18:49.000Z</time>
      </trkpt>
      <trkpt lat="42.31596" lon="-0.482712">
        <ele>1280.5</ele>
        <time>2018-07-22T11:18:50.000Z</time>
      </trkpt>
      <trkpt lat="42.315953" lon="-0.482706">
        <ele>1280.4</ele>
        <time>2018-07-22T11:18:51.000Z</time>
      </trkpt>
      <trkpt lat="42.315947" lon="-0.482697">
        <ele>1280.2</ele>
        <time>2018-07-22T11:18:52.000Z</time>
      </trkpt>
      <trkpt lat="42.315941" lon="-0.482688">
        <ele>1279.9</ele>
        <time>2018-07-22T11:18:53.000Z</time>
      </trkpt>
      <trkpt lat="42.315936" lon="-0.482679">
        <ele>1279.6</ele>
        <time>2018-07-22T11:18:54.000Z</time>
      </trkpt>
      <trkpt lat="42.31593" lon="-0.482671">
        <ele>1279.4</ele>
        <time>2018-07-22T11:18:55.000Z</time>
      </trkpt>
      <trkpt lat="42.315925" lon="-0.482662">
        <ele>1279.1</ele>
        <time>2018-07-22T11:18:56.000Z</time>
      </trkpt>
      <trkpt lat="42.31592" lon="-0.482653">
        <ele>1278.8</ele>
        <time>2018-07-22T11:18:57.000Z</time>
      </trkpt>
      <trkpt lat="42.315916" lon="-0.482644">
        <ele>1278.5</ele>
        <time>2018-07-22T11:18:58.000Z</time>
      </trkpt>
      <trkpt lat="42.315912" lon="-0.482636">
        <ele>1278.2</ele>
        <time>2018-07-22T11:18:59.000Z</time>
      </trkpt>
      <trkpt lat="42.315908" lon="-0.482627">
        <ele>1277.9</ele>
        <time>2018-07-22T11:19:00.000Z</time>
      </trkpt>
      <trkpt lat="42.315904" lon="-0.482618">
        <ele>1277.6</ele>
        <time>2018-07-22T11:19:01.000Z</time>
      </trkpt>
      <trkpt lat="42.3159" lon="-0.48261">
        <ele>1277.3</ele>
        <time>2018-07-22T11:19:02.000Z</time>
      </trkpt>
      <trkpt lat="42.315897" lon="-0.482602">
        <ele>1277.0</ele>
        <time>2018-07-22T11:19:03.000Z</time>
      </trkpt>
      <trkpt lat="42.315894" lon="-0.482594">
        <ele>1276.7</ele>
        <time>2018-07-22T11:19:04.000Z</time>
      </trkpt>
      <trkpt lat="42.315891" lon="-0.482585">
        <ele>1276.4</ele>
        <time>2018-07-22T11:19:05.000Z</time>
      </trkpt>
      <trkpt lat="42.315889" lon="-0.482577">
        <ele>1276.1</ele>
        <time>2018-07-22T11:19:06.000Z</time>
      </trkpt>
      <trkpt lat="42.315886" lon="-0.482569">
        <ele>1275.8</ele>
        <time>2018-07-22T11:19:07.000Z</time>
      </trkpt>
      <trkpt lat="42.315884" lon="-0.482561">
        <ele>1275.5</ele>
        <time>2018-07-22T11:19:08.000Z</time>
      </trkpt>
      <trkpt lat="42.315882" lon="-0.482552">
        <ele>1275.1</ele>
        <time>2018-07-22T11:19:09.000Z</time>
      </trkpt>
      <trkpt lat="42.315879" lon="-0.482544">
        <ele>1274.8</ele>
        <time>2018-07-22T11:19:10.000Z</time>
      </trkpt>
      <trkpt lat="42.315877" lon="-0.482535">
        <ele>1274.4</ele>
        <time>2018-07-22T11:19:11.000Z</time>
      </trkpt>
      <trkpt lat="42.315875" lon="-0.482526">
        <ele>1274.1</ele>
        <time>2018-07-22T11:19:12.000Z</time>
      </trkpt>
      <trkpt lat="42.315872" lon="-0.482516">
        <ele>1273.7</ele>
        <time>2018-07-22T11:19:13.000Z</time>
      </trkpt>
      <trkpt lat="42.31587" lon="-0.482507">
        <ele>1273.3</ele>
        <time>2018-07-22T11:19:14.000Z</time>
      </trkpt>
      <trkpt lat="42.315867" lon="-0.482497">
        <ele>1273.0</ele>
        <time>2018-07-22T11:19:15.000Z</time>
      </trkpt>
      <trkpt lat="42.315865" lon="-0.482487">
        <ele>1272.7</ele>
        <time>2018-07-22T11:19:16.000Z</time>
      </trkpt>
      <trkpt lat="42.315862" lon="-0.482477">
        <ele>1272.5</ele>
        <time>2018-07-22T11:19:17.000Z</time>
      </trkpt>
      <trkpt lat="42.315859" lon="-0.482467">
        <ele>1272.3</ele>
        <time>2018-07-22T11:19:18.000Z</time>
      </trkpt>
      <trkpt lat="42.315857" lon="-0.482458">
        <ele>1272.0</ele>
        <time>2018-07-22T11:19:19.000Z</time>
      </trkpt>
      <trkpt lat="42.315854" lon="-0.482451">
        <ele>1271.9</ele>
        <time>2018-07-22T11:19:20.000Z</time>
      </trkpt>
      <trkpt lat="42.315852" lon="-0.482444">
        <ele>1271.7</ele>
        <time>2018-07-22T11:19:21.000Z</time>
      </trkpt>
      <trkpt lat="42.315851" lon="-0.482439">
        <ele>1271.6</ele>
        <time>2018-07-22T11:19:22.000Z</time>
      </trkpt>
      <trkpt lat="42.31585" lon="-0.482435">
        <ele>1271.5</ele>
        <time>2018-07-22T11:19:23.000Z</time>
      </trkpt>
      <trkpt lat="42.315849" lon="-0.482431">
        <ele>1271.4</ele>
        <time>2018-07-22T11:19:24.000Z</time>
      </trkpt>
      <trkpt lat="42.315849" lon="-0.482428">
        <ele>1271.3</ele>
        <time>2018-07-22T11:19:25.000Z</time>
      </trkpt>
      <trkpt lat="42.315847" lon="-0.482424">
        <ele>1271.2</ele>
        <time>2018-07-22T11:19:26.000Z</time>
      </trkpt>
      <trkpt lat="42.315841" lon="-0.482414">
        <ele>1271.1</ele>
        <time>2018-07-22T11:19:27.000Z</time>
      </trkpt>
      <trkpt lat="42.315837" lon="-0.482407">
        <ele>1271.0</ele>
        <time>2018-07-22T11:19:28.000Z</time>
      </trkpt>
      <trkpt lat="42.315833" lon="-0.4824">
        <ele>1270.9</ele>
        <time>2018-07-22T11:19:29.000Z</time>
      </trkpt>
      <trkpt lat="42.315829" lon="-0.482391">
        <ele>1270.7</ele>
        <time>2018-07-22T11:19:30.000Z</time>
      </trkpt>
      <trkpt lat="42.315826" lon="-0.482382">
        <ele>1270.6</ele>
        <time>2018-07-22T11:19:31.000Z</time>
      </trkpt>
      <trkpt lat="42.315823" lon="-0.482373">
        <ele>1270.4</ele>
        <time>2018-07-22T11:19:32.000Z</time>
      </trkpt>
      <trkpt lat="42.315821" lon="-0.482364">
        <ele>1270.2</ele>
        <time>2018-07-22T11:19:33.000Z</time>
      </trkpt>
      <trkpt lat="42.315819" lon="-0.482355">
        <ele>1270.0</ele>
        <time>2018-07-22T11:19:34.000Z</time>
      </trkpt>
      <trkpt lat="42.315817" lon="-0.482346">
        <ele>1269.7</ele>
        <time>2018-07-22T11:19:35.000Z</time>
      </trkpt>
      <trkpt lat="42.315815" lon="-0.482337">
        <ele>1269.5</ele>
        <time>2018-07-22T11:19:36.000Z</time>
      </trkpt>
      <trkpt lat="42.315812" lon="-0.482328">
        <ele>1269.4</ele>
        <time>2018-07-22T11:19:37.000Z</time>
      </trkpt>
      <trkpt lat="42.315809" lon="-0.482319">
        <ele>1269.2</ele>
        <time>2018-07-22T11:19:38.000Z</time>
      </trkpt>
      <trkpt lat="42.315806" lon="-0.48231">
        <ele>1269.0</ele>
        <time>2018-07-22T11:19:39.000Z</time>
      </trkpt>
      <trkpt lat="42.315803" lon="-0.4823">
        <ele>1268.8</ele>
        <time>2018-07-22T11:19:40.000Z</time>
      </trkpt>
      <trkpt lat="42.3158" lon="-0.482291">
        <ele>1268.6</ele>
        <time>2018-07-22T11:19:41.000Z</time>
      </trkpt>
      <trkpt lat="42.315797" lon="-0.482282">
        <ele>1268.4</ele>
        <time>2018-07-22T11:19:42.000Z</time>
      </trkpt>
      <trkpt lat="42.315794" lon="-0.482273">
        <ele>1268.3</ele>
        <time>2018-07-22T11:19:43.000Z</time>
      </trkpt>
      <trkpt lat="42.315791" lon="-0.482264">
        <ele>1268.1</ele>
        <time>2018-07-22T11:19:44.000Z</time>
      </trkpt>
      <trkpt lat="42.315788" lon="-0.482255">
        <ele>1267.9</ele>
        <time>2018-07-22T11:19:45.000Z</time>
      </trkpt>
      <trkpt lat="42.315786" lon="-0.482246">
        <ele>1267.7</ele>
        <time>2018-07-22T11:19:46.000Z</time>
      </trkpt>
      <trkpt lat="42.315783" lon="-0.482238">
        <ele>1267.5</ele>
        <time>2018-07-22T11:19:47.000Z</time>
      </trkpt>
      <trkpt lat="42.315781" lon="-0.482229">
        <ele>1267.3</ele>
        <time>2018-07-22T11:19:48.000Z</time>
      </trkpt>
      <trkpt lat="42.31578" lon="-0.482221">
        <ele>1267.1</ele>
        <time>2018-07-22T11:19:49.000Z</time>
      </trkpt>
      <trkpt lat="42.315778" lon="-0.482213">
        <ele>1266.9</ele>
        <time>2018-07-22T11:19:50.000Z</time>
      </trkpt>
      <trkpt lat="42.315777" lon="-0.482205">
        <ele>1266.7</ele>
        <time>2018-07-22T11:19:51.000Z</time>
      </trkpt>
      <trkpt lat="42.315776" lon="-0.482197">
        <ele>1266.5</ele>
        <time>2018-07-22T11:19:52.000Z</time>
      </trkpt>
      <trkpt lat="42.315775" lon="-0.482189">
        <ele>1266.3</ele>
        <time>2018-07-22T11:19:53.000Z</time>
      </trkpt>
      <trkpt lat="42.315774" lon="-0.482181">
        <ele>1266.1</ele>
        <time>2018-07-22T11:19:54.000Z</time>
      </trkpt>
      <trkpt lat="42.315773" lon="-0.482173">
        <ele>1265.9</ele>
        <time>2018-07-22T11:19:55.000Z</time>
      </trkpt>
      <trkpt lat="42.315773" lon="-0.482165">
        <ele>1265.6</ele>
        <time>2018-07-22T11:19:56.000Z</time>
      </trkpt>
      <trkpt lat="42.315772" lon="-0.482157">
        <ele>1265.4</ele>
        <time>2018-07-22T11:19:57.000Z</time>
      </trkpt>
      <trkpt lat="42.315771" lon="-0.482149">
        <ele>1265.2</ele>
        <time>2018-07-22T11:19:58.000Z</time>
      </trkpt>
      <trkpt lat="42.315771" lon="-0.48214">
        <ele>1264.9</ele>
        <time>2018-07-22T11:19:59.000Z</time>
      </trkpt>
      <trkpt lat="42.31577" lon="-0.482132">
        <ele>1264.7</ele>
        <time>2018-07-22T11:20:00.000Z</time>
      </trkpt>
      <trkpt lat="42.315769" lon="-0.482124">
        <ele>1264.5</ele>
        <time>2018-07-22T11:20:01.000Z</time>
      </trkpt>
      <trkpt lat="42.315769" lon="-0.482115">
        <ele>1264.2</ele>
        <time>2018-07-22T11:20:02.000Z</time>
      </trkpt>
      <trkpt lat="42.315768" lon="-0.482107">
        <ele>1264.0</ele>
        <time>2018-07-22T11:20:03.000Z</time>
      </trkpt>
      <trkpt lat="42.315767" lon="-0.482099">
        <ele>1263.8</ele>
        <time>2018-07-22T11:20:04.000Z</time>
      </trkpt>
      <trkpt lat="42.315767" lon="-0.482091">
        <ele>1263.5</ele>
        <time>2018-07-22T11:20:05.000Z</time>
      </trkpt>
      <trkpt lat="42.315767" lon="-0.482083">
        <ele>1263.3</ele>
        <time>2018-07-22T11:20:06.000Z</time>
      </trkpt>
      <trkpt lat="42.315766" lon="-0.482075">
        <ele>1263.0</ele>
        <time>2018-07-22T11:20:07.000Z</time>
      </trkpt>
      <trkpt lat="42.315766" lon="-0.482068">
        <ele>1262.8</ele>
        <time>2018-07-22T11:20:08.000Z</time>
      </trkpt>
      <trkpt lat="42.315766" lon="-0.482061">
        <ele>1262.6</ele>
        <time>2018-07-22T11:20:09.000Z</time>
      </trkpt>
      <trkpt lat="42.315765" lon="-0.482054">
        <ele>1262.4</ele>
        <time>2018-07-22T11:20:10.000Z</time>
      </trkpt>
      <trkpt lat="42.315765" lon="-0.482048">
        <ele>1262.2</ele>
        <time>2018-07-22T11:20:11.000Z</time>
      </trkpt>
      <trkpt lat="42.315765" lon="-0.482043">
        <ele>1262.1</ele>
        <time>2018-07-22T11:20:12.000Z</time>
      </trkpt>
      <trkpt lat="42.315765" lon="-0.482038">
        <ele>1261.9</ele>
        <time>2018-07-22T11:20:13.000Z</time>
      </trkpt>
      <trkpt lat="42.315765" lon="-0.482033">
        <ele>1261.8</ele>
        <time>2018-07-22T11:20:14.000Z</time>
      </trkpt>
      <trkpt lat="42.315765" lon="-0.482029">
        <ele>1261.6</ele>
        <time>2018-07-22T11:20:15.000Z</time>
      </trkpt>
      <trkpt lat="42.315765" lon="-0.482026">
        <ele>1261.6</ele>
        <time>2018-07-22T11:20:16.000Z</time>
      </trkpt>
      <trkpt lat="42.315764" lon="-0.482022">
        <ele>1261.5</ele>
        <time>2018-07-22T11:20:17.000Z</time>
      </trkpt>
      <trkpt lat="42.315764" lon="-0.482019">
        <ele>1261.4</ele>
        <time>2018-07-22T11:20:18.000Z</time>
      </trkpt>
      <trkpt lat="42.315764" lon="-0.482014">
        <ele>1261.2</ele>
        <time>2018-07-22T11:20:19.000Z</time>
      </trkpt>
      <trkpt lat="42.315764" lon="-0.48201">
        <ele>1261.1</ele>
        <time>2018-07-22T11:20:20.000Z</time>
      </trkpt>
      <trkpt lat="42.315764" lon="-0.482004">
        <ele>1260.9</ele>
        <time>2018-07-22T11:20:21.000Z</time>
      </trkpt>
      <trkpt lat="42.315763" lon="-0.481999">
        <ele>1260.8</ele>
        <time>2018-07-22T11:20:22.000Z</time>
      </trkpt>
      <trkpt lat="42.315763" lon="-0.481993">
        <ele>1260.6</ele>
        <time>2018-07-22T11:20:23.000Z</time>
      </trkpt>
      <trkpt lat="42.315763" lon="-0.481988">
        <ele>1260.4</ele>
        <time>2018-07-22T11:20:24.000Z</time>
      </trkpt>
      <trkpt lat="42.315764" lon="-0.481981">
        <ele>1260.2</ele>
        <time>2018-07-22T11:20:25.000Z</time>
      </trkpt>
      <trkpt lat="42.315765" lon="-0.481972">
        <ele>1259.9</ele>
        <time>2018-07-22T11:20:26.000Z</time>
      </trkpt>
      <trkpt lat="42.315766" lon="-0.481963">
        <ele>1259.6</ele>
        <time>2018-07-22T11:20:27.000Z</time>
      </trkpt>
      <trkpt lat="42.315768" lon="-0.481954">
        <ele>1259.2</ele>
        <time>2018-07-22T11:20:28.000Z</time>
      </trkpt>
      <trkpt lat="42.315769" lon="-0.481944">
        <ele>1258.9</ele>
        <time>2018-07-22T11:20:29.000Z</time>
      </trkpt>
      <trkpt lat="42.31577" lon="-0.481935">
        <ele>1258.6</ele>
        <time>2018-07-22T11:20:30.000Z</time>
      </trkpt>
      <trkpt lat="42.315771" lon="-0.481927">
        <ele>1258.3</ele>
        <time>2018-07-22T11:20:31.000Z</time>
      </trkpt>
      <trkpt lat="42.315771" lon="-0.481919">
        <ele>1258.0</ele>
        <time>2018-07-22T11:20:32.000Z</time>
      </trkpt>
      <trkpt lat="42.315772" lon="-0.481912">
        <ele>1257.8</ele>
        <time>2018-07-22T11:20:33.000Z</time>
      </trkpt>
      <trkpt lat="42.315772" lon="-0.481904">
        <ele>1257.5</ele>
        <time>2018-07-22T11:20:34.000Z</time>
      </trkpt>
      <trkpt lat="42.315772" lon="-0.481896">
        <ele>1257.3</ele>
        <time>2018-07-22T11:20:35.000Z</time>
      </trkpt>
      <trkpt lat="42.315771" lon="-0.481888">
        <ele>1257.1</ele>
        <time>2018-07-22T11:20:36.000Z</time>
      </trkpt>
      <trkpt lat="42.315771" lon="-0.481879">
        <ele>1256.8</ele>
        <time>2018-07-22T11:20:37.000Z</time>
      </trkpt>
      <trkpt lat="42.315771" lon="-0.48187">
        <ele>1256.5</ele>
        <time>2018-07-22T11:20:38.000Z</time>
      </trkpt>
      <trkpt lat="42.31577" lon="-0.481861">
        <ele>1256.2</ele>
        <time>2018-07-22T11:20:39.000Z</time>
      </trkpt>
      <trkpt lat="42.31577" lon="-0.481853">
        <ele>1256.0</ele>
        <time>2018-07-22T11:20:40.000Z</time>
      </trkpt>
      <trkpt lat="42.31577" lon="-0.481847">
        <ele>1255.8</ele>
        <time>2018-07-22T11:20:41.000Z</time>
      </trkpt>
      <trkpt lat="42.31577" lon="-0.481843">
        <ele>1255.7</ele>
        <time>2018-07-22T11:20:42.000Z</time>
      </trkpt>
      <trkpt lat="42.31577" lon="-0.48184">
        <ele>1255.6</ele>
        <time>2018-07-22T11:20:43.000Z</time>
      </trkpt>
      <trkpt lat="42.31577" lon="-0.481838">
        <ele>1255.5</ele>
        <time>2018-07-22T11:20:44.000Z</time>
      </trkpt>
      <trkpt lat="42.31577" lon="-0.481835">
        <ele>1255.4</ele>
        <time>2018-07-22T11:20:45.000Z</time>
      </trkpt>
      <trkpt lat="42.31577" lon="-0.481831">
        <ele>1255.3</ele>
        <time>2018-07-22T11:20:46.000Z</time>
      </trkpt>
      <trkpt lat="42.315769" lon="-0.481825">
        <ele>1255.2</ele>
        <time>2018-07-22T11:20:47.000Z</time>
      </trkpt>
      <trkpt lat="42.31577" lon="-0.481816">
        <ele>1254.8</ele>
        <time>2018-07-22T11:20:48.000Z</time>
      </trkpt>
      <trkpt lat="42.31577" lon="-0.481807">
        <ele>1254.6</ele>
        <time>2018-07-22T11:20:49.000Z</time>
      </trkpt>
      <trkpt lat="42.31577" lon="-0.481799">
        <ele>1254.3</ele>
        <time>2018-07-22T11:20:50.000Z</time>
      </trkpt>
      <trkpt lat="42.31577" lon="-0.481795">
        <ele>1254.2</ele>
        <time>2018-07-22T11:20:51.000Z</time>
      </trkpt>
      <trkpt lat="42.31577" lon="-0.481793">
        <ele>1254.1</ele>
        <time>2018-07-22T11:20:52.000Z</time>
      </trkpt>
      <trkpt lat="42.31577" lon="-0.481789">
        <ele>1254.0</ele>
        <time>2018-07-22T11:20:53.000Z</time>
      </trkpt>
      <trkpt lat="42.315771" lon="-0.481784">
        <ele>1253.8</ele>
        <time>2018-07-22T11:20:54.000Z</time>
      </trkpt>
      <trkpt lat="42.315773" lon="-0.481778">
        <ele>1253.6</ele>
        <time>2018-07-22T11:20:55.000Z</time>
      </trkpt>
      <trkpt lat="42.315775" lon="-0.481771">
        <ele>1253.3</ele>
        <time>2018-07-22T11:20:56.000Z</time>
      </trkpt>
      <trkpt lat="42.315777" lon="-0.481763">
        <ele>1253.0</ele>
        <time>2018-07-22T11:20:57.000Z</time>
      </trkpt>
      <trkpt lat="42.31578" lon="-0.481755">
        <ele>1252.6</ele>
        <time>2018-07-22T11:20:58.000Z</time>
      </trkpt>
      <trkpt lat="42.315783" lon="-0.481746">
        <ele>1252.2</ele>
        <time>2018-07-22T11:20:59.000Z</time>
      </trkpt>
      <trkpt lat="42.315786" lon="-0.481737">
        <ele>1251.8</ele>
        <time>2018-07-22T11:21:00.000Z</time>
      </trkpt>
      <trkpt lat="42.31579" lon="-0.481727">
        <ele>1251.4</ele>
        <time>2018-07-22T11:21:01.000Z</time>
      </trkpt>
      <trkpt lat="42.315793" lon="-0.481718">
        <ele>1251.0</ele>
        <time>2018-07-22T11:21:02.000Z</time>
      </trkpt>
      <trkpt lat="42.315797" lon="-0.481708">
        <ele>1250.6</ele>
        <time>2018-07-22T11:21:03.000Z</time>
      </trkpt>
      <trkpt lat="42.3158" lon="-0.481699">
        <ele>1250.2</ele>
        <time>2018-07-22T11:21:04.000Z</time>
      </trkpt>
      <trkpt lat="42.315803" lon="-0.48169">
        <ele>1249.8</ele>
        <time>2018-07-22T11:21:05.000Z</time>
      </trkpt>
      <trkpt lat="42.315806" lon="-0.481681">
        <ele>1249.4</ele>
        <time>2018-07-22T11:21:06.000Z</time>
      </trkpt>
      <trkpt lat="42.315809" lon="-0.481672">
        <ele>1249.0</ele>
        <time>2018-07-22T11:21:07.000Z</time>
      </trkpt>
      <trkpt lat="42.315812" lon="-0.481663">
        <ele>1248.6</ele>
        <time>2018-07-22T11:21:08.000Z</time>
      </trkpt>
      <trkpt lat="42.315815" lon="-0.481653">
        <ele>1248.3</ele>
        <time>2018-07-22T11:21:09.000Z</time>
      </trkpt>
      <trkpt lat="42.315818" lon="-0.481644">
        <ele>1248.0</ele>
        <time>2018-07-22T11:21:10.000Z</time>
      </trkpt>
      <trkpt lat="42.31582" lon="-0.481634">
        <ele>1247.6</ele>
        <time>2018-07-22T11:21:11.000Z</time>
      </trkpt>
      <trkpt lat="42.315822" lon="-0.481624">
        <ele>1247.3</ele>
        <time>2018-07-22T11:21:12.000Z</time>
      </trkpt>
      <trkpt lat="42.315824" lon="-0.481614">
        <ele>1247.0</ele>
        <time>2018-07-22T11:21:13.000Z</time>
      </trkpt>
      <trkpt lat="42.315826" lon="-0.481603">
        <ele>1246.6</ele>
        <time>2018-07-22T11:21:14.000Z</time>
      </trkpt>
      <trkpt lat="42.315828" lon="-0.481592">
        <ele>1246.3</ele>
        <time>2018-07-22T11:21:15.000Z</time>
      </trkpt>
      <trkpt lat="42.315829" lon="-0.481583">
        <ele>1246.0</ele>
        <time>2018-07-22T11:21:16.000Z</time>
      </trkpt>
      <trkpt lat="42.31583" lon="-0.481574">
        <ele>1245.8</ele>
        <time>2018-07-22T11:21:17.000Z</time>
      </trkpt>
      <trkpt lat="42.315831" lon="-0.481566">
        <ele>1245.5</ele>
        <time>2018-07-22T11:21:18.000Z</time>
      </trkpt>
      <trkpt lat="42.315831" lon="-0.481561">
        <ele>1245.4</ele>
        <time>2018-07-22T11:21:19.000Z</time>
      </trkpt>
      <trkpt lat="42.315831" lon="-0.481558">
        <ele>1245.3</ele>
        <time>2018-07-22T11:21:20.000Z</time>
      </trkpt>
      <trkpt lat="42.315831" lon="-0.481556">
        <ele>1245.3</ele>
        <time>2018-07-22T11:21:21.000Z</time>
      </trkpt>
      <trkpt lat="42.315832" lon="-0.481554">
        <ele>1245.2</ele>
        <time>2018-07-22T11:21:22.000Z</time>
      </trkpt>
      <trkpt lat="42.315833" lon="-0.481552">
        <ele>1245.1</ele>
        <time>2018-07-22T11:21:23.000Z</time>
      </trkpt>
      <trkpt lat="42.315835" lon="-0.481547">
        <ele>1244.9</ele>
        <time>2018-07-22T11:21:24.000Z</time>
      </trkpt>
      <trkpt lat="42.315838" lon="-0.48154">
        <ele>1244.7</ele>
        <time>2018-07-22T11:21:25.000Z</time>
      </trkpt>
      <trkpt lat="42.315841" lon="-0.48153">
        <ele>1244.3</ele>
        <time>2018-07-22T11:21:26.000Z</time>
      </trkpt>
      <trkpt lat="42.315844" lon="-0.48152">
        <ele>1244.0</ele>
        <time>2018-07-22T11:21:27.000Z</time>
      </trkpt>
      <trkpt lat="42.315846" lon="-0.481513">
        <ele>1243.7</ele>
        <time>2018-07-22T11:21:28.000Z</time>
      </trkpt>
      <trkpt lat="42.315847" lon="-0.481508">
        <ele>1243.6</ele>
        <time>2018-07-22T11:21:29.000Z</time>
      </trkpt>
      <trkpt lat="42.315848" lon="-0.481505">
        <ele>1243.5</ele>
        <time>2018-07-22T11:21:30.000Z</time>
      </trkpt>
      <trkpt lat="42.315849" lon="-0.481502">
        <ele>1243.3</ele>
        <time>2018-07-22T11:21:31.000Z</time>
      </trkpt>
      <trkpt lat="42.31585" lon="-0.481499">
        <ele>1243.2</ele>
        <time>2018-07-22T11:21:32.000Z</time>
      </trkpt>
      <trkpt lat="42.315851" lon="-0.481496">
        <ele>1243.1</ele>
        <time>2018-07-22T11:21:33.000Z</time>
      </trkpt>
      <trkpt lat="42.315851" lon="-0.481492">
        <ele>1243.0</ele>
        <time>2018-07-22T11:21:34.000Z</time>
      </trkpt>
      <trkpt lat="42.315852" lon="-0.481489">
        <ele>1242.9</ele>
        <time>2018-07-22T11:21:35.000Z</time>
      </trkpt>
      <trkpt lat="42.315852" lon="-0.481486">
        <ele>1242.8</ele>
        <time>2018-07-22T11:21:36.000Z</time>
      </trkpt>
      <trkpt lat="42.315853" lon="-0.481483">
        <ele>1242.7</ele>
        <time>2018-07-22T11:21:37.000Z</time>
      </trkpt>
      <trkpt lat="42.315853" lon="-0.481481">
        <ele>1242.7</ele>
        <time>2018-07-22T11:21:38.000Z</time>
      </trkpt>
      <trkpt lat="42.315853" lon="-0.481479">
        <ele>1242.6</ele>
        <time>2018-07-22T11:21:39.000Z</time>
      </trkpt>
      <trkpt lat="42.315856" lon="-0.481468">
        <ele>1242.3</ele>
        <time>2018-07-22T11:21:40.000Z</time>
      </trkpt>
      <trkpt lat="42.315858" lon="-0.481459">
        <ele>1242.0</ele>
        <time>2018-07-22T11:21:41.000Z</time>
      </trkpt>
      <trkpt lat="42.31586" lon="-0.481451">
        <ele>1241.7</ele>
        <time>2018-07-22T11:21:42.000Z</time>
      </trkpt>
      <trkpt lat="42.315862" lon="-0.481446">
        <ele>1241.5</ele>
        <time>2018-07-22T11:21:43.000Z</time>
      </trkpt>
      <trkpt lat="42.315864" lon="-0.481442">
        <ele>1241.3</ele>
        <time>2018-07-22T11:21:44.000Z</time>
      </trkpt>
      <trkpt lat="42.315865" lon="-0.48144">
        <ele>1241.3</ele>
        <time>2018-07-22T11:21:45.000Z</time>
      </trkpt>
      <trkpt lat="42.315867" lon="-0.481437">
        <ele>1241.1</ele>
        <time>2018-07-22T11:21:46.000Z</time>
      </trkpt>
      <trkpt lat="42.315868" lon="-0.481435">
        <ele>1241.0</ele>
        <time>2018-07-22T11:21:47.000Z</time>
      </trkpt>
      <trkpt lat="42.315869" lon="-0.481433">
        <ele>1241.0</ele>
        <time>2018-07-22T11:21:48.000Z</time>
      </trkpt>
      <trkpt lat="42.315869" lon="-0.481432">
        <ele>1240.9</ele>
        <time>2018-07-22T11:21:49.000Z</time>
      </trkpt>
      <trkpt lat="42.31587" lon="-0.481431">
        <ele>1240.9</ele>
        <time>2018-07-22T11:21:50.000Z</time>
      </trkpt>
      <trkpt lat="42.315871" lon="-0.48143">
        <ele>1240.8</ele>
        <time>2018-07-22T11:21:51.000Z</time>
      </trkpt>
      <trkpt lat="42.315871" lon="-0.481429">
        <ele>1240.8</ele>
        <time>2018-07-22T11:21:52.000Z</time>
      </trkpt>
      <trkpt lat="42.315871" lon="-0.481428">
        <ele>1240.8</ele>
        <time>2018-07-22T11:21:53.000Z</time>
      </trkpt>
      <trkpt lat="42.315871" lon="-0.481427">
        <ele>1240.7</ele>
        <time>2018-07-22T11:21:54.000Z</time>
      </trkpt>
      <trkpt lat="42.315872" lon="-0.481427">
        <ele>1240.7</ele>
        <time>2018-07-22T11:21:55.000Z</time>
      </trkpt>
      <trkpt lat="42.315872" lon="-0.481427">
        <ele>1240.7</ele>
        <time>2018-07-22T11:21:56.000Z</time>
      </trkpt>
      <trkpt lat="42.315872" lon="-0.481426">
        <ele>1240.7</ele>
        <time>2018-07-22T11:21:57.000Z</time>
      </trkpt>
      <trkpt lat="42.315872" lon="-0.481426">
        <ele>1240.7</ele>
        <time>2018-07-22T11:21:58.000Z</time>
      </trkpt>
      <trkpt lat="42.315872" lon="-0.481426">
        <ele>1240.7</ele>
        <time>2018-07-22T11:21:59.000Z</time>
      </trkpt>
      <trkpt lat="42.315872" lon="-0.481426">
        <ele>1240.7</ele>
        <time>2018-07-22T11:22:00.000Z</time>
      </trkpt>
      <trkpt lat="42.315872" lon="-0.481426">
        <ele>1240.7</ele>
        <time>2018-07-22T11:22:01.000Z</time>
      </trkpt>
      <trkpt lat="42.315872" lon="-0.481426">
        <ele>1240.7</ele>
        <time>2018-07-22T11:22:02.000Z</time>
      </trkpt>
      <trkpt lat="42.315872" lon="-0.481425">
        <ele>1240.7</ele>
        <time>2018-07-22T11:22:03.000Z</time>
      </trkpt>
      <trkpt lat="42.315872" lon="-0.481425">
        <ele>1240.7</ele>
        <time>2018-07-22T11:22:04.000Z</time>
      </trkpt>
      <trkpt lat="42.315872" lon="-0.481425">
        <ele>1240.7</ele>
        <time>2018-07-22T11:22:05.000Z</time>
      </trkpt>
      <trkpt lat="42.315872" lon="-0.481424">
        <ele>1240.6</ele>
        <time>2018-07-22T11:22:06.000Z</time>
      </trkpt>
      <trkpt lat="42.315873" lon="-0.481423">
        <ele>1240.6</ele>
        <time>2018-07-22T11:22:07.000Z</time>
      </trkpt>
      <trkpt lat="42.315873" lon="-0.481422">
        <ele>1240.5</ele>
        <time>2018-07-22T11:22:08.000Z</time>
      </trkpt>
      <trkpt lat="42.315873" lon="-0.481421">
        <ele>1240.5</ele>
        <time>2018-07-22T11:22:09.000Z</time>
      </trkpt>
      <trkpt lat="42.315874" lon="-0.48142">
        <ele>1240.5</ele>
        <time>2018-07-22T11:22:10.000Z</time>
      </trkpt>
      <trkpt lat="42.315874" lon="-0.481419">
        <ele>1240.4</ele>
        <time>2018-07-22T11:22:11.000Z</time>
      </trkpt>
      <trkpt lat="42.315875" lon="-0.481418">
        <ele>1240.4</ele>
        <time>2018-07-22T11:22:12.000Z</time>
      </trkpt>
      <trkpt lat="42.315876" lon="-0.481416">
        <ele>1240.3</ele>
        <time>2018-07-22T11:22:13.000Z</time>
      </trkpt>
      <trkpt lat="42.315876" lon="-0.481415">
        <ele>1240.3</ele>
        <time>2018-07-22T11:22:14.000Z</time>
      </trkpt>
      <trkpt lat="42.315876" lon="-0.481414">
        <ele>1240.3</ele>
        <time>2018-07-22T11:22:15.000Z</time>
      </trkpt>
      <trkpt lat="42.315877" lon="-0.481413">
        <ele>1240.2</ele>
        <time>2018-07-22T11:22:16.000Z</time>
      </trkpt>
      <trkpt lat="42.315877" lon="-0.481413">
        <ele>1240.2</ele>
        <time>2018-07-22T11:22:17.000Z</time>
      </trkpt>
      <trkpt lat="42.315877" lon="-0.481412">
        <ele>1240.2</ele>
        <time>2018-07-22T11:22:18.000Z</time>
      </trkpt>
      <trkpt lat="42.315877" lon="-0.481412">
        <ele>1240.2</ele>
        <time>2018-07-22T11:22:19.000Z</time>
      </trkpt>
      <trkpt lat="42.315877" lon="-0.481411">
        <ele>1240.1</ele>
        <time>2018-07-22T11:22:20.000Z</time>
      </trkpt>
      <trkpt lat="42.315878" lon="-0.48141">
        <ele>1240.1</ele>
        <time>2018-07-22T11:22:21.000Z</time>
      </trkpt>
      <trkpt lat="42.315879" lon="-0.481407">
        <ele>1240.0</ele>
        <time>2018-07-22T11:22:22.000Z</time>
      </trkpt>
      <trkpt lat="42.31588" lon="-0.481402">
        <ele>1239.8</ele>
        <time>2018-07-22T11:22:23.000Z</time>
      </trkpt>
      <trkpt lat="42.315882" lon="-0.481396">
        <ele>1239.6</ele>
        <time>2018-07-22T11:22:24.000Z</time>
      </trkpt>
      <trkpt lat="42.315885" lon="-0.481391">
        <ele>1239.4</ele>
        <time>2018-07-22T11:22:25.000Z</time>
      </trkpt>
      <trkpt lat="42.315889" lon="-0.481374">
        <ele>1238.8</ele>
        <time>2018-07-22T11:22:26.000Z</time>
      </trkpt>
      <trkpt lat="42.315892" lon="-0.481362">
        <ele>1238.4</ele>
        <time>2018-07-22T11:22:27.000Z</time>
      </trkpt>
      <trkpt lat="42.315894" lon="-0.481358">
        <ele>1238.3</ele>
        <time>2018-07-22T11:22:28.000Z</time>
      </trkpt>
      <trkpt lat="42.315895" lon="-0.481356">
        <ele>1238.2</ele>
        <time>2018-07-22T11:22:29.000Z</time>
      </trkpt>
      <trkpt lat="42.315895" lon="-0.481355">
        <ele>1238.1</ele>
        <time>2018-07-22T11:22:30.000Z</time>
      </trkpt>
      <trkpt lat="42.315896" lon="-0.481354">
        <ele>1238.1</ele>
        <time>2018-07-22T11:22:31.000Z</time>
      </trkpt>
      <trkpt lat="42.315896" lon="-0.481354">
        <ele>1238.1</ele>
        <time>2018-07-22T11:22:32.000Z</time>
      </trkpt>
      <trkpt lat="42.315896" lon="-0.481354">
        <ele>1238.1</ele>
        <time>2018-07-22T11:22:33.000Z</time>
      </trkpt>
      <trkpt lat="42.315896" lon="-0.481354">
        <ele>1238.1</ele>
        <time>2018-07-22T11:22:34.000Z</time>
      </trkpt>
      <trkpt lat="42.315896" lon="-0.481353">
        <ele>1238.1</ele>
        <time>2018-07-22T11:22:35.000Z</time>
      </trkpt>
      <trkpt lat="42.315897" lon="-0.481351">
        <ele>1238.0</ele>
        <time>2018-07-22T11:22:36.000Z</time>
      </trkpt>
      <trkpt lat="42.315899" lon="-0.481347">
        <ele>1237.8</ele>
        <time>2018-07-22T11:22:37.000Z</time>
      </trkpt>
      <trkpt lat="42.315901" lon="-0.481342">
        <ele>1237.6</ele>
        <time>2018-07-22T11:22:38.000Z</time>
      </trkpt>
      <trkpt lat="42.315905" lon="-0.481335">
        <ele>1237.3</ele>
        <time>2018-07-22T11:22:39.000Z</time>
      </trkpt>
      <trkpt lat="42.315909" lon="-0.481326">
        <ele>1237.0</ele>
        <time>2018-07-22T11:22:40.000Z</time>
      </trkpt>
      <trkpt lat="42.315913" lon="-0.481316">
        <ele>1236.6</ele>
        <time>2018-07-22T11:22:41.000Z</time>
      </trkpt>
      <trkpt lat="42.315917" lon="-0.481308">
        <ele>1236.3</ele>
        <time>2018-07-22T11:22:42.000Z</time>
      </trkpt>
      <trkpt lat="42.315919" lon="-0.481302">
        <ele>1236.0</ele>
        <time>2018-07-22T11:22:43.000Z</time>
      </trkpt>
      <trkpt lat="42.31592" lon="-0.481298">
        <ele>1235.9</ele>
        <time>2018-07-22T11:22:44.000Z</time>
      </trkpt>
      <trkpt lat="42.315921" lon="-0.481295">
        <ele>1235.8</ele>
        <time>2018-07-22T11:22:45.000Z</time>
      </trkpt>
      <trkpt lat="42.315921" lon="-0.481293">
        <ele>1235.7</ele>
        <time>2018-07-22T11:22:46.000Z</time>
      </trkpt>
      <trkpt lat="42.315922" lon="-0.48129">
        <ele>1235.6</ele>
        <time>2018-07-22T11:22:47.000Z</time>
      </trkpt>
      <trkpt lat="42.315923" lon="-0.481287">
        <ele>1235.5</ele>
        <time>2018-07-22T11:22:48.000Z</time>
      </trkpt>
      <trkpt lat="42.315923" lon="-0.481285">
        <ele>1235.5</ele>
        <time>2018-07-22T11:22:49.000Z</time>
      </trkpt>
      <trkpt lat="42.315924" lon="-0.481284">
        <ele>1235.4</ele>
        <time>2018-07-22T11:22:50.000Z</time>
      </trkpt>
      <trkpt lat="42.315924" lon="-0.481283">
        <ele>1235.4</ele>
        <time>2018-07-22T11:22:51.000Z</time>
      </trkpt>
      <trkpt lat="42.315926" lon="-0.48128">
        <ele>1235.3</ele>
        <time>2018-07-22T11:22:52.000Z</time>
      </trkpt>
      <trkpt lat="42.315931" lon="-0.481275">
        <ele>1235.0</ele>
        <time>2018-07-22T11:22:53.000Z</time>
      </trkpt>
      <trkpt lat="42.315941" lon="-0.481267">
        <ele>1234.4</ele>
        <time>2018-07-22T11:22:54.000Z</time>
      </trkpt>
      <trkpt lat="42.315954" lon="-0.481256">
        <ele>1233.7</ele>
        <time>2018-07-22T11:22:55.000Z</time>
      </trkpt>
      <trkpt lat="42.315965" lon="-0.481247">
        <ele>1233.2</ele>
        <time>2018-07-22T11:22:56.000Z</time>
      </trkpt>
      <trkpt lat="42.315973" lon="-0.48124">
        <ele>1232.7</ele>
        <time>2018-07-22T11:22:57.000Z</time>
      </trkpt>
      <trkpt lat="42.315978" lon="-0.481235">
        <ele>1232.4</ele>
        <time>2018-07-22T11:22:58.000Z</time>
      </trkpt>
      <trkpt lat="42.31598" lon="-0.481232">
        <ele>1232.3</ele>
        <time>2018-07-22T11:22:59.000Z</time>
      </trkpt>
      <trkpt lat="42.315982" lon="-0.481229">
        <ele>1232.2</ele>
        <time>2018-07-22T11:23:00.000Z</time>
      </trkpt>
      <trkpt lat="42.315984" lon="-0.481227">
        <ele>1232.0</ele>
        <time>2018-07-22T11:23:01.000Z</time>
      </trkpt>
      <trkpt lat="42.315987" lon="-0.481223">
        <ele>1231.8</ele>
        <time>2018-07-22T11:23:02.000Z</time>
      </trkpt>
      <trkpt lat="42.315991" lon="-0.481218">
        <ele>1231.6</ele>
        <time>2018-07-22T11:23:03.000Z</time>
      </trkpt>
      <trkpt lat="42.315996" lon="-0.481211">
        <ele>1231.2</ele>
        <time>2018-07-22T11:23:04.000Z</time>
      </trkpt>
      <trkpt lat="42.316" lon="-0.481204">
        <ele>1230.9</ele>
        <time>2018-07-22T11:23:05.000Z</time>
      </trkpt>
      <trkpt lat="42.316003" lon="-0.481198">
        <ele>1230.7</ele>
        <time>2018-07-22T11:23:06.000Z</time>
      </trkpt>
      <trkpt lat="42.316005" lon="-0.481193">
        <ele>1230.5</ele>
        <time>2018-07-22T11:23:07.000Z</time>
      </trkpt>
      <trkpt lat="42.316006" lon="-0.481188">
        <ele>1230.3</ele>
        <time>2018-07-22T11:23:08.000Z</time>
      </trkpt>
      <trkpt lat="42.316008" lon="-0.481185">
        <ele>1230.2</ele>
        <time>2018-07-22T11:23:09.000Z</time>
      </trkpt>
      <trkpt lat="42.316009" lon="-0.481182">
        <ele>1230.1</ele>
        <time>2018-07-22T11:23:10.000Z</time>
      </trkpt>
      <trkpt lat="42.316011" lon="-0.481179">
        <ele>1230.0</ele>
        <time>2018-07-22T11:23:11.000Z</time>
      </trkpt>
      <trkpt lat="42.316012" lon="-0.481176">
        <ele>1229.8</ele>
        <time>2018-07-22T11:23:12.000Z</time>
      </trkpt>
      <trkpt lat="42.316014" lon="-0.481173">
        <ele>1229.7</ele>
        <time>2018-07-22T11:23:13.000Z</time>
      </trkpt>
      <trkpt lat="42.316015" lon="-0.48117">
        <ele>1229.6</ele>
        <time>2018-07-22T11:23:14.000Z</time>
      </trkpt>
      <trkpt lat="42.316016" lon="-0.481168">
        <ele>1229.5</ele>
        <time>2018-07-22T11:23:15.000Z</time>
      </trkpt>
      <trkpt lat="42.316017" lon="-0.481165">
        <ele>1229.4</ele>
        <time>2018-07-22T11:23:16.000Z</time>
      </trkpt>
      <trkpt lat="42.316018" lon="-0.481163">
        <ele>1229.3</ele>
        <time>2018-07-22T11:23:17.000Z</time>
      </trkpt>
      <trkpt lat="42.316019" lon="-0.481161">
        <ele>1229.2</ele>
        <time>2018-07-22T11:23:18.000Z</time>
      </trkpt>
      <trkpt lat="42.31602" lon="-0.481159">
        <ele>1229.2</ele>
        <time>2018-07-22T11:23:19.000Z</time>
      </trkpt>
      <trkpt lat="42.316023" lon="-0.481152">
        <ele>1228.9</ele>
        <time>2018-07-22T11:23:20.000Z</time>
      </trkpt>
      <trkpt lat="42.316029" lon="-0.481139">
        <ele>1228.4</ele>
        <time>2018-07-22T11:23:21.000Z</time>
      </trkpt>
      <trkpt lat="42.316032" lon="-0.481133">
        <ele>1228.1</ele>
        <time>2018-07-22T11:23:22.000Z</time>
      </trkpt>
      <trkpt lat="42.316033" lon="-0.481131">
        <ele>1228.0</ele>
        <time>2018-07-22T11:23:23.000Z</time>
      </trkpt>
      <trkpt lat="42.316034" lon="-0.48113">
        <ele>1228.0</ele>
        <time>2018-07-22T11:23:24.000Z</time>
      </trkpt>
      <trkpt lat="42.316034" lon="-0.481129">
        <ele>1227.9</ele>
        <time>2018-07-22T11:23:25.000Z</time>
      </trkpt>
      <trkpt lat="42.316035" lon="-0.481128">
        <ele>1227.9</ele>
        <time>2018-07-22T11:23:26.000Z</time>
      </trkpt>
      <trkpt lat="42.316035" lon="-0.481127">
        <ele>1227.9</ele>
        <time>2018-07-22T11:23:27.000Z</time>
      </trkpt>
      <trkpt lat="42.316035" lon="-0.481126">
        <ele>1227.8</ele>
        <time>2018-07-22T11:23:28.000Z</time>
      </trkpt>
      <trkpt lat="42.316036" lon="-0.481125">
        <ele>1227.8</ele>
        <time>2018-07-22T11:23:29.000Z</time>
      </trkpt>
      <trkpt lat="42.316036" lon="-0.481123">
        <ele>1227.7</ele>
        <time>2018-07-22T11:23:30.000Z</time>
      </trkpt>
      <trkpt lat="42.316037" lon="-0.481122">
        <ele>1227.7</ele>
        <time>2018-07-22T11:23:31.000Z</time>
      </trkpt>
      <trkpt lat="42.316038" lon="-0.48112">
        <ele>1227.6</ele>
        <time>2018-07-22T11:23:32.000Z</time>
      </trkpt>
      <trkpt lat="42.31604" lon="-0.481117">
        <ele>1227.5</ele>
        <time>2018-07-22T11:23:33.000Z</time>
      </trkpt>
      <trkpt lat="42.316041" lon="-0.481114">
        <ele>1227.3</ele>
        <time>2018-07-22T11:23:34.000Z</time>
      </trkpt>
      <trkpt lat="42.316044" lon="-0.48111">
        <ele>1227.1</ele>
        <time>2018-07-22T11:23:35.000Z</time>
      </trkpt>
      <trkpt lat="42.316047" lon="-0.481105">
        <ele>1226.9</ele>
        <time>2018-07-22T11:23:36.000Z</time>
      </trkpt>
      <trkpt lat="42.316052" lon="-0.481098">
        <ele>1226.6</ele>
        <time>2018-07-22T11:23:37.000Z</time>
      </trkpt>
      <trkpt lat="42.316059" lon="-0.481088">
        <ele>1226.1</ele>
        <time>2018-07-22T11:23:38.000Z</time>
      </trkpt>
      <trkpt lat="42.316066" lon="-0.481077">
        <ele>1225.6</ele>
        <time>2018-07-22T11:23:39.000Z</time>
      </trkpt>
      <trkpt lat="42.31607" lon="-0.481067">
        <ele>1225.2</ele>
        <time>2018-07-22T11:23:40.000Z</time>
      </trkpt>
      <trkpt lat="42.316073" lon="-0.48106">
        <ele>1224.9</ele>
        <time>2018-07-22T11:23:41.000Z</time>
      </trkpt>
      <trkpt lat="42.316074" lon="-0.481056">
        <ele>1224.8</ele>
        <time>2018-07-22T11:23:42.000Z</time>
      </trkpt>
      <trkpt lat="42.316075" lon="-0.481053">
        <ele>1224.7</ele>
        <time>2018-07-22T11:23:43.000Z</time>
      </trkpt>
      <trkpt lat="42.316076" lon="-0.48105">
        <ele>1224.6</ele>
        <time>2018-07-22T11:23:44.000Z</time>
      </trkpt>
      <trkpt lat="42.316078" lon="-0.481045">
        <ele>1224.4</ele>
        <time>2018-07-22T11:23:45.000Z</time>
      </trkpt>
      <trkpt lat="42.316081" lon="-0.481038">
        <ele>1224.1</ele>
        <time>2018-07-22T11:23:46.000Z</time>
      </trkpt>
      <trkpt lat="42.316085" lon="-0.481029">
        <ele>1223.8</ele>
        <time>2018-07-22T11:23:47.000Z</time>
      </trkpt>
      <trkpt lat="42.316089" lon="-0.481021">
        <ele>1223.4</ele>
        <time>2018-07-22T11:23:48.000Z</time>
      </trkpt>
      <trkpt lat="42.316092" lon="-0.481015">
        <ele>1223.2</ele>
        <time>2018-07-22T11:23:49.000Z</time>
      </trkpt>
      <trkpt lat="42.316096" lon="-0.481009">
        <ele>1222.9</ele>
        <time>2018-07-22T11:23:50.000Z</time>
      </trkpt>
      <trkpt lat="42.3161" lon="-0.481001">
        <ele>1222.6</ele>
        <time>2018-07-22T11:23:51.000Z</time>
      </trkpt>
      <trkpt lat="42.316104" lon="-0.480993">
        <ele>1222.3</ele>
        <time>2018-07-22T11:23:52.000Z</time>
      </trkpt>
      <trkpt lat="42.316108" lon="-0.480983">
        <ele>1221.9</ele>
        <time>2018-07-22T11:23:53.000Z</time>
      </trkpt>
      <trkpt lat="42.316112" lon="-0.480973">
        <ele>1221.5</ele>
        <time>2018-07-22T11:23:54.000Z</time>
      </trkpt>
      <trkpt lat="42.316116" lon="-0.480962">
        <ele>1221.1</ele>
        <time>2018-07-22T11:23:55.000Z</time>
      </trkpt>
      <trkpt lat="42.316119" lon="-0.480952">
        <ele>1220.7</ele>
        <time>2018-07-22T11:23:56.000Z</time>
      </trkpt>
      <trkpt lat="42.316121" lon="-0.480942">
        <ele>1220.4</ele>
        <time>2018-07-22T11:23:57.000Z</time>
      </trkpt>
      <trkpt lat="42.316123" lon="-0.480932">
        <ele>1220.1</ele>
        <time>2018-07-22T11:23:58.000Z</time>
      </trkpt>
      <trkpt lat="42.316125" lon="-0.480923">
        <ele>1219.8</ele>
        <time>2018-07-22T11:23:59.000Z</time>
      </trkpt>
      <trkpt lat="42.316126" lon="-0.480913">
        <ele>1219.5</ele>
        <time>2018-07-22T11:24:00.000Z</time>
      </trkpt>
      <trkpt lat="42.316127" lon="-0.480904">
        <ele>1219.3</ele>
        <time>2018-07-22T11:24:01.000Z</time>
      </trkpt>
      <trkpt lat="42.316127" lon="-0.480895">
        <ele>1219.0</ele>
        <time>2018-07-22T11:24:02.000Z</time>
      </trkpt>
      <trkpt lat="42.316128" lon="-0.480886">
        <ele>1218.8</ele>
        <time>2018-07-22T11:24:03.000Z</time>
      </trkpt>
      <trkpt lat="42.316129" lon="-0.480877">
        <ele>1218.5</ele>
        <time>2018-07-22T11:24:04.000Z</time>
      </trkpt>
      <trkpt lat="42.316129" lon="-0.480868">
        <ele>1218.3</ele>
        <time>2018-07-22T11:24:05.000Z</time>
      </trkpt>
      <trkpt lat="42.31613" lon="-0.480858">
        <ele>1218.0</ele>
        <time>2018-07-22T11:24:06.000Z</time>
      </trkpt>
      <trkpt lat="42.316131" lon="-0.480849">
        <ele>1217.8</ele>
        <time>2018-07-22T11:24:07.000Z</time>
      </trkpt>
      <trkpt lat="42.316132" lon="-0.48084">
        <ele>1217.5</ele>
        <time>2018-07-22T11:24:08.000Z</time>
      </trkpt>
      <trkpt lat="42.316133" lon="-0.480831">
        <ele>1217.2</ele>
        <time>2018-07-22T11:24:09.000Z</time>
      </trkpt>
      <trkpt lat="42.316134" lon="-0.480823">
        <ele>1217.0</ele>
        <time>2018-07-22T11:24:10.000Z</time>
      </trkpt>
      <trkpt lat="42.316136" lon="-0.480815">
        <ele>1216.7</ele>
        <time>2018-07-22T11:24:11.000Z</time>
      </trkpt>
      <trkpt lat="42.316137" lon="-0.480807">
        <ele>1216.4</ele>
        <time>2018-07-22T11:24:12.000Z</time>
      </trkpt>
      <trkpt lat="42.316138" lon="-0.4808">
        <ele>1216.2</ele>
        <time>2018-07-22T11:24:13.000Z</time>
      </trkpt>
      <trkpt lat="42.31614" lon="-0.480793">
        <ele>1215.9</ele>
        <time>2018-07-22T11:24:14.000Z</time>
      </trkpt>
      <trkpt lat="42.316141" lon="-0.480788">
        <ele>1215.7</ele>
        <time>2018-07-22T11:24:15.000Z</time>
      </trkpt>
      <trkpt lat="42.316142" lon="-0.480783">
        <ele>1215.6</ele>
        <time>2018-07-22T11:24:16.000Z</time>
      </trkpt>
      <trkpt lat="42.316143" lon="-0.48078">
        <ele>1215.4</ele>
        <time>2018-07-22T11:24:17.000Z</time>
      </trkpt>
      <trkpt lat="42.316143" lon="-0.480777">
        <ele>1215.4</ele>
        <time>2018-07-22T11:24:18.000Z</time>
      </trkpt>
      <trkpt lat="42.316144" lon="-0.480775">
        <ele>1215.3</ele>
        <time>2018-07-22T11:24:19.000Z</time>
      </trkpt>
      <trkpt lat="42.316144" lon="-0.480773">
        <ele>1215.2</ele>
        <time>2018-07-22T11:24:20.000Z</time>
      </trkpt>
      <trkpt lat="42.316145" lon="-0.480769">
        <ele>1215.1</ele>
        <time>2018-07-22T11:24:21.000Z</time>
      </trkpt>
      <trkpt lat="42.316146" lon="-0.480762">
        <ele>1214.8</ele>
        <time>2018-07-22T11:24:22.000Z</time>
      </trkpt>
      <trkpt lat="42.316148" lon="-0.480755">
        <ele>1214.6</ele>
        <time>2018-07-22T11:24:23.000Z</time>
      </trkpt>
      <trkpt lat="42.31615" lon="-0.480746">
        <ele>1214.2</ele>
        <time>2018-07-22T11:24:24.000Z</time>
      </trkpt>
      <trkpt lat="42.316154" lon="-0.480737">
        <ele>1213.9</ele>
        <time>2018-07-22T11:24:25.000Z</time>
      </trkpt>
      <trkpt lat="42.316159" lon="-0.480728">
        <ele>1213.4</ele>
        <time>2018-07-22T11:24:26.000Z</time>
      </trkpt>
      <trkpt lat="42.316164" lon="-0.480718">
        <ele>1213.0</ele>
        <time>2018-07-22T11:24:27.000Z</time>
      </trkpt>
      <trkpt lat="42.316168" lon="-0.480709">
        <ele>1212.6</ele>
        <time>2018-07-22T11:24:28.000Z</time>
      </trkpt>
      <trkpt lat="42.316173" lon="-0.4807">
        <ele>1212.2</ele>
        <time>2018-07-22T11:24:29.000Z</time>
      </trkpt>
      <trkpt lat="42.316176" lon="-0.48069">
        <ele>1211.8</ele>
        <time>2018-07-22T11:24:30.000Z</time>
      </trkpt>
      <trkpt lat="42.31618" lon="-0.480681">
        <ele>1211.4</ele>
        <time>2018-07-22T11:24:31.000Z</time>
      </trkpt>
      <trkpt lat="42.316183" lon="-0.480672">
        <ele>1211.1</ele>
        <time>2018-07-22T11:24:32.000Z</time>
      </trkpt>
      <trkpt lat="42.316185" lon="-0.480664">
        <ele>1210.8</ele>
        <time>2018-07-22T11:24:33.000Z</time>
      </trkpt>
      <trkpt lat="42.316188" lon="-0.480655">
        <ele>1210.4</ele>
        <time>2018-07-22T11:24:34.000Z</time>
      </trkpt>
      <trkpt lat="42.31619" lon="-0.480647">
        <ele>1210.1</ele>
        <time>2018-07-22T11:24:35.000Z</time>
      </trkpt>
      <trkpt lat="42.316193" lon="-0.480638">
        <ele>1209.8</ele>
        <time>2018-07-22T11:24:36.000Z</time>
      </trkpt>
      <trkpt lat="42.316196" lon="-0.48063">
        <ele>1209.5</ele>
        <time>2018-07-22T11:24:37.000Z</time>
      </trkpt>
      <trkpt lat="42.316198" lon="-0.480622">
        <ele>1209.2</ele>
        <time>2018-07-22T11:24:38.000Z</time>
      </trkpt>
      <trkpt lat="42.316201" lon="-0.480613">
        <ele>1208.8</ele>
        <time>2018-07-22T11:24:39.000Z</time>
      </trkpt>
      <trkpt lat="42.316204" lon="-0.480605">
        <ele>1208.5</ele>
        <time>2018-07-22T11:24:40.000Z</time>
      </trkpt>
      <trkpt lat="42.316208" lon="-0.480597">
        <ele>1208.2</ele>
        <time>2018-07-22T11:24:41.000Z</time>
      </trkpt>
      <trkpt lat="42.316211" lon="-0.480589">
        <ele>1207.8</ele>
        <time>2018-07-22T11:24:42.000Z</time>
      </trkpt>
      <trkpt lat="42.316214" lon="-0.480581">
        <ele>1207.5</ele>
        <time>2018-07-22T11:24:43.000Z</time>
      </trkpt>
      <trkpt lat="42.316217" lon="-0.480573">
        <ele>1207.2</ele>
        <time>2018-07-22T11:24:44.000Z</time>
      </trkpt>
      <trkpt lat="42.316221" lon="-0.480565">
        <ele>1206.8</ele>
        <time>2018-07-22T11:24:45.000Z</time>
      </trkpt>
      <trkpt lat="42.316224" lon="-0.480558">
        <ele>1206.5</ele>
        <time>2018-07-22T11:24:46.000Z</time>
      </trkpt>
      <trkpt lat="42.316226" lon="-0.480551">
        <ele>1206.3</ele>
        <time>2018-07-22T11:24:47.000Z</time>
      </trkpt>
      <trkpt lat="42.316229" lon="-0.480544">
        <ele>1206.0</ele>
        <time>2018-07-22T11:24:48.000Z</time>
      </trkpt>
      <trkpt lat="42.316231" lon="-0.480538">
        <ele>1205.8</ele>
        <time>2018-07-22T11:24:49.000Z</time>
      </trkpt>
      <trkpt lat="42.316233" lon="-0.480532">
        <ele>1205.5</ele>
        <time>2018-07-22T11:24:50.000Z</time>
      </trkpt>
      <trkpt lat="42.316235" lon="-0.480527">
        <ele>1205.3</ele>
        <time>2018-07-22T11:24:51.000Z</time>
      </trkpt>
      <trkpt lat="42.316236" lon="-0.480521">
        <ele>1205.1</ele>
        <time>2018-07-22T11:24:52.000Z</time>
      </trkpt>
      <trkpt lat="42.316237" lon="-0.480517">
        <ele>1205.0</ele>
        <time>2018-07-22T11:24:53.000Z</time>
      </trkpt>
      <trkpt lat="42.316238" lon="-0.480513">
        <ele>1204.8</ele>
        <time>2018-07-22T11:24:54.000Z</time>
      </trkpt>
      <trkpt lat="42.316239" lon="-0.48051">
        <ele>1204.7</ele>
        <time>2018-07-22T11:24:55.000Z</time>
      </trkpt>
      <trkpt lat="42.31624" lon="-0.480507">
        <ele>1204.6</ele>
        <time>2018-07-22T11:24:56.000Z</time>
      </trkpt>
      <trkpt lat="42.31624" lon="-0.480505">
        <ele>1204.6</ele>
        <time>2018-07-22T11:24:57.000Z</time>
      </trkpt>
      <trkpt lat="42.316241" lon="-0.480503">
        <ele>1204.5</ele>
        <time>2018-07-22T11:24:58.000Z</time>
      </trkpt>
      <trkpt lat="42.316242" lon="-0.480497">
        <ele>1204.3</ele>
        <time>2018-07-22T11:24:59.000Z</time>
      </trkpt>
      <trkpt lat="42.316244" lon="-0.48049">
        <ele>1204.0</ele>
        <time>2018-07-22T11:25:00.000Z</time>
      </trkpt>
      <trkpt lat="42.316245" lon="-0.480482">
        <ele>1203.7</ele>
        <time>2018-07-22T11:25:01.000Z</time>
      </trkpt>
      <trkpt lat="42.316247" lon="-0.480475">
        <ele>1203.5</ele>
        <time>2018-07-22T11:25:02.000Z</time>
      </trkpt>
      <trkpt lat="42.316248" lon="-0.480468">
        <ele>1203.3</ele>
        <time>2018-07-22T11:25:03.000Z</time>
      </trkpt>
      <trkpt lat="42.316249" lon="-0.480461">
        <ele>1203.0</ele>
        <time>2018-07-22T11:25:04.000Z</time>
      </trkpt>
      <trkpt lat="42.31625" lon="-0.480455">
        <ele>1202.8</ele>
        <time>2018-07-22T11:25:05.000Z</time>
      </trkpt>
      <trkpt lat="42.31625" lon="-0.480451">
        <ele>1202.7</ele>
        <time>2018-07-22T11:25:06.000Z</time>
      </trkpt>
      <trkpt lat="42.316251" lon="-0.480448">
        <ele>1202.6</ele>
        <time>2018-07-22T11:25:07.000Z</time>
      </trkpt>
      <trkpt lat="42.316251" lon="-0.480444">
        <ele>1202.5</ele>
        <time>2018-07-22T11:25:08.000Z</time>
      </trkpt>
      <trkpt lat="42.316252" lon="-0.480439">
        <ele>1202.3</ele>
        <time>2018-07-22T11:25:09.000Z</time>
      </trkpt>
      <trkpt lat="42.316254" lon="-0.480432">
        <ele>1202.1</ele>
        <time>2018-07-22T11:25:10.000Z</time>
      </trkpt>
      <trkpt lat="42.316257" lon="-0.480422">
        <ele>1201.7</ele>
        <time>2018-07-22T11:25:11.000Z</time>
      </trkpt>
      <trkpt lat="42.316259" lon="-0.480412">
        <ele>1201.3</ele>
        <time>2018-07-22T11:25:12.000Z</time>
      </trkpt>
      <trkpt lat="42.316262" lon="-0.480403">
        <ele>1201.0</ele>
        <time>2018-07-22T11:25:13.000Z</time>
      </trkpt>
      <trkpt lat="42.316264" lon="-0.480393">
        <ele>1200.7</ele>
        <time>2018-07-22T11:25:14.000Z</time>
      </trkpt>
      <trkpt lat="42.316267" lon="-0.480383">
        <ele>1200.3</ele>
        <time>2018-07-22T11:25:15.000Z</time>
      </trkpt>
      <trkpt lat="42.31627" lon="-0.480374">
        <ele>1199.9</ele>
        <time>2018-07-22T11:25:16.000Z</time>
      </trkpt>
      <trkpt lat="42.316272" lon="-0.480365">
        <ele>1199.6</ele>
        <time>2018-07-22T11:25:17.000Z</time>
      </trkpt>
      <trkpt lat="42.316275" lon="-0.480356">
        <ele>1199.3</ele>
        <time>2018-07-22T11:25:18.000Z</time>
      </trkpt>
      <trkpt lat="42.316278" lon="-0.480349">
        <ele>1199.0</ele>
        <time>2018-07-22T11:25:19.000Z</time>
      </trkpt>
      <trkpt lat="42.316281" lon="-0.480341">
        <ele>1198.7</ele>
        <time>2018-07-22T11:25:20.000Z</time>
      </trkpt>
      <trkpt lat="42.316284" lon="-0.480335">
        <ele>1198.4</ele>
        <time>2018-07-22T11:25:21.000Z</time>
      </trkpt>
      <trkpt lat="42.316287" lon="-0.48033">
        <ele>1198.2</ele>
        <time>2018-07-22T11:25:22.000Z</time>
      </trkpt>
      <trkpt lat="42.31629" lon="-0.480325">
        <ele>1198.0</ele>
        <time>2018-07-22T11:25:23.000Z</time>
      </trkpt>
      <trkpt lat="42.316294" lon="-0.480322">
        <ele>1197.8</ele>
        <time>2018-07-22T11:25:24.000Z</time>
      </trkpt>
      <trkpt lat="42.316298" lon="-0.48032">
        <ele>1197.6</ele>
        <time>2018-07-22T11:25:25.000Z</time>
      </trkpt>
      <trkpt lat="42.316302" lon="-0.480315">
        <ele>1197.3</ele>
        <time>2018-07-22T11:25:26.000Z</time>
      </trkpt>
      <trkpt lat="42.316308" lon="-0.480306">
        <ele>1196.9</ele>
        <time>2018-07-22T11:25:27.000Z</time>
      </trkpt>
      <trkpt lat="42.316313" lon="-0.480299">
        <ele>1196.5</ele>
        <time>2018-07-22T11:25:28.000Z</time>
      </trkpt>
      <trkpt lat="42.316319" lon="-0.480293">
        <ele>1196.2</ele>
        <time>2018-07-22T11:25:29.000Z</time>
      </trkpt>
      <trkpt lat="42.316324" lon="-0.480289">
        <ele>1195.9</ele>
        <time>2018-07-22T11:25:30.000Z</time>
      </trkpt>
      <trkpt lat="42.316328" lon="-0.480287">
        <ele>1195.8</ele>
        <time>2018-07-22T11:25:31.000Z</time>
      </trkpt>
      <trkpt lat="42.316332" lon="-0.480285">
        <ele>1195.6</ele>
        <time>2018-07-22T11:25:32.000Z</time>
      </trkpt>
      <trkpt lat="42.316334" lon="-0.480283">
        <ele>1195.5</ele>
        <time>2018-07-22T11:25:33.000Z</time>
      </trkpt>
      <trkpt lat="42.316336" lon="-0.480281">
        <ele>1195.3</ele>
        <time>2018-07-22T11:25:34.000Z</time>
      </trkpt>
      <trkpt lat="42.316339" lon="-0.480279">
        <ele>1195.2</ele>
        <time>2018-07-22T11:25:35.000Z</time>
      </trkpt>
      <trkpt lat="42.316343" lon="-0.480277">
        <ele>1195.0</ele>
        <time>2018-07-22T11:25:36.000Z</time>
      </trkpt>
      <trkpt lat="42.31635" lon="-0.480274">
        <ele>1194.7</ele>
        <time>2018-07-22T11:25:37.000Z</time>
      </trkpt>
      <trkpt lat="42.316359" lon="-0.480269">
        <ele>1194.3</ele>
        <time>2018-07-22T11:25:38.000Z</time>
      </trkpt>
      <trkpt lat="42.316371" lon="-0.480264">
        <ele>1193.8</ele>
        <time>2018-07-22T11:25:39.000Z</time>
      </trkpt>
      <trkpt lat="42.316379" lon="-0.480256">
        <ele>1193.4</ele>
        <time>2018-07-22T11:25:40.000Z</time>
      </trkpt>
      <trkpt lat="42.316389" lon="-0.480247">
        <ele>1192.8</ele>
        <time>2018-07-22T11:25:41.000Z</time>
      </trkpt>
      <trkpt lat="42.316397" lon="-0.480238">
        <ele>1192.3</ele>
        <time>2018-07-22T11:25:42.000Z</time>
      </trkpt>
      <trkpt lat="42.316402" lon="-0.48023">
        <ele>1192.0</ele>
        <time>2018-07-22T11:25:43.000Z</time>
      </trkpt>
      <trkpt lat="42.316406" lon="-0.480222">
        <ele>1191.6</ele>
        <time>2018-07-22T11:25:44.000Z</time>
      </trkpt>
      <trkpt lat="42.31641" lon="-0.480215">
        <ele>1191.3</ele>
        <time>2018-07-22T11:25:45.000Z</time>
      </trkpt>
      <trkpt lat="42.316413" lon="-0.480208">
        <ele>1191.0</ele>
        <time>2018-07-22T11:25:46.000Z</time>
      </trkpt>
      <trkpt lat="42.316416" lon="-0.480202">
        <ele>1190.8</ele>
        <time>2018-07-22T11:25:47.000Z</time>
      </trkpt>
      <trkpt lat="42.316418" lon="-0.480196">
        <ele>1190.5</ele>
        <time>2018-07-22T11:25:48.000Z</time>
      </trkpt>
      <trkpt lat="42.316419" lon="-0.480192">
        <ele>1190.4</ele>
        <time>2018-07-22T11:25:49.000Z</time>
      </trkpt>
      <trkpt lat="42.31642" lon="-0.480188">
        <ele>1190.3</ele>
        <time>2018-07-22T11:25:50.000Z</time>
      </trkpt>
      <trkpt lat="42.31642" lon="-0.480185">
        <ele>1190.2</ele>
        <time>2018-07-22T11:25:51.000Z</time>
      </trkpt>
      <trkpt lat="42.316422" lon="-0.480183">
        <ele>1190.1</ele>
        <time>2018-07-22T11:25:52.000Z</time>
      </trkpt>
      <trkpt lat="42.316424" lon="-0.48018">
        <ele>1189.9</ele>
        <time>2018-07-22T11:25:53.000Z</time>
      </trkpt>
      <trkpt lat="42.316427" lon="-0.480177">
        <ele>1189.8</ele>
        <time>2018-07-22T11:25:54.000Z</time>
      </trkpt>
      <trkpt lat="42.316433" lon="-0.480173">
        <ele>1189.5</ele>
        <time>2018-07-22T11:25:55.000Z</time>
      </trkpt>
      <trkpt lat="42.316441" lon="-0.480168">
        <ele>1189.1</ele>
        <time>2018-07-22T11:25:56.000Z</time>
      </trkpt>
      <trkpt lat="42.316451" lon="-0.480162">
        <ele>1188.6</ele>
        <time>2018-07-22T11:25:57.000Z</time>
      </trkpt>
      <trkpt lat="42.31646" lon="-0.480155">
        <ele>1188.2</ele>
        <time>2018-07-22T11:25:58.000Z</time>
      </trkpt>
      <trkpt lat="42.316463" lon="-0.480149">
        <ele>1187.9</ele>
        <time>2018-07-22T11:25:59.000Z</time>
      </trkpt>
      <trkpt lat="42.316468" lon="-0.480142">
        <ele>1187.6</ele>
        <time>2018-07-22T11:26:00.000Z</time>
      </trkpt>
      <trkpt lat="42.316475" lon="-0.480134">
        <ele>1187.2</ele>
        <time>2018-07-22T11:26:01.000Z</time>
      </trkpt>
      <trkpt lat="42.31648" lon="-0.480125">
        <ele>1186.8</ele>
        <time>2018-07-22T11:26:02.000Z</time>
      </trkpt>
      <trkpt lat="42.316485" lon="-0.480116">
        <ele>1186.4</ele>
        <time>2018-07-22T11:26:03.000Z</time>
      </trkpt>
      <trkpt lat="42.316489" lon="-0.480107">
        <ele>1186.0</ele>
        <time>2018-07-22T11:26:04.000Z</time>
      </trkpt>
      <trkpt lat="42.316493" lon="-0.4801">
        <ele>1185.7</ele>
        <time>2018-07-22T11:26:05.000Z</time>
      </trkpt>
      <trkpt lat="42.316496" lon="-0.480095">
        <ele>1185.5</ele>
        <time>2018-07-22T11:26:06.000Z</time>
      </trkpt>
      <trkpt lat="42.316499" lon="-0.480091">
        <ele>1185.3</ele>
        <time>2018-07-22T11:26:07.000Z</time>
      </trkpt>
      <trkpt lat="42.316501" lon="-0.480087">
        <ele>1185.1</ele>
        <time>2018-07-22T11:26:08.000Z</time>
      </trkpt>
      <trkpt lat="42.316504" lon="-0.480084">
        <ele>1185.0</ele>
        <time>2018-07-22T11:26:09.000Z</time>
      </trkpt>
      <trkpt lat="42.316507" lon="-0.480079">
        <ele>1184.7</ele>
        <time>2018-07-22T11:26:10.000Z</time>
      </trkpt>
      <trkpt lat="42.316513" lon="-0.480072">
        <ele>1184.4</ele>
        <time>2018-07-22T11:26:11.000Z</time>
      </trkpt>
      <trkpt lat="42.316522" lon="-0.480063">
        <ele>1183.9</ele>
        <time>2018-07-22T11:26:12.000Z</time>
      </trkpt>
      <trkpt lat="42.316532" lon="-0.480053">
        <ele>1183.3</ele>
        <time>2018-07-22T11:26:13.000Z</time>
      </trkpt>
      <trkpt lat="42.316541" lon="-0.480043">
        <ele>1182.8</ele>
        <time>2018-07-22T11:26:14.000Z</time>
      </trkpt>
      <trkpt lat="42.316549" lon="-0.480036">
        <ele>1182.4</ele>
        <time>2018-07-22T11:26:15.000Z</time>
      </trkpt>
      <trkpt lat="42.316554" lon="-0.480031">
        <ele>1182.1</ele>
        <time>2018-07-22T11:26:16.000Z</time>
      </trkpt>
      <trkpt lat="42.316558" lon="-0.480027">
        <ele>1181.9</ele>
        <time>2018-07-22T11:26:17.000Z</time>
      </trkpt>
      <trkpt lat="42.316561" lon="-0.480025">
        <ele>1181.7</ele>
        <time>2018-07-22T11:26:18.000Z</time>
      </trkpt>
      <trkpt lat="42.316563" lon="-0.480023">
        <ele>1181.6</ele>
        <time>2018-07-22T11:26:19.000Z</time>
      </trkpt>
      <trkpt lat="42.316565" lon="-0.480021">
        <ele>1181.5</ele>
        <time>2018-07-22T11:26:20.000Z</time>
      </trkpt>
      <trkpt lat="42.316567" lon="-0.48002">
        <ele>1181.4</ele>
        <time>2018-07-22T11:26:21.000Z</time>
      </trkpt>
      <trkpt lat="42.31657" lon="-0.480018">
        <ele>1181.3</ele>
        <time>2018-07-22T11:26:22.000Z</time>
      </trkpt>
      <trkpt lat="42.316573" lon="-0.480016">
        <ele>1181.1</ele>
        <time>2018-07-22T11:26:23.000Z</time>
      </trkpt>
      <trkpt lat="42.316579" lon="-0.480012">
        <ele>1180.8</ele>
        <time>2018-07-22T11:26:24.000Z</time>
      </trkpt>
      <trkpt lat="42.316588" lon="-0.480005">
        <ele>1180.4</ele>
        <time>2018-07-22T11:26:25.000Z</time>
      </trkpt>
      <trkpt lat="42.316595" lon="-0.479999">
        <ele>1180.0</ele>
        <time>2018-07-22T11:26:26.000Z</time>
      </trkpt>
      <trkpt lat="42.3166" lon="-0.479994">
        <ele>1179.8</ele>
        <time>2018-07-22T11:26:27.000Z</time>
      </trkpt>
      <trkpt lat="42.316603" lon="-0.47999">
        <ele>1179.7</ele>
        <time>2018-07-22T11:26:28.000Z</time>
      </trkpt>
      <trkpt lat="42.316606" lon="-0.479987">
        <ele>1179.5</ele>
        <time>2018-07-22T11:26:29.000Z</time>
      </trkpt>
      <trkpt lat="42.316608" lon="-0.479984">
        <ele>1179.4</ele>
        <time>2018-07-22T11:26:30.000Z</time>
      </trkpt>
      <trkpt lat="42.31661" lon="-0.479982">
        <ele>1179.3</ele>
        <time>2018-07-22T11:26:31.000Z</time>
      </trkpt>
      <trkpt lat="42.316612" lon="-0.47998">
        <ele>1179.2</ele>
        <time>2018-07-22T11:26:32.000Z</time>
      </trkpt>
      <trkpt lat="42.316613" lon="-0.479978">
        <ele>1179.2</ele>
        <time>2018-07-22T11:26:33.000Z</time>
      </trkpt>
      <trkpt lat="42.316614" lon="-0.479976">
        <ele>1179.1</ele>
        <time>2018-07-22T11:26:34.000Z</time>
      </trkpt>
      <trkpt lat="42.316615" lon="-0.479975">
        <ele>1179.1</ele>
        <time>2018-07-22T11:26:35.000Z</time>
      </trkpt>
      <trkpt lat="42.316616" lon="-0.479973">
        <ele>1179.0</ele>
        <time>2018-07-22T11:26:36.000Z</time>
      </trkpt>
      <trkpt lat="42.316618" lon="-0.479971">
        <ele>1178.9</ele>
        <time>2018-07-22T11:26:37.000Z</time>
      </trkpt>
      <trkpt lat="42.316619" lon="-0.479969">
        <ele>1178.9</ele>
        <time>2018-07-22T11:26:38.000Z</time>
      </trkpt>
      <trkpt lat="42.316621" lon="-0.479967">
        <ele>1178.8</ele>
        <time>2018-07-22T11:26:39.000Z</time>
      </trkpt>
      <trkpt lat="42.316623" lon="-0.479964">
        <ele>1178.7</ele>
        <time>2018-07-22T11:26:40.000Z</time>
      </trkpt>
      <trkpt lat="42.316626" lon="-0.479961">
        <ele>1178.5</ele>
        <time>2018-07-22T11:26:41.000Z</time>
      </trkpt>
      <trkpt lat="42.316628" lon="-0.479958">
        <ele>1178.4</ele>
        <time>2018-07-22T11:26:42.000Z</time>
      </trkpt>
      <trkpt lat="42.316631" lon="-0.479954">
        <ele>1178.3</ele>
        <time>2018-07-22T11:26:43.000Z</time>
      </trkpt>
      <trkpt lat="42.316636" lon="-0.479948">
        <ele>1178.0</ele>
        <time>2018-07-22T11:26:44.000Z</time>
      </trkpt>
      <trkpt lat="42.31664" lon="-0.479942">
        <ele>1177.8</ele>
        <time>2018-07-22T11:26:45.000Z</time>
      </trkpt>
      <trkpt lat="42.316645" lon="-0.479935">
        <ele>1177.6</ele>
        <time>2018-07-22T11:26:46.000Z</time>
      </trkpt>
      <trkpt lat="42.31665" lon="-0.479929">
        <ele>1177.4</ele>
        <time>2018-07-22T11:26:47.000Z</time>
      </trkpt>
      <trkpt lat="42.316653" lon="-0.479925">
        <ele>1177.2</ele>
        <time>2018-07-22T11:26:48.000Z</time>
      </trkpt>
      <trkpt lat="42.316655" lon="-0.479922">
        <ele>1177.1</ele>
        <time>2018-07-22T11:26:49.000Z</time>
      </trkpt>
      <trkpt lat="42.316658" lon="-0.479918">
        <ele>1177.0</ele>
        <time>2018-07-22T11:26:50.000Z</time>
      </trkpt>
      <trkpt lat="42.316662" lon="-0.479913">
        <ele>1176.8</ele>
        <time>2018-07-22T11:26:51.000Z</time>
      </trkpt>
      <trkpt lat="42.316668" lon="-0.479905">
        <ele>1176.5</ele>
        <time>2018-07-22T11:26:52.000Z</time>
      </trkpt>
      <trkpt lat="42.316677" lon="-0.479895">
        <ele>1176.2</ele>
        <time>2018-07-22T11:26:53.000Z</time>
      </trkpt>
      <trkpt lat="42.316685" lon="-0.479886">
        <ele>1175.9</ele>
        <time>2018-07-22T11:26:54.000Z</time>
      </trkpt>
      <trkpt lat="42.31669" lon="-0.479879">
        <ele>1175.6</ele>
        <time>2018-07-22T11:26:55.000Z</time>
      </trkpt>
      <trkpt lat="42.316693" lon="-0.479875">
        <ele>1175.5</ele>
        <time>2018-07-22T11:26:56.000Z</time>
      </trkpt>
      <trkpt lat="42.316694" lon="-0.479872">
        <ele>1175.5</ele>
        <time>2018-07-22T11:26:57.000Z</time>
      </trkpt>
      <trkpt lat="42.316696" lon="-0.479869">
        <ele>1175.4</ele>
        <time>2018-07-22T11:26:58.000Z</time>
      </trkpt>
      <trkpt lat="42.316697" lon="-0.479867">
        <ele>1175.3</ele>
        <time>2018-07-22T11:26:59.000Z</time>
      </trkpt>
      <trkpt lat="42.316698" lon="-0.479865">
        <ele>1175.3</ele>
        <time>2018-07-22T11:27:00.000Z</time>
      </trkpt>
      <trkpt lat="42.316699" lon="-0.479864">
        <ele>1175.2</ele>
        <time>2018-07-22T11:27:01.000Z</time>
      </trkpt>
      <trkpt lat="42.3167" lon="-0.479862">
        <ele>1175.2</ele>
        <time>2018-07-22T11:27:02.000Z</time>
      </trkpt>
      <trkpt lat="42.316702" lon="-0.479859">
        <ele>1175.1</ele>
        <time>2018-07-22T11:27:03.000Z</time>
      </trkpt>
      <trkpt lat="42.316706" lon="-0.479855">
        <ele>1175.0</ele>
        <time>2018-07-22T11:27:04.000Z</time>
      </trkpt>
      <trkpt lat="42.316712" lon="-0.479847">
        <ele>1174.7</ele>
        <time>2018-07-22T11:27:05.000Z</time>
      </trkpt>
      <trkpt lat="42.316717" lon="-0.47984">
        <ele>1174.5</ele>
        <time>2018-07-22T11:27:06.000Z</time>
      </trkpt>
      <trkpt lat="42.316721" lon="-0.479835">
        <ele>1174.3</ele>
        <time>2018-07-22T11:27:07.000Z</time>
      </trkpt>
      <trkpt lat="42.316724" lon="-0.479831">
        <ele>1174.2</ele>
        <time>2018-07-22T11:27:08.000Z</time>
      </trkpt>
      <trkpt lat="42.316726" lon="-0.479828">
        <ele>1174.1</ele>
        <time>2018-07-22T11:27:09.000Z</time>
      </trkpt>
      <trkpt lat="42.316727" lon="-0.479825">
        <ele>1174.1</ele>
        <time>2018-07-22T11:27:10.000Z</time>
      </trkpt>
      <trkpt lat="42.316728" lon="-0.479823">
        <ele>1174.0</ele>
        <time>2018-07-22T11:27:11.000Z</time>
      </trkpt>
      <trkpt lat="42.31673" lon="-0.479821">
        <ele>1173.9</ele>
        <time>2018-07-22T11:27:12.000Z</time>
      </trkpt>
      <trkpt lat="42.316731" lon="-0.479819">
        <ele>1173.9</ele>
        <time>2018-07-22T11:27:13.000Z</time>
      </trkpt>
      <trkpt lat="42.316732" lon="-0.479816">
        <ele>1173.8</ele>
        <time>2018-07-22T11:27:14.000Z</time>
      </trkpt>
      <trkpt lat="42.316734" lon="-0.479814">
        <ele>1173.8</ele>
        <time>2018-07-22T11:27:15.000Z</time>
      </trkpt>
      <trkpt lat="42.316735" lon="-0.479812">
        <ele>1173.7</ele>
        <time>2018-07-22T11:27:16.000Z</time>
      </trkpt>
      <trkpt lat="42.316737" lon="-0.47981">
        <ele>1173.6</ele>
        <time>2018-07-22T11:27:17.000Z</time>
      </trkpt>
      <trkpt lat="42.316744" lon="-0.479805">
        <ele>1173.4</ele>
        <time>2018-07-22T11:27:18.000Z</time>
      </trkpt>
      <trkpt lat="42.316758" lon="-0.479796">
        <ele>1173.0</ele>
        <time>2018-07-22T11:27:19.000Z</time>
      </trkpt>
      <trkpt lat="42.316767" lon="-0.479788">
        <ele>1172.7</ele>
        <time>2018-07-22T11:27:20.000Z</time>
      </trkpt>
      <trkpt lat="42.316771" lon="-0.479783">
        <ele>1172.6</ele>
        <time>2018-07-22T11:27:21.000Z</time>
      </trkpt>
      <trkpt lat="42.316774" lon="-0.47978">
        <ele>1172.4</ele>
        <time>2018-07-22T11:27:22.000Z</time>
      </trkpt>
      <trkpt lat="42.316776" lon="-0.479777">
        <ele>1172.4</ele>
        <time>2018-07-22T11:27:23.000Z</time>
      </trkpt>
      <trkpt lat="42.316778" lon="-0.479774">
        <ele>1172.3</ele>
        <time>2018-07-22T11:27:24.000Z</time>
      </trkpt>
      <trkpt lat="42.316779" lon="-0.479773">
        <ele>1172.2</ele>
        <time>2018-07-22T11:27:25.000Z</time>
      </trkpt>
      <trkpt lat="42.316781" lon="-0.479771">
        <ele>1172.2</ele>
        <time>2018-07-22T11:27:26.000Z</time>
      </trkpt>
      <trkpt lat="42.316783" lon="-0.479769">
        <ele>1172.1</ele>
        <time>2018-07-22T11:27:27.000Z</time>
      </trkpt>
      <trkpt lat="42.316785" lon="-0.479766">
        <ele>1172.0</ele>
        <time>2018-07-22T11:27:28.000Z</time>
      </trkpt>
      <trkpt lat="42.316789" lon="-0.479764">
        <ele>1171.9</ele>
        <time>2018-07-22T11:27:29.000Z</time>
      </trkpt>
      <trkpt lat="42.316795" lon="-0.479761">
        <ele>1171.7</ele>
        <time>2018-07-22T11:27:30.000Z</time>
      </trkpt>
      <trkpt lat="42.316804" lon="-0.479758">
        <ele>1171.5</ele>
        <time>2018-07-22T11:27:31.000Z</time>
      </trkpt>
      <trkpt lat="42.316814" lon="-0.479755">
        <ele>1171.3</ele>
        <time>2018-07-22T11:27:32.000Z</time>
      </trkpt>
      <trkpt lat="42.316825" lon="-0.479753">
        <ele>1171.0</ele>
        <time>2018-07-22T11:27:33.000Z</time>
      </trkpt>
      <trkpt lat="42.316833" lon="-0.479752">
        <ele>1170.9</ele>
        <time>2018-07-22T11:27:34.000Z</time>
      </trkpt>
      <trkpt lat="42.316838" lon="-0.479752">
        <ele>1170.8</ele>
        <time>2018-07-22T11:27:35.000Z</time>
      </trkpt>
      <trkpt lat="42.316841" lon="-0.479752">
        <ele>1170.7</ele>
        <time>2018-07-22T11:27:36.000Z</time>
      </trkpt>
      <trkpt lat="42.316844" lon="-0.479752">
        <ele>1170.6</ele>
        <time>2018-07-22T11:27:37.000Z</time>
      </trkpt>
      <trkpt lat="42.316848" lon="-0.479751">
        <ele>1170.5</ele>
        <time>2018-07-22T11:27:38.000Z</time>
      </trkpt>
      <trkpt lat="42.316851" lon="-0.479751">
        <ele>1170.5</ele>
        <time>2018-07-22T11:27:39.000Z</time>
      </trkpt>
      <trkpt lat="42.316855" lon="-0.479749">
        <ele>1170.4</ele>
        <time>2018-07-22T11:27:40.000Z</time>
      </trkpt>
      <trkpt lat="42.316862" lon="-0.479745">
        <ele>1170.2</ele>
        <time>2018-07-22T11:27:41.000Z</time>
      </trkpt>
      <trkpt lat="42.31688" lon="-0.479735">
        <ele>1169.7</ele>
        <time>2018-07-22T11:27:42.000Z</time>
      </trkpt>
      <trkpt lat="42.316893" lon="-0.479727">
        <ele>1169.3</ele>
        <time>2018-07-22T11:27:43.000Z</time>
      </trkpt>
      <trkpt lat="42.316901" lon="-0.479721">
        <ele>1169.1</ele>
        <time>2018-07-22T11:27:44.000Z</time>
      </trkpt>
      <trkpt lat="42.316907" lon="-0.479716">
        <ele>1168.9</ele>
        <time>2018-07-22T11:27:45.000Z</time>
      </trkpt>
      <trkpt lat="42.316916" lon="-0.479709">
        <ele>1168.6</ele>
        <time>2018-07-22T11:27:46.000Z</time>
      </trkpt>
      <trkpt lat="42.316926" lon="-0.4797">
        <ele>1168.3</ele>
        <time>2018-07-22T11:27:47.000Z</time>
      </trkpt>
      <trkpt lat="42.316937" lon="-0.479691">
        <ele>1167.9</ele>
        <time>2018-07-22T11:27:48.000Z</time>
      </trkpt>
      <trkpt lat="42.316945" lon="-0.479681">
        <ele>1167.6</ele>
        <time>2018-07-22T11:27:49.000Z</time>
      </trkpt>
      <trkpt lat="42.316951" lon="-0.479672">
        <ele>1167.4</ele>
        <time>2018-07-22T11:27:50.000Z</time>
      </trkpt>
      <trkpt lat="42.316956" lon="-0.479662">
        <ele>1167.1</ele>
        <time>2018-07-22T11:27:51.000Z</time>
      </trkpt>
      <trkpt lat="42.316959" lon="-0.479652">
        <ele>1166.9</ele>
        <time>2018-07-22T11:27:52.000Z</time>
      </trkpt>
      <trkpt lat="42.316963" lon="-0.479642">
        <ele>1166.7</ele>
        <time>2018-07-22T11:27:53.000Z</time>
      </trkpt>
      <trkpt lat="42.316967" lon="-0.479632">
        <ele>1166.5</ele>
        <time>2018-07-22T11:27:54.000Z</time>
      </trkpt>
      <trkpt lat="42.316971" lon="-0.479621">
        <ele>1166.2</ele>
        <time>2018-07-22T11:27:55.000Z</time>
      </trkpt>
      <trkpt lat="42.316975" lon="-0.479611">
        <ele>1166.0</ele>
        <time>2018-07-22T11:27:56.000Z</time>
      </trkpt>
      <trkpt lat="42.31698" lon="-0.4796">
        <ele>1165.7</ele>
        <time>2018-07-22T11:27:57.000Z</time>
      </trkpt>
      <trkpt lat="42.316984" lon="-0.47959">
        <ele>1165.5</ele>
        <time>2018-07-22T11:27:58.000Z</time>
      </trkpt>
      <trkpt lat="42.316988" lon="-0.47958">
        <ele>1165.3</ele>
        <time>2018-07-22T11:27:59.000Z</time>
      </trkpt>
      <trkpt lat="42.316992" lon="-0.479571">
        <ele>1165.1</ele>
        <time>2018-07-22T11:28:00.000Z</time>
      </trkpt>
      <trkpt lat="42.316996" lon="-0.479563">
        <ele>1164.9</ele>
        <time>2018-07-22T11:28:01.000Z</time>
      </trkpt>
      <trkpt lat="42.316999" lon="-0.479556">
        <ele>1164.7</ele>
        <time>2018-07-22T11:28:02.000Z</time>
      </trkpt>
      <trkpt lat="42.317002" lon="-0.479549">
        <ele>1164.6</ele>
        <time>2018-07-22T11:28:03.000Z</time>
      </trkpt>
      <trkpt lat="42.317004" lon="-0.479544">
        <ele>1164.4</ele>
        <time>2018-07-22T11:28:04.000Z</time>
      </trkpt>
      <trkpt lat="42.317006" lon="-0.47954">
        <ele>1164.4</ele>
        <time>2018-07-22T11:28:05.000Z</time>
      </trkpt>
      <trkpt lat="42.31701" lon="-0.479533">
        <ele>1164.2</ele>
        <time>2018-07-22T11:28:06.000Z</time>
      </trkpt>
      <trkpt lat="42.317018" lon="-0.479522">
        <ele>1163.9</ele>
        <time>2018-07-22T11:28:07.000Z</time>
      </trkpt>
      <trkpt lat="42.317023" lon="-0.479515">
        <ele>1163.7</ele>
        <time>2018-07-22T11:28:08.000Z</time>
      </trkpt>
      <trkpt lat="42.317026" lon="-0.479511">
        <ele>1163.5</ele>
        <time>2018-07-22T11:28:09.000Z</time>
      </trkpt>
      <trkpt lat="42.317029" lon="-0.479507">
        <ele>1163.4</ele>
        <time>2018-07-22T11:28:10.000Z</time>
      </trkpt>
      <trkpt lat="42.317031" lon="-0.479504">
        <ele>1163.4</ele>
        <time>2018-07-22T11:28:11.000Z</time>
      </trkpt>
      <trkpt lat="42.317032" lon="-0.479501">
        <ele>1163.3</ele>
        <time>2018-07-22T11:28:12.000Z</time>
      </trkpt>
      <trkpt lat="42.317034" lon="-0.479498">
        <ele>1163.2</ele>
        <time>2018-07-22T11:28:13.000Z</time>
      </trkpt>
      <trkpt lat="42.317035" lon="-0.479495">
        <ele>1163.1</ele>
        <time>2018-07-22T11:28:14.000Z</time>
      </trkpt>
      <trkpt lat="42.317037" lon="-0.479493">
        <ele>1163.1</ele>
        <time>2018-07-22T11:28:15.000Z</time>
      </trkpt>
      <trkpt lat="42.31704" lon="-0.479488">
        <ele>1162.9</ele>
        <time>2018-07-22T11:28:16.000Z</time>
      </trkpt>
      <trkpt lat="42.317044" lon="-0.479479">
        <ele>1162.7</ele>
        <time>2018-07-22T11:28:17.000Z</time>
      </trkpt>
      <trkpt lat="42.317051" lon="-0.479464">
        <ele>1162.4</ele>
        <time>2018-07-22T11:28:18.000Z</time>
      </trkpt>
      <trkpt lat="42.317057" lon="-0.479449">
        <ele>1162.1</ele>
        <time>2018-07-22T11:28:19.000Z</time>
      </trkpt>
      <trkpt lat="42.317061" lon="-0.479438">
        <ele>1161.8</ele>
        <time>2018-07-22T11:28:20.000Z</time>
      </trkpt>
      <trkpt lat="42.317064" lon="-0.479428">
        <ele>1161.6</ele>
        <time>2018-07-22T11:28:21.000Z</time>
      </trkpt>
      <trkpt lat="42.317066" lon="-0.479418">
        <ele>1161.4</ele>
        <time>2018-07-22T11:28:22.000Z</time>
      </trkpt>
      <trkpt lat="42.31707" lon="-0.479409">
        <ele>1161.2</ele>
        <time>2018-07-22T11:28:23.000Z</time>
      </trkpt>
      <trkpt lat="42.317073" lon="-0.479401">
        <ele>1161.1</ele>
        <time>2018-07-22T11:28:24.000Z</time>
      </trkpt>
      <trkpt lat="42.317078" lon="-0.479395">
        <ele>1160.9</ele>
        <time>2018-07-22T11:28:25.000Z</time>
      </trkpt>
      <trkpt lat="42.317085" lon="-0.479389">
        <ele>1160.7</ele>
        <time>2018-07-22T11:28:26.000Z</time>
      </trkpt>
      <trkpt lat="42.317092" lon="-0.479385">
        <ele>1160.5</ele>
        <time>2018-07-22T11:28:27.000Z</time>
      </trkpt>
      <trkpt lat="42.317099" lon="-0.479381">
        <ele>1160.3</ele>
        <time>2018-07-22T11:28:28.000Z</time>
      </trkpt>
      <trkpt lat="42.317107" lon="-0.479379">
        <ele>1160.1</ele>
        <time>2018-07-22T11:28:29.000Z</time>
      </trkpt>
      <trkpt lat="42.317113" lon="-0.479377">
        <ele>1160.0</ele>
        <time>2018-07-22T11:28:30.000Z</time>
      </trkpt>
      <trkpt lat="42.317119" lon="-0.479376">
        <ele>1159.9</ele>
        <time>2018-07-22T11:28:31.000Z</time>
      </trkpt>
      <trkpt lat="42.317122" lon="-0.479374">
        <ele>1159.8</ele>
        <time>2018-07-22T11:28:32.000Z</time>
      </trkpt>
      <trkpt lat="42.317125" lon="-0.479373">
        <ele>1159.7</ele>
        <time>2018-07-22T11:28:33.000Z</time>
      </trkpt>
      <trkpt lat="42.317127" lon="-0.479372">
        <ele>1159.6</ele>
        <time>2018-07-22T11:28:34.000Z</time>
      </trkpt>
      <trkpt lat="42.317129" lon="-0.479369">
        <ele>1159.6</ele>
        <time>2018-07-22T11:28:35.000Z</time>
      </trkpt>
      <trkpt lat="42.317133" lon="-0.479365">
        <ele>1159.4</ele>
        <time>2018-07-22T11:28:36.000Z</time>
      </trkpt>
      <trkpt lat="42.317138" lon="-0.47936">
        <ele>1159.3</ele>
        <time>2018-07-22T11:28:37.000Z</time>
      </trkpt>
      <trkpt lat="42.317145" lon="-0.479355">
        <ele>1159.1</ele>
        <time>2018-07-22T11:28:38.000Z</time>
      </trkpt>
      <trkpt lat="42.317152" lon="-0.479349">
        <ele>1158.9</ele>
        <time>2018-07-22T11:28:39.000Z</time>
      </trkpt>
      <trkpt lat="42.317159" lon="-0.479341">
        <ele>1158.6</ele>
        <time>2018-07-22T11:28:40.000Z</time>
      </trkpt>
      <trkpt lat="42.317166" lon="-0.47933">
        <ele>1158.3</ele>
        <time>2018-07-22T11:28:41.000Z</time>
      </trkpt>
      <trkpt lat="42.317173" lon="-0.479319">
        <ele>1158.0</ele>
        <time>2018-07-22T11:28:42.000Z</time>
      </trkpt>
      <trkpt lat="42.317179" lon="-0.479309">
        <ele>1157.8</ele>
        <time>2018-07-22T11:28:43.000Z</time>
      </trkpt>
      <trkpt lat="42.317185" lon="-0.479299">
        <ele>1157.5</ele>
        <time>2018-07-22T11:28:44.000Z</time>
      </trkpt>
      <trkpt lat="42.317191" lon="-0.47929">
        <ele>1157.3</ele>
        <time>2018-07-22T11:28:45.000Z</time>
      </trkpt>
      <trkpt lat="42.317198" lon="-0.47928">
        <ele>1157.0</ele>
        <time>2018-07-22T11:28:46.000Z</time>
      </trkpt>
      <trkpt lat="42.317205" lon="-0.47927">
        <ele>1156.8</ele>
        <time>2018-07-22T11:28:47.000Z</time>
      </trkpt>
      <trkpt lat="42.317212" lon="-0.47926">
        <ele>1156.5</ele>
        <time>2018-07-22T11:28:48.000Z</time>
      </trkpt>
      <trkpt lat="42.317219" lon="-0.47925">
        <ele>1156.2</ele>
        <time>2018-07-22T11:28:49.000Z</time>
      </trkpt>
      <trkpt lat="42.317225" lon="-0.479242">
        <ele>1156.0</ele>
        <time>2018-07-22T11:28:50.000Z</time>
      </trkpt>
      <trkpt lat="42.317228" lon="-0.479236">
        <ele>1155.9</ele>
        <time>2018-07-22T11:28:51.000Z</time>
      </trkpt>
      <trkpt lat="42.31723" lon="-0.479233">
        <ele>1155.8</ele>
        <time>2018-07-22T11:28:52.000Z</time>
      </trkpt>
      <trkpt lat="42.317232" lon="-0.47923">
        <ele>1155.7</ele>
        <time>2018-07-22T11:28:53.000Z</time>
      </trkpt>
      <trkpt lat="42.317235" lon="-0.479226">
        <ele>1155.6</ele>
        <time>2018-07-22T11:28:54.000Z</time>
      </trkpt>
      <trkpt lat="42.317238" lon="-0.47922">
        <ele>1155.5</ele>
        <time>2018-07-22T11:28:55.000Z</time>
      </trkpt>
      <trkpt lat="42.317242" lon="-0.47921">
        <ele>1155.2</ele>
        <time>2018-07-22T11:28:56.000Z</time>
      </trkpt>
      <trkpt lat="42.317249" lon="-0.4792">
        <ele>1155.0</ele>
        <time>2018-07-22T11:28:57.000Z</time>
      </trkpt>
      <trkpt lat="42.317257" lon="-0.479191">
        <ele>1154.7</ele>
        <time>2018-07-22T11:28:58.000Z</time>
      </trkpt>
      <trkpt lat="42.317265" lon="-0.479182">
        <ele>1154.4</ele>
        <time>2018-07-22T11:28:59.000Z</time>
      </trkpt>
      <trkpt lat="42.317271" lon="-0.479172">
        <ele>1154.2</ele>
        <time>2018-07-22T11:29:00.000Z</time>
      </trkpt>
      <trkpt lat="42.317276" lon="-0.479162">
        <ele>1154.0</ele>
        <time>2018-07-22T11:29:01.000Z</time>
      </trkpt>
      <trkpt lat="42.317281" lon="-0.479152">
        <ele>1153.8</ele>
        <time>2018-07-22T11:29:02.000Z</time>
      </trkpt>
      <trkpt lat="42.317285" lon="-0.479142">
        <ele>1153.6</ele>
        <time>2018-07-22T11:29:03.000Z</time>
      </trkpt>
      <trkpt lat="42.317288" lon="-0.479132">
        <ele>1153.4</ele>
        <time>2018-07-22T11:29:04.000Z</time>
      </trkpt>
      <trkpt lat="42.317292" lon="-0.479122">
        <ele>1153.2</ele>
        <time>2018-07-22T11:29:05.000Z</time>
      </trkpt>
      <trkpt lat="42.317295" lon="-0.479112">
        <ele>1153.0</ele>
        <time>2018-07-22T11:29:06.000Z</time>
      </trkpt>
      <trkpt lat="42.317298" lon="-0.479101">
        <ele>1152.8</ele>
        <time>2018-07-22T11:29:07.000Z</time>
      </trkpt>
      <trkpt lat="42.317301" lon="-0.47909">
        <ele>1152.6</ele>
        <time>2018-07-22T11:29:08.000Z</time>
      </trkpt>
      <trkpt lat="42.317305" lon="-0.479079">
        <ele>1152.4</ele>
        <time>2018-07-22T11:29:09.000Z</time>
      </trkpt>
      <trkpt lat="42.317309" lon="-0.479069">
        <ele>1152.2</ele>
        <time>2018-07-22T11:29:10.000Z</time>
      </trkpt>
      <trkpt lat="42.317313" lon="-0.479057">
        <ele>1152.0</ele>
        <time>2018-07-22T11:29:11.000Z</time>
      </trkpt>
      <trkpt lat="42.317318" lon="-0.479046">
        <ele>1151.8</ele>
        <time>2018-07-22T11:29:12.000Z</time>
      </trkpt>
      <trkpt lat="42.317322" lon="-0.479035">
        <ele>1151.6</ele>
        <time>2018-07-22T11:29:13.000Z</time>
      </trkpt>
      <trkpt lat="42.317327" lon="-0.479024">
        <ele>1151.4</ele>
        <time>2018-07-22T11:29:14.000Z</time>
      </trkpt>
      <trkpt lat="42.317332" lon="-0.479014">
        <ele>1151.2</ele>
        <time>2018-07-22T11:29:15.000Z</time>
      </trkpt>
      <trkpt lat="42.317337" lon="-0.479003">
        <ele>1150.9</ele>
        <time>2018-07-22T11:29:16.000Z</time>
      </trkpt>
      <trkpt lat="42.317341" lon="-0.478993">
        <ele>1150.7</ele>
        <time>2018-07-22T11:29:17.000Z</time>
      </trkpt>
      <trkpt lat="42.317345" lon="-0.478983">
        <ele>1150.5</ele>
        <time>2018-07-22T11:29:18.000Z</time>
      </trkpt>
      <trkpt lat="42.317349" lon="-0.478974">
        <ele>1150.4</ele>
        <time>2018-07-22T11:29:19.000Z</time>
      </trkpt>
      <trkpt lat="42.317352" lon="-0.478965">
        <ele>1150.2</ele>
        <time>2018-07-22T11:29:20.000Z</time>
      </trkpt>
      <trkpt lat="42.317355" lon="-0.478956">
        <ele>1150.0</ele>
        <time>2018-07-22T11:29:21.000Z</time>
      </trkpt>
      <trkpt lat="42.317357" lon="-0.478948">
        <ele>1149.9</ele>
        <time>2018-07-22T11:29:22.000Z</time>
      </trkpt>
      <trkpt lat="42.317358" lon="-0.478941">
        <ele>1149.8</ele>
        <time>2018-07-22T11:29:23.000Z</time>
      </trkpt>
      <trkpt lat="42.317359" lon="-0.478935">
        <ele>1149.7</ele>
        <time>2018-07-22T11:29:24.000Z</time>
      </trkpt>
      <trkpt lat="42.31736" lon="-0.478929">
        <ele>1149.6</ele>
        <time>2018-07-22T11:29:25.000Z</time>
      </trkpt>
      <trkpt lat="42.317361" lon="-0.478925">
        <ele>1149.6</ele>
        <time>2018-07-22T11:29:26.000Z</time>
      </trkpt>
      <trkpt lat="42.317362" lon="-0.478921">
        <ele>1149.5</ele>
        <time>2018-07-22T11:29:27.000Z</time>
      </trkpt>
      <trkpt lat="42.317363" lon="-0.478917">
        <ele>1149.4</ele>
        <time>2018-07-22T11:29:28.000Z</time>
      </trkpt>
      <trkpt lat="42.317365" lon="-0.478911">
        <ele>1149.3</ele>
        <time>2018-07-22T11:29:29.000Z</time>
      </trkpt>
      <trkpt lat="42.317368" lon="-0.478902">
        <ele>1149.1</ele>
        <time>2018-07-22T11:29:30.000Z</time>
      </trkpt>
      <trkpt lat="42.317374" lon="-0.478892">
        <ele>1148.9</ele>
        <time>2018-07-22T11:29:31.000Z</time>
      </trkpt>
      <trkpt lat="42.317379" lon="-0.478884">
        <ele>1148.7</ele>
        <time>2018-07-22T11:29:32.000Z</time>
      </trkpt>
      <trkpt lat="42.317384" lon="-0.478878">
        <ele>1148.6</ele>
        <time>2018-07-22T11:29:33.000Z</time>
      </trkpt>
      <trkpt lat="42.31739" lon="-0.478873">
        <ele>1148.4</ele>
        <time>2018-07-22T11:29:34.000Z</time>
      </trkpt>
      <trkpt lat="42.317395" lon="-0.478869">
        <ele>1148.3</ele>
        <time>2018-07-22T11:29:35.000Z</time>
      </trkpt>
      <trkpt lat="42.3174" lon="-0.478863">
        <ele>1148.1</ele>
        <time>2018-07-22T11:29:36.000Z</time>
      </trkpt>
      <trkpt lat="42.317405" lon="-0.478856">
        <ele>1147.9</ele>
        <time>2018-07-22T11:29:37.000Z</time>
      </trkpt>
      <trkpt lat="42.31741" lon="-0.478848">
        <ele>1147.8</ele>
        <time>2018-07-22T11:29:38.000Z</time>
      </trkpt>
      <trkpt lat="42.317415" lon="-0.47884">
        <ele>1147.6</ele>
        <time>2018-07-22T11:29:39.000Z</time>
      </trkpt>
      <trkpt lat="42.31742" lon="-0.478831">
        <ele>1147.4</ele>
        <time>2018-07-22T11:29:40.000Z</time>
      </trkpt>
      <trkpt lat="42.317425" lon="-0.478822">
        <ele>1147.2</ele>
        <time>2018-07-22T11:29:41.000Z</time>
      </trkpt>
      <trkpt lat="42.317429" lon="-0.478814">
        <ele>1147.0</ele>
        <time>2018-07-22T11:29:42.000Z</time>
      </trkpt>
      <trkpt lat="42.317432" lon="-0.478807">
        <ele>1146.9</ele>
        <time>2018-07-22T11:29:43.000Z</time>
      </trkpt>
      <trkpt lat="42.317436" lon="-0.4788">
        <ele>1146.7</ele>
        <time>2018-07-22T11:29:44.000Z</time>
      </trkpt>
      <trkpt lat="42.317438" lon="-0.478794">
        <ele>1146.6</ele>
        <time>2018-07-22T11:29:45.000Z</time>
      </trkpt>
      <trkpt lat="42.317441" lon="-0.478789">
        <ele>1146.5</ele>
        <time>2018-07-22T11:29:46.000Z</time>
      </trkpt>
      <trkpt lat="42.317443" lon="-0.478784">
        <ele>1146.4</ele>
        <time>2018-07-22T11:29:47.000Z</time>
      </trkpt>
      <trkpt lat="42.317445" lon="-0.47878">
        <ele>1146.3</ele>
        <time>2018-07-22T11:29:48.000Z</time>
      </trkpt>
      <trkpt lat="42.317446" lon="-0.478776">
        <ele>1146.3</ele>
        <time>2018-07-22T11:29:49.000Z</time>
      </trkpt>
      <trkpt lat="42.317448" lon="-0.478772">
        <ele>1146.2</ele>
        <time>2018-07-22T11:29:50.000Z</time>
      </trkpt>
      <trkpt lat="42.317449" lon="-0.478769">
        <ele>1146.1</ele>
        <time>2018-07-22T11:29:51.000Z</time>
      </trkpt>
      <trkpt lat="42.31745" lon="-0.478766">
        <ele>1146.1</ele>
        <time>2018-07-22T11:29:52.000Z</time>
      </trkpt>
      <trkpt lat="42.31745" lon="-0.478764">
        <ele>1146.0</ele>
        <time>2018-07-22T11:29:53.000Z</time>
      </trkpt>
      <trkpt lat="42.317451" lon="-0.478762">
        <ele>1146.0</ele>
        <time>2018-07-22T11:29:54.000Z</time>
      </trkpt>
      <trkpt lat="42.317451" lon="-0.47876">
        <ele>1146.0</ele>
        <time>2018-07-22T11:29:55.000Z</time>
      </trkpt>
      <trkpt lat="42.317452" lon="-0.478758">
        <ele>1145.9</ele>
        <time>2018-07-22T11:29:56.000Z</time>
      </trkpt>
      <trkpt lat="42.317452" lon="-0.478756">
        <ele>1145.9</ele>
        <time>2018-07-22T11:29:57.000Z</time>
      </trkpt>
      <trkpt lat="42.317452" lon="-0.478754">
        <ele>1145.9</ele>
        <time>2018-07-22T11:29:58.000Z</time>
      </trkpt>
      <trkpt lat="42.317452" lon="-0.478753">
        <ele>1145.9</ele>
        <time>2018-07-22T11:29:59.000Z</time>
      </trkpt>
      <trkpt lat="42.317453" lon="-0.478751">
        <ele>1145.8</ele>
        <time>2018-07-22T11:30:00.000Z</time>
      </trkpt>
      <trkpt lat="42.317453" lon="-0.47875">
        <ele>1145.8</ele>
        <time>2018-07-22T11:30:01.000Z</time>
      </trkpt>
      <trkpt lat="42.317453" lon="-0.478748">
        <ele>1145.8</ele>
        <time>2018-07-22T11:30:02.000Z</time>
      </trkpt>
      <trkpt lat="42.317453" lon="-0.478746">
        <ele>1145.8</ele>
        <time>2018-07-22T11:30:03.000Z</time>
      </trkpt>
      <trkpt lat="42.317454" lon="-0.478745">
        <ele>1145.7</ele>
        <time>2018-07-22T11:30:04.000Z</time>
      </trkpt>
      <trkpt lat="42.317454" lon="-0.478743">
        <ele>1145.7</ele>
        <time>2018-07-22T11:30:05.000Z</time>
      </trkpt>
      <trkpt lat="42.317455" lon="-0.478741">
        <ele>1145.7</ele>
        <time>2018-07-22T11:30:06.000Z</time>
      </trkpt>
      <trkpt lat="42.317455" lon="-0.478739">
        <ele>1145.7</ele>
        <time>2018-07-22T11:30:07.000Z</time>
      </trkpt>
      <trkpt lat="42.317456" lon="-0.478738">
        <ele>1145.6</ele>
        <time>2018-07-22T11:30:08.000Z</time>
      </trkpt>
      <trkpt lat="42.317456" lon="-0.478738">
        <ele>1145.6</ele>
        <time>2018-07-22T11:30:09.000Z</time>
      </trkpt>
      <trkpt lat="42.317456" lon="-0.478737">
        <ele>1145.6</ele>
        <time>2018-07-22T11:30:10.000Z</time>
      </trkpt>
      <trkpt lat="42.317456" lon="-0.478737">
        <ele>1145.6</ele>
        <time>2018-07-22T11:30:11.000Z</time>
      </trkpt>
      <trkpt lat="42.317456" lon="-0.478737">
        <ele>1145.6</ele>
        <time>2018-07-22T11:30:12.000Z</time>
      </trkpt>
      <trkpt lat="42.317456" lon="-0.478736">
        <ele>1145.6</ele>
        <time>2018-07-22T11:30:13.000Z</time>
      </trkpt>
      <trkpt lat="42.317456" lon="-0.478731">
        <ele>1145.5</ele>
        <time>2018-07-22T11:30:14.000Z</time>
      </trkpt>
      <trkpt lat="42.317458" lon="-0.478725">
        <ele>1145.4</ele>
        <time>2018-07-22T11:30:15.000Z</time>
      </trkpt>
      <trkpt lat="42.317461" lon="-0.478719">
        <ele>1145.3</ele>
        <time>2018-07-22T11:30:16.000Z</time>
      </trkpt>
      <trkpt lat="42.317466" lon="-0.478712">
        <ele>1145.1</ele>
        <time>2018-07-22T11:30:17.000Z</time>
      </trkpt>
      <trkpt lat="42.317472" lon="-0.478705">
        <ele>1144.9</ele>
        <time>2018-07-22T11:30:18.000Z</time>
      </trkpt>
      <trkpt lat="42.317478" lon="-0.478697">
        <ele>1144.7</ele>
        <time>2018-07-22T11:30:19.000Z</time>
      </trkpt>
      <trkpt lat="42.317484" lon="-0.478691">
        <ele>1144.6</ele>
        <time>2018-07-22T11:30:20.000Z</time>
      </trkpt>
      <trkpt lat="42.317489" lon="-0.478685">
        <ele>1144.4</ele>
        <time>2018-07-22T11:30:21.000Z</time>
      </trkpt>
      <trkpt lat="42.317492" lon="-0.478681">
        <ele>1144.3</ele>
        <time>2018-07-22T11:30:22.000Z</time>
      </trkpt>
      <trkpt lat="42.317494" lon="-0.478679">
        <ele>1144.3</ele>
        <time>2018-07-22T11:30:23.000Z</time>
      </trkpt>
      <trkpt lat="42.317495" lon="-0.478678">
        <ele>1144.2</ele>
        <time>2018-07-22T11:30:24.000Z</time>
      </trkpt>
      <trkpt lat="42.317494" lon="-0.478679">
        <ele>1144.3</ele>
        <time>2018-07-22T11:30:25.000Z</time>
      </trkpt>
      <trkpt lat="42.317491" lon="-0.478681">
        <ele>1144.3</ele>
        <time>2018-07-22T11:30:26.000Z</time>
      </trkpt>
      <trkpt lat="42.317488" lon="-0.478685">
        <ele>1144.4</ele>
        <time>2018-07-22T11:30:27.000Z</time>
      </trkpt>
      <trkpt lat="42.317485" lon="-0.47869">
        <ele>1144.5</ele>
        <time>2018-07-22T11:30:28.000Z</time>
      </trkpt>
      <trkpt lat="42.317481" lon="-0.478695">
        <ele>1144.7</ele>
        <time>2018-07-22T11:30:29.000Z</time>
      </trkpt>
      <trkpt lat="42.317478" lon="-0.478698">
        <ele>1144.8</ele>
        <time>2018-07-22T11:30:30.000Z</time>
      </trkpt>
      <trkpt lat="42.317476" lon="-0.478701">
        <ele>1144.8</ele>
        <time>2018-07-22T11:30:31.000Z</time>
      </trkpt>
      <trkpt lat="42.317475" lon="-0.478701">
        <ele>1144.8</ele>
        <time>2018-07-22T11:30:32.000Z</time>
      </trkpt>
      <trkpt lat="42.317476" lon="-0.4787">
        <ele>1144.8</ele>
        <time>2018-07-22T11:30:33.000Z</time>
      </trkpt>
      <trkpt lat="42.317476" lon="-0.478698">
        <ele>1144.8</ele>
        <time>2018-07-22T11:30:34.000Z</time>
      </trkpt>
      <trkpt lat="42.317477" lon="-0.478697">
        <ele>1144.8</ele>
        <time>2018-07-22T11:30:35.000Z</time>
      </trkpt>
      <trkpt lat="42.317477" lon="-0.478696">
        <ele>1144.8</ele>
        <time>2018-07-22T11:30:36.000Z</time>
      </trkpt>
      <trkpt lat="42.317476" lon="-0.478696">
        <ele>1144.8</ele>
        <time>2018-07-22T11:30:37.000Z</time>
      </trkpt>
      <trkpt lat="42.317474" lon="-0.478697">
        <ele>1144.8</ele>
        <time>2018-07-22T11:30:38.000Z</time>
      </trkpt>
      <trkpt lat="42.317472" lon="-0.478699">
        <ele>1144.9</ele>
        <time>2018-07-22T11:30:39.000Z</time>
      </trkpt>
      <trkpt lat="42.31747" lon="-0.478701">
        <ele>1144.9</ele>
        <time>2018-07-22T11:30:40.000Z</time>
      </trkpt>
      <trkpt lat="42.317469" lon="-0.478701">
        <ele>1144.9</ele>
        <time>2018-07-22T11:30:41.000Z</time>
      </trkpt>
      <trkpt lat="42.317469" lon="-0.478701">
        <ele>1144.9</ele>
        <time>2018-07-22T11:30:42.000Z</time>
      </trkpt>
      <trkpt lat="42.31747" lon="-0.478699">
        <ele>1144.9</ele>
        <time>2018-07-22T11:30:43.000Z</time>
      </trkpt>
      <trkpt lat="42.317472" lon="-0.478696">
        <ele>1144.8</ele>
        <time>2018-07-22T11:30:44.000Z</time>
      </trkpt>
      <trkpt lat="42.317472" lon="-0.478693">
        <ele>1144.8</ele>
        <time>2018-07-22T11:30:45.000Z</time>
      </trkpt>
      <trkpt lat="42.31747" lon="-0.478691">
        <ele>1144.8</ele>
        <time>2018-07-22T11:30:46.000Z</time>
      </trkpt>
      <trkpt lat="42.317467" lon="-0.478689">
        <ele>1144.8</ele>
        <time>2018-07-22T11:30:47.000Z</time>
      </trkpt>
      <trkpt lat="42.317466" lon="-0.478689">
        <ele>1144.9</ele>
        <time>2018-07-22T11:30:48.000Z</time>
      </trkpt>
      <trkpt lat="42.317466" lon="-0.478689">
        <ele>1144.9</ele>
        <time>2018-07-22T11:30:49.000Z</time>
      </trkpt>
      <trkpt lat="42.317467" lon="-0.478688">
        <ele>1144.8</ele>
        <time>2018-07-22T11:30:50.000Z</time>
      </trkpt>
      <trkpt lat="42.317468" lon="-0.478688">
        <ele>1144.8</ele>
        <time>2018-07-22T11:30:51.000Z</time>
      </trkpt>
      <trkpt lat="42.317469" lon="-0.478687">
        <ele>1144.8</ele>
        <time>2018-07-22T11:30:52.000Z</time>
      </trkpt>
      <trkpt lat="42.317468" lon="-0.478684">
        <ele>1144.8</ele>
        <time>2018-07-22T11:30:53.000Z</time>
      </trkpt>
      <trkpt lat="42.317467" lon="-0.478681">
        <ele>1144.7</ele>
        <time>2018-07-22T11:30:54.000Z</time>
      </trkpt>
      <trkpt lat="42.317465" lon="-0.478675">
        <ele>1144.7</ele>
        <time>2018-07-22T11:30:55.000Z</time>
      </trkpt>
      <trkpt lat="42.317462" lon="-0.478669">
        <ele>1144.7</ele>
        <time>2018-07-22T11:30:56.000Z</time>
      </trkpt>
      <trkpt lat="42.317458" lon="-0.478662">
        <ele>1144.7</ele>
        <time>2018-07-22T11:30:57.000Z</time>
      </trkpt>
      <trkpt lat="42.317453" lon="-0.478654">
        <ele>1144.7</ele>
        <time>2018-07-22T11:30:58.000Z</time>
      </trkpt>
      <trkpt lat="42.317448" lon="-0.478645">
        <ele>1144.6</ele>
        <time>2018-07-22T11:30:59.000Z</time>
      </trkpt>
      <trkpt lat="42.317443" lon="-0.478636">
        <ele>1144.6</ele>
        <time>2018-07-22T11:31:00.000Z</time>
      </trkpt>
      <trkpt lat="42.317437" lon="-0.478627">
        <ele>1144.6</ele>
        <time>2018-07-22T11:31:01.000Z</time>
      </trkpt>
      <trkpt lat="42.317431" lon="-0.478617">
        <ele>1144.6</ele>
        <time>2018-07-22T11:31:02.000Z</time>
      </trkpt>
      <trkpt lat="42.317425" lon="-0.478607">
        <ele>1144.6</ele>
        <time>2018-07-22T11:31:03.000Z</time>
      </trkpt>
      <trkpt lat="42.317418" lon="-0.478597">
        <ele>1144.6</ele>
        <time>2018-07-22T11:31:04.000Z</time>
      </trkpt>
      <trkpt lat="42.317412" lon="-0.478586">
        <ele>1144.5</ele>
        <time>2018-07-22T11:31:05.000Z</time>
      </trkpt>
      <trkpt lat="42.317405" lon="-0.478576">
        <ele>1144.5</ele>
        <time>2018-07-22T11:31:06.000Z</time>
      </trkpt>
      <trkpt lat="42.317397" lon="-0.478566">
        <ele>1144.6</ele>
        <time>2018-07-22T11:31:07.000Z</time>
      </trkpt>
      <trkpt lat="42.31739" lon="-0.478555">
        <ele>1144.5</ele>
        <time>2018-07-22T11:31:08.000Z</time>
      </trkpt>
      <trkpt lat="42.317382" lon="-0.478545">
        <ele>1144.6</ele>
        <time>2018-07-22T11:31:09.000Z</time>
      </trkpt>
      <trkpt lat="42.317374" lon="-0.478535">
        <ele>1144.6</ele>
        <time>2018-07-22T11:31:10.000Z</time>
      </trkpt>
      <trkpt lat="42.317366" lon="-0.478525">
        <ele>1144.6</ele>
        <time>2018-07-22T11:31:11.000Z</time>
      </trkpt>
      <trkpt lat="42.317358" lon="-0.478515">
        <ele>1144.6</ele>
        <time>2018-07-22T11:31:12.000Z</time>
      </trkpt>
      <trkpt lat="42.31735" lon="-0.478505">
        <ele>1144.6</ele>
        <time>2018-07-22T11:31:13.000Z</time>
      </trkpt>
      <trkpt lat="42.317342" lon="-0.478496">
        <ele>1144.6</ele>
        <time>2018-07-22T11:31:14.000Z</time>
      </trkpt>
      <trkpt lat="42.317334" lon="-0.478485">
        <ele>1144.6</ele>
        <time>2018-07-22T11:31:15.000Z</time>
      </trkpt>
      <trkpt lat="42.317325" lon="-0.478475">
        <ele>1144.7</ele>
        <time>2018-07-22T11:31:16.000Z</time>
      </trkpt>
      <trkpt lat="42.317317" lon="-0.478465">
        <ele>1144.7</ele>
        <time>2018-07-22T11:31:17.000Z</time>
      </trkpt>
      <trkpt lat="42.317309" lon="-0.478454">
        <ele>1144.7</ele>
        <time>2018-07-22T11:31:18.000Z</time>
      </trkpt>
      <trkpt lat="42.317301" lon="-0.478443">
        <ele>1144.7</ele>
        <time>2018-07-22T11:31:19.000Z</time>
      </trkpt>
      <trkpt lat="42.317293" lon="-0.478432">
        <ele>1144.7</ele>
        <time>2018-07-22T11:31:20.000Z</time>
      </trkpt>
      <trkpt lat="42.317285" lon="-0.478421">
        <ele>1144.7</ele>
        <time>2018-07-22T11:31:21.000Z</time>
      </trkpt>
      <trkpt lat="42.317278" lon="-0.478409">
        <ele>1144.7</ele>
        <time>2018-07-22T11:31:22.000Z</time>
      </trkpt>
      <trkpt lat="42.31727" lon="-0.478398">
        <ele>1144.7</ele>
        <time>2018-07-22T11:31:23.000Z</time>
      </trkpt>
      <trkpt lat="42.317262" lon="-0.478386">
        <ele>1144.6</ele>
        <time>2018-07-22T11:31:24.000Z</time>
      </trkpt>
      <trkpt lat="42.317254" lon="-0.478374">
        <ele>1144.6</ele>
        <time>2018-07-22T11:31:25.000Z</time>
      </trkpt>
      <trkpt lat="42.317246" lon="-0.478362">
        <ele>1144.6</ele>
        <time>2018-07-22T11:31:26.000Z</time>
      </trkpt>
      <trkpt lat="42.317238" lon="-0.478351">
        <ele>1144.6</ele>
        <time>2018-07-22T11:31:27.000Z</time>
      </trkpt>
      <trkpt lat="42.317229" lon="-0.47834">
        <ele>1144.6</ele>
        <time>2018-07-22T11:31:28.000Z</time>
      </trkpt>
      <trkpt lat="42.31722" lon="-0.478329">
        <ele>1144.7</ele>
        <time>2018-07-22T11:31:29.000Z</time>
      </trkpt>
      <trkpt lat="42.317211" lon="-0.478318">
        <ele>1144.7</ele>
        <time>2018-07-22T11:31:30.000Z</time>
      </trkpt>
      <trkpt lat="42.317202" lon="-0.478308">
        <ele>1144.8</ele>
        <time>2018-07-22T11:31:31.000Z</time>
      </trkpt>
      <trkpt lat="42.317192" lon="-0.478298">
        <ele>1144.8</ele>
        <time>2018-07-22T11:31:32.000Z</time>
      </trkpt>
      <trkpt lat="42.317182" lon="-0.478288">
        <ele>1144.9</ele>
        <time>2018-07-22T11:31:33.000Z</time>
      </trkpt>
      <trkpt lat="42.317171" lon="-0.478279">
        <ele>1145.0</ele>
        <time>2018-07-22T11:31:34.000Z</time>
      </trkpt>
      <trkpt lat="42.317161" lon="-0.478271">
        <ele>1145.1</ele>
        <time>2018-07-22T11:31:35.000Z</time>
      </trkpt>
      <trkpt lat="42.31715" lon="-0.478262">
        <ele>1145.1</ele>
        <time>2018-07-22T11:31:36.000Z</time>
      </trkpt>
      <trkpt lat="42.31714" lon="-0.478254">
        <ele>1145.2</ele>
        <time>2018-07-22T11:31:37.000Z</time>
      </trkpt>
      <trkpt lat="42.317129" lon="-0.478247">
        <ele>1145.3</ele>
        <time>2018-07-22T11:31:38.000Z</time>
      </trkpt>
      <trkpt lat="42.317119" lon="-0.47824">
        <ele>1145.4</ele>
        <time>2018-07-22T11:31:39.000Z</time>
      </trkpt>
      <trkpt lat="42.317108" lon="-0.478233">
        <ele>1145.5</ele>
        <time>2018-07-22T11:31:40.000Z</time>
      </trkpt>
      <trkpt lat="42.317098" lon="-0.478227">
        <ele>1145.6</ele>
        <time>2018-07-22T11:31:41.000Z</time>
      </trkpt>
      <trkpt lat="42.317088" lon="-0.478221">
        <ele>1145.6</ele>
        <time>2018-07-22T11:31:42.000Z</time>
      </trkpt>
      <trkpt lat="42.317078" lon="-0.478215">
        <ele>1145.7</ele>
        <time>2018-07-22T11:31:43.000Z</time>
      </trkpt>
      <trkpt lat="42.317068" lon="-0.478209">
        <ele>1145.8</ele>
        <time>2018-07-22T11:31:44.000Z</time>
      </trkpt>
      <trkpt lat="42.317058" lon="-0.478204">
        <ele>1145.9</ele>
        <time>2018-07-22T11:31:45.000Z</time>
      </trkpt>
      <trkpt lat="42.317048" lon="-0.478199">
        <ele>1146.0</ele>
        <time>2018-07-22T11:31:46.000Z</time>
      </trkpt>
      <trkpt lat="42.317039" lon="-0.478194">
        <ele>1146.1</ele>
        <time>2018-07-22T11:31:47.000Z</time>
      </trkpt>
      <trkpt lat="42.317029" lon="-0.478189">
        <ele>1146.1</ele>
        <time>2018-07-22T11:31:48.000Z</time>
      </trkpt>
      <trkpt lat="42.317018" lon="-0.478184">
        <ele>1146.2</ele>
        <time>2018-07-22T11:31:49.000Z</time>
      </trkpt>
      <trkpt lat="42.317008" lon="-0.478178">
        <ele>1146.3</ele>
        <time>2018-07-22T11:31:50.000Z</time>
      </trkpt>
      <trkpt lat="42.316997" lon="-0.478173">
        <ele>1146.4</ele>
        <time>2018-07-22T11:31:51.000Z</time>
      </trkpt>
      <trkpt lat="42.316986" lon="-0.478167">
        <ele>1146.5</ele>
        <time>2018-07-22T11:31:52.000Z</time>
      </trkpt>
      <trkpt lat="42.316974" lon="-0.478161">
        <ele>1146.6</ele>
        <time>2018-07-22T11:31:53.000Z</time>
      </trkpt>
      <trkpt lat="42.316962" lon="-0.478155">
        <ele>1146.7</ele>
        <time>2018-07-22T11:31:54.000Z</time>
      </trkpt>
      <trkpt lat="42.31695" lon="-0.478148">
        <ele>1146.7</ele>
        <time>2018-07-22T11:31:55.000Z</time>
      </trkpt>
      <trkpt lat="42.316937" lon="-0.478141">
        <ele>1146.8</ele>
        <time>2018-07-22T11:31:56.000Z</time>
      </trkpt>
      <trkpt lat="42.316925" lon="-0.478135">
        <ele>1146.9</ele>
        <time>2018-07-22T11:31:57.000Z</time>
      </trkpt>
      <trkpt lat="42.316912" lon="-0.478128">
        <ele>1147.0</ele>
        <time>2018-07-22T11:31:58.000Z</time>
      </trkpt>
      <trkpt lat="42.316899" lon="-0.478122">
        <ele>1147.1</ele>
        <time>2018-07-22T11:31:59.000Z</time>
      </trkpt>
      <trkpt lat="42.316886" lon="-0.478115">
        <ele>1147.1</ele>
        <time>2018-07-22T11:32:00.000Z</time>
      </trkpt>
      <trkpt lat="42.316874" lon="-0.478109">
        <ele>1147.2</ele>
        <time>2018-07-22T11:32:01.000Z</time>
      </trkpt>
      <trkpt lat="42.316861" lon="-0.478103">
        <ele>1147.3</ele>
        <time>2018-07-22T11:32:02.000Z</time>
      </trkpt>
      <trkpt lat="42.316849" lon="-0.478098">
        <ele>1147.4</ele>
        <time>2018-07-22T11:32:03.000Z</time>
      </trkpt>
      <trkpt lat="42.316837" lon="-0.478093">
        <ele>1147.5</ele>
        <time>2018-07-22T11:32:04.000Z</time>
      </trkpt>
      <trkpt lat="42.316826" lon="-0.478089">
        <ele>1147.5</ele>
        <time>2018-07-22T11:32:05.000Z</time>
      </trkpt>
      <trkpt lat="42.316815" lon="-0.478085">
        <ele>1147.6</ele>
        <time>2018-07-22T11:32:06.000Z</time>
      </trkpt>
      <trkpt lat="42.316804" lon="-0.478081">
        <ele>1147.7</ele>
        <time>2018-07-22T11:32:07.000Z</time>
      </trkpt>
      <trkpt lat="42.316793" lon="-0.478078">
        <ele>1147.8</ele>
        <time>2018-07-22T11:32:08.000Z</time>
      </trkpt>
      <trkpt lat="42.316782" lon="-0.478074">
        <ele>1147.9</ele>
        <time>2018-07-22T11:32:09.000Z</time>
      </trkpt>
      <trkpt lat="42.316772" lon="-0.478071">
        <ele>1147.9</ele>
        <time>2018-07-22T11:32:10.000Z</time>
      </trkpt>
      <trkpt lat="42.316762" lon="-0.478068">
        <ele>1148.0</ele>
        <time>2018-07-22T11:32:11.000Z</time>
      </trkpt>
      <trkpt lat="42.316751" lon="-0.478066">
        <ele>1148.1</ele>
        <time>2018-07-22T11:32:12.000Z</time>
      </trkpt>
      <trkpt lat="42.316741" lon="-0.478063">
        <ele>1148.2</ele>
        <time>2018-07-22T11:32:13.000Z</time>
      </trkpt>
      <trkpt lat="42.316731" lon="-0.47806">
        <ele>1148.3</ele>
        <time>2018-07-22T11:32:14.000Z</time>
      </trkpt>
      <trkpt lat="42.316721" lon="-0.478058">
        <ele>1148.4</ele>
        <time>2018-07-22T11:32:15.000Z</time>
      </trkpt>
      <trkpt lat="42.316711" lon="-0.478055">
        <ele>1148.4</ele>
        <time>2018-07-22T11:32:16.000Z</time>
      </trkpt>
      <trkpt lat="42.316701" lon="-0.478052">
        <ele>1148.5</ele>
        <time>2018-07-22T11:32:17.000Z</time>
      </trkpt>
      <trkpt lat="42.316691" lon="-0.478049">
        <ele>1148.6</ele>
        <time>2018-07-22T11:32:18.000Z</time>
      </trkpt>
      <trkpt lat="42.316681" lon="-0.478047">
        <ele>1148.7</ele>
        <time>2018-07-22T11:32:19.000Z</time>
      </trkpt>
      <trkpt lat="42.316671" lon="-0.478044">
        <ele>1148.7</ele>
        <time>2018-07-22T11:32:20.000Z</time>
      </trkpt>
      <trkpt lat="42.316661" lon="-0.478041">
        <ele>1148.8</ele>
        <time>2018-07-22T11:32:21.000Z</time>
      </trkpt>
      <trkpt lat="42.31665" lon="-0.478038">
        <ele>1148.9</ele>
        <time>2018-07-22T11:32:22.000Z</time>
      </trkpt>
      <trkpt lat="42.31664" lon="-0.478036">
        <ele>1148.9</ele>
        <time>2018-07-22T11:32:23.000Z</time>
      </trkpt>
      <trkpt lat="42.31663" lon="-0.478033">
        <ele>1149.0</ele>
        <time>2018-07-22T11:32:24.000Z</time>
      </trkpt>
      <trkpt lat="42.316619" lon="-0.47803">
        <ele>1149.0</ele>
        <time>2018-07-22T11:32:25.000Z</time>
      </trkpt>
      <trkpt lat="42.316609" lon="-0.478028">
        <ele>1149.1</ele>
        <time>2018-07-22T11:32:26.000Z</time>
      </trkpt>
      <trkpt lat="42.316598" lon="-0.478025">
        <ele>1149.2</ele>
        <time>2018-07-22T11:32:27.000Z</time>
      </trkpt>
      <trkpt lat="42.316588" lon="-0.478023">
        <ele>1149.2</ele>
        <time>2018-07-22T11:32:28.000Z</time>
      </trkpt>
      <trkpt lat="42.316577" lon="-0.47802">
        <ele>1149.3</ele>
        <time>2018-07-22T11:32:29.000Z</time>
      </trkpt>
      <trkpt lat="42.316566" lon="-0.478017">
        <ele>1149.3</ele>
        <time>2018-07-22T11:32:30.000Z</time>
      </trkpt>
      <trkpt lat="42.316556" lon="-0.478014">
        <ele>1149.4</ele>
        <time>2018-07-22T11:32:31.000Z</time>
      </trkpt>
      <trkpt lat="42.316546" lon="-0.478011">
        <ele>1149.4</ele>
        <time>2018-07-22T11:32:32.000Z</time>
      </trkpt>
      <trkpt lat="42.316536" lon="-0.478007">
        <ele>1149.5</ele>
        <time>2018-07-22T11:32:33.000Z</time>
      </trkpt>
      <trkpt lat="42.316526" lon="-0.478003">
        <ele>1149.5</ele>
        <time>2018-07-22T11:32:34.000Z</time>
      </trkpt>
      <trkpt lat="42.316516" lon="-0.477998">
        <ele>1149.5</ele>
        <time>2018-07-22T11:32:35.000Z</time>
      </trkpt>
      <trkpt lat="42.316507" lon="-0.477993">
        <ele>1149.5</ele>
        <time>2018-07-22T11:32:36.000Z</time>
      </trkpt>
      <trkpt lat="42.316498" lon="-0.477988">
        <ele>1149.5</ele>
        <time>2018-07-22T11:32:37.000Z</time>
      </trkpt>
      <trkpt lat="42.316489" lon="-0.477982">
        <ele>1149.5</ele>
        <time>2018-07-22T11:32:38.000Z</time>
      </trkpt>
      <trkpt lat="42.31648" lon="-0.477975">
        <ele>1149.5</ele>
        <time>2018-07-22T11:32:39.000Z</time>
      </trkpt>
      <trkpt lat="42.316471" lon="-0.477969">
        <ele>1149.5</ele>
        <time>2018-07-22T11:32:40.000Z</time>
      </trkpt>
      <trkpt lat="42.316462" lon="-0.477961">
        <ele>1149.4</ele>
        <time>2018-07-22T11:32:41.000Z</time>
      </trkpt>
      <trkpt lat="42.316453" lon="-0.477954">
        <ele>1149.4</ele>
        <time>2018-07-22T11:32:42.000Z</time>
      </trkpt>
      <trkpt lat="42.316444" lon="-0.477946">
        <ele>1149.3</ele>
        <time>2018-07-22T11:32:43.000Z</time>
      </trkpt>
      <trkpt lat="42.316435" lon="-0.477937">
        <ele>1149.2</ele>
        <time>2018-07-22T11:32:44.000Z</time>
      </trkpt>
      <trkpt lat="42.316425" lon="-0.477929">
        <ele>1149.2</ele>
        <time>2018-07-22T11:32:45.000Z</time>
      </trkpt>
      <trkpt lat="42.316416" lon="-0.47792">
        <ele>1149.1</ele>
        <time>2018-07-22T11:32:46.000Z</time>
      </trkpt>
      <trkpt lat="42.316405" lon="-0.477911">
        <ele>1149.1</ele>
        <time>2018-07-22T11:32:47.000Z</time>
      </trkpt>
      <trkpt lat="42.316395" lon="-0.477901">
        <ele>1149.0</ele>
        <time>2018-07-22T11:32:48.000Z</time>
      </trkpt>
      <trkpt lat="42.316384" lon="-0.477892">
        <ele>1148.9</ele>
        <time>2018-07-22T11:32:49.000Z</time>
      </trkpt>
      <trkpt lat="42.316373" lon="-0.477882">
        <ele>1148.9</ele>
        <time>2018-07-22T11:32:50.000Z</time>
      </trkpt>
      <trkpt lat="42.316362" lon="-0.477872">
        <ele>1148.8</ele>
        <time>2018-07-22T11:32:51.000Z</time>
      </trkpt>
      <trkpt lat="42.31635" lon="-0.477862">
        <ele>1148.7</ele>
        <time>2018-07-22T11:32:52.000Z</time>
      </trkpt>
      <trkpt lat="42.316339" lon="-0.477852">
        <ele>1148.6</ele>
        <time>2018-07-22T11:32:53.000Z</time>
      </trkpt>
      <trkpt lat="42.316328" lon="-0.477842">
        <ele>1148.6</ele>
        <time>2018-07-22T11:32:54.000Z</time>
      </trkpt>
      <trkpt lat="42.316317" lon="-0.477833">
        <ele>1148.5</ele>
        <time>2018-07-22T11:32:55.000Z</time>
      </trkpt>
      <trkpt lat="42.316307" lon="-0.477823">
        <ele>1148.4</ele>
        <time>2018-07-22T11:32:56.000Z</time>
      </trkpt>
      <trkpt lat="42.316296" lon="-0.477814">
        <ele>1148.4</ele>
        <time>2018-07-22T11:32:57.000Z</time>
      </trkpt>
      <trkpt lat="42.316287" lon="-0.477805">
        <ele>1148.3</ele>
        <time>2018-07-22T11:32:58.000Z</time>
      </trkpt>
      <trkpt lat="42.316277" lon="-0.477796">
        <ele>1148.2</ele>
        <time>2018-07-22T11:32:59.000Z</time>
      </trkpt>
      <trkpt lat="42.316268" lon="-0.477787">
        <ele>1148.2</ele>
        <time>2018-07-22T11:33:00.000Z</time>
      </trkpt>
      <trkpt lat="42.316259" lon="-0.477779">
        <ele>1148.1</ele>
        <time>2018-07-22T11:33:01.000Z</time>
      </trkpt>
      <trkpt lat="42.31625" lon="-0.477771">
        <ele>1148.0</ele>
        <time>2018-07-22T11:33:02.000Z</time>
      </trkpt>
      <trkpt lat="42.316241" lon="-0.477763">
        <ele>1148.0</ele>
        <time>2018-07-22T11:33:03.000Z</time>
      </trkpt>
      <trkpt lat="42.316232" lon="-0.477755">
        <ele>1147.9</ele>
        <time>2018-07-22T11:33:04.000Z</time>
      </trkpt>
      <trkpt lat="42.316223" lon="-0.477747">
        <ele>1147.9</ele>
        <time>2018-07-22T11:33:05.000Z</time>
      </trkpt>
      <trkpt lat="42.316213" lon="-0.477739">
        <ele>1147.8</ele>
        <time>2018-07-22T11:33:06.000Z</time>
      </trkpt>
      <trkpt lat="42.316204" lon="-0.477731">
        <ele>1147.8</ele>
        <time>2018-07-22T11:33:07.000Z</time>
      </trkpt>
      <trkpt lat="42.316194" lon="-0.477722">
        <ele>1147.7</ele>
        <time>2018-07-22T11:33:08.000Z</time>
      </trkpt>
      <trkpt lat="42.316184" lon="-0.477714">
        <ele>1147.6</ele>
        <time>2018-07-22T11:33:09.000Z</time>
      </trkpt>
      <trkpt lat="42.316174" lon="-0.477706">
        <ele>1147.6</ele>
        <time>2018-07-22T11:33:10.000Z</time>
      </trkpt>
      <trkpt lat="42.316163" lon="-0.477698">
        <ele>1147.5</ele>
        <time>2018-07-22T11:33:11.000Z</time>
      </trkpt>
      <trkpt lat="42.316152" lon="-0.477689">
        <ele>1147.5</ele>
        <time>2018-07-22T11:33:12.000Z</time>
      </trkpt>
      <trkpt lat="42.31614" lon="-0.477681">
        <ele>1147.5</ele>
        <time>2018-07-22T11:33:13.000Z</time>
      </trkpt>
      <trkpt lat="42.316129" lon="-0.477673">
        <ele>1147.4</ele>
        <time>2018-07-22T11:33:14.000Z</time>
      </trkpt>
      <trkpt lat="42.316117" lon="-0.477666">
        <ele>1147.4</ele>
        <time>2018-07-22T11:33:15.000Z</time>
      </trkpt>
      <trkpt lat="42.316106" lon="-0.477659">
        <ele>1147.4</ele>
        <time>2018-07-22T11:33:16.000Z</time>
      </trkpt>
      <trkpt lat="42.316094" lon="-0.477652">
        <ele>1147.4</ele>
        <time>2018-07-22T11:33:17.000Z</time>
      </trkpt>
      <trkpt lat="42.316082" lon="-0.477645">
        <ele>1147.3</ele>
        <time>2018-07-22T11:33:18.000Z</time>
      </trkpt>
      <trkpt lat="42.316071" lon="-0.477639">
        <ele>1147.3</ele>
        <time>2018-07-22T11:33:19.000Z</time>
      </trkpt>
      <trkpt lat="42.316059" lon="-0.477634">
        <ele>1147.4</ele>
        <time>2018-07-22T11:33:20.000Z</time>
      </trkpt>
      <trkpt lat="42.316048" lon="-0.477629">
        <ele>1147.4</ele>
        <time>2018-07-22T11:33:21.000Z</time>
      </trkpt>
      <trkpt lat="42.316036" lon="-0.477624">
        <ele>1147.4</ele>
        <time>2018-07-22T11:33:22.000Z</time>
      </trkpt>
      <trkpt lat="42.316025" lon="-0.47762">
        <ele>1147.4</ele>
        <time>2018-07-22T11:33:23.000Z</time>
      </trkpt>
      <trkpt lat="42.316014" lon="-0.477617">
        <ele>1147.5</ele>
        <time>2018-07-22T11:33:24.000Z</time>
      </trkpt>
      <trkpt lat="42.316003" lon="-0.477613">
        <ele>1147.5</ele>
        <time>2018-07-22T11:33:25.000Z</time>
      </trkpt>
      <trkpt lat="42.315992" lon="-0.47761">
        <ele>1147.6</ele>
        <time>2018-07-22T11:33:26.000Z</time>
      </trkpt>
      <trkpt lat="42.315981" lon="-0.477607">
        <ele>1147.6</ele>
        <time>2018-07-22T11:33:27.000Z</time>
      </trkpt>
      <trkpt lat="42.31597" lon="-0.477604">
        <ele>1147.7</ele>
        <time>2018-07-22T11:33:28.000Z</time>
      </trkpt>
      <trkpt lat="42.315959" lon="-0.477601">
        <ele>1147.7</ele>
        <time>2018-07-22T11:33:29.000Z</time>
      </trkpt>
      <trkpt lat="42.315949" lon="-0.477599">
        <ele>1147.8</ele>
        <time>2018-07-22T11:33:30.000Z</time>
      </trkpt>
      <trkpt lat="42.315939" lon="-0.477596">
        <ele>1147.8</ele>
        <time>2018-07-22T11:33:31.000Z</time>
      </trkpt>
      <trkpt lat="42.315928" lon="-0.477594">
        <ele>1147.9</ele>
        <time>2018-07-22T11:33:32.000Z</time>
      </trkpt>
      <trkpt lat="42.315918" lon="-0.477592">
        <ele>1147.9</ele>
        <time>2018-07-22T11:33:33.000Z</time>
      </trkpt>
      <trkpt lat="42.315908" lon="-0.47759">
        <ele>1148.0</ele>
        <time>2018-07-22T11:33:34.000Z</time>
      </trkpt>
      <trkpt lat="42.315897" lon="-0.477588">
        <ele>1148.1</ele>
        <time>2018-07-22T11:33:35.000Z</time>
      </trkpt>
      <trkpt lat="42.315887" lon="-0.477587">
        <ele>1148.1</ele>
        <time>2018-07-22T11:33:36.000Z</time>
      </trkpt>
      <trkpt lat="42.315876" lon="-0.477585">
        <ele>1148.2</ele>
        <time>2018-07-22T11:33:37.000Z</time>
      </trkpt>
      <trkpt lat="42.315865" lon="-0.477584">
        <ele>1148.3</ele>
        <time>2018-07-22T11:33:38.000Z</time>
      </trkpt>
      <trkpt lat="42.315854" lon="-0.477583">
        <ele>1148.4</ele>
        <time>2018-07-22T11:33:39.000Z</time>
      </trkpt>
      <trkpt lat="42.315843" lon="-0.477582">
        <ele>1148.5</ele>
        <time>2018-07-22T11:33:40.000Z</time>
      </trkpt>
      <trkpt lat="42.315831" lon="-0.477581">
        <ele>1148.6</ele>
        <time>2018-07-22T11:33:41.000Z</time>
      </trkpt>
      <trkpt lat="42.315819" lon="-0.477581">
        <ele>1148.7</ele>
        <time>2018-07-22T11:33:42.000Z</time>
      </trkpt>
      <trkpt lat="42.315807" lon="-0.47758">
        <ele>1148.8</ele>
        <time>2018-07-22T11:33:43.000Z</time>
      </trkpt>
      <trkpt lat="42.315795" lon="-0.47758">
        <ele>1148.9</ele>
        <time>2018-07-22T11:33:44.000Z</time>
      </trkpt>
      <trkpt lat="42.315783" lon="-0.477579">
        <ele>1149.0</ele>
        <time>2018-07-22T11:33:45.000Z</time>
      </trkpt>
      <trkpt lat="42.315771" lon="-0.477578">
        <ele>1149.0</ele>
        <time>2018-07-22T11:33:46.000Z</time>
      </trkpt>
      <trkpt lat="42.315759" lon="-0.477578">
        <ele>1149.1</ele>
        <time>2018-07-22T11:33:47.000Z</time>
      </trkpt>
      <trkpt lat="42.315748" lon="-0.477576">
        <ele>1149.2</ele>
        <time>2018-07-22T11:33:48.000Z</time>
      </trkpt>
      <trkpt lat="42.315737" lon="-0.477575">
        <ele>1149.3</ele>
        <time>2018-07-22T11:33:49.000Z</time>
      </trkpt>
      <trkpt lat="42.315727" lon="-0.477573">
        <ele>1149.3</ele>
        <time>2018-07-22T11:33:50.000Z</time>
      </trkpt>
      <trkpt lat="42.315718" lon="-0.477571">
        <ele>1149.4</ele>
        <time>2018-07-22T11:33:51.000Z</time>
      </trkpt>
      <trkpt lat="42.315709" lon="-0.477568">
        <ele>1149.4</ele>
        <time>2018-07-22T11:33:52.000Z</time>
      </trkpt>
      <trkpt lat="42.315702" lon="-0.477566">
        <ele>1149.4</ele>
        <time>2018-07-22T11:33:53.000Z</time>
      </trkpt>
      <trkpt lat="42.315697" lon="-0.477565">
        <ele>1149.4</ele>
        <time>2018-07-22T11:33:54.000Z</time>
      </trkpt>
      <trkpt lat="42.315693" lon="-0.477566">
        <ele>1149.5</ele>
        <time>2018-07-22T11:33:55.000Z</time>
      </trkpt>
      <trkpt lat="42.31569" lon="-0.477566">
        <ele>1149.5</ele>
        <time>2018-07-22T11:33:56.000Z</time>
      </trkpt>
      <trkpt lat="42.315684" lon="-0.477565">
        <ele>1149.5</ele>
        <time>2018-07-22T11:33:57.000Z</time>
      </trkpt>
      <trkpt lat="42.315677" lon="-0.477561">
        <ele>1149.5</ele>
        <time>2018-07-22T11:33:58.000Z</time>
      </trkpt>
      <trkpt lat="42.315668" lon="-0.477557">
        <ele>1149.5</ele>
        <time>2018-07-22T11:33:59.000Z</time>
      </trkpt>
      <trkpt lat="42.315658" lon="-0.477551">
        <ele>1149.5</ele>
        <time>2018-07-22T11:34:00.000Z</time>
      </trkpt>
      <trkpt lat="42.315647" lon="-0.477545">
        <ele>1149.5</ele>
        <time>2018-07-22T11:34:01.000Z</time>
      </trkpt>
      <trkpt lat="42.315636" lon="-0.477539">
        <ele>1149.4</ele>
        <time>2018-07-22T11:34:02.000Z</time>
      </trkpt>
      <trkpt lat="42.315625" lon="-0.477533">
        <ele>1149.4</ele>
        <time>2018-07-22T11:34:03.000Z</time>
      </trkpt>
      <trkpt lat="42.315613" lon="-0.477527">
        <ele>1149.4</ele>
        <time>2018-07-22T11:34:04.000Z</time>
      </trkpt>
      <trkpt lat="42.315602" lon="-0.477521">
        <ele>1149.4</ele>
        <time>2018-07-22T11:34:05.000Z</time>
      </trkpt>
      <trkpt lat="42.31559" lon="-0.477515">
        <ele>1149.3</ele>
        <time>2018-07-22T11:34:06.000Z</time>
      </trkpt>
      <trkpt lat="42.315578" lon="-0.477509">
        <ele>1149.3</ele>
        <time>2018-07-22T11:34:07.000Z</time>
      </trkpt>
      <trkpt lat="42.315565" lon="-0.477503">
        <ele>1149.3</ele>
        <time>2018-07-22T11:34:08.000Z</time>
      </trkpt>
      <trkpt lat="42.315553" lon="-0.477498">
        <ele>1149.3</ele>
        <time>2018-07-22T11:34:09.000Z</time>
      </trkpt>
      <trkpt lat="42.315541" lon="-0.477492">
        <ele>1149.3</ele>
        <time>2018-07-22T11:34:10.000Z</time>
      </trkpt>
      <trkpt lat="42.315528" lon="-0.477486">
        <ele>1149.3</ele>
        <time>2018-07-22T11:34:11.000Z</time>
      </trkpt>
      <trkpt lat="42.315516" lon="-0.47748">
        <ele>1149.3</ele>
        <time>2018-07-22T11:34:12.000Z</time>
      </trkpt>
      <trkpt lat="42.315503" lon="-0.477475">
        <ele>1149.3</ele>
        <time>2018-07-22T11:34:13.000Z</time>
      </trkpt>
      <trkpt lat="42.315491" lon="-0.477469">
        <ele>1149.2</ele>
        <time>2018-07-22T11:34:14.000Z</time>
      </trkpt>
      <trkpt lat="42.315478" lon="-0.477464">
        <ele>1149.3</ele>
        <time>2018-07-22T11:34:15.000Z</time>
      </trkpt>
      <trkpt lat="42.315465" lon="-0.477458">
        <ele>1149.2</ele>
        <time>2018-07-22T11:34:16.000Z</time>
      </trkpt>
      <trkpt lat="42.315453" lon="-0.477453">
        <ele>1149.2</ele>
        <time>2018-07-22T11:34:17.000Z</time>
      </trkpt>
      <trkpt lat="42.315441" lon="-0.477448">
        <ele>1149.2</ele>
        <time>2018-07-22T11:34:18.000Z</time>
      </trkpt>
      <trkpt lat="42.315428" lon="-0.477442">
        <ele>1149.2</ele>
        <time>2018-07-22T11:34:19.000Z</time>
      </trkpt>
      <trkpt lat="42.315416" lon="-0.477437">
        <ele>1149.2</ele>
        <time>2018-07-22T11:34:20.000Z</time>
      </trkpt>
      <trkpt lat="42.315404" lon="-0.477432">
        <ele>1149.2</ele>
        <time>2018-07-22T11:34:21.000Z</time>
      </trkpt>
      <trkpt lat="42.315392" lon="-0.477427">
        <ele>1149.2</ele>
        <time>2018-07-22T11:34:22.000Z</time>
      </trkpt>
      <trkpt lat="42.315381" lon="-0.477422">
        <ele>1149.2</ele>
        <time>2018-07-22T11:34:23.000Z</time>
      </trkpt>
      <trkpt lat="42.315369" lon="-0.477417">
        <ele>1149.2</ele>
        <time>2018-07-22T11:34:24.000Z</time>
      </trkpt>
      <trkpt lat="42.315358" lon="-0.477412">
        <ele>1149.2</ele>
        <time>2018-07-22T11:34:25.000Z</time>
      </trkpt>
      <trkpt lat="42.315347" lon="-0.477408">
        <ele>1149.2</ele>
        <time>2018-07-22T11:34:26.000Z</time>
      </trkpt>
      <trkpt lat="42.315336" lon="-0.477403">
        <ele>1149.2</ele>
        <time>2018-07-22T11:34:27.000Z</time>
      </trkpt>
      <trkpt lat="42.315325" lon="-0.477398">
        <ele>1149.2</ele>
        <time>2018-07-22T11:34:28.000Z</time>
      </trkpt>
      <trkpt lat="42.315314" lon="-0.477394">
        <ele>1149.2</ele>
        <time>2018-07-22T11:34:29.000Z</time>
      </trkpt>
      <trkpt lat="42.315303" lon="-0.477389">
        <ele>1149.2</ele>
        <time>2018-07-22T11:34:30.000Z</time>
      </trkpt>
      <trkpt lat="42.315291" lon="-0.477385">
        <ele>1149.2</ele>
        <time>2018-07-22T11:34:31.000Z</time>
      </trkpt>
      <trkpt lat="42.31528" lon="-0.47738">
        <ele>1149.2</ele>
        <time>2018-07-22T11:34:32.000Z</time>
      </trkpt>
      <trkpt lat="42.315269" lon="-0.477376">
        <ele>1149.2</ele>
        <time>2018-07-22T11:34:33.000Z</time>
      </trkpt>
      <trkpt lat="42.315258" lon="-0.477371">
        <ele>1149.2</ele>
        <time>2018-07-22T11:34:34.000Z</time>
      </trkpt>
      <trkpt lat="42.315246" lon="-0.477366">
        <ele>1149.2</ele>
        <time>2018-07-22T11:34:35.000Z</time>
      </trkpt>
      <trkpt lat="42.315234" lon="-0.477362">
        <ele>1149.2</ele>
        <time>2018-07-22T11:34:36.000Z</time>
      </trkpt>
      <trkpt lat="42.315222" lon="-0.477357">
        <ele>1149.2</ele>
        <time>2018-07-22T11:34:37.000Z</time>
      </trkpt>
      <trkpt lat="42.31521" lon="-0.477353">
        <ele>1149.2</ele>
        <time>2018-07-22T11:34:38.000Z</time>
      </trkpt>
      <trkpt lat="42.315198" lon="-0.477348">
        <ele>1149.2</ele>
        <time>2018-07-22T11:34:39.000Z</time>
      </trkpt>
      <trkpt lat="42.315186" lon="-0.477344">
        <ele>1149.3</ele>
        <time>2018-07-22T11:34:40.000Z</time>
      </trkpt>
      <trkpt lat="42.315175" lon="-0.47734">
        <ele>1149.3</ele>
        <time>2018-07-22T11:34:41.000Z</time>
      </trkpt>
      <trkpt lat="42.315163" lon="-0.477336">
        <ele>1149.3</ele>
        <time>2018-07-22T11:34:42.000Z</time>
      </trkpt>
      <trkpt lat="42.315151" lon="-0.477333">
        <ele>1149.3</ele>
        <time>2018-07-22T11:34:43.000Z</time>
      </trkpt>
      <trkpt lat="42.31514" lon="-0.47733">
        <ele>1149.4</ele>
        <time>2018-07-22T11:34:44.000Z</time>
      </trkpt>
      <trkpt lat="42.315129" lon="-0.477327">
        <ele>1149.4</ele>
        <time>2018-07-22T11:34:45.000Z</time>
      </trkpt>
      <trkpt lat="42.315118" lon="-0.477324">
        <ele>1149.4</ele>
        <time>2018-07-22T11:34:46.000Z</time>
      </trkpt>
      <trkpt lat="42.315107" lon="-0.477322">
        <ele>1149.5</ele>
        <time>2018-07-22T11:34:47.000Z</time>
      </trkpt>
      <trkpt lat="42.315097" lon="-0.477319">
        <ele>1149.5</ele>
        <time>2018-07-22T11:34:48.000Z</time>
      </trkpt>
      <trkpt lat="42.315087" lon="-0.477317">
        <ele>1149.5</ele>
        <time>2018-07-22T11:34:49.000Z</time>
      </trkpt>
      <trkpt lat="42.315077" lon="-0.477315">
        <ele>1149.6</ele>
        <time>2018-07-22T11:34:50.000Z</time>
      </trkpt>
      <trkpt lat="42.315066" lon="-0.477314">
        <ele>1149.7</ele>
        <time>2018-07-22T11:34:51.000Z</time>
      </trkpt>
      <trkpt lat="42.315054" lon="-0.477313">
        <ele>1149.7</ele>
        <time>2018-07-22T11:34:52.000Z</time>
      </trkpt>
      <trkpt lat="42.315041" lon="-0.477314">
        <ele>1149.9</ele>
        <time>2018-07-22T11:34:53.000Z</time>
      </trkpt>
      <trkpt lat="42.315028" lon="-0.477315">
        <ele>1150.0</ele>
        <time>2018-07-22T11:34:54.000Z</time>
      </trkpt>
      <trkpt lat="42.315015" lon="-0.477315">
        <ele>1150.1</ele>
        <time>2018-07-22T11:34:55.000Z</time>
      </trkpt>
      <trkpt lat="42.315003" lon="-0.477315">
        <ele>1150.2</ele>
        <time>2018-07-22T11:34:56.000Z</time>
      </trkpt>
      <trkpt lat="42.314991" lon="-0.477314">
        <ele>1150.2</ele>
        <time>2018-07-22T11:34:57.000Z</time>
      </trkpt>
      <trkpt lat="42.31498" lon="-0.477311">
        <ele>1150.2</ele>
        <time>2018-07-22T11:34:58.000Z</time>
      </trkpt>
      <trkpt lat="42.31497" lon="-0.477308">
        <ele>1150.2</ele>
        <time>2018-07-22T11:34:59.000Z</time>
      </trkpt>
      <trkpt lat="42.31496" lon="-0.477305">
        <ele>1150.2</ele>
        <time>2018-07-22T11:35:00.000Z</time>
      </trkpt>
      <trkpt lat="42.314951" lon="-0.477301">
        <ele>1150.2</ele>
        <time>2018-07-22T11:35:01.000Z</time>
      </trkpt>
      <trkpt lat="42.314942" lon="-0.477297">
        <ele>1150.1</ele>
        <time>2018-07-22T11:35:02.000Z</time>
      </trkpt>
      <trkpt lat="42.314933" lon="-0.477293">
        <ele>1150.1</ele>
        <time>2018-07-22T11:35:03.000Z</time>
      </trkpt>
      <trkpt lat="42.314923" lon="-0.477289">
        <ele>1150.0</ele>
        <time>2018-07-22T11:35:04.000Z</time>
      </trkpt>
      <trkpt lat="42.314913" lon="-0.477286">
        <ele>1150.0</ele>
        <time>2018-07-22T11:35:05.000Z</time>
      </trkpt>
      <trkpt lat="42.314903" lon="-0.477284">
        <ele>1150.0</ele>
        <time>2018-07-22T11:35:06.000Z</time>
      </trkpt>
      <trkpt lat="42.314892" lon="-0.477283">
        <ele>1150.1</ele>
        <time>2018-07-22T11:35:07.000Z</time>
      </trkpt>
      <trkpt lat="42.31488" lon="-0.477283">
        <ele>1150.1</ele>
        <time>2018-07-22T11:35:08.000Z</time>
      </trkpt>
      <trkpt lat="42.314868" lon="-0.477284">
        <ele>1150.2</ele>
        <time>2018-07-22T11:35:09.000Z</time>
      </trkpt>
      <trkpt lat="42.314855" lon="-0.477285">
        <ele>1150.3</ele>
        <time>2018-07-22T11:35:10.000Z</time>
      </trkpt>
      <trkpt lat="42.314841" lon="-0.477288">
        <ele>1150.4</ele>
        <time>2018-07-22T11:35:11.000Z</time>
      </trkpt>
      <trkpt lat="42.314828" lon="-0.47729">
        <ele>1150.5</ele>
        <time>2018-07-22T11:35:12.000Z</time>
      </trkpt>
      <trkpt lat="42.314815" lon="-0.477293">
        <ele>1150.6</ele>
        <time>2018-07-22T11:35:13.000Z</time>
      </trkpt>
      <trkpt lat="42.314801" lon="-0.477296">
        <ele>1150.7</ele>
        <time>2018-07-22T11:35:14.000Z</time>
      </trkpt>
      <trkpt lat="42.314788" lon="-0.477298">
        <ele>1150.8</ele>
        <time>2018-07-22T11:35:15.000Z</time>
      </trkpt>
      <trkpt lat="42.314776" lon="-0.477301">
        <ele>1150.9</ele>
        <time>2018-07-22T11:35:16.000Z</time>
      </trkpt>
      <trkpt lat="42.314763" lon="-0.477303">
        <ele>1151.0</ele>
        <time>2018-07-22T11:35:17.000Z</time>
      </trkpt>
      <trkpt lat="42.314751" lon="-0.477304">
        <ele>1151.1</ele>
        <time>2018-07-22T11:35:18.000Z</time>
      </trkpt>
      <trkpt lat="42.31474" lon="-0.477306">
        <ele>1151.2</ele>
        <time>2018-07-22T11:35:19.000Z</time>
      </trkpt>
      <trkpt lat="42.314729" lon="-0.477307">
        <ele>1151.3</ele>
        <time>2018-07-22T11:35:20.000Z</time>
      </trkpt>
      <trkpt lat="42.314719" lon="-0.477308">
        <ele>1151.3</ele>
        <time>2018-07-22T11:35:21.000Z</time>
      </trkpt>
      <trkpt lat="42.31471" lon="-0.47731">
        <ele>1151.4</ele>
        <time>2018-07-22T11:35:22.000Z</time>
      </trkpt>
      <trkpt lat="42.314703" lon="-0.477311">
        <ele>1151.5</ele>
        <time>2018-07-22T11:35:23.000Z</time>
      </trkpt>
      <trkpt lat="42.314696" lon="-0.477314">
        <ele>1151.5</ele>
        <time>2018-07-22T11:35:24.000Z</time>
      </trkpt>
      <trkpt lat="42.314691" lon="-0.477316">
        <ele>1151.6</ele>
        <time>2018-07-22T11:35:25.000Z</time>
      </trkpt>
      <trkpt lat="42.314686" lon="-0.477316">
        <ele>1151.6</ele>
        <time>2018-07-22T11:35:26.000Z</time>
      </trkpt>
      <trkpt lat="42.314681" lon="-0.477315">
        <ele>1151.6</ele>
        <time>2018-07-22T11:35:27.000Z</time>
      </trkpt>
      <trkpt lat="42.314673" lon="-0.477314">
        <ele>1151.6</ele>
        <time>2018-07-22T11:35:28.000Z</time>
      </trkpt>
      <trkpt lat="42.314661" lon="-0.477313">
        <ele>1151.7</ele>
        <time>2018-07-22T11:35:29.000Z</time>
      </trkpt>
      <trkpt lat="42.314646" lon="-0.477313">
        <ele>1151.7</ele>
        <time>2018-07-22T11:35:30.000Z</time>
      </trkpt>
      <trkpt lat="42.314632" lon="-0.477313">
        <ele>1151.8</ele>
        <time>2018-07-22T11:35:31.000Z</time>
      </trkpt>
      <trkpt lat="42.314621" lon="-0.477312">
        <ele>1151.8</ele>
        <time>2018-07-22T11:35:32.000Z</time>
      </trkpt>
      <trkpt lat="42.314611" lon="-0.47731">
        <ele>1151.8</ele>
        <time>2018-07-22T11:35:33.000Z</time>
      </trkpt>
      <trkpt lat="42.314601" lon="-0.477309">
        <ele>1151.9</ele>
        <time>2018-07-22T11:35:34.000Z</time>
      </trkpt>
      <trkpt lat="42.314591" lon="-0.477309">
        <ele>1151.9</ele>
        <time>2018-07-22T11:35:35.000Z</time>
      </trkpt>
      <trkpt lat="42.31458" lon="-0.47731">
        <ele>1152.0</ele>
        <time>2018-07-22T11:35:36.000Z</time>
      </trkpt>
      <trkpt lat="42.314568" lon="-0.47731">
        <ele>1152.0</ele>
        <time>2018-07-22T11:35:37.000Z</time>
      </trkpt>
      <trkpt lat="42.314556" lon="-0.477311">
        <ele>1152.1</ele>
        <time>2018-07-22T11:35:38.000Z</time>
      </trkpt>
      <trkpt lat="42.314543" lon="-0.477313">
        <ele>1152.2</ele>
        <time>2018-07-22T11:35:39.000Z</time>
      </trkpt>
      <trkpt lat="42.314531" lon="-0.477314">
        <ele>1152.3</ele>
        <time>2018-07-22T11:35:40.000Z</time>
      </trkpt>
      <trkpt lat="42.314519" lon="-0.477315">
        <ele>1152.3</ele>
        <time>2018-07-22T11:35:41.000Z</time>
      </trkpt>
      <trkpt lat="42.314507" lon="-0.477315">
        <ele>1152.4</ele>
        <time>2018-07-22T11:35:42.000Z</time>
      </trkpt>
      <trkpt lat="42.314495" lon="-0.477316">
        <ele>1152.5</ele>
        <time>2018-07-22T11:35:43.000Z</time>
      </trkpt>
      <trkpt lat="42.314483" lon="-0.477316">
        <ele>1152.5</ele>
        <time>2018-07-22T11:35:44.000Z</time>
      </trkpt>
      <trkpt lat="42.314471" lon="-0.477316">
        <ele>1152.6</ele>
        <time>2018-07-22T11:35:45.000Z</time>
      </trkpt>
      <trkpt lat="42.31446" lon="-0.477316">
        <ele>1152.6</ele>
        <time>2018-07-22T11:35:46.000Z</time>
      </trkpt>
      <trkpt lat="42.314448" lon="-0.477316">
        <ele>1152.7</ele>
        <time>2018-07-22T11:35:47.000Z</time>
      </trkpt>
      <trkpt lat="42.314437" lon="-0.477316">
        <ele>1152.7</ele>
        <time>2018-07-22T11:35:48.000Z</time>
      </trkpt>
      <trkpt lat="42.314427" lon="-0.477315">
        <ele>1152.7</ele>
        <time>2018-07-22T11:35:49.000Z</time>
      </trkpt>
      <trkpt lat="42.314416" lon="-0.477314">
        <ele>1152.8</ele>
        <time>2018-07-22T11:35:50.000Z</time>
      </trkpt>
      <trkpt lat="42.314406" lon="-0.477313">
        <ele>1152.8</ele>
        <time>2018-07-22T11:35:51.000Z</time>
      </trkpt>
      <trkpt lat="42.314396" lon="-0.477312">
        <ele>1152.8</ele>
        <time>2018-07-22T11:35:52.000Z</time>
      </trkpt>
      <trkpt lat="42.314386" lon="-0.47731">
        <ele>1152.8</ele>
        <time>2018-07-22T11:35:53.000Z</time>
      </trkpt>
      <trkpt lat="42.314376" lon="-0.477309">
        <ele>1152.9</ele>
        <time>2018-07-22T11:35:54.000Z</time>
      </trkpt>
      <trkpt lat="42.314366" lon="-0.477307">
        <ele>1152.9</ele>
        <time>2018-07-22T11:35:55.000Z</time>
      </trkpt>
      <trkpt lat="42.314357" lon="-0.477304">
        <ele>1152.9</ele>
        <time>2018-07-22T11:35:56.000Z</time>
      </trkpt>
      <trkpt lat="42.314347" lon="-0.477302">
        <ele>1152.9</ele>
        <time>2018-07-22T11:35:57.000Z</time>
      </trkpt>
      <trkpt lat="42.314338" lon="-0.477299">
        <ele>1152.9</ele>
        <time>2018-07-22T11:35:58.000Z</time>
      </trkpt>
      <trkpt lat="42.314328" lon="-0.477296">
        <ele>1152.8</ele>
        <time>2018-07-22T11:35:59.000Z</time>
      </trkpt>
      <trkpt lat="42.314319" lon="-0.477292">
        <ele>1152.8</ele>
        <time>2018-07-22T11:36:00.000Z</time>
      </trkpt>
      <trkpt lat="42.31431" lon="-0.477289">
        <ele>1152.8</ele>
        <time>2018-07-22T11:36:01.000Z</time>
      </trkpt>
      <trkpt lat="42.3143" lon="-0.477284">
        <ele>1152.8</ele>
        <time>2018-07-22T11:36:02.000Z</time>
      </trkpt>
      <trkpt lat="42.314291" lon="-0.47728">
        <ele>1152.7</ele>
        <time>2018-07-22T11:36:03.000Z</time>
      </trkpt>
      <trkpt lat="42.314281" lon="-0.477275">
        <ele>1152.7</ele>
        <time>2018-07-22T11:36:04.000Z</time>
      </trkpt>
      <trkpt lat="42.314272" lon="-0.47727">
        <ele>1152.7</ele>
        <time>2018-07-22T11:36:05.000Z</time>
      </trkpt>
      <trkpt lat="42.314263" lon="-0.477264">
        <ele>1152.6</ele>
        <time>2018-07-22T11:36:06.000Z</time>
      </trkpt>
      <trkpt lat="42.314255" lon="-0.477258">
        <ele>1152.5</ele>
        <time>2018-07-22T11:36:07.000Z</time>
      </trkpt>
      <trkpt lat="42.314247" lon="-0.477252">
        <ele>1152.5</ele>
        <time>2018-07-22T11:36:08.000Z</time>
      </trkpt>
      <trkpt lat="42.31424" lon="-0.477246">
        <ele>1152.4</ele>
        <time>2018-07-22T11:36:09.000Z</time>
      </trkpt>
      <trkpt lat="42.314233" lon="-0.477239">
        <ele>1152.3</ele>
        <time>2018-07-22T11:36:10.000Z</time>
      </trkpt>
      <trkpt lat="42.314226" lon="-0.477232">
        <ele>1152.2</ele>
        <time>2018-07-22T11:36:11.000Z</time>
      </trkpt>
      <trkpt lat="42.314219" lon="-0.477225">
        <ele>1152.1</ele>
        <time>2018-07-22T11:36:12.000Z</time>
      </trkpt>
      <trkpt lat="42.314213" lon="-0.477217">
        <ele>1152.0</ele>
        <time>2018-07-22T11:36:13.000Z</time>
      </trkpt>
      <trkpt lat="42.314206" lon="-0.477209">
        <ele>1151.9</ele>
        <time>2018-07-22T11:36:14.000Z</time>
      </trkpt>
      <trkpt lat="42.314199" lon="-0.477201">
        <ele>1151.8</ele>
        <time>2018-07-22T11:36:15.000Z</time>
      </trkpt>
      <trkpt lat="42.314192" lon="-0.477192">
        <ele>1151.7</ele>
        <time>2018-07-22T11:36:16.000Z</time>
      </trkpt>
      <trkpt lat="42.314185" lon="-0.477183">
        <ele>1151.6</ele>
        <time>2018-07-22T11:36:17.000Z</time>
      </trkpt>
      <trkpt lat="42.314179" lon="-0.477174">
        <ele>1151.5</ele>
        <time>2018-07-22T11:36:18.000Z</time>
      </trkpt>
      <trkpt lat="42.314172" lon="-0.477164">
        <ele>1151.3</ele>
        <time>2018-07-22T11:36:19.000Z</time>
      </trkpt>
      <trkpt lat="42.314165" lon="-0.477155">
        <ele>1151.2</ele>
        <time>2018-07-22T11:36:20.000Z</time>
      </trkpt>
      <trkpt lat="42.314158" lon="-0.477145">
        <ele>1151.2</ele>
        <time>2018-07-22T11:36:21.000Z</time>
      </trkpt>
      <trkpt lat="42.314151" lon="-0.477135">
        <ele>1151.1</ele>
        <time>2018-07-22T11:36:22.000Z</time>
      </trkpt>
      <trkpt lat="42.314144" lon="-0.477125">
        <ele>1151.1</ele>
        <time>2018-07-22T11:36:23.000Z</time>
      </trkpt>
      <trkpt lat="42.314137" lon="-0.477115">
        <ele>1151.0</ele>
        <time>2018-07-22T11:36:24.000Z</time>
      </trkpt>
      <trkpt lat="42.314129" lon="-0.477104">
        <ele>1151.0</ele>
        <time>2018-07-22T11:36:25.000Z</time>
      </trkpt>
      <trkpt lat="42.314122" lon="-0.477094">
        <ele>1150.9</ele>
        <time>2018-07-22T11:36:26.000Z</time>
      </trkpt>
      <trkpt lat="42.314115" lon="-0.477083">
        <ele>1150.8</ele>
        <time>2018-07-22T11:36:27.000Z</time>
      </trkpt>
      <trkpt lat="42.314107" lon="-0.477073">
        <ele>1150.8</ele>
        <time>2018-07-22T11:36:28.000Z</time>
      </trkpt>
      <trkpt lat="42.3141" lon="-0.477062">
        <ele>1150.7</ele>
        <time>2018-07-22T11:36:29.000Z</time>
      </trkpt>
      <trkpt lat="42.314092" lon="-0.477052">
        <ele>1150.7</ele>
        <time>2018-07-22T11:36:30.000Z</time>
      </trkpt>
      <trkpt lat="42.314084" lon="-0.477041">
        <ele>1150.6</ele>
        <time>2018-07-22T11:36:31.000Z</time>
      </trkpt>
      <trkpt lat="42.314077" lon="-0.477031">
        <ele>1150.6</ele>
        <time>2018-07-22T11:36:32.000Z</time>
      </trkpt>
      <trkpt lat="42.314069" lon="-0.47702">
        <ele>1150.5</ele>
        <time>2018-07-22T11:36:33.000Z</time>
      </trkpt>
      <trkpt lat="42.31406" lon="-0.47701">
        <ele>1150.5</ele>
        <time>2018-07-22T11:36:34.000Z</time>
      </trkpt>
      <trkpt lat="42.314052" lon="-0.476999">
        <ele>1150.4</ele>
        <time>2018-07-22T11:36:35.000Z</time>
      </trkpt>
      <trkpt lat="42.314044" lon="-0.476989">
        <ele>1150.4</ele>
        <time>2018-07-22T11:36:36.000Z</time>
      </trkpt>
      <trkpt lat="42.314035" lon="-0.476979">
        <ele>1150.3</ele>
        <time>2018-07-22T11:36:37.000Z</time>
      </trkpt>
      <trkpt lat="42.314027" lon="-0.476969">
        <ele>1150.3</ele>
        <time>2018-07-22T11:36:38.000Z</time>
      </trkpt>
      <trkpt lat="42.314018" lon="-0.476959">
        <ele>1150.2</ele>
        <time>2018-07-22T11:36:39.000Z</time>
      </trkpt>
      <trkpt lat="42.314009" lon="-0.476949">
        <ele>1150.2</ele>
        <time>2018-07-22T11:36:40.000Z</time>
      </trkpt>
      <trkpt lat="42.314" lon="-0.47694">
        <ele>1150.2</ele>
        <time>2018-07-22T11:36:41.000Z</time>
      </trkpt>
      <trkpt lat="42.313991" lon="-0.47693">
        <ele>1150.2</ele>
        <time>2018-07-22T11:36:42.000Z</time>
      </trkpt>
      <trkpt lat="42.313982" lon="-0.476921">
        <ele>1150.1</ele>
        <time>2018-07-22T11:36:43.000Z</time>
      </trkpt>
      <trkpt lat="42.313973" lon="-0.476911">
        <ele>1150.1</ele>
        <time>2018-07-22T11:36:44.000Z</time>
      </trkpt>
      <trkpt lat="42.313964" lon="-0.476902">
        <ele>1150.1</ele>
        <time>2018-07-22T11:36:45.000Z</time>
      </trkpt>
      <trkpt lat="42.313954" lon="-0.476893">
        <ele>1150.1</ele>
        <time>2018-07-22T11:36:46.000Z</time>
      </trkpt>
      <trkpt lat="42.313945" lon="-0.476884">
        <ele>1150.1</ele>
        <time>2018-07-22T11:36:47.000Z</time>
      </trkpt>
      <trkpt lat="42.313935" lon="-0.476875">
        <ele>1150.0</ele>
        <time>2018-07-22T11:36:48.000Z</time>
      </trkpt>
      <trkpt lat="42.313926" lon="-0.476866">
        <ele>1150.0</ele>
        <time>2018-07-22T11:36:49.000Z</time>
      </trkpt>
      <trkpt lat="42.313916" lon="-0.476857">
        <ele>1150.0</ele>
        <time>2018-07-22T11:36:50.000Z</time>
      </trkpt>
      <trkpt lat="42.313906" lon="-0.476848">
        <ele>1150.0</ele>
        <time>2018-07-22T11:36:51.000Z</time>
      </trkpt>
      <trkpt lat="42.313896" lon="-0.47684">
        <ele>1150.0</ele>
        <time>2018-07-22T11:36:52.000Z</time>
      </trkpt>
      <trkpt lat="42.313886" lon="-0.476831">
        <ele>1150.0</ele>
        <time>2018-07-22T11:36:53.000Z</time>
      </trkpt>
      <trkpt lat="42.313876" lon="-0.476823">
        <ele>1150.0</ele>
        <time>2018-07-22T11:36:54.000Z</time>
      </trkpt>
      <trkpt lat="42.313866" lon="-0.476815">
        <ele>1150.0</ele>
        <time>2018-07-22T11:36:55.000Z</time>
      </trkpt>
      <trkpt lat="42.313855" lon="-0.476807">
        <ele>1150.0</ele>
        <time>2018-07-22T11:36:56.000Z</time>
      </trkpt>
      <trkpt lat="42.313845" lon="-0.476799">
        <ele>1150.0</ele>
        <time>2018-07-22T11:36:57.000Z</time>
      </trkpt>
      <trkpt lat="42.313835" lon="-0.476791">
        <ele>1150.0</ele>
        <time>2018-07-22T11:36:58.000Z</time>
      </trkpt>
      <trkpt lat="42.313824" lon="-0.476783">
        <ele>1150.1</ele>
        <time>2018-07-22T11:36:59.000Z</time>
      </trkpt>
      <trkpt lat="42.313814" lon="-0.476776">
        <ele>1150.1</ele>
        <time>2018-07-22T11:37:00.000Z</time>
      </trkpt>
      <trkpt lat="42.313803" lon="-0.476768">
        <ele>1150.1</ele>
        <time>2018-07-22T11:37:01.000Z</time>
      </trkpt>
      <trkpt lat="42.313792" lon="-0.47676">
        <ele>1150.1</ele>
        <time>2018-07-22T11:37:02.000Z</time>
      </trkpt>
      <trkpt lat="42.313782" lon="-0.476753">
        <ele>1150.1</ele>
        <time>2018-07-22T11:37:03.000Z</time>
      </trkpt>
      <trkpt lat="42.313771" lon="-0.476746">
        <ele>1150.2</ele>
        <time>2018-07-22T11:37:04.000Z</time>
      </trkpt>
      <trkpt lat="42.31376" lon="-0.476739">
        <ele>1150.2</ele>
        <time>2018-07-22T11:37:05.000Z</time>
      </trkpt>
      <trkpt lat="42.31375" lon="-0.476731">
        <ele>1150.2</ele>
        <time>2018-07-22T11:37:06.000Z</time>
      </trkpt>
      <trkpt lat="42.313739" lon="-0.476724">
        <ele>1150.2</ele>
        <time>2018-07-22T11:37:07.000Z</time>
      </trkpt>
      <trkpt lat="42.313728" lon="-0.476717">
        <ele>1150.3</ele>
        <time>2018-07-22T11:37:08.000Z</time>
      </trkpt>
      <trkpt lat="42.313718" lon="-0.47671">
        <ele>1150.3</ele>
        <time>2018-07-22T11:37:09.000Z</time>
      </trkpt>
      <trkpt lat="42.313707" lon="-0.476703">
        <ele>1150.3</ele>
        <time>2018-07-22T11:37:10.000Z</time>
      </trkpt>
      <trkpt lat="42.313696" lon="-0.476696">
        <ele>1150.3</ele>
        <time>2018-07-22T11:37:11.000Z</time>
      </trkpt>
      <trkpt lat="42.313686" lon="-0.476689">
        <ele>1150.3</ele>
        <time>2018-07-22T11:37:12.000Z</time>
      </trkpt>
      <trkpt lat="42.313675" lon="-0.476681">
        <ele>1150.4</ele>
        <time>2018-07-22T11:37:13.000Z</time>
      </trkpt>
      <trkpt lat="42.313665" lon="-0.476674">
        <ele>1150.4</ele>
        <time>2018-07-22T11:37:14.000Z</time>
      </trkpt>
      <trkpt lat="42.313655" lon="-0.476666">
        <ele>1150.4</ele>
        <time>2018-07-22T11:37:15.000Z</time>
      </trkpt>
      <trkpt lat="42.313645" lon="-0.476658">
        <ele>1150.3</ele>
        <time>2018-07-22T11:37:16.000Z</time>
      </trkpt>
      <trkpt lat="42.313635" lon="-0.47665">
        <ele>1150.3</ele>
        <time>2018-07-22T11:37:17.000Z</time>
      </trkpt>
      <trkpt lat="42.313625" lon="-0.476642">
        <ele>1150.3</ele>
        <time>2018-07-22T11:37:18.000Z</time>
      </trkpt>
      <trkpt lat="42.313616" lon="-0.476633">
        <ele>1150.3</ele>
        <time>2018-07-22T11:37:19.000Z</time>
      </trkpt>
      <trkpt lat="42.313606" lon="-0.476625">
        <ele>1150.3</ele>
        <time>2018-07-22T11:37:20.000Z</time>
      </trkpt>
      <trkpt lat="42.313597" lon="-0.476617">
        <ele>1150.3</ele>
        <time>2018-07-22T11:37:21.000Z</time>
      </trkpt>
      <trkpt lat="42.313587" lon="-0.47661">
        <ele>1150.3</ele>
        <time>2018-07-22T11:37:22.000Z</time>
      </trkpt>
      <trkpt lat="42.313578" lon="-0.476603">
        <ele>1150.3</ele>
        <time>2018-07-22T11:37:23.000Z</time>
      </trkpt>
      <trkpt lat="42.313569" lon="-0.476597">
        <ele>1150.3</ele>
        <time>2018-07-22T11:37:24.000Z</time>
      </trkpt>
      <trkpt lat="42.313559" lon="-0.476592">
        <ele>1150.3</ele>
        <time>2018-07-22T11:37:25.000Z</time>
      </trkpt>
      <trkpt lat="42.313549" lon="-0.476588">
        <ele>1150.4</ele>
        <time>2018-07-22T11:37:26.000Z</time>
      </trkpt>
      <trkpt lat="42.31354" lon="-0.476583">
        <ele>1150.4</ele>
        <time>2018-07-22T11:37:27.000Z</time>
      </trkpt>
      <trkpt lat="42.31353" lon="-0.476579">
        <ele>1150.5</ele>
        <time>2018-07-22T11:37:28.000Z</time>
      </trkpt>
      <trkpt lat="42.313519" lon="-0.476574">
        <ele>1150.6</ele>
        <time>2018-07-22T11:37:29.000Z</time>
      </trkpt>
      <trkpt lat="42.313509" lon="-0.476569">
        <ele>1150.6</ele>
        <time>2018-07-22T11:37:30.000Z</time>
      </trkpt>
      <trkpt lat="42.313499" lon="-0.476564">
        <ele>1150.7</ele>
        <time>2018-07-22T11:37:31.000Z</time>
      </trkpt>
      <trkpt lat="42.313488" lon="-0.476558">
        <ele>1150.7</ele>
        <time>2018-07-22T11:37:32.000Z</time>
      </trkpt>
      <trkpt lat="42.313477" lon="-0.476552">
        <ele>1150.8</ele>
        <time>2018-07-22T11:37:33.000Z</time>
      </trkpt>
      <trkpt lat="42.313467" lon="-0.476547">
        <ele>1150.8</ele>
        <time>2018-07-22T11:37:34.000Z</time>
      </trkpt>
      <trkpt lat="42.313456" lon="-0.476541">
        <ele>1150.8</ele>
        <time>2018-07-22T11:37:35.000Z</time>
      </trkpt>
      <trkpt lat="42.313446" lon="-0.476535">
        <ele>1150.9</ele>
        <time>2018-07-22T11:37:36.000Z</time>
      </trkpt>
      <trkpt lat="42.313436" lon="-0.476529">
        <ele>1150.9</ele>
        <time>2018-07-22T11:37:37.000Z</time>
      </trkpt>
      <trkpt lat="42.313426" lon="-0.476523">
        <ele>1150.9</ele>
        <time>2018-07-22T11:37:38.000Z</time>
      </trkpt>
      <trkpt lat="42.313417" lon="-0.476517">
        <ele>1150.9</ele>
        <time>2018-07-22T11:37:39.000Z</time>
      </trkpt>
      <trkpt lat="42.313408" lon="-0.476511">
        <ele>1151.0</ele>
        <time>2018-07-22T11:37:40.000Z</time>
      </trkpt>
      <trkpt lat="42.313399" lon="-0.476505">
        <ele>1151.0</ele>
        <time>2018-07-22T11:37:41.000Z</time>
      </trkpt>
      <trkpt lat="42.31339" lon="-0.476499">
        <ele>1151.0</ele>
        <time>2018-07-22T11:37:42.000Z</time>
      </trkpt>
      <trkpt lat="42.313381" lon="-0.476493">
        <ele>1151.0</ele>
        <time>2018-07-22T11:37:43.000Z</time>
      </trkpt>
      <trkpt lat="42.313372" lon="-0.476487">
        <ele>1151.0</ele>
        <time>2018-07-22T11:37:44.000Z</time>
      </trkpt>
      <trkpt lat="42.313363" lon="-0.47648">
        <ele>1151.0</ele>
        <time>2018-07-22T11:37:45.000Z</time>
      </trkpt>
      <trkpt lat="42.313353" lon="-0.476474">
        <ele>1151.0</ele>
        <time>2018-07-22T11:37:46.000Z</time>
      </trkpt>
      <trkpt lat="42.313343" lon="-0.476467">
        <ele>1151.0</ele>
        <time>2018-07-22T11:37:47.000Z</time>
      </trkpt>
      <trkpt lat="42.313332" lon="-0.47646">
        <ele>1151.1</ele>
        <time>2018-07-22T11:37:48.000Z</time>
      </trkpt>
      <trkpt lat="42.313321" lon="-0.476454">
        <ele>1151.1</ele>
        <time>2018-07-22T11:37:49.000Z</time>
      </trkpt>
      <trkpt lat="42.313309" lon="-0.476448">
        <ele>1151.2</ele>
        <time>2018-07-22T11:37:50.000Z</time>
      </trkpt>
      <trkpt lat="42.313297" lon="-0.476442">
        <ele>1151.2</ele>
        <time>2018-07-22T11:37:51.000Z</time>
      </trkpt>
      <trkpt lat="42.313285" lon="-0.476437">
        <ele>1151.3</ele>
        <time>2018-07-22T11:37:52.000Z</time>
      </trkpt>
      <trkpt lat="42.313272" lon="-0.476432">
        <ele>1151.4</ele>
        <time>2018-07-22T11:37:53.000Z</time>
      </trkpt>
      <trkpt lat="42.31326" lon="-0.476428">
        <ele>1151.5</ele>
        <time>2018-07-22T11:37:54.000Z</time>
      </trkpt>
      <trkpt lat="42.313249" lon="-0.476425">
        <ele>1151.6</ele>
        <time>2018-07-22T11:37:55.000Z</time>
      </trkpt>
      <trkpt lat="42.313238" lon="-0.476421">
        <ele>1151.7</ele>
        <time>2018-07-22T11:37:56.000Z</time>
      </trkpt>
      <trkpt lat="42.313229" lon="-0.476418">
        <ele>1151.7</ele>
        <time>2018-07-22T11:37:57.000Z</time>
      </trkpt>
      <trkpt lat="42.31322" lon="-0.476416">
        <ele>1151.8</ele>
        <time>2018-07-22T11:37:58.000Z</time>
      </trkpt>
      <trkpt lat="42.313212" lon="-0.476413">
        <ele>1151.9</ele>
        <time>2018-07-22T11:37:59.000Z</time>
      </trkpt>
      <trkpt lat="42.313204" lon="-0.47641">
        <ele>1151.9</ele>
        <time>2018-07-22T11:38:00.000Z</time>
      </trkpt>
      <trkpt lat="42.313195" lon="-0.476407">
        <ele>1152.0</ele>
        <time>2018-07-22T11:38:01.000Z</time>
      </trkpt>
      <trkpt lat="42.313187" lon="-0.476403">
        <ele>1152.1</ele>
        <time>2018-07-22T11:38:02.000Z</time>
      </trkpt>
      <trkpt lat="42.313178" lon="-0.476399">
        <ele>1152.1</ele>
        <time>2018-07-22T11:38:03.000Z</time>
      </trkpt>
      <trkpt lat="42.313168" lon="-0.476395">
        <ele>1152.2</ele>
        <time>2018-07-22T11:38:04.000Z</time>
      </trkpt>
      <trkpt lat="42.313159" lon="-0.47639">
        <ele>1152.2</ele>
        <time>2018-07-22T11:38:05.000Z</time>
      </trkpt>
      <trkpt lat="42.313149" lon="-0.476385">
        <ele>1152.2</ele>
        <time>2018-07-22T11:38:06.000Z</time>
      </trkpt>
      <trkpt lat="42.313139" lon="-0.476379">
        <ele>1152.3</ele>
        <time>2018-07-22T11:38:07.000Z</time>
      </trkpt>
      <trkpt lat="42.313129" lon="-0.476374">
        <ele>1152.3</ele>
        <time>2018-07-22T11:38:08.000Z</time>
      </trkpt>
      <trkpt lat="42.313119" lon="-0.476368">
        <ele>1152.3</ele>
        <time>2018-07-22T11:38:09.000Z</time>
      </trkpt>
      <trkpt lat="42.313109" lon="-0.476362">
        <ele>1152.4</ele>
        <time>2018-07-22T11:38:10.000Z</time>
      </trkpt>
      <trkpt lat="42.3131" lon="-0.476356">
        <ele>1152.4</ele>
        <time>2018-07-22T11:38:11.000Z</time>
      </trkpt>
      <trkpt lat="42.31309" lon="-0.476349">
        <ele>1152.4</ele>
        <time>2018-07-22T11:38:12.000Z</time>
      </trkpt>
      <trkpt lat="42.313081" lon="-0.476343">
        <ele>1152.4</ele>
        <time>2018-07-22T11:38:13.000Z</time>
      </trkpt>
      <trkpt lat="42.313072" lon="-0.476337">
        <ele>1152.4</ele>
        <time>2018-07-22T11:38:14.000Z</time>
      </trkpt>
      <trkpt lat="42.313063" lon="-0.47633">
        <ele>1152.4</ele>
        <time>2018-07-22T11:38:15.000Z</time>
      </trkpt>
      <trkpt lat="42.313054" lon="-0.476324">
        <ele>1152.4</ele>
        <time>2018-07-22T11:38:16.000Z</time>
      </trkpt>
      <trkpt lat="42.313045" lon="-0.476317">
        <ele>1152.3</ele>
        <time>2018-07-22T11:38:17.000Z</time>
      </trkpt>
      <trkpt lat="42.313036" lon="-0.476311">
        <ele>1152.4</ele>
        <time>2018-07-22T11:38:18.000Z</time>
      </trkpt>
      <trkpt lat="42.313027" lon="-0.476305">
        <ele>1152.4</ele>
        <time>2018-07-22T11:38:19.000Z</time>
      </trkpt>
      <trkpt lat="42.313018" lon="-0.476299">
        <ele>1152.4</ele>
        <time>2018-07-22T11:38:20.000Z</time>
      </trkpt>
      <trkpt lat="42.313009" lon="-0.476293">
        <ele>1152.4</ele>
        <time>2018-07-22T11:38:21.000Z</time>
      </trkpt>
      <trkpt lat="42.313" lon="-0.476288">
        <ele>1152.4</ele>
        <time>2018-07-22T11:38:22.000Z</time>
      </trkpt>
      <trkpt lat="42.31299" lon="-0.476282">
        <ele>1152.4</ele>
        <time>2018-07-22T11:38:23.000Z</time>
      </trkpt>
      <trkpt lat="42.31298" lon="-0.476277">
        <ele>1152.4</ele>
        <time>2018-07-22T11:38:24.000Z</time>
      </trkpt>
      <trkpt lat="42.312969" lon="-0.476273">
        <ele>1152.5</ele>
        <time>2018-07-22T11:38:25.000Z</time>
      </trkpt>
      <trkpt lat="42.312959" lon="-0.476268">
        <ele>1152.5</ele>
        <time>2018-07-22T11:38:26.000Z</time>
      </trkpt>
      <trkpt lat="42.312948" lon="-0.476263">
        <ele>1152.6</ele>
        <time>2018-07-22T11:38:27.000Z</time>
      </trkpt>
      <trkpt lat="42.312937" lon="-0.476259">
        <ele>1152.7</ele>
        <time>2018-07-22T11:38:28.000Z</time>
      </trkpt>
      <trkpt lat="42.312927" lon="-0.476255">
        <ele>1152.7</ele>
        <time>2018-07-22T11:38:29.000Z</time>
      </trkpt>
      <trkpt lat="42.312916" lon="-0.47625">
        <ele>1152.8</ele>
        <time>2018-07-22T11:38:30.000Z</time>
      </trkpt>
      <trkpt lat="42.312905" lon="-0.476246">
        <ele>1152.8</ele>
        <time>2018-07-22T11:38:31.000Z</time>
      </trkpt>
      <trkpt lat="42.312895" lon="-0.476241">
        <ele>1152.9</ele>
        <time>2018-07-22T11:38:32.000Z</time>
      </trkpt>
      <trkpt lat="42.312884" lon="-0.476236">
        <ele>1152.9</ele>
        <time>2018-07-22T11:38:33.000Z</time>
      </trkpt>
      <trkpt lat="42.312874" lon="-0.476231">
        <ele>1152.9</ele>
        <time>2018-07-22T11:38:34.000Z</time>
      </trkpt>
      <trkpt lat="42.312864" lon="-0.476226">
        <ele>1153.0</ele>
        <time>2018-07-22T11:38:35.000Z</time>
      </trkpt>
      <trkpt lat="42.312854" lon="-0.476221">
        <ele>1153.0</ele>
        <time>2018-07-22T11:38:36.000Z</time>
      </trkpt>
      <trkpt lat="42.312844" lon="-0.476216">
        <ele>1153.0</ele>
        <time>2018-07-22T11:38:37.000Z</time>
      </trkpt>
      <trkpt lat="42.312835" lon="-0.47621">
        <ele>1153.0</ele>
        <time>2018-07-22T11:38:38.000Z</time>
      </trkpt>
      <trkpt lat="42.312825" lon="-0.476204">
        <ele>1153.0</ele>
        <time>2018-07-22T11:38:39.000Z</time>
      </trkpt>
      <trkpt lat="42.312815" lon="-0.476199">
        <ele>1153.1</ele>
        <time>2018-07-22T11:38:40.000Z</time>
      </trkpt>
      <trkpt lat="42.312805" lon="-0.476192">
        <ele>1153.0</ele>
        <time>2018-07-22T11:38:41.000Z</time>
      </trkpt>
      <trkpt lat="42.312794" lon="-0.476186">
        <ele>1153.1</ele>
        <time>2018-07-22T11:38:42.000Z</time>
      </trkpt>
      <trkpt lat="42.312784" lon="-0.47618">
        <ele>1153.1</ele>
        <time>2018-07-22T11:38:43.000Z</time>
      </trkpt>
      <trkpt lat="42.312773" lon="-0.476173">
        <ele>1153.1</ele>
        <time>2018-07-22T11:38:44.000Z</time>
      </trkpt>
      <trkpt lat="42.312762" lon="-0.476167">
        <ele>1153.1</ele>
        <time>2018-07-22T11:38:45.000Z</time>
      </trkpt>
      <trkpt lat="42.31275" lon="-0.47616">
        <ele>1153.1</ele>
        <time>2018-07-22T11:38:46.000Z</time>
      </trkpt>
      <trkpt lat="42.312739" lon="-0.476153">
        <ele>1153.1</ele>
        <time>2018-07-22T11:38:47.000Z</time>
      </trkpt>
      <trkpt lat="42.312727" lon="-0.476146">
        <ele>1153.1</ele>
        <time>2018-07-22T11:38:48.000Z</time>
      </trkpt>
      <trkpt lat="42.312715" lon="-0.476139">
        <ele>1153.1</ele>
        <time>2018-07-22T11:38:49.000Z</time>
      </trkpt>
      <trkpt lat="42.312703" lon="-0.476132">
        <ele>1153.1</ele>
        <time>2018-07-22T11:38:50.000Z</time>
      </trkpt>
      <trkpt lat="42.312691" lon="-0.476125">
        <ele>1153.1</ele>
        <time>2018-07-22T11:38:51.000Z</time>
      </trkpt>
      <trkpt lat="42.31268" lon="-0.476117">
        <ele>1153.1</ele>
        <time>2018-07-22T11:38:52.000Z</time>
      </trkpt>
      <trkpt lat="42.312668" lon="-0.47611">
        <ele>1153.1</ele>
        <time>2018-07-22T11:38:53.000Z</time>
      </trkpt>
      <trkpt lat="42.312657" lon="-0.476103">
        <ele>1153.1</ele>
        <time>2018-07-22T11:38:54.000Z</time>
      </trkpt>
      <trkpt lat="42.312646" lon="-0.476097">
        <ele>1153.1</ele>
        <time>2018-07-22T11:38:55.000Z</time>
      </trkpt>
      <trkpt lat="42.312635" lon="-0.47609">
        <ele>1153.1</ele>
        <time>2018-07-22T11:38:56.000Z</time>
      </trkpt>
      <trkpt lat="42.312625" lon="-0.476083">
        <ele>1153.1</ele>
        <time>2018-07-22T11:38:57.000Z</time>
      </trkpt>
      <trkpt lat="42.312615" lon="-0.476077">
        <ele>1153.1</ele>
        <time>2018-07-22T11:38:58.000Z</time>
      </trkpt>
      <trkpt lat="42.312605" lon="-0.47607">
        <ele>1153.0</ele>
        <time>2018-07-22T11:38:59.000Z</time>
      </trkpt>
      <trkpt lat="42.312596" lon="-0.476064">
        <ele>1153.0</ele>
        <time>2018-07-22T11:39:00.000Z</time>
      </trkpt>
      <trkpt lat="42.312587" lon="-0.476058">
        <ele>1153.0</ele>
        <time>2018-07-22T11:39:01.000Z</time>
      </trkpt>
      <trkpt lat="42.312578" lon="-0.476052">
        <ele>1153.0</ele>
        <time>2018-07-22T11:39:02.000Z</time>
      </trkpt>
      <trkpt lat="42.312569" lon="-0.476046">
        <ele>1153.0</ele>
        <time>2018-07-22T11:39:03.000Z</time>
      </trkpt>
      <trkpt lat="42.31256" lon="-0.47604">
        <ele>1152.9</ele>
        <time>2018-07-22T11:39:04.000Z</time>
      </trkpt>
      <trkpt lat="42.312551" lon="-0.476034">
        <ele>1152.9</ele>
        <time>2018-07-22T11:39:05.000Z</time>
      </trkpt>
      <trkpt lat="42.312542" lon="-0.476029">
        <ele>1152.9</ele>
        <time>2018-07-22T11:39:06.000Z</time>
      </trkpt>
      <trkpt lat="42.312533" lon="-0.476023">
        <ele>1152.9</ele>
        <time>2018-07-22T11:39:07.000Z</time>
      </trkpt>
      <trkpt lat="42.312524" lon="-0.476018">
        <ele>1152.9</ele>
        <time>2018-07-22T11:39:08.000Z</time>
      </trkpt>
      <trkpt lat="42.312515" lon="-0.476012">
        <ele>1152.9</ele>
        <time>2018-07-22T11:39:09.000Z</time>
      </trkpt>
      <trkpt lat="42.312507" lon="-0.476007">
        <ele>1152.9</ele>
        <time>2018-07-22T11:39:10.000Z</time>
      </trkpt>
      <trkpt lat="42.312498" lon="-0.476001">
        <ele>1152.8</ele>
        <time>2018-07-22T11:39:11.000Z</time>
      </trkpt>
      <trkpt lat="42.312489" lon="-0.475996">
        <ele>1152.8</ele>
        <time>2018-07-22T11:39:12.000Z</time>
      </trkpt>
      <trkpt lat="42.31248" lon="-0.47599">
        <ele>1152.8</ele>
        <time>2018-07-22T11:39:13.000Z</time>
      </trkpt>
      <trkpt lat="42.312471" lon="-0.475984">
        <ele>1152.8</ele>
        <time>2018-07-22T11:39:14.000Z</time>
      </trkpt>
      <trkpt lat="42.312462" lon="-0.475977">
        <ele>1152.7</ele>
        <time>2018-07-22T11:39:15.000Z</time>
      </trkpt>
      <trkpt lat="42.312453" lon="-0.475971">
        <ele>1152.7</ele>
        <time>2018-07-22T11:39:16.000Z</time>
      </trkpt>
      <trkpt lat="42.312443" lon="-0.475964">
        <ele>1152.7</ele>
        <time>2018-07-22T11:39:17.000Z</time>
      </trkpt>
      <trkpt lat="42.312434" lon="-0.475957">
        <ele>1152.6</ele>
        <time>2018-07-22T11:39:18.000Z</time>
      </trkpt>
      <trkpt lat="42.312425" lon="-0.475949">
        <ele>1152.6</ele>
        <time>2018-07-22T11:39:19.000Z</time>
      </trkpt>
      <trkpt lat="42.312416" lon="-0.475941">
        <ele>1152.5</ele>
        <time>2018-07-22T11:39:20.000Z</time>
      </trkpt>
      <trkpt lat="42.312406" lon="-0.475934">
        <ele>1152.5</ele>
        <time>2018-07-22T11:39:21.000Z</time>
      </trkpt>
      <trkpt lat="42.312397" lon="-0.475925">
        <ele>1152.4</ele>
        <time>2018-07-22T11:39:22.000Z</time>
      </trkpt>
      <trkpt lat="42.312388" lon="-0.475917">
        <ele>1152.3</ele>
        <time>2018-07-22T11:39:23.000Z</time>
      </trkpt>
      <trkpt lat="42.312378" lon="-0.475908">
        <ele>1152.2</ele>
        <time>2018-07-22T11:39:24.000Z</time>
      </trkpt>
      <trkpt lat="42.312369" lon="-0.4759">
        <ele>1152.1</ele>
        <time>2018-07-22T11:39:25.000Z</time>
      </trkpt>
      <trkpt lat="42.31236" lon="-0.475891">
        <ele>1152.0</ele>
        <time>2018-07-22T11:39:26.000Z</time>
      </trkpt>
      <trkpt lat="42.312351" lon="-0.475882">
        <ele>1151.9</ele>
        <time>2018-07-22T11:39:27.000Z</time>
      </trkpt>
      <trkpt lat="42.312342" lon="-0.475873">
        <ele>1151.8</ele>
        <time>2018-07-22T11:39:28.000Z</time>
      </trkpt>
      <trkpt lat="42.312333" lon="-0.475863">
        <ele>1151.7</ele>
        <time>2018-07-22T11:39:29.000Z</time>
      </trkpt>
      <trkpt lat="42.312324" lon="-0.475854">
        <ele>1151.6</ele>
        <time>2018-07-22T11:39:30.000Z</time>
      </trkpt>
      <trkpt lat="42.312315" lon="-0.475845">
        <ele>1151.5</ele>
        <time>2018-07-22T11:39:31.000Z</time>
      </trkpt>
      <trkpt lat="42.312306" lon="-0.475835">
        <ele>1151.4</ele>
        <time>2018-07-22T11:39:32.000Z</time>
      </trkpt>
      <trkpt lat="42.312297" lon="-0.475826">
        <ele>1151.3</ele>
        <time>2018-07-22T11:39:33.000Z</time>
      </trkpt>
      <trkpt lat="42.312288" lon="-0.475816">
        <ele>1151.2</ele>
        <time>2018-07-22T11:39:34.000Z</time>
      </trkpt>
      <trkpt lat="42.31228" lon="-0.475807">
        <ele>1151.0</ele>
        <time>2018-07-22T11:39:35.000Z</time>
      </trkpt>
      <trkpt lat="42.312271" lon="-0.475798">
        <ele>1150.9</ele>
        <time>2018-07-22T11:39:36.000Z</time>
      </trkpt>
      <trkpt lat="42.312262" lon="-0.475788">
        <ele>1150.8</ele>
        <time>2018-07-22T11:39:37.000Z</time>
      </trkpt>
      <trkpt lat="42.312253" lon="-0.475779">
        <ele>1150.7</ele>
        <time>2018-07-22T11:39:38.000Z</time>
      </trkpt>
      <trkpt lat="42.312244" lon="-0.475769">
        <ele>1150.6</ele>
        <time>2018-07-22T11:39:39.000Z</time>
      </trkpt>
      <trkpt lat="42.312235" lon="-0.47576">
        <ele>1150.5</ele>
        <time>2018-07-22T11:39:40.000Z</time>
      </trkpt>
      <trkpt lat="42.312226" lon="-0.475751">
        <ele>1150.4</ele>
        <time>2018-07-22T11:39:41.000Z</time>
      </trkpt>
      <trkpt lat="42.312217" lon="-0.475742">
        <ele>1150.3</ele>
        <time>2018-07-22T11:39:42.000Z</time>
      </trkpt>
      <trkpt lat="42.312208" lon="-0.475733">
        <ele>1150.2</ele>
        <time>2018-07-22T11:39:43.000Z</time>
      </trkpt>
      <trkpt lat="42.312199" lon="-0.475724">
        <ele>1150.1</ele>
        <time>2018-07-22T11:39:44.000Z</time>
      </trkpt>
      <trkpt lat="42.31219" lon="-0.475715">
        <ele>1150.0</ele>
        <time>2018-07-22T11:39:45.000Z</time>
      </trkpt>
      <trkpt lat="42.31218" lon="-0.475707">
        <ele>1149.9</ele>
        <time>2018-07-22T11:39:46.000Z</time>
      </trkpt>
      <trkpt lat="42.31217" lon="-0.475698">
        <ele>1149.8</ele>
        <time>2018-07-22T11:39:47.000Z</time>
      </trkpt>
      <trkpt lat="42.312161" lon="-0.47569">
        <ele>1149.8</ele>
        <time>2018-07-22T11:39:48.000Z</time>
      </trkpt>
      <trkpt lat="42.312151" lon="-0.475682">
        <ele>1149.7</ele>
        <time>2018-07-22T11:39:49.000Z</time>
      </trkpt>
      <trkpt lat="42.312141" lon="-0.475674">
        <ele>1149.6</ele>
        <time>2018-07-22T11:39:50.000Z</time>
      </trkpt>
      <trkpt lat="42.312131" lon="-0.475666">
        <ele>1149.5</ele>
        <time>2018-07-22T11:39:51.000Z</time>
      </trkpt>
      <trkpt lat="42.312121" lon="-0.475659">
        <ele>1149.5</ele>
        <time>2018-07-22T11:39:52.000Z</time>
      </trkpt>
      <trkpt lat="42.31211" lon="-0.475652">
        <ele>1149.5</ele>
        <time>2018-07-22T11:39:53.000Z</time>
      </trkpt>
      <trkpt lat="42.3121" lon="-0.475645">
        <ele>1149.4</ele>
        <time>2018-07-22T11:39:54.000Z</time>
      </trkpt>
      <trkpt lat="42.312089" lon="-0.475638">
        <ele>1149.4</ele>
        <time>2018-07-22T11:39:55.000Z</time>
      </trkpt>
      <trkpt lat="42.312079" lon="-0.475632">
        <ele>1149.3</ele>
        <time>2018-07-22T11:39:56.000Z</time>
      </trkpt>
      <trkpt lat="42.312068" lon="-0.475625">
        <ele>1149.3</ele>
        <time>2018-07-22T11:39:57.000Z</time>
      </trkpt>
      <trkpt lat="42.312057" lon="-0.47562">
        <ele>1149.3</ele>
        <time>2018-07-22T11:39:58.000Z</time>
      </trkpt>
      <trkpt lat="42.312047" lon="-0.475614">
        <ele>1149.3</ele>
        <time>2018-07-22T11:39:59.000Z</time>
      </trkpt>
      <trkpt lat="42.312036" lon="-0.475609">
        <ele>1149.3</ele>
        <time>2018-07-22T11:40:00.000Z</time>
      </trkpt>
      <trkpt lat="42.312025" lon="-0.475604">
        <ele>1149.3</ele>
        <time>2018-07-22T11:40:01.000Z</time>
      </trkpt>
      <trkpt lat="42.312014" lon="-0.4756">
        <ele>1149.3</ele>
        <time>2018-07-22T11:40:02.000Z</time>
      </trkpt>
      <trkpt lat="42.312003" lon="-0.475596">
        <ele>1149.3</ele>
        <time>2018-07-22T11:40:03.000Z</time>
      </trkpt>
      <trkpt lat="42.311992" lon="-0.475592">
        <ele>1149.4</ele>
        <time>2018-07-22T11:40:04.000Z</time>
      </trkpt>
      <trkpt lat="42.311981" lon="-0.475589">
        <ele>1149.4</ele>
        <time>2018-07-22T11:40:05.000Z</time>
      </trkpt>
      <trkpt lat="42.311971" lon="-0.475586">
        <ele>1149.4</ele>
        <time>2018-07-22T11:40:06.000Z</time>
      </trkpt>
      <trkpt lat="42.31196" lon="-0.475584">
        <ele>1149.5</ele>
        <time>2018-07-22T11:40:07.000Z</time>
      </trkpt>
      <trkpt lat="42.311949" lon="-0.475582">
        <ele>1149.6</ele>
        <time>2018-07-22T11:40:08.000Z</time>
      </trkpt>
      <trkpt lat="42.311938" lon="-0.475581">
        <ele>1149.7</ele>
        <time>2018-07-22T11:40:09.000Z</time>
      </trkpt>
      <trkpt lat="42.311927" lon="-0.47558">
        <ele>1149.8</ele>
        <time>2018-07-22T11:40:10.000Z</time>
      </trkpt>
      <trkpt lat="42.311917" lon="-0.475579">
        <ele>1149.9</ele>
        <time>2018-07-22T11:40:11.000Z</time>
      </trkpt>
      <trkpt lat="42.311906" lon="-0.47558">
        <ele>1150.0</ele>
        <time>2018-07-22T11:40:12.000Z</time>
      </trkpt>
      <trkpt lat="42.311896" lon="-0.47558">
        <ele>1150.1</ele>
        <time>2018-07-22T11:40:13.000Z</time>
      </trkpt>
      <trkpt lat="42.311885" lon="-0.475581">
        <ele>1150.3</ele>
        <time>2018-07-22T11:40:14.000Z</time>
      </trkpt>
      <trkpt lat="42.311875" lon="-0.475582">
        <ele>1150.4</ele>
        <time>2018-07-22T11:40:15.000Z</time>
      </trkpt>
      <trkpt lat="42.311864" lon="-0.475583">
        <ele>1150.5</ele>
        <time>2018-07-22T11:40:16.000Z</time>
      </trkpt>
      <trkpt lat="42.311854" lon="-0.475585">
        <ele>1150.7</ele>
        <time>2018-07-22T11:40:17.000Z</time>
      </trkpt>
      <trkpt lat="42.311844" lon="-0.475587">
        <ele>1150.9</ele>
        <time>2018-07-22T11:40:18.000Z</time>
      </trkpt>
      <trkpt lat="42.311834" lon="-0.475589">
        <ele>1151.0</ele>
        <time>2018-07-22T11:40:19.000Z</time>
      </trkpt>
      <trkpt lat="42.311824" lon="-0.475591">
        <ele>1151.2</ele>
        <time>2018-07-22T11:40:20.000Z</time>
      </trkpt>
      <trkpt lat="42.311814" lon="-0.475593">
        <ele>1151.3</ele>
        <time>2018-07-22T11:40:21.000Z</time>
      </trkpt>
      <trkpt lat="42.311804" lon="-0.475595">
        <ele>1151.5</ele>
        <time>2018-07-22T11:40:22.000Z</time>
      </trkpt>
      <trkpt lat="42.311794" lon="-0.475597">
        <ele>1151.6</ele>
        <time>2018-07-22T11:40:23.000Z</time>
      </trkpt>
      <trkpt lat="42.311785" lon="-0.475599">
        <ele>1151.8</ele>
        <time>2018-07-22T11:40:24.000Z</time>
      </trkpt>
      <trkpt lat="42.311775" lon="-0.475601">
        <ele>1152.0</ele>
        <time>2018-07-22T11:40:25.000Z</time>
      </trkpt>
      <trkpt lat="42.311765" lon="-0.475604">
        <ele>1152.1</ele>
        <time>2018-07-22T11:40:26.000Z</time>
      </trkpt>
      <trkpt lat="42.311755" lon="-0.475606">
        <ele>1152.3</ele>
        <time>2018-07-22T11:40:27.000Z</time>
      </trkpt>
      <trkpt lat="42.311746" lon="-0.475608">
        <ele>1152.4</ele>
        <time>2018-07-22T11:40:28.000Z</time>
      </trkpt>
      <trkpt lat="42.311736" lon="-0.475611">
        <ele>1152.6</ele>
        <time>2018-07-22T11:40:29.000Z</time>
      </trkpt>
      <trkpt lat="42.311726" lon="-0.475613">
        <ele>1152.8</ele>
        <time>2018-07-22T11:40:30.000Z</time>
      </trkpt>
      <trkpt lat="42.311716" lon="-0.475616">
        <ele>1153.0</ele>
        <time>2018-07-22T11:40:31.000Z</time>
      </trkpt>
      <trkpt lat="42.311706" lon="-0.475619">
        <ele>1153.2</ele>
        <time>2018-07-22T11:40:32.000Z</time>
      </trkpt>
      <trkpt lat="42.311695" lon="-0.475621">
        <ele>1153.3</ele>
        <time>2018-07-22T11:40:33.000Z</time>
      </trkpt>
      <trkpt lat="42.311685" lon="-0.475624">
        <ele>1153.5</ele>
        <time>2018-07-22T11:40:34.000Z</time>
      </trkpt>
      <trkpt lat="42.311675" lon="-0.475627">
        <ele>1153.7</ele>
        <time>2018-07-22T11:40:35.000Z</time>
      </trkpt>
      <trkpt lat="42.311664" lon="-0.47563">
        <ele>1153.9</ele>
        <time>2018-07-22T11:40:36.000Z</time>
      </trkpt>
      <trkpt lat="42.311653" lon="-0.475633">
        <ele>1154.2</ele>
        <time>2018-07-22T11:40:37.000Z</time>
      </trkpt>
      <trkpt lat="42.311643" lon="-0.475635">
        <ele>1154.4</ele>
        <time>2018-07-22T11:40:38.000Z</time>
      </trkpt>
      <trkpt lat="42.311633" lon="-0.475638">
        <ele>1154.7</ele>
        <time>2018-07-22T11:40:39.000Z</time>
      </trkpt>
      <trkpt lat="42.311622" lon="-0.47564">
        <ele>1155.0</ele>
        <time>2018-07-22T11:40:40.000Z</time>
      </trkpt>
      <trkpt lat="42.311612" lon="-0.475642">
        <ele>1155.2</ele>
        <time>2018-07-22T11:40:41.000Z</time>
      </trkpt>
      <trkpt lat="42.311602" lon="-0.475643">
        <ele>1155.4</ele>
        <time>2018-07-22T11:40:42.000Z</time>
      </trkpt>
      <trkpt lat="42.311593" lon="-0.475644">
        <ele>1155.6</ele>
        <time>2018-07-22T11:40:43.000Z</time>
      </trkpt>
      <trkpt lat="42.311583" lon="-0.475645">
        <ele>1155.8</ele>
        <time>2018-07-22T11:40:44.000Z</time>
      </trkpt>
      <trkpt lat="42.311574" lon="-0.475645">
        <ele>1156.0</ele>
        <time>2018-07-22T11:40:45.000Z</time>
      </trkpt>
      <trkpt lat="42.311565" lon="-0.475645">
        <ele>1156.2</ele>
        <time>2018-07-22T11:40:46.000Z</time>
      </trkpt>
      <trkpt lat="42.311556" lon="-0.475645">
        <ele>1156.3</ele>
        <time>2018-07-22T11:40:47.000Z</time>
      </trkpt>
      <trkpt lat="42.311546" lon="-0.475644">
        <ele>1156.5</ele>
        <time>2018-07-22T11:40:48.000Z</time>
      </trkpt>
      <trkpt lat="42.311537" lon="-0.475642">
        <ele>1156.6</ele>
        <time>2018-07-22T11:40:49.000Z</time>
      </trkpt>
      <trkpt lat="42.311528" lon="-0.475641">
        <ele>1156.7</ele>
        <time>2018-07-22T11:40:50.000Z</time>
      </trkpt>
      <trkpt lat="42.311518" lon="-0.475639">
        <ele>1156.9</ele>
        <time>2018-07-22T11:40:51.000Z</time>
      </trkpt>
      <trkpt lat="42.311508" lon="-0.475637">
        <ele>1157.0</ele>
        <time>2018-07-22T11:40:52.000Z</time>
      </trkpt>
      <trkpt lat="42.311498" lon="-0.475635">
        <ele>1157.1</ele>
        <time>2018-07-22T11:40:53.000Z</time>
      </trkpt>
      <trkpt lat="42.311487" lon="-0.475633">
        <ele>1157.3</ele>
        <time>2018-07-22T11:40:54.000Z</time>
      </trkpt>
      <trkpt lat="42.311475" lon="-0.47563">
        <ele>1157.4</ele>
        <time>2018-07-22T11:40:55.000Z</time>
      </trkpt>
      <trkpt lat="42.311463" lon="-0.475627">
        <ele>1157.6</ele>
        <time>2018-07-22T11:40:56.000Z</time>
      </trkpt>
      <trkpt lat="42.311451" lon="-0.475624">
        <ele>1157.7</ele>
        <time>2018-07-22T11:40:57.000Z</time>
      </trkpt>
      <trkpt lat="42.311438" lon="-0.475621">
        <ele>1157.9</ele>
        <time>2018-07-22T11:40:58.000Z</time>
      </trkpt>
      <trkpt lat="42.311426" lon="-0.475618">
        <ele>1158.0</ele>
        <time>2018-07-22T11:40:59.000Z</time>
      </trkpt>
      <trkpt lat="42.311413" lon="-0.475614">
        <ele>1158.2</ele>
        <time>2018-07-22T11:41:00.000Z</time>
      </trkpt>
      <trkpt lat="42.3114" lon="-0.475611">
        <ele>1158.3</ele>
        <time>2018-07-22T11:41:01.000Z</time>
      </trkpt>
      <trkpt lat="42.311387" lon="-0.475607">
        <ele>1158.5</ele>
        <time>2018-07-22T11:41:02.000Z</time>
      </trkpt>
      <trkpt lat="42.311375" lon="-0.475603">
        <ele>1158.6</ele>
        <time>2018-07-22T11:41:03.000Z</time>
      </trkpt>
      <trkpt lat="42.311362" lon="-0.475598">
        <ele>1158.7</ele>
        <time>2018-07-22T11:41:04.000Z</time>
      </trkpt>
      <trkpt lat="42.311351" lon="-0.475594">
        <ele>1158.8</ele>
        <time>2018-07-22T11:41:05.000Z</time>
      </trkpt>
      <trkpt lat="42.311339" lon="-0.475589">
        <ele>1158.9</ele>
        <time>2018-07-22T11:41:06.000Z</time>
      </trkpt>
      <trkpt lat="42.311328" lon="-0.475584">
        <ele>1159.0</ele>
        <time>2018-07-22T11:41:07.000Z</time>
      </trkpt>
      <trkpt lat="42.311318" lon="-0.475579">
        <ele>1159.0</ele>
        <time>2018-07-22T11:41:08.000Z</time>
      </trkpt>
      <trkpt lat="42.311307" lon="-0.475574">
        <ele>1159.1</ele>
        <time>2018-07-22T11:41:09.000Z</time>
      </trkpt>
      <trkpt lat="42.311298" lon="-0.475568">
        <ele>1159.1</ele>
        <time>2018-07-22T11:41:10.000Z</time>
      </trkpt>
      <trkpt lat="42.311288" lon="-0.475563">
        <ele>1159.2</ele>
        <time>2018-07-22T11:41:11.000Z</time>
      </trkpt>
      <trkpt lat="42.311278" lon="-0.475557">
        <ele>1159.2</ele>
        <time>2018-07-22T11:41:12.000Z</time>
      </trkpt>
      <trkpt lat="42.311269" lon="-0.475551">
        <ele>1159.2</ele>
        <time>2018-07-22T11:41:13.000Z</time>
      </trkpt>
      <trkpt lat="42.311259" lon="-0.475545">
        <ele>1159.2</ele>
        <time>2018-07-22T11:41:14.000Z</time>
      </trkpt>
      <trkpt lat="42.31125" lon="-0.475539">
        <ele>1159.2</ele>
        <time>2018-07-22T11:41:15.000Z</time>
      </trkpt>
      <trkpt lat="42.311241" lon="-0.475533">
        <ele>1159.2</ele>
        <time>2018-07-22T11:41:16.000Z</time>
      </trkpt>
      <trkpt lat="42.311231" lon="-0.475527">
        <ele>1159.3</ele>
        <time>2018-07-22T11:41:17.000Z</time>
      </trkpt>
      <trkpt lat="42.311222" lon="-0.475521">
        <ele>1159.3</ele>
        <time>2018-07-22T11:41:18.000Z</time>
      </trkpt>
      <trkpt lat="42.311213" lon="-0.475515">
        <ele>1159.3</ele>
        <time>2018-07-22T11:41:19.000Z</time>
      </trkpt>
      <trkpt lat="42.311204" lon="-0.475508">
        <ele>1159.3</ele>
        <time>2018-07-22T11:41:20.000Z</time>
      </trkpt>
      <trkpt lat="42.311194" lon="-0.475502">
        <ele>1159.3</ele>
        <time>2018-07-22T11:41:21.000Z</time>
      </trkpt>
      <trkpt lat="42.311186" lon="-0.475495">
        <ele>1159.2</ele>
        <time>2018-07-22T11:41:22.000Z</time>
      </trkpt>
      <trkpt lat="42.311177" lon="-0.475487">
        <ele>1159.2</ele>
        <time>2018-07-22T11:41:23.000Z</time>
      </trkpt>
      <trkpt lat="42.311168" lon="-0.475479">
        <ele>1159.1</ele>
        <time>2018-07-22T11:41:24.000Z</time>
      </trkpt>
      <trkpt lat="42.31116" lon="-0.475471">
        <ele>1159.1</ele>
        <time>2018-07-22T11:41:25.000Z</time>
      </trkpt>
      <trkpt lat="42.311152" lon="-0.475462">
        <ele>1159.0</ele>
        <time>2018-07-22T11:41:26.000Z</time>
      </trkpt>
      <trkpt lat="42.311145" lon="-0.475453">
        <ele>1158.9</ele>
        <time>2018-07-22T11:41:27.000Z</time>
      </trkpt>
      <trkpt lat="42.311138" lon="-0.475443">
        <ele>1158.7</ele>
        <time>2018-07-22T11:41:28.000Z</time>
      </trkpt>
      <trkpt lat="42.311131" lon="-0.475433">
        <ele>1158.6</ele>
        <time>2018-07-22T11:41:29.000Z</time>
      </trkpt>
      <trkpt lat="42.311124" lon="-0.475423">
        <ele>1158.4</ele>
        <time>2018-07-22T11:41:30.000Z</time>
      </trkpt>
      <trkpt lat="42.311117" lon="-0.475412">
        <ele>1158.3</ele>
        <time>2018-07-22T11:41:31.000Z</time>
      </trkpt>
      <trkpt lat="42.311111" lon="-0.475401">
        <ele>1158.1</ele>
        <time>2018-07-22T11:41:32.000Z</time>
      </trkpt>
      <trkpt lat="42.311104" lon="-0.47539">
        <ele>1157.9</ele>
        <time>2018-07-22T11:41:33.000Z</time>
      </trkpt>
      <trkpt lat="42.311098" lon="-0.475379">
        <ele>1157.7</ele>
        <time>2018-07-22T11:41:34.000Z</time>
      </trkpt>
      <trkpt lat="42.311092" lon="-0.475367">
        <ele>1157.5</ele>
        <time>2018-07-22T11:41:35.000Z</time>
      </trkpt>
      <trkpt lat="42.311085" lon="-0.475356">
        <ele>1157.3</ele>
        <time>2018-07-22T11:41:36.000Z</time>
      </trkpt>
      <trkpt lat="42.311079" lon="-0.475345">
        <ele>1157.2</ele>
        <time>2018-07-22T11:41:37.000Z</time>
      </trkpt>
      <trkpt lat="42.311072" lon="-0.475334">
        <ele>1157.0</ele>
        <time>2018-07-22T11:41:38.000Z</time>
      </trkpt>
      <trkpt lat="42.311065" lon="-0.475323">
        <ele>1156.8</ele>
        <time>2018-07-22T11:41:39.000Z</time>
      </trkpt>
      <trkpt lat="42.311059" lon="-0.475313">
        <ele>1156.6</ele>
        <time>2018-07-22T11:41:40.000Z</time>
      </trkpt>
      <trkpt lat="42.311052" lon="-0.475302">
        <ele>1156.5</ele>
        <time>2018-07-22T11:41:41.000Z</time>
      </trkpt>
      <trkpt lat="42.311045" lon="-0.475291">
        <ele>1156.3</ele>
        <time>2018-07-22T11:41:42.000Z</time>
      </trkpt>
      <trkpt lat="42.311038" lon="-0.47528">
        <ele>1156.1</ele>
        <time>2018-07-22T11:41:43.000Z</time>
      </trkpt>
      <trkpt lat="42.311031" lon="-0.47527">
        <ele>1156.0</ele>
        <time>2018-07-22T11:41:44.000Z</time>
      </trkpt>
      <trkpt lat="42.311025" lon="-0.475259">
        <ele>1155.8</ele>
        <time>2018-07-22T11:41:45.000Z</time>
      </trkpt>
      <trkpt lat="42.311018" lon="-0.475247">
        <ele>1155.6</ele>
        <time>2018-07-22T11:41:46.000Z</time>
      </trkpt>
      <trkpt lat="42.311012" lon="-0.475236">
        <ele>1155.4</ele>
        <time>2018-07-22T11:41:47.000Z</time>
      </trkpt>
      <trkpt lat="42.311006" lon="-0.475224">
        <ele>1155.2</ele>
        <time>2018-07-22T11:41:48.000Z</time>
      </trkpt>
      <trkpt lat="42.311" lon="-0.475212">
        <ele>1154.9</ele>
        <time>2018-07-22T11:41:49.000Z</time>
      </trkpt>
      <trkpt lat="42.310994" lon="-0.4752">
        <ele>1154.7</ele>
        <time>2018-07-22T11:41:50.000Z</time>
      </trkpt>
      <trkpt lat="42.310989" lon="-0.475187">
        <ele>1154.5</ele>
        <time>2018-07-22T11:41:51.000Z</time>
      </trkpt>
      <trkpt lat="42.310984" lon="-0.475174">
        <ele>1154.2</ele>
        <time>2018-07-22T11:41:52.000Z</time>
      </trkpt>
      <trkpt lat="42.310978" lon="-0.475161">
        <ele>1153.9</ele>
        <time>2018-07-22T11:41:53.000Z</time>
      </trkpt>
      <trkpt lat="42.310973" lon="-0.475148">
        <ele>1153.7</ele>
        <time>2018-07-22T11:41:54.000Z</time>
      </trkpt>
      <trkpt lat="42.310969" lon="-0.475134">
        <ele>1153.4</ele>
        <time>2018-07-22T11:41:55.000Z</time>
      </trkpt>
      <trkpt lat="42.310964" lon="-0.475121">
        <ele>1153.1</ele>
        <time>2018-07-22T11:41:56.000Z</time>
      </trkpt>
      <trkpt lat="42.310959" lon="-0.475107">
        <ele>1152.8</ele>
        <time>2018-07-22T11:41:57.000Z</time>
      </trkpt>
      <trkpt lat="42.310955" lon="-0.475093">
        <ele>1152.5</ele>
        <time>2018-07-22T11:41:58.000Z</time>
      </trkpt>
      <trkpt lat="42.310951" lon="-0.475079">
        <ele>1152.2</ele>
        <time>2018-07-22T11:41:59.000Z</time>
      </trkpt>
      <trkpt lat="42.310946" lon="-0.475065">
        <ele>1151.9</ele>
        <time>2018-07-22T11:42:00.000Z</time>
      </trkpt>
      <trkpt lat="42.310942" lon="-0.475051">
        <ele>1151.6</ele>
        <time>2018-07-22T11:42:01.000Z</time>
      </trkpt>
      <trkpt lat="42.310938" lon="-0.475037">
        <ele>1151.3</ele>
        <time>2018-07-22T11:42:02.000Z</time>
      </trkpt>
      <trkpt lat="42.310933" lon="-0.475022">
        <ele>1150.9</ele>
        <time>2018-07-22T11:42:03.000Z</time>
      </trkpt>
      <trkpt lat="42.310929" lon="-0.475008">
        <ele>1150.6</ele>
        <time>2018-07-22T11:42:04.000Z</time>
      </trkpt>
      <trkpt lat="42.310925" lon="-0.474994">
        <ele>1150.3</ele>
        <time>2018-07-22T11:42:05.000Z</time>
      </trkpt>
      <trkpt lat="42.31092" lon="-0.47498">
        <ele>1150.1</ele>
        <time>2018-07-22T11:42:06.000Z</time>
      </trkpt>
      <trkpt lat="42.310915" lon="-0.474967">
        <ele>1149.9</ele>
        <time>2018-07-22T11:42:07.000Z</time>
      </trkpt>
      <trkpt lat="42.31091" lon="-0.474953">
        <ele>1149.7</ele>
        <time>2018-07-22T11:42:08.000Z</time>
      </trkpt>
      <trkpt lat="42.310905" lon="-0.474939">
        <ele>1149.5</ele>
        <time>2018-07-22T11:42:09.000Z</time>
      </trkpt>
      <trkpt lat="42.3109" lon="-0.474926">
        <ele>1149.3</ele>
        <time>2018-07-22T11:42:10.000Z</time>
      </trkpt>
      <trkpt lat="42.310894" lon="-0.474913">
        <ele>1149.2</ele>
        <time>2018-07-22T11:42:11.000Z</time>
      </trkpt>
      <trkpt lat="42.310888" lon="-0.4749">
        <ele>1149.0</ele>
        <time>2018-07-22T11:42:12.000Z</time>
      </trkpt>
      <trkpt lat="42.310881" lon="-0.474888">
        <ele>1148.9</ele>
        <time>2018-07-22T11:42:13.000Z</time>
      </trkpt>
      <trkpt lat="42.310875" lon="-0.474875">
        <ele>1148.7</ele>
        <time>2018-07-22T11:42:14.000Z</time>
      </trkpt>
      <trkpt lat="42.310868" lon="-0.474863">
        <ele>1148.6</ele>
        <time>2018-07-22T11:42:15.000Z</time>
      </trkpt>
      <trkpt lat="42.310861" lon="-0.474851">
        <ele>1148.5</ele>
        <time>2018-07-22T11:42:16.000Z</time>
      </trkpt>
      <trkpt lat="42.310854" lon="-0.474839">
        <ele>1148.3</ele>
        <time>2018-07-22T11:42:17.000Z</time>
      </trkpt>
      <trkpt lat="42.310847" lon="-0.474827">
        <ele>1148.2</ele>
        <time>2018-07-22T11:42:18.000Z</time>
      </trkpt>
      <trkpt lat="42.31084" lon="-0.474815">
        <ele>1148.1</ele>
        <time>2018-07-22T11:42:19.000Z</time>
      </trkpt>
      <trkpt lat="42.310833" lon="-0.474803">
        <ele>1148.0</ele>
        <time>2018-07-22T11:42:20.000Z</time>
      </trkpt>
      <trkpt lat="42.310826" lon="-0.474791">
        <ele>1148.0</ele>
        <time>2018-07-22T11:42:21.000Z</time>
      </trkpt>
      <trkpt lat="42.310818" lon="-0.47478">
        <ele>1148.1</ele>
        <time>2018-07-22T11:42:22.000Z</time>
      </trkpt>
      <trkpt lat="42.310811" lon="-0.474768">
        <ele>1148.1</ele>
        <time>2018-07-22T11:42:23.000Z</time>
      </trkpt>
      <trkpt lat="42.310805" lon="-0.474756">
        <ele>1148.1</ele>
        <time>2018-07-22T11:42:24.000Z</time>
      </trkpt>
      <trkpt lat="42.310798" lon="-0.474744">
        <ele>1148.2</ele>
        <time>2018-07-22T11:42:25.000Z</time>
      </trkpt>
      <trkpt lat="42.310791" lon="-0.474732">
        <ele>1148.2</ele>
        <time>2018-07-22T11:42:26.000Z</time>
      </trkpt>
      <trkpt lat="42.310784" lon="-0.474721">
        <ele>1148.2</ele>
        <time>2018-07-22T11:42:27.000Z</time>
      </trkpt>
      <trkpt lat="42.310778" lon="-0.474709">
        <ele>1148.2</ele>
        <time>2018-07-22T11:42:28.000Z</time>
      </trkpt>
      <trkpt lat="42.310772" lon="-0.474697">
        <ele>1148.2</ele>
        <time>2018-07-22T11:42:29.000Z</time>
      </trkpt>
      <trkpt lat="42.310766" lon="-0.474685">
        <ele>1148.2</ele>
        <time>2018-07-22T11:42:30.000Z</time>
      </trkpt>
      <trkpt lat="42.31076" lon="-0.474674">
        <ele>1148.2</ele>
        <time>2018-07-22T11:42:31.000Z</time>
      </trkpt>
      <trkpt lat="42.310754" lon="-0.474662">
        <ele>1148.2</ele>
        <time>2018-07-22T11:42:32.000Z</time>
      </trkpt>
      <trkpt lat="42.310748" lon="-0.47465">
        <ele>1148.2</ele>
        <time>2018-07-22T11:42:33.000Z</time>
      </trkpt>
      <trkpt lat="42.310743" lon="-0.474639">
        <ele>1148.1</ele>
        <time>2018-07-22T11:42:34.000Z</time>
      </trkpt>
      <trkpt lat="42.310738" lon="-0.474627">
        <ele>1148.1</ele>
        <time>2018-07-22T11:42:35.000Z</time>
      </trkpt>
      <trkpt lat="42.310733" lon="-0.474615">
        <ele>1148.0</ele>
        <time>2018-07-22T11:42:36.000Z</time>
      </trkpt>
      <trkpt lat="42.310728" lon="-0.474603">
        <ele>1148.0</ele>
        <time>2018-07-22T11:42:37.000Z</time>
      </trkpt>
      <trkpt lat="42.310724" lon="-0.474591">
        <ele>1147.9</ele>
        <time>2018-07-22T11:42:38.000Z</time>
      </trkpt>
      <trkpt lat="42.310719" lon="-0.47458">
        <ele>1147.8</ele>
        <time>2018-07-22T11:42:39.000Z</time>
      </trkpt>
      <trkpt lat="42.310715" lon="-0.474568">
        <ele>1147.7</ele>
        <time>2018-07-22T11:42:40.000Z</time>
      </trkpt>
      <trkpt lat="42.31071" lon="-0.474556">
        <ele>1147.7</ele>
        <time>2018-07-22T11:42:41.000Z</time>
      </trkpt>
      <trkpt lat="42.310706" lon="-0.474543">
        <ele>1147.5</ele>
        <time>2018-07-22T11:42:42.000Z</time>
      </trkpt>
      <trkpt lat="42.310702" lon="-0.474531">
        <ele>1147.4</ele>
        <time>2018-07-22T11:42:43.000Z</time>
      </trkpt>
      <trkpt lat="42.310698" lon="-0.474519">
        <ele>1147.3</ele>
        <time>2018-07-22T11:42:44.000Z</time>
      </trkpt>
      <trkpt lat="42.310694" lon="-0.474506">
        <ele>1147.2</ele>
        <time>2018-07-22T11:42:45.000Z</time>
      </trkpt>
      <trkpt lat="42.31069" lon="-0.474494">
        <ele>1147.1</ele>
        <time>2018-07-22T11:42:46.000Z</time>
      </trkpt>
      <trkpt lat="42.310686" lon="-0.474481">
        <ele>1147.0</ele>
        <time>2018-07-22T11:42:47.000Z</time>
      </trkpt>
      <trkpt lat="42.310682" lon="-0.474468">
        <ele>1146.9</ele>
        <time>2018-07-22T11:42:48.000Z</time>
      </trkpt>
      <trkpt lat="42.310679" lon="-0.474455">
        <ele>1146.7</ele>
        <time>2018-07-22T11:42:49.000Z</time>
      </trkpt>
      <trkpt lat="42.310675" lon="-0.474442">
        <ele>1146.6</ele>
        <time>2018-07-22T11:42:50.000Z</time>
      </trkpt>
      <trkpt lat="42.310671" lon="-0.474429">
        <ele>1146.4</ele>
        <time>2018-07-22T11:42:51.000Z</time>
      </trkpt>
      <trkpt lat="42.310667" lon="-0.474417">
        <ele>1146.3</ele>
        <time>2018-07-22T11:42:52.000Z</time>
      </trkpt>
      <trkpt lat="42.310663" lon="-0.474403">
        <ele>1146.2</ele>
        <time>2018-07-22T11:42:53.000Z</time>
      </trkpt>
      <trkpt lat="42.310659" lon="-0.47439">
        <ele>1146.1</ele>
        <time>2018-07-22T11:42:54.000Z</time>
      </trkpt>
      <trkpt lat="42.310656" lon="-0.474377">
        <ele>1145.9</ele>
        <time>2018-07-22T11:42:55.000Z</time>
      </trkpt>
      <trkpt lat="42.310652" lon="-0.474364">
        <ele>1145.8</ele>
        <time>2018-07-22T11:42:56.000Z</time>
      </trkpt>
      <trkpt lat="42.310648" lon="-0.474351">
        <ele>1145.6</ele>
        <time>2018-07-22T11:42:57.000Z</time>
      </trkpt>
      <trkpt lat="42.310644" lon="-0.474338">
        <ele>1145.5</ele>
        <time>2018-07-22T11:42:58.000Z</time>
      </trkpt>
      <trkpt lat="42.310641" lon="-0.474325">
        <ele>1145.3</ele>
        <time>2018-07-22T11:42:59.000Z</time>
      </trkpt>
      <trkpt lat="42.310638" lon="-0.474312">
        <ele>1145.2</ele>
        <time>2018-07-22T11:43:00.000Z</time>
      </trkpt>
      <trkpt lat="42.310634" lon="-0.474299">
        <ele>1145.0</ele>
        <time>2018-07-22T11:43:01.000Z</time>
      </trkpt>
      <trkpt lat="42.310631" lon="-0.474286">
        <ele>1144.9</ele>
        <time>2018-07-22T11:43:02.000Z</time>
      </trkpt>
      <trkpt lat="42.310629" lon="-0.474272">
        <ele>1144.6</ele>
        <time>2018-07-22T11:43:03.000Z</time>
      </trkpt>
      <trkpt lat="42.310626" lon="-0.474259">
        <ele>1144.5</ele>
        <time>2018-07-22T11:43:04.000Z</time>
      </trkpt>
      <trkpt lat="42.310624" lon="-0.474246">
        <ele>1144.3</ele>
        <time>2018-07-22T11:43:05.000Z</time>
      </trkpt>
      <trkpt lat="42.310622" lon="-0.474233">
        <ele>1144.0</ele>
        <time>2018-07-22T11:43:06.000Z</time>
      </trkpt>
      <trkpt lat="42.310621" lon="-0.47422">
        <ele>1143.8</ele>
        <time>2018-07-22T11:43:07.000Z</time>
      </trkpt>
      <trkpt lat="42.31062" lon="-0.474207">
        <ele>1143.6</ele>
        <time>2018-07-22T11:43:08.000Z</time>
      </trkpt>
      <trkpt lat="42.310618" lon="-0.474194">
        <ele>1143.3</ele>
        <time>2018-07-22T11:43:09.000Z</time>
      </trkpt>
      <trkpt lat="42.310617" lon="-0.474181">
        <ele>1143.1</ele>
        <time>2018-07-22T11:43:10.000Z</time>
      </trkpt>
      <trkpt lat="42.310616" lon="-0.474168">
        <ele>1142.9</ele>
        <time>2018-07-22T11:43:11.000Z</time>
      </trkpt>
      <trkpt lat="42.310616" lon="-0.474155">
        <ele>1142.7</ele>
        <time>2018-07-22T11:43:12.000Z</time>
      </trkpt>
      <trkpt lat="42.310615" lon="-0.474141">
        <ele>1142.7</ele>
        <time>2018-07-22T11:43:13.000Z</time>
      </trkpt>
      <trkpt lat="42.310614" lon="-0.474128">
        <ele>1142.6</ele>
        <time>2018-07-22T11:43:14.000Z</time>
      </trkpt>
      <trkpt lat="42.310613" lon="-0.474115">
        <ele>1142.5</ele>
        <time>2018-07-22T11:43:15.000Z</time>
      </trkpt>
      <trkpt lat="42.310612" lon="-0.474102">
        <ele>1142.4</ele>
        <time>2018-07-22T11:43:16.000Z</time>
      </trkpt>
      <trkpt lat="42.310611" lon="-0.474089">
        <ele>1142.4</ele>
        <time>2018-07-22T11:43:17.000Z</time>
      </trkpt>
      <trkpt lat="42.31061" lon="-0.474075">
        <ele>1142.3</ele>
        <time>2018-07-22T11:43:18.000Z</time>
      </trkpt>
      <trkpt lat="42.310609" lon="-0.474062">
        <ele>1142.2</ele>
        <time>2018-07-22T11:43:19.000Z</time>
      </trkpt>
      <trkpt lat="42.310608" lon="-0.474049">
        <ele>1142.2</ele>
        <time>2018-07-22T11:43:20.000Z</time>
      </trkpt>
      <trkpt lat="42.310606" lon="-0.474035">
        <ele>1142.1</ele>
        <time>2018-07-22T11:43:21.000Z</time>
      </trkpt>
      <trkpt lat="42.310604" lon="-0.474022">
        <ele>1142.1</ele>
        <time>2018-07-22T11:43:22.000Z</time>
      </trkpt>
      <trkpt lat="42.310602" lon="-0.474008">
        <ele>1142.0</ele>
        <time>2018-07-22T11:43:23.000Z</time>
      </trkpt>
      <trkpt lat="42.310599" lon="-0.473995">
        <ele>1142.0</ele>
        <time>2018-07-22T11:43:24.000Z</time>
      </trkpt>
      <trkpt lat="42.310596" lon="-0.473981">
        <ele>1142.0</ele>
        <time>2018-07-22T11:43:25.000Z</time>
      </trkpt>
      <trkpt lat="42.310593" lon="-0.473968">
        <ele>1142.0</ele>
        <time>2018-07-22T11:43:26.000Z</time>
      </trkpt>
      <trkpt lat="42.31059" lon="-0.473954">
        <ele>1142.0</ele>
        <time>2018-07-22T11:43:27.000Z</time>
      </trkpt>
      <trkpt lat="42.310586" lon="-0.47394">
        <ele>1142.0</ele>
        <time>2018-07-22T11:43:28.000Z</time>
      </trkpt>
      <trkpt lat="42.310581" lon="-0.473927">
        <ele>1142.1</ele>
        <time>2018-07-22T11:43:29.000Z</time>
      </trkpt>
      <trkpt lat="42.310577" lon="-0.473914">
        <ele>1142.1</ele>
        <time>2018-07-22T11:43:30.000Z</time>
      </trkpt>
      <trkpt lat="42.310573" lon="-0.473902">
        <ele>1142.2</ele>
        <time>2018-07-22T11:43:31.000Z</time>
      </trkpt>
      <trkpt lat="42.310569" lon="-0.473891">
        <ele>1142.2</ele>
        <time>2018-07-22T11:43:32.000Z</time>
      </trkpt>
      <trkpt lat="42.310565" lon="-0.47388">
        <ele>1142.3</ele>
        <time>2018-07-22T11:43:33.000Z</time>
      </trkpt>
      <trkpt lat="42.310561" lon="-0.473871">
        <ele>1142.3</ele>
        <time>2018-07-22T11:43:34.000Z</time>
      </trkpt>
      <trkpt lat="42.310558" lon="-0.473863">
        <ele>1142.4</ele>
        <time>2018-07-22T11:43:35.000Z</time>
      </trkpt>
      <trkpt lat="42.310555" lon="-0.473856">
        <ele>1142.4</ele>
        <time>2018-07-22T11:43:36.000Z</time>
      </trkpt>
      <trkpt lat="42.310554" lon="-0.473852">
        <ele>1142.4</ele>
        <time>2018-07-22T11:43:37.000Z</time>
      </trkpt>
      <trkpt lat="42.310552" lon="-0.473848">
        <ele>1142.4</ele>
        <time>2018-07-22T11:43:38.000Z</time>
      </trkpt>
      <trkpt lat="42.310551" lon="-0.473845">
        <ele>1142.5</ele>
        <time>2018-07-22T11:43:39.000Z</time>
      </trkpt>
      <trkpt lat="42.31055" lon="-0.473841">
        <ele>1142.5</ele>
        <time>2018-07-22T11:43:40.000Z</time>
      </trkpt>
      <trkpt lat="42.310548" lon="-0.473834">
        <ele>1142.5</ele>
        <time>2018-07-22T11:43:41.000Z</time>
      </trkpt>
      <trkpt lat="42.310545" lon="-0.473826">
        <ele>1142.5</ele>
        <time>2018-07-22T11:43:42.000Z</time>
      </trkpt>
      <trkpt lat="42.310543" lon="-0.473819">
        <ele>1142.5</ele>
        <time>2018-07-22T11:43:43.000Z</time>
      </trkpt>
      <trkpt lat="42.310541" lon="-0.473814">
        <ele>1142.5</ele>
        <time>2018-07-22T11:43:44.000Z</time>
      </trkpt>
      <trkpt lat="42.31054" lon="-0.47381">
        <ele>1142.5</ele>
        <time>2018-07-22T11:43:45.000Z</time>
      </trkpt>
      <trkpt lat="42.310539" lon="-0.473808">
        <ele>1142.6</ele>
        <time>2018-07-22T11:43:46.000Z</time>
      </trkpt>
      <trkpt lat="42.310539" lon="-0.473807">
        <ele>1142.5</ele>
        <time>2018-07-22T11:43:47.000Z</time>
      </trkpt>
      <trkpt lat="42.310539" lon="-0.473807">
        <ele>1142.5</ele>
        <time>2018-07-22T11:43:48.000Z</time>
      </trkpt>
      <trkpt lat="42.310539" lon="-0.473806">
        <ele>1142.5</ele>
        <time>2018-07-22T11:43:49.000Z</time>
      </trkpt>
      <trkpt lat="42.310539" lon="-0.473806">
        <ele>1142.5</ele>
        <time>2018-07-22T11:43:50.000Z</time>
      </trkpt>
      <trkpt lat="42.310539" lon="-0.473806">
        <ele>1142.5</ele>
        <time>2018-07-22T11:43:51.000Z</time>
      </trkpt>
      <trkpt lat="42.310539" lon="-0.473805">
        <ele>1142.5</ele>
        <time>2018-07-22T11:43:52.000Z</time>
      </trkpt>
      <trkpt lat="42.310539" lon="-0.473805">
        <ele>1142.5</ele>
        <time>2018-07-22T11:43:53.000Z</time>
      </trkpt>
      <trkpt lat="42.310539" lon="-0.473805">
        <ele>1142.5</ele>
        <time>2018-07-22T11:43:54.000Z</time>
      </trkpt>
      <trkpt lat="42.310539" lon="-0.473805">
        <ele>1142.5</ele>
        <time>2018-07-22T11:43:55.000Z</time>
      </trkpt>
      <trkpt lat="42.310539" lon="-0.473805">
        <ele>1142.5</ele>
        <time>2018-07-22T11:43:56.000Z</time>
      </trkpt>
      <trkpt lat="42.310539" lon="-0.473805">
        <ele>1142.5</ele>
        <time>2018-07-22T11:43:57.000Z</time>
      </trkpt>
      <trkpt lat="42.310539" lon="-0.473805">
        <ele>1142.5</ele>
        <time>2018-07-22T11:43:58.000Z</time>
      </trkpt>
      <trkpt lat="42.310539" lon="-0.473805">
        <ele>1142.5</ele>
        <time>2018-07-22T11:43:59.000Z</time>
      </trkpt>
      <trkpt lat="42.310539" lon="-0.473805">
        <ele>1142.5</ele>
        <time>2018-07-22T11:44:00.000Z</time>
      </trkpt>
      <trkpt lat="42.310539" lon="-0.473805">
        <ele>1142.5</ele>
        <time>2018-07-22T11:44:01.000Z</time>
      </trkpt>
      <trkpt lat="42.310539" lon="-0.473805">
        <ele>1142.5</ele>
        <time>2018-07-22T11:44:02.000Z</time>
      </trkpt>
      <trkpt lat="42.310539" lon="-0.473804">
        <ele>1142.5</ele>
        <time>2018-07-22T11:44:03.000Z</time>
      </trkpt>
      <trkpt lat="42.310539" lon="-0.473804">
        <ele>1142.5</ele>
        <time>2018-07-22T11:44:04.000Z</time>
      </trkpt>
      <trkpt lat="42.310539" lon="-0.473804">
        <ele>1142.5</ele>
        <time>2018-07-22T11:44:05.000Z</time>
      </trkpt>
      <trkpt lat="42.310539" lon="-0.473804">
        <ele>1142.5</ele>
        <time>2018-07-22T11:44:06.000Z</time>
      </trkpt>
      <trkpt lat="42.310538" lon="-0.473804">
        <ele>1142.6</ele>
        <time>2018-07-22T11:44:07.000Z</time>
      </trkpt>
      <trkpt lat="42.310538" lon="-0.473804">
        <ele>1142.6</ele>
        <time>2018-07-22T11:44:08.000Z</time>
      </trkpt>
      <trkpt lat="42.310538" lon="-0.473804">
        <ele>1142.6</ele>
        <time>2018-07-22T11:44:09.000Z</time>
      </trkpt>
      <trkpt lat="42.310538" lon="-0.473804">
        <ele>1142.6</ele>
        <time>2018-07-22T11:44:10.000Z</time>
      </trkpt>
      <trkpt lat="42.310538" lon="-0.473804">
        <ele>1142.6</ele>
        <time>2018-07-22T11:44:11.000Z</time>
      </trkpt>
      <trkpt lat="42.310538" lon="-0.473804">
        <ele>1142.6</ele>
        <time>2018-07-22T11:44:12.000Z</time>
      </trkpt>
      <trkpt lat="42.310538" lon="-0.473804">
        <ele>1142.6</ele>
        <time>2018-07-22T11:44:13.000Z</time>
      </trkpt>
      <trkpt lat="42.310538" lon="-0.473804">
        <ele>1142.6</ele>
        <time>2018-07-22T11:44:14.000Z</time>
      </trkpt>
      <trkpt lat="42.310538" lon="-0.473804">
        <ele>1142.6</ele>
        <time>2018-07-22T11:44:15.000Z</time>
      </trkpt>
      <trkpt lat="42.310538" lon="-0.473804">
        <ele>1142.6</ele>
        <time>2018-07-22T11:44:16.000Z</time>
      </trkpt>
      <trkpt lat="42.310538" lon="-0.473804">
        <ele>1142.6</ele>
        <time>2018-07-22T11:44:17.000Z</time>
      </trkpt>
      <trkpt lat="42.310538" lon="-0.473804">
        <ele>1142.6</ele>
        <time>2018-07-22T11:44:18.000Z</time>
      </trkpt>
      <trkpt lat="42.310538" lon="-0.473804">
        <ele>1142.6</ele>
        <time>2018-07-22T11:44:19.000Z</time>
      </trkpt>
      <trkpt lat="42.310538" lon="-0.473804">
        <ele>1142.6</ele>
        <time>2018-07-22T11:44:20.000Z</time>
      </trkpt>
      <trkpt lat="42.310538" lon="-0.473804">
        <ele>1142.6</ele>
        <time>2018-07-22T11:44:21.000Z</time>
      </trkpt>
      <trkpt lat="42.310538" lon="-0.473804">
        <ele>1142.6</ele>
        <time>2018-07-22T11:44:22.000Z</time>
      </trkpt>
      <trkpt lat="42.310538" lon="-0.473804">
        <ele>1142.6</ele>
        <time>2018-07-22T11:44:23.000Z</time>
      </trkpt>
      <trkpt lat="42.310538" lon="-0.473804">
        <ele>1142.6</ele>
        <time>2018-07-22T11:44:24.000Z</time>
      </trkpt>
      <trkpt lat="42.310538" lon="-0.473804">
        <ele>1142.6</ele>
        <time>2018-07-22T11:44:25.000Z</time>
      </trkpt>
      <trkpt lat="42.310538" lon="-0.473804">
        <ele>1142.6</ele>
        <time>2018-07-22T11:44:26.000Z</time>
      </trkpt>
      <trkpt lat="42.310538" lon="-0.473804">
        <ele>1142.6</ele>
        <time>2018-07-22T11:44:27.000Z</time>
      </trkpt>
      <trkpt lat="42.310538" lon="-0.473804">
        <ele>1142.6</ele>
        <time>2018-07-22T11:44:28.000Z</time>
      </trkpt>
      <trkpt lat="42.310538" lon="-0.473804">
        <ele>1142.6</ele>
        <time>2018-07-22T11:44:29.000Z</time>
      </trkpt>
      <trkpt lat="42.310538" lon="-0.473804">
        <ele>1142.6</ele>
        <time>2018-07-22T11:44:30.000Z</time>
      </trkpt>
      <trkpt lat="42.310538" lon="-0.473804">
        <ele>1142.6</ele>
        <time>2018-07-22T11:44:31.000Z</time>
      </trkpt>
      <trkpt lat="42.310538" lon="-0.473804">
        <ele>1142.6</ele>
        <time>2018-07-22T11:44:32.000Z</time>
      </trkpt>
      <trkpt lat="42.310538" lon="-0.473804">
        <ele>1142.6</ele>
        <time>2018-07-22T11:44:33.000Z</time>
      </trkpt>
      <trkpt lat="42.310538" lon="-0.473804">
        <ele>1142.6</ele>
        <time>2018-07-22T11:44:34.000Z</time>
      </trkpt>
      <trkpt lat="42.310538" lon="-0.473804">
        <ele>1142.6</ele>
        <time>2018-07-22T11:44:35.000Z</time>
      </trkpt>
      <trkpt lat="42.310538" lon="-0.473804">
        <ele>1142.6</ele>
        <time>2018-07-22T11:44:36.000Z</time>
      </trkpt>
      <trkpt lat="42.310538" lon="-0.473804">
        <ele>1142.6</ele>
        <time>2018-07-22T11:44:37.000Z</time>
      </trkpt>
      <trkpt lat="42.310538" lon="-0.473803">
        <ele>1142.5</ele>
        <time>2018-07-22T11:44:38.000Z</time>
      </trkpt>
      <trkpt lat="42.310538" lon="-0.473803">
        <ele>1142.5</ele>
        <time>2018-07-22T11:44:39.000Z</time>
      </trkpt>
      <trkpt lat="42.310538" lon="-0.473803">
        <ele>1142.5</ele>
        <time>2018-07-22T11:44:40.000Z</time>
      </trkpt>
      <trkpt lat="42.310538" lon="-0.473803">
        <ele>1142.5</ele>
        <time>2018-07-22T11:44:41.000Z</time>
      </trkpt>
      <trkpt lat="42.310538" lon="-0.473803">
        <ele>1142.5</ele>
        <time>2018-07-22T11:44:42.000Z</time>
      </trkpt>
      <trkpt lat="42.310537" lon="-0.473803">
        <ele>1142.6</ele>
        <time>2018-07-22T11:44:43.000Z</time>
      </trkpt>
      <trkpt lat="42.310537" lon="-0.473803">
        <ele>1142.6</ele>
        <time>2018-07-22T11:44:44.000Z</time>
      </trkpt>
      <trkpt lat="42.310537" lon="-0.473803">
        <ele>1142.6</ele>
        <time>2018-07-22T11:44:45.000Z</time>
      </trkpt>
      <trkpt lat="42.310537" lon="-0.473803">
        <ele>1142.6</ele>
        <time>2018-07-22T11:44:46.000Z</time>
      </trkpt>
      <trkpt lat="42.310537" lon="-0.473803">
        <ele>1142.6</ele>
        <time>2018-07-22T11:44:47.000Z</time>
      </trkpt>
      <trkpt lat="42.310537" lon="-0.473803">
        <ele>1142.6</ele>
        <time>2018-07-22T11:44:48.000Z</time>
      </trkpt>
      <trkpt lat="42.310537" lon="-0.473803">
        <ele>1142.6</ele>
        <time>2018-07-22T11:44:49.000Z</time>
      </trkpt>
      <trkpt lat="42.310537" lon="-0.473802">
        <ele>1142.6</ele>
        <time>2018-07-22T11:44:50.000Z</time>
      </trkpt>
      <trkpt lat="42.310536" lon="-0.4738">
        <ele>1142.6</ele>
        <time>2018-07-22T11:44:51.000Z</time>
      </trkpt>
      <trkpt lat="42.31053" lon="-0.473794">
        <ele>1142.7</ele>
        <time>2018-07-22T11:44:52.000Z</time>
      </trkpt>
      <trkpt lat="42.310521" lon="-0.473782">
        <ele>1143.0</ele>
        <time>2018-07-22T11:44:53.000Z</time>
      </trkpt>
      <trkpt lat="42.310512" lon="-0.473771">
        <ele>1143.2</ele>
        <time>2018-07-22T11:44:54.000Z</time>
      </trkpt>
      <trkpt lat="42.310506" lon="-0.473764">
        <ele>1143.3</ele>
        <time>2018-07-22T11:44:55.000Z</time>
      </trkpt>
      <trkpt lat="42.3105" lon="-0.473758">
        <ele>1143.5</ele>
        <time>2018-07-22T11:44:56.000Z</time>
      </trkpt>
      <trkpt lat="42.310492" lon="-0.473753">
        <ele>1143.7</ele>
        <time>2018-07-22T11:44:57.000Z</time>
      </trkpt>
      <trkpt lat="42.310483" lon="-0.473747">
        <ele>1144.0</ele>
        <time>2018-07-22T11:44:58.000Z</time>
      </trkpt>
      <trkpt lat="42.310475" lon="-0.473741">
        <ele>1144.2</ele>
        <time>2018-07-22T11:44:59.000Z</time>
      </trkpt>
      <trkpt lat="42.310466" lon="-0.473735">
        <ele>1144.4</ele>
        <time>2018-07-22T11:45:00.000Z</time>
      </trkpt>
      <trkpt lat="42.310458" lon="-0.473728">
        <ele>1144.6</ele>
        <time>2018-07-22T11:45:01.000Z</time>
      </trkpt>
      <trkpt lat="42.310449" lon="-0.473721">
        <ele>1144.9</ele>
        <time>2018-07-22T11:45:02.000Z</time>
      </trkpt>
      <trkpt lat="42.31044" lon="-0.473714">
        <ele>1145.1</ele>
        <time>2018-07-22T11:45:03.000Z</time>
      </trkpt>
      <trkpt lat="42.310431" lon="-0.473707">
        <ele>1145.4</ele>
        <time>2018-07-22T11:45:04.000Z</time>
      </trkpt>
      <trkpt lat="42.310422" lon="-0.4737">
        <ele>1145.6</ele>
        <time>2018-07-22T11:45:05.000Z</time>
      </trkpt>
      <trkpt lat="42.310413" lon="-0.473693">
        <ele>1145.9</ele>
        <time>2018-07-22T11:45:06.000Z</time>
      </trkpt>
      <trkpt lat="42.310404" lon="-0.473687">
        <ele>1146.1</ele>
        <time>2018-07-22T11:45:07.000Z</time>
      </trkpt>
      <trkpt lat="42.310394" lon="-0.47368">
        <ele>1146.4</ele>
        <time>2018-07-22T11:45:08.000Z</time>
      </trkpt>
      <trkpt lat="42.310385" lon="-0.473673">
        <ele>1146.6</ele>
        <time>2018-07-22T11:45:09.000Z</time>
      </trkpt>
      <trkpt lat="42.310376" lon="-0.473667">
        <ele>1146.9</ele>
        <time>2018-07-22T11:45:10.000Z</time>
      </trkpt>
      <trkpt lat="42.310366" lon="-0.47366">
        <ele>1147.2</ele>
        <time>2018-07-22T11:45:11.000Z</time>
      </trkpt>
      <trkpt lat="42.310357" lon="-0.473653">
        <ele>1147.4</ele>
        <time>2018-07-22T11:45:12.000Z</time>
      </trkpt>
      <trkpt lat="42.310348" lon="-0.473646">
        <ele>1147.6</ele>
        <time>2018-07-22T11:45:13.000Z</time>
      </trkpt>
      <trkpt lat="42.310339" lon="-0.473638">
        <ele>1147.9</ele>
        <time>2018-07-22T11:45:14.000Z</time>
      </trkpt>
      <trkpt lat="42.31033" lon="-0.47363">
        <ele>1148.1</ele>
        <time>2018-07-22T11:45:15.000Z</time>
      </trkpt>
      <trkpt lat="42.310321" lon="-0.473623">
        <ele>1148.3</ele>
        <time>2018-07-22T11:45:16.000Z</time>
      </trkpt>
      <trkpt lat="42.310312" lon="-0.473614">
        <ele>1148.5</ele>
        <time>2018-07-22T11:45:17.000Z</time>
      </trkpt>
      <trkpt lat="42.310304" lon="-0.473606">
        <ele>1148.7</ele>
        <time>2018-07-22T11:45:18.000Z</time>
      </trkpt>
      <trkpt lat="42.310296" lon="-0.473597">
        <ele>1148.9</ele>
        <time>2018-07-22T11:45:19.000Z</time>
      </trkpt>
      <trkpt lat="42.310288" lon="-0.473588">
        <ele>1149.1</ele>
        <time>2018-07-22T11:45:20.000Z</time>
      </trkpt>
      <trkpt lat="42.31028" lon="-0.473578">
        <ele>1149.3</ele>
        <time>2018-07-22T11:45:21.000Z</time>
      </trkpt>
      <trkpt lat="42.310273" lon="-0.473568">
        <ele>1149.4</ele>
        <time>2018-07-22T11:45:22.000Z</time>
      </trkpt>
      <trkpt lat="42.310265" lon="-0.473558">
        <ele>1149.6</ele>
        <time>2018-07-22T11:45:23.000Z</time>
      </trkpt>
      <trkpt lat="42.310259" lon="-0.473548">
        <ele>1149.7</ele>
        <time>2018-07-22T11:45:24.000Z</time>
      </trkpt>
      <trkpt lat="42.310252" lon="-0.473537">
        <ele>1149.8</ele>
        <time>2018-07-22T11:45:25.000Z</time>
      </trkpt>
      <trkpt lat="42.310245" lon="-0.473526">
        <ele>1149.9</ele>
        <time>2018-07-22T11:45:26.000Z</time>
      </trkpt>
      <trkpt lat="42.310239" lon="-0.473514">
        <ele>1150.0</ele>
        <time>2018-07-22T11:45:27.000Z</time>
      </trkpt>
      <trkpt lat="42.310234" lon="-0.473503">
        <ele>1150.1</ele>
        <time>2018-07-22T11:45:28.000Z</time>
      </trkpt>
      <trkpt lat="42.310228" lon="-0.47349">
        <ele>1150.2</ele>
        <time>2018-07-22T11:45:29.000Z</time>
      </trkpt>
      <trkpt lat="42.310223" lon="-0.473478">
        <ele>1150.2</ele>
        <time>2018-07-22T11:45:30.000Z</time>
      </trkpt>
      <trkpt lat="42.310219" lon="-0.473465">
        <ele>1150.2</ele>
        <time>2018-07-22T11:45:31.000Z</time>
      </trkpt>
      <trkpt lat="42.310214" lon="-0.473452">
        <ele>1150.2</ele>
        <time>2018-07-22T11:45:32.000Z</time>
      </trkpt>
      <trkpt lat="42.31021" lon="-0.473438">
        <ele>1150.2</ele>
        <time>2018-07-22T11:45:33.000Z</time>
      </trkpt>
      <trkpt lat="42.310207" lon="-0.473424">
        <ele>1150.2</ele>
        <time>2018-07-22T11:45:34.000Z</time>
      </trkpt>
      <trkpt lat="42.310204" lon="-0.47341">
        <ele>1150.2</ele>
        <time>2018-07-22T11:45:35.000Z</time>
      </trkpt>
      <trkpt lat="42.310201" lon="-0.473395">
        <ele>1150.1</ele>
        <time>2018-07-22T11:45:36.000Z</time>
      </trkpt>
      <trkpt lat="42.310199" lon="-0.47338">
        <ele>1150.0</ele>
        <time>2018-07-22T11:45:37.000Z</time>
      </trkpt>
      <trkpt lat="42.310197" lon="-0.473365">
        <ele>1149.9</ele>
        <time>2018-07-22T11:45:38.000Z</time>
      </trkpt>
      <trkpt lat="42.310196" lon="-0.473349">
        <ele>1149.8</ele>
        <time>2018-07-22T11:45:39.000Z</time>
      </trkpt>
      <trkpt lat="42.310195" lon="-0.473334">
        <ele>1149.7</ele>
        <time>2018-07-22T11:45:40.000Z</time>
      </trkpt>
      <trkpt lat="42.310194" lon="-0.473318">
        <ele>1149.5</ele>
        <time>2018-07-22T11:45:41.000Z</time>
      </trkpt>
      <trkpt lat="42.310193" lon="-0.473303">
        <ele>1149.3</ele>
        <time>2018-07-22T11:45:42.000Z</time>
      </trkpt>
      <trkpt lat="42.310193" lon="-0.473288">
        <ele>1149.1</ele>
        <time>2018-07-22T11:45:43.000Z</time>
      </trkpt>
      <trkpt lat="42.310193" lon="-0.473273">
        <ele>1148.9</ele>
        <time>2018-07-22T11:45:44.000Z</time>
      </trkpt>
      <trkpt lat="42.310193" lon="-0.473258">
        <ele>1148.7</ele>
        <time>2018-07-22T11:45:45.000Z</time>
      </trkpt>
      <trkpt lat="42.310194" lon="-0.473244">
        <ele>1148.4</ele>
        <time>2018-07-22T11:45:46.000Z</time>
      </trkpt>
      <trkpt lat="42.310195" lon="-0.473231">
        <ele>1148.2</ele>
        <time>2018-07-22T11:45:47.000Z</time>
      </trkpt>
      <trkpt lat="42.310196" lon="-0.473218">
        <ele>1148.0</ele>
        <time>2018-07-22T11:45:48.000Z</time>
      </trkpt>
      <trkpt lat="42.310197" lon="-0.473205">
        <ele>1147.8</ele>
        <time>2018-07-22T11:45:49.000Z</time>
      </trkpt>
      <trkpt lat="42.310198" lon="-0.473192">
        <ele>1147.6</ele>
        <time>2018-07-22T11:45:50.000Z</time>
      </trkpt>
      <trkpt lat="42.310199" lon="-0.47318">
        <ele>1147.4</ele>
        <time>2018-07-22T11:45:51.000Z</time>
      </trkpt>
      <trkpt lat="42.310201" lon="-0.473168">
        <ele>1147.1</ele>
        <time>2018-07-22T11:45:52.000Z</time>
      </trkpt>
      <trkpt lat="42.310202" lon="-0.473156">
        <ele>1146.9</ele>
        <time>2018-07-22T11:45:53.000Z</time>
      </trkpt>
      <trkpt lat="42.310204" lon="-0.473144">
        <ele>1146.7</ele>
        <time>2018-07-22T11:45:54.000Z</time>
      </trkpt>
      <trkpt lat="42.310205" lon="-0.473133">
        <ele>1146.5</ele>
        <time>2018-07-22T11:45:55.000Z</time>
      </trkpt>
      <trkpt lat="42.310207" lon="-0.473121">
        <ele>1146.3</ele>
        <time>2018-07-22T11:45:56.000Z</time>
      </trkpt>
      <trkpt lat="42.310209" lon="-0.473109">
        <ele>1146.1</ele>
        <time>2018-07-22T11:45:57.000Z</time>
      </trkpt>
      <trkpt lat="42.31021" lon="-0.473097">
        <ele>1145.9</ele>
        <time>2018-07-22T11:45:58.000Z</time>
      </trkpt>
      <trkpt lat="42.310212" lon="-0.473085">
        <ele>1145.6</ele>
        <time>2018-07-22T11:45:59.000Z</time>
      </trkpt>
      <trkpt lat="42.310214" lon="-0.473072">
        <ele>1145.4</ele>
        <time>2018-07-22T11:46:00.000Z</time>
      </trkpt>
      <trkpt lat="42.310215" lon="-0.47306">
        <ele>1145.2</ele>
        <time>2018-07-22T11:46:01.000Z</time>
      </trkpt>
      <trkpt lat="42.310217" lon="-0.473047">
        <ele>1144.9</ele>
        <time>2018-07-22T11:46:02.000Z</time>
      </trkpt>
      <trkpt lat="42.310218" lon="-0.473034">
        <ele>1144.7</ele>
        <time>2018-07-22T11:46:03.000Z</time>
      </trkpt>
      <trkpt lat="42.310219" lon="-0.47302">
        <ele>1144.5</ele>
        <time>2018-07-22T11:46:04.000Z</time>
      </trkpt>
      <trkpt lat="42.31022" lon="-0.473007">
        <ele>1144.3</ele>
        <time>2018-07-22T11:46:05.000Z</time>
      </trkpt>
      <trkpt lat="42.31022" lon="-0.472993">
        <ele>1144.1</ele>
        <time>2018-07-22T11:46:06.000Z</time>
      </trkpt>
      <trkpt lat="42.31022" lon="-0.472978">
        <ele>1143.9</ele>
        <time>2018-07-22T11:46:07.000Z</time>
      </trkpt>
      <trkpt lat="42.31022" lon="-0.472964">
        <ele>1143.7</ele>
        <time>2018-07-22T11:46:08.000Z</time>
      </trkpt>
      <trkpt lat="42.31022" lon="-0.472949">
        <ele>1143.5</ele>
        <time>2018-07-22T11:46:09.000Z</time>
      </trkpt>
      <trkpt lat="42.31022" lon="-0.472934">
        <ele>1143.3</ele>
        <time>2018-07-22T11:46:10.000Z</time>
      </trkpt>
      <trkpt lat="42.310219" lon="-0.472919">
        <ele>1143.1</ele>
        <time>2018-07-22T11:46:11.000Z</time>
      </trkpt>
      <trkpt lat="42.310218" lon="-0.472904">
        <ele>1142.9</ele>
        <time>2018-07-22T11:46:12.000Z</time>
      </trkpt>
      <trkpt lat="42.310216" lon="-0.472888">
        <ele>1142.7</ele>
        <time>2018-07-22T11:46:13.000Z</time>
      </trkpt>
      <trkpt lat="42.310214" lon="-0.472873">
        <ele>1142.6</ele>
        <time>2018-07-22T11:46:14.000Z</time>
      </trkpt>
      <trkpt lat="42.310212" lon="-0.472857">
        <ele>1142.4</ele>
        <time>2018-07-22T11:46:15.000Z</time>
      </trkpt>
      <trkpt lat="42.31021" lon="-0.472842">
        <ele>1142.3</ele>
        <time>2018-07-22T11:46:16.000Z</time>
      </trkpt>
      <trkpt lat="42.310208" lon="-0.472827">
        <ele>1142.1</ele>
        <time>2018-07-22T11:46:17.000Z</time>
      </trkpt>
      <trkpt lat="42.310205" lon="-0.472813">
        <ele>1142.0</ele>
        <time>2018-07-22T11:46:18.000Z</time>
      </trkpt>
      <trkpt lat="42.310202" lon="-0.472798">
        <ele>1141.9</ele>
        <time>2018-07-22T11:46:19.000Z</time>
      </trkpt>
      <trkpt lat="42.310199" lon="-0.472784">
        <ele>1141.8</ele>
        <time>2018-07-22T11:46:20.000Z</time>
      </trkpt>
      <trkpt lat="42.310195" lon="-0.472771">
        <ele>1141.7</ele>
        <time>2018-07-22T11:46:21.000Z</time>
      </trkpt>
      <trkpt lat="42.310192" lon="-0.472758">
        <ele>1141.6</ele>
        <time>2018-07-22T11:46:22.000Z</time>
      </trkpt>
      <trkpt lat="42.310188" lon="-0.472745">
        <ele>1141.5</ele>
        <time>2018-07-22T11:46:23.000Z</time>
      </trkpt>
      <trkpt lat="42.310184" lon="-0.472732">
        <ele>1141.5</ele>
        <time>2018-07-22T11:46:24.000Z</time>
      </trkpt>
      <trkpt lat="42.31018" lon="-0.47272">
        <ele>1141.4</ele>
        <time>2018-07-22T11:46:25.000Z</time>
      </trkpt>
      <trkpt lat="42.310176" lon="-0.472707">
        <ele>1141.3</ele>
        <time>2018-07-22T11:46:26.000Z</time>
      </trkpt>
      <trkpt lat="42.310172" lon="-0.472695">
        <ele>1141.3</ele>
        <time>2018-07-22T11:46:27.000Z</time>
      </trkpt>
      <trkpt lat="42.310168" lon="-0.472683">
        <ele>1141.2</ele>
        <time>2018-07-22T11:46:28.000Z</time>
      </trkpt>
      <trkpt lat="42.310164" lon="-0.472671">
        <ele>1141.1</ele>
        <time>2018-07-22T11:46:29.000Z</time>
      </trkpt>
      <trkpt lat="42.31016" lon="-0.47266">
        <ele>1141.1</ele>
        <time>2018-07-22T11:46:30.000Z</time>
      </trkpt>
      <trkpt lat="42.310156" lon="-0.472648">
        <ele>1141.0</ele>
        <time>2018-07-22T11:46:31.000Z</time>
      </trkpt>
      <trkpt lat="42.310152" lon="-0.472636">
        <ele>1141.0</ele>
        <time>2018-07-22T11:46:32.000Z</time>
      </trkpt>
      <trkpt lat="42.310148" lon="-0.472624">
        <ele>1140.9</ele>
        <time>2018-07-22T11:46:33.000Z</time>
      </trkpt>
      <trkpt lat="42.310144" lon="-0.472612">
        <ele>1140.8</ele>
        <time>2018-07-22T11:46:34.000Z</time>
      </trkpt>
      <trkpt lat="42.31014" lon="-0.4726">
        <ele>1140.8</ele>
        <time>2018-07-22T11:46:35.000Z</time>
      </trkpt>
      <trkpt lat="42.310136" lon="-0.472587">
        <ele>1140.7</ele>
        <time>2018-07-22T11:46:36.000Z</time>
      </trkpt>
      <trkpt lat="42.310132" lon="-0.472575">
        <ele>1140.6</ele>
        <time>2018-07-22T11:46:37.000Z</time>
      </trkpt>
      <trkpt lat="42.310128" lon="-0.472563">
        <ele>1140.5</ele>
        <time>2018-07-22T11:46:38.000Z</time>
      </trkpt>
      <trkpt lat="42.310124" lon="-0.47255">
        <ele>1140.5</ele>
        <time>2018-07-22T11:46:39.000Z</time>
      </trkpt>
      <trkpt lat="42.31012" lon="-0.472537">
        <ele>1140.4</ele>
        <time>2018-07-22T11:46:40.000Z</time>
      </trkpt>
      <trkpt lat="42.310116" lon="-0.472524">
        <ele>1140.3</ele>
        <time>2018-07-22T11:46:41.000Z</time>
      </trkpt>
      <trkpt lat="42.310112" lon="-0.472511">
        <ele>1140.2</ele>
        <time>2018-07-22T11:46:42.000Z</time>
      </trkpt>
      <trkpt lat="42.310107" lon="-0.472497">
        <ele>1140.1</ele>
        <time>2018-07-22T11:46:43.000Z</time>
      </trkpt>
      <trkpt lat="42.310103" lon="-0.472484">
        <ele>1140.1</ele>
        <time>2018-07-22T11:46:44.000Z</time>
      </trkpt>
      <trkpt lat="42.310099" lon="-0.47247">
        <ele>1140.0</ele>
        <time>2018-07-22T11:46:45.000Z</time>
      </trkpt>
      <trkpt lat="42.310095" lon="-0.472456">
        <ele>1139.9</ele>
        <time>2018-07-22T11:46:46.000Z</time>
      </trkpt>
      <trkpt lat="42.31009" lon="-0.472442">
        <ele>1139.9</ele>
        <time>2018-07-22T11:46:47.000Z</time>
      </trkpt>
      <trkpt lat="42.310085" lon="-0.472429">
        <ele>1139.8</ele>
        <time>2018-07-22T11:46:48.000Z</time>
      </trkpt>
      <trkpt lat="42.31008" lon="-0.472415">
        <ele>1139.8</ele>
        <time>2018-07-22T11:46:49.000Z</time>
      </trkpt>
      <trkpt lat="42.310075" lon="-0.472402">
        <ele>1139.7</ele>
        <time>2018-07-22T11:46:50.000Z</time>
      </trkpt>
      <trkpt lat="42.31007" lon="-0.472389">
        <ele>1139.7</ele>
        <time>2018-07-22T11:46:51.000Z</time>
      </trkpt>
      <trkpt lat="42.310064" lon="-0.472376">
        <ele>1139.7</ele>
        <time>2018-07-22T11:46:52.000Z</time>
      </trkpt>
      <trkpt lat="42.310058" lon="-0.472363">
        <ele>1139.7</ele>
        <time>2018-07-22T11:46:53.000Z</time>
      </trkpt>
      <trkpt lat="42.310051" lon="-0.47235">
        <ele>1139.7</ele>
        <time>2018-07-22T11:46:54.000Z</time>
      </trkpt>
      <trkpt lat="42.310045" lon="-0.472338">
        <ele>1139.7</ele>
        <time>2018-07-22T11:46:55.000Z</time>
      </trkpt>
      <trkpt lat="42.310039" lon="-0.472325">
        <ele>1139.7</ele>
        <time>2018-07-22T11:46:56.000Z</time>
      </trkpt>
      <trkpt lat="42.310032" lon="-0.472313">
        <ele>1139.7</ele>
        <time>2018-07-22T11:46:57.000Z</time>
      </trkpt>
      <trkpt lat="42.310026" lon="-0.472301">
        <ele>1139.7</ele>
        <time>2018-07-22T11:46:58.000Z</time>
      </trkpt>
      <trkpt lat="42.310021" lon="-0.472288">
        <ele>1139.7</ele>
        <time>2018-07-22T11:46:59.000Z</time>
      </trkpt>
      <trkpt lat="42.310015" lon="-0.472275">
        <ele>1139.6</ele>
        <time>2018-07-22T11:47:00.000Z</time>
      </trkpt>
      <trkpt lat="42.310011" lon="-0.472261">
        <ele>1139.6</ele>
        <time>2018-07-22T11:47:01.000Z</time>
      </trkpt>
      <trkpt lat="42.310007" lon="-0.472248">
        <ele>1139.5</ele>
        <time>2018-07-22T11:47:02.000Z</time>
      </trkpt>
      <trkpt lat="42.310003" lon="-0.472234">
        <ele>1139.4</ele>
        <time>2018-07-22T11:47:03.000Z</time>
      </trkpt>
      <trkpt lat="42.309999" lon="-0.47222">
        <ele>1139.3</ele>
        <time>2018-07-22T11:47:04.000Z</time>
      </trkpt>
      <trkpt lat="42.309993" lon="-0.472206">
        <ele>1139.4</ele>
        <time>2018-07-22T11:47:05.000Z</time>
      </trkpt>
      <trkpt lat="42.309983" lon="-0.472195">
        <ele>1139.6</ele>
        <time>2018-07-22T11:47:06.000Z</time>
      </trkpt>
      <trkpt lat="42.309971" lon="-0.472184">
        <ele>1139.8</ele>
        <time>2018-07-22T11:47:07.000Z</time>
      </trkpt>
      <trkpt lat="42.309959" lon="-0.472172">
        <ele>1140.1</ele>
        <time>2018-07-22T11:47:08.000Z</time>
      </trkpt>
      <trkpt lat="42.309947" lon="-0.47216">
        <ele>1140.3</ele>
        <time>2018-07-22T11:47:09.000Z</time>
      </trkpt>
      <trkpt lat="42.309937" lon="-0.472147">
        <ele>1140.5</ele>
        <time>2018-07-22T11:47:10.000Z</time>
      </trkpt>
      <trkpt lat="42.309927" lon="-0.472135">
        <ele>1140.7</ele>
        <time>2018-07-22T11:47:11.000Z</time>
      </trkpt>
      <trkpt lat="42.309918" lon="-0.472124">
        <ele>1140.8</ele>
        <time>2018-07-22T11:47:12.000Z</time>
      </trkpt>
      <trkpt lat="42.309911" lon="-0.472113">
        <ele>1140.9</ele>
        <time>2018-07-22T11:47:13.000Z</time>
      </trkpt>
      <trkpt lat="42.309904" lon="-0.472103">
        <ele>1141.0</ele>
        <time>2018-07-22T11:47:14.000Z</time>
      </trkpt>
      <trkpt lat="42.309899" lon="-0.472094">
        <ele>1141.1</ele>
        <time>2018-07-22T11:47:15.000Z</time>
      </trkpt>
      <trkpt lat="42.309894" lon="-0.472083">
        <ele>1141.1</ele>
        <time>2018-07-22T11:47:16.000Z</time>
      </trkpt>
      <trkpt lat="42.30989" lon="-0.472073">
        <ele>1141.1</ele>
        <time>2018-07-22T11:47:17.000Z</time>
      </trkpt>
      <trkpt lat="42.309885" lon="-0.472062">
        <ele>1141.1</ele>
        <time>2018-07-22T11:47:18.000Z</time>
      </trkpt>
      <trkpt lat="42.30988" lon="-0.47205">
        <ele>1141.2</ele>
        <time>2018-07-22T11:47:19.000Z</time>
      </trkpt>
      <trkpt lat="42.309873" lon="-0.472038">
        <ele>1141.2</ele>
        <time>2018-07-22T11:47:20.000Z</time>
      </trkpt>
      <trkpt lat="42.309866" lon="-0.472024">
        <ele>1141.3</ele>
        <time>2018-07-22T11:47:21.000Z</time>
      </trkpt>
      <trkpt lat="42.309859" lon="-0.472011">
        <ele>1141.4</ele>
        <time>2018-07-22T11:47:22.000Z</time>
      </trkpt>
      <trkpt lat="42.309852" lon="-0.471996">
        <ele>1141.4</ele>
        <time>2018-07-22T11:47:23.000Z</time>
      </trkpt>
      <trkpt lat="42.309845" lon="-0.471982">
        <ele>1141.4</ele>
        <time>2018-07-22T11:47:24.000Z</time>
      </trkpt>
      <trkpt lat="42.309838" lon="-0.471968">
        <ele>1141.5</ele>
        <time>2018-07-22T11:47:25.000Z</time>
      </trkpt>
      <trkpt lat="42.309833" lon="-0.471953">
        <ele>1141.5</ele>
        <time>2018-07-22T11:47:26.000Z</time>
      </trkpt>
      <trkpt lat="42.309828" lon="-0.471939">
        <ele>1141.4</ele>
        <time>2018-07-22T11:47:27.000Z</time>
      </trkpt>
      <trkpt lat="42.309823" lon="-0.471925">
        <ele>1141.4</ele>
        <time>2018-07-22T11:47:28.000Z</time>
      </trkpt>
      <trkpt lat="42.309819" lon="-0.47191">
        <ele>1141.4</ele>
        <time>2018-07-22T11:47:29.000Z</time>
      </trkpt>
      <trkpt lat="42.309816" lon="-0.471896">
        <ele>1141.3</ele>
        <time>2018-07-22T11:47:30.000Z</time>
      </trkpt>
      <trkpt lat="42.309813" lon="-0.471883">
        <ele>1141.2</ele>
        <time>2018-07-22T11:47:31.000Z</time>
      </trkpt>
      <trkpt lat="42.30981" lon="-0.471869">
        <ele>1141.1</ele>
        <time>2018-07-22T11:47:32.000Z</time>
      </trkpt>
      <trkpt lat="42.309807" lon="-0.471855">
        <ele>1141.0</ele>
        <time>2018-07-22T11:47:33.000Z</time>
      </trkpt>
      <trkpt lat="42.309805" lon="-0.471842">
        <ele>1140.9</ele>
        <time>2018-07-22T11:47:34.000Z</time>
      </trkpt>
      <trkpt lat="42.309803" lon="-0.471829">
        <ele>1140.8</ele>
        <time>2018-07-22T11:47:35.000Z</time>
      </trkpt>
      <trkpt lat="42.309801" lon="-0.471816">
        <ele>1140.7</ele>
        <time>2018-07-22T11:47:36.000Z</time>
      </trkpt>
      <trkpt lat="42.309799" lon="-0.471804">
        <ele>1140.6</ele>
        <time>2018-07-22T11:47:37.000Z</time>
      </trkpt>
      <trkpt lat="42.309798" lon="-0.471791">
        <ele>1140.5</ele>
        <time>2018-07-22T11:47:38.000Z</time>
      </trkpt>
      <trkpt lat="42.309796" lon="-0.471779">
        <ele>1140.4</ele>
        <time>2018-07-22T11:47:39.000Z</time>
      </trkpt>
      <trkpt lat="42.309795" lon="-0.471767">
        <ele>1140.2</ele>
        <time>2018-07-22T11:47:40.000Z</time>
      </trkpt>
      <trkpt lat="42.309793" lon="-0.471754">
        <ele>1140.1</ele>
        <time>2018-07-22T11:47:41.000Z</time>
      </trkpt>
      <trkpt lat="42.309792" lon="-0.471742">
        <ele>1140.0</ele>
        <time>2018-07-22T11:47:42.000Z</time>
      </trkpt>
      <trkpt lat="42.309791" lon="-0.47173">
        <ele>1139.9</ele>
        <time>2018-07-22T11:47:43.000Z</time>
      </trkpt>
      <trkpt lat="42.30979" lon="-0.471717">
        <ele>1139.7</ele>
        <time>2018-07-22T11:47:44.000Z</time>
      </trkpt>
      <trkpt lat="42.309789" lon="-0.471704">
        <ele>1139.6</ele>
        <time>2018-07-22T11:47:45.000Z</time>
      </trkpt>
      <trkpt lat="42.309789" lon="-0.471691">
        <ele>1139.4</ele>
        <time>2018-07-22T11:47:46.000Z</time>
      </trkpt>
      <trkpt lat="42.309788" lon="-0.471678">
        <ele>1139.3</ele>
        <time>2018-07-22T11:47:47.000Z</time>
      </trkpt>
      <trkpt lat="42.309787" lon="-0.471665">
        <ele>1139.1</ele>
        <time>2018-07-22T11:47:48.000Z</time>
      </trkpt>
      <trkpt lat="42.309787" lon="-0.471651">
        <ele>1139.0</ele>
        <time>2018-07-22T11:47:49.000Z</time>
      </trkpt>
      <trkpt lat="42.309786" lon="-0.471637">
        <ele>1138.9</ele>
        <time>2018-07-22T11:47:50.000Z</time>
      </trkpt>
      <trkpt lat="42.309786" lon="-0.471623">
        <ele>1138.8</ele>
        <time>2018-07-22T11:47:51.000Z</time>
      </trkpt>
      <trkpt lat="42.309785" lon="-0.471609">
        <ele>1138.7</ele>
        <time>2018-07-22T11:47:52.000Z</time>
      </trkpt>
      <trkpt lat="42.309785" lon="-0.471595">
        <ele>1138.6</ele>
        <time>2018-07-22T11:47:53.000Z</time>
      </trkpt>
      <trkpt lat="42.309784" lon="-0.471581">
        <ele>1138.5</ele>
        <time>2018-07-22T11:47:54.000Z</time>
      </trkpt>
      <trkpt lat="42.309784" lon="-0.471567">
        <ele>1138.3</ele>
        <time>2018-07-22T11:47:55.000Z</time>
      </trkpt>
      <trkpt lat="42.309783" lon="-0.471553">
        <ele>1138.2</ele>
        <time>2018-07-22T11:47:56.000Z</time>
      </trkpt>
      <trkpt lat="42.309782" lon="-0.471539">
        <ele>1138.1</ele>
        <time>2018-07-22T11:47:57.000Z</time>
      </trkpt>
      <trkpt lat="42.309781" lon="-0.471525">
        <ele>1138.0</ele>
        <time>2018-07-22T11:47:58.000Z</time>
      </trkpt>
      <trkpt lat="42.30978" lon="-0.471511">
        <ele>1137.9</ele>
        <time>2018-07-22T11:47:59.000Z</time>
      </trkpt>
      <trkpt lat="42.309779" lon="-0.471497">
        <ele>1137.8</ele>
        <time>2018-07-22T11:48:00.000Z</time>
      </trkpt>
      <trkpt lat="42.309778" lon="-0.471483">
        <ele>1137.7</ele>
        <time>2018-07-22T11:48:01.000Z</time>
      </trkpt>
      <trkpt lat="42.309777" lon="-0.471469">
        <ele>1137.6</ele>
        <time>2018-07-22T11:48:02.000Z</time>
      </trkpt>
      <trkpt lat="42.309776" lon="-0.471455">
        <ele>1137.5</ele>
        <time>2018-07-22T11:48:03.000Z</time>
      </trkpt>
      <trkpt lat="42.309775" lon="-0.471441">
        <ele>1137.4</ele>
        <time>2018-07-22T11:48:04.000Z</time>
      </trkpt>
      <trkpt lat="42.309774" lon="-0.471426">
        <ele>1137.3</ele>
        <time>2018-07-22T11:48:05.000Z</time>
      </trkpt>
      <trkpt lat="42.309772" lon="-0.471412">
        <ele>1137.3</ele>
        <time>2018-07-22T11:48:06.000Z</time>
      </trkpt>
      <trkpt lat="42.309771" lon="-0.471397">
        <ele>1137.2</ele>
        <time>2018-07-22T11:48:07.000Z</time>
      </trkpt>
      <trkpt lat="42.30977" lon="-0.471383">
        <ele>1137.1</ele>
        <time>2018-07-22T11:48:08.000Z</time>
      </trkpt>
      <trkpt lat="42.309769" lon="-0.471368">
        <ele>1137.0</ele>
        <time>2018-07-22T11:48:09.000Z</time>
      </trkpt>
      <trkpt lat="42.309767" lon="-0.471353">
        <ele>1136.9</ele>
        <time>2018-07-22T11:48:10.000Z</time>
      </trkpt>
      <trkpt lat="42.309766" lon="-0.471339">
        <ele>1136.8</ele>
        <time>2018-07-22T11:48:11.000Z</time>
      </trkpt>
      <trkpt lat="42.309765" lon="-0.471324">
        <ele>1136.7</ele>
        <time>2018-07-22T11:48:12.000Z</time>
      </trkpt>
      <trkpt lat="42.309764" lon="-0.471308">
        <ele>1136.6</ele>
        <time>2018-07-22T11:48:13.000Z</time>
      </trkpt>
      <trkpt lat="42.309762" lon="-0.471293">
        <ele>1136.5</ele>
        <time>2018-07-22T11:48:14.000Z</time>
      </trkpt>
      <trkpt lat="42.309761" lon="-0.471278">
        <ele>1136.4</ele>
        <time>2018-07-22T11:48:15.000Z</time>
      </trkpt>
      <trkpt lat="42.30976" lon="-0.471263">
        <ele>1136.3</ele>
        <time>2018-07-22T11:48:16.000Z</time>
      </trkpt>
      <trkpt lat="42.309758" lon="-0.471248">
        <ele>1136.2</ele>
        <time>2018-07-22T11:48:17.000Z</time>
      </trkpt>
      <trkpt lat="42.309757" lon="-0.471233">
        <ele>1136.1</ele>
        <time>2018-07-22T11:48:18.000Z</time>
      </trkpt>
      <trkpt lat="42.309755" lon="-0.471217">
        <ele>1136.0</ele>
        <time>2018-07-22T11:48:19.000Z</time>
      </trkpt>
      <trkpt lat="42.309754" lon="-0.471202">
        <ele>1135.9</ele>
        <time>2018-07-22T11:48:20.000Z</time>
      </trkpt>
      <trkpt lat="42.309752" lon="-0.471187">
        <ele>1135.8</ele>
        <time>2018-07-22T11:48:21.000Z</time>
      </trkpt>
      <trkpt lat="42.30975" lon="-0.471172">
        <ele>1135.7</ele>
        <time>2018-07-22T11:48:22.000Z</time>
      </trkpt>
      <trkpt lat="42.309748" lon="-0.471157">
        <ele>1135.6</ele>
        <time>2018-07-22T11:48:23.000Z</time>
      </trkpt>
      <trkpt lat="42.309747" lon="-0.471142">
        <ele>1135.5</ele>
        <time>2018-07-22T11:48:24.000Z</time>
      </trkpt>
      <trkpt lat="42.309745" lon="-0.471127">
        <ele>1135.4</ele>
        <time>2018-07-22T11:48:25.000Z</time>
      </trkpt>
      <trkpt lat="42.309743" lon="-0.471112">
        <ele>1135.4</ele>
        <time>2018-07-22T11:48:26.000Z</time>
      </trkpt>
      <trkpt lat="42.30974" lon="-0.471097">
        <ele>1135.3</ele>
        <time>2018-07-22T11:48:27.000Z</time>
      </trkpt>
      <trkpt lat="42.309738" lon="-0.471082">
        <ele>1135.2</ele>
        <time>2018-07-22T11:48:28.000Z</time>
      </trkpt>
      <trkpt lat="42.309736" lon="-0.471068">
        <ele>1135.2</ele>
        <time>2018-07-22T11:48:29.000Z</time>
      </trkpt>
      <trkpt lat="42.309733" lon="-0.471053">
        <ele>1135.1</ele>
        <time>2018-07-22T11:48:30.000Z</time>
      </trkpt>
      <trkpt lat="42.309731" lon="-0.471038">
        <ele>1135.0</ele>
        <time>2018-07-22T11:48:31.000Z</time>
      </trkpt>
      <trkpt lat="42.309728" lon="-0.471024">
        <ele>1135.0</ele>
        <time>2018-07-22T11:48:32.000Z</time>
      </trkpt>
      <trkpt lat="42.309725" lon="-0.471009">
        <ele>1134.9</ele>
        <time>2018-07-22T11:48:33.000Z</time>
      </trkpt>
      <trkpt lat="42.309721" lon="-0.470993">
        <ele>1134.9</ele>
        <time>2018-07-22T11:48:34.000Z</time>
      </trkpt>
      <trkpt lat="42.309718" lon="-0.470978">
        <ele>1134.9</ele>
        <time>2018-07-22T11:48:35.000Z</time>
      </trkpt>
      <trkpt lat="42.309714" lon="-0.470962">
        <ele>1134.8</ele>
        <time>2018-07-22T11:48:36.000Z</time>
      </trkpt>
      <trkpt lat="42.30971" lon="-0.470946">
        <ele>1134.8</ele>
        <time>2018-07-22T11:48:37.000Z</time>
      </trkpt>
      <trkpt lat="42.309706" lon="-0.47093">
        <ele>1134.8</ele>
        <time>2018-07-22T11:48:38.000Z</time>
      </trkpt>
      <trkpt lat="42.309703" lon="-0.470915">
        <ele>1134.7</ele>
        <time>2018-07-22T11:48:39.000Z</time>
      </trkpt>
      <trkpt lat="42.3097" lon="-0.470899">
        <ele>1134.6</ele>
        <time>2018-07-22T11:48:40.000Z</time>
      </trkpt>
      <trkpt lat="42.309697" lon="-0.470884">
        <ele>1134.6</ele>
        <time>2018-07-22T11:48:41.000Z</time>
      </trkpt>
      <trkpt lat="42.309694" lon="-0.470869">
        <ele>1134.5</ele>
        <time>2018-07-22T11:48:42.000Z</time>
      </trkpt>
      <trkpt lat="42.309692" lon="-0.470854">
        <ele>1134.4</ele>
        <time>2018-07-22T11:48:43.000Z</time>
      </trkpt>
      <trkpt lat="42.309689" lon="-0.470838">
        <ele>1134.4</ele>
        <time>2018-07-22T11:48:44.000Z</time>
      </trkpt>
      <trkpt lat="42.309687" lon="-0.470823">
        <ele>1134.2</ele>
        <time>2018-07-22T11:48:45.000Z</time>
      </trkpt>
      <trkpt lat="42.309686" lon="-0.470808">
        <ele>1134.0</ele>
        <time>2018-07-22T11:48:46.000Z</time>
      </trkpt>
      <trkpt lat="42.309684" lon="-0.470793">
        <ele>1133.8</ele>
        <time>2018-07-22T11:48:47.000Z</time>
      </trkpt>
      <trkpt lat="42.309683" lon="-0.470777">
        <ele>1133.6</ele>
        <time>2018-07-22T11:48:48.000Z</time>
      </trkpt>
      <trkpt lat="42.309682" lon="-0.470762">
        <ele>1133.4</ele>
        <time>2018-07-22T11:48:49.000Z</time>
      </trkpt>
      <trkpt lat="42.309681" lon="-0.470746">
        <ele>1133.2</ele>
        <time>2018-07-22T11:48:50.000Z</time>
      </trkpt>
      <trkpt lat="42.30968" lon="-0.470729">
        <ele>1132.9</ele>
        <time>2018-07-22T11:48:51.000Z</time>
      </trkpt>
      <trkpt lat="42.309679" lon="-0.470713">
        <ele>1132.7</ele>
        <time>2018-07-22T11:48:52.000Z</time>
      </trkpt>
      <trkpt lat="42.309678" lon="-0.470696">
        <ele>1132.5</ele>
        <time>2018-07-22T11:48:53.000Z</time>
      </trkpt>
      <trkpt lat="42.309677" lon="-0.470679">
        <ele>1132.2</ele>
        <time>2018-07-22T11:48:54.000Z</time>
      </trkpt>
      <trkpt lat="42.309676" lon="-0.470661">
        <ele>1132.0</ele>
        <time>2018-07-22T11:48:55.000Z</time>
      </trkpt>
      <trkpt lat="42.309675" lon="-0.470644">
        <ele>1131.7</ele>
        <time>2018-07-22T11:48:56.000Z</time>
      </trkpt>
      <trkpt lat="42.309674" lon="-0.470627">
        <ele>1131.5</ele>
        <time>2018-07-22T11:48:57.000Z</time>
      </trkpt>
      <trkpt lat="42.309672" lon="-0.47061">
        <ele>1131.3</ele>
        <time>2018-07-22T11:48:58.000Z</time>
      </trkpt>
      <trkpt lat="42.309671" lon="-0.470593">
        <ele>1131.0</ele>
        <time>2018-07-22T11:48:59.000Z</time>
      </trkpt>
      <trkpt lat="42.309669" lon="-0.470576">
        <ele>1130.8</ele>
        <time>2018-07-22T11:49:00.000Z</time>
      </trkpt>
      <trkpt lat="42.309666" lon="-0.470559">
        <ele>1130.6</ele>
        <time>2018-07-22T11:49:01.000Z</time>
      </trkpt>
      <trkpt lat="42.309663" lon="-0.470543">
        <ele>1130.4</ele>
        <time>2018-07-22T11:49:02.000Z</time>
      </trkpt>
      <trkpt lat="42.30966" lon="-0.470528">
        <ele>1130.3</ele>
        <time>2018-07-22T11:49:03.000Z</time>
      </trkpt>
      <trkpt lat="42.309657" lon="-0.470512">
        <ele>1130.1</ele>
        <time>2018-07-22T11:49:04.000Z</time>
      </trkpt>
      <trkpt lat="42.309653" lon="-0.470497">
        <ele>1130.0</ele>
        <time>2018-07-22T11:49:05.000Z</time>
      </trkpt>
      <trkpt lat="42.309648" lon="-0.470482">
        <ele>1129.9</ele>
        <time>2018-07-22T11:49:06.000Z</time>
      </trkpt>
      <trkpt lat="42.309644" lon="-0.470467">
        <ele>1129.7</ele>
        <time>2018-07-22T11:49:07.000Z</time>
      </trkpt>
      <trkpt lat="42.309639" lon="-0.470453">
        <ele>1129.6</ele>
        <time>2018-07-22T11:49:08.000Z</time>
      </trkpt>
      <trkpt lat="42.309633" lon="-0.470438">
        <ele>1129.5</ele>
        <time>2018-07-22T11:49:09.000Z</time>
      </trkpt>
      <trkpt lat="42.309627" lon="-0.470424">
        <ele>1129.5</ele>
        <time>2018-07-22T11:49:10.000Z</time>
      </trkpt>
      <trkpt lat="42.309621" lon="-0.47041">
        <ele>1129.4</ele>
        <time>2018-07-22T11:49:11.000Z</time>
      </trkpt>
      <trkpt lat="42.309615" lon="-0.470396">
        <ele>1129.3</ele>
        <time>2018-07-22T11:49:12.000Z</time>
      </trkpt>
      <trkpt lat="42.309609" lon="-0.470383">
        <ele>1129.3</ele>
        <time>2018-07-22T11:49:13.000Z</time>
      </trkpt>
      <trkpt lat="42.309602" lon="-0.470369">
        <ele>1129.2</ele>
        <time>2018-07-22T11:49:14.000Z</time>
      </trkpt>
      <trkpt lat="42.309595" lon="-0.470356">
        <ele>1129.2</ele>
        <time>2018-07-22T11:49:15.000Z</time>
      </trkpt>
      <trkpt lat="42.309587" lon="-0.470342">
        <ele>1129.2</ele>
        <time>2018-07-22T11:49:16.000Z</time>
      </trkpt>
      <trkpt lat="42.30958" lon="-0.470329">
        <ele>1129.1</ele>
        <time>2018-07-22T11:49:17.000Z</time>
      </trkpt>
      <trkpt lat="42.309572" lon="-0.470316">
        <ele>1129.1</ele>
        <time>2018-07-22T11:49:18.000Z</time>
      </trkpt>
      <trkpt lat="42.309565" lon="-0.470304">
        <ele>1129.1</ele>
        <time>2018-07-22T11:49:19.000Z</time>
      </trkpt>
      <trkpt lat="42.309557" lon="-0.470292">
        <ele>1129.1</ele>
        <time>2018-07-22T11:49:20.000Z</time>
      </trkpt>
      <trkpt lat="42.309549" lon="-0.47028">
        <ele>1129.1</ele>
        <time>2018-07-22T11:49:21.000Z</time>
      </trkpt>
      <trkpt lat="42.309541" lon="-0.470268">
        <ele>1129.1</ele>
        <time>2018-07-22T11:49:22.000Z</time>
      </trkpt>
      <trkpt lat="42.309534" lon="-0.470257">
        <ele>1129.1</ele>
        <time>2018-07-22T11:49:23.000Z</time>
      </trkpt>
      <trkpt lat="42.309526" lon="-0.470246">
        <ele>1129.1</ele>
        <time>2018-07-22T11:49:24.000Z</time>
      </trkpt>
      <trkpt lat="42.309518" lon="-0.470235">
        <ele>1129.1</ele>
        <time>2018-07-22T11:49:25.000Z</time>
      </trkpt>
      <trkpt lat="42.309511" lon="-0.470224">
        <ele>1129.1</ele>
        <time>2018-07-22T11:49:26.000Z</time>
      </trkpt>
      <trkpt lat="42.309503" lon="-0.470213">
        <ele>1129.1</ele>
        <time>2018-07-22T11:49:27.000Z</time>
      </trkpt>
      <trkpt lat="42.309495" lon="-0.470202">
        <ele>1129.1</ele>
        <time>2018-07-22T11:49:28.000Z</time>
      </trkpt>
      <trkpt lat="42.309486" lon="-0.470191">
        <ele>1129.1</ele>
        <time>2018-07-22T11:49:29.000Z</time>
      </trkpt>
      <trkpt lat="42.309478" lon="-0.470179">
        <ele>1129.1</ele>
        <time>2018-07-22T11:49:30.000Z</time>
      </trkpt>
      <trkpt lat="42.309469" lon="-0.470166">
        <ele>1129.1</ele>
        <time>2018-07-22T11:49:31.000Z</time>
      </trkpt>
      <trkpt lat="42.309461" lon="-0.470154">
        <ele>1129.0</ele>
        <time>2018-07-22T11:49:32.000Z</time>
      </trkpt>
      <trkpt lat="42.309452" lon="-0.470141">
        <ele>1129.0</ele>
        <time>2018-07-22T11:49:33.000Z</time>
      </trkpt>
      <trkpt lat="42.309444" lon="-0.470128">
        <ele>1129.0</ele>
        <time>2018-07-22T11:49:34.000Z</time>
      </trkpt>
      <trkpt lat="42.309437" lon="-0.470115">
        <ele>1128.9</ele>
        <time>2018-07-22T11:49:35.000Z</time>
      </trkpt>
      <trkpt lat="42.309431" lon="-0.470102">
        <ele>1128.8</ele>
        <time>2018-07-22T11:49:36.000Z</time>
      </trkpt>
      <trkpt lat="42.309425" lon="-0.47009">
        <ele>1128.7</ele>
        <time>2018-07-22T11:49:37.000Z</time>
      </trkpt>
      <trkpt lat="42.309419" lon="-0.470077">
        <ele>1128.6</ele>
        <time>2018-07-22T11:49:38.000Z</time>
      </trkpt>
      <trkpt lat="42.309413" lon="-0.470066">
        <ele>1128.6</ele>
        <time>2018-07-22T11:49:39.000Z</time>
      </trkpt>
      <trkpt lat="42.309407" lon="-0.470054">
        <ele>1128.5</ele>
        <time>2018-07-22T11:49:40.000Z</time>
      </trkpt>
      <trkpt lat="42.309401" lon="-0.470044">
        <ele>1128.5</ele>
        <time>2018-07-22T11:49:41.000Z</time>
      </trkpt>
      <trkpt lat="42.309395" lon="-0.470033">
        <ele>1128.4</ele>
        <time>2018-07-22T11:49:42.000Z</time>
      </trkpt>
      <trkpt lat="42.309388" lon="-0.470023">
        <ele>1128.4</ele>
        <time>2018-07-22T11:49:43.000Z</time>
      </trkpt>
      <trkpt lat="42.309382" lon="-0.470013">
        <ele>1128.3</ele>
        <time>2018-07-22T11:49:44.000Z</time>
      </trkpt>
      <trkpt lat="42.309375" lon="-0.470003">
        <ele>1128.3</ele>
        <time>2018-07-22T11:49:45.000Z</time>
      </trkpt>
      <trkpt lat="42.309368" lon="-0.469992">
        <ele>1128.3</ele>
        <time>2018-07-22T11:49:46.000Z</time>
      </trkpt>
      <trkpt lat="42.309361" lon="-0.46998">
        <ele>1128.2</ele>
        <time>2018-07-22T11:49:47.000Z</time>
      </trkpt>
      <trkpt lat="42.309354" lon="-0.469969">
        <ele>1128.1</ele>
        <time>2018-07-22T11:49:48.000Z</time>
      </trkpt>
      <trkpt lat="42.309347" lon="-0.469956">
        <ele>1128.0</ele>
        <time>2018-07-22T11:49:49.000Z</time>
      </trkpt>
      <trkpt lat="42.30934" lon="-0.469944">
        <ele>1127.9</ele>
        <time>2018-07-22T11:49:50.000Z</time>
      </trkpt>
      <trkpt lat="42.309332" lon="-0.469931">
        <ele>1127.9</ele>
        <time>2018-07-22T11:49:51.000Z</time>
      </trkpt>
      <trkpt lat="42.309325" lon="-0.469918">
        <ele>1127.8</ele>
        <time>2018-07-22T11:49:52.000Z</time>
      </trkpt>
      <trkpt lat="42.309318" lon="-0.469905">
        <ele>1127.7</ele>
        <time>2018-07-22T11:49:53.000Z</time>
      </trkpt>
      <trkpt lat="42.309311" lon="-0.469892">
        <ele>1127.6</ele>
        <time>2018-07-22T11:49:54.000Z</time>
      </trkpt>
      <trkpt lat="42.309305" lon="-0.469879">
        <ele>1127.4</ele>
        <time>2018-07-22T11:49:55.000Z</time>
      </trkpt>
      <trkpt lat="42.309298" lon="-0.469866">
        <ele>1127.3</ele>
        <time>2018-07-22T11:49:56.000Z</time>
      </trkpt>
      <trkpt lat="42.309291" lon="-0.469853">
        <ele>1127.2</ele>
        <time>2018-07-22T11:49:57.000Z</time>
      </trkpt>
      <trkpt lat="42.309285" lon="-0.46984">
        <ele>1127.1</ele>
        <time>2018-07-22T11:49:58.000Z</time>
      </trkpt>
      <trkpt lat="42.309279" lon="-0.469827">
        <ele>1127.0</ele>
        <time>2018-07-22T11:49:59.000Z</time>
      </trkpt>
      <trkpt lat="42.309273" lon="-0.469815">
        <ele>1126.9</ele>
        <time>2018-07-22T11:50:00.000Z</time>
      </trkpt>
      <trkpt lat="42.309267" lon="-0.469802">
        <ele>1126.7</ele>
        <time>2018-07-22T11:50:01.000Z</time>
      </trkpt>
      <trkpt lat="42.309261" lon="-0.46979">
        <ele>1126.6</ele>
        <time>2018-07-22T11:50:02.000Z</time>
      </trkpt>
      <trkpt lat="42.309255" lon="-0.469778">
        <ele>1126.5</ele>
        <time>2018-07-22T11:50:03.000Z</time>
      </trkpt>
      <trkpt lat="42.309249" lon="-0.469766">
        <ele>1126.4</ele>
        <time>2018-07-22T11:50:04.000Z</time>
      </trkpt>
      <trkpt lat="42.309243" lon="-0.469754">
        <ele>1126.3</ele>
        <time>2018-07-22T11:50:05.000Z</time>
      </trkpt>
      <trkpt lat="42.309237" lon="-0.469743">
        <ele>1126.2</ele>
        <time>2018-07-22T11:50:06.000Z</time>
      </trkpt>
      <trkpt lat="42.309231" lon="-0.469732">
        <ele>1126.1</ele>
        <time>2018-07-22T11:50:07.000Z</time>
      </trkpt>
      <trkpt lat="42.309225" lon="-0.469721">
        <ele>1126.0</ele>
        <time>2018-07-22T11:50:08.000Z</time>
      </trkpt>
      <trkpt lat="42.309219" lon="-0.46971">
        <ele>1125.9</ele>
        <time>2018-07-22T11:50:09.000Z</time>
      </trkpt>
      <trkpt lat="42.309212" lon="-0.4697">
        <ele>1125.9</ele>
        <time>2018-07-22T11:50:10.000Z</time>
      </trkpt>
      <trkpt lat="42.309206" lon="-0.469689">
        <ele>1125.8</ele>
        <time>2018-07-22T11:50:11.000Z</time>
      </trkpt>
      <trkpt lat="42.309199" lon="-0.469679">
        <ele>1125.7</ele>
        <time>2018-07-22T11:50:12.000Z</time>
      </trkpt>
      <trkpt lat="42.309193" lon="-0.469669">
        <ele>1125.7</ele>
        <time>2018-07-22T11:50:13.000Z</time>
      </trkpt>
      <trkpt lat="42.309186" lon="-0.469659">
        <ele>1125.6</ele>
        <time>2018-07-22T11:50:14.000Z</time>
      </trkpt>
      <trkpt lat="42.309179" lon="-0.469648">
        <ele>1125.6</ele>
        <time>2018-07-22T11:50:15.000Z</time>
      </trkpt>
      <trkpt lat="42.309172" lon="-0.469638">
        <ele>1125.5</ele>
        <time>2018-07-22T11:50:16.000Z</time>
      </trkpt>
      <trkpt lat="42.309165" lon="-0.469628">
        <ele>1125.5</ele>
        <time>2018-07-22T11:50:17.000Z</time>
      </trkpt>
      <trkpt lat="42.309157" lon="-0.469617">
        <ele>1125.5</ele>
        <time>2018-07-22T11:50:18.000Z</time>
      </trkpt>
      <trkpt lat="42.30915" lon="-0.469606">
        <ele>1125.5</ele>
        <time>2018-07-22T11:50:19.000Z</time>
      </trkpt>
      <trkpt lat="42.309142" lon="-0.469595">
        <ele>1125.5</ele>
        <time>2018-07-22T11:50:20.000Z</time>
      </trkpt>
      <trkpt lat="42.309134" lon="-0.469584">
        <ele>1125.5</ele>
        <time>2018-07-22T11:50:21.000Z</time>
      </trkpt>
      <trkpt lat="42.309126" lon="-0.469573">
        <ele>1125.6</ele>
        <time>2018-07-22T11:50:22.000Z</time>
      </trkpt>
      <trkpt lat="42.309118" lon="-0.469562">
        <ele>1125.6</ele>
        <time>2018-07-22T11:50:23.000Z</time>
      </trkpt>
      <trkpt lat="42.309109" lon="-0.469551">
        <ele>1125.6</ele>
        <time>2018-07-22T11:50:24.000Z</time>
      </trkpt>
      <trkpt lat="42.309101" lon="-0.469539">
        <ele>1125.6</ele>
        <time>2018-07-22T11:50:25.000Z</time>
      </trkpt>
      <trkpt lat="42.309091" lon="-0.469528">
        <ele>1125.7</ele>
        <time>2018-07-22T11:50:26.000Z</time>
      </trkpt>
      <trkpt lat="42.309082" lon="-0.469516">
        <ele>1125.8</ele>
        <time>2018-07-22T11:50:27.000Z</time>
      </trkpt>
      <trkpt lat="42.309072" lon="-0.469505">
        <ele>1125.9</ele>
        <time>2018-07-22T11:50:28.000Z</time>
      </trkpt>
      <trkpt lat="42.309062" lon="-0.469493">
        <ele>1125.9</ele>
        <time>2018-07-22T11:50:29.000Z</time>
      </trkpt>
      <trkpt lat="42.309052" lon="-0.469481">
        <ele>1126.0</ele>
        <time>2018-07-22T11:50:30.000Z</time>
      </trkpt>
      <trkpt lat="42.309041" lon="-0.46947">
        <ele>1126.1</ele>
        <time>2018-07-22T11:50:31.000Z</time>
      </trkpt>
      <trkpt lat="42.309031" lon="-0.469458">
        <ele>1126.2</ele>
        <time>2018-07-22T11:50:32.000Z</time>
      </trkpt>
      <trkpt lat="42.30902" lon="-0.469446">
        <ele>1126.3</ele>
        <time>2018-07-22T11:50:33.000Z</time>
      </trkpt>
      <trkpt lat="42.309009" lon="-0.469435">
        <ele>1126.4</ele>
        <time>2018-07-22T11:50:34.000Z</time>
      </trkpt>
      <trkpt lat="42.308999" lon="-0.469423">
        <ele>1126.5</ele>
        <time>2018-07-22T11:50:35.000Z</time>
      </trkpt>
      <trkpt lat="42.308988" lon="-0.469412">
        <ele>1126.6</ele>
        <time>2018-07-22T11:50:36.000Z</time>
      </trkpt>
      <trkpt lat="42.308978" lon="-0.469401">
        <ele>1126.7</ele>
        <time>2018-07-22T11:50:37.000Z</time>
      </trkpt>
      <trkpt lat="42.308968" lon="-0.46939">
        <ele>1126.8</ele>
        <time>2018-07-22T11:50:38.000Z</time>
      </trkpt>
      <trkpt lat="42.308959" lon="-0.469379">
        <ele>1126.8</ele>
        <time>2018-07-22T11:50:39.000Z</time>
      </trkpt>
      <trkpt lat="42.308949" lon="-0.469368">
        <ele>1126.9</ele>
        <time>2018-07-22T11:50:40.000Z</time>
      </trkpt>
      <trkpt lat="42.30894" lon="-0.469358">
        <ele>1127.0</ele>
        <time>2018-07-22T11:50:41.000Z</time>
      </trkpt>
      <trkpt lat="42.308932" lon="-0.469347">
        <ele>1127.0</ele>
        <time>2018-07-22T11:50:42.000Z</time>
      </trkpt>
      <trkpt lat="42.308924" lon="-0.469337">
        <ele>1127.0</ele>
        <time>2018-07-22T11:50:43.000Z</time>
      </trkpt>
      <trkpt lat="42.308916" lon="-0.469327">
        <ele>1127.1</ele>
        <time>2018-07-22T11:50:44.000Z</time>
      </trkpt>
      <trkpt lat="42.308908" lon="-0.469317">
        <ele>1127.1</ele>
        <time>2018-07-22T11:50:45.000Z</time>
      </trkpt>
      <trkpt lat="42.308901" lon="-0.469306">
        <ele>1127.1</ele>
        <time>2018-07-22T11:50:46.000Z</time>
      </trkpt>
      <trkpt lat="42.308893" lon="-0.469296">
        <ele>1127.2</ele>
        <time>2018-07-22T11:50:47.000Z</time>
      </trkpt>
      <trkpt lat="42.308887" lon="-0.469286">
        <ele>1127.2</ele>
        <time>2018-07-22T11:50:48.000Z</time>
      </trkpt>
      <trkpt lat="42.30888" lon="-0.469275">
        <ele>1127.2</ele>
        <time>2018-07-22T11:50:49.000Z</time>
      </trkpt>
      <trkpt lat="42.308873" lon="-0.469265">
        <ele>1127.2</ele>
        <time>2018-07-22T11:50:50.000Z</time>
      </trkpt>
      <trkpt lat="42.308867" lon="-0.469254">
        <ele>1127.1</ele>
        <time>2018-07-22T11:50:51.000Z</time>
      </trkpt>
      <trkpt lat="42.308861" lon="-0.469243">
        <ele>1127.1</ele>
        <time>2018-07-22T11:50:52.000Z</time>
      </trkpt>
      <trkpt lat="42.308855" lon="-0.469232">
        <ele>1127.1</ele>
        <time>2018-07-22T11:50:53.000Z</time>
      </trkpt>
      <trkpt lat="42.308849" lon="-0.46922">
        <ele>1127.0</ele>
        <time>2018-07-22T11:50:54.000Z</time>
      </trkpt>
      <trkpt lat="42.308844" lon="-0.469209">
        <ele>1126.9</ele>
        <time>2018-07-22T11:50:55.000Z</time>
      </trkpt>
      <trkpt lat="42.308838" lon="-0.469198">
        <ele>1126.9</ele>
        <time>2018-07-22T11:50:56.000Z</time>
      </trkpt>
      <trkpt lat="42.308833" lon="-0.469186">
        <ele>1126.8</ele>
        <time>2018-07-22T11:50:57.000Z</time>
      </trkpt>
      <trkpt lat="42.308828" lon="-0.469175">
        <ele>1126.7</ele>
        <time>2018-07-22T11:50:58.000Z</time>
      </trkpt>
      <trkpt lat="42.308823" lon="-0.469163">
        <ele>1126.7</ele>
        <time>2018-07-22T11:50:59.000Z</time>
      </trkpt>
      <trkpt lat="42.308818" lon="-0.469151">
        <ele>1126.6</ele>
        <time>2018-07-22T11:51:00.000Z</time>
      </trkpt>
      <trkpt lat="42.308813" lon="-0.46914">
        <ele>1126.6</ele>
        <time>2018-07-22T11:51:01.000Z</time>
      </trkpt>
      <trkpt lat="42.308808" lon="-0.469128">
        <ele>1126.6</ele>
        <time>2018-07-22T11:51:02.000Z</time>
      </trkpt>
      <trkpt lat="42.308804" lon="-0.469116">
        <ele>1126.5</ele>
        <time>2018-07-22T11:51:03.000Z</time>
      </trkpt>
      <trkpt lat="42.308799" lon="-0.469104">
        <ele>1126.4</ele>
        <time>2018-07-22T11:51:04.000Z</time>
      </trkpt>
      <trkpt lat="42.308795" lon="-0.469092">
        <ele>1126.4</ele>
        <time>2018-07-22T11:51:05.000Z</time>
      </trkpt>
      <trkpt lat="42.30879" lon="-0.469081">
        <ele>1126.3</ele>
        <time>2018-07-22T11:51:06.000Z</time>
      </trkpt>
      <trkpt lat="42.308786" lon="-0.469069">
        <ele>1126.3</ele>
        <time>2018-07-22T11:51:07.000Z</time>
      </trkpt>
      <trkpt lat="42.308781" lon="-0.469057">
        <ele>1126.2</ele>
        <time>2018-07-22T11:51:08.000Z</time>
      </trkpt>
      <trkpt lat="42.308777" lon="-0.469045">
        <ele>1126.1</ele>
        <time>2018-07-22T11:51:09.000Z</time>
      </trkpt>
      <trkpt lat="42.308772" lon="-0.469034">
        <ele>1126.1</ele>
        <time>2018-07-22T11:51:10.000Z</time>
      </trkpt>
      <trkpt lat="42.308768" lon="-0.469022">
        <ele>1126.0</ele>
        <time>2018-07-22T11:51:11.000Z</time>
      </trkpt>
      <trkpt lat="42.308763" lon="-0.46901">
        <ele>1126.0</ele>
        <time>2018-07-22T11:51:12.000Z</time>
      </trkpt>
      <trkpt lat="42.308759" lon="-0.468999">
        <ele>1125.9</ele>
        <time>2018-07-22T11:51:13.000Z</time>
      </trkpt>
      <trkpt lat="42.308754" lon="-0.468987">
        <ele>1125.9</ele>
        <time>2018-07-22T11:51:14.000Z</time>
      </trkpt>
      <trkpt lat="42.30875" lon="-0.468976">
        <ele>1125.8</ele>
        <time>2018-07-22T11:51:15.000Z</time>
      </trkpt>
      <trkpt lat="42.308745" lon="-0.468965">
        <ele>1125.8</ele>
        <time>2018-07-22T11:51:16.000Z</time>
      </trkpt>
      <trkpt lat="42.308741" lon="-0.468954">
        <ele>1125.7</ele>
        <time>2018-07-22T11:51:17.000Z</time>
      </trkpt>
      <trkpt lat="42.308736" lon="-0.468943">
        <ele>1125.7</ele>
        <time>2018-07-22T11:51:18.000Z</time>
      </trkpt>
      <trkpt lat="42.308731" lon="-0.468932">
        <ele>1125.6</ele>
        <time>2018-07-22T11:51:19.000Z</time>
      </trkpt>
      <trkpt lat="42.308726" lon="-0.468921">
        <ele>1125.6</ele>
        <time>2018-07-22T11:51:20.000Z</time>
      </trkpt>
      <trkpt lat="42.308721" lon="-0.46891">
        <ele>1125.5</ele>
        <time>2018-07-22T11:51:21.000Z</time>
      </trkpt>
      <trkpt lat="42.3076240" lon="-0.4661050">
        <ele>1121.4</ele>
        <time>2018-07-22T11:55:17Z</time>
      </trkpt>
      <trkpt lat="42.3075710" lon="-0.4659960">
        <ele>1119.2</ele>
        <time>2018-07-22T11:55:18Z</time>
      </trkpt>
      <trkpt lat="42.3074390" lon="-0.4660890">
        <ele>1119.2</ele>
        <time>2018-07-22T11:55:19Z</time>
      </trkpt>
      <trkpt lat="42.3074110" lon="-0.4660780">
        <ele>1119.2</ele>
        <time>2018-07-22T11:55:20Z</time>
      </trkpt>
      <trkpt lat="42.3073820" lon="-0.4660710">
        <ele>1119.1</ele>
        <time>2018-07-22T11:55:21Z</time>
      </trkpt>
      <trkpt lat="42.3073300" lon="-0.4660260">
        <ele>1118.8</ele>
        <time>2018-07-22T11:55:22Z</time>
      </trkpt>
      <trkpt lat="42.3072750" lon="-0.4659780">
        <ele>1118.3</ele>
        <time>2018-07-22T11:55:24Z</time>
      </trkpt>
      <trkpt lat="42.3072570" lon="-0.4659430">
        <ele>1118.1</ele>
        <time>2018-07-22T11:55:26Z</time>
      </trkpt>
      <trkpt lat="42.3072480" lon="-0.4658830">
        <ele>1117.8</ele>
        <time>2018-07-22T11:55:29Z</time>
      </trkpt>
      <trkpt lat="42.3072500" lon="-0.4658380">
        <ele>1117.7</ele>
        <time>2018-07-22T11:55:31Z</time>
      </trkpt>
      <trkpt lat="42.3072620" lon="-0.4657950">
        <ele>1117.6</ele>
        <time>2018-07-22T11:55:33Z</time>
      </trkpt>
      <trkpt lat="42.3072840" lon="-0.4657450">
        <ele>1117.6</ele>
        <time>2018-07-22T11:55:37Z</time>
      </trkpt>
      <trkpt lat="42.3072960" lon="-0.4657070">
        <ele>1117.6</ele>
        <time>2018-07-22T11:55:39Z</time>
      </trkpt>
      <trkpt lat="42.3073000" lon="-0.4656630">
        <ele>1117.6</ele>
        <time>2018-07-22T11:55:41Z</time>
      </trkpt>
      <trkpt lat="42.3072910" lon="-0.4656210">
        <ele>1117.6</ele>
        <time>2018-07-22T11:55:43Z</time>
      </trkpt>
      <trkpt lat="42.3072690" lon="-0.4655740">
        <ele>1117.6</ele>
        <time>2018-07-22T11:55:45Z</time>
      </trkpt>
      <trkpt lat="42.3072210" lon="-0.4655600">
        <ele>1117.6</ele>
        <time>2018-07-22T11:55:48Z</time>
      </trkpt>
      <trkpt lat="42.3072090" lon="-0.4655120">
        <ele>1117.6</ele>
        <time>2018-07-22T11:55:50Z</time>
      </trkpt>
      <trkpt lat="42.3072050" lon="-0.4654720">
        <ele>1117.6</ele>
        <time>2018-07-22T11:55:52Z</time>
      </trkpt>
      <trkpt lat="42.3072000" lon="-0.4654240">
        <ele>1117.4</ele>
        <time>2018-07-22T11:55:54Z</time>
      </trkpt>
      <trkpt lat="42.3071940" lon="-0.4653850">
        <ele>1117.3</ele>
        <time>2018-07-22T11:55:56Z</time>
      </trkpt>
      <trkpt lat="42.3072110" lon="-0.4653200">
        <ele>1117.0</ele>
        <time>2018-07-22T11:56:00Z</time>
      </trkpt>
      <trkpt lat="42.3072240" lon="-0.4652720">
        <ele>1116.7</ele>
        <time>2018-07-22T11:56:03Z</time>
      </trkpt>
      <trkpt lat="42.3072330" lon="-0.4652320">
        <ele>1116.5</ele>
        <time>2018-07-22T11:56:06Z</time>
      </trkpt>
      <trkpt lat="42.3072170" lon="-0.4652010">
        <ele>1116.3</ele>
        <time>2018-07-22T11:56:09Z</time>
      </trkpt>
      <trkpt lat="42.3071680" lon="-0.4651940">
        <ele>1116.1</ele>
        <time>2018-07-22T11:56:11Z</time>
      </trkpt>
      <trkpt lat="42.3071400" lon="-0.4651800">
        <ele>1116.0</ele>
        <time>2018-07-22T11:56:14Z</time>
      </trkpt>
      <trkpt lat="42.3071100" lon="-0.4651740">
        <ele>1116.0</ele>
        <time>2018-07-22T11:56:17Z</time>
      </trkpt>
      <trkpt lat="42.3071060" lon="-0.4651290">
        <ele>1116.0</ele>
        <time>2018-07-22T11:56:22Z</time>
      </trkpt>
      <trkpt lat="42.3070910" lon="-0.4650780">
        <ele>1116.0</ele>
        <time>2018-07-22T11:56:26Z</time>
      </trkpt>
      <trkpt lat="42.3071030" lon="-0.4650230">
        <ele>1116.0</ele>
        <time>2018-07-22T11:56:28Z</time>
      </trkpt>
      <trkpt lat="42.3071130" lon="-0.4649880">
        <ele>1116.0</ele>
        <time>2018-07-22T11:56:30Z</time>
      </trkpt>
      <trkpt lat="42.3070860" lon="-0.4649790">
        <ele>1116.0</ele>
        <time>2018-07-22T11:56:31Z</time>
      </trkpt>
      <trkpt lat="42.3070620" lon="-0.4649530">
        <ele>1116.0</ele>
        <time>2018-07-22T11:56:33Z</time>
      </trkpt>
      <trkpt lat="42.3070350" lon="-0.4649110">
        <ele>1116.0</ele>
        <time>2018-07-22T11:56:36Z</time>
      </trkpt>
      <trkpt lat="42.3070220" lon="-0.4648450">
        <ele>1115.8</ele>
        <time>2018-07-22T11:56:39Z</time>
      </trkpt>
      <trkpt lat="42.3070270" lon="-0.4647850">
        <ele>1115.5</ele>
        <time>2018-07-22T11:56:42Z</time>
      </trkpt>
      <trkpt lat="42.3070330" lon="-0.4647480">
        <ele>1115.3</ele>
        <time>2018-07-22T11:56:45Z</time>
      </trkpt>
      <trkpt lat="42.3070140" lon="-0.4647100">
        <ele>1115.1</ele>
        <time>2018-07-22T11:56:50Z</time>
      </trkpt>
      <trkpt lat="42.3069850" lon="-0.4647150">
        <ele>1114.8</ele>
        <time>2018-07-22T11:56:52Z</time>
      </trkpt>
      <trkpt lat="42.3069730" lon="-0.4646760">
        <ele>1114.6</ele>
        <time>2018-07-22T11:56:58Z</time>
      </trkpt>
      <trkpt lat="42.3069470" lon="-0.4646650">
        <ele>1114.5</ele>
        <time>2018-07-22T11:57:01Z</time>
      </trkpt>
      <trkpt lat="42.3069350" lon="-0.4646200">
        <ele>1114.3</ele>
        <time>2018-07-22T11:57:03Z</time>
      </trkpt>
      <trkpt lat="42.3069130" lon="-0.4645890">
        <ele>1114.2</ele>
        <time>2018-07-22T11:57:06Z</time>
      </trkpt>
      <trkpt lat="42.3068890" lon="-0.4645690">
        <ele>1114.2</ele>
        <time>2018-07-22T11:57:07Z</time>
      </trkpt>
      <trkpt lat="42.3068630" lon="-0.4645550">
        <ele>1114.2</ele>
        <time>2018-07-22T11:57:08Z</time>
      </trkpt>
      <trkpt lat="42.3068360" lon="-0.4645600">
        <ele>1114.2</ele>
        <time>2018-07-22T11:57:11Z</time>
      </trkpt>
      <trkpt lat="42.3068220" lon="-0.4645180">
        <ele>1114.2</ele>
        <time>2018-07-22T11:57:15Z</time>
      </trkpt>
      <trkpt lat="42.3068060" lon="-0.4644870">
        <ele>1114.2</ele>
        <time>2018-07-22T11:57:16Z</time>
      </trkpt>
      <trkpt lat="42.3067990" lon="-0.4644500">
        <ele>1114.2</ele>
        <time>2018-07-22T11:57:17Z</time>
      </trkpt>
      <trkpt lat="42.3068040" lon="-0.4644110">
        <ele>1114.2</ele>
        <time>2018-07-22T11:57:18Z</time>
      </trkpt>
      <trkpt lat="42.3068080" lon="-0.4643690">
        <ele>1114.2</ele>
        <time>2018-07-22T11:57:19Z</time>
      </trkpt>
      <trkpt lat="42.3068030" lon="-0.4643310">
        <ele>1114.2</ele>
        <time>2018-07-22T11:57:20Z</time>
      </trkpt>
      <trkpt lat="42.3068000" lon="-0.4642760">
        <ele>1114.2</ele>
        <time>2018-07-22T11:57:22Z</time>
      </trkpt>
      <trkpt lat="42.3067960" lon="-0.4642280">
        <ele>1114.2</ele>
        <time>2018-07-22T11:57:24Z</time>
      </trkpt>
      <trkpt lat="42.3068060" lon="-0.4641910">
        <ele>1114.1</ele>
        <time>2018-07-22T11:57:27Z</time>
      </trkpt>
      <trkpt lat="42.3067960" lon="-0.4641470">
        <ele>1114.0</ele>
        <time>2018-07-22T11:57:30Z</time>
      </trkpt>
      <trkpt lat="42.3067830" lon="-0.4641080">
        <ele>1113.9</ele>
        <time>2018-07-22T11:57:34Z</time>
      </trkpt>
      <trkpt lat="42.3067890" lon="-0.4640710">
        <ele>1113.7</ele>
        <time>2018-07-22T11:57:37Z</time>
      </trkpt>
      <trkpt lat="42.3068080" lon="-0.4640250">
        <ele>1113.5</ele>
        <time>2018-07-22T11:57:40Z</time>
      </trkpt>
      <trkpt lat="42.3067810" lon="-0.4639810">
        <ele>1113.1</ele>
        <time>2018-07-22T11:57:46Z</time>
      </trkpt>
      <trkpt lat="42.3067670" lon="-0.4639420">
        <ele>1112.9</ele>
        <time>2018-07-22T11:57:48Z</time>
      </trkpt>
      <trkpt lat="42.3067630" lon="-0.4638760">
        <ele>1112.7</ele>
        <time>2018-07-22T11:57:50Z</time>
      </trkpt>
      <trkpt lat="42.3067540" lon="-0.4638220">
        <ele>1112.6</ele>
        <time>2018-07-22T11:57:52Z</time>
      </trkpt>
      <trkpt lat="42.3067430" lon="-0.4637690">
        <ele>1112.6</ele>
        <time>2018-07-22T11:57:55Z</time>
      </trkpt>
      <trkpt lat="42.3067230" lon="-0.4637200">
        <ele>1112.6</ele>
        <time>2018-07-22T11:57:57Z</time>
      </trkpt>
      <trkpt lat="42.3067120" lon="-0.4636630">
        <ele>1112.6</ele>
        <time>2018-07-22T11:58:01Z</time>
      </trkpt>
      <trkpt lat="42.3067080" lon="-0.4636220">
        <ele>1112.6</ele>
        <time>2018-07-22T11:58:04Z</time>
      </trkpt>
      <trkpt lat="42.3067210" lon="-0.4635800">
        <ele>1112.7</ele>
        <time>2018-07-22T11:58:06Z</time>
      </trkpt>
      <trkpt lat="42.3066980" lon="-0.4635470">
        <ele>1112.7</ele>
        <time>2018-07-22T11:58:08Z</time>
      </trkpt>
      <trkpt lat="42.3066760" lon="-0.4635030">
        <ele>1112.7</ele>
        <time>2018-07-22T11:58:10Z</time>
      </trkpt>
      <trkpt lat="42.3066500" lon="-0.4634880">
        <ele>1112.6</ele>
        <time>2018-07-22T11:58:12Z</time>
      </trkpt>
      <trkpt lat="42.3066680" lon="-0.4634560">
        <ele>1112.5</ele>
        <time>2018-07-22T11:58:18Z</time>
      </trkpt>
      <trkpt lat="42.3067020" lon="-0.4634120">
        <ele>1112.2</ele>
        <time>2018-07-22T11:58:20Z</time>
      </trkpt>
      <trkpt lat="42.3066810" lon="-0.4633710">
        <ele>1111.9</ele>
        <time>2018-07-22T11:58:22Z</time>
      </trkpt>
      <trkpt lat="42.3066540" lon="-0.4633470">
        <ele>1111.6</ele>
        <time>2018-07-22T11:58:25Z</time>
      </trkpt>
      <trkpt lat="42.3066540" lon="-0.4633080">
        <ele>1111.3</ele>
        <time>2018-07-22T11:58:26Z</time>
      </trkpt>
      <trkpt lat="42.3066720" lon="-0.4632400">
        <ele>1111.0</ele>
        <time>2018-07-22T11:58:28Z</time>
      </trkpt>
      <trkpt lat="42.3067130" lon="-0.4631980">
        <ele>1110.9</ele>
        <time>2018-07-22T11:58:29Z</time>
      </trkpt>
      <trkpt lat="42.3066840" lon="-0.4631680">
        <ele>1110.9</ele>
        <time>2018-07-22T11:58:35Z</time>
      </trkpt>
      <trkpt lat="42.3066740" lon="-0.4631120">
        <ele>1110.9</ele>
        <time>2018-07-22T11:58:38Z</time>
      </trkpt>
      <trkpt lat="42.3066720" lon="-0.4630560">
        <ele>1110.9</ele>
        <time>2018-07-22T11:58:40Z</time>
      </trkpt>
      <trkpt lat="42.3066630" lon="-0.4630070">
        <ele>1110.9</ele>
        <time>2018-07-22T11:58:42Z</time>
      </trkpt>
      <trkpt lat="42.3066670" lon="-0.4629580">
        <ele>1110.9</ele>
        <time>2018-07-22T11:58:44Z</time>
      </trkpt>
      <trkpt lat="42.3066890" lon="-0.4629190">
        <ele>1111.0</ele>
        <time>2018-07-22T11:58:46Z</time>
      </trkpt>
      <trkpt lat="42.3066960" lon="-0.4628830">
        <ele>1111.0</ele>
        <time>2018-07-22T11:58:47Z</time>
      </trkpt>
      <trkpt lat="42.3066820" lon="-0.4628460">
        <ele>1111.0</ele>
        <time>2018-07-22T11:58:49Z</time>
      </trkpt>
      <trkpt lat="42.3066840" lon="-0.4628080">
        <ele>1111.0</ele>
        <time>2018-07-22T11:58:51Z</time>
      </trkpt>
      <trkpt lat="42.3066590" lon="-0.4627730">
        <ele>1111.1</ele>
        <time>2018-07-22T11:58:55Z</time>
      </trkpt>
      <trkpt lat="42.3066310" lon="-0.4627350">
        <ele>1111.1</ele>
        <time>2018-07-22T11:58:58Z</time>
      </trkpt>
      <trkpt lat="42.3066260" lon="-0.4626800">
        <ele>1111.1</ele>
        <time>2018-07-22T11:59:02Z</time>
      </trkpt>
      <trkpt lat="42.3066320" lon="-0.4626440">
        <ele>1111.2</ele>
        <time>2018-07-22T11:59:04Z</time>
      </trkpt>
      <trkpt lat="42.3066510" lon="-0.4626030">
        <ele>1111.2</ele>
        <time>2018-07-22T11:59:06Z</time>
      </trkpt>
      <trkpt lat="42.3066510" lon="-0.4625580">
        <ele>1111.1</ele>
        <time>2018-07-22T11:59:08Z</time>
      </trkpt>
      <trkpt lat="42.3066550" lon="-0.4624970">
        <ele>1111.0</ele>
        <time>2018-07-22T11:59:10Z</time>
      </trkpt>
      <trkpt lat="42.3066340" lon="-0.4624650">
        <ele>1110.8</ele>
        <time>2018-07-22T11:59:13Z</time>
      </trkpt>
      <trkpt lat="42.3066130" lon="-0.4624310">
        <ele>1110.6</ele>
        <time>2018-07-22T11:59:16Z</time>
      </trkpt>
      <trkpt lat="42.3066060" lon="-0.4623960">
        <ele>1110.4</ele>
        <time>2018-07-22T11:59:18Z</time>
      </trkpt>
      <trkpt lat="42.3065970" lon="-0.4623530">
        <ele>1110.1</ele>
        <time>2018-07-22T11:59:21Z</time>
      </trkpt>
      <trkpt lat="42.3065890" lon="-0.4623130">
        <ele>1109.9</ele>
        <time>2018-07-22T11:59:24Z</time>
      </trkpt>
      <trkpt lat="42.3065870" lon="-0.4622720">
        <ele>1109.7</ele>
        <time>2018-07-22T11:59:27Z</time>
      </trkpt>
      <trkpt lat="42.3065620" lon="-0.4622360">
        <ele>1109.6</ele>
        <time>2018-07-22T11:59:30Z</time>
      </trkpt>
      <trkpt lat="42.3065530" lon="-0.4621960">
        <ele>1109.5</ele>
        <time>2018-07-22T11:59:32Z</time>
      </trkpt>
      <trkpt lat="42.3065340" lon="-0.4621540">
        <ele>1109.5</ele>
        <time>2018-07-22T11:59:34Z</time>
      </trkpt>
      <trkpt lat="42.3065460" lon="-0.4621040">
        <ele>1109.5</ele>
        <time>2018-07-22T11:59:36Z</time>
      </trkpt>
      <trkpt lat="42.3065390" lon="-0.4620590">
        <ele>1109.5</ele>
        <time>2018-07-22T11:59:39Z</time>
      </trkpt>
      <trkpt lat="42.3065120" lon="-0.4620370">
        <ele>1109.6</ele>
        <time>2018-07-22T11:59:42Z</time>
      </trkpt>
      <trkpt lat="42.3064870" lon="-0.4619980">
        <ele>1109.6</ele>
        <time>2018-07-22T11:59:45Z</time>
      </trkpt>
      <trkpt lat="42.3064680" lon="-0.4619670">
        <ele>1109.6</ele>
        <time>2018-07-22T11:59:47Z</time>
      </trkpt>
      <trkpt lat="42.3064610" lon="-0.4619160">
        <ele>1109.7</ele>
        <time>2018-07-22T11:59:50Z</time>
      </trkpt>
      <trkpt lat="42.3064590" lon="-0.4618650">
        <ele>1109.7</ele>
        <time>2018-07-22T11:59:53Z</time>
      </trkpt>
      <trkpt lat="42.3064530" lon="-0.4618180">
        <ele>1109.7</ele>
        <time>2018-07-22T11:59:56Z</time>
      </trkpt>
      <trkpt lat="42.3064460" lon="-0.4617700">
        <ele>1109.7</ele>
        <time>2018-07-22T11:59:59Z</time>
      </trkpt>
      <trkpt lat="42.3064410" lon="-0.4617300">
        <ele>1109.8</ele>
        <time>2018-07-22T12:00:02Z</time>
      </trkpt>
      <trkpt lat="42.3064570" lon="-0.4616870">
        <ele>1109.8</ele>
        <time>2018-07-22T12:00:06Z</time>
      </trkpt>
      <trkpt lat="42.3064580" lon="-0.4616490">
        <ele>1109.8</ele>
        <time>2018-07-22T12:00:08Z</time>
      </trkpt>
      <trkpt lat="42.3064350" lon="-0.4616090">
        <ele>1109.8</ele>
        <time>2018-07-22T12:00:11Z</time>
      </trkpt>
      <trkpt lat="42.3064070" lon="-0.4615910">
        <ele>1109.9</ele>
        <time>2018-07-22T12:00:13Z</time>
      </trkpt>
      <trkpt lat="42.3063940" lon="-0.4615510">
        <ele>1109.9</ele>
        <time>2018-07-22T12:00:16Z</time>
      </trkpt>
      <trkpt lat="42.3063890" lon="-0.4615010">
        <ele>1110.0</ele>
        <time>2018-07-22T12:00:17Z</time>
      </trkpt>
      <trkpt lat="42.3063680" lon="-0.4614710">
        <ele>1110.0</ele>
        <time>2018-07-22T12:00:19Z</time>
      </trkpt>
      <trkpt lat="42.3063560" lon="-0.4614310">
        <ele>1110.0</ele>
        <time>2018-07-22T12:00:21Z</time>
      </trkpt>
      <trkpt lat="42.3063280" lon="-0.4614000">
        <ele>1110.0</ele>
        <time>2018-07-22T12:00:25Z</time>
      </trkpt>
      <trkpt lat="42.3062950" lon="-0.4613790">
        <ele>1110.0</ele>
        <time>2018-07-22T12:00:28Z</time>
      </trkpt>
      <trkpt lat="42.3062670" lon="-0.4613780">
        <ele>1110.0</ele>
        <time>2018-07-22T12:00:30Z</time>
      </trkpt>
      <trkpt lat="42.3062400" lon="-0.4613710">
        <ele>1110.0</ele>
        <time>2018-07-22T12:00:32Z</time>
      </trkpt>
      <trkpt lat="42.3062160" lon="-0.4613470">
        <ele>1110.0</ele>
        <time>2018-07-22T12:00:34Z</time>
      </trkpt>
      <trkpt lat="42.3061900" lon="-0.4613250">
        <ele>1110.0</ele>
        <time>2018-07-22T12:00:37Z</time>
      </trkpt>
      <trkpt lat="42.3061770" lon="-0.4612800">
        <ele>1110.0</ele>
        <time>2018-07-22T12:00:40Z</time>
      </trkpt>
      <trkpt lat="42.3061560" lon="-0.4612420">
        <ele>1110.0</ele>
        <time>2018-07-22T12:00:44Z</time>
      </trkpt>
      <trkpt lat="42.3061380" lon="-0.4612140">
        <ele>1110.0</ele>
        <time>2018-07-22T12:00:47Z</time>
      </trkpt>
      <trkpt lat="42.3061170" lon="-0.4611900">
        <ele>1110.0</ele>
        <time>2018-07-22T12:00:50Z</time>
      </trkpt>
      <trkpt lat="42.3060890" lon="-0.4611790">
        <ele>1110.0</ele>
        <time>2018-07-22T12:00:54Z</time>
      </trkpt>
      <trkpt lat="42.3060640" lon="-0.4611410">
        <ele>1110.3</ele>
        <time>2018-07-22T12:00:58Z</time>
      </trkpt>
      <trkpt lat="42.3060550" lon="-0.4611030">
        <ele>1110.5</ele>
        <time>2018-07-22T12:01:01Z</time>
      </trkpt>
      <trkpt lat="42.3060570" lon="-0.4610630">
        <ele>1110.7</ele>
        <time>2018-07-22T12:01:03Z</time>
      </trkpt>
      <trkpt lat="42.3060580" lon="-0.4610180">
        <ele>1110.9</ele>
        <time>2018-07-22T12:01:06Z</time>
      </trkpt>
      <trkpt lat="42.3060660" lon="-0.4609820">
        <ele>1111.0</ele>
        <time>2018-07-22T12:01:09Z</time>
      </trkpt>
      <trkpt lat="42.3060650" lon="-0.4609260">
        <ele>1111.1</ele>
        <time>2018-07-22T12:01:17Z</time>
      </trkpt>
      <trkpt lat="42.3060690" lon="-0.4608850">
        <ele>1111.2</ele>
        <time>2018-07-22T12:01:19Z</time>
      </trkpt>
      <trkpt lat="42.3060760" lon="-0.4608370">
        <ele>1111.4</ele>
        <time>2018-07-22T12:01:21Z</time>
      </trkpt>
      <trkpt lat="42.3060630" lon="-0.4608030">
        <ele>1111.5</ele>
        <time>2018-07-22T12:01:28Z</time>
      </trkpt>
      <trkpt lat="42.3060570" lon="-0.4607670">
        <ele>1111.7</ele>
        <time>2018-07-22T12:01:30Z</time>
      </trkpt>
      <trkpt lat="42.3060490" lon="-0.4607300">
        <ele>1111.9</ele>
        <time>2018-07-22T12:01:32Z</time>
      </trkpt>
      <trkpt lat="42.3060140" lon="-0.4606890">
        <ele>1112.2</ele>
        <time>2018-07-22T12:01:35Z</time>
      </trkpt>
      <trkpt lat="42.3059790" lon="-0.4606770">
        <ele>1112.4</ele>
        <time>2018-07-22T12:01:38Z</time>
      </trkpt>
      <trkpt lat="42.3059610" lon="-0.4606390">
        <ele>1112.6</ele>
        <time>2018-07-22T12:01:40Z</time>
      </trkpt>
      <trkpt lat="42.3059350" lon="-0.4606150">
        <ele>1112.7</ele>
        <time>2018-07-22T12:01:41Z</time>
      </trkpt>
      <trkpt lat="42.3059070" lon="-0.4605690">
        <ele>1112.9</ele>
        <time>2018-07-22T12:01:43Z</time>
      </trkpt>
      <trkpt lat="42.3059090" lon="-0.4605280">
        <ele>1113.0</ele>
        <time>2018-07-22T12:01:44Z</time>
      </trkpt>
      <trkpt lat="42.3058960" lon="-0.4604940">
        <ele>1113.1</ele>
        <time>2018-07-22T12:01:46Z</time>
      </trkpt>
      <trkpt lat="42.3059210" lon="-0.4604790">
        <ele>1113.2</ele>
        <time>2018-07-22T12:01:48Z</time>
      </trkpt>
      <trkpt lat="42.3059110" lon="-0.4604450">
        <ele>1113.3</ele>
        <time>2018-07-22T12:01:51Z</time>
      </trkpt>
      <trkpt lat="42.3059380" lon="-0.4604260">
        <ele>1113.4</ele>
        <time>2018-07-22T12:01:53Z</time>
      </trkpt>
      <trkpt lat="42.3059700" lon="-0.4603760">
        <ele>1113.6</ele>
        <time>2018-07-22T12:01:55Z</time>
      </trkpt>
      <trkpt lat="42.3059920" lon="-0.4603320">
        <ele>1113.8</ele>
        <time>2018-07-22T12:01:56Z</time>
      </trkpt>
      <trkpt lat="42.3060170" lon="-0.4603070">
        <ele>1113.9</ele>
        <time>2018-07-22T12:01:58Z</time>
      </trkpt>
      <trkpt lat="42.3060460" lon="-0.4602790">
        <ele>1114.1</ele>
        <time>2018-07-22T12:01:59Z</time>
      </trkpt>
      <trkpt lat="42.3060750" lon="-0.4602400">
        <ele>1114.3</ele>
        <time>2018-07-22T12:02:01Z</time>
      </trkpt>
      <trkpt lat="42.3060960" lon="-0.4602010">
        <ele>1114.5</ele>
        <time>2018-07-22T12:02:03Z</time>
      </trkpt>
      <trkpt lat="42.3061000" lon="-0.4601580">
        <ele>1114.6</ele>
        <time>2018-07-22T12:02:07Z</time>
      </trkpt>
      <trkpt lat="42.3061070" lon="-0.4601060">
        <ele>1114.8</ele>
        <time>2018-07-22T12:02:17Z</time>
      </trkpt>
      <trkpt lat="42.3061290" lon="-0.4600830">
        <ele>1114.8</ele>
        <time>2018-07-22T12:02:20Z</time>
      </trkpt>
      <trkpt lat="42.3061380" lon="-0.4600470">
        <ele>1114.9</ele>
        <time>2018-07-22T12:02:21Z</time>
      </trkpt>
      <trkpt lat="42.3061560" lon="-0.4600040">
        <ele>1115.0</ele>
        <time>2018-07-22T12:02:22Z</time>
      </trkpt>
      <trkpt lat="42.3061690" lon="-0.4599630">
        <ele>1115.0</ele>
        <time>2018-07-22T12:02:23Z</time>
      </trkpt>
      <trkpt lat="42.3061870" lon="-0.4599340">
        <ele>1115.1</ele>
        <time>2018-07-22T12:02:25Z</time>
      </trkpt>
      <trkpt lat="42.3062100" lon="-0.4598970">
        <ele>1115.1</ele>
        <time>2018-07-22T12:02:28Z</time>
      </trkpt>
      <trkpt lat="42.3062250" lon="-0.4598530">
        <ele>1115.2</ele>
        <time>2018-07-22T12:02:30Z</time>
      </trkpt>
      <trkpt lat="42.3062160" lon="-0.4598150">
        <ele>1115.2</ele>
        <time>2018-07-22T12:02:32Z</time>
      </trkpt>
      <trkpt lat="42.3062100" lon="-0.4597740">
        <ele>1115.3</ele>
        <time>2018-07-22T12:02:34Z</time>
      </trkpt>
      <trkpt lat="42.3061770" lon="-0.4597230">
        <ele>1115.4</ele>
        <time>2018-07-22T12:02:38Z</time>
      </trkpt>
      <trkpt lat="42.3061490" lon="-0.4597090">
        <ele>1115.4</ele>
        <time>2018-07-22T12:02:40Z</time>
      </trkpt>
      <trkpt lat="42.3061360" lon="-0.4596610">
        <ele>1115.5</ele>
        <time>2018-07-22T12:02:43Z</time>
      </trkpt>
      <trkpt lat="42.3061230" lon="-0.4596200">
        <ele>1115.6</ele>
        <time>2018-07-22T12:02:46Z</time>
      </trkpt>
      <trkpt lat="42.3061070" lon="-0.4595720">
        <ele>1115.7</ele>
        <time>2018-07-22T12:02:48Z</time>
      </trkpt>
      <trkpt lat="42.3060960" lon="-0.4595320">
        <ele>1115.8</ele>
        <time>2018-07-22T12:02:50Z</time>
      </trkpt>
      <trkpt lat="42.3061010" lon="-0.4594930">
        <ele>1115.9</ele>
        <time>2018-07-22T12:02:52Z</time>
      </trkpt>
      <trkpt lat="42.3061120" lon="-0.4594520">
        <ele>1116.1</ele>
        <time>2018-07-22T12:02:54Z</time>
      </trkpt>
      <trkpt lat="42.3060910" lon="-0.4594230">
        <ele>1116.2</ele>
        <time>2018-07-22T12:02:56Z</time>
      </trkpt>
      <trkpt lat="42.3060790" lon="-0.4593850">
        <ele>1116.3</ele>
        <time>2018-07-22T12:02:58Z</time>
      </trkpt>
      <trkpt lat="42.3060660" lon="-0.4593480">
        <ele>1116.5</ele>
        <time>2018-07-22T12:03:00Z</time>
      </trkpt>
      <trkpt lat="42.3060360" lon="-0.4593260">
        <ele>1116.6</ele>
        <time>2018-07-22T12:03:02Z</time>
      </trkpt>
      <trkpt lat="42.3060000" lon="-0.4593110">
        <ele>1116.8</ele>
        <time>2018-07-22T12:03:05Z</time>
      </trkpt>
      <trkpt lat="42.3059730" lon="-0.4593140">
        <ele>1116.9</ele>
        <time>2018-07-22T12:03:09Z</time>
      </trkpt>
      <trkpt lat="42.3059320" lon="-0.4592930">
        <ele>1117.0</ele>
        <time>2018-07-22T12:03:21Z</time>
      </trkpt>
      <trkpt lat="42.3058990" lon="-0.4592580">
        <ele>1117.1</ele>
        <time>2018-07-22T12:03:23Z</time>
      </trkpt>
      <trkpt lat="42.3058800" lon="-0.4592240">
        <ele>1117.2</ele>
        <time>2018-07-22T12:03:25Z</time>
      </trkpt>
      <trkpt lat="42.3058750" lon="-0.4591880">
        <ele>1117.2</ele>
        <time>2018-07-22T12:03:27Z</time>
      </trkpt>
      <trkpt lat="42.3058590" lon="-0.4591330">
        <ele>1117.3</ele>
        <time>2018-07-22T12:03:30Z</time>
      </trkpt>
      <trkpt lat="42.3058420" lon="-0.4590770">
        <ele>1117.4</ele>
        <time>2018-07-22T12:03:32Z</time>
      </trkpt>
      <trkpt lat="42.3057930" lon="-0.4590660">
        <ele>1117.5</ele>
        <time>2018-07-22T12:03:34Z</time>
      </trkpt>
      <trkpt lat="42.3057780" lon="-0.4590100">
        <ele>1117.5</ele>
        <time>2018-07-22T12:03:37Z</time>
      </trkpt>
      <trkpt lat="42.3057600" lon="-0.4589780">
        <ele>1117.6</ele>
        <time>2018-07-22T12:03:39Z</time>
      </trkpt>
      <trkpt lat="42.3057470" lon="-0.4589390">
        <ele>1117.6</ele>
        <time>2018-07-22T12:03:41Z</time>
      </trkpt>
      <trkpt lat="42.3057150" lon="-0.4589110">
        <ele>1117.7</ele>
        <time>2018-07-22T12:03:44Z</time>
      </trkpt>
      <trkpt lat="42.3057330" lon="-0.4588820">
        <ele>1117.8</ele>
        <time>2018-07-22T12:03:45Z</time>
      </trkpt>
      <trkpt lat="42.3057270" lon="-0.4588330">
        <ele>1117.9</ele>
        <time>2018-07-22T12:03:47Z</time>
      </trkpt>
      <trkpt lat="42.3057650" lon="-0.4588080">
        <ele>1118.1</ele>
        <time>2018-07-22T12:03:52Z</time>
      </trkpt>
      <trkpt lat="42.3057830" lon="-0.4587710">
        <ele>1118.3</ele>
        <time>2018-07-22T12:03:58Z</time>
      </trkpt>
      <trkpt lat="42.3057890" lon="-0.4587320">
        <ele>1118.4</ele>
        <time>2018-07-22T12:04:00Z</time>
      </trkpt>
      <trkpt lat="42.3057970" lon="-0.4586930">
        <ele>1118.6</ele>
        <time>2018-07-22T12:04:02Z</time>
      </trkpt>
      <trkpt lat="42.3057830" lon="-0.4586490">
        <ele>1118.7</ele>
        <time>2018-07-22T12:04:04Z</time>
      </trkpt>
      <trkpt lat="42.3057830" lon="-0.4585930">
        <ele>1118.8</ele>
        <time>2018-07-22T12:04:06Z</time>
      </trkpt>
      <trkpt lat="42.3057620" lon="-0.4585420">
        <ele>1118.9</ele>
        <time>2018-07-22T12:04:08Z</time>
      </trkpt>
      <trkpt lat="42.3057700" lon="-0.4585000">
        <ele>1118.9</ele>
        <time>2018-07-22T12:04:10Z</time>
      </trkpt>
      <trkpt lat="42.3057340" lon="-0.4584860">
        <ele>1119.0</ele>
        <time>2018-07-22T12:04:12Z</time>
      </trkpt>
      <trkpt lat="42.3057070" lon="-0.4584570">
        <ele>1119.1</ele>
        <time>2018-07-22T12:04:15Z</time>
      </trkpt>
      <trkpt lat="42.3056730" lon="-0.4584490">
        <ele>1119.1</ele>
        <time>2018-07-22T12:04:17Z</time>
      </trkpt>
      <trkpt lat="42.3056470" lon="-0.4584330">
        <ele>1119.1</ele>
        <time>2018-07-22T12:04:19Z</time>
      </trkpt>
      <trkpt lat="42.3056370" lon="-0.4583740">
        <ele>1119.2</ele>
        <time>2018-07-22T12:04:22Z</time>
      </trkpt>
      <trkpt lat="42.3056270" lon="-0.4583360">
        <ele>1119.2</ele>
        <time>2018-07-22T12:04:24Z</time>
      </trkpt>
      <trkpt lat="42.3056430" lon="-0.4582740">
        <ele>1119.3</ele>
        <time>2018-07-22T12:04:27Z</time>
      </trkpt>
      <trkpt lat="42.3056270" lon="-0.4582300">
        <ele>1119.3</ele>
        <time>2018-07-22T12:04:31Z</time>
      </trkpt>
      <trkpt lat="42.3056010" lon="-0.4582180">
        <ele>1119.4</ele>
        <time>2018-07-22T12:04:33Z</time>
      </trkpt>
      <trkpt lat="42.3055710" lon="-0.4582040">
        <ele>1119.4</ele>
        <time>2018-07-22T12:04:35Z</time>
      </trkpt>
      <trkpt lat="42.3055230" lon="-0.4581960">
        <ele>1119.6</ele>
        <time>2018-07-22T12:04:37Z</time>
      </trkpt>
      <trkpt lat="42.3054850" lon="-0.4581850">
        <ele>1119.7</ele>
        <time>2018-07-22T12:04:40Z</time>
      </trkpt>
      <trkpt lat="42.3054510" lon="-0.4581520">
        <ele>1119.9</ele>
        <time>2018-07-22T12:04:43Z</time>
      </trkpt>
      <trkpt lat="42.3054680" lon="-0.4581020">
        <ele>1120.1</ele>
        <time>2018-07-22T12:04:46Z</time>
      </trkpt>
      <trkpt lat="42.3054110" lon="-0.4580680">
        <ele>1120.3</ele>
        <time>2018-07-22T12:04:48Z</time>
      </trkpt>
      <trkpt lat="42.3053760" lon="-0.4580600">
        <ele>1120.4</ele>
        <time>2018-07-22T12:04:49Z</time>
      </trkpt>
      <trkpt lat="42.3053440" lon="-0.4580410">
        <ele>1120.4</ele>
        <time>2018-07-22T12:04:51Z</time>
      </trkpt>
      <trkpt lat="42.3053390" lon="-0.4579930">
        <ele>1120.5</ele>
        <time>2018-07-22T12:04:53Z</time>
      </trkpt>
      <trkpt lat="42.3053000" lon="-0.4579630">
        <ele>1120.5</ele>
        <time>2018-07-22T12:04:55Z</time>
      </trkpt>
      <trkpt lat="42.3052990" lon="-0.4579260">
        <ele>1120.6</ele>
        <time>2018-07-22T12:04:57Z</time>
      </trkpt>
      <trkpt lat="42.3052560" lon="-0.4579050">
        <ele>1120.7</ele>
        <time>2018-07-22T12:04:59Z</time>
      </trkpt>
      <trkpt lat="42.3052270" lon="-0.4578880">
        <ele>1120.7</ele>
        <time>2018-07-22T12:05:01Z</time>
      </trkpt>
      <trkpt lat="42.3052360" lon="-0.4578340">
        <ele>1120.8</ele>
        <time>2018-07-22T12:05:05Z</time>
      </trkpt>
      <trkpt lat="42.3052600" lon="-0.4577820">
        <ele>1120.8</ele>
        <time>2018-07-22T12:05:08Z</time>
      </trkpt>
      <trkpt lat="42.3052880" lon="-0.4577390">
        <ele>1120.9</ele>
        <time>2018-07-22T12:05:09Z</time>
      </trkpt>
      <trkpt lat="42.3053170" lon="-0.4577110">
        <ele>1120.9</ele>
        <time>2018-07-22T12:05:11Z</time>
      </trkpt>
      <trkpt lat="42.3052960" lon="-0.4576840">
        <ele>1120.9</ele>
        <time>2018-07-22T12:05:20Z</time>
      </trkpt>
      <trkpt lat="42.3053180" lon="-0.4576510">
        <ele>1121.0</ele>
        <time>2018-07-22T12:05:22Z</time>
      </trkpt>
      <trkpt lat="42.3053330" lon="-0.4576080">
        <ele>1121.0</ele>
        <time>2018-07-22T12:05:24Z</time>
      </trkpt>
      <trkpt lat="42.3053230" lon="-0.4575690">
        <ele>1121.0</ele>
        <time>2018-07-22T12:05:27Z</time>
      </trkpt>
      <trkpt lat="42.3052960" lon="-0.4575350">
        <ele>1121.0</ele>
        <time>2018-07-22T12:05:29Z</time>
      </trkpt>
      <trkpt lat="42.3052640" lon="-0.4574950">
        <ele>1121.0</ele>
        <time>2018-07-22T12:05:31Z</time>
      </trkpt>
      <trkpt lat="42.3052630" lon="-0.4574490">
        <ele>1121.0</ele>
        <time>2018-07-22T12:05:33Z</time>
      </trkpt>
      <trkpt lat="42.3052500" lon="-0.4574170">
        <ele>1121.1</ele>
        <time>2018-07-22T12:05:35Z</time>
      </trkpt>
      <trkpt lat="42.3052700" lon="-0.4573630">
        <ele>1121.1</ele>
        <time>2018-07-22T12:05:38Z</time>
      </trkpt>
      <trkpt lat="42.3052480" lon="-0.4573310">
        <ele>1121.1</ele>
        <time>2018-07-22T12:05:40Z</time>
      </trkpt>
      <trkpt lat="42.3052720" lon="-0.4572850">
        <ele>1121.1</ele>
        <time>2018-07-22T12:05:42Z</time>
      </trkpt>
      <trkpt lat="42.3052520" lon="-0.4572420">
        <ele>1121.1</ele>
        <time>2018-07-22T12:05:45Z</time>
      </trkpt>
      <trkpt lat="42.3052190" lon="-0.4571890">
        <ele>1121.1</ele>
        <time>2018-07-22T12:05:49Z</time>
      </trkpt>
      <trkpt lat="42.3052010" lon="-0.4571400">
        <ele>1121.1</ele>
        <time>2018-07-22T12:05:52Z</time>
      </trkpt>
      <trkpt lat="42.3051820" lon="-0.4570890">
        <ele>1121.1</ele>
        <time>2018-07-22T12:05:54Z</time>
      </trkpt>
      <trkpt lat="42.3051830" lon="-0.4570500">
        <ele>1121.1</ele>
        <time>2018-07-22T12:05:56Z</time>
      </trkpt>
      <trkpt lat="42.3051550" lon="-0.4570040">
        <ele>1121.1</ele>
        <time>2018-07-22T12:05:59Z</time>
      </trkpt>
      <trkpt lat="42.3051280" lon="-0.4569870">
        <ele>1121.1</ele>
        <time>2018-07-22T12:06:01Z</time>
      </trkpt>
      <trkpt lat="42.3051350" lon="-0.4569470">
        <ele>1121.1</ele>
        <time>2018-07-22T12:06:04Z</time>
      </trkpt>
      <trkpt lat="42.3051550" lon="-0.4569030">
        <ele>1121.1</ele>
        <time>2018-07-22T12:06:08Z</time>
      </trkpt>
      <trkpt lat="42.3051770" lon="-0.4568750">
        <ele>1121.1</ele>
        <time>2018-07-22T12:06:10Z</time>
      </trkpt>
      <trkpt lat="42.3051550" lon="-0.4568450">
        <ele>1121.1</ele>
        <time>2018-07-22T12:06:13Z</time>
      </trkpt>
      <trkpt lat="42.3051450" lon="-0.4568030">
        <ele>1121.0</ele>
        <time>2018-07-22T12:06:15Z</time>
      </trkpt>
      <trkpt lat="42.3051430" lon="-0.4567570">
        <ele>1121.0</ele>
        <time>2018-07-22T12:06:20Z</time>
      </trkpt>
      <trkpt lat="42.3051510" lon="-0.4567180">
        <ele>1121.0</ele>
        <time>2018-07-22T12:06:23Z</time>
      </trkpt>
      <trkpt lat="42.3051800" lon="-0.4566740">
        <ele>1121.0</ele>
        <time>2018-07-22T12:06:26Z</time>
      </trkpt>
      <trkpt lat="42.3051890" lon="-0.4566320">
        <ele>1121.0</ele>
        <time>2018-07-22T12:06:28Z</time>
      </trkpt>
      <trkpt lat="42.3051920" lon="-0.4565810">
        <ele>1121.0</ele>
        <time>2018-07-22T12:06:30Z</time>
      </trkpt>
      <trkpt lat="42.3051540" lon="-0.4565680">
        <ele>1121.0</ele>
        <time>2018-07-22T12:06:49Z</time>
      </trkpt>
      <trkpt lat="42.3051240" lon="-0.4565730">
        <ele>1121.0</ele>
        <time>2018-07-22T12:06:51Z</time>
      </trkpt>
      <trkpt lat="42.3050840" lon="-0.4565860">
        <ele>1121.0</ele>
        <time>2018-07-22T12:06:53Z</time>
      </trkpt>
      <trkpt lat="42.3050480" lon="-0.4565900">
        <ele>1121.0</ele>
        <time>2018-07-22T12:06:56Z</time>
      </trkpt>
      <trkpt lat="42.3050230" lon="-0.4565620">
        <ele>1121.0</ele>
        <time>2018-07-22T12:07:01Z</time>
      </trkpt>
      <trkpt lat="42.3050680" lon="-0.4565600">
        <ele>1121.0</ele>
        <time>2018-07-22T12:07:10Z</time>
      </trkpt>
      <trkpt lat="42.3050460" lon="-0.4565350">
        <ele>1120.9</ele>
        <time>2018-07-22T12:07:19Z</time>
      </trkpt>
      <trkpt lat="42.3050260" lon="-0.4565000">
        <ele>1120.8</ele>
        <time>2018-07-22T12:07:22Z</time>
      </trkpt>
      <trkpt lat="42.3050280" lon="-0.4564360">
        <ele>1120.6</ele>
        <time>2018-07-22T12:07:25Z</time>
      </trkpt>
      <trkpt lat="42.3050610" lon="-0.4564060">
        <ele>1120.5</ele>
        <time>2018-07-22T12:07:27Z</time>
      </trkpt>
      <trkpt lat="42.3050550" lon="-0.4563700">
        <ele>1120.5</ele>
        <time>2018-07-22T12:07:29Z</time>
      </trkpt>
      <trkpt lat="42.3050380" lon="-0.4563210">
        <ele>1120.4</ele>
        <time>2018-07-22T12:07:32Z</time>
      </trkpt>
      <trkpt lat="42.3050100" lon="-0.4562930">
        <ele>1120.3</ele>
        <time>2018-07-22T12:07:35Z</time>
      </trkpt>
      <trkpt lat="42.3049830" lon="-0.4562650">
        <ele>1120.1</ele>
        <time>2018-07-22T12:07:38Z</time>
      </trkpt>
      <trkpt lat="42.3049590" lon="-0.4562370">
        <ele>1120.0</ele>
        <time>2018-07-22T12:07:40Z</time>
      </trkpt>
      <trkpt lat="42.3049260" lon="-0.4562140">
        <ele>1119.8</ele>
        <time>2018-07-22T12:07:42Z</time>
      </trkpt>
      <trkpt lat="42.3048960" lon="-0.4562110">
        <ele>1119.8</ele>
        <time>2018-07-22T12:07:44Z</time>
      </trkpt>
      <trkpt lat="42.3048580" lon="-0.4561850">
        <ele>1119.6</ele>
        <time>2018-07-22T12:07:47Z</time>
      </trkpt>
      <trkpt lat="42.3048510" lon="-0.4561380">
        <ele>1119.5</ele>
        <time>2018-07-22T12:07:49Z</time>
      </trkpt>
      <trkpt lat="42.3048560" lon="-0.4560780">
        <ele>1119.4</ele>
        <time>2018-07-22T12:07:51Z</time>
      </trkpt>
      <trkpt lat="42.3048340" lon="-0.4560510">
        <ele>1119.3</ele>
        <time>2018-07-22T12:07:53Z</time>
      </trkpt>
      <trkpt lat="42.3047960" lon="-0.4560470">
        <ele>1119.2</ele>
        <time>2018-07-22T12:07:57Z</time>
      </trkpt>
      <trkpt lat="42.3047670" lon="-0.4560410">
        <ele>1119.1</ele>
        <time>2018-07-22T12:08:00Z</time>
      </trkpt>
      <trkpt lat="42.3047420" lon="-0.4560000">
        <ele>1119.0</ele>
        <time>2018-07-22T12:08:02Z</time>
      </trkpt>
      <trkpt lat="42.3047580" lon="-0.4559450">
        <ele>1118.9</ele>
        <time>2018-07-22T12:08:04Z</time>
      </trkpt>
      <trkpt lat="42.3047820" lon="-0.4559100">
        <ele>1118.7</ele>
        <time>2018-07-22T12:08:06Z</time>
      </trkpt>
      <trkpt lat="42.3047810" lon="-0.4558630">
        <ele>1118.5</ele>
        <time>2018-07-22T12:08:08Z</time>
      </trkpt>
      <trkpt lat="42.3048030" lon="-0.4558110">
        <ele>1118.3</ele>
        <time>2018-07-22T12:08:10Z</time>
      </trkpt>
      <trkpt lat="42.3048150" lon="-0.4557780">
        <ele>1118.2</ele>
        <time>2018-07-22T12:08:11Z</time>
      </trkpt>
      <trkpt lat="42.3048510" lon="-0.4557450">
        <ele>1118.0</ele>
        <time>2018-07-22T12:08:13Z</time>
      </trkpt>
      <trkpt lat="42.3048790" lon="-0.4557270">
        <ele>1117.9</ele>
        <time>2018-07-22T12:08:15Z</time>
      </trkpt>
      <trkpt lat="42.3049080" lon="-0.4557170">
        <ele>1117.7</ele>
        <time>2018-07-22T12:08:16Z</time>
      </trkpt>
      <trkpt lat="42.3049180" lon="-0.4556810">
        <ele>1117.4</ele>
        <time>2018-07-22T12:08:20Z</time>
      </trkpt>
      <trkpt lat="42.3049040" lon="-0.4556300">
        <ele>1117.3</ele>
        <time>2018-07-22T12:08:23Z</time>
      </trkpt>
      <trkpt lat="42.3048930" lon="-0.4555860">
        <ele>1117.1</ele>
        <time>2018-07-22T12:08:26Z</time>
      </trkpt>
      <trkpt lat="42.3048420" lon="-0.4555550">
        <ele>1116.9</ele>
        <time>2018-07-22T12:08:31Z</time>
      </trkpt>
      <trkpt lat="42.3048340" lon="-0.4554890">
        <ele>1116.7</ele>
        <time>2018-07-22T12:08:38Z</time>
      </trkpt>
      <trkpt lat="42.3048190" lon="-0.4554470">
        <ele>1116.5</ele>
        <time>2018-07-22T12:08:40Z</time>
      </trkpt>
      <trkpt lat="42.3047940" lon="-0.4554230">
        <ele>1116.4</ele>
        <time>2018-07-22T12:08:42Z</time>
      </trkpt>
      <trkpt lat="42.3047630" lon="-0.4553960">
        <ele>1116.2</ele>
        <time>2018-07-22T12:08:45Z</time>
      </trkpt>
      <trkpt lat="42.3047470" lon="-0.4553450">
        <ele>1116.0</ele>
        <time>2018-07-22T12:08:48Z</time>
      </trkpt>
      <trkpt lat="42.3047380" lon="-0.4553040">
        <ele>1115.8</ele>
        <time>2018-07-22T12:08:50Z</time>
      </trkpt>
      <trkpt lat="42.3047330" lon="-0.4552640">
        <ele>1115.6</ele>
        <time>2018-07-22T12:08:53Z</time>
      </trkpt>
      <trkpt lat="42.3047410" lon="-0.4552220">
        <ele>1115.5</ele>
        <time>2018-07-22T12:08:56Z</time>
      </trkpt>
      <trkpt lat="42.3047230" lon="-0.4551740">
        <ele>1115.1</ele>
        <time>2018-07-22T12:08:58Z</time>
      </trkpt>
      <trkpt lat="42.3047050" lon="-0.4551410">
        <ele>1114.9</ele>
        <time>2018-07-22T12:09:00Z</time>
      </trkpt>
      <trkpt lat="42.3046830" lon="-0.4551050">
        <ele>1114.7</ele>
        <time>2018-07-22T12:09:02Z</time>
      </trkpt>
      <trkpt lat="42.3046810" lon="-0.4550670">
        <ele>1114.6</ele>
        <time>2018-07-22T12:09:04Z</time>
      </trkpt>
      <trkpt lat="42.3046940" lon="-0.4550310">
        <ele>1114.4</ele>
        <time>2018-07-22T12:09:06Z</time>
      </trkpt>
      <trkpt lat="42.3046910" lon="-0.4549890">
        <ele>1114.3</ele>
        <time>2018-07-22T12:09:08Z</time>
      </trkpt>
      <trkpt lat="42.3046730" lon="-0.4549560">
        <ele>1114.1</ele>
        <time>2018-07-22T12:09:11Z</time>
      </trkpt>
      <trkpt lat="42.3046630" lon="-0.4549160">
        <ele>1114.0</ele>
        <time>2018-07-22T12:09:14Z</time>
      </trkpt>
      <trkpt lat="42.3046550" lon="-0.4548770">
        <ele>1113.8</ele>
        <time>2018-07-22T12:09:16Z</time>
      </trkpt>
      <trkpt lat="42.3046590" lon="-0.4548390">
        <ele>1113.7</ele>
        <time>2018-07-22T12:09:19Z</time>
      </trkpt>
      <trkpt lat="42.3046680" lon="-0.4547910">
        <ele>1113.5</ele>
        <time>2018-07-22T12:09:23Z</time>
      </trkpt>
      <trkpt lat="42.3046590" lon="-0.4547560">
        <ele>1113.3</ele>
        <time>2018-07-22T12:09:25Z</time>
      </trkpt>
      <trkpt lat="42.3046650" lon="-0.4547150">
        <ele>1113.0</ele>
        <time>2018-07-22T12:09:28Z</time>
      </trkpt>
      <trkpt lat="42.3046550" lon="-0.4546810">
        <ele>1112.8</ele>
        <time>2018-07-22T12:09:31Z</time>
      </trkpt>
      <trkpt lat="42.3046370" lon="-0.4546460">
        <ele>1112.7</ele>
        <time>2018-07-22T12:09:34Z</time>
      </trkpt>
      <trkpt lat="42.3046110" lon="-0.4546260">
        <ele>1112.6</ele>
        <time>2018-07-22T12:09:37Z</time>
      </trkpt>
      <trkpt lat="42.3045880" lon="-0.4545850">
        <ele>1112.4</ele>
        <time>2018-07-22T12:09:40Z</time>
      </trkpt>
      <trkpt lat="42.3045720" lon="-0.4545350">
        <ele>1112.3</ele>
        <time>2018-07-22T12:09:42Z</time>
      </trkpt>
      <trkpt lat="42.3045800" lon="-0.4544920">
        <ele>1112.1</ele>
        <time>2018-07-22T12:09:44Z</time>
      </trkpt>
      <trkpt lat="42.3045710" lon="-0.4544360">
        <ele>1112.0</ele>
        <time>2018-07-22T12:09:47Z</time>
      </trkpt>
      <trkpt lat="42.3045540" lon="-0.4544040">
        <ele>1111.9</ele>
        <time>2018-07-22T12:09:50Z</time>
      </trkpt>
      <trkpt lat="42.3045550" lon="-0.4543660">
        <ele>1111.7</ele>
        <time>2018-07-22T12:09:54Z</time>
      </trkpt>
      <trkpt lat="42.3045560" lon="-0.4543170">
        <ele>1111.4</ele>
        <time>2018-07-22T12:09:58Z</time>
      </trkpt>
      <trkpt lat="42.3045560" lon="-0.4542620">
        <ele>1111.2</ele>
        <time>2018-07-22T12:10:01Z</time>
      </trkpt>
      <trkpt lat="42.3045500" lon="-0.4542200">
        <ele>1111.0</ele>
        <time>2018-07-22T12:10:04Z</time>
      </trkpt>
      <trkpt lat="42.3045360" lon="-0.4541810">
        <ele>1110.9</ele>
        <time>2018-07-22T12:10:07Z</time>
      </trkpt>
      <trkpt lat="42.3045310" lon="-0.4541240">
        <ele>1110.7</ele>
        <time>2018-07-22T12:10:10Z</time>
      </trkpt>
      <trkpt lat="42.3045160" lon="-0.4540820">
        <ele>1110.5</ele>
        <time>2018-07-22T12:10:13Z</time>
      </trkpt>
      <trkpt lat="42.3044930" lon="-0.4540450">
        <ele>1110.4</ele>
        <time>2018-07-22T12:10:15Z</time>
      </trkpt>
      <trkpt lat="42.3044980" lon="-0.4540010">
        <ele>1110.2</ele>
        <time>2018-07-22T12:10:17Z</time>
      </trkpt>
      <trkpt lat="42.3045240" lon="-0.4539610">
        <ele>1109.9</ele>
        <time>2018-07-22T12:10:19Z</time>
      </trkpt>
      <trkpt lat="42.3045410" lon="-0.4539230">
        <ele>1109.8</ele>
        <time>2018-07-22T12:10:21Z</time>
      </trkpt>
      <trkpt lat="42.3045520" lon="-0.4538710">
        <ele>1109.5</ele>
        <time>2018-07-22T12:10:27Z</time>
      </trkpt>
      <trkpt lat="42.3045280" lon="-0.4538450">
        <ele>1109.4</ele>
        <time>2018-07-22T12:10:30Z</time>
      </trkpt>
      <trkpt lat="42.3045080" lon="-0.4538190">
        <ele>1109.2</ele>
        <time>2018-07-22T12:10:32Z</time>
      </trkpt>
      <trkpt lat="42.3044740" lon="-0.4537580">
        <ele>1108.9</ele>
        <time>2018-07-22T12:10:34Z</time>
      </trkpt>
      <trkpt lat="42.3044540" lon="-0.4537260">
        <ele>1108.7</ele>
        <time>2018-07-22T12:10:36Z</time>
      </trkpt>
      <trkpt lat="42.3044190" lon="-0.4536670">
        <ele>1108.3</ele>
        <time>2018-07-22T12:10:38Z</time>
      </trkpt>
      <trkpt lat="42.3044150" lon="-0.4536210">
        <ele>1108.1</ele>
        <time>2018-07-22T12:10:40Z</time>
      </trkpt>
      <trkpt lat="42.3043970" lon="-0.4535830">
        <ele>1107.9</ele>
        <time>2018-07-22T12:10:45Z</time>
      </trkpt>
      <trkpt lat="42.3043880" lon="-0.4535460">
        <ele>1107.7</ele>
        <time>2018-07-22T12:10:47Z</time>
      </trkpt>
      <trkpt lat="42.3043700" lon="-0.4535060">
        <ele>1107.6</ele>
        <time>2018-07-22T12:10:51Z</time>
      </trkpt>
      <trkpt lat="42.3043540" lon="-0.4534650">
        <ele>1107.4</ele>
        <time>2018-07-22T12:10:54Z</time>
      </trkpt>
      <trkpt lat="42.3043550" lon="-0.4534250">
        <ele>1107.3</ele>
        <time>2018-07-22T12:10:56Z</time>
      </trkpt>
      <trkpt lat="42.3043660" lon="-0.4533790">
        <ele>1107.1</ele>
        <time>2018-07-22T12:10:59Z</time>
      </trkpt>
      <trkpt lat="42.3043890" lon="-0.4533500">
        <ele>1106.9</ele>
        <time>2018-07-22T12:11:01Z</time>
      </trkpt>
      <trkpt lat="42.3044140" lon="-0.4533110">
        <ele>1106.7</ele>
        <time>2018-07-22T12:11:03Z</time>
      </trkpt>
      <trkpt lat="42.3044290" lon="-0.4532680">
        <ele>1106.5</ele>
        <time>2018-07-22T12:11:06Z</time>
      </trkpt>
      <trkpt lat="42.3044260" lon="-0.4532270">
        <ele>1106.3</ele>
        <time>2018-07-22T12:11:09Z</time>
      </trkpt>
      <trkpt lat="42.3044020" lon="-0.4532090">
        <ele>1106.0</ele>
        <time>2018-07-22T12:11:11Z</time>
      </trkpt>
      <trkpt lat="42.3043780" lon="-0.4531870">
        <ele>1105.8</ele>
        <time>2018-07-22T12:11:13Z</time>
      </trkpt>
      <trkpt lat="42.3043540" lon="-0.4531570">
        <ele>1105.6</ele>
        <time>2018-07-22T12:11:16Z</time>
      </trkpt>
      <trkpt lat="42.3043420" lon="-0.4531160">
        <ele>1105.4</ele>
        <time>2018-07-22T12:11:20Z</time>
      </trkpt>
      <trkpt lat="42.3043480" lon="-0.4530790">
        <ele>1105.3</ele>
        <time>2018-07-22T12:11:23Z</time>
      </trkpt>
      <trkpt lat="42.3043660" lon="-0.4530460">
        <ele>1105.1</ele>
        <time>2018-07-22T12:11:26Z</time>
      </trkpt>
      <trkpt lat="42.3043690" lon="-0.4530040">
        <ele>1104.9</ele>
        <time>2018-07-22T12:11:29Z</time>
      </trkpt>
      <trkpt lat="42.3043570" lon="-0.4529630">
        <ele>1104.7</ele>
        <time>2018-07-22T12:11:32Z</time>
      </trkpt>
      <trkpt lat="42.3043610" lon="-0.4529140">
        <ele>1104.4</ele>
        <time>2018-07-22T12:11:36Z</time>
      </trkpt>
      <trkpt lat="42.3043560" lon="-0.4528700">
        <ele>1104.2</ele>
        <time>2018-07-22T12:11:39Z</time>
      </trkpt>
      <trkpt lat="42.3043750" lon="-0.4528190">
        <ele>1104.0</ele>
        <time>2018-07-22T12:11:42Z</time>
      </trkpt>
      <trkpt lat="42.3043770" lon="-0.4527800">
        <ele>1103.8</ele>
        <time>2018-07-22T12:11:44Z</time>
      </trkpt>
      <trkpt lat="42.3043690" lon="-0.4527380">
        <ele>1103.6</ele>
        <time>2018-07-22T12:11:49Z</time>
      </trkpt>
      <trkpt lat="42.3043630" lon="-0.4526900">
        <ele>1103.5</ele>
        <time>2018-07-22T12:11:53Z</time>
      </trkpt>
      <trkpt lat="42.3043530" lon="-0.4526480">
        <ele>1103.3</ele>
        <time>2018-07-22T12:11:55Z</time>
      </trkpt>
      <trkpt lat="42.3043410" lon="-0.4526140">
        <ele>1103.2</ele>
        <time>2018-07-22T12:11:57Z</time>
      </trkpt>
      <trkpt lat="42.3043450" lon="-0.4525740">
        <ele>1103.1</ele>
        <time>2018-07-22T12:12:00Z</time>
      </trkpt>
      <trkpt lat="42.3043680" lon="-0.4525500">
        <ele>1103.0</ele>
        <time>2018-07-22T12:12:02Z</time>
      </trkpt>
      <trkpt lat="42.3043930" lon="-0.4525240">
        <ele>1102.8</ele>
        <time>2018-07-22T12:12:06Z</time>
      </trkpt>
      <trkpt lat="42.3043610" lon="-0.4524960">
        <ele>1102.7</ele>
        <time>2018-07-22T12:12:09Z</time>
      </trkpt>
      <trkpt lat="42.3043390" lon="-0.4524700">
        <ele>1102.5</ele>
        <time>2018-07-22T12:12:13Z</time>
      </trkpt>
      <trkpt lat="42.3043320" lon="-0.4524280">
        <ele>1102.4</ele>
        <time>2018-07-22T12:12:16Z</time>
      </trkpt>
      <trkpt lat="42.3043360" lon="-0.4523800">
        <ele>1102.3</ele>
        <time>2018-07-22T12:12:18Z</time>
      </trkpt>
      <trkpt lat="42.3043250" lon="-0.4523360">
        <ele>1102.1</ele>
        <time>2018-07-22T12:12:21Z</time>
      </trkpt>
      <trkpt lat="42.3042960" lon="-0.4523160">
        <ele>1101.9</ele>
        <time>2018-07-22T12:12:23Z</time>
      </trkpt>
      <trkpt lat="42.3042700" lon="-0.4522900">
        <ele>1101.7</ele>
        <time>2018-07-22T12:12:27Z</time>
      </trkpt>
      <trkpt lat="42.3042590" lon="-0.4522500">
        <ele>1101.5</ele>
        <time>2018-07-22T12:12:31Z</time>
      </trkpt>
      <trkpt lat="42.3042480" lon="-0.4522080">
        <ele>1101.3</ele>
        <time>2018-07-22T12:12:34Z</time>
      </trkpt>
      <trkpt lat="42.3042330" lon="-0.4521690">
        <ele>1101.1</ele>
        <time>2018-07-22T12:12:37Z</time>
      </trkpt>
      <trkpt lat="42.3042230" lon="-0.4521130">
        <ele>1100.9</ele>
        <time>2018-07-22T12:12:40Z</time>
      </trkpt>
      <trkpt lat="42.3042200" lon="-0.4520670">
        <ele>1100.7</ele>
        <time>2018-07-22T12:12:42Z</time>
      </trkpt>
      <trkpt lat="42.3042110" lon="-0.4520210">
        <ele>1100.6</ele>
        <time>2018-07-22T12:12:44Z</time>
      </trkpt>
      <trkpt lat="42.3042050" lon="-0.4519780">
        <ele>1100.4</ele>
        <time>2018-07-22T12:12:49Z</time>
      </trkpt>
      <trkpt lat="42.3041760" lon="-0.4519500">
        <ele>1100.1</ele>
        <time>2018-07-22T12:12:50Z</time>
      </trkpt>
      <trkpt lat="42.3041570" lon="-0.4519050">
        <ele>1099.9</ele>
        <time>2018-07-22T12:12:53Z</time>
      </trkpt>
      <trkpt lat="42.3041760" lon="-0.4518710">
        <ele>1099.8</ele>
        <time>2018-07-22T12:12:54Z</time>
      </trkpt>
      <trkpt lat="42.3041990" lon="-0.4518410">
        <ele>1099.7</ele>
        <time>2018-07-22T12:12:59Z</time>
      </trkpt>
      <trkpt lat="42.3041920" lon="-0.4518030">
        <ele>1099.6</ele>
        <time>2018-07-22T12:13:05Z</time>
      </trkpt>
      <trkpt lat="42.3041830" lon="-0.4517520">
        <ele>1099.4</ele>
        <time>2018-07-22T12:13:10Z</time>
      </trkpt>
      <trkpt lat="42.3041760" lon="-0.4517070">
        <ele>1099.3</ele>
        <time>2018-07-22T12:13:12Z</time>
      </trkpt>
      <trkpt lat="42.3041680" lon="-0.4516610">
        <ele>1099.2</ele>
        <time>2018-07-22T12:13:20Z</time>
      </trkpt>
      <trkpt lat="42.3041510" lon="-0.4516270">
        <ele>1099.0</ele>
        <time>2018-07-22T12:13:21Z</time>
      </trkpt>
      <trkpt lat="42.3041410" lon="-0.4515880">
        <ele>1098.9</ele>
        <time>2018-07-22T12:13:23Z</time>
      </trkpt>
      <trkpt lat="42.3041190" lon="-0.4515470">
        <ele>1098.7</ele>
        <time>2018-07-22T12:13:26Z</time>
      </trkpt>
      <trkpt lat="42.3040940" lon="-0.4515310">
        <ele>1098.5</ele>
        <time>2018-07-22T12:13:29Z</time>
      </trkpt>
      <trkpt lat="42.3040680" lon="-0.4515120">
        <ele>1098.4</ele>
        <time>2018-07-22T12:13:32Z</time>
      </trkpt>
      <trkpt lat="42.3040380" lon="-0.4515090">
        <ele>1098.4</ele>
        <time>2018-07-22T12:13:36Z</time>
      </trkpt>
      <trkpt lat="42.3040140" lon="-0.4514870">
        <ele>1098.3</ele>
        <time>2018-07-22T12:13:39Z</time>
      </trkpt>
      <trkpt lat="42.3040060" lon="-0.4514380">
        <ele>1098.2</ele>
        <time>2018-07-22T12:13:43Z</time>
      </trkpt>
      <trkpt lat="42.3039960" lon="-0.4513950">
        <ele>1098.0</ele>
        <time>2018-07-22T12:13:45Z</time>
      </trkpt>
      <trkpt lat="42.3039680" lon="-0.4513500">
        <ele>1097.9</ele>
        <time>2018-07-22T12:13:48Z</time>
      </trkpt>
      <trkpt lat="42.3039480" lon="-0.4513050">
        <ele>1097.8</ele>
        <time>2018-07-22T12:13:51Z</time>
      </trkpt>
      <trkpt lat="42.3039480" lon="-0.4512630">
        <ele>1097.7</ele>
        <time>2018-07-22T12:13:53Z</time>
      </trkpt>
      <trkpt lat="42.3039540" lon="-0.4512140">
        <ele>1097.6</ele>
        <time>2018-07-22T12:13:55Z</time>
      </trkpt>
      <trkpt lat="42.3039590" lon="-0.4511680">
        <ele>1097.5</ele>
        <time>2018-07-22T12:13:58Z</time>
      </trkpt>
      <trkpt lat="42.3039660" lon="-0.4511260">
        <ele>1097.5</ele>
        <time>2018-07-22T12:14:01Z</time>
      </trkpt>
      <trkpt lat="42.3039800" lon="-0.4510840">
        <ele>1097.4</ele>
        <time>2018-07-22T12:14:05Z</time>
      </trkpt>
      <trkpt lat="42.3039770" lon="-0.4510440">
        <ele>1097.4</ele>
        <time>2018-07-22T12:14:10Z</time>
      </trkpt>
      <trkpt lat="42.3039500" lon="-0.4510300">
        <ele>1097.3</ele>
        <time>2018-07-22T12:14:17Z</time>
      </trkpt>
      <trkpt lat="42.3039680" lon="-0.4509950">
        <ele>1097.3</ele>
        <time>2018-07-22T12:14:19Z</time>
      </trkpt>
      <trkpt lat="42.3039990" lon="-0.4509620">
        <ele>1097.2</ele>
        <time>2018-07-22T12:14:20Z</time>
      </trkpt>
      <trkpt lat="42.3040180" lon="-0.4509350">
        <ele>1097.2</ele>
        <time>2018-07-22T12:14:22Z</time>
      </trkpt>
      <trkpt lat="42.3040320" lon="-0.4508920">
        <ele>1097.1</ele>
        <time>2018-07-22T12:14:26Z</time>
      </trkpt>
      <trkpt lat="42.3040450" lon="-0.4508490">
        <ele>1097.1</ele>
        <time>2018-07-22T12:14:29Z</time>
      </trkpt>
      <trkpt lat="42.3040390" lon="-0.4508050">
        <ele>1097.0</ele>
        <time>2018-07-22T12:14:33Z</time>
      </trkpt>
      <trkpt lat="42.3040390" lon="-0.4507640">
        <ele>1097.0</ele>
        <time>2018-07-22T12:14:36Z</time>
      </trkpt>
      <trkpt lat="42.3040350" lon="-0.4507270">
        <ele>1096.9</ele>
        <time>2018-07-22T12:14:38Z</time>
      </trkpt>
      <trkpt lat="42.3040240" lon="-0.4506930">
        <ele>1096.9</ele>
        <time>2018-07-22T12:14:40Z</time>
      </trkpt>
      <trkpt lat="42.3040200" lon="-0.4506430">
        <ele>1096.8</ele>
        <time>2018-07-22T12:14:43Z</time>
      </trkpt>
      <trkpt lat="42.3040200" lon="-0.4505950">
        <ele>1096.8</ele>
        <time>2018-07-22T12:14:45Z</time>
      </trkpt>
      <trkpt lat="42.3040230" lon="-0.4505430">
        <ele>1096.7</ele>
        <time>2018-07-22T12:14:48Z</time>
      </trkpt>
      <trkpt lat="42.3040190" lon="-0.4505060">
        <ele>1096.6</ele>
        <time>2018-07-22T12:14:52Z</time>
      </trkpt>
      <trkpt lat="42.3040050" lon="-0.4504590">
        <ele>1096.5</ele>
        <time>2018-07-22T12:14:55Z</time>
      </trkpt>
      <trkpt lat="42.3040000" lon="-0.4504130">
        <ele>1096.5</ele>
        <time>2018-07-22T12:14:57Z</time>
      </trkpt>
      <trkpt lat="42.3039820" lon="-0.4503680">
        <ele>1096.4</ele>
        <time>2018-07-22T12:15:00Z</time>
      </trkpt>
      <trkpt lat="42.3039670" lon="-0.4503340">
        <ele>1096.4</ele>
        <time>2018-07-22T12:15:03Z</time>
      </trkpt>
      <trkpt lat="42.3039620" lon="-0.4502850">
        <ele>1096.3</ele>
        <time>2018-07-22T12:15:07Z</time>
      </trkpt>
      <trkpt lat="42.3039610" lon="-0.4502390">
        <ele>1096.3</ele>
        <time>2018-07-22T12:15:11Z</time>
      </trkpt>
      <trkpt lat="42.3039690" lon="-0.4502050">
        <ele>1096.3</ele>
        <time>2018-07-22T12:15:13Z</time>
      </trkpt>
      <trkpt lat="42.3039860" lon="-0.4501610">
        <ele>1096.2</ele>
        <time>2018-07-22T12:15:15Z</time>
      </trkpt>
      <trkpt lat="42.3040030" lon="-0.4501300">
        <ele>1096.2</ele>
        <time>2018-07-22T12:15:25Z</time>
      </trkpt>
      <trkpt lat="42.3039900" lon="-0.4500880">
        <ele>1096.2</ele>
        <time>2018-07-22T12:15:27Z</time>
      </trkpt>
      <trkpt lat="42.3039740" lon="-0.4500580">
        <ele>1096.2</ele>
        <time>2018-07-22T12:15:29Z</time>
      </trkpt>
      <trkpt lat="42.3039540" lon="-0.4500240">
        <ele>1096.2</ele>
        <time>2018-07-22T12:15:31Z</time>
      </trkpt>
      <trkpt lat="42.3039220" lon="-0.4499880">
        <ele>1096.2</ele>
        <time>2018-07-22T12:15:34Z</time>
      </trkpt>
      <trkpt lat="42.3038830" lon="-0.4499710">
        <ele>1096.2</ele>
        <time>2018-07-22T12:15:37Z</time>
      </trkpt>
      <trkpt lat="42.3038630" lon="-0.4499320">
        <ele>1096.2</ele>
        <time>2018-07-22T12:15:39Z</time>
      </trkpt>
      <trkpt lat="42.3038520" lon="-0.4498960">
        <ele>1096.2</ele>
        <time>2018-07-22T12:15:41Z</time>
      </trkpt>
      <trkpt lat="42.3038350" lon="-0.4498510">
        <ele>1096.1</ele>
        <time>2018-07-22T12:15:43Z</time>
      </trkpt>
      <trkpt lat="42.3038350" lon="-0.4497960">
        <ele>1096.1</ele>
        <time>2018-07-22T12:15:45Z</time>
      </trkpt>
      <trkpt lat="42.3038400" lon="-0.4497470">
        <ele>1096.1</ele>
        <time>2018-07-22T12:15:48Z</time>
      </trkpt>
      <trkpt lat="42.3038410" lon="-0.4497080">
        <ele>1096.1</ele>
        <time>2018-07-22T12:15:50Z</time>
      </trkpt>
      <trkpt lat="42.3038630" lon="-0.4496800">
        <ele>1096.1</ele>
        <time>2018-07-22T12:15:52Z</time>
      </trkpt>
      <trkpt lat="42.3038730" lon="-0.4496460">
        <ele>1096.1</ele>
        <time>2018-07-22T12:15:54Z</time>
      </trkpt>
      <trkpt lat="42.3038640" lon="-0.4496010">
        <ele>1096.0</ele>
        <time>2018-07-22T12:15:58Z</time>
      </trkpt>
      <trkpt lat="42.3038590" lon="-0.4495640">
        <ele>1096.0</ele>
        <time>2018-07-22T12:16:01Z</time>
      </trkpt>
      <trkpt lat="42.3038400" lon="-0.4495190">
        <ele>1096.0</ele>
        <time>2018-07-22T12:16:05Z</time>
      </trkpt>
      <trkpt lat="42.3038100" lon="-0.4494850">
        <ele>1095.9</ele>
        <time>2018-07-22T12:16:08Z</time>
      </trkpt>
      <trkpt lat="42.3037890" lon="-0.4494500">
        <ele>1095.8</ele>
        <time>2018-07-22T12:16:11Z</time>
      </trkpt>
      <trkpt lat="42.3037890" lon="-0.4493950">
        <ele>1095.7</ele>
        <time>2018-07-22T12:16:14Z</time>
      </trkpt>
      <trkpt lat="42.3037910" lon="-0.4493500">
        <ele>1095.7</ele>
        <time>2018-07-22T12:16:16Z</time>
      </trkpt>
      <trkpt lat="42.3037980" lon="-0.4493090">
        <ele>1095.6</ele>
        <time>2018-07-22T12:16:18Z</time>
      </trkpt>
      <trkpt lat="42.3037980" lon="-0.4492600">
        <ele>1095.5</ele>
        <time>2018-07-22T12:16:21Z</time>
      </trkpt>
      <trkpt lat="42.3037920" lon="-0.4492140">
        <ele>1095.4</ele>
        <time>2018-07-22T12:16:24Z</time>
      </trkpt>
      <trkpt lat="42.3037820" lon="-0.4491650">
        <ele>1095.4</ele>
        <time>2018-07-22T12:16:27Z</time>
      </trkpt>
      <trkpt lat="42.3037810" lon="-0.4491280">
        <ele>1095.3</ele>
        <time>2018-07-22T12:16:30Z</time>
      </trkpt>
      <trkpt lat="42.3037910" lon="-0.4490860">
        <ele>1095.3</ele>
        <time>2018-07-22T12:16:33Z</time>
      </trkpt>
      <trkpt lat="42.3037690" lon="-0.4490640">
        <ele>1095.2</ele>
        <time>2018-07-22T12:16:45Z</time>
      </trkpt>
      <trkpt lat="42.3037640" lon="-0.4490140">
        <ele>1095.1</ele>
        <time>2018-07-22T12:16:47Z</time>
      </trkpt>
      <trkpt lat="42.3037560" lon="-0.4489790">
        <ele>1095.1</ele>
        <time>2018-07-22T12:16:50Z</time>
      </trkpt>
      <trkpt lat="42.3037770" lon="-0.4489230">
        <ele>1095.0</ele>
        <time>2018-07-22T12:16:53Z</time>
      </trkpt>
      <trkpt lat="42.3037900" lon="-0.4488880">
        <ele>1094.9</ele>
        <time>2018-07-22T12:16:55Z</time>
      </trkpt>
      <trkpt lat="42.3037940" lon="-0.4488480">
        <ele>1094.8</ele>
        <time>2018-07-22T12:16:58Z</time>
      </trkpt>
      <trkpt lat="42.3038030" lon="-0.4488040">
        <ele>1094.7</ele>
        <time>2018-07-22T12:17:00Z</time>
      </trkpt>
      <trkpt lat="42.3037990" lon="-0.4487580">
        <ele>1094.6</ele>
        <time>2018-07-22T12:17:03Z</time>
      </trkpt>
      <trkpt lat="42.3037750" lon="-0.4487260">
        <ele>1094.6</ele>
        <time>2018-07-22T12:17:06Z</time>
      </trkpt>
      <trkpt lat="42.3037470" lon="-0.4486970">
        <ele>1094.5</ele>
        <time>2018-07-22T12:17:09Z</time>
      </trkpt>
      <trkpt lat="42.3037270" lon="-0.4486640">
        <ele>1094.3</ele>
        <time>2018-07-22T12:17:12Z</time>
      </trkpt>
      <trkpt lat="42.3037190" lon="-0.4486230">
        <ele>1094.2</ele>
        <time>2018-07-22T12:17:14Z</time>
      </trkpt>
      <trkpt lat="42.3037220" lon="-0.4485830">
        <ele>1094.1</ele>
        <time>2018-07-22T12:17:18Z</time>
      </trkpt>
      <trkpt lat="42.3037010" lon="-0.4485570">
        <ele>1094.0</ele>
        <time>2018-07-22T12:17:21Z</time>
      </trkpt>
      <trkpt lat="42.3036990" lon="-0.4485200">
        <ele>1094.0</ele>
        <time>2018-07-22T12:17:24Z</time>
      </trkpt>
      <trkpt lat="42.3036940" lon="-0.4484730">
        <ele>1093.9</ele>
        <time>2018-07-22T12:17:27Z</time>
      </trkpt>
      <trkpt lat="42.3036900" lon="-0.4484240">
        <ele>1093.8</ele>
        <time>2018-07-22T12:17:30Z</time>
      </trkpt>
      <trkpt lat="42.3036900" lon="-0.4483870">
        <ele>1093.7</ele>
        <time>2018-07-22T12:17:33Z</time>
      </trkpt>
      <trkpt lat="42.3036820" lon="-0.4483370">
        <ele>1093.6</ele>
        <time>2018-07-22T12:17:36Z</time>
      </trkpt>
      <trkpt lat="42.3036640" lon="-0.4483020">
        <ele>1093.6</ele>
        <time>2018-07-22T12:17:38Z</time>
      </trkpt>
      <trkpt lat="42.3036420" lon="-0.4482670">
        <ele>1093.5</ele>
        <time>2018-07-22T12:17:40Z</time>
      </trkpt>
      <trkpt lat="42.3036210" lon="-0.4482350">
        <ele>1093.4</ele>
        <time>2018-07-22T12:17:43Z</time>
      </trkpt>
      <trkpt lat="42.3035880" lon="-0.4482050">
        <ele>1093.3</ele>
        <time>2018-07-22T12:17:46Z</time>
      </trkpt>
      <trkpt lat="42.3035640" lon="-0.4481700">
        <ele>1093.2</ele>
        <time>2018-07-22T12:17:49Z</time>
      </trkpt>
      <trkpt lat="42.3035660" lon="-0.4481300">
        <ele>1093.2</ele>
        <time>2018-07-22T12:17:51Z</time>
      </trkpt>
      <trkpt lat="42.3035780" lon="-0.4480930">
        <ele>1093.1</ele>
        <time>2018-07-22T12:17:53Z</time>
      </trkpt>
      <trkpt lat="42.3035950" lon="-0.4480520">
        <ele>1093.1</ele>
        <time>2018-07-22T12:17:56Z</time>
      </trkpt>
      <trkpt lat="42.3036070" lon="-0.4480090">
        <ele>1093.1</ele>
        <time>2018-07-22T12:17:58Z</time>
      </trkpt>
      <trkpt lat="42.3036100" lon="-0.4479630">
        <ele>1093.1</ele>
        <time>2018-07-22T12:18:01Z</time>
      </trkpt>
      <trkpt lat="42.3036470" lon="-0.4479550">
        <ele>1093.1</ele>
        <time>2018-07-22T12:18:12Z</time>
      </trkpt>
      <trkpt lat="42.3036770" lon="-0.4479610">
        <ele>1093.1</ele>
        <time>2018-07-22T12:18:16Z</time>
      </trkpt>
      <trkpt lat="42.3037080" lon="-0.4479640">
        <ele>1093.1</ele>
        <time>2018-07-22T12:18:18Z</time>
      </trkpt>
      <trkpt lat="42.3037140" lon="-0.4479250">
        <ele>1093.2</ele>
        <time>2018-07-22T12:18:33Z</time>
      </trkpt>
      <trkpt lat="42.3037110" lon="-0.4478700">
        <ele>1093.2</ele>
        <time>2018-07-22T12:18:35Z</time>
      </trkpt>
      <trkpt lat="42.3037110" lon="-0.4478300">
        <ele>1093.2</ele>
        <time>2018-07-22T12:18:37Z</time>
      </trkpt>
      <trkpt lat="42.3036960" lon="-0.4477700">
        <ele>1093.3</ele>
        <time>2018-07-22T12:18:39Z</time>
      </trkpt>
      <trkpt lat="42.3036830" lon="-0.4477280">
        <ele>1093.4</ele>
        <time>2018-07-22T12:18:41Z</time>
      </trkpt>
      <trkpt lat="42.3036700" lon="-0.4476870">
        <ele>1093.4</ele>
        <time>2018-07-22T12:18:44Z</time>
      </trkpt>
      <trkpt lat="42.3036550" lon="-0.4476530">
        <ele>1093.4</ele>
        <time>2018-07-22T12:18:46Z</time>
      </trkpt>
      <trkpt lat="42.3035940" lon="-0.4476550">
        <ele>1093.5</ele>
        <time>2018-07-22T12:18:48Z</time>
      </trkpt>
      <trkpt lat="42.3035860" lon="-0.4476200">
        <ele>1093.5</ele>
        <time>2018-07-22T12:18:50Z</time>
      </trkpt>
      <trkpt lat="42.3035700" lon="-0.4475870">
        <ele>1093.6</ele>
        <time>2018-07-22T12:18:53Z</time>
      </trkpt>
      <trkpt lat="42.3035450" lon="-0.4475630">
        <ele>1093.6</ele>
        <time>2018-07-22T12:18:57Z</time>
      </trkpt>
      <trkpt lat="42.3035540" lon="-0.4475230">
        <ele>1093.6</ele>
        <time>2018-07-22T12:19:01Z</time>
      </trkpt>
      <trkpt lat="42.3035590" lon="-0.4474770">
        <ele>1093.6</ele>
        <time>2018-07-22T12:19:05Z</time>
      </trkpt>
      <trkpt lat="42.3035650" lon="-0.4474380">
        <ele>1093.7</ele>
        <time>2018-07-22T12:19:08Z</time>
      </trkpt>
      <trkpt lat="42.3035850" lon="-0.4473860">
        <ele>1093.7</ele>
        <time>2018-07-22T12:19:11Z</time>
      </trkpt>
      <trkpt lat="42.3035840" lon="-0.4473430">
        <ele>1093.7</ele>
        <time>2018-07-22T12:19:13Z</time>
      </trkpt>
      <trkpt lat="42.3035780" lon="-0.4473010">
        <ele>1093.8</ele>
        <time>2018-07-22T12:19:15Z</time>
      </trkpt>
      <trkpt lat="42.3035660" lon="-0.4472680">
        <ele>1093.8</ele>
        <time>2018-07-22T12:19:17Z</time>
      </trkpt>
      <trkpt lat="42.3035660" lon="-0.4472280">
        <ele>1093.8</ele>
        <time>2018-07-22T12:19:19Z</time>
      </trkpt>
      <trkpt lat="42.3035730" lon="-0.4471910">
        <ele>1093.8</ele>
        <time>2018-07-22T12:19:21Z</time>
      </trkpt>
      <trkpt lat="42.3035820" lon="-0.4471400">
        <ele>1093.8</ele>
        <time>2018-07-22T12:19:23Z</time>
      </trkpt>
      <trkpt lat="42.3035950" lon="-0.4470900">
        <ele>1093.9</ele>
        <time>2018-07-22T12:19:25Z</time>
      </trkpt>
      <trkpt lat="42.3035850" lon="-0.4470500">
        <ele>1093.9</ele>
        <time>2018-07-22T12:19:30Z</time>
      </trkpt>
      <trkpt lat="42.3035850" lon="-0.4470080">
        <ele>1093.9</ele>
        <time>2018-07-22T12:19:33Z</time>
      </trkpt>
      <trkpt lat="42.3035910" lon="-0.4469720">
        <ele>1093.9</ele>
        <time>2018-07-22T12:19:35Z</time>
      </trkpt>
      <trkpt lat="42.3035970" lon="-0.4469130">
        <ele>1094.0</ele>
        <time>2018-07-22T12:19:37Z</time>
      </trkpt>
      <trkpt lat="42.3036240" lon="-0.4468370">
        <ele>1094.0</ele>
        <time>2018-07-22T12:19:39Z</time>
      </trkpt>
      <trkpt lat="42.3036150" lon="-0.4467830">
        <ele>1094.0</ele>
        <time>2018-07-22T12:19:41Z</time>
      </trkpt>
      <trkpt lat="42.3036340" lon="-0.4467510">
        <ele>1094.0</ele>
        <time>2018-07-22T12:19:43Z</time>
      </trkpt>
      <trkpt lat="42.3036450" lon="-0.4467140">
        <ele>1093.9</ele>
        <time>2018-07-22T12:19:47Z</time>
      </trkpt>
      <trkpt lat="42.3036720" lon="-0.4466880">
        <ele>1093.9</ele>
        <time>2018-07-22T12:19:50Z</time>
      </trkpt>
      <trkpt lat="42.3036930" lon="-0.4466400">
        <ele>1093.9</ele>
        <time>2018-07-22T12:19:56Z</time>
      </trkpt>
      <trkpt lat="42.3037140" lon="-0.4466150">
        <ele>1093.9</ele>
        <time>2018-07-22T12:19:59Z</time>
      </trkpt>
      <trkpt lat="42.3037090" lon="-0.4465570">
        <ele>1093.8</ele>
        <time>2018-07-22T12:20:07Z</time>
      </trkpt>
      <trkpt lat="42.3037080" lon="-0.4465180">
        <ele>1093.8</ele>
        <time>2018-07-22T12:20:09Z</time>
      </trkpt>
      <trkpt lat="42.3036890" lon="-0.4464820">
        <ele>1093.7</ele>
        <time>2018-07-22T12:20:12Z</time>
      </trkpt>
      <trkpt lat="42.3036790" lon="-0.4464420">
        <ele>1093.7</ele>
        <time>2018-07-22T12:20:14Z</time>
      </trkpt>
      <trkpt lat="42.3036480" lon="-0.4463950">
        <ele>1093.6</ele>
        <time>2018-07-22T12:20:16Z</time>
      </trkpt>
      <trkpt lat="42.3036050" lon="-0.4463710">
        <ele>1093.5</ele>
        <time>2018-07-22T12:20:19Z</time>
      </trkpt>
      <trkpt lat="42.3035880" lon="-0.4463130">
        <ele>1093.4</ele>
        <time>2018-07-22T12:20:22Z</time>
      </trkpt>
      <trkpt lat="42.3035610" lon="-0.4462890">
        <ele>1093.4</ele>
        <time>2018-07-22T12:20:23Z</time>
      </trkpt>
      <trkpt lat="42.3035610" lon="-0.4462470">
        <ele>1093.3</ele>
        <time>2018-07-22T12:20:25Z</time>
      </trkpt>
      <trkpt lat="42.3035670" lon="-0.4462100">
        <ele>1093.3</ele>
        <time>2018-07-22T12:20:27Z</time>
      </trkpt>
      <trkpt lat="42.3035420" lon="-0.4461710">
        <ele>1093.2</ele>
        <time>2018-07-22T12:20:30Z</time>
      </trkpt>
      <trkpt lat="42.3035350" lon="-0.4461250">
        <ele>1093.1</ele>
        <time>2018-07-22T12:20:32Z</time>
      </trkpt>
      <trkpt lat="42.3035240" lon="-0.4460820">
        <ele>1093.1</ele>
        <time>2018-07-22T12:20:34Z</time>
      </trkpt>
      <trkpt lat="42.3035320" lon="-0.4460140">
        <ele>1093.0</ele>
        <time>2018-07-22T12:20:36Z</time>
      </trkpt>
      <trkpt lat="42.3035270" lon="-0.4459480">
        <ele>1092.9</ele>
        <time>2018-07-22T12:20:38Z</time>
      </trkpt>
      <trkpt lat="42.3035110" lon="-0.4458980">
        <ele>1092.9</ele>
        <time>2018-07-22T12:20:40Z</time>
      </trkpt>
      <trkpt lat="42.3035400" lon="-0.4458410">
        <ele>1092.7</ele>
        <time>2018-07-22T12:20:42Z</time>
      </trkpt>
      <trkpt lat="42.3035540" lon="-0.4458050">
        <ele>1092.5</ele>
        <time>2018-07-22T12:20:44Z</time>
      </trkpt>
      <trkpt lat="42.3035630" lon="-0.4457580">
        <ele>1092.3</ele>
        <time>2018-07-22T12:20:47Z</time>
      </trkpt>
      <trkpt lat="42.3035770" lon="-0.4457250">
        <ele>1092.2</ele>
        <time>2018-07-22T12:20:49Z</time>
      </trkpt>
      <trkpt lat="42.3035910" lon="-0.4456770">
        <ele>1092.1</ele>
        <time>2018-07-22T12:20:51Z</time>
      </trkpt>
      <trkpt lat="42.3035680" lon="-0.4456300">
        <ele>1091.9</ele>
        <time>2018-07-22T12:20:53Z</time>
      </trkpt>
      <trkpt lat="42.3035330" lon="-0.4456130">
        <ele>1091.7</ele>
        <time>2018-07-22T12:20:55Z</time>
      </trkpt>
      <trkpt lat="42.3035030" lon="-0.4456030">
        <ele>1091.6</ele>
        <time>2018-07-22T12:20:56Z</time>
      </trkpt>
      <trkpt lat="42.3034940" lon="-0.4455650">
        <ele>1091.5</ele>
        <time>2018-07-22T12:21:02Z</time>
      </trkpt>
      <trkpt lat="42.3035030" lon="-0.4455100">
        <ele>1091.3</ele>
        <time>2018-07-22T12:21:05Z</time>
      </trkpt>
      <trkpt lat="42.3034980" lon="-0.4454590">
        <ele>1091.1</ele>
        <time>2018-07-22T12:21:08Z</time>
      </trkpt>
      <trkpt lat="42.3034990" lon="-0.4454170">
        <ele>1091.0</ele>
        <time>2018-07-22T12:21:11Z</time>
      </trkpt>
      <trkpt lat="42.3035080" lon="-0.4453780">
        <ele>1090.9</ele>
        <time>2018-07-22T12:21:15Z</time>
      </trkpt>
      <trkpt lat="42.3035040" lon="-0.4453390">
        <ele>1090.7</ele>
        <time>2018-07-22T12:21:17Z</time>
      </trkpt>
      <trkpt lat="42.3035020" lon="-0.4452990">
        <ele>1090.6</ele>
        <time>2018-07-22T12:21:19Z</time>
      </trkpt>
      <trkpt lat="42.3034760" lon="-0.4452680">
        <ele>1090.4</ele>
        <time>2018-07-22T12:21:22Z</time>
      </trkpt>
      <trkpt lat="42.3034440" lon="-0.4452630">
        <ele>1090.3</ele>
        <time>2018-07-22T12:21:26Z</time>
      </trkpt>
      <trkpt lat="42.3034190" lon="-0.4452310">
        <ele>1090.1</ele>
        <time>2018-07-22T12:21:30Z</time>
      </trkpt>
      <trkpt lat="42.3034370" lon="-0.4451940">
        <ele>1089.9</ele>
        <time>2018-07-22T12:21:32Z</time>
      </trkpt>
      <trkpt lat="42.3034550" lon="-0.4451490">
        <ele>1089.8</ele>
        <time>2018-07-22T12:21:34Z</time>
      </trkpt>
      <trkpt lat="42.3034620" lon="-0.4451070">
        <ele>1089.6</ele>
        <time>2018-07-22T12:21:36Z</time>
      </trkpt>
      <trkpt lat="42.3034830" lon="-0.4450770">
        <ele>1089.5</ele>
        <time>2018-07-22T12:21:38Z</time>
      </trkpt>
      <trkpt lat="42.3035130" lon="-0.4450390">
        <ele>1089.3</ele>
        <time>2018-07-22T12:21:40Z</time>
      </trkpt>
      <trkpt lat="42.3035060" lon="-0.4450010">
        <ele>1089.2</ele>
        <time>2018-07-22T12:21:43Z</time>
      </trkpt>
      <trkpt lat="42.3034900" lon="-0.4449620">
        <ele>1089.0</ele>
        <time>2018-07-22T12:21:45Z</time>
      </trkpt>
      <trkpt lat="42.3034600" lon="-0.4449500">
        <ele>1088.9</ele>
        <time>2018-07-22T12:21:46Z</time>
      </trkpt>
      <trkpt lat="42.3034340" lon="-0.4449060">
        <ele>1088.7</ele>
        <time>2018-07-22T12:21:48Z</time>
      </trkpt>
      <trkpt lat="42.3034010" lon="-0.4448800">
        <ele>1088.6</ele>
        <time>2018-07-22T12:21:49Z</time>
      </trkpt>
      <trkpt lat="42.3034010" lon="-0.4448240">
        <ele>1088.4</ele>
        <time>2018-07-22T12:21:51Z</time>
      </trkpt>
      <trkpt lat="42.3033710" lon="-0.4447810">
        <ele>1088.2</ele>
        <time>2018-07-22T12:21:53Z</time>
      </trkpt>
      <trkpt lat="42.3033530" lon="-0.4447350">
        <ele>1088.0</ele>
        <time>2018-07-22T12:21:55Z</time>
      </trkpt>
      <trkpt lat="42.3033300" lon="-0.4446920">
        <ele>1087.7</ele>
        <time>2018-07-22T12:21:56Z</time>
      </trkpt>
      <trkpt lat="42.3033200" lon="-0.4446210">
        <ele>1087.4</ele>
        <time>2018-07-22T12:21:58Z</time>
      </trkpt>
      <trkpt lat="42.3033130" lon="-0.4445730">
        <ele>1087.2</ele>
        <time>2018-07-22T12:22:02Z</time>
      </trkpt>
      <trkpt lat="42.3033160" lon="-0.4445360">
        <ele>1087.1</ele>
        <time>2018-07-22T12:22:05Z</time>
      </trkpt>
      <trkpt lat="42.3033090" lon="-0.4444870">
        <ele>1086.9</ele>
        <time>2018-07-22T12:22:08Z</time>
      </trkpt>
      <trkpt lat="42.3032870" lon="-0.4444460">
        <ele>1086.6</ele>
        <time>2018-07-22T12:22:11Z</time>
      </trkpt>
      <trkpt lat="42.3032720" lon="-0.4444080">
        <ele>1086.4</ele>
        <time>2018-07-22T12:22:13Z</time>
      </trkpt>
      <trkpt lat="42.3032410" lon="-0.4443820">
        <ele>1086.2</ele>
        <time>2018-07-22T12:22:15Z</time>
      </trkpt>
      <trkpt lat="42.3032370" lon="-0.4443410">
        <ele>1086.0</ele>
        <time>2018-07-22T12:22:19Z</time>
      </trkpt>
      <trkpt lat="42.3032470" lon="-0.4442840">
        <ele>1085.7</ele>
        <time>2018-07-22T12:22:23Z</time>
      </trkpt>
      <trkpt lat="42.3032450" lon="-0.4442350">
        <ele>1085.5</ele>
        <time>2018-07-22T12:22:26Z</time>
      </trkpt>
      <trkpt lat="42.3032350" lon="-0.4441920">
        <ele>1085.3</ele>
        <time>2018-07-22T12:22:28Z</time>
      </trkpt>
      <trkpt lat="42.3032370" lon="-0.4441360">
        <ele>1085.0</ele>
        <time>2018-07-22T12:22:32Z</time>
      </trkpt>
      <trkpt lat="42.3032430" lon="-0.4440940">
        <ele>1084.8</ele>
        <time>2018-07-22T12:22:36Z</time>
      </trkpt>
      <trkpt lat="42.3032400" lon="-0.4440510">
        <ele>1084.6</ele>
        <time>2018-07-22T12:22:40Z</time>
      </trkpt>
      <trkpt lat="42.3032590" lon="-0.4440000">
        <ele>1084.3</ele>
        <time>2018-07-22T12:22:44Z</time>
      </trkpt>
      <trkpt lat="42.3032810" lon="-0.4439630">
        <ele>1084.0</ele>
        <time>2018-07-22T12:22:46Z</time>
      </trkpt>
      <trkpt lat="42.3032970" lon="-0.4439310">
        <ele>1083.8</ele>
        <time>2018-07-22T12:22:48Z</time>
      </trkpt>
      <trkpt lat="42.3033020" lon="-0.4438870">
        <ele>1083.7</ele>
        <time>2018-07-22T12:22:50Z</time>
      </trkpt>
      <trkpt lat="42.3033010" lon="-0.4438470">
        <ele>1083.5</ele>
        <time>2018-07-22T12:22:53Z</time>
      </trkpt>
      <trkpt lat="42.3032890" lon="-0.4438010">
        <ele>1083.4</ele>
        <time>2018-07-22T12:22:55Z</time>
      </trkpt>
      <trkpt lat="42.3032910" lon="-0.4437460">
        <ele>1083.2</ele>
        <time>2018-07-22T12:22:58Z</time>
      </trkpt>
      <trkpt lat="42.3032960" lon="-0.4436920">
        <ele>1083.0</ele>
        <time>2018-07-22T12:23:01Z</time>
      </trkpt>
      <trkpt lat="42.3033030" lon="-0.4436470">
        <ele>1082.9</ele>
        <time>2018-07-22T12:23:03Z</time>
      </trkpt>
      <trkpt lat="42.3033010" lon="-0.4436090">
        <ele>1082.8</ele>
        <time>2018-07-22T12:23:05Z</time>
      </trkpt>
      <trkpt lat="42.3032890" lon="-0.4435600">
        <ele>1082.6</ele>
        <time>2018-07-22T12:23:08Z</time>
      </trkpt>
      <trkpt lat="42.3032930" lon="-0.4435120">
        <ele>1082.5</ele>
        <time>2018-07-22T12:23:11Z</time>
      </trkpt>
      <trkpt lat="42.3032830" lon="-0.4434610">
        <ele>1082.3</ele>
        <time>2018-07-22T12:23:14Z</time>
      </trkpt>
      <trkpt lat="42.3032630" lon="-0.4434310">
        <ele>1082.1</ele>
        <time>2018-07-22T12:23:18Z</time>
      </trkpt>
      <trkpt lat="42.3032570" lon="-0.4433940">
        <ele>1081.9</ele>
        <time>2018-07-22T12:23:21Z</time>
      </trkpt>
      <trkpt lat="42.3032760" lon="-0.4433620">
        <ele>1081.8</ele>
        <time>2018-07-22T12:23:24Z</time>
      </trkpt>
      <trkpt lat="42.3032790" lon="-0.4433180">
        <ele>1081.7</ele>
        <time>2018-07-22T12:23:27Z</time>
      </trkpt>
      <trkpt lat="42.3032950" lon="-0.4432850">
        <ele>1081.5</ele>
        <time>2018-07-22T12:23:28Z</time>
      </trkpt>
      <trkpt lat="42.3033350" lon="-0.4432440">
        <ele>1081.3</ele>
        <time>2018-07-22T12:23:30Z</time>
      </trkpt>
      <trkpt lat="42.3033540" lon="-0.4432130">
        <ele>1081.1</ele>
        <time>2018-07-22T12:23:31Z</time>
      </trkpt>
      <trkpt lat="42.3033810" lon="-0.4431800">
        <ele>1080.8</ele>
        <time>2018-07-22T12:23:33Z</time>
      </trkpt>
      <trkpt lat="42.3033940" lon="-0.4431460">
        <ele>1080.6</ele>
        <time>2018-07-22T12:23:37Z</time>
      </trkpt>
      <trkpt lat="42.3034090" lon="-0.4431140">
        <ele>1080.5</ele>
        <time>2018-07-22T12:23:39Z</time>
      </trkpt>
      <trkpt lat="42.3034380" lon="-0.4430990">
        <ele>1080.2</ele>
        <time>2018-07-22T12:23:42Z</time>
      </trkpt>
      <trkpt lat="42.3034670" lon="-0.4430610">
        <ele>1080.0</ele>
        <time>2018-07-22T12:23:47Z</time>
      </trkpt>
      <trkpt lat="42.3034860" lon="-0.4430360">
        <ele>1079.8</ele>
        <time>2018-07-22T12:23:48Z</time>
      </trkpt>
      <trkpt lat="42.3034780" lon="-0.4429810">
        <ele>1079.6</ele>
        <time>2018-07-22T12:23:50Z</time>
      </trkpt>
      <trkpt lat="42.3034750" lon="-0.4429270">
        <ele>1079.4</ele>
        <time>2018-07-22T12:23:52Z</time>
      </trkpt>
      <trkpt lat="42.3034790" lon="-0.4428720">
        <ele>1079.2</ele>
        <time>2018-07-22T12:23:54Z</time>
      </trkpt>
      <trkpt lat="42.3034930" lon="-0.4428060">
        <ele>1079.0</ele>
        <time>2018-07-22T12:23:57Z</time>
      </trkpt>
      <trkpt lat="42.3035140" lon="-0.4427730">
        <ele>1078.8</ele>
        <time>2018-07-22T12:23:59Z</time>
      </trkpt>
      <trkpt lat="42.3035200" lon="-0.4427330">
        <ele>1078.6</ele>
        <time>2018-07-22T12:24:01Z</time>
      </trkpt>
      <trkpt lat="42.3035290" lon="-0.4426950">
        <ele>1078.4</ele>
        <time>2018-07-22T12:24:03Z</time>
      </trkpt>
      <trkpt lat="42.3035420" lon="-0.4426520">
        <ele>1078.2</ele>
        <time>2018-07-22T12:24:05Z</time>
      </trkpt>
      <trkpt lat="42.3035470" lon="-0.4426140">
        <ele>1078.0</ele>
        <time>2018-07-22T12:24:07Z</time>
      </trkpt>
      <trkpt lat="42.3035580" lon="-0.4425730">
        <ele>1077.8</ele>
        <time>2018-07-22T12:24:09Z</time>
      </trkpt>
      <trkpt lat="42.3035580" lon="-0.4425320">
        <ele>1077.7</ele>
        <time>2018-07-22T12:24:11Z</time>
      </trkpt>
      <trkpt lat="42.3035370" lon="-0.4425020">
        <ele>1077.5</ele>
        <time>2018-07-22T12:24:14Z</time>
      </trkpt>
      <trkpt lat="42.3035450" lon="-0.4424650">
        <ele>1077.3</ele>
        <time>2018-07-22T12:24:17Z</time>
      </trkpt>
      <trkpt lat="42.3035250" lon="-0.4424370">
        <ele>1077.1</ele>
        <time>2018-07-22T12:24:22Z</time>
      </trkpt>
      <trkpt lat="42.3034800" lon="-0.4424900">
        <ele>1077.2</ele>
        <time>2018-07-22T12:24:28Z</time>
      </trkpt>
      <trkpt lat="42.3034320" lon="-0.4424980">
        <ele>1077.3</ele>
        <time>2018-07-22T12:24:30Z</time>
      </trkpt>
      <trkpt lat="42.3034030" lon="-0.4425070">
        <ele>1077.4</ele>
        <time>2018-07-22T12:24:32Z</time>
      </trkpt>
      <trkpt lat="42.3033590" lon="-0.4425150">
        <ele>1077.4</ele>
        <time>2018-07-22T12:24:34Z</time>
      </trkpt>
      <trkpt lat="42.3033520" lon="-0.4424610">
        <ele>1077.1</ele>
        <time>2018-07-22T12:24:36Z</time>
      </trkpt>
      <trkpt lat="42.3033510" lon="-0.4424180">
        <ele>1076.9</ele>
        <time>2018-07-22T12:24:38Z</time>
      </trkpt>
      <trkpt lat="42.3033570" lon="-0.4423730">
        <ele>1076.6</ele>
        <time>2018-07-22T12:24:40Z</time>
      </trkpt>
      <trkpt lat="42.3033650" lon="-0.4423340">
        <ele>1076.4</ele>
        <time>2018-07-22T12:24:42Z</time>
      </trkpt>
      <trkpt lat="42.3033750" lon="-0.4422900">
        <ele>1076.1</ele>
        <time>2018-07-22T12:24:45Z</time>
      </trkpt>
      <trkpt lat="42.3033810" lon="-0.4422480">
        <ele>1076.0</ele>
        <time>2018-07-22T12:24:47Z</time>
      </trkpt>
      <trkpt lat="42.3033920" lon="-0.4421970">
        <ele>1075.8</ele>
        <time>2018-07-22T12:24:49Z</time>
      </trkpt>
      <trkpt lat="42.3034100" lon="-0.4421280">
        <ele>1075.5</ele>
        <time>2018-07-22T12:24:51Z</time>
      </trkpt>
      <trkpt lat="42.3034210" lon="-0.4420800">
        <ele>1075.3</ele>
        <time>2018-07-22T12:24:53Z</time>
      </trkpt>
      <trkpt lat="42.3034120" lon="-0.4420360">
        <ele>1075.2</ele>
        <time>2018-07-22T12:24:55Z</time>
      </trkpt>
      <trkpt lat="42.3034100" lon="-0.4419800">
        <ele>1074.9</ele>
        <time>2018-07-22T12:24:58Z</time>
      </trkpt>
      <trkpt lat="42.3034120" lon="-0.4419340">
        <ele>1074.7</ele>
        <time>2018-07-22T12:25:01Z</time>
      </trkpt>
      <trkpt lat="42.3034080" lon="-0.4418860">
        <ele>1074.6</ele>
        <time>2018-07-22T12:25:05Z</time>
      </trkpt>
      <trkpt lat="42.3034160" lon="-0.4418350">
        <ele>1074.4</ele>
        <time>2018-07-22T12:25:08Z</time>
      </trkpt>
      <trkpt lat="42.3034330" lon="-0.4417980">
        <ele>1074.3</ele>
        <time>2018-07-22T12:25:10Z</time>
      </trkpt>
      <trkpt lat="42.3034490" lon="-0.4417570">
        <ele>1074.1</ele>
        <time>2018-07-22T12:25:12Z</time>
      </trkpt>
      <trkpt lat="42.3034550" lon="-0.4417100">
        <ele>1074.0</ele>
        <time>2018-07-22T12:25:15Z</time>
      </trkpt>
      <trkpt lat="42.3034550" lon="-0.4416590">
        <ele>1073.8</ele>
        <time>2018-07-22T12:25:18Z</time>
      </trkpt>
      <trkpt lat="42.3034750" lon="-0.4416240">
        <ele>1073.7</ele>
        <time>2018-07-22T12:25:21Z</time>
      </trkpt>
      <trkpt lat="42.3035030" lon="-0.4416120">
        <ele>1073.5</ele>
        <time>2018-07-22T12:25:23Z</time>
      </trkpt>
      <trkpt lat="42.3034760" lon="-0.4416020">
        <ele>1073.4</ele>
        <time>2018-07-22T12:25:25Z</time>
      </trkpt>
      <trkpt lat="42.3034610" lon="-0.4415650">
        <ele>1073.3</ele>
        <time>2018-07-22T12:25:30Z</time>
      </trkpt>
      <trkpt lat="42.3034950" lon="-0.4415290">
        <ele>1073.0</ele>
        <time>2018-07-22T12:25:32Z</time>
      </trkpt>
      <trkpt lat="42.3034710" lon="-0.4414810">
        <ele>1072.7</ele>
        <time>2018-07-22T12:25:34Z</time>
      </trkpt>
      <trkpt lat="42.3034440" lon="-0.4414620">
        <ele>1072.5</ele>
        <time>2018-07-22T12:25:37Z</time>
      </trkpt>
      <trkpt lat="42.3034350" lon="-0.4414040">
        <ele>1072.2</ele>
        <time>2018-07-22T12:25:39Z</time>
      </trkpt>
      <trkpt lat="42.3034060" lon="-0.4413780">
        <ele>1072.0</ele>
        <time>2018-07-22T12:25:41Z</time>
      </trkpt>
      <trkpt lat="42.3034240" lon="-0.4413200">
        <ele>1071.6</ele>
        <time>2018-07-22T12:25:43Z</time>
      </trkpt>
      <trkpt lat="42.3034350" lon="-0.4412610">
        <ele>1071.4</ele>
        <time>2018-07-22T12:25:45Z</time>
      </trkpt>
      <trkpt lat="42.3034370" lon="-0.4412100">
        <ele>1071.2</ele>
        <time>2018-07-22T12:25:47Z</time>
      </trkpt>
      <trkpt lat="42.3034550" lon="-0.4411680">
        <ele>1071.0</ele>
        <time>2018-07-22T12:25:48Z</time>
      </trkpt>
      <trkpt lat="42.3034920" lon="-0.4411330">
        <ele>1070.8</ele>
        <time>2018-07-22T12:25:49Z</time>
      </trkpt>
      <trkpt lat="42.3035200" lon="-0.4411220">
        <ele>1070.7</ele>
        <time>2018-07-22T12:25:51Z</time>
      </trkpt>
      <trkpt lat="42.3035680" lon="-0.4410800">
        <ele>1070.4</ele>
        <time>2018-07-22T12:25:53Z</time>
      </trkpt>
      <trkpt lat="42.3035940" lon="-0.4410660">
        <ele>1070.3</ele>
        <time>2018-07-22T12:25:54Z</time>
      </trkpt>
      <trkpt lat="42.3035600" lon="-0.4410530">
        <ele>1070.1</ele>
        <time>2018-07-22T12:25:55Z</time>
      </trkpt>
      <trkpt lat="42.3035190" lon="-0.4410320">
        <ele>1069.9</ele>
        <time>2018-07-22T12:26:03Z</time>
      </trkpt>
      <trkpt lat="42.3034970" lon="-0.4410060">
        <ele>1069.8</ele>
        <time>2018-07-22T12:26:04Z</time>
      </trkpt>
      <trkpt lat="42.3034690" lon="-0.4409760">
        <ele>1069.6</ele>
        <time>2018-07-22T12:26:06Z</time>
      </trkpt>
      <trkpt lat="42.3034430" lon="-0.4409260">
        <ele>1069.4</ele>
        <time>2018-07-22T12:26:08Z</time>
      </trkpt>
      <trkpt lat="42.3034550" lon="-0.4408860">
        <ele>1069.3</ele>
        <time>2018-07-22T12:26:10Z</time>
      </trkpt>
      <trkpt lat="42.3034280" lon="-0.4408560">
        <ele>1069.1</ele>
        <time>2018-07-22T12:26:12Z</time>
      </trkpt>
      <trkpt lat="42.3033860" lon="-0.4408290">
        <ele>1068.9</ele>
        <time>2018-07-22T12:26:14Z</time>
      </trkpt>
      <trkpt lat="42.3033630" lon="-0.4408060">
        <ele>1068.7</ele>
        <time>2018-07-22T12:26:16Z</time>
      </trkpt>
      <trkpt lat="42.3033230" lon="-0.4407920">
        <ele>1068.4</ele>
        <time>2018-07-22T12:26:18Z</time>
      </trkpt>
      <trkpt lat="42.3033070" lon="-0.4407430">
        <ele>1068.1</ele>
        <time>2018-07-22T12:26:21Z</time>
      </trkpt>
      <trkpt lat="42.3033000" lon="-0.4407030">
        <ele>1067.9</ele>
        <time>2018-07-22T12:26:24Z</time>
      </trkpt>
      <trkpt lat="42.3032750" lon="-0.4406780">
        <ele>1067.7</ele>
        <time>2018-07-22T12:26:26Z</time>
      </trkpt>
      <trkpt lat="42.3032500" lon="-0.4406520">
        <ele>1067.4</ele>
        <time>2018-07-22T12:26:28Z</time>
      </trkpt>
      <trkpt lat="42.3032730" lon="-0.4406290">
        <ele>1067.2</ele>
        <time>2018-07-22T12:26:30Z</time>
      </trkpt>
      <trkpt lat="42.3033110" lon="-0.4406030">
        <ele>1066.9</ele>
        <time>2018-07-22T12:26:31Z</time>
      </trkpt>
      <trkpt lat="42.3033400" lon="-0.4405880">
        <ele>1066.8</ele>
        <time>2018-07-22T12:26:32Z</time>
      </trkpt>
      <trkpt lat="42.3033650" lon="-0.4405550">
        <ele>1066.6</ele>
        <time>2018-07-22T12:26:34Z</time>
      </trkpt>
      <trkpt lat="42.3033750" lon="-0.4405210">
        <ele>1066.4</ele>
        <time>2018-07-22T12:26:36Z</time>
      </trkpt>
      <trkpt lat="42.3033740" lon="-0.4404820">
        <ele>1066.3</ele>
        <time>2018-07-22T12:26:38Z</time>
      </trkpt>
      <trkpt lat="42.3033490" lon="-0.4404500">
        <ele>1066.1</ele>
        <time>2018-07-22T12:26:40Z</time>
      </trkpt>
      <trkpt lat="42.3033190" lon="-0.4403890">
        <ele>1065.8</ele>
        <time>2018-07-22T12:26:43Z</time>
      </trkpt>
      <trkpt lat="42.3033040" lon="-0.4403560">
        <ele>1065.6</ele>
        <time>2018-07-22T12:26:44Z</time>
      </trkpt>
      <trkpt lat="42.3032600" lon="-0.4403260">
        <ele>1065.3</ele>
        <time>2018-07-22T12:26:47Z</time>
      </trkpt>
      <trkpt lat="42.3032360" lon="-0.4403000">
        <ele>1065.2</ele>
        <time>2018-07-22T12:26:49Z</time>
      </trkpt>
      <trkpt lat="42.3032190" lon="-0.4402700">
        <ele>1065.0</ele>
        <time>2018-07-22T12:26:51Z</time>
      </trkpt>
      <trkpt lat="42.3032010" lon="-0.4402310">
        <ele>1064.8</ele>
        <time>2018-07-22T12:26:53Z</time>
      </trkpt>
      <trkpt lat="42.3031600" lon="-0.4402160">
        <ele>1064.6</ele>
        <time>2018-07-22T12:26:55Z</time>
      </trkpt>
      <trkpt lat="42.3031400" lon="-0.4401660">
        <ele>1064.4</ele>
        <time>2018-07-22T12:26:58Z</time>
      </trkpt>
      <trkpt lat="42.3031170" lon="-0.4401200">
        <ele>1064.1</ele>
        <time>2018-07-22T12:27:00Z</time>
      </trkpt>
      <trkpt lat="42.3031140" lon="-0.4400750">
        <ele>1063.9</ele>
        <time>2018-07-22T12:27:02Z</time>
      </trkpt>
      <trkpt lat="42.3031260" lon="-0.4400220">
        <ele>1063.6</ele>
        <time>2018-07-22T12:27:03Z</time>
      </trkpt>
      <trkpt lat="42.3031450" lon="-0.4399800">
        <ele>1063.3</ele>
        <time>2018-07-22T12:27:05Z</time>
      </trkpt>
      <trkpt lat="42.3031610" lon="-0.4399450">
        <ele>1063.0</ele>
        <time>2018-07-22T12:27:09Z</time>
      </trkpt>
      <trkpt lat="42.3031310" lon="-0.4399380">
        <ele>1062.8</ele>
        <time>2018-07-22T12:27:13Z</time>
      </trkpt>
      <trkpt lat="42.3031000" lon="-0.4399470">
        <ele>1062.5</ele>
        <time>2018-07-22T12:27:15Z</time>
      </trkpt>
      <trkpt lat="42.3030690" lon="-0.4399370">
        <ele>1062.3</ele>
        <time>2018-07-22T12:27:18Z</time>
      </trkpt>
      <trkpt lat="42.3030420" lon="-0.4399280">
        <ele>1062.1</ele>
        <time>2018-07-22T12:27:22Z</time>
      </trkpt>
      <trkpt lat="42.3030600" lon="-0.4398960">
        <ele>1062.0</ele>
        <time>2018-07-22T12:27:24Z</time>
      </trkpt>
      <trkpt lat="42.3030760" lon="-0.4398650">
        <ele>1061.8</ele>
        <time>2018-07-22T12:27:26Z</time>
      </trkpt>
      <trkpt lat="42.3030960" lon="-0.4398220">
        <ele>1061.6</ele>
        <time>2018-07-22T12:27:29Z</time>
      </trkpt>
      <trkpt lat="42.3031080" lon="-0.4397860">
        <ele>1061.4</ele>
        <time>2018-07-22T12:27:31Z</time>
      </trkpt>
      <trkpt lat="42.3031210" lon="-0.4397330">
        <ele>1061.1</ele>
        <time>2018-07-22T12:27:34Z</time>
      </trkpt>
      <trkpt lat="42.3031290" lon="-0.4396970">
        <ele>1061.0</ele>
        <time>2018-07-22T12:27:36Z</time>
      </trkpt>
      <trkpt lat="42.3031230" lon="-0.4396600">
        <ele>1060.8</ele>
        <time>2018-07-22T12:27:38Z</time>
      </trkpt>
      <trkpt lat="42.3031180" lon="-0.4396210">
        <ele>1060.7</ele>
        <time>2018-07-22T12:27:40Z</time>
      </trkpt>
      <trkpt lat="42.3031190" lon="-0.4395690">
        <ele>1060.4</ele>
        <time>2018-07-22T12:27:43Z</time>
      </trkpt>
      <trkpt lat="42.3031230" lon="-0.4395220">
        <ele>1060.2</ele>
        <time>2018-07-22T12:27:46Z</time>
      </trkpt>
      <trkpt lat="42.3031220" lon="-0.4394750">
        <ele>1060.0</ele>
        <time>2018-07-22T12:27:49Z</time>
      </trkpt>
      <trkpt lat="42.3031150" lon="-0.4394290">
        <ele>1059.8</ele>
        <time>2018-07-22T12:27:51Z</time>
      </trkpt>
      <trkpt lat="42.3031100" lon="-0.4393900">
        <ele>1059.7</ele>
        <time>2018-07-22T12:27:55Z</time>
      </trkpt>
      <trkpt lat="42.3031030" lon="-0.4393480">
        <ele>1059.5</ele>
        <time>2018-07-22T12:28:00Z</time>
      </trkpt>
      <trkpt lat="42.3031220" lon="-0.4393160">
        <ele>1059.3</ele>
        <time>2018-07-22T12:28:03Z</time>
      </trkpt>
      <trkpt lat="42.3030860" lon="-0.4392660">
        <ele>1059.1</ele>
        <time>2018-07-22T12:28:05Z</time>
      </trkpt>
      <trkpt lat="42.3030710" lon="-0.4392260">
        <ele>1058.9</ele>
        <time>2018-07-22T12:28:07Z</time>
      </trkpt>
      <trkpt lat="42.3030660" lon="-0.4391810">
        <ele>1058.7</ele>
        <time>2018-07-22T12:28:08Z</time>
      </trkpt>
      <trkpt lat="42.3030380" lon="-0.4391350">
        <ele>1058.5</ele>
        <time>2018-07-22T12:28:10Z</time>
      </trkpt>
      <trkpt lat="42.3030260" lon="-0.4391010">
        <ele>1058.4</ele>
        <time>2018-07-22T12:28:13Z</time>
      </trkpt>
      <trkpt lat="42.3030430" lon="-0.4390520">
        <ele>1058.2</ele>
        <time>2018-07-22T12:28:15Z</time>
      </trkpt>
      <trkpt lat="42.3030570" lon="-0.4390160">
        <ele>1058.0</ele>
        <time>2018-07-22T12:28:17Z</time>
      </trkpt>
      <trkpt lat="42.3030700" lon="-0.4389650">
        <ele>1057.8</ele>
        <time>2018-07-22T12:28:20Z</time>
      </trkpt>
      <trkpt lat="42.3030770" lon="-0.4389230">
        <ele>1057.7</ele>
        <time>2018-07-22T12:28:22Z</time>
      </trkpt>
      <trkpt lat="42.3030750" lon="-0.4388790">
        <ele>1057.5</ele>
        <time>2018-07-22T12:28:24Z</time>
      </trkpt>
      <trkpt lat="42.3031000" lon="-0.4388570">
        <ele>1057.4</ele>
        <time>2018-07-22T12:28:27Z</time>
      </trkpt>
      <trkpt lat="42.3031270" lon="-0.4388310">
        <ele>1057.2</ele>
        <time>2018-07-22T12:28:29Z</time>
      </trkpt>
      <trkpt lat="42.3031580" lon="-0.4387950">
        <ele>1056.9</ele>
        <time>2018-07-22T12:28:31Z</time>
      </trkpt>
      <trkpt lat="42.3031910" lon="-0.4387800">
        <ele>1056.6</ele>
        <time>2018-07-22T12:28:35Z</time>
      </trkpt>
      <trkpt lat="42.3032220" lon="-0.4387520">
        <ele>1056.4</ele>
        <time>2018-07-22T12:28:37Z</time>
      </trkpt>
      <trkpt lat="42.3032480" lon="-0.4387060">
        <ele>1056.2</ele>
        <time>2018-07-22T12:28:39Z</time>
      </trkpt>
      <trkpt lat="42.3032760" lon="-0.4386600">
        <ele>1056.0</ele>
        <time>2018-07-22T12:28:41Z</time>
      </trkpt>
      <trkpt lat="42.3032950" lon="-0.4386280">
        <ele>1055.9</ele>
        <time>2018-07-22T12:28:42Z</time>
      </trkpt>
      <trkpt lat="42.3033170" lon="-0.4386030">
        <ele>1055.7</ele>
        <time>2018-07-22T12:28:43Z</time>
      </trkpt>
      <trkpt lat="42.3033040" lon="-0.4385660">
        <ele>1055.6</ele>
        <time>2018-07-22T12:28:44Z</time>
      </trkpt>
      <trkpt lat="42.3033240" lon="-0.4385350">
        <ele>1055.4</ele>
        <time>2018-07-22T12:28:45Z</time>
      </trkpt>
      <trkpt lat="42.3033220" lon="-0.4384600">
        <ele>1055.1</ele>
        <time>2018-07-22T12:28:46Z</time>
      </trkpt>
      <trkpt lat="42.3033160" lon="-0.4384160">
        <ele>1055.0</ele>
        <time>2018-07-22T12:28:47Z</time>
      </trkpt>
      <trkpt lat="42.3033100" lon="-0.4383740">
        <ele>1054.8</ele>
        <time>2018-07-22T12:28:48Z</time>
      </trkpt>
      <trkpt lat="42.3033030" lon="-0.4383380">
        <ele>1054.7</ele>
        <time>2018-07-22T12:28:49Z</time>
      </trkpt>
      <trkpt lat="42.3032770" lon="-0.4382940">
        <ele>1054.4</ele>
        <time>2018-07-22T12:28:50Z</time>
      </trkpt>
      <trkpt lat="42.3032320" lon="-0.4382640">
        <ele>1054.2</ele>
        <time>2018-07-22T12:28:52Z</time>
      </trkpt>
      <trkpt lat="42.3032010" lon="-0.4382650">
        <ele>1054.0</ele>
        <time>2018-07-22T12:28:53Z</time>
      </trkpt>
      <trkpt lat="42.3031680" lon="-0.4382030">
        <ele>1053.7</ele>
        <time>2018-07-22T12:28:55Z</time>
      </trkpt>
      <trkpt lat="42.3031360" lon="-0.4382260">
        <ele>1053.6</ele>
        <time>2018-07-22T12:28:56Z</time>
      </trkpt>
      <trkpt lat="42.3030900" lon="-0.4382530">
        <ele>1053.3</ele>
        <time>2018-07-22T12:28:58Z</time>
      </trkpt>
      <trkpt lat="42.3030640" lon="-0.4382380">
        <ele>1053.2</ele>
        <time>2018-07-22T12:28:59Z</time>
      </trkpt>
      <trkpt lat="42.3030450" lon="-0.4382710">
        <ele>1053.0</ele>
        <time>2018-07-22T12:29:00Z</time>
      </trkpt>
      <trkpt lat="42.3030090" lon="-0.4382780">
        <ele>1052.9</ele>
        <time>2018-07-22T12:29:01Z</time>
      </trkpt>
      <trkpt lat="42.3029570" lon="-0.4382670">
        <ele>1052.6</ele>
        <time>2018-07-22T12:29:03Z</time>
      </trkpt>
      <trkpt lat="42.3029620" lon="-0.4382250">
        <ele>1052.5</ele>
        <time>2018-07-22T12:29:05Z</time>
      </trkpt>
      <trkpt lat="42.3029680" lon="-0.4381800">
        <ele>1052.3</ele>
        <time>2018-07-22T12:29:06Z</time>
      </trkpt>
      <trkpt lat="42.3029880" lon="-0.4381170">
        <ele>1052.1</ele>
        <time>2018-07-22T12:29:09Z</time>
      </trkpt>
      <trkpt lat="42.3030160" lon="-0.4381030">
        <ele>1052.0</ele>
        <time>2018-07-22T12:29:10Z</time>
      </trkpt>
      <trkpt lat="42.3030940" lon="-0.4380430">
        <ele>1051.6</ele>
        <time>2018-07-22T12:29:11Z</time>
      </trkpt>
      <trkpt lat="42.3031220" lon="-0.4380170">
        <ele>1051.4</ele>
        <time>2018-07-22T12:29:12Z</time>
      </trkpt>
      <trkpt lat="42.3031440" lon="-0.4379400">
        <ele>1051.2</ele>
        <time>2018-07-22T12:29:14Z</time>
      </trkpt>
      <trkpt lat="42.3031840" lon="-0.4379450">
        <ele>1051.1</ele>
        <time>2018-07-22T12:29:18Z</time>
      </trkpt>
      <trkpt lat="42.3031990" lon="-0.4380010">
        <ele>1050.9</ele>
        <time>2018-07-22T12:29:19Z</time>
      </trkpt>
      <trkpt lat="42.3032410" lon="-0.4379890">
        <ele>1050.7</ele>
        <time>2018-07-22T12:29:23Z</time>
      </trkpt>
      <trkpt lat="42.3032310" lon="-0.4379360">
        <ele>1050.6</ele>
        <time>2018-07-22T12:29:28Z</time>
      </trkpt>
      <trkpt lat="42.3031940" lon="-0.4379010">
        <ele>1050.3</ele>
        <time>2018-07-22T12:29:30Z</time>
      </trkpt>
      <trkpt lat="42.3031860" lon="-0.4378660">
        <ele>1050.2</ele>
        <time>2018-07-22T12:29:32Z</time>
      </trkpt>
      <trkpt lat="42.3031690" lon="-0.4378210">
        <ele>1049.9</ele>
        <time>2018-07-22T12:29:34Z</time>
      </trkpt>
      <trkpt lat="42.3031790" lon="-0.4377640">
        <ele>1049.7</ele>
        <time>2018-07-22T12:29:35Z</time>
      </trkpt>
      <trkpt lat="42.3031900" lon="-0.4377180">
        <ele>1049.5</ele>
        <time>2018-07-22T12:29:36Z</time>
      </trkpt>
      <trkpt lat="42.3031680" lon="-0.4376870">
        <ele>1049.3</ele>
        <time>2018-07-22T12:29:37Z</time>
      </trkpt>
      <trkpt lat="42.3031720" lon="-0.4376500">
        <ele>1049.2</ele>
        <time>2018-07-22T12:29:38Z</time>
      </trkpt>
      <trkpt lat="42.3031830" lon="-0.4376040">
        <ele>1048.9</ele>
        <time>2018-07-22T12:29:39Z</time>
      </trkpt>
      <trkpt lat="42.3031780" lon="-0.4375630">
        <ele>1048.8</ele>
        <time>2018-07-22T12:29:41Z</time>
      </trkpt>
      <trkpt lat="42.3031670" lon="-0.4375270">
        <ele>1048.6</ele>
        <time>2018-07-22T12:29:45Z</time>
      </trkpt>
      <trkpt lat="42.3031430" lon="-0.4375110">
        <ele>1048.4</ele>
        <time>2018-07-22T12:29:49Z</time>
      </trkpt>
      <trkpt lat="42.3031170" lon="-0.4374940">
        <ele>1048.3</ele>
        <time>2018-07-22T12:29:51Z</time>
      </trkpt>
      <trkpt lat="42.3030860" lon="-0.4374630">
        <ele>1048.0</ele>
        <time>2018-07-22T12:29:53Z</time>
      </trkpt>
      <trkpt lat="42.3030720" lon="-0.4374330">
        <ele>1047.9</ele>
        <time>2018-07-22T12:29:58Z</time>
      </trkpt>
      <trkpt lat="42.3031050" lon="-0.4374090">
        <ele>1047.8</ele>
        <time>2018-07-22T12:30:01Z</time>
      </trkpt>
      <trkpt lat="42.3031310" lon="-0.4373950">
        <ele>1047.6</ele>
        <time>2018-07-22T12:30:02Z</time>
      </trkpt>
      <trkpt lat="42.3031480" lon="-0.4373610">
        <ele>1047.5</ele>
        <time>2018-07-22T12:30:04Z</time>
      </trkpt>
      <trkpt lat="42.3031370" lon="-0.4373140">
        <ele>1047.3</ele>
        <time>2018-07-22T12:30:08Z</time>
      </trkpt>
      <trkpt lat="42.3031630" lon="-0.4372780">
        <ele>1047.2</ele>
        <time>2018-07-22T12:30:13Z</time>
      </trkpt>
      <trkpt lat="42.3031900" lon="-0.4372460">
        <ele>1047.0</ele>
        <time>2018-07-22T12:30:15Z</time>
      </trkpt>
      <trkpt lat="42.3032100" lon="-0.4372100">
        <ele>1046.9</ele>
        <time>2018-07-22T12:30:17Z</time>
      </trkpt>
      <trkpt lat="42.3032140" lon="-0.4371670">
        <ele>1046.7</ele>
        <time>2018-07-22T12:30:19Z</time>
      </trkpt>
      <trkpt lat="42.3031950" lon="-0.4371270">
        <ele>1046.6</ele>
        <time>2018-07-22T12:30:21Z</time>
      </trkpt>
      <trkpt lat="42.3031850" lon="-0.4370750">
        <ele>1046.4</ele>
        <time>2018-07-22T12:30:24Z</time>
      </trkpt>
      <trkpt lat="42.3031710" lon="-0.4370330">
        <ele>1046.1</ele>
        <time>2018-07-22T12:30:26Z</time>
      </trkpt>
      <trkpt lat="42.3031640" lon="-0.4369770">
        <ele>1045.8</ele>
        <time>2018-07-22T12:30:28Z</time>
      </trkpt>
      <trkpt lat="42.3031770" lon="-0.4369260">
        <ele>1045.6</ele>
        <time>2018-07-22T12:30:30Z</time>
      </trkpt>
      <trkpt lat="42.3031600" lon="-0.4368940">
        <ele>1045.4</ele>
        <time>2018-07-22T12:30:33Z</time>
      </trkpt>
      <trkpt lat="42.3031650" lon="-0.4368480">
        <ele>1045.3</ele>
        <time>2018-07-22T12:30:36Z</time>
      </trkpt>
      <trkpt lat="42.3031440" lon="-0.4368010">
        <ele>1045.0</ele>
        <time>2018-07-22T12:30:38Z</time>
      </trkpt>
      <trkpt lat="42.3031740" lon="-0.4367450">
        <ele>1044.6</ele>
        <time>2018-07-22T12:30:41Z</time>
      </trkpt>
      <trkpt lat="42.3032500" lon="-0.4367200">
        <ele>1044.1</ele>
        <time>2018-07-22T12:30:43Z</time>
      </trkpt>
      <trkpt lat="42.3032890" lon="-0.4367020">
        <ele>1043.8</ele>
        <time>2018-07-22T12:30:44Z</time>
      </trkpt>
      <trkpt lat="42.3033220" lon="-0.4366750">
        <ele>1043.5</ele>
        <time>2018-07-22T12:30:47Z</time>
      </trkpt>
      <trkpt lat="42.3032950" lon="-0.4366400">
        <ele>1043.2</ele>
        <time>2018-07-22T12:30:54Z</time>
      </trkpt>
      <trkpt lat="42.3032630" lon="-0.4366200">
        <ele>1043.0</ele>
        <time>2018-07-22T12:30:55Z</time>
      </trkpt>
      <trkpt lat="42.3032450" lon="-0.4365590">
        <ele>1042.6</ele>
        <time>2018-07-22T12:30:57Z</time>
      </trkpt>
      <trkpt lat="42.3032490" lon="-0.4365120">
        <ele>1042.5</ele>
        <time>2018-07-22T12:30:59Z</time>
      </trkpt>
      <trkpt lat="42.3032250" lon="-0.4364820">
        <ele>1042.4</ele>
        <time>2018-07-22T12:31:00Z</time>
      </trkpt>
      <trkpt lat="42.3031970" lon="-0.4364570">
        <ele>1042.2</ele>
        <time>2018-07-22T12:31:02Z</time>
      </trkpt>
      <trkpt lat="42.3031620" lon="-0.4364440">
        <ele>1042.1</ele>
        <time>2018-07-22T12:31:03Z</time>
      </trkpt>
      <trkpt lat="42.3031430" lon="-0.4364160">
        <ele>1042.0</ele>
        <time>2018-07-22T12:31:04Z</time>
      </trkpt>
      <trkpt lat="42.3031290" lon="-0.4363800">
        <ele>1041.8</ele>
        <time>2018-07-22T12:31:07Z</time>
      </trkpt>
      <trkpt lat="42.3031590" lon="-0.4363270">
        <ele>1041.6</ele>
        <time>2018-07-22T12:31:12Z</time>
      </trkpt>
      <trkpt lat="42.3031880" lon="-0.4362970">
        <ele>1041.5</ele>
        <time>2018-07-22T12:31:13Z</time>
      </trkpt>
      <trkpt lat="42.3032120" lon="-0.4362600">
        <ele>1041.3</ele>
        <time>2018-07-22T12:31:16Z</time>
      </trkpt>
      <trkpt lat="42.3032730" lon="-0.4362050">
        <ele>1040.9</ele>
        <time>2018-07-22T12:31:18Z</time>
      </trkpt>
      <trkpt lat="42.3033230" lon="-0.4361900">
        <ele>1040.6</ele>
        <time>2018-07-22T12:31:19Z</time>
      </trkpt>
      <trkpt lat="42.3033560" lon="-0.4361550">
        <ele>1040.4</ele>
        <time>2018-07-22T12:31:20Z</time>
      </trkpt>
      <trkpt lat="42.3033880" lon="-0.4361440">
        <ele>1040.1</ele>
        <time>2018-07-22T12:31:21Z</time>
      </trkpt>
      <trkpt lat="42.3034080" lon="-0.4360850">
        <ele>1039.7</ele>
        <time>2018-07-22T12:31:23Z</time>
      </trkpt>
      <trkpt lat="42.3033640" lon="-0.4360730">
        <ele>1039.3</ele>
        <time>2018-07-22T12:31:24Z</time>
      </trkpt>
      <trkpt lat="42.3033630" lon="-0.4360360">
        <ele>1039.1</ele>
        <time>2018-07-22T12:31:30Z</time>
      </trkpt>
      <trkpt lat="42.3033870" lon="-0.4360020">
        <ele>1038.7</ele>
        <time>2018-07-22T12:31:32Z</time>
      </trkpt>
      <trkpt lat="42.3033630" lon="-0.4359780">
        <ele>1038.5</ele>
        <time>2018-07-22T12:31:36Z</time>
      </trkpt>
      <trkpt lat="42.3033630" lon="-0.4359410">
        <ele>1038.3</ele>
        <time>2018-07-22T12:31:38Z</time>
      </trkpt>
      <trkpt lat="42.3033520" lon="-0.4359070">
        <ele>1038.1</ele>
        <time>2018-07-22T12:31:39Z</time>
      </trkpt>
      <trkpt lat="42.3033440" lon="-0.4358430">
        <ele>1037.7</ele>
        <time>2018-07-22T12:31:41Z</time>
      </trkpt>
      <trkpt lat="42.3033460" lon="-0.4358050">
        <ele>1037.4</ele>
        <time>2018-07-22T12:31:43Z</time>
      </trkpt>
      <trkpt lat="42.3033300" lon="-0.4357720">
        <ele>1037.2</ele>
        <time>2018-07-22T12:31:44Z</time>
      </trkpt>
      <trkpt lat="42.3033330" lon="-0.4357270">
        <ele>1036.9</ele>
        <time>2018-07-22T12:31:45Z</time>
      </trkpt>
      <trkpt lat="42.3033280" lon="-0.4356850">
        <ele>1036.7</ele>
        <time>2018-07-22T12:31:46Z</time>
      </trkpt>
      <trkpt lat="42.3033170" lon="-0.4356460">
        <ele>1036.5</ele>
        <time>2018-07-22T12:31:48Z</time>
      </trkpt>
      <trkpt lat="42.3032990" lon="-0.4356150">
        <ele>1036.3</ele>
        <time>2018-07-22T12:31:50Z</time>
      </trkpt>
      <trkpt lat="42.3032560" lon="-0.4356120">
        <ele>1036.1</ele>
        <time>2018-07-22T12:31:54Z</time>
      </trkpt>
      <trkpt lat="42.3032420" lon="-0.4355810">
        <ele>1036.0</ele>
        <time>2018-07-22T12:31:55Z</time>
      </trkpt>
      <trkpt lat="42.3032470" lon="-0.4355200">
        <ele>1035.8</ele>
        <time>2018-07-22T12:31:59Z</time>
      </trkpt>
      <trkpt lat="42.3032710" lon="-0.4354810">
        <ele>1035.6</ele>
        <time>2018-07-22T12:32:04Z</time>
      </trkpt>
      <trkpt lat="42.3032940" lon="-0.4354450">
        <ele>1035.5</ele>
        <time>2018-07-22T12:32:06Z</time>
      </trkpt>
      <trkpt lat="42.3032620" lon="-0.4354460">
        <ele>1035.3</ele>
        <time>2018-07-22T12:32:12Z</time>
      </trkpt>
      <trkpt lat="42.3032580" lon="-0.4354080">
        <ele>1035.2</ele>
        <time>2018-07-22T12:32:17Z</time>
      </trkpt>
      <trkpt lat="42.3032700" lon="-0.4353620">
        <ele>1035.0</ele>
        <time>2018-07-22T12:32:20Z</time>
      </trkpt>
      <trkpt lat="42.3032870" lon="-0.4353070">
        <ele>1034.8</ele>
        <time>2018-07-22T12:32:22Z</time>
      </trkpt>
      <trkpt lat="42.3033070" lon="-0.4352500">
        <ele>1034.6</ele>
        <time>2018-07-22T12:32:24Z</time>
      </trkpt>
      <trkpt lat="42.3033200" lon="-0.4351980">
        <ele>1034.4</ele>
        <time>2018-07-22T12:32:26Z</time>
      </trkpt>
      <trkpt lat="42.3033330" lon="-0.4351580">
        <ele>1034.2</ele>
        <time>2018-07-22T12:32:28Z</time>
      </trkpt>
      <trkpt lat="42.3033380" lon="-0.4351000">
        <ele>1034.0</ele>
        <time>2018-07-22T12:32:31Z</time>
      </trkpt>
      <trkpt lat="42.3033420" lon="-0.4350600">
        <ele>1033.9</ele>
        <time>2018-07-22T12:32:33Z</time>
      </trkpt>
      <trkpt lat="42.3033450" lon="-0.4350180">
        <ele>1033.7</ele>
        <time>2018-07-22T12:32:36Z</time>
      </trkpt>
      <trkpt lat="42.3033290" lon="-0.4349760">
        <ele>1033.5</ele>
        <time>2018-07-22T12:32:40Z</time>
      </trkpt>
      <trkpt lat="42.3033270" lon="-0.4349220">
        <ele>1033.2</ele>
        <time>2018-07-22T12:32:43Z</time>
      </trkpt>
      <trkpt lat="42.3033580" lon="-0.4348830">
        <ele>1032.9</ele>
        <time>2018-07-22T12:32:46Z</time>
      </trkpt>
      <trkpt lat="42.3033660" lon="-0.4348420">
        <ele>1032.8</ele>
        <time>2018-07-22T12:32:50Z</time>
      </trkpt>
      <trkpt lat="42.3033500" lon="-0.4348040">
        <ele>1032.6</ele>
        <time>2018-07-22T12:32:53Z</time>
      </trkpt>
      <trkpt lat="42.3033390" lon="-0.4347630">
        <ele>1032.5</ele>
        <time>2018-07-22T12:32:56Z</time>
      </trkpt>
      <trkpt lat="42.3033370" lon="-0.4347120">
        <ele>1032.3</ele>
        <time>2018-07-22T12:32:58Z</time>
      </trkpt>
      <trkpt lat="42.3033370" lon="-0.4346740">
        <ele>1032.1</ele>
        <time>2018-07-22T12:33:00Z</time>
      </trkpt>
      <trkpt lat="42.3033340" lon="-0.4346200">
        <ele>1031.9</ele>
        <time>2018-07-22T12:33:04Z</time>
      </trkpt>
      <trkpt lat="42.3033340" lon="-0.4345770">
        <ele>1031.6</ele>
        <time>2018-07-22T12:33:07Z</time>
      </trkpt>
      <trkpt lat="42.3033330" lon="-0.4345350">
        <ele>1031.4</ele>
        <time>2018-07-22T12:33:10Z</time>
      </trkpt>
      <trkpt lat="42.3033230" lon="-0.4344980">
        <ele>1031.2</ele>
        <time>2018-07-22T12:33:13Z</time>
      </trkpt>
      <trkpt lat="42.3032960" lon="-0.4344680">
        <ele>1031.0</ele>
        <time>2018-07-22T12:33:16Z</time>
      </trkpt>
      <trkpt lat="42.3032990" lon="-0.4344300">
        <ele>1030.8</ele>
        <time>2018-07-22T12:33:19Z</time>
      </trkpt>
      <trkpt lat="42.3032720" lon="-0.4343950">
        <ele>1030.6</ele>
        <time>2018-07-22T12:33:23Z</time>
      </trkpt>
      <trkpt lat="42.3032820" lon="-0.4343560">
        <ele>1030.4</ele>
        <time>2018-07-22T12:33:27Z</time>
      </trkpt>
      <trkpt lat="42.3033210" lon="-0.4343140">
        <ele>1030.2</ele>
        <time>2018-07-22T12:33:30Z</time>
      </trkpt>
      <trkpt lat="42.3033440" lon="-0.4342770">
        <ele>1030.0</ele>
        <time>2018-07-22T12:33:32Z</time>
      </trkpt>
      <trkpt lat="42.3033610" lon="-0.4342360">
        <ele>1029.9</ele>
        <time>2018-07-22T12:33:34Z</time>
      </trkpt>
      <trkpt lat="42.3033810" lon="-0.4342050">
        <ele>1029.8</ele>
        <time>2018-07-22T12:33:36Z</time>
      </trkpt>
      <trkpt lat="42.3033960" lon="-0.4341620">
        <ele>1029.6</ele>
        <time>2018-07-22T12:33:41Z</time>
      </trkpt>
      <trkpt lat="42.3034040" lon="-0.4341060">
        <ele>1029.5</ele>
        <time>2018-07-22T12:33:43Z</time>
      </trkpt>
      <trkpt lat="42.3034230" lon="-0.4340580">
        <ele>1029.3</ele>
        <time>2018-07-22T12:33:46Z</time>
      </trkpt>
      <trkpt lat="42.3034280" lon="-0.4340160">
        <ele>1029.2</ele>
        <time>2018-07-22T12:33:48Z</time>
      </trkpt>
      <trkpt lat="42.3034300" lon="-0.4339780">
        <ele>1029.1</ele>
        <time>2018-07-22T12:33:50Z</time>
      </trkpt>
      <trkpt lat="42.3034400" lon="-0.4339300">
        <ele>1028.9</ele>
        <time>2018-07-22T12:33:53Z</time>
      </trkpt>
      <trkpt lat="42.3034210" lon="-0.4338840">
        <ele>1028.6</ele>
        <time>2018-07-22T12:33:55Z</time>
      </trkpt>
      <trkpt lat="42.3034250" lon="-0.4338360">
        <ele>1028.4</ele>
        <time>2018-07-22T12:33:57Z</time>
      </trkpt>
      <trkpt lat="42.3034390" lon="-0.4337820">
        <ele>1028.2</ele>
        <time>2018-07-22T12:33:59Z</time>
      </trkpt>
      <trkpt lat="42.3034530" lon="-0.4337300">
        <ele>1028.0</ele>
        <time>2018-07-22T12:34:01Z</time>
      </trkpt>
      <trkpt lat="42.3034800" lon="-0.4336760">
        <ele>1027.7</ele>
        <time>2018-07-22T12:34:03Z</time>
      </trkpt>
      <trkpt lat="42.3034680" lon="-0.4336340">
        <ele>1027.5</ele>
        <time>2018-07-22T12:34:07Z</time>
      </trkpt>
      <trkpt lat="42.3034620" lon="-0.4335830">
        <ele>1027.3</ele>
        <time>2018-07-22T12:34:13Z</time>
      </trkpt>
      <trkpt lat="42.3034770" lon="-0.4335470">
        <ele>1027.0</ele>
        <time>2018-07-22T12:34:21Z</time>
      </trkpt>
      <trkpt lat="42.3035210" lon="-0.4335270">
        <ele>1026.7</ele>
        <time>2018-07-22T12:34:23Z</time>
      </trkpt>
      <trkpt lat="42.3035720" lon="-0.4334950">
        <ele>1026.5</ele>
        <time>2018-07-22T12:34:24Z</time>
      </trkpt>
      <trkpt lat="42.3035910" lon="-0.4334560">
        <ele>1026.3</ele>
        <time>2018-07-22T12:34:26Z</time>
      </trkpt>
      <trkpt lat="42.3035750" lon="-0.4334060">
        <ele>1026.1</ele>
        <time>2018-07-22T12:34:30Z</time>
      </trkpt>
      <trkpt lat="42.3035490" lon="-0.4333860">
        <ele>1025.9</ele>
        <time>2018-07-22T12:34:32Z</time>
      </trkpt>
      <trkpt lat="42.3035390" lon="-0.4333470">
        <ele>1025.8</ele>
        <time>2018-07-22T12:34:34Z</time>
      </trkpt>
      <trkpt lat="42.3035310" lon="-0.4333120">
        <ele>1025.6</ele>
        <time>2018-07-22T12:34:36Z</time>
      </trkpt>
      <trkpt lat="42.3035270" lon="-0.4332750">
        <ele>1025.5</ele>
        <time>2018-07-22T12:34:38Z</time>
      </trkpt>
      <trkpt lat="42.3035510" lon="-0.4332540">
        <ele>1025.3</ele>
        <time>2018-07-22T12:34:42Z</time>
      </trkpt>
      <trkpt lat="42.3035790" lon="-0.4332100">
        <ele>1025.0</ele>
        <time>2018-07-22T12:34:45Z</time>
      </trkpt>
      <trkpt lat="42.3035980" lon="-0.4331570">
        <ele>1024.7</ele>
        <time>2018-07-22T12:34:47Z</time>
      </trkpt>
      <trkpt lat="42.3036000" lon="-0.4330970">
        <ele>1024.5</ele>
        <time>2018-07-22T12:34:49Z</time>
      </trkpt>
      <trkpt lat="42.3036170" lon="-0.4330570">
        <ele>1024.4</ele>
        <time>2018-07-22T12:34:51Z</time>
      </trkpt>
      <trkpt lat="42.3035910" lon="-0.4330160">
        <ele>1024.2</ele>
        <time>2018-07-22T12:34:53Z</time>
      </trkpt>
      <trkpt lat="42.3036110" lon="-0.4329850">
        <ele>1024.0</ele>
        <time>2018-07-22T12:34:57Z</time>
      </trkpt>
      <trkpt lat="42.3036170" lon="-0.4329380">
        <ele>1023.9</ele>
        <time>2018-07-22T12:34:59Z</time>
      </trkpt>
      <trkpt lat="42.3036240" lon="-0.4328810">
        <ele>1023.7</ele>
        <time>2018-07-22T12:35:01Z</time>
      </trkpt>
      <trkpt lat="42.3036470" lon="-0.4328490">
        <ele>1023.5</ele>
        <time>2018-07-22T12:35:03Z</time>
      </trkpt>
      <trkpt lat="42.3036400" lon="-0.4327940">
        <ele>1023.3</ele>
        <time>2018-07-22T12:35:05Z</time>
      </trkpt>
      <trkpt lat="42.3036580" lon="-0.4327510">
        <ele>1023.1</ele>
        <time>2018-07-22T12:35:07Z</time>
      </trkpt>
      <trkpt lat="42.3036650" lon="-0.4327120">
        <ele>1023.0</ele>
        <time>2018-07-22T12:35:09Z</time>
      </trkpt>
      <trkpt lat="42.3036890" lon="-0.4326800">
        <ele>1022.8</ele>
        <time>2018-07-22T12:35:13Z</time>
      </trkpt>
      <trkpt lat="42.3036970" lon="-0.4326250">
        <ele>1022.4</ele>
        <time>2018-07-22T12:35:15Z</time>
      </trkpt>
      <trkpt lat="42.3036980" lon="-0.4325820">
        <ele>1022.2</ele>
        <time>2018-07-22T12:35:18Z</time>
      </trkpt>
      <trkpt lat="42.3037030" lon="-0.4325350">
        <ele>1022.0</ele>
        <time>2018-07-22T12:35:21Z</time>
      </trkpt>
      <trkpt lat="42.3036780" lon="-0.4325000">
        <ele>1021.8</ele>
        <time>2018-07-22T12:35:25Z</time>
      </trkpt>
      <trkpt lat="42.3036930" lon="-0.4324670">
        <ele>1021.6</ele>
        <time>2018-07-22T12:35:28Z</time>
      </trkpt>
      <trkpt lat="42.3036980" lon="-0.4324300">
        <ele>1021.5</ele>
        <time>2018-07-22T12:35:30Z</time>
      </trkpt>
      <trkpt lat="42.3036830" lon="-0.4323880">
        <ele>1021.3</ele>
        <time>2018-07-22T12:35:33Z</time>
      </trkpt>
      <trkpt lat="42.3036640" lon="-0.4323400">
        <ele>1021.0</ele>
        <time>2018-07-22T12:35:35Z</time>
      </trkpt>
      <trkpt lat="42.3036530" lon="-0.4322940">
        <ele>1020.8</ele>
        <time>2018-07-22T12:35:37Z</time>
      </trkpt>
      <trkpt lat="42.3036340" lon="-0.4322560">
        <ele>1020.6</ele>
        <time>2018-07-22T12:35:40Z</time>
      </trkpt>
      <trkpt lat="42.3036180" lon="-0.4322270">
        <ele>1020.4</ele>
        <time>2018-07-22T12:35:43Z</time>
      </trkpt>
      <trkpt lat="42.3036000" lon="-0.4321900">
        <ele>1020.2</ele>
        <time>2018-07-22T12:35:46Z</time>
      </trkpt>
      <trkpt lat="42.3036010" lon="-0.4321400">
        <ele>1020.0</ele>
        <time>2018-07-22T12:35:49Z</time>
      </trkpt>
      <trkpt lat="42.3036230" lon="-0.4321120">
        <ele>1019.8</ele>
        <time>2018-07-22T12:35:52Z</time>
      </trkpt>
      <trkpt lat="42.3036060" lon="-0.4320800">
        <ele>1019.6</ele>
        <time>2018-07-22T12:35:55Z</time>
      </trkpt>
      <trkpt lat="42.3035850" lon="-0.4320580">
        <ele>1019.5</ele>
        <time>2018-07-22T12:35:58Z</time>
      </trkpt>
      <trkpt lat="42.3035930" lon="-0.4320220">
        <ele>1019.3</ele>
        <time>2018-07-22T12:36:01Z</time>
      </trkpt>
      <trkpt lat="42.3036250" lon="-0.4319920">
        <ele>1019.0</ele>
        <time>2018-07-22T12:36:03Z</time>
      </trkpt>
      <trkpt lat="42.3036490" lon="-0.4319740">
        <ele>1018.8</ele>
        <time>2018-07-22T12:36:04Z</time>
      </trkpt>
      <trkpt lat="42.3036250" lon="-0.4319560">
        <ele>1018.6</ele>
        <time>2018-07-22T12:36:05Z</time>
      </trkpt>
      <trkpt lat="42.3036280" lon="-0.4319100">
        <ele>1018.3</ele>
        <time>2018-07-22T12:36:07Z</time>
      </trkpt>
      <trkpt lat="42.3036130" lon="-0.4318560">
        <ele>1018.1</ele>
        <time>2018-07-22T12:36:09Z</time>
      </trkpt>
      <trkpt lat="42.3036050" lon="-0.4318160">
        <ele>1017.9</ele>
        <time>2018-07-22T12:36:11Z</time>
      </trkpt>
      <trkpt lat="42.3036010" lon="-0.4317650">
        <ele>1017.6</ele>
        <time>2018-07-22T12:36:14Z</time>
      </trkpt>
      <trkpt lat="42.3035950" lon="-0.4317240">
        <ele>1017.2</ele>
        <time>2018-07-22T12:36:17Z</time>
      </trkpt>
      <trkpt lat="42.3036150" lon="-0.4316950">
        <ele>1016.9</ele>
        <time>2018-07-22T12:36:20Z</time>
      </trkpt>
      <trkpt lat="42.3036560" lon="-0.4316550">
        <ele>1016.5</ele>
        <time>2018-07-22T12:36:22Z</time>
      </trkpt>
      <trkpt lat="42.3036750" lon="-0.4316190">
        <ele>1016.3</ele>
        <time>2018-07-22T12:36:24Z</time>
      </trkpt>
      <trkpt lat="42.3036860" lon="-0.4315810">
        <ele>1016.0</ele>
        <time>2018-07-22T12:36:26Z</time>
      </trkpt>
      <trkpt lat="42.3037030" lon="-0.4315420">
        <ele>1015.8</ele>
        <time>2018-07-22T12:36:28Z</time>
      </trkpt>
      <trkpt lat="42.3037220" lon="-0.4315140">
        <ele>1015.7</ele>
        <time>2018-07-22T12:36:29Z</time>
      </trkpt>
      <trkpt lat="42.3037300" lon="-0.4314760">
        <ele>1015.6</ele>
        <time>2018-07-22T12:36:32Z</time>
      </trkpt>
      <trkpt lat="42.3037450" lon="-0.4314260">
        <ele>1015.4</ele>
        <time>2018-07-22T12:36:35Z</time>
      </trkpt>
      <trkpt lat="42.3037380" lon="-0.4313880">
        <ele>1015.2</ele>
        <time>2018-07-22T12:36:39Z</time>
      </trkpt>
      <trkpt lat="42.3037270" lon="-0.4313410">
        <ele>1015.0</ele>
        <time>2018-07-22T12:36:41Z</time>
      </trkpt>
      <trkpt lat="42.3037350" lon="-0.4312990">
        <ele>1014.8</ele>
        <time>2018-07-22T12:36:43Z</time>
      </trkpt>
      <trkpt lat="42.3037480" lon="-0.4312590">
        <ele>1014.6</ele>
        <time>2018-07-22T12:36:46Z</time>
      </trkpt>
      <trkpt lat="42.3037370" lon="-0.4312240">
        <ele>1014.5</ele>
        <time>2018-07-22T12:36:49Z</time>
      </trkpt>
      <trkpt lat="42.3037110" lon="-0.4311940">
        <ele>1014.3</ele>
        <time>2018-07-22T12:36:52Z</time>
      </trkpt>
      <trkpt lat="42.3036870" lon="-0.4311640">
        <ele>1014.2</ele>
        <time>2018-07-22T12:36:55Z</time>
      </trkpt>
      <trkpt lat="42.3037080" lon="-0.4311270">
        <ele>1014.0</ele>
        <time>2018-07-22T12:36:58Z</time>
      </trkpt>
      <trkpt lat="42.3037290" lon="-0.4310890">
        <ele>1013.9</ele>
        <time>2018-07-22T12:37:01Z</time>
      </trkpt>
      <trkpt lat="42.3037600" lon="-0.4310450">
        <ele>1013.7</ele>
        <time>2018-07-22T12:37:03Z</time>
      </trkpt>
      <trkpt lat="42.3037780" lon="-0.4310180">
        <ele>1013.6</ele>
        <time>2018-07-22T12:37:06Z</time>
      </trkpt>
      <trkpt lat="42.3037980" lon="-0.4309770">
        <ele>1013.4</ele>
        <time>2018-07-22T12:37:08Z</time>
      </trkpt>
      <trkpt lat="42.3038190" lon="-0.4309330">
        <ele>1013.2</ele>
        <time>2018-07-22T12:37:10Z</time>
      </trkpt>
      <trkpt lat="42.3038460" lon="-0.4309010">
        <ele>1013.0</ele>
        <time>2018-07-22T12:37:11Z</time>
      </trkpt>
      <trkpt lat="42.3038750" lon="-0.4308670">
        <ele>1012.8</ele>
        <time>2018-07-22T12:37:12Z</time>
      </trkpt>
      <trkpt lat="42.3038980" lon="-0.4308400">
        <ele>1012.6</ele>
        <time>2018-07-22T12:37:13Z</time>
      </trkpt>
      <trkpt lat="42.3039120" lon="-0.4308010">
        <ele>1012.4</ele>
        <time>2018-07-22T12:37:15Z</time>
      </trkpt>
      <trkpt lat="42.3039090" lon="-0.4307500">
        <ele>1012.1</ele>
        <time>2018-07-22T12:37:18Z</time>
      </trkpt>
      <trkpt lat="42.3038730" lon="-0.4307200">
        <ele>1011.8</ele>
        <time>2018-07-22T12:37:20Z</time>
      </trkpt>
      <trkpt lat="42.3038640" lon="-0.4306770">
        <ele>1011.6</ele>
        <time>2018-07-22T12:37:22Z</time>
      </trkpt>
      <trkpt lat="42.3038690" lon="-0.4306370">
        <ele>1011.4</ele>
        <time>2018-07-22T12:37:24Z</time>
      </trkpt>
      <trkpt lat="42.3038870" lon="-0.4305860">
        <ele>1011.2</ele>
        <time>2018-07-22T12:37:27Z</time>
      </trkpt>
      <trkpt lat="42.3039100" lon="-0.4305480">
        <ele>1011.0</ele>
        <time>2018-07-22T12:37:29Z</time>
      </trkpt>
      <trkpt lat="42.3039250" lon="-0.4305160">
        <ele>1010.9</ele>
        <time>2018-07-22T12:37:32Z</time>
      </trkpt>
      <trkpt lat="42.3038930" lon="-0.4305070">
        <ele>1010.8</ele>
        <time>2018-07-22T12:37:36Z</time>
      </trkpt>
      <trkpt lat="42.3038910" lon="-0.4304660">
        <ele>1010.6</ele>
        <time>2018-07-22T12:37:40Z</time>
      </trkpt>
      <trkpt lat="42.3039050" lon="-0.4304110">
        <ele>1010.4</ele>
        <time>2018-07-22T12:37:43Z</time>
      </trkpt>
      <trkpt lat="42.3039240" lon="-0.4303610">
        <ele>1010.1</ele>
        <time>2018-07-22T12:37:45Z</time>
      </trkpt>
      <trkpt lat="42.3039360" lon="-0.4303260">
        <ele>1009.9</ele>
        <time>2018-07-22T12:37:47Z</time>
      </trkpt>
      <trkpt lat="42.3039550" lon="-0.4302980">
        <ele>1009.8</ele>
        <time>2018-07-22T12:37:49Z</time>
      </trkpt>
      <trkpt lat="42.3039700" lon="-0.4302600">
        <ele>1009.6</ele>
        <time>2018-07-22T12:37:52Z</time>
      </trkpt>
      <trkpt lat="42.3039590" lon="-0.4302150">
        <ele>1009.5</ele>
        <time>2018-07-22T12:37:55Z</time>
      </trkpt>
      <trkpt lat="42.3039610" lon="-0.4301720">
        <ele>1009.3</ele>
        <time>2018-07-22T12:37:57Z</time>
      </trkpt>
      <trkpt lat="42.3039690" lon="-0.4301240">
        <ele>1009.2</ele>
        <time>2018-07-22T12:37:59Z</time>
      </trkpt>
      <trkpt lat="42.3039570" lon="-0.4300780">
        <ele>1009.0</ele>
        <time>2018-07-22T12:38:01Z</time>
      </trkpt>
      <trkpt lat="42.3039590" lon="-0.4300350">
        <ele>1008.8</ele>
        <time>2018-07-22T12:38:05Z</time>
      </trkpt>
      <trkpt lat="42.3039410" lon="-0.4299920">
        <ele>1008.7</ele>
        <time>2018-07-22T12:38:09Z</time>
      </trkpt>
      <trkpt lat="42.3039490" lon="-0.4299560">
        <ele>1008.6</ele>
        <time>2018-07-22T12:38:11Z</time>
      </trkpt>
      <trkpt lat="42.3039540" lon="-0.4299150">
        <ele>1008.4</ele>
        <time>2018-07-22T12:38:13Z</time>
      </trkpt>
      <trkpt lat="42.3039570" lon="-0.4298760">
        <ele>1008.3</ele>
        <time>2018-07-22T12:38:15Z</time>
      </trkpt>
      <trkpt lat="42.3039600" lon="-0.4298360">
        <ele>1008.2</ele>
        <time>2018-07-22T12:38:17Z</time>
      </trkpt>
      <trkpt lat="42.3039690" lon="-0.4297970">
        <ele>1008.0</ele>
        <time>2018-07-22T12:38:19Z</time>
      </trkpt>
      <trkpt lat="42.3039730" lon="-0.4297480">
        <ele>1007.9</ele>
        <time>2018-07-22T12:38:22Z</time>
      </trkpt>
      <trkpt lat="42.3040080" lon="-0.4297340">
        <ele>1007.7</ele>
        <time>2018-07-22T12:38:26Z</time>
      </trkpt>
      <trkpt lat="42.3040360" lon="-0.4297130">
        <ele>1007.4</ele>
        <time>2018-07-22T12:38:28Z</time>
      </trkpt>
      <trkpt lat="42.3040560" lon="-0.4296800">
        <ele>1007.2</ele>
        <time>2018-07-22T12:38:30Z</time>
      </trkpt>
      <trkpt lat="42.3040650" lon="-0.4296300">
        <ele>1007.0</ele>
        <time>2018-07-22T12:38:37Z</time>
      </trkpt>
      <trkpt lat="42.3040990" lon="-0.4296010">
        <ele>1004.2</ele>
        <time>2018-07-22T12:38:38Z</time>
      </trkpt>
      <trkpt lat="42.3041310" lon="-0.4295880">
        <ele>1001.8</ele>
        <time>2018-07-22T12:38:39Z</time>
      </trkpt>
      <trkpt lat="42.3041460" lon="-0.4295430">
        <ele>1000.2</ele>
        <time>2018-07-22T12:38:44Z</time>
      </trkpt>
      <trkpt lat="42.3041420" lon="-0.4295050">
        <ele>999.0</ele>
        <time>2018-07-22T12:38:47Z</time>
      </trkpt>
      <trkpt lat="42.3041510" lon="-0.4294590">
        <ele>997.4</ele>
        <time>2018-07-22T12:38:49Z</time>
      </trkpt>
      <trkpt lat="42.3041500" lon="-0.4294020">
        <ele>995.8</ele>
        <time>2018-07-22T12:38:52Z</time>
      </trkpt>
      <trkpt lat="42.3041450" lon="-0.4293580">
        <ele>994.5</ele>
        <time>2018-07-22T12:38:54Z</time>
      </trkpt>
      <trkpt lat="42.3041410" lon="-0.4293140">
        <ele>993.3</ele>
        <time>2018-07-22T12:38:56Z</time>
      </trkpt>
      <trkpt lat="42.3041390" lon="-0.4292690">
        <ele>992.3</ele>
        <time>2018-07-22T12:38:58Z</time>
      </trkpt>
      <trkpt lat="42.3041290" lon="-0.4292230">
        <ele>991.3</ele>
        <time>2018-07-22T12:39:00Z</time>
      </trkpt>
      <trkpt lat="42.3041160" lon="-0.4291830">
        <ele>990.4</ele>
        <time>2018-07-22T12:39:02Z</time>
      </trkpt>
      <trkpt lat="42.3041070" lon="-0.4291480">
        <ele>990.1</ele>
        <time>2018-07-22T12:39:04Z</time>
      </trkpt>
      <trkpt lat="42.3040940" lon="-0.4291150">
        <ele>989.9</ele>
        <time>2018-07-22T12:39:06Z</time>
      </trkpt>
      <trkpt lat="42.3040920" lon="-0.4290670">
        <ele>989.6</ele>
        <time>2018-07-22T12:39:09Z</time>
      </trkpt>
      <trkpt lat="42.3040930" lon="-0.4290250">
        <ele>989.4</ele>
        <time>2018-07-22T12:39:12Z</time>
      </trkpt>
      <trkpt lat="42.3040930" lon="-0.4289700">
        <ele>988.3</ele>
        <time>2018-07-22T12:39:16Z</time>
      </trkpt>
      <trkpt lat="42.3041420" lon="-0.4289770">
        <ele>987.1</ele>
        <time>2018-07-22T12:39:55Z</time>
      </trkpt>
      <trkpt lat="42.3041870" lon="-0.4289940">
        <ele>985.9</ele>
        <time>2018-07-22T12:39:57Z</time>
      </trkpt>
      <trkpt lat="42.3042450" lon="-0.4289910">
        <ele>984.3</ele>
        <time>2018-07-22T12:39:58Z</time>
      </trkpt>
      <trkpt lat="42.3043130" lon="-0.4290850">
        <ele>983.5</ele>
        <time>2018-07-22T12:39:59Z</time>
      </trkpt>
      <trkpt lat="42.3043560" lon="-0.4291410">
        <ele>984.1</ele>
        <time>2018-07-22T12:40:00Z</time>
      </trkpt>
      <trkpt lat="42.3043570" lon="-0.4292160">
        <ele>985.2</ele>
        <time>2018-07-22T12:40:01Z</time>
      </trkpt>
      <trkpt lat="42.3043380" lon="-0.4291790">
        <ele>985.9</ele>
        <time>2018-07-22T12:40:05Z</time>
      </trkpt>
      <trkpt lat="42.3042840" lon="-0.4291520">
        <ele>987.2</ele>
        <time>2018-07-22T12:40:09Z</time>
      </trkpt>
      <trkpt lat="42.3042400" lon="-0.4291470">
        <ele>988.4</ele>
        <time>2018-07-22T12:40:10Z</time>
      </trkpt>
      <trkpt lat="42.3041920" lon="-0.4291700">
        <ele>989.6</ele>
        <time>2018-07-22T12:40:11Z</time>
      </trkpt>
      <trkpt lat="42.3041680" lon="-0.4290930">
        <ele>988.7</ele>
        <time>2018-07-22T12:40:12Z</time>
      </trkpt>
      <trkpt lat="42.3041310" lon="-0.4290690">
        <ele>987.8</ele>
        <time>2018-07-22T12:40:13Z</time>
      </trkpt>
      <trkpt lat="42.3040900" lon="-0.4290460">
        <ele>986.9</ele>
        <time>2018-07-22T12:40:14Z</time>
      </trkpt>
      <trkpt lat="42.3040660" lon="-0.4290180">
        <ele>986.4</ele>
        <time>2018-07-22T12:40:15Z</time>
      </trkpt>
      <trkpt lat="42.3040900" lon="-0.4290380">
        <ele>986.4</ele>
        <time>2018-07-22T12:40:19Z</time>
      </trkpt>
      <trkpt lat="42.3040430" lon="-0.4290450">
        <ele>986.4</ele>
        <time>2018-07-22T12:40:23Z</time>
      </trkpt>
      <trkpt lat="42.3040100" lon="-0.4290470">
        <ele>986.4</ele>
        <time>2018-07-22T12:40:25Z</time>
      </trkpt>
      <trkpt lat="42.3040780" lon="-0.4290180">
        <ele>986.5</ele>
        <time>2018-07-22T12:40:28Z</time>
      </trkpt>
      <trkpt lat="42.3040100" lon="-0.4290060">
        <ele>986.6</ele>
        <time>2018-07-22T12:40:30Z</time>
      </trkpt>
      <trkpt lat="42.3039670" lon="-0.4290030">
        <ele>986.6</ele>
        <time>2018-07-22T12:40:31Z</time>
      </trkpt>
      <trkpt lat="42.3040100" lon="-0.4289300">
        <ele>984.2</ele>
        <time>2018-07-22T12:40:34Z</time>
      </trkpt>
      <trkpt lat="42.3040210" lon="-0.4288910">
        <ele>983.3</ele>
        <time>2018-07-22T12:40:35Z</time>
      </trkpt>
      <trkpt lat="42.3040390" lon="-0.4288480">
        <ele>981.8</ele>
        <time>2018-07-22T12:40:37Z</time>
      </trkpt>
      <trkpt lat="42.3040890" lon="-0.4287880">
        <ele>978.5</ele>
        <time>2018-07-22T12:40:38Z</time>
      </trkpt>
      <trkpt lat="42.3040750" lon="-0.4287450">
        <ele>976.8</ele>
        <time>2018-07-22T12:40:41Z</time>
      </trkpt>
      <trkpt lat="42.3040900" lon="-0.4286910">
        <ele>975.0</ele>
        <time>2018-07-22T12:40:44Z</time>
      </trkpt>
      <trkpt lat="42.3041170" lon="-0.4286350">
        <ele>973.0</ele>
        <time>2018-07-22T12:40:46Z</time>
      </trkpt>
      <trkpt lat="42.3041470" lon="-0.4285900">
        <ele>971.1</ele>
        <time>2018-07-22T12:40:48Z</time>
      </trkpt>
      <trkpt lat="42.3041640" lon="-0.4285540">
        <ele>969.7</ele>
        <time>2018-07-22T12:40:50Z</time>
      </trkpt>
      <trkpt lat="42.3041710" lon="-0.4285020">
        <ele>968.0</ele>
        <time>2018-07-22T12:40:53Z</time>
      </trkpt>
      <trkpt lat="42.3041870" lon="-0.4284600">
        <ele>966.5</ele>
        <time>2018-07-22T12:40:55Z</time>
      </trkpt>
      <trkpt lat="42.3042100" lon="-0.4284340">
        <ele>966.0</ele>
        <time>2018-07-22T12:40:57Z</time>
      </trkpt>
      <trkpt lat="42.3042190" lon="-0.4283990">
        <ele>965.7</ele>
        <time>2018-07-22T12:41:01Z</time>
      </trkpt>
      <trkpt lat="42.3042250" lon="-0.4283580">
        <ele>965.3</ele>
        <time>2018-07-22T12:41:03Z</time>
      </trkpt>
      <trkpt lat="42.3042340" lon="-0.4283210">
        <ele>965.0</ele>
        <time>2018-07-22T12:41:07Z</time>
      </trkpt>
      <trkpt lat="42.3042280" lon="-0.4282680">
        <ele>973.3</ele>
        <time>2018-07-22T12:41:11Z</time>
      </trkpt>
      <trkpt lat="42.3042310" lon="-0.4282260">
        <ele>980.1</ele>
        <time>2018-07-22T12:41:13Z</time>
      </trkpt>
      <trkpt lat="42.3042400" lon="-0.4281820">
        <ele>980.2</ele>
        <time>2018-07-22T12:41:15Z</time>
      </trkpt>
      <trkpt lat="42.3042430" lon="-0.4281390">
        <ele>980.2</ele>
        <time>2018-07-22T12:41:17Z</time>
      </trkpt>
      <trkpt lat="42.3042500" lon="-0.4280960">
        <ele>980.2</ele>
        <time>2018-07-22T12:41:21Z</time>
      </trkpt>
      <trkpt lat="42.3042510" lon="-0.4280550">
        <ele>980.3</ele>
        <time>2018-07-22T12:41:25Z</time>
      </trkpt>
      <trkpt lat="42.3042440" lon="-0.4280060">
        <ele>980.3</ele>
        <time>2018-07-22T12:41:28Z</time>
      </trkpt>
      <trkpt lat="42.3042320" lon="-0.4279260">
        <ele>980.4</ele>
        <time>2018-07-22T12:41:30Z</time>
      </trkpt>
      <trkpt lat="42.3043230" lon="-0.4279590">
        <ele>980.5</ele>
        <time>2018-07-22T12:41:31Z</time>
      </trkpt>
      <trkpt lat="42.3043600" lon="-0.4279550">
        <ele>980.6</ele>
        <time>2018-07-22T12:41:32Z</time>
      </trkpt>
      <trkpt lat="42.3044000" lon="-0.4279470">
        <ele>980.7</ele>
        <time>2018-07-22T12:41:36Z</time>
      </trkpt>
      <trkpt lat="42.3044140" lon="-0.4279010">
        <ele>980.7</ele>
        <time>2018-07-22T12:41:39Z</time>
      </trkpt>
      <trkpt lat="42.3044160" lon="-0.4278590">
        <ele>980.7</ele>
        <time>2018-07-22T12:41:41Z</time>
      </trkpt>
      <trkpt lat="42.3044340" lon="-0.4278290">
        <ele>980.8</ele>
        <time>2018-07-22T12:41:44Z</time>
      </trkpt>
      <trkpt lat="42.3044650" lon="-0.4277960">
        <ele>980.8</ele>
        <time>2018-07-22T12:41:46Z</time>
      </trkpt>
      <trkpt lat="42.3044380" lon="-0.4278130">
        <ele>980.8</ele>
        <time>2018-07-22T12:41:49Z</time>
      </trkpt>
      <trkpt lat="42.3044660" lon="-0.4278020">
        <ele>980.9</ele>
        <time>2018-07-22T12:42:04Z</time>
      </trkpt>
      <trkpt lat="42.3044980" lon="-0.4278000">
        <ele>980.9</ele>
        <time>2018-07-22T12:42:05Z</time>
      </trkpt>
      <trkpt lat="42.3045390" lon="-0.4277630">
        <ele>980.9</ele>
        <time>2018-07-22T12:42:07Z</time>
      </trkpt>
      <trkpt lat="42.3045840" lon="-0.4277210">
        <ele>981.0</ele>
        <time>2018-07-22T12:42:09Z</time>
      </trkpt>
      <trkpt lat="42.3045760" lon="-0.4276540">
        <ele>981.0</ele>
        <time>2018-07-22T12:42:13Z</time>
      </trkpt>
      <trkpt lat="42.3045150" lon="-0.4276870">
        <ele>980.9</ele>
        <time>2018-07-22T12:42:16Z</time>
      </trkpt>
      <trkpt lat="42.3044980" lon="-0.4277240">
        <ele>980.9</ele>
        <time>2018-07-22T12:42:17Z</time>
      </trkpt>
      <trkpt lat="42.3044590" lon="-0.4277910">
        <ele>980.9</ele>
        <time>2018-07-22T12:42:18Z</time>
      </trkpt>
      <trkpt lat="42.3044240" lon="-0.4278670">
        <ele>980.8</ele>
        <time>2018-07-22T12:42:21Z</time>
      </trkpt>
      <trkpt lat="42.3044070" lon="-0.4279000">
        <ele>980.7</ele>
        <time>2018-07-22T12:42:22Z</time>
      </trkpt>
      <trkpt lat="42.3043950" lon="-0.4279340">
        <ele>980.7</ele>
        <time>2018-07-22T12:42:23Z</time>
      </trkpt>
      <trkpt lat="42.3043960" lon="-0.4279770">
        <ele>980.6</ele>
        <time>2018-07-22T12:42:24Z</time>
      </trkpt>
      <trkpt lat="42.3044030" lon="-0.4280200">
        <ele>980.6</ele>
        <time>2018-07-22T12:42:26Z</time>
      </trkpt>
      <trkpt lat="42.3044090" lon="-0.4280770">
        <ele>980.5</ele>
        <time>2018-07-22T12:42:28Z</time>
      </trkpt>
      <trkpt lat="42.3044780" lon="-0.4280490">
        <ele>978.0</ele>
        <time>2018-07-22T12:42:38Z</time>
      </trkpt>
      <trkpt lat="42.3044960" lon="-0.4280230">
        <ele>978.5</ele>
        <time>2018-07-22T12:42:40Z</time>
      </trkpt>
      <trkpt lat="42.3045130" lon="-0.4279960">
        <ele>978.3</ele>
        <time>2018-07-22T12:42:47Z</time>
      </trkpt>
      <trkpt lat="42.3045310" lon="-0.4279690">
        <ele>979.1</ele>
        <time>2018-07-22T12:42:48Z</time>
      </trkpt>
      <trkpt lat="42.3045830" lon="-0.4279480">
        <ele>980.0</ele>
        <time>2018-07-22T12:42:50Z</time>
      </trkpt>
      <trkpt lat="42.3046430" lon="-0.4279310">
        <ele>979.3</ele>
        <time>2018-07-22T12:42:52Z</time>
      </trkpt>
      <trkpt lat="42.3046790" lon="-0.4279140">
        <ele>978.9</ele>
        <time>2018-07-22T12:42:55Z</time>
      </trkpt>
      <trkpt lat="42.3047080" lon="-0.4278770">
        <ele>979.4</ele>
        <time>2018-07-22T12:42:58Z</time>
      </trkpt>
      <trkpt lat="42.3046870" lon="-0.4278470">
        <ele>980.3</ele>
        <time>2018-07-22T12:43:01Z</time>
      </trkpt>
      <trkpt lat="42.3047060" lon="-0.4278070">
        <ele>980.0</ele>
        <time>2018-07-22T12:43:05Z</time>
      </trkpt>
      <trkpt lat="42.3047140" lon="-0.4277710">
        <ele>979.9</ele>
        <time>2018-07-22T12:43:07Z</time>
      </trkpt>
      <trkpt lat="42.3045250" lon="-0.4278610">
        <ele>980.8</ele>
        <time>2018-07-22T12:43:13Z</time>
      </trkpt>
      <trkpt lat="42.3044930" lon="-0.4278770">
        <ele>980.8</ele>
        <time>2018-07-22T12:43:14Z</time>
      </trkpt>
      <trkpt lat="42.3044040" lon="-0.4278680">
        <ele>980.7</ele>
        <time>2018-07-22T12:43:15Z</time>
      </trkpt>
      <trkpt lat="42.3043660" lon="-0.4278930">
        <ele>980.7</ele>
        <time>2018-07-22T12:43:16Z</time>
      </trkpt>
      <trkpt lat="42.3043390" lon="-0.4278600">
        <ele>980.6</ele>
        <time>2018-07-22T12:43:19Z</time>
      </trkpt>
      <trkpt lat="42.3043200" lon="-0.4278270">
        <ele>980.6</ele>
        <time>2018-07-22T12:43:21Z</time>
      </trkpt>
      <trkpt lat="42.3043540" lon="-0.4277660">
        <ele>980.7</ele>
        <time>2018-07-22T12:43:23Z</time>
      </trkpt>
      <trkpt lat="42.3044570" lon="-0.4277550">
        <ele>980.8</ele>
        <time>2018-07-22T12:43:24Z</time>
      </trkpt>
      <trkpt lat="42.3045160" lon="-0.4277240">
        <ele>980.9</ele>
        <time>2018-07-22T12:43:26Z</time>
      </trkpt>
      <trkpt lat="42.3045480" lon="-0.4276890">
        <ele>980.9</ele>
        <time>2018-07-22T12:43:27Z</time>
      </trkpt>
      <trkpt lat="42.3046330" lon="-0.4276860">
        <ele>980.9</ele>
        <time>2018-07-22T12:43:28Z</time>
      </trkpt>
      <trkpt lat="42.3046850" lon="-0.4277050">
        <ele>980.9</ele>
        <time>2018-07-22T12:43:30Z</time>
      </trkpt>
      <trkpt lat="42.3047100" lon="-0.4276960">
        <ele>980.8</ele>
        <time>2018-07-22T12:43:31Z</time>
      </trkpt>
      <trkpt lat="42.3046740" lon="-0.4277130">
        <ele>980.9</ele>
        <time>2018-07-22T12:43:32Z</time>
      </trkpt>
      <trkpt lat="42.3046380" lon="-0.4277320">
        <ele>980.9</ele>
        <time>2018-07-22T12:43:33Z</time>
      </trkpt>
      <trkpt lat="42.3044180" lon="-0.4277810">
        <ele>980.8</ele>
        <time>2018-07-22T12:43:35Z</time>
      </trkpt>
    </trkseg>
  </trk>
</gpx>
